<?xml version='1.0' encoding='UTF-8'?><gpx version="1.1" creator="JPX - https://github.com/jenetics/jpx" xmlns="http://www.topografix.com/GPX/1/1"><trk><trkseg><trkpt lat="46.23465627261996" lon="13.255642507933686"><ele>841.0</ele><time>2026-03-28T10:09:44Z</time></trkpt><trkpt lat="46.23471472218473" lon="13.255781606784508"><ele>841.0</ele><time>2026-03-28T10:09:46Z</time></trkpt><trkpt lat="46.23482446491662" lon="13.255877049097702"><ele>841.0</ele><time>2026-03-28T10:09:48Z</time></trkpt><trkpt lat="46.23489353803728" lon="13.25591236586596"><ele>841.0</ele><time>2026-03-28T10:09:49Z</time></trkpt><trkpt lat="46.23495724774739" lon="13.255926903155794"><ele>841.0</ele><time>2026-03-28T10:09:50Z</time></trkpt><trkpt lat="46.23503130409942" lon="13.255940026448318"><ele>842.4999999999999</ele><time>2026-03-28T10:09:51Z</time></trkpt><trkpt lat="46.2350979768456" lon="13.255943972892432"><ele>844.0</ele><time>2026-03-28T10:09:52Z</time></trkpt><trkpt lat="46.235183981531534" lon="13.255896457605086"><ele>845.5</ele><time>2026-03-28T10:09:53Z</time></trkpt><trkpt lat="46.2352665743986" lon="13.255848969742605"><ele>847.0</ele><time>2026-03-28T10:09:54Z</time></trkpt><trkpt lat="46.23535442118775" lon="13.255812867047023"><ele>848.4999999999999</ele><time>2026-03-28T10:09:55Z</time></trkpt><trkpt lat="46.23544898716631" lon="13.255786378244125"><ele>850.0</ele><time>2026-03-28T10:09:56Z</time></trkpt><trkpt lat="46.235536011571135" lon="13.255752751261685"><ele>849.9999999999999</ele><time>2026-03-28T10:09:57Z</time></trkpt><trkpt lat="46.2356268067451" lon="13.25573278599404"><ele>850.0</ele><time>2026-03-28T10:09:58Z</time></trkpt><trkpt lat="46.235704798476945" lon="13.255713473581078"><ele>850.0</ele><time>2026-03-28T10:09:59Z</time></trkpt><trkpt lat="46.23579527118345" lon="13.255692386467777"><ele>850.0</ele><time>2026-03-28T10:10:00Z</time></trkpt><trkpt lat="46.2358876101792" lon="13.255665259126129"><ele>849.9999999999999</ele><time>2026-03-28T10:10:01Z</time></trkpt><trkpt lat="46.235977154802" lon="13.255644518032122"><ele>850.0</ele><time>2026-03-28T10:10:02Z</time></trkpt><trkpt lat="46.23605998552818" lon="13.255645905380684"><ele>849.0</ele><time>2026-03-28T10:10:03Z</time></trkpt><trkpt lat="46.23613252615606" lon="13.255637015640316"><ele>848.0</ele><time>2026-03-28T10:10:04Z</time></trkpt><trkpt lat="46.23621062650049" lon="13.255626483435444"><ele>847.0</ele><time>2026-03-28T10:10:05Z</time></trkpt><trkpt lat="46.2363032080486" lon="13.255676533611055"><ele>846.0</ele><time>2026-03-28T10:10:06Z</time></trkpt><trkpt lat="46.236366043716934" lon="13.255819060168983"><ele>845.0</ele><time>2026-03-28T10:10:07Z</time></trkpt><trkpt lat="46.236444989356094" lon="13.255911379979683"><ele>845.3333333333334</ele><time>2026-03-28T10:10:08Z</time></trkpt><trkpt lat="46.23651692547332" lon="13.255975564218218"><ele>845.6666666666667</ele><time>2026-03-28T10:10:09Z</time></trkpt><trkpt lat="46.23660032990629" lon="13.255983500871691"><ele>846.0</ele><time>2026-03-28T10:10:10Z</time></trkpt><trkpt lat="46.23667622160823" lon="13.255988393209243"><ele>846.3333333333333</ele><time>2026-03-28T10:10:11Z</time></trkpt><trkpt lat="46.23677665568985" lon="13.256008390494726"><ele>846.6666666666666</ele><time>2026-03-28T10:10:12Z</time></trkpt><trkpt lat="46.236868711049894" lon="13.256018584262716"><ele>847.0</ele><time>2026-03-28T10:10:13Z</time></trkpt><trkpt lat="46.23695885149703" lon="13.256056616133247"><ele>847.0</ele><time>2026-03-28T10:10:14Z</time></trkpt><trkpt lat="46.23699509875057" lon="13.256179281092596"><ele>847.0</ele><time>2026-03-28T10:10:15Z</time></trkpt><trkpt lat="46.236981619318556" lon="13.25628731658214"><ele>847.0</ele><time>2026-03-28T10:10:16Z</time></trkpt><trkpt lat="46.23693874911172" lon="13.256376301531715"><ele>847.0</ele><time>2026-03-28T10:10:17Z</time></trkpt><trkpt lat="46.23688039828762" lon="13.256519810766322"><ele>847.0</ele><time>2026-03-28T10:10:18Z</time></trkpt><trkpt lat="46.23682491940766" lon="13.256685944550545"><ele>845.0</ele><time>2026-03-28T10:10:19Z</time></trkpt><trkpt lat="46.236833684218894" lon="13.25685086761867"><ele>843.0</ele><time>2026-03-28T10:10:20Z</time></trkpt><trkpt lat="46.23683434944067" lon="13.256962073975211"><ele>841.0</ele><time>2026-03-28T10:10:21Z</time></trkpt><trkpt lat="46.236856734436394" lon="13.25711524660187"><ele>839.0</ele><time>2026-03-28T10:10:21.999Z</time></trkpt><trkpt lat="46.23690003948016" lon="13.257264507084198"><ele>837.0</ele><time>2026-03-28T10:10:22.999Z</time></trkpt><trkpt lat="46.23696227652375" lon="13.257414540134167"><ele>834.75</ele><time>2026-03-28T10:10:23.999Z</time></trkpt><trkpt lat="46.23703782421163" lon="13.257572878342438"><ele>832.5</ele><time>2026-03-28T10:10:24.999Z</time></trkpt><trkpt lat="46.237109059130006" lon="13.257744385322408"><ele>830.25</ele><time>2026-03-28T10:10:25.999Z</time></trkpt><trkpt lat="46.23716577632558" lon="13.257916125171986"><ele>828.0</ele><time>2026-03-28T10:10:26.999Z</time></trkpt><trkpt lat="46.23721462264185" lon="13.258081671988364"><ele>823.75</ele><time>2026-03-28T10:10:27.999Z</time></trkpt><trkpt lat="46.23724559705103" lon="13.258255198447213"><ele>819.5</ele><time>2026-03-28T10:10:28.999Z</time></trkpt><trkpt lat="46.237241978376986" lon="13.258448798800298"><ele>815.25</ele><time>2026-03-28T10:10:29.999Z</time></trkpt><trkpt lat="46.237241149031355" lon="13.25863782299774"><ele>811.0</ele><time>2026-03-28T10:10:30.999Z</time></trkpt><trkpt lat="46.2372360492652" lon="13.258835611840878"><ele>809.5</ele><time>2026-03-28T10:10:31.999Z</time></trkpt><trkpt lat="46.23721577851384" lon="13.259023266003032"><ele>808.0</ele><time>2026-03-28T10:10:32.999Z</time></trkpt><trkpt lat="46.23721439285756" lon="13.259210253600669"><ele>806.5</ele><time>2026-03-28T10:10:33.999Z</time></trkpt><trkpt lat="46.237196284944865" lon="13.259379092923666"><ele>805.0</ele><time>2026-03-28T10:10:34.999Z</time></trkpt><trkpt lat="46.237149830828315" lon="13.25954411819948"><ele>805.0</ele><time>2026-03-28T10:10:35.999Z</time></trkpt><trkpt lat="46.23710498737608" lon="13.259691699894118"><ele>805.0</ele><time>2026-03-28T10:10:36.999Z</time></trkpt><trkpt lat="46.23705768875743" lon="13.259842068321806"><ele>805.0</ele><time>2026-03-28T10:10:37.999Z</time></trkpt><trkpt lat="46.23702397995553" lon="13.259991164971703"><ele>805.0</ele><time>2026-03-28T10:10:38.999Z</time></trkpt><trkpt lat="46.236986707378016" lon="13.260130470298305"><ele>805.0</ele><time>2026-03-28T10:10:39.999Z</time></trkpt><trkpt lat="46.237037902243124" lon="13.260292304100924"><ele>804.75</ele><time>2026-03-28T10:10:40.999Z</time></trkpt><trkpt lat="46.23708472162773" lon="13.260463951863413"><ele>804.5</ele><time>2026-03-28T10:10:41.999Z</time></trkpt><trkpt lat="46.23714079563277" lon="13.260629711412626"><ele>804.25</ele><time>2026-03-28T10:10:42.999Z</time></trkpt><trkpt lat="46.23717927040229" lon="13.260781672137664"><ele>804.0</ele><time>2026-03-28T10:10:43.999Z</time></trkpt><trkpt lat="46.23719977848532" lon="13.26094410265193"><ele>804.0</ele><time>2026-03-28T10:10:44.999Z</time></trkpt><trkpt lat="46.23716709544865" lon="13.261082160807714"><ele>804.0</ele><time>2026-03-28T10:10:45.999Z</time></trkpt><trkpt lat="46.237152499661754" lon="13.261238576444049"><ele>804.0</ele><time>2026-03-28T10:10:46.999Z</time></trkpt><trkpt lat="46.23712601524296" lon="13.2613896250647"><ele>804.0</ele><time>2026-03-28T10:10:47.999Z</time></trkpt><trkpt lat="46.23711606951555" lon="13.261528128942533"><ele>804.0</ele><time>2026-03-28T10:10:48.999Z</time></trkpt><trkpt lat="46.23716115735725" lon="13.261669505921201"><ele>801.25</ele><time>2026-03-28T10:10:49.999Z</time></trkpt><trkpt lat="46.237258117987935" lon="13.261756418851265"><ele>798.5</ele><time>2026-03-28T10:10:50.999Z</time></trkpt><trkpt lat="46.237324907163945" lon="13.261879363693666"><ele>795.75</ele><time>2026-03-28T10:10:51.999Z</time></trkpt><trkpt lat="46.23738720662586" lon="13.262023697593118"><ele>793.0</ele><time>2026-03-28T10:10:52.999Z</time></trkpt><trkpt lat="46.237373949133456" lon="13.262194674846317"><ele>798.75</ele><time>2026-03-28T10:10:53.999Z</time></trkpt><trkpt lat="46.23741964339054" lon="13.262355046031141"><ele>804.5</ele><time>2026-03-28T10:10:54.999Z</time></trkpt><trkpt lat="46.23743789904732" lon="13.262521042747196"><ele>810.25</ele><time>2026-03-28T10:10:55.999Z</time></trkpt><trkpt lat="46.23745335335116" lon="13.262678976307996"><ele>816.0</ele><time>2026-03-28T10:10:56.999Z</time></trkpt><trkpt lat="46.237458573225396" lon="13.262831691436931"><ele>816.0</ele><time>2026-03-28T10:10:57.999Z</time></trkpt><trkpt lat="46.23744444382006" lon="13.26297117167957"><ele>816.0</ele><time>2026-03-28T10:10:58.999Z</time></trkpt><trkpt lat="46.237378208006035" lon="13.263091152913029"><ele>816.0</ele><time>2026-03-28T10:10:59.999Z</time></trkpt><trkpt lat="46.23731095602496" lon="13.263206922624365"><ele>816.0</ele><time>2026-03-28T10:11:00.999Z</time></trkpt><trkpt lat="46.23726344929689" lon="13.263333686170796"><ele>816.0</ele><time>2026-03-28T10:11:01.999Z</time></trkpt><trkpt lat="46.23721614943051" lon="13.263454522741815"><ele>811.0</ele><time>2026-03-28T10:11:02.999Z</time></trkpt><trkpt lat="46.23715549390051" lon="13.263559744532172"><ele>806.0</ele><time>2026-03-28T10:11:03.999Z</time></trkpt><trkpt lat="46.23709850868604" lon="13.263676763801772"><ele>801.0</ele><time>2026-03-28T10:11:04.999Z</time></trkpt><trkpt lat="46.23703407310358" lon="13.263793989625139"><ele>796.0</ele><time>2026-03-28T10:11:05.999Z</time></trkpt><trkpt lat="46.236996054330916" lon="13.26391803326607"><ele>791.0</ele><time>2026-03-28T10:11:06.999Z</time></trkpt><trkpt lat="46.2369506632987" lon="13.264006016253672"><ele>791.0</ele><time>2026-03-28T10:11:07.999Z</time></trkpt><trkpt lat="46.23692654488844" lon="13.264146191498584"><ele>791.0</ele><time>2026-03-28T10:11:08.999Z</time></trkpt><trkpt lat="46.236975226930646" lon="13.264290166088944"><ele>791.0</ele><time>2026-03-28T10:11:09.999Z</time></trkpt><trkpt lat="46.236986383889445" lon="13.264426015388347"><ele>791.0</ele><time>2026-03-28T10:11:10.999Z</time></trkpt><trkpt lat="46.23696568383065" lon="13.26455919090446"><ele>791.0</ele><time>2026-03-28T10:11:11.999Z</time></trkpt><trkpt lat="46.236865787243524" lon="13.264666093188897"><ele>791.0</ele><time>2026-03-28T10:11:12.999Z</time></trkpt><trkpt lat="46.23682676474486" lon="13.264814061373334"><ele>791.0</ele><time>2026-03-28T10:11:13.999Z</time></trkpt><trkpt lat="46.23677948721457" lon="13.264943139904364"><ele>791.0</ele><time>2026-03-28T10:11:14.999Z</time></trkpt><trkpt lat="46.23673559931441" lon="13.265052150627424"><ele>791.0</ele><time>2026-03-28T10:11:15.999Z</time></trkpt><trkpt lat="46.23670901031776" lon="13.265167155954083"><ele>791.0</ele><time>2026-03-28T10:11:16.999Z</time></trkpt><trkpt lat="46.23668900145946" lon="13.265268313025736"><ele>791.0000000000001</ele><time>2026-03-28T10:11:17.999Z</time></trkpt><trkpt lat="46.2367150476624" lon="13.265358978424421"><ele>791.0</ele><time>2026-03-28T10:11:18.999Z</time></trkpt><trkpt lat="46.236788404901624" lon="13.265431393608484"><ele>791.0</ele><time>2026-03-28T10:11:19.999Z</time></trkpt><trkpt lat="46.23686331712207" lon="13.26548667093056"><ele>791.0</ele><time>2026-03-28T10:11:20.999Z</time></trkpt><trkpt lat="46.236941837408615" lon="13.265540385250782"><ele>791.0000000000001</ele><time>2026-03-28T10:11:21.999Z</time></trkpt><trkpt lat="46.237033402807356" lon="13.265595186262836"><ele>791.0</ele><time>2026-03-28T10:11:22.999Z</time></trkpt><trkpt lat="46.23712063190208" lon="13.265621284603576"><ele>791.0</ele><time>2026-03-28T10:11:23.999Z</time></trkpt><trkpt lat="46.23721859962805" lon="13.26560515282334"><ele>791.0</ele><time>2026-03-28T10:11:24.999Z</time></trkpt><trkpt lat="46.23733258710661" lon="13.2656127140726"><ele>791.0</ele><time>2026-03-28T10:11:25.999Z</time></trkpt><trkpt lat="46.23744207998254" lon="13.265600524417579"><ele>791.0</ele><time>2026-03-28T10:11:26.999Z</time></trkpt><trkpt lat="46.23754764833297" lon="13.265559736191317"><ele>791.0</ele><time>2026-03-28T10:11:27.999Z</time></trkpt><trkpt lat="46.23763332327574" lon="13.265485792413669"><ele>788.5999999999999</ele><time>2026-03-28T10:11:28.999Z</time></trkpt><trkpt lat="46.23771049543847" lon="13.265442607156224"><ele>786.2</ele><time>2026-03-28T10:11:29.999Z</time></trkpt><trkpt lat="46.237831330039114" lon="13.265512868326"><ele>783.8</ele><time>2026-03-28T10:11:31.999Z</time></trkpt><trkpt lat="46.23789420260211" lon="13.265570743816395"><ele>781.4000000000001</ele><time>2026-03-28T10:11:32.999Z</time></trkpt><trkpt lat="46.2379772301648" lon="13.265635740287278"><ele>779.0</ele><time>2026-03-28T10:11:33.999Z</time></trkpt><trkpt lat="46.238065668946135" lon="13.26566833393707"><ele>779.6</ele><time>2026-03-28T10:11:34.999Z</time></trkpt><trkpt lat="46.23815970188506" lon="13.26572625275949"><ele>780.2</ele><time>2026-03-28T10:11:35.999Z</time></trkpt><trkpt lat="46.238262574895685" lon="13.265784077452537"><ele>780.8000000000001</ele><time>2026-03-28T10:11:36.999Z</time></trkpt><trkpt lat="46.23835753690533" lon="13.265850667924543"><ele>781.4000000000001</ele><time>2026-03-28T10:11:37.999Z</time></trkpt><trkpt lat="46.238448814549784" lon="13.265895327951968"><ele>782.0</ele><time>2026-03-28T10:11:38.999Z</time></trkpt><trkpt lat="46.23854507887127" lon="13.265932236670487"><ele>782.0</ele><time>2026-03-28T10:11:39.998Z</time></trkpt><trkpt lat="46.238640213982364" lon="13.26597608320921"><ele>782.0</ele><time>2026-03-28T10:11:40.998Z</time></trkpt><trkpt lat="46.23877294184504" lon="13.265976179339315"><ele>782.0</ele><time>2026-03-28T10:11:41.998Z</time></trkpt><trkpt lat="46.238895897719125" lon="13.265953415304239"><ele>782.0</ele><time>2026-03-28T10:11:42.999Z</time></trkpt><trkpt lat="46.23902496371406" lon="13.265953920438946"><ele>782.4000000000001</ele><time>2026-03-28T10:11:43.999Z</time></trkpt><trkpt lat="46.23913859234438" lon="13.265967737774995"><ele>782.8000000000001</ele><time>2026-03-28T10:11:44.999Z</time></trkpt><trkpt lat="46.23923953156364" lon="13.266024074987616"><ele>783.2</ele><time>2026-03-28T10:11:45.999Z</time></trkpt><trkpt lat="46.23930218981444" lon="13.26613212330534"><ele>783.6</ele><time>2026-03-28T10:11:46.999Z</time></trkpt><trkpt lat="46.23937948618795" lon="13.266206885672888"><ele>784.0</ele><time>2026-03-28T10:11:47.999Z</time></trkpt><trkpt lat="46.23944028722923" lon="13.266269455158184"><ele>783.9999999999999</ele><time>2026-03-28T10:11:48.999Z</time></trkpt><trkpt lat="46.23950713340991" lon="13.266270223392826"><ele>784.0</ele><time>2026-03-28T10:11:49.999Z</time></trkpt><trkpt lat="46.23962173703421" lon="13.266184306490702"><ele>784.0</ele><time>2026-03-28T10:11:51.999Z</time></trkpt><trkpt lat="46.2396782319594" lon="13.266138381945854"><ele>784.0</ele><time>2026-03-28T10:11:52.999Z</time></trkpt><trkpt lat="46.23974723846832" lon="13.266075570435152"><ele>783.9999999999999</ele><time>2026-03-28T10:11:53.999Z</time></trkpt><trkpt lat="46.23980370094982" lon="13.2660263767206"><ele>784.0</ele><time>2026-03-28T10:11:54.999Z</time></trkpt><trkpt lat="46.239858925392596" lon="13.265976105656318"><ele>784.4000000000001</ele><time>2026-03-28T10:11:55.999Z</time></trkpt><trkpt lat="46.23995562391656" lon="13.26594124768846"><ele>784.8</ele><time>2026-03-28T10:11:57Z</time></trkpt><trkpt lat="46.24005231971961" lon="13.265889851608495"><ele>785.2</ele><time>2026-03-28T10:11:58Z</time></trkpt><trkpt lat="46.2401559581412" lon="13.265833890388244"><ele>785.5999999999999</ele><time>2026-03-28T10:11:59Z</time></trkpt><trkpt lat="46.240246989750986" lon="13.265792366639491"><ele>786.0</ele><time>2026-03-28T10:12:00Z</time></trkpt><trkpt lat="46.24032059922038" lon="13.265792432046526"><ele>786.0</ele><time>2026-03-28T10:12:01Z</time></trkpt><trkpt lat="46.24039310043768" lon="13.265824251145892"><ele>786.0</ele><time>2026-03-28T10:12:02Z</time></trkpt><trkpt lat="46.24044300303935" lon="13.265882650810466"><ele>786.0</ele><time>2026-03-28T10:12:03Z</time></trkpt><trkpt lat="46.24049042712757" lon="13.265951169425763"><ele>786.0</ele><time>2026-03-28T10:12:04Z</time></trkpt><trkpt lat="46.24054152061573" lon="13.266021161266663"><ele>786.0</ele><time>2026-03-28T10:12:05Z</time></trkpt><trkpt lat="46.24058302699892" lon="13.266103293897633"><ele>786.0</ele><time>2026-03-28T10:12:06Z</time></trkpt><trkpt lat="46.240620200902" lon="13.266246856353384"><ele>786.0</ele><time>2026-03-28T10:12:08Z</time></trkpt><trkpt lat="46.24062664191795" lon="13.266431046927513"><ele>786.0</ele><time>2026-03-28T10:12:10Z</time></trkpt><trkpt lat="46.24063587688798" lon="13.266544093875659"><ele>786.0</ele><time>2026-03-28T10:12:11Z</time></trkpt><trkpt lat="46.24066487573183" lon="13.26667547800583"><ele>786.0</ele><time>2026-03-28T10:12:12Z</time></trkpt><trkpt lat="46.240707850487766" lon="13.266808065051123"><ele>786.0</ele><time>2026-03-28T10:12:13Z</time></trkpt><trkpt lat="46.240751281722765" lon="13.266942430538199"><ele>785.4</ele><time>2026-03-28T10:12:14Z</time></trkpt><trkpt lat="46.2407910503571" lon="13.267091569272056"><ele>784.8</ele><time>2026-03-28T10:12:15Z</time></trkpt><trkpt lat="46.240805150236966" lon="13.267253039126308"><ele>784.1999999999999</ele><time>2026-03-28T10:12:16Z</time></trkpt><trkpt lat="46.2408211991494" lon="13.267395385103487"><ele>783.5999999999999</ele><time>2026-03-28T10:12:16.999Z</time></trkpt><trkpt lat="46.24084257977597" lon="13.267506110068073"><ele>783.0</ele><time>2026-03-28T10:12:17.999Z</time></trkpt><trkpt lat="46.240875722596016" lon="13.267590383745793"><ele>783.0</ele><time>2026-03-28T10:12:18.999Z</time></trkpt><trkpt lat="46.240936451270386" lon="13.267652830603668"><ele>783.0</ele><time>2026-03-28T10:12:19.999Z</time></trkpt><trkpt lat="46.24101152016654" lon="13.26769763670391"><ele>783.0</ele><time>2026-03-28T10:12:20.999Z</time></trkpt><trkpt lat="46.24110156619236" lon="13.267735657860193"><ele>783.0</ele><time>2026-03-28T10:12:21.999Z</time></trkpt><trkpt lat="46.24120952310448" lon="13.267770100468372"><ele>783.0</ele><time>2026-03-28T10:12:22.999Z</time></trkpt><trkpt lat="46.2413136481864" lon="13.267854922948851"><ele>783.0</ele><time>2026-03-28T10:12:23.999Z</time></trkpt><trkpt lat="46.241409022045445" lon="13.267967292439014"><ele>783.0</ele><time>2026-03-28T10:12:24.999Z</time></trkpt><trkpt lat="46.24151390672471" lon="13.26807901966078"><ele>783.0</ele><time>2026-03-28T10:12:25.999Z</time></trkpt><trkpt lat="46.241626859192785" lon="13.268183635056483"><ele>783.0</ele><time>2026-03-28T10:12:26.999Z</time></trkpt><trkpt lat="46.24173491041883" lon="13.268253069666306"><ele>782.2</ele><time>2026-03-28T10:12:27.999Z</time></trkpt><trkpt lat="46.241847231269915" lon="13.268281459839129"><ele>781.4</ele><time>2026-03-28T10:12:28.999Z</time></trkpt><trkpt lat="46.241951800892316" lon="13.268292005844103"><ele>780.6</ele><time>2026-03-28T10:12:29.999Z</time></trkpt><trkpt lat="46.24202693082212" lon="13.268329013952535"><ele>779.8000000000001</ele><time>2026-03-28T10:12:30.999Z</time></trkpt><trkpt lat="46.24209602925457" lon="13.268395619914866"><ele>779.0</ele><time>2026-03-28T10:12:31.999Z</time></trkpt><trkpt lat="46.24214393642118" lon="13.268488433782888"><ele>779.0000000000001</ele><time>2026-03-28T10:12:32.999Z</time></trkpt><trkpt lat="46.2421632068707" lon="13.26860738166443"><ele>779.0</ele><time>2026-03-28T10:12:33.999Z</time></trkpt><trkpt lat="46.242167238258254" lon="13.268740912750376"><ele>779.0</ele><time>2026-03-28T10:12:34.999Z</time></trkpt><trkpt lat="46.24217078110177" lon="13.268873293180972"><ele>779.0</ele><time>2026-03-28T10:12:35.999Z</time></trkpt><trkpt lat="46.24219689922891" lon="13.26899019999045"><ele>779.0000000000001</ele><time>2026-03-28T10:12:36.999Z</time></trkpt><trkpt lat="46.24224960908022" lon="13.269064376873521"><ele>779.0</ele><time>2026-03-28T10:12:37.999Z</time></trkpt><trkpt lat="46.24231343769928" lon="13.269105471462586"><ele>778.8000000000001</ele><time>2026-03-28T10:12:38.999Z</time></trkpt><trkpt lat="46.24238320505838" lon="13.269081345953351"><ele>778.6</ele><time>2026-03-28T10:12:39.999Z</time></trkpt><trkpt lat="46.24244312863847" lon="13.269010582460627"><ele>778.4</ele><time>2026-03-28T10:12:40.999Z</time></trkpt><trkpt lat="46.24252637909388" lon="13.268956374594387"><ele>778.2</ele><time>2026-03-28T10:12:41.999Z</time></trkpt><trkpt lat="46.24262993451779" lon="13.26891916681767"><ele>778.0</ele><time>2026-03-28T10:12:42.999Z</time></trkpt><trkpt lat="46.24275477232493" lon="13.268889362443895"><ele>776.4</ele><time>2026-03-28T10:12:43.999Z</time></trkpt><trkpt lat="46.24286902543576" lon="13.268869451345958"><ele>774.8</ele><time>2026-03-28T10:12:44.999Z</time></trkpt><trkpt lat="46.24296769142719" lon="13.268841821814675"><ele>773.2</ele><time>2026-03-28T10:12:45.999Z</time></trkpt><trkpt lat="46.243061611918336" lon="13.268841451768546"><ele>771.6</ele><time>2026-03-28T10:12:46.999Z</time></trkpt><trkpt lat="46.24314210112569" lon="13.268831079754525"><ele>770.0</ele><time>2026-03-28T10:12:47.999Z</time></trkpt><trkpt lat="46.243209732238704" lon="13.268849084688638"><ele>770.6</ele><time>2026-03-28T10:12:48.999Z</time></trkpt><trkpt lat="46.24326839563698" lon="13.268906383724989"><ele>771.2</ele><time>2026-03-28T10:12:49.999Z</time></trkpt><trkpt lat="46.24332052867074" lon="13.269009174295347"><ele>771.8</ele><time>2026-03-28T10:12:50.999Z</time></trkpt><trkpt lat="46.24336003174454" lon="13.269163672158763"><ele>772.4</ele><time>2026-03-28T10:12:51.999Z</time></trkpt><trkpt lat="46.24339667904948" lon="13.269316048521778"><ele>773.0</ele><time>2026-03-28T10:12:52.999Z</time></trkpt><trkpt lat="46.2434498218892" lon="13.269413989346893"><ele>773.0000000000001</ele><time>2026-03-28T10:12:53.999Z</time></trkpt><trkpt lat="46.24352972534663" lon="13.26945641009584"><ele>773.0</ele><time>2026-03-28T10:12:54.999Z</time></trkpt><trkpt lat="46.243619557598734" lon="13.269463713166246"><ele>773.0</ele><time>2026-03-28T10:12:55.999Z</time></trkpt><trkpt lat="46.24371731658455" lon="13.269476066763872"><ele>773.0</ele><time>2026-03-28T10:12:56.999Z</time></trkpt><trkpt lat="46.24379090173185" lon="13.26952399145655"><ele>773.0000000000001</ele><time>2026-03-28T10:12:57.999Z</time></trkpt><trkpt lat="46.24383834893605" lon="13.269611640387803"><ele>773.0</ele><time>2026-03-28T10:12:58.999Z</time></trkpt><trkpt lat="46.24386311745605" lon="13.269726928211172"><ele>774.1666666666667</ele><time>2026-03-28T10:12:59.999Z</time></trkpt><trkpt lat="46.2438715457943" lon="13.269854150700388"><ele>775.3333333333334</ele><time>2026-03-28T10:13:00.999Z</time></trkpt><trkpt lat="46.24387823129787" lon="13.269975207355408"><ele>776.5</ele><time>2026-03-28T10:13:01.999Z</time></trkpt><trkpt lat="46.24390450190106" lon="13.270076678223573"><ele>777.6666666666667</ele><time>2026-03-28T10:13:02.999Z</time></trkpt><trkpt lat="46.243964411872334" lon="13.270115078876048"><ele>778.8333333333334</ele><time>2026-03-28T10:13:03.999Z</time></trkpt><trkpt lat="46.24403728251148" lon="13.270092956653823"><ele>780.0</ele><time>2026-03-28T10:13:04.999Z</time></trkpt><trkpt lat="46.24411556186355" lon="13.270045383267654"><ele>777.6666666666666</ele><time>2026-03-28T10:13:05.999Z</time></trkpt><trkpt lat="46.244191484025144" lon="13.269976269492108"><ele>775.3333333333334</ele><time>2026-03-28T10:13:06.999Z</time></trkpt><trkpt lat="46.2442621752041" lon="13.269900973030872"><ele>773.0</ele><time>2026-03-28T10:13:07.999Z</time></trkpt><trkpt lat="46.24432962647541" lon="13.269836474035332"><ele>770.6666666666667</ele><time>2026-03-28T10:13:08.999Z</time></trkpt><trkpt lat="46.244389434465724" lon="13.269790151864695"><ele>768.3333333333334</ele><time>2026-03-28T10:13:09.999Z</time></trkpt><trkpt lat="46.24449872194957" lon="13.269810828151495"><ele>766.0</ele><time>2026-03-28T10:13:11.999Z</time></trkpt><trkpt lat="46.24453756097664" lon="13.269891670067647"><ele>766.0</ele><time>2026-03-28T10:13:12.999Z</time></trkpt><trkpt lat="46.24456457283405" lon="13.270013624930929"><ele>766.0</ele><time>2026-03-28T10:13:13.999Z</time></trkpt><trkpt lat="46.24458131834961" lon="13.270149558631072"><ele>766.0</ele><time>2026-03-28T10:13:14.999Z</time></trkpt><trkpt lat="46.244625572557766" lon="13.270267903820887"><ele>766.0</ele><time>2026-03-28T10:13:15.999Z</time></trkpt><trkpt lat="46.24469609983256" lon="13.270342631102476"><ele>766.0</ele><time>2026-03-28T10:13:16.999Z</time></trkpt><trkpt lat="46.244795191909695" lon="13.27037424666295"><ele>763.5</ele><time>2026-03-28T10:13:17.999Z</time></trkpt><trkpt lat="46.244887357055404" lon="13.270370227512071"><ele>761.0</ele><time>2026-03-28T10:13:18.999Z</time></trkpt><trkpt lat="46.244969302577196" lon="13.2703642862355"><ele>758.5</ele><time>2026-03-28T10:13:19.999Z</time></trkpt><trkpt lat="46.24504335463089" lon="13.270372828483364"><ele>756.0</ele><time>2026-03-28T10:13:20.999Z</time></trkpt><trkpt lat="46.24511198118607" lon="13.270391020357888"><ele>753.5</ele><time>2026-03-28T10:13:21.999Z</time></trkpt><trkpt lat="46.24520699079718" lon="13.270472571994931"><ele>751.0</ele><time>2026-03-28T10:13:23.999Z</time></trkpt><trkpt lat="46.24518337748104" lon="13.270636766132293"><ele>750.8</ele><time>2026-03-28T10:13:25.999Z</time></trkpt><trkpt lat="46.24510535350171" lon="13.270663405874824"><ele>750.5999999999999</ele><time>2026-03-28T10:13:26.999Z</time></trkpt><trkpt lat="46.24497613386064" lon="13.270723252085965"><ele>750.4</ele><time>2026-03-28T10:13:28.999Z</time></trkpt><trkpt lat="46.244887127782576" lon="13.270755875371785"><ele>750.2</ele><time>2026-03-28T10:13:29.999Z</time></trkpt><trkpt lat="46.24480372679256" lon="13.270819552493998"><ele>750.0</ele><time>2026-03-28T10:13:30.999Z</time></trkpt><trkpt lat="46.244717490245634" lon="13.270866509097628"><ele>753.2</ele><time>2026-03-28T10:13:31.999Z</time></trkpt><trkpt lat="46.2446323861128" lon="13.270946220996205"><ele>756.4</ele><time>2026-03-28T10:13:32.999Z</time></trkpt><trkpt lat="46.244586154830095" lon="13.271097536620035"><ele>759.5999999999999</ele><time>2026-03-28T10:13:33.999Z</time></trkpt><trkpt lat="46.2445145343398" lon="13.271179949411017"><ele>762.8</ele><time>2026-03-28T10:13:34.999Z</time></trkpt><trkpt lat="46.24445443203326" lon="13.271264567471611"><ele>766.0</ele><time>2026-03-28T10:13:35.999Z</time></trkpt><trkpt lat="46.244414148694176" lon="13.271364293834992"><ele>766.1666666666667</ele><time>2026-03-28T10:13:36.999Z</time></trkpt><trkpt lat="46.24441642119878" lon="13.271476446829586"><ele>766.3333333333334</ele><time>2026-03-28T10:13:37.999Z</time></trkpt><trkpt lat="46.24447072349335" lon="13.271567509423567"><ele>766.5</ele><time>2026-03-28T10:13:38.999Z</time></trkpt><trkpt lat="46.24457908299665" lon="13.271632766366753"><ele>766.6666666666666</ele><time>2026-03-28T10:13:40.999Z</time></trkpt><trkpt lat="46.244642022060944" lon="13.271597216274714"><ele>766.8333333333333</ele><time>2026-03-28T10:13:41.999Z</time></trkpt><trkpt lat="46.24471885920827" lon="13.271581954313342"><ele>767.0</ele><time>2026-03-28T10:13:42.999Z</time></trkpt><trkpt lat="46.24479990896453" lon="13.271544761450745"><ele>764.0</ele><time>2026-03-28T10:13:43.999Z</time></trkpt><trkpt lat="46.244885415999164" lon="13.27153316429606"><ele>761.0</ele><time>2026-03-28T10:13:44.999Z</time></trkpt><trkpt lat="46.24497793346183" lon="13.271555211087025"><ele>758.0</ele><time>2026-03-28T10:13:45.999Z</time></trkpt><trkpt lat="46.245056693582555" lon="13.271605387167597"><ele>755.0</ele><time>2026-03-28T10:13:46.999Z</time></trkpt><trkpt lat="46.24512623992028" lon="13.271691891689292"><ele>752.0</ele><time>2026-03-28T10:13:47.999Z</time></trkpt><trkpt lat="46.24519107098147" lon="13.271808960194393"><ele>752.0</ele><time>2026-03-28T10:13:48.999Z</time></trkpt><trkpt lat="46.245262937983206" lon="13.271938963082096"><ele>752.0</ele><time>2026-03-28T10:13:49.999Z</time></trkpt><trkpt lat="46.245324511789065" lon="13.27206006801956"><ele>752.0</ele><time>2026-03-28T10:13:50.999Z</time></trkpt><trkpt lat="46.24537572013501" lon="13.27219355141208"><ele>752.0</ele><time>2026-03-28T10:13:51.999Z</time></trkpt><trkpt lat="46.245406678722624" lon="13.27235349411883"><ele>752.0</ele><time>2026-03-28T10:13:52.999Z</time></trkpt><trkpt lat="46.245423832052865" lon="13.272533054439345"><ele>754.4000000000001</ele><time>2026-03-28T10:13:53.999Z</time></trkpt><trkpt lat="46.24543531320998" lon="13.272691553879891"><ele>756.8000000000001</ele><time>2026-03-28T10:13:54.999Z</time></trkpt><trkpt lat="46.24544681991582" lon="13.272835853310301"><ele>759.2</ele><time>2026-03-28T10:13:55.999Z</time></trkpt><trkpt lat="46.245458837070736" lon="13.272971366362631"><ele>761.6</ele><time>2026-03-28T10:13:56.999Z</time></trkpt><trkpt lat="46.245471247642115" lon="13.273103963986303"><ele>764.0</ele><time>2026-03-28T10:13:57.999Z</time></trkpt><trkpt lat="46.24549518169984" lon="13.273209242397792"><ele>764.0</ele><time>2026-03-28T10:13:58.999Z</time></trkpt><trkpt lat="46.245508845075314" lon="13.273303881539658"><ele>764.0</ele><time>2026-03-28T10:13:59.999Z</time></trkpt><trkpt lat="46.245563447619865" lon="13.273377081472283"><ele>764.0</ele><time>2026-03-28T10:14:00.999Z</time></trkpt><trkpt lat="46.24563752580008" lon="13.273388889596466"><ele>764.0</ele><time>2026-03-28T10:14:01.999Z</time></trkpt><trkpt lat="46.24572496690853" lon="13.273326415965668"><ele>764.0</ele><time>2026-03-28T10:14:02.999Z</time></trkpt><trkpt lat="46.24579414875304" lon="13.273269987717692"><ele>764.0</ele><time>2026-03-28T10:14:03.999Z</time></trkpt><trkpt lat="46.2458899898344" lon="13.27321206079895"><ele>759.5</ele><time>2026-03-28T10:14:04.999Z</time></trkpt><trkpt lat="46.24600248310302" lon="13.273199785950965"><ele>755.0</ele><time>2026-03-28T10:14:05.999Z</time></trkpt><trkpt lat="46.24610848531559" lon="13.273129610165116"><ele>750.5</ele><time>2026-03-28T10:14:06.999Z</time></trkpt><trkpt lat="46.24622023733574" lon="13.273077899665411"><ele>746.0</ele><time>2026-03-28T10:14:07.999Z</time></trkpt><trkpt lat="46.24631537498231" lon="13.273004650708964"><ele>742.5999999999999</ele><time>2026-03-28T10:14:08.999Z</time></trkpt><trkpt lat="46.24640793257409" lon="13.2729240151402"><ele>739.2</ele><time>2026-03-28T10:14:09.999Z</time></trkpt><trkpt lat="46.24650252867602" lon="13.272837342628408"><ele>735.8</ele><time>2026-03-28T10:14:10.999Z</time></trkpt><trkpt lat="46.24660117930027" lon="13.272767395207852"><ele>732.4000000000001</ele><time>2026-03-28T10:14:11.999Z</time></trkpt><trkpt lat="46.24670099098383" lon="13.272708862014472"><ele>729.0</ele><time>2026-03-28T10:14:12.999Z</time></trkpt><trkpt lat="46.24679317147884" lon="13.27263106112546"><ele>728.2</ele><time>2026-03-28T10:14:13.999Z</time></trkpt><trkpt lat="46.24687510125972" lon="13.272547462906896"><ele>727.4000000000001</ele><time>2026-03-28T10:14:14.999Z</time></trkpt><trkpt lat="46.24695235518077" lon="13.272465581678734"><ele>726.6</ele><time>2026-03-28T10:14:15.999Z</time></trkpt><trkpt lat="46.24704092676797" lon="13.272394021428438"><ele>725.8</ele><time>2026-03-28T10:14:16.999Z</time></trkpt><trkpt lat="46.247137579314554" lon="13.27233605551359"><ele>725.0</ele><time>2026-03-28T10:14:17.999Z</time></trkpt><trkpt lat="46.24722973611376" lon="13.272297999207243"><ele>724.3333333333333</ele><time>2026-03-28T10:14:18.999Z</time></trkpt><trkpt lat="46.24731832578791" lon="13.272269916171748"><ele>723.6666666666666</ele><time>2026-03-28T10:14:19.999Z</time></trkpt><trkpt lat="46.24739678545506" lon="13.272260653781213"><ele>723.0</ele><time>2026-03-28T10:14:20.999Z</time></trkpt><trkpt lat="46.24746214673305" lon="13.272296115563845"><ele>722.3333333333334</ele><time>2026-03-28T10:14:21.999Z</time></trkpt><trkpt lat="46.247511012360434" lon="13.27237521036461"><ele>721.6666666666667</ele><time>2026-03-28T10:14:22.999Z</time></trkpt><trkpt lat="46.24751918003557" lon="13.272504721620782"><ele>721.0</ele><time>2026-03-28T10:14:23.999Z</time></trkpt><trkpt lat="46.24754166435667" lon="13.272627759136498"><ele>721.0</ele><time>2026-03-28T10:14:24.999Z</time></trkpt><trkpt lat="46.24755676601685" lon="13.272747195424165"><ele>721.0</ele><time>2026-03-28T10:14:25.999Z</time></trkpt><trkpt lat="46.24758370775985" lon="13.272862438307966"><ele>721.0</ele><time>2026-03-28T10:14:26.999Z</time></trkpt><trkpt lat="46.24756581767262" lon="13.272989058076014"><ele>721.0</ele><time>2026-03-28T10:14:27.999Z</time></trkpt><trkpt lat="46.247556860480024" lon="13.27311102421177"><ele>721.0</ele><time>2026-03-28T10:14:28.999Z</time></trkpt><trkpt lat="46.24757906560874" lon="13.273228729398584"><ele>721.0</ele><time>2026-03-28T10:14:29.999Z</time></trkpt><trkpt lat="46.24763361438735" lon="13.273334454478816"><ele>723.1999999999999</ele><time>2026-03-28T10:14:30.999Z</time></trkpt><trkpt lat="46.24770793554588" lon="13.273405728230818"><ele>725.4</ele><time>2026-03-28T10:14:31.999Z</time></trkpt><trkpt lat="46.24780098085155" lon="13.27345815204229"><ele>727.6</ele><time>2026-03-28T10:14:32.999Z</time></trkpt><trkpt lat="46.24789287094435" lon="13.273500143014557"><ele>729.8</ele><time>2026-03-28T10:14:33.999Z</time></trkpt><trkpt lat="46.24797424815562" lon="13.273554091836008"><ele>732.0</ele><time>2026-03-28T10:14:34.999Z</time></trkpt><trkpt lat="46.248041116697905" lon="13.273619773019725"><ele>732.0</ele><time>2026-03-28T10:14:35.999Z</time></trkpt><trkpt lat="46.24808475938491" lon="13.273704706529088"><ele>732.0</ele><time>2026-03-28T10:14:36.999Z</time></trkpt><trkpt lat="46.24812362144911" lon="13.273814035984621"><ele>732.0</ele><time>2026-03-28T10:14:37.999Z</time></trkpt><trkpt lat="46.248113233397305" lon="13.2739394608642"><ele>732.0</ele><time>2026-03-28T10:14:38.999Z</time></trkpt><trkpt lat="46.2481014380509" lon="13.274050331576069"><ele>732.0</ele><time>2026-03-28T10:14:39.999Z</time></trkpt><trkpt lat="46.24809444197714" lon="13.274155464114427"><ele>732.0</ele><time>2026-03-28T10:14:40.999Z</time></trkpt><trkpt lat="46.24805228226216" lon="13.274242434744917"><ele>732.7142857142858</ele><time>2026-03-28T10:14:41.999Z</time></trkpt><trkpt lat="46.248044307371416" lon="13.274342841417226"><ele>733.4285714285714</ele><time>2026-03-28T10:14:42.999Z</time></trkpt><trkpt lat="46.248049893980415" lon="13.274434494269647"><ele>734.1428571428571</ele><time>2026-03-28T10:14:43.999Z</time></trkpt><trkpt lat="46.24811153843103" lon="13.274469729728567"><ele>734.8571428571429</ele><time>2026-03-28T10:14:44.999Z</time></trkpt><trkpt lat="46.24818864011155" lon="13.274465643817635"><ele>735.5714285714286</ele><time>2026-03-28T10:14:45.999Z</time></trkpt><trkpt lat="46.248263021062016" lon="13.27445551150236"><ele>736.2857142857143</ele><time>2026-03-28T10:14:46.999Z</time></trkpt><trkpt lat="46.24834613522875" lon="13.274424118714423"><ele>737.0</ele><time>2026-03-28T10:14:47.999Z</time></trkpt><trkpt lat="46.24842457568752" lon="13.274416704248184"><ele>735.0</ele><time>2026-03-28T10:14:48.999Z</time></trkpt><trkpt lat="46.24850939305893" lon="13.274467763407351"><ele>733.0</ele><time>2026-03-28T10:14:49.999Z</time></trkpt><trkpt lat="46.24857542963974" lon="13.274486088156237"><ele>731.0</ele><time>2026-03-28T10:14:50.999Z</time></trkpt><trkpt lat="46.24865250025912" lon="13.274541506620332"><ele>729.0</ele><time>2026-03-28T10:14:51.999Z</time></trkpt><trkpt lat="46.24873757811443" lon="13.274598812925136"><ele>727.0</ele><time>2026-03-28T10:14:52.999Z</time></trkpt><trkpt lat="46.24883175883271" lon="13.274671528261406"><ele>725.0</ele><time>2026-03-28T10:14:53.999Z</time></trkpt><trkpt lat="46.248908868939125" lon="13.274784035477952"><ele>723.3333333333333</ele><time>2026-03-28T10:14:54.999Z</time></trkpt><trkpt lat="46.24898839663559" lon="13.274857108202504"><ele>721.6666666666666</ele><time>2026-03-28T10:14:55.999Z</time></trkpt><trkpt lat="46.24902985636369" lon="13.274973434214356"><ele>720.0</ele><time>2026-03-28T10:14:56.999Z</time></trkpt><trkpt lat="46.24908226078966" lon="13.275058561373049"><ele>718.3333333333334</ele><time>2026-03-28T10:14:57.999Z</time></trkpt><trkpt lat="46.24915482230124" lon="13.275090440872317"><ele>716.6666666666667</ele><time>2026-03-28T10:14:58.999Z</time></trkpt><trkpt lat="46.24922927101152" lon="13.275078719523522"><ele>715.0</ele><time>2026-03-28T10:14:59.999Z</time></trkpt><trkpt lat="46.249293326654595" lon="13.275035592049129"><ele>715.0</ele><time>2026-03-28T10:15:00.999Z</time></trkpt><trkpt lat="46.24934878559016" lon="13.274987001578948"><ele>715.0</ele><time>2026-03-28T10:15:01.999Z</time></trkpt><trkpt lat="46.24943510296324" lon="13.274900234934089"><ele>715.0</ele><time>2026-03-28T10:15:03.999Z</time></trkpt><trkpt lat="46.2495581585041" lon="13.27491903406547"><ele>715.0</ele><time>2026-03-28T10:15:05.999Z</time></trkpt><trkpt lat="46.24960668993388" lon="13.275032626352727"><ele>715.0</ele><time>2026-03-28T10:15:06.999Z</time></trkpt><trkpt lat="46.249647163251424" lon="13.275161358012697"><ele>715.0</ele><time>2026-03-28T10:15:07.999Z</time></trkpt><trkpt lat="46.2496963779613" lon="13.275295807068607"><ele>715.0</ele><time>2026-03-28T10:15:08.999Z</time></trkpt><trkpt lat="46.24973821143184" lon="13.275440819088773"><ele>715.0</ele><time>2026-03-28T10:15:09.999Z</time></trkpt><trkpt lat="46.24976480596177" lon="13.275597030883594"><ele>715.0</ele><time>2026-03-28T10:15:10.999Z</time></trkpt><trkpt lat="46.2498316411762" lon="13.275705761232457"><ele>715.0</ele><time>2026-03-28T10:15:11.999Z</time></trkpt><trkpt lat="46.24988993570282" lon="13.275820739658231"><ele>715.0</ele><time>2026-03-28T10:15:12.999Z</time></trkpt><trkpt lat="46.24994699772783" lon="13.275931161590503"><ele>715.0</ele><time>2026-03-28T10:15:13.999Z</time></trkpt><trkpt lat="46.250002000350435" lon="13.276021704183844"><ele>715.0</ele><time>2026-03-28T10:15:14.999Z</time></trkpt><trkpt lat="46.250032689926336" lon="13.276125817160395"><ele>715.0</ele><time>2026-03-28T10:15:15.999Z</time></trkpt><trkpt lat="46.250042893534435" lon="13.276235374648"><ele>715.0</ele><time>2026-03-28T10:15:16.999Z</time></trkpt><trkpt lat="46.25003362434329" lon="13.27634674748607"><ele>715.0</ele><time>2026-03-28T10:15:17.999Z</time></trkpt><trkpt lat="46.25004349615582" lon="13.27645680444435"><ele>715.0</ele><time>2026-03-28T10:15:18.999Z</time></trkpt><trkpt lat="46.250106160889054" lon="13.276530857435922"><ele>715.0</ele><time>2026-03-28T10:15:19.999Z</time></trkpt><trkpt lat="46.25016813212436" lon="13.276589851977183"><ele>715.0</ele><time>2026-03-28T10:15:20.999Z</time></trkpt><trkpt lat="46.25024169277955" lon="13.276606237772171"><ele>715.0</ele><time>2026-03-28T10:15:21.999Z</time></trkpt><trkpt lat="46.250319066194926" lon="13.276580107651252"><ele>715.0</ele><time>2026-03-28T10:15:22.999Z</time></trkpt><trkpt lat="46.250393669380095" lon="13.27655111428817"><ele>715.0</ele><time>2026-03-28T10:15:23.999Z</time></trkpt><trkpt lat="46.25044133645212" lon="13.27645705362733"><ele>713.0</ele><time>2026-03-28T10:15:24.999Z</time></trkpt><trkpt lat="46.25049810962274" lon="13.27639169778048"><ele>711.0</ele><time>2026-03-28T10:15:25.999Z</time></trkpt><trkpt lat="46.25056045205611" lon="13.276328019819681"><ele>709.0</ele><time>2026-03-28T10:15:26.999Z</time></trkpt><trkpt lat="46.25063188288745" lon="13.27629344341628"><ele>707.0</ele><time>2026-03-28T10:15:27.999Z</time></trkpt><trkpt lat="46.25070177203237" lon="13.276300636415813"><ele>705.0</ele><time>2026-03-28T10:15:28.999Z</time></trkpt><trkpt lat="46.250773794259594" lon="13.27636188481299"><ele>703.0</ele><time>2026-03-28T10:15:29.999Z</time></trkpt><trkpt lat="46.25084373908341" lon="13.276451412633842"><ele>702.5999999999999</ele><time>2026-03-28T10:15:30.999Z</time></trkpt><trkpt lat="46.2509153168649" lon="13.276551592241029"><ele>702.1999999999999</ele><time>2026-03-28T10:15:31.999Z</time></trkpt><trkpt lat="46.250970312019696" lon="13.27667210817824"><ele>701.8</ele><time>2026-03-28T10:15:32.999Z</time></trkpt><trkpt lat="46.251012153628665" lon="13.27677986546979"><ele>701.4</ele><time>2026-03-28T10:15:33.999Z</time></trkpt><trkpt lat="46.251067759166496" lon="13.276911216180517"><ele>701.0</ele><time>2026-03-28T10:15:34.999Z</time></trkpt><trkpt lat="46.2511671107831" lon="13.277039201104648"><ele>701.0</ele><time>2026-03-28T10:15:35.999Z</time></trkpt><trkpt lat="46.25125268395466" lon="13.277110840104546"><ele>701.0</ele><time>2026-03-28T10:15:37.999Z</time></trkpt><trkpt lat="46.251326064805866" lon="13.277135413956193"><ele>701.0</ele><time>2026-03-28T10:15:38.999Z</time></trkpt><trkpt lat="46.251391518742466" lon="13.277065606233904"><ele>701.0</ele><time>2026-03-28T10:15:39.999Z</time></trkpt><trkpt lat="46.25143972261726" lon="13.277006110666825"><ele>701.0</ele><time>2026-03-28T10:15:40.999Z</time></trkpt><trkpt lat="46.251520650984894" lon="13.276922750501168"><ele>701.0</ele><time>2026-03-28T10:15:42.999Z</time></trkpt><trkpt lat="46.25162536647505" lon="13.276939824947945"><ele>701.0</ele><time>2026-03-28T10:15:44.999Z</time></trkpt><trkpt lat="46.25176316923971" lon="13.27700669548104"><ele>701.0</ele><time>2026-03-28T10:15:46.999Z</time></trkpt><trkpt lat="46.251831343422204" lon="13.277061244746003"><ele>701.0</ele><time>2026-03-28T10:15:47.999Z</time></trkpt><trkpt lat="46.251890879619026" lon="13.277149632259855"><ele>701.0</ele><time>2026-03-28T10:15:48.999Z</time></trkpt><trkpt lat="46.25195881191032" lon="13.277255842682827"><ele>701.0</ele><time>2026-03-28T10:15:49.999Z</time></trkpt><trkpt lat="46.25201906509125" lon="13.277402266202328"><ele>701.0</ele><time>2026-03-28T10:15:50.999Z</time></trkpt><trkpt lat="46.25208207440498" lon="13.27754882030241"><ele>701.0</ele><time>2026-03-28T10:15:51.999Z</time></trkpt><trkpt lat="46.25214605439018" lon="13.27767485641211"><ele>701.0</ele><time>2026-03-28T10:15:52.999Z</time></trkpt><trkpt lat="46.252212843943475" lon="13.277777725294536"><ele>701.0</ele><time>2026-03-28T10:15:53.999Z</time></trkpt><trkpt lat="46.25228917970554" lon="13.277848936143911"><ele>701.0</ele><time>2026-03-28T10:15:54.999Z</time></trkpt><trkpt lat="46.252390848787705" lon="13.277896197415224"><ele>696.75</ele><time>2026-03-28T10:15:55.999Z</time></trkpt><trkpt lat="46.25249413634784" lon="13.277841281968389"><ele>692.5</ele><time>2026-03-28T10:15:56.999Z</time></trkpt><trkpt lat="46.25260773740632" lon="13.277803196454027"><ele>688.25</ele><time>2026-03-28T10:15:57.999Z</time></trkpt><trkpt lat="46.25272178985643" lon="13.277770502919275"><ele>684.0</ele><time>2026-03-28T10:15:58.999Z</time></trkpt><trkpt lat="46.25283527327364" lon="13.27769092863103"><ele>684.0</ele><time>2026-03-28T10:15:59.999Z</time></trkpt><trkpt lat="46.252928695028196" lon="13.277690018816113"><ele>684.0</ele><time>2026-03-28T10:16:00.999Z</time></trkpt><trkpt lat="46.25300590565135" lon="13.277688887956447"><ele>684.0</ele><time>2026-03-28T10:16:01.999Z</time></trkpt><trkpt lat="46.253076546405744" lon="13.2777008440819"><ele>684.0</ele><time>2026-03-28T10:16:02.999Z</time></trkpt><trkpt lat="46.25315204888549" lon="13.27770883318491"><ele>684.0</ele><time>2026-03-28T10:16:03.999Z</time></trkpt><trkpt lat="46.253243777661766" lon="13.277773103128721"><ele>684.0</ele><time>2026-03-28T10:16:04.999Z</time></trkpt><trkpt lat="46.253346734910956" lon="13.277828605771644"><ele>684.4000000000001</ele><time>2026-03-28T10:16:06Z</time></trkpt><trkpt lat="46.253451731423404" lon="13.277872484008563"><ele>684.8</ele><time>2026-03-28T10:16:07Z</time></trkpt><trkpt lat="46.25353713284731" lon="13.277920981911903"><ele>685.2</ele><time>2026-03-28T10:16:08Z</time></trkpt><trkpt lat="46.253603836562576" lon="13.277980576677017"><ele>685.5999999999999</ele><time>2026-03-28T10:16:09Z</time></trkpt><trkpt lat="46.25367116785358" lon="13.278077259944336"><ele>686.0</ele><time>2026-03-28T10:16:10Z</time></trkpt><trkpt lat="46.253742422547745" lon="13.278201348032146"><ele>686.0</ele><time>2026-03-28T10:16:11Z</time></trkpt><trkpt lat="46.25381965465741" lon="13.278332814642365"><ele>686.0</ele><time>2026-03-28T10:16:12Z</time></trkpt><trkpt lat="46.253887284097296" lon="13.278454016596765"><ele>686.0</ele><time>2026-03-28T10:16:13Z</time></trkpt><trkpt lat="46.25394275118448" lon="13.27857386297846"><ele>686.0</ele><time>2026-03-28T10:16:14Z</time></trkpt><trkpt lat="46.25399165411877" lon="13.278704454569237"><ele>686.0</ele><time>2026-03-28T10:16:15Z</time></trkpt><trkpt lat="46.25402111509964" lon="13.278838764427332"><ele>682.8333333333333</ele><time>2026-03-28T10:16:16Z</time></trkpt><trkpt lat="46.25405907329423" lon="13.27895330976903"><ele>679.6666666666666</ele><time>2026-03-28T10:16:17Z</time></trkpt><trkpt lat="46.25410120943062" lon="13.279056052654157"><ele>676.5</ele><time>2026-03-28T10:16:18Z</time></trkpt><trkpt lat="46.25413509759012" lon="13.279157640424692"><ele>673.3333333333334</ele><time>2026-03-28T10:16:19Z</time></trkpt><trkpt lat="46.25416181621657" lon="13.279256615697099"><ele>670.1666666666667</ele><time>2026-03-28T10:16:20Z</time></trkpt><trkpt lat="46.25417998570836" lon="13.279350861277036"><ele>667.0</ele><time>2026-03-28T10:16:21Z</time></trkpt><trkpt lat="46.254212011175426" lon="13.279514449658619"><ele>667.0</ele><time>2026-03-28T10:16:23Z</time></trkpt><trkpt lat="46.25428172505011" lon="13.279580696424283"><ele>667.0</ele><time>2026-03-28T10:16:26Z</time></trkpt><trkpt lat="46.254303085011635" lon="13.27970798845401"><ele>667.0</ele><time>2026-03-28T10:17:23.999Z</time></trkpt><trkpt lat="46.25434578151602" lon="13.279844737615134"><ele>667.0</ele><time>2026-03-28T10:17:25.999Z</time></trkpt><trkpt lat="46.25437611167259" lon="13.279924982186659"><ele>667.0</ele><time>2026-03-28T10:17:26.999Z</time></trkpt><trkpt lat="46.25442746333703" lon="13.280075798185974"><ele>667.0</ele><time>2026-03-28T10:17:28.999Z</time></trkpt><trkpt lat="46.254476847997864" lon="13.28024291259154"><ele>667.0</ele><time>2026-03-28T10:17:30.999Z</time></trkpt><trkpt lat="46.25450305501232" lon="13.280328882673615"><ele>667.0</ele><time>2026-03-28T10:17:31.999Z</time></trkpt><trkpt lat="46.25456654539674" lon="13.280469392574766"><ele>667.0</ele><time>2026-03-28T10:17:33.999Z</time></trkpt><trkpt lat="46.25458960168035" lon="13.280650790495322"><ele>667.0</ele><time>2026-03-28T10:17:35.999Z</time></trkpt><trkpt lat="46.25456546697985" lon="13.280809969616529"><ele>667.0</ele><time>2026-03-28T10:17:37.999Z</time></trkpt><trkpt lat="46.25446665459808" lon="13.2808836621426"><ele>667.0</ele><time>2026-03-28T10:17:39.999Z</time></trkpt><trkpt lat="46.25439239630536" lon="13.280908524119127"><ele>667.0</ele><time>2026-03-28T10:17:40.999Z</time></trkpt><trkpt lat="46.25431248616757" lon="13.280966283644712"><ele>667.0</ele><time>2026-03-28T10:17:41.999Z</time></trkpt><trkpt lat="46.25423974636504" lon="13.281037678476848"><ele>667.0</ele><time>2026-03-28T10:17:42.999Z</time></trkpt><trkpt lat="46.25417523426583" lon="13.281114453764049"><ele>667.0</ele><time>2026-03-28T10:17:43.999Z</time></trkpt><trkpt lat="46.25411309326575" lon="13.28120003641832"><ele>667.0</ele><time>2026-03-28T10:17:44.999Z</time></trkpt><trkpt lat="46.2540672660175" lon="13.281287082929563"><ele>667.0</ele><time>2026-03-28T10:17:45.999Z</time></trkpt><trkpt lat="46.25403801081999" lon="13.281386058758388"><ele>667.0</ele><time>2026-03-28T10:17:46.999Z</time></trkpt><trkpt lat="46.254020546734424" lon="13.28149845249201"><ele>667.0</ele><time>2026-03-28T10:17:47.999Z</time></trkpt><trkpt lat="46.25400768610922" lon="13.28163017723739"><ele>667.0</ele><time>2026-03-28T10:17:48.999Z</time></trkpt><trkpt lat="46.25401803232798" lon="13.28176908309441"><ele>667.0</ele><time>2026-03-28T10:17:49.999Z</time></trkpt><trkpt lat="46.254017196160476" lon="13.281901168304689"><ele>665.6666666666667</ele><time>2026-03-28T10:17:50.999Z</time></trkpt><trkpt lat="46.25401103459182" lon="13.282013654594218"><ele>664.3333333333334</ele><time>2026-03-28T10:17:51.999Z</time></trkpt><trkpt lat="46.25400003878442" lon="13.282122699008388"><ele>663.0</ele><time>2026-03-28T10:17:52.999Z</time></trkpt><trkpt lat="46.25394337059159" lon="13.282209798137945"><ele>661.6666666666666</ele><time>2026-03-28T10:17:53.999Z</time></trkpt><trkpt lat="46.25391615446645" lon="13.282316243997368"><ele>660.3333333333333</ele><time>2026-03-28T10:17:54.999Z</time></trkpt><trkpt lat="46.25387783780606" lon="13.282392673363855"><ele>659.0</ele><time>2026-03-28T10:17:55.999Z</time></trkpt><trkpt lat="46.2539417939035" lon="13.282518851704396"><ele>659.0</ele><time>2026-03-28T10:17:57.999Z</time></trkpt><trkpt lat="46.25400916923292" lon="13.282489952027891"><ele>659.0</ele><time>2026-03-28T10:17:58.999Z</time></trkpt><trkpt lat="46.25407598893435" lon="13.282396652141639"><ele>659.0</ele><time>2026-03-28T10:17:59.999Z</time></trkpt><trkpt lat="46.25415313585428" lon="13.28228224718395"><ele>659.0</ele><time>2026-03-28T10:18:01Z</time></trkpt><trkpt lat="46.25421869233518" lon="13.28213298577909"><ele>659.0</ele><time>2026-03-28T10:18:02Z</time></trkpt><trkpt lat="46.25425112293702" lon="13.281958228088882"><ele>659.0</ele><time>2026-03-28T10:18:03Z</time></trkpt><trkpt lat="46.25428414659623" lon="13.281800130886486"><ele>659.0</ele><time>2026-03-28T10:18:04Z</time></trkpt><trkpt lat="46.25433257527182" lon="13.28165655165962"><ele>659.0</ele><time>2026-03-28T10:18:05Z</time></trkpt><trkpt lat="46.254433952955644" lon="13.281567642536308"><ele>659.0</ele><time>2026-03-28T10:18:06Z</time></trkpt><trkpt lat="46.254560319301696" lon="13.28143483353983"><ele>661.0</ele><time>2026-03-28T10:18:07Z</time></trkpt><trkpt lat="46.254644618738396" lon="13.28127973997221"><ele>663.0</ele><time>2026-03-28T10:18:08Z</time></trkpt><trkpt lat="46.25475430678883" lon="13.281220260144206"><ele>665.0</ele><time>2026-03-28T10:18:09Z</time></trkpt><trkpt lat="46.254851873790386" lon="13.28115204879263"><ele>667.0</ele><time>2026-03-28T10:18:10Z</time></trkpt><trkpt lat="46.25492777707067" lon="13.281072473339501"><ele>663.6</ele><time>2026-03-28T10:18:11Z</time></trkpt><trkpt lat="46.25500613079408" lon="13.280977826376361"><ele>660.2</ele><time>2026-03-28T10:18:12Z</time></trkpt><trkpt lat="46.25505386205836" lon="13.280842536110686"><ele>656.8</ele><time>2026-03-28T10:18:13Z</time></trkpt><trkpt lat="46.255074222506316" lon="13.280679528471707"><ele>653.4</ele><time>2026-03-28T10:18:14Z</time></trkpt><trkpt lat="46.25508844879955" lon="13.280536986453274"><ele>650.0</ele><time>2026-03-28T10:18:15Z</time></trkpt><trkpt lat="46.25510009890838" lon="13.280393195753662"><ele>649.8</ele><time>2026-03-28T10:18:16Z</time></trkpt><trkpt lat="46.2551065344335" lon="13.280265327155403"><ele>649.6</ele><time>2026-03-28T10:18:17Z</time></trkpt><trkpt lat="46.25508919044005" lon="13.28013430827943"><ele>649.4000000000001</ele><time>2026-03-28T10:18:18Z</time></trkpt><trkpt lat="46.255037472133154" lon="13.28003015087728"><ele>649.2</ele><time>2026-03-28T10:18:19Z</time></trkpt><trkpt lat="46.25497414602084" lon="13.279941005230745"><ele>649.0</ele><time>2026-03-28T10:18:20Z</time></trkpt><trkpt lat="46.25491365856572" lon="13.279830663291914"><ele>647.2</ele><time>2026-03-28T10:18:21Z</time></trkpt><trkpt lat="46.254853596253945" lon="13.279713601589624"><ele>645.4000000000001</ele><time>2026-03-28T10:18:22Z</time></trkpt><trkpt lat="46.25479861790645" lon="13.279591186038516"><ele>643.6</ele><time>2026-03-28T10:18:23Z</time></trkpt><trkpt lat="46.254766231739346" lon="13.279461628943865"><ele>641.8</ele><time>2026-03-28T10:18:24Z</time></trkpt><trkpt lat="46.254768594736426" lon="13.279312338076005"><ele>640.0</ele><time>2026-03-28T10:18:25Z</time></trkpt><trkpt lat="46.25476669961788" lon="13.27913830597366"><ele>646.0</ele><time>2026-03-28T10:18:26Z</time></trkpt><trkpt lat="46.25475228632349" lon="13.278944068272926"><ele>652.0</ele><time>2026-03-28T10:18:27Z</time></trkpt><trkpt lat="46.25472626614214" lon="13.278755678306462"><ele>658.0</ele><time>2026-03-28T10:18:28Z</time></trkpt><trkpt lat="46.25469823152619" lon="13.278562242166519"><ele>664.0</ele><time>2026-03-28T10:18:29Z</time></trkpt><trkpt lat="46.25466933304533" lon="13.278380398447473"><ele>664.0</ele><time>2026-03-28T10:18:30Z</time></trkpt><trkpt lat="46.25464053814745" lon="13.278211053981167"><ele>664.0</ele><time>2026-03-28T10:18:31Z</time></trkpt><trkpt lat="46.254607736442125" lon="13.278061233543845"><ele>664.0</ele><time>2026-03-28T10:18:32Z</time></trkpt><trkpt lat="46.254571597688276" lon="13.277945769029492"><ele>664.0</ele><time>2026-03-28T10:18:33Z</time></trkpt><trkpt lat="46.25452839541269" lon="13.27784942263113"><ele>664.0</ele><time>2026-03-28T10:18:34Z</time></trkpt><trkpt lat="46.25460712377169" lon="13.277864225359421"><ele>664.0</ele><time>2026-03-28T10:18:37Z</time></trkpt><trkpt lat="46.25464740855713" lon="13.277950067195233"><ele>664.0</ele><time>2026-03-28T10:18:39Z</time></trkpt><trkpt lat="46.25466534413965" lon="13.278058848334227"><ele>664.0</ele><time>2026-03-28T10:18:40Z</time></trkpt><trkpt lat="46.25469232007723" lon="13.278181672188575"><ele>664.0</ele><time>2026-03-28T10:18:41Z</time></trkpt><trkpt lat="46.254715766696904" lon="13.27830926477524"><ele>664.0</ele><time>2026-03-28T10:18:42Z</time></trkpt><trkpt lat="46.25475161847123" lon="13.278448739397039"><ele>664.0</ele><time>2026-03-28T10:18:43Z</time></trkpt><trkpt lat="46.25479340230212" lon="13.278595934193513"><ele>658.0</ele><time>2026-03-28T10:18:44Z</time></trkpt><trkpt lat="46.25483673346184" lon="13.278745532758544"><ele>652.0</ele><time>2026-03-28T10:18:45Z</time></trkpt><trkpt lat="46.25488432508563" lon="13.278904613572761"><ele>646.0</ele><time>2026-03-28T10:18:46Z</time></trkpt><trkpt lat="46.254926968461724" lon="13.279059442328316"><ele>640.0</ele><time>2026-03-28T10:18:47Z</time></trkpt><trkpt lat="46.25496893911658" lon="13.279194822945245"><ele>640.0</ele><time>2026-03-28T10:18:48Z</time></trkpt><trkpt lat="46.25500865267529" lon="13.279304650806939"><ele>640.0</ele><time>2026-03-28T10:18:49Z</time></trkpt><trkpt lat="46.2550738877433" lon="13.279394092730458"><ele>640.0</ele><time>2026-03-28T10:18:50Z</time></trkpt><trkpt lat="46.25516924108973" lon="13.279408355367165"><ele>640.0</ele><time>2026-03-28T10:18:51Z</time></trkpt><trkpt lat="46.25526013238199" lon="13.279459207295197"><ele>640.0</ele><time>2026-03-28T10:18:52Z</time></trkpt><trkpt lat="46.25534689821056" lon="13.27952497504812"><ele>640.0</ele><time>2026-03-28T10:18:53Z</time></trkpt><trkpt lat="46.25541338241659" lon="13.27963683075147"><ele>640.0</ele><time>2026-03-28T10:18:54Z</time></trkpt><trkpt lat="46.25547201180453" lon="13.279777748985152"><ele>640.0</ele><time>2026-03-28T10:18:55Z</time></trkpt><trkpt lat="46.2555317864712" lon="13.279933435444248"><ele>640.0</ele><time>2026-03-28T10:18:56Z</time></trkpt><trkpt lat="46.25557487006575" lon="13.280086490326067"><ele>639.6</ele><time>2026-03-28T10:18:57Z</time></trkpt><trkpt lat="46.255607212834846" lon="13.28023526807075"><ele>639.2</ele><time>2026-03-28T10:18:58Z</time></trkpt><trkpt lat="46.25563562123114" lon="13.280374889926609"><ele>638.8</ele><time>2026-03-28T10:18:59Z</time></trkpt><trkpt lat="46.255679621419844" lon="13.280503927388926"><ele>638.4</ele><time>2026-03-28T10:19:00Z</time></trkpt><trkpt lat="46.25575579842197" lon="13.280621112676778"><ele>638.0</ele><time>2026-03-28T10:19:01Z</time></trkpt><trkpt lat="46.255845166372225" lon="13.280723344256858"><ele>638.0</ele><time>2026-03-28T10:19:02Z</time></trkpt><trkpt lat="46.2559406678249" lon="13.280841895272918"><ele>638.0</ele><time>2026-03-28T10:19:03Z</time></trkpt><trkpt lat="46.25601442831827" lon="13.280969369990016"><ele>638.0</ele><time>2026-03-28T10:19:04Z</time></trkpt><trkpt lat="46.25608261164795" lon="13.281092088572553"><ele>638.0</ele><time>2026-03-28T10:19:05Z</time></trkpt><trkpt lat="46.25616201695666" lon="13.281181212464718"><ele>638.0</ele><time>2026-03-28T10:19:06Z</time></trkpt><trkpt lat="46.25625786579142" lon="13.281231314060342"><ele>638.0</ele><time>2026-03-28T10:19:07Z</time></trkpt><trkpt lat="46.25635032542608" lon="13.281268020230003"><ele>638.0</ele><time>2026-03-28T10:19:08Z</time></trkpt><trkpt lat="46.25643057706996" lon="13.28131764939336"><ele>638.0</ele><time>2026-03-28T10:19:09Z</time></trkpt><trkpt lat="46.25647272061197" lon="13.281402530223996"><ele>638.0</ele><time>2026-03-28T10:19:10Z</time></trkpt><trkpt lat="46.256474047489135" lon="13.281532989584809"><ele>638.0</ele><time>2026-03-28T10:19:10.999Z</time></trkpt><trkpt lat="46.256456843327314" lon="13.281679299415492"><ele>637.8333333333333</ele><time>2026-03-28T10:19:11.999Z</time></trkpt><trkpt lat="46.25643644341549" lon="13.281833126236519"><ele>637.6666666666666</ele><time>2026-03-28T10:19:12.999Z</time></trkpt><trkpt lat="46.25641869391985" lon="13.281982538768434"><ele>637.5</ele><time>2026-03-28T10:19:13.999Z</time></trkpt><trkpt lat="46.25640542589298" lon="13.282109176949065"><ele>637.3333333333334</ele><time>2026-03-28T10:19:14.999Z</time></trkpt><trkpt lat="46.25639628891825" lon="13.282203132487645"><ele>637.1666666666667</ele><time>2026-03-28T10:19:15.999Z</time></trkpt><trkpt lat="46.25638201973606" lon="13.282319592423143"><ele>637.0</ele><time>2026-03-28T10:19:17.999Z</time></trkpt><trkpt lat="46.25637016271569" lon="13.282434971083372"><ele>635.8333333333334</ele><time>2026-03-28T10:19:19.999Z</time></trkpt><trkpt lat="46.25636342169645" lon="13.282574487350407"><ele>634.6666666666667</ele><time>2026-03-28T10:19:21.999Z</time></trkpt><trkpt lat="46.25636664036497" lon="13.282708910137135"><ele>633.5</ele><time>2026-03-28T10:19:23.999Z</time></trkpt><trkpt lat="46.25638122391261" lon="13.282829197230903"><ele>632.3333333333334</ele><time>2026-03-28T10:19:25.999Z</time></trkpt><trkpt lat="46.256393691603876" lon="13.282938158356997"><ele>631.1666666666666</ele><time>2026-03-28T10:19:27.999Z</time></trkpt><trkpt lat="46.256393708684406" lon="13.283066883975147"><ele>630.0</ele><time>2026-03-28T10:19:52.999Z</time></trkpt><trkpt lat="46.25640899190495" lon="13.283190713528668"><ele>628.2</ele><time>2026-03-28T10:19:54.999Z</time></trkpt><trkpt lat="46.25641884079719" lon="13.28328293827476"><ele>626.4</ele><time>2026-03-28T10:19:55.999Z</time></trkpt><trkpt lat="46.25646999637524" lon="13.283415300307023"><ele>624.6</ele><time>2026-03-28T10:19:57.999Z</time></trkpt><trkpt lat="46.256540109445226" lon="13.28356189907153"><ele>622.8</ele><time>2026-03-28T10:19:59.999Z</time></trkpt><trkpt lat="46.25665681275468" lon="13.283706718532494"><ele>621.0</ele><time>2026-03-28T10:20:01.999Z</time></trkpt><trkpt lat="46.256719024089044" lon="13.28375283460616"><ele>620.3333333333334</ele><time>2026-03-28T10:20:02.999Z</time></trkpt><trkpt lat="46.25680595937591" lon="13.283807264212157"><ele>619.6666666666667</ele><time>2026-03-28T10:20:04.999Z</time></trkpt><trkpt lat="46.25694813326764" lon="13.283406119398823"><ele>619.0</ele><time>2026-03-28T10:20:09Z</time></trkpt><trkpt lat="46.25695929582125" lon="13.283244750713179"><ele>619.0</ele><time>2026-03-28T10:20:11Z</time></trkpt><trkpt lat="46.25698139484958" lon="13.28315852832127"><ele>619.0</ele><time>2026-03-28T10:20:12Z</time></trkpt><trkpt lat="46.25703256876152" lon="13.283065864430649"><ele>619.0</ele><time>2026-03-28T10:20:13Z</time></trkpt><trkpt lat="46.257079959871106" lon="13.282974768877317"><ele>619.0</ele><time>2026-03-28T10:20:14Z</time></trkpt><trkpt lat="46.25712580222922" lon="13.282890043503059"><ele>619.0</ele><time>2026-03-28T10:20:15Z</time></trkpt><trkpt lat="46.25718951423553" lon="13.28276356051409"><ele>619.0</ele><time>2026-03-28T10:20:17Z</time></trkpt><trkpt lat="46.257232420136624" lon="13.282662822332664"><ele>618.5</ele><time>2026-03-28T10:20:19Z</time></trkpt><trkpt lat="46.25723025186035" lon="13.282537140873409"><ele>618.0</ele><time>2026-03-28T10:20:34Z</time></trkpt><trkpt lat="46.257190320499355" lon="13.282462033188555"><ele>617.5</ele><time>2026-03-28T10:20:37Z</time></trkpt><trkpt lat="46.25716760462137" lon="13.282352315994661"><ele>617.0</ele><time>2026-03-28T10:20:39Z</time></trkpt><trkpt lat="46.25720001066862" lon="13.282218654844524"><ele>616.5</ele><time>2026-03-28T10:20:42Z</time></trkpt><trkpt lat="46.257290441623674" lon="13.282160734169205"><ele>616.0</ele><time>2026-03-28T10:20:44Z</time></trkpt><trkpt lat="46.25735984449347" lon="13.282092990410144"><ele>611.6</ele><time>2026-03-28T10:20:46Z</time></trkpt><trkpt lat="46.25743756080602" lon="13.282038623077113"><ele>607.2</ele><time>2026-03-28T10:20:48Z</time></trkpt><trkpt lat="46.257506642736075" lon="13.28195451601393"><ele>602.8</ele><time>2026-03-28T10:20:50Z</time></trkpt><trkpt lat="46.257557074432356" lon="13.281830435592582"><ele>598.4</ele><time>2026-03-28T10:20:52Z</time></trkpt><trkpt lat="46.25763539519515" lon="13.281723890523994"><ele>594.0</ele><time>2026-03-28T10:20:54Z</time></trkpt><trkpt lat="46.25770441885382" lon="13.281649016544923"><ele>594.0</ele><time>2026-03-28T10:20:56Z</time></trkpt><trkpt lat="46.257759140105584" lon="13.28151648926718"><ele>594.0</ele><time>2026-03-28T10:20:58Z</time></trkpt><trkpt lat="46.25779834861031" lon="13.281399123070333"><ele>594.0</ele><time>2026-03-28T10:21:00Z</time></trkpt><trkpt lat="46.257847114781754" lon="13.281304089747508"><ele>594.0</ele><time>2026-03-28T10:21:02Z</time></trkpt><trkpt lat="46.257909334720914" lon="13.281226688179519"><ele>594.0</ele><time>2026-03-28T10:21:05Z</time></trkpt><trkpt lat="46.25797347562657" lon="13.28119596792675"><ele>594.0</ele><time>2026-03-28T10:23:03Z</time></trkpt><trkpt lat="46.25801262249923" lon="13.28111954998353"><ele>593.6666666666666</ele><time>2026-03-28T10:23:09Z</time></trkpt><trkpt lat="46.25806594630413" lon="13.281011943951816"><ele>593.3333333333334</ele><time>2026-03-28T10:23:57Z</time></trkpt><trkpt lat="46.258084351883156" lon="13.280918911442747"><ele>593.0</ele><time>2026-03-28T10:24:02.999Z</time></trkpt><trkpt lat="46.258061160136265" lon="13.280826345524076"><ele>592.6666666666667</ele><time>2026-03-28T10:25:35Z</time></trkpt><trkpt lat="46.258049565717144" lon="13.280710443840354"><ele>592.3333333333334</ele><time>2026-03-28T10:25:37Z</time></trkpt><trkpt lat="46.25805802199332" lon="13.280583105412486"><ele>592.0</ele><time>2026-03-28T10:25:39Z</time></trkpt><trkpt lat="46.25811462864167" lon="13.280478628411062"><ele>587.1666666666667</ele><time>2026-03-28T10:25:41Z</time></trkpt><trkpt lat="46.258181890212654" lon="13.280403915360589"><ele>582.3333333333334</ele><time>2026-03-28T10:25:43.999Z</time></trkpt><trkpt lat="46.25823604741518" lon="13.28035234330773"><ele>577.5</ele><time>2026-03-28T10:25:47.999Z</time></trkpt><trkpt lat="46.25828679032818" lon="13.280256270006001"><ele>572.6666666666666</ele><time>2026-03-28T10:26:13.999Z</time></trkpt><trkpt lat="46.25834049650665" lon="13.28017769878818"><ele>567.8333333333333</ele><time>2026-03-28T10:26:15.999Z</time></trkpt><trkpt lat="46.25834522697132" lon="13.28004671530551"><ele>563.0</ele><time>2026-03-28T10:26:18.999Z</time></trkpt><trkpt lat="46.258350662703016" lon="13.279939666661358"><ele>563.0</ele><time>2026-03-28T10:26:20.999Z</time></trkpt><trkpt lat="46.258328438553" lon="13.27981935491168"><ele>563.0</ele><time>2026-03-28T10:26:22.999Z</time></trkpt><trkpt lat="46.258327095042276" lon="13.279686299929079"><ele>563.0</ele><time>2026-03-28T10:26:26Z</time></trkpt><trkpt lat="46.25831839253473" lon="13.279548013784147"><ele>563.0</ele><time>2026-03-28T10:26:30Z</time></trkpt><trkpt lat="46.25830551758924" lon="13.27945541382571"><ele>563.0</ele><time>2026-03-28T10:26:31Z</time></trkpt><trkpt lat="46.25833968736639" lon="13.279332843453826"><ele>563.0</ele><time>2026-03-28T10:26:33Z</time></trkpt><trkpt lat="46.25840406238118" lon="13.279328144484987"><ele>563.0</ele><time>2026-03-28T10:26:35Z</time></trkpt><trkpt lat="46.25846609915048" lon="13.279374489352097"><ele>563.0</ele><time>2026-03-28T10:26:37Z</time></trkpt><trkpt lat="46.258503630866684" lon="13.27948655195536"><ele>563.0</ele><time>2026-03-28T10:26:40Z</time></trkpt><trkpt lat="46.258554944863846" lon="13.279623947473937"><ele>563.0</ele><time>2026-03-28T10:26:43Z</time></trkpt><trkpt lat="46.25860424405647" lon="13.279726977613883"><ele>563.0</ele><time>2026-03-28T10:26:45Z</time></trkpt><trkpt lat="46.25864505643328" lon="13.279824835089592"><ele>563.0</ele><time>2026-03-28T10:26:47Z</time></trkpt><trkpt lat="46.258704280902776" lon="13.27988133183023"><ele>563.0</ele><time>2026-03-28T10:26:50Z</time></trkpt><trkpt lat="46.2587724953987" lon="13.279926164749567"><ele>563.0</ele><time>2026-03-28T10:26:59Z</time></trkpt><trkpt lat="46.258804069301746" lon="13.280044413814506"><ele>563.0</ele><time>2026-03-28T10:27:02Z</time></trkpt><trkpt lat="46.25883787670824" lon="13.280163296266329"><ele>563.0</ele><time>2026-03-28T10:27:05Z</time></trkpt><trkpt lat="46.25886028184131" lon="13.280256342566572"><ele>563.0</ele><time>2026-03-28T10:27:07Z</time></trkpt><trkpt lat="46.25893465645639" lon="13.280199713821052"><ele>563.0</ele><time>2026-03-28T10:27:18Z</time></trkpt><trkpt lat="46.25896827488132" lon="13.280077367299908"><ele>559.0</ele><time>2026-03-28T10:27:20Z</time></trkpt><trkpt lat="46.25901759158012" lon="13.27994074487589"><ele>555.0</ele><time>2026-03-28T10:27:22Z</time></trkpt><trkpt lat="46.25903741253439" lon="13.2798002266632"><ele>551.0</ele><time>2026-03-28T10:27:24Z</time></trkpt><trkpt lat="46.25900975839928" lon="13.279677710804805"><ele>547.0</ele><time>2026-03-28T10:27:26Z</time></trkpt><trkpt lat="46.25898599365374" lon="13.279550646678628"><ele>543.0</ele><time>2026-03-28T10:27:28Z</time></trkpt><trkpt lat="46.25898738650098" lon="13.279446910223559"><ele>541.8</ele><time>2026-03-28T10:27:29Z</time></trkpt><trkpt lat="46.25902127876132" lon="13.279295606561288"><ele>540.5999999999999</ele><time>2026-03-28T10:27:31Z</time></trkpt><trkpt lat="46.259069963921355" lon="13.279146058695172"><ele>539.4000000000001</ele><time>2026-03-28T10:27:33Z</time></trkpt><trkpt lat="46.259029908762" lon="13.279025487448516"><ele>538.2</ele><time>2026-03-28T10:27:35Z</time></trkpt><trkpt lat="46.259006970299346" lon="13.278865462824498"><ele>537.0</ele><time>2026-03-28T10:27:37Z</time></trkpt><trkpt lat="46.25906353792168" lon="13.278748101428212"><ele>535.2</ele><time>2026-03-28T10:27:39Z</time></trkpt><trkpt lat="46.25912053208883" lon="13.278695164641302"><ele>533.4000000000001</ele><time>2026-03-28T10:30:40Z</time></trkpt><trkpt lat="46.25921326369932" lon="13.278617640391111"><ele>531.5999999999999</ele><time>2026-03-28T10:33:23Z</time></trkpt><trkpt lat="46.25925596830428" lon="13.27854359133117"><ele>529.8</ele><time>2026-03-28T10:33:25Z</time></trkpt><trkpt lat="46.25929598675508" lon="13.278391416339819"><ele>528.0</ele><time>2026-03-28T10:33:27Z</time></trkpt><trkpt lat="46.259365579253306" lon="13.278292109071332"><ele>528.0</ele><time>2026-03-28T10:33:29Z</time></trkpt><trkpt lat="46.25940252238529" lon="13.278200876727464"><ele>528.0</ele><time>2026-03-28T10:33:31Z</time></trkpt><trkpt lat="46.25949318631941" lon="13.278173677188024"><ele>528.0</ele><time>2026-03-28T10:33:34Z</time></trkpt><trkpt lat="46.259586645073284" lon="13.27810203068732"><ele>528.0</ele><time>2026-03-28T10:33:36Z</time></trkpt><trkpt lat="46.259665002124706" lon="13.278021040109133"><ele>528.0</ele><time>2026-03-28T10:33:38Z</time></trkpt><trkpt lat="46.25978882161071" lon="13.277959117780126"><ele>525.3333333333334</ele><time>2026-03-28T10:33:40Z</time></trkpt><trkpt lat="46.25985314265889" lon="13.277939431742022"><ele>522.6666666666666</ele><time>2026-03-28T10:33:41Z</time></trkpt><trkpt lat="46.25995687642039" lon="13.277895917090214"><ele>520.0</ele><time>2026-03-28T10:33:43Z</time></trkpt><trkpt lat="46.26005279298158" lon="13.27783833061664"><ele>517.3333333333333</ele><time>2026-03-28T10:33:45Z</time></trkpt><trkpt lat="46.260149355671146" lon="13.277819407898377"><ele>514.6666666666666</ele><time>2026-03-28T10:33:47Z</time></trkpt><trkpt lat="46.26022163640937" lon="13.277840624679458"><ele>512.0</ele><time>2026-03-28T10:36:01Z</time></trkpt><trkpt lat="46.260280808994445" lon="13.277887958899134"><ele>511.99999999999994</ele><time>2026-03-28T10:36:07Z</time></trkpt><trkpt lat="46.26033695615745" lon="13.277950319654595"><ele>512.0</ele><time>2026-03-28T10:36:10Z</time></trkpt><trkpt lat="46.260400505875026" lon="13.278061956289605"><ele>512.0</ele><time>2026-03-28T10:37:17Z</time></trkpt><trkpt lat="46.26044290787105" lon="13.278130730194537"><ele>512.0</ele><time>2026-03-28T10:37:20Z</time></trkpt><trkpt lat="46.26053642992009" lon="13.278122750035934"><ele>511.99999999999994</ele><time>2026-03-28T10:37:23Z</time></trkpt><trkpt lat="46.260598081639195" lon="13.27807441113981"><ele>512.0</ele><time>2026-03-28T10:37:25Z</time></trkpt><trkpt lat="46.26064802587766" lon="13.277971753558559"><ele>510.0</ele><time>2026-03-28T10:37:27Z</time></trkpt><trkpt lat="46.26064985374039" lon="13.277862991442504"><ele>508.00000000000006</ele><time>2026-03-28T10:37:29Z</time></trkpt><trkpt lat="46.26066940091842" lon="13.277684220826426"><ele>506.00000000000006</ele><time>2026-03-28T10:37:31Z</time></trkpt><trkpt lat="46.26068339404574" lon="13.277576184918779"><ele>504.0</ele><time>2026-03-28T10:37:32Z</time></trkpt><trkpt lat="46.26070733016737" lon="13.277443008108687"><ele>502.0</ele><time>2026-03-28T10:37:34Z</time></trkpt><trkpt lat="46.26072994401408" lon="13.27729474767908"><ele>500.83333333333337</ele><time>2026-03-28T10:37:36Z</time></trkpt><trkpt lat="46.260744193652656" lon="13.2771960718828"><ele>499.6666666666667</ele><time>2026-03-28T10:37:37Z</time></trkpt><trkpt lat="46.26078014578825" lon="13.277048446302476"><ele>498.5</ele><time>2026-03-28T10:37:39Z</time></trkpt><trkpt lat="46.260805658077075" lon="13.27693151144838"><ele>497.33333333333337</ele><time>2026-03-28T10:37:41Z</time></trkpt><trkpt lat="46.260838927041036" lon="13.276843110629457"><ele>496.1666666666667</ele><time>2026-03-28T10:37:43Z</time></trkpt><trkpt lat="46.260871706332004" lon="13.276756736283698"><ele>495.0</ele><time>2026-03-28T10:37:46Z</time></trkpt><trkpt lat="46.26091374894995" lon="13.276653699253837"><ele>494.99999999999994</ele><time>2026-03-28T10:37:50Z</time></trkpt><trkpt lat="46.260944474371286" lon="13.276520754558879"><ele>495.0</ele><time>2026-03-28T10:37:52Z</time></trkpt><trkpt lat="46.260969081240816" lon="13.276430788950849"><ele>494.99999999999994</ele><time>2026-03-28T10:37:53Z</time></trkpt><trkpt lat="46.26098900146052" lon="13.276340838224368"><ele>494.99999999999994</ele><time>2026-03-28T10:37:54Z</time></trkpt><trkpt lat="46.26099722619837" lon="13.276248940568529"><ele>495.0</ele><time>2026-03-28T10:37:55Z</time></trkpt><trkpt lat="46.26099491955066" lon="13.276154193917014"><ele>494.99999999999994</ele><time>2026-03-28T10:37:56Z</time></trkpt><trkpt lat="46.2610016885144" lon="13.276058382401214"><ele>494.99999999999994</ele><time>2026-03-28T10:37:57Z</time></trkpt><trkpt lat="46.261018377560944" lon="13.275904677560195"><ele>493.0</ele><time>2026-03-28T10:37:59Z</time></trkpt><trkpt lat="46.26098231203473" lon="13.275749712125437"><ele>491.0</ele><time>2026-03-28T10:38:01Z</time></trkpt><trkpt lat="46.26095686062134" lon="13.275608226555152"><ele>489.0</ele><time>2026-03-28T10:38:03Z</time></trkpt><trkpt lat="46.26099662784297" lon="13.275510387863559"><ele>487.0</ele><time>2026-03-28T10:38:05Z</time></trkpt><trkpt lat="46.26108894706356" lon="13.275483677327452"><ele>485.0</ele><time>2026-03-28T10:38:07Z</time></trkpt><trkpt lat="46.26121197036669" lon="13.27552949354213"><ele>484.99999999999994</ele><time>2026-03-28T10:38:09Z</time></trkpt><trkpt lat="46.26131047965257" lon="13.275614797161655"><ele>485.0</ele><time>2026-03-28T10:38:11Z</time></trkpt><trkpt lat="46.2613715289623" lon="13.275666800058707"><ele>485.0</ele><time>2026-03-28T10:38:12Z</time></trkpt><trkpt lat="46.2614435184116" lon="13.27572540423058"><ele>485.0</ele><time>2026-03-28T10:38:13Z</time></trkpt><trkpt lat="46.261505113925146" lon="13.275745163503196"><ele>484.99999999999994</ele><time>2026-03-28T10:38:14Z</time></trkpt><trkpt lat="46.261610873879306" lon="13.275701228784689"><ele>485.0</ele><time>2026-03-28T10:38:16Z</time></trkpt><trkpt lat="46.2617004606207" lon="13.27557209420063"><ele>482.99999999999994</ele><time>2026-03-28T10:38:18Z</time></trkpt><trkpt lat="46.26175467507323" lon="13.27549574554077"><ele>481.0</ele><time>2026-03-28T10:38:19Z</time></trkpt><trkpt lat="46.2618051423846" lon="13.275429243573445"><ele>479.0</ele><time>2026-03-28T10:38:20Z</time></trkpt><trkpt lat="46.26185443590861" lon="13.275361477709014"><ele>477.0</ele><time>2026-03-28T10:38:21Z</time></trkpt><trkpt lat="46.26195756394178" lon="13.27526527778481"><ele>474.99999999999994</ele><time>2026-03-28T10:38:23Z</time></trkpt><trkpt lat="46.26201603997369" lon="13.275223383208912"><ele>473.0</ele><time>2026-03-28T10:38:24Z</time></trkpt><trkpt lat="46.26211924415045" lon="13.275135261702138"><ele>472.99999999999994</ele><time>2026-03-28T10:38:26Z</time></trkpt><trkpt lat="46.26218608001669" lon="13.275019986462338"><ele>473.0</ele><time>2026-03-28T10:38:28Z</time></trkpt><trkpt lat="46.262229527446934" lon="13.274941742384662"><ele>473.0</ele><time>2026-03-28T10:38:30Z</time></trkpt><trkpt lat="46.2622575272822" lon="13.274833924747945"><ele>473.0</ele><time>2026-03-28T10:38:31.999Z</time></trkpt><trkpt lat="46.262278535918945" lon="13.274715953015216"><ele>472.99999999999994</ele><time>2026-03-28T10:38:33.999Z</time></trkpt><trkpt lat="46.26225350529321" lon="13.274593356509671"><ele>473.0</ele><time>2026-03-28T10:38:35.999Z</time></trkpt><trkpt lat="46.26219398466996" lon="13.274432247481219"><ele>470.66666666666663</ele><time>2026-03-28T10:38:37.999Z</time></trkpt><trkpt lat="46.262146603853374" lon="13.274291562670209"><ele>468.3333333333333</ele><time>2026-03-28T10:38:39.999Z</time></trkpt><trkpt lat="46.26211450992641" lon="13.27414280628094"><ele>466.0</ele><time>2026-03-28T10:38:41.999Z</time></trkpt><trkpt lat="46.262071289725405" lon="13.274050876069271"><ele>463.66666666666663</ele><time>2026-03-28T10:38:44.999Z</time></trkpt><trkpt lat="46.2620186638133" lon="13.2739997987687"><ele>461.3333333333333</ele><time>2026-03-28T10:42:05Z</time></trkpt><trkpt lat="46.26196584674264" lon="13.273936649777372"><ele>459.0</ele><time>2026-03-28T10:44:23Z</time></trkpt><trkpt lat="46.26191411065033" lon="13.273871334238356"><ele>459.0</ele><time>2026-03-28T10:44:39Z</time></trkpt><trkpt lat="46.26196904163471" lon="13.273920709819489"><ele>459.0</ele><time>2026-03-28T10:56:44Z</time></trkpt><trkpt lat="46.26203495941119" lon="13.27394248484103"><ele>459.0</ele><time>2026-03-28T10:58:06.998Z</time></trkpt><trkpt lat="46.26196603665458" lon="13.273910508063977"><ele>459.0</ele><time>2026-03-28T10:58:58.999Z</time></trkpt><trkpt lat="46.26189364411352" lon="13.273860683505454"><ele>459.0</ele><time>2026-03-28T10:59:24.999Z</time></trkpt><trkpt lat="46.26183258645299" lon="13.273774327700245"><ele>459.0</ele><time>2026-03-28T11:02:56Z</time></trkpt><trkpt lat="46.261788476636575" lon="13.273701264909786"><ele>459.0</ele><time>2026-03-28T11:02:58Z</time></trkpt><trkpt lat="46.26179017484698" lon="13.273599434214843"><ele>456.5</ele><time>2026-03-28T11:03:00Z</time></trkpt><trkpt lat="46.26183477760703" lon="13.273496768110885"><ele>454.0</ele><time>2026-03-28T11:03:02Z</time></trkpt><trkpt lat="46.26191411189415" lon="13.273446201458052"><ele>451.5</ele><time>2026-03-28T11:03:04Z</time></trkpt><trkpt lat="46.26198474825903" lon="13.27342407697789"><ele>449.0</ele><time>2026-03-28T11:03:06Z</time></trkpt><trkpt lat="46.26202942356309" lon="13.273501303353939"><ele>446.5</ele><time>2026-03-28T11:03:08Z</time></trkpt><trkpt lat="46.26210250713697" lon="13.273643515049809"><ele>444.0</ele><time>2026-03-28T11:03:10Z</time></trkpt><trkpt lat="46.26215470476901" lon="13.273772735201085"><ele>444.0</ele><time>2026-03-28T11:03:12Z</time></trkpt><trkpt lat="46.26223669931741" lon="13.273790800984488"><ele>444.0</ele><time>2026-03-28T11:03:14Z</time></trkpt><trkpt lat="46.2623634960997" lon="13.273711961432129"><ele>444.0</ele><time>2026-03-28T11:03:16Z</time></trkpt><trkpt lat="46.262439472564864" lon="13.273618096462291"><ele>444.0</ele><time>2026-03-28T11:03:18Z</time></trkpt><trkpt lat="46.262483956122246" lon="13.273526290708636"><ele>444.0</ele><time>2026-03-28T11:03:20Z</time></trkpt><trkpt lat="46.26251699091887" lon="13.273440801732876"><ele>445.42857142857144</ele><time>2026-03-28T11:03:22Z</time></trkpt><trkpt lat="46.26256664260147" lon="13.273378158429"><ele>446.8571428571429</ele><time>2026-03-28T11:05:13Z</time></trkpt><trkpt lat="46.26263619397282" lon="13.273297876483294"><ele>448.28571428571433</ele><time>2026-03-28T11:05:16Z</time></trkpt><trkpt lat="46.262706621798266" lon="13.273302416636517"><ele>449.7142857142857</ele><time>2026-03-28T11:05:18Z</time></trkpt><trkpt lat="46.26276459805424" lon="13.273340749281948"><ele>451.1428571428572</ele><time>2026-03-28T11:05:20Z</time></trkpt><trkpt lat="46.26282916273376" lon="13.273391392435956"><ele>452.5714285714286</ele><time>2026-03-28T11:05:25Z</time></trkpt><trkpt lat="46.26288388728993" lon="13.273450422913708"><ele>454.0</ele><time>2026-03-28T11:06:43Z</time></trkpt><trkpt lat="46.26294265101191" lon="13.273494501846423"><ele>454.0</ele><time>2026-03-28T11:07:15Z</time></trkpt><trkpt lat="46.2630150634273" lon="13.273543094365877"><ele>454.0</ele><time>2026-03-28T11:07:21Z</time></trkpt><trkpt lat="46.263107915197196" lon="13.273651153332276"><ele>454.0</ele><time>2026-03-28T11:07:23Z</time></trkpt><trkpt lat="46.26323034705315" lon="13.273662358388403"><ele>454.0</ele><time>2026-03-28T11:07:25Z</time></trkpt><trkpt lat="46.263350559456086" lon="13.27365256646595"><ele>454.0</ele><time>2026-03-28T11:07:27Z</time></trkpt><trkpt lat="46.263414875164564" lon="13.2736200046937"><ele>453.1666666666667</ele><time>2026-03-28T11:07:28Z</time></trkpt><trkpt lat="46.26350541165441" lon="13.27354855841776"><ele>452.33333333333337</ele><time>2026-03-28T11:07:30Z</time></trkpt><trkpt lat="46.263567029291636" lon="13.273429843807525"><ele>451.5</ele><time>2026-03-28T11:07:32Z</time></trkpt><trkpt lat="46.26360839081388" lon="13.273329620903198"><ele>450.66666666666663</ele><time>2026-03-28T11:07:34Z</time></trkpt><trkpt lat="46.26365882762516" lon="13.273250506081865"><ele>449.8333333333333</ele><time>2026-03-28T11:07:36Z</time></trkpt><trkpt lat="46.26370302273697" lon="13.273179215136151"><ele>449.0</ele><time>2026-03-28T11:07:44Z</time></trkpt><trkpt lat="46.26375241502602" lon="13.2731079616102"><ele>447.0</ele><time>2026-03-28T11:07:47Z</time></trkpt><trkpt lat="46.263770013435035" lon="13.273004011565709"><ele>445.0</ele><time>2026-03-28T11:07:49Z</time></trkpt><trkpt lat="46.26378175515029" lon="13.272856836084737"><ele>443.0</ele><time>2026-03-28T11:07:51Z</time></trkpt><trkpt lat="46.26381873653628" lon="13.272719423613134"><ele>441.0</ele><time>2026-03-28T11:07:53Z</time></trkpt><trkpt lat="46.263869980720365" lon="13.272548833837787"><ele>439.0</ele><time>2026-03-28T11:07:55Z</time></trkpt><trkpt lat="46.2638789046073" lon="13.272458419593356"><ele>439.00000000000006</ele><time>2026-03-28T11:07:56Z</time></trkpt><trkpt lat="46.26392024637409" lon="13.272336210672991"><ele>439.0</ele><time>2026-03-28T11:07:58Z</time></trkpt><trkpt lat="46.26395135582391" lon="13.272220583165863"><ele>439.0</ele><time>2026-03-28T11:08:00Z</time></trkpt><trkpt lat="46.26400117117586" lon="13.272160987202833"><ele>439.0</ele><time>2026-03-28T11:08:02Z</time></trkpt><trkpt lat="46.264074328786215" lon="13.27206882821841"><ele>439.00000000000006</ele><time>2026-03-28T11:08:05Z</time></trkpt><trkpt lat="46.2641265083978" lon="13.271999002351363"><ele>439.0</ele><time>2026-03-28T11:08:06Z</time></trkpt><trkpt lat="46.26418728949513" lon="13.271931563051425"><ele>437.33333333333337</ele><time>2026-03-28T11:08:07Z</time></trkpt><trkpt lat="46.26424877343482" lon="13.27185381249825"><ele>435.6666666666667</ele><time>2026-03-28T11:08:08Z</time></trkpt><trkpt lat="46.264308328187155" lon="13.271771742447745"><ele>434.0</ele><time>2026-03-28T11:08:09Z</time></trkpt><trkpt lat="46.264360242079945" lon="13.271683125058086"><ele>432.33333333333337</ele><time>2026-03-28T11:08:10Z</time></trkpt><trkpt lat="46.26439001545558" lon="13.271596539001182"><ele>430.6666666666667</ele><time>2026-03-28T11:08:11Z</time></trkpt><trkpt lat="46.26438965048639" lon="13.271437477401427"><ele>429.0</ele><time>2026-03-28T11:08:13Z</time></trkpt><trkpt lat="46.2644122184191" lon="13.271268715981186"><ele>425.5</ele><time>2026-03-28T11:08:15Z</time></trkpt><trkpt lat="46.26443071524816" lon="13.271150240616752"><ele>422.0</ele><time>2026-03-28T11:08:17Z</time></trkpt><trkpt lat="46.26448941801124" lon="13.271046518480814"><ele>418.5</ele><time>2026-03-28T11:08:19Z</time></trkpt><trkpt lat="46.26456878871084" lon="13.271002103134338"><ele>415.0</ele><time>2026-03-28T11:08:21Z</time></trkpt><trkpt lat="46.264633557759325" lon="13.270962771420491"><ele>411.5</ele><time>2026-03-28T11:08:24Z</time></trkpt><trkpt lat="46.264697032562864" lon="13.270924694978726"><ele>408.0</ele><time>2026-03-28T11:08:29Z</time></trkpt><trkpt lat="46.264777928244335" lon="13.270851535597474"><ele>409.8333333333333</ele><time>2026-03-28T11:08:32Z</time></trkpt><trkpt lat="46.26485724876747" lon="13.270793692785368"><ele>411.66666666666663</ele><time>2026-03-28T11:08:35Z</time></trkpt><trkpt lat="46.26492327103418" lon="13.270743092684702"><ele>413.5</ele><time>2026-03-28T11:08:37Z</time></trkpt><trkpt lat="46.264992929322375" lon="13.27070174968484"><ele>415.3333333333333</ele><time>2026-03-28T11:08:39Z</time></trkpt><trkpt lat="46.26508507987219" lon="13.270695699500902"><ele>417.16666666666663</ele><time>2026-03-28T11:08:41Z</time></trkpt><trkpt lat="46.26515381094175" lon="13.270768471328518"><ele>419.0</ele><time>2026-03-28T11:08:43Z</time></trkpt><trkpt lat="46.26518512782937" lon="13.270874781977211"><ele>418.99999999999994</ele><time>2026-03-28T11:08:45Z</time></trkpt><trkpt lat="46.26521409652088" lon="13.270992231754581"><ele>419.0</ele><time>2026-03-28T11:08:47Z</time></trkpt><trkpt lat="46.26527913500372" lon="13.271072391328222"><ele>419.0</ele><time>2026-03-28T11:08:49Z</time></trkpt><trkpt lat="46.26535312561087" lon="13.271077663224496"><ele>419.0</ele><time>2026-03-28T11:08:52Z</time></trkpt><trkpt lat="46.26536885182078" lon="13.27098501974379"><ele>418.99999999999994</ele><time>2026-03-28T11:08:55Z</time></trkpt><trkpt lat="46.265350046169715" lon="13.270875301216838"><ele>419.0</ele><time>2026-03-28T11:08:58Z</time></trkpt><trkpt lat="46.26533800920459" lon="13.270778001845787"><ele>418.99999999999994</ele><time>2026-03-28T11:09:00Z</time></trkpt><trkpt lat="46.265324357246826" lon="13.27066748185326"><ele>419.0</ele><time>2026-03-28T11:09:03Z</time></trkpt><trkpt lat="46.26532548000109" lon="13.270560485468419"><ele>419.0</ele><time>2026-03-28T11:09:50.999Z</time></trkpt><trkpt lat="46.26531390205059" lon="13.27046119122223"><ele>419.0</ele><time>2026-03-28T11:09:54.999Z</time></trkpt><trkpt lat="46.265275512569474" lon="13.27038734351372"><ele>418.99999999999994</ele><time>2026-03-28T11:11:06Z</time></trkpt><trkpt lat="46.2652778782519" lon="13.27028109433767"><ele>419.0</ele><time>2026-03-28T11:11:10Z</time></trkpt><trkpt lat="46.26525800098878" lon="13.270150980922054"><ele>415.8333333333333</ele><time>2026-03-28T11:11:13Z</time></trkpt><trkpt lat="46.26524563551829" lon="13.270009271091931"><ele>412.66666666666663</ele><time>2026-03-28T11:11:15Z</time></trkpt><trkpt lat="46.265217430138236" lon="13.269909053891148"><ele>409.5</ele><time>2026-03-28T11:11:16.999Z</time></trkpt><trkpt lat="46.26519961296796" lon="13.269791598027291"><ele>406.33333333333337</ele><time>2026-03-28T11:11:18.999Z</time></trkpt><trkpt lat="46.26516674729746" lon="13.269684216332774"><ele>403.1666666666667</ele><time>2026-03-28T11:11:20.999Z</time></trkpt><trkpt lat="46.265194565911415" lon="13.26959437069016"><ele>400.0</ele><time>2026-03-28T11:11:22.999Z</time></trkpt><trkpt lat="46.26527474749032" lon="13.269551286424596"><ele>399.0</ele><time>2026-03-28T11:11:25.999Z</time></trkpt><trkpt lat="46.26537187202236" lon="13.269575576197619"><ele>398.0</ele><time>2026-03-28T11:11:27.999Z</time></trkpt><trkpt lat="46.265467717239815" lon="13.269629749856314"><ele>397.0</ele><time>2026-03-28T11:11:29.999Z</time></trkpt><trkpt lat="46.265546392555315" lon="13.2697169495488"><ele>396.0</ele><time>2026-03-28T11:11:31.999Z</time></trkpt><trkpt lat="46.26560146174938" lon="13.26976242188028"><ele>395.0</ele><time>2026-03-28T11:11:32.999Z</time></trkpt><trkpt lat="46.26567972353904" lon="13.269852035298802"><ele>395.0</ele><time>2026-03-28T11:11:34.999Z</time></trkpt><trkpt lat="46.265764908854486" lon="13.269975520175405"><ele>395.0</ele><time>2026-03-28T11:11:36.999Z</time></trkpt><trkpt lat="46.26584414466061" lon="13.270078582174484"><ele>395.0</ele><time>2026-03-28T11:11:38.999Z</time></trkpt><trkpt lat="46.26591832623395" lon="13.270180956247"><ele>395.0</ele><time>2026-03-28T11:11:39.999Z</time></trkpt><trkpt lat="46.26595746569609" lon="13.270283148961344"><ele>395.0</ele><time>2026-03-28T11:11:40.999Z</time></trkpt><trkpt lat="46.26600170261362" lon="13.270402244634552"><ele>394.99999999999994</ele><time>2026-03-28T11:11:42.999Z</time></trkpt><trkpt lat="46.26605954478535" lon="13.27044087308882"><ele>395.0</ele><time>2026-03-28T11:11:44.999Z</time></trkpt><trkpt lat="46.26610558079667" lon="13.270319711019829"><ele>395.0</ele><time>2026-03-28T11:11:47.999Z</time></trkpt><trkpt lat="46.26607953233462" lon="13.2701691029373"><ele>395.0</ele><time>2026-03-28T11:11:49.999Z</time></trkpt><trkpt lat="46.2660728234996" lon="13.270076749783847"><ele>394.99999999999994</ele><time>2026-03-28T11:11:50.999Z</time></trkpt><trkpt lat="46.26603570745125" lon="13.269939010927182"><ele>395.0</ele><time>2026-03-28T11:11:52.999Z</time></trkpt><trkpt lat="46.26601191095178" lon="13.269795758792178"><ele>392.49999999999994</ele><time>2026-03-28T11:11:54.999Z</time></trkpt><trkpt lat="46.26598368355135" lon="13.269701975370891"><ele>390.0</ele><time>2026-03-28T11:11:57.999Z</time></trkpt><trkpt lat="46.2659505998451" lon="13.269609866948871"><ele>387.5</ele><time>2026-03-28T11:12:13.999Z</time></trkpt><trkpt lat="46.26591362435606" lon="13.269485428455798"><ele>385.0</ele><time>2026-03-28T11:12:20.999Z</time></trkpt><trkpt lat="46.265883291737666" lon="13.269364974363366"><ele>382.5</ele><time>2026-03-28T11:12:22.999Z</time></trkpt><trkpt lat="46.26583055699459" lon="13.269221096401873"><ele>380.0</ele><time>2026-03-28T11:12:24.999Z</time></trkpt><trkpt lat="46.265763028614046" lon="13.269086636836702"><ele>380.0</ele><time>2026-03-28T11:12:26.999Z</time></trkpt><trkpt lat="46.26571092240146" lon="13.269007865567522"><ele>380.0</ele><time>2026-03-28T11:12:27.999Z</time></trkpt><trkpt lat="46.26566227176343" lon="13.26892080963107"><ele>380.0</ele><time>2026-03-28T11:12:28.999Z</time></trkpt><trkpt lat="46.26563507062186" lon="13.268838512911167"><ele>380.0</ele><time>2026-03-28T11:12:29.999Z</time></trkpt><trkpt lat="46.26557098906604" lon="13.268711857714232"><ele>380.0</ele><time>2026-03-28T11:12:31.999Z</time></trkpt><trkpt lat="46.26557363276277" lon="13.268516945563162"><ele>376.0</ele><time>2026-03-28T11:12:34.999Z</time></trkpt><trkpt lat="46.265628293483786" lon="13.268418060615076"><ele>372.0</ele><time>2026-03-28T11:12:37Z</time></trkpt><trkpt lat="46.265594369531335" lon="13.268290249378385"><ele>368.0</ele><time>2026-03-28T11:12:40Z</time></trkpt><trkpt lat="46.265517607241165" lon="13.268201239645066"><ele>364.0</ele><time>2026-03-28T11:12:44Z</time></trkpt><trkpt lat="46.265425062358446" lon="13.268237546244574"><ele>360.0</ele><time>2026-03-28T11:12:47Z</time></trkpt><trkpt lat="46.26532285821142" lon="13.268327517158605"><ele>359.2</ele><time>2026-03-28T11:12:49Z</time></trkpt><trkpt lat="46.265254103141956" lon="13.268449220385083"><ele>358.4</ele><time>2026-03-28T11:12:51Z</time></trkpt><trkpt lat="46.265196201445576" lon="13.268559488155786"><ele>357.6</ele><time>2026-03-28T11:12:53Z</time></trkpt><trkpt lat="46.26514253085157" lon="13.268616106163158"><ele>356.8</ele><time>2026-03-28T11:12:54Z</time></trkpt><trkpt lat="46.2650526536547" lon="13.268703063878636"><ele>356.0</ele><time>2026-03-28T11:12:56Z</time></trkpt><trkpt lat="46.26498271439393" lon="13.268716902216006"><ele>356.0</ele><time>2026-03-28T11:12:57Z</time></trkpt><trkpt lat="46.264878513937525" lon="13.268719500045941"><ele>356.0</ele><time>2026-03-28T11:12:59Z</time></trkpt><trkpt lat="46.264792442845554" lon="13.268775079743437"><ele>356.0</ele><time>2026-03-28T11:13:01Z</time></trkpt><trkpt lat="46.26470248569756" lon="13.268820599117655"><ele>356.0</ele><time>2026-03-28T11:13:03Z</time></trkpt><trkpt lat="46.264623496929225" lon="13.26888646304283"><ele>356.0</ele><time>2026-03-28T11:13:05Z</time></trkpt><trkpt lat="46.26455817993464" lon="13.26886623019262"><ele>355.99999999999994</ele><time>2026-03-28T11:13:07Z</time></trkpt><trkpt lat="46.26451682043498" lon="13.26878835756236"><ele>356.0</ele><time>2026-03-28T11:13:09Z</time></trkpt><trkpt lat="46.26456850802795" lon="13.268725454414106"><ele>356.0</ele><time>2026-03-28T11:13:11Z</time></trkpt><trkpt lat="46.26462513144591" lon="13.26868135765787"><ele>356.0</ele><time>2026-03-28T11:13:12Z</time></trkpt><trkpt lat="46.264709102208684" lon="13.268640579325217"><ele>356.0</ele><time>2026-03-28T11:13:13Z</time></trkpt><trkpt lat="46.26477482418128" lon="13.268559893647776"><ele>355.99999999999994</ele><time>2026-03-28T11:13:14Z</time></trkpt><trkpt lat="46.26482420790691" lon="13.268482829002226"><ele>356.0</ele><time>2026-03-28T11:13:15Z</time></trkpt><trkpt lat="46.26490373618679" lon="13.268343966908041"><ele>356.0</ele><time>2026-03-28T11:13:17Z</time></trkpt><trkpt lat="46.26500429067349" lon="13.268209675903378"><ele>356.0</ele><time>2026-03-28T11:13:19Z</time></trkpt><trkpt lat="46.26507823518191" lon="13.268127770664163"><ele>356.0</ele><time>2026-03-28T11:13:20Z</time></trkpt><trkpt lat="46.265125715374616" lon="13.268047907874399"><ele>356.0</ele><time>2026-03-28T11:13:21Z</time></trkpt><trkpt lat="46.26514993379342" lon="13.267946088514469"><ele>356.0</ele><time>2026-03-28T11:13:22Z</time></trkpt><trkpt lat="46.26515912178535" lon="13.267844649664802"><ele>356.0</ele><time>2026-03-28T11:13:23Z</time></trkpt><trkpt lat="46.26516137030064" lon="13.267742612073896"><ele>355.20000000000005</ele><time>2026-03-28T11:13:24Z</time></trkpt><trkpt lat="46.26515332105265" lon="13.267569835392079"><ele>354.40000000000003</ele><time>2026-03-28T11:13:26Z</time></trkpt><trkpt lat="46.26517751834541" lon="13.26747257732387"><ele>353.6</ele><time>2026-03-28T11:13:27Z</time></trkpt><trkpt lat="46.26527080624422" lon="13.267358072552446"><ele>352.8</ele><time>2026-03-28T11:13:29Z</time></trkpt><trkpt lat="46.265328792869155" lon="13.26728904970495"><ele>352.0</ele><time>2026-03-28T11:13:30Z</time></trkpt><trkpt lat="46.265392181630794" lon="13.267225343990056"><ele>353.3333333333333</ele><time>2026-03-28T11:13:31Z</time></trkpt><trkpt lat="46.265486668900145" lon="13.267270560042254"><ele>354.66666666666663</ele><time>2026-03-28T11:13:32Z</time></trkpt><trkpt lat="46.26555131764261" lon="13.26722478569559"><ele>356.0</ele><time>2026-03-28T11:13:33Z</time></trkpt><trkpt lat="46.26560811808687" lon="13.267184568244652"><ele>357.3333333333333</ele><time>2026-03-28T11:13:34Z</time></trkpt><trkpt lat="46.265674052987386" lon="13.267121987144812"><ele>358.6666666666667</ele><time>2026-03-28T11:13:35Z</time></trkpt><trkpt lat="46.26576134859343" lon="13.267084868448007"><ele>360.0</ele><time>2026-03-28T11:13:36Z</time></trkpt><trkpt lat="46.265840084957915" lon="13.267041958044267"><ele>356.3333333333333</ele><time>2026-03-28T11:13:37Z</time></trkpt><trkpt lat="46.265903828943706" lon="13.267004205251428"><ele>352.6666666666667</ele><time>2026-03-28T11:13:38Z</time></trkpt><trkpt lat="46.2659658524304" lon="13.266943725366403"><ele>349.0</ele><time>2026-03-28T11:13:39Z</time></trkpt><trkpt lat="46.266030818641305" lon="13.266900583195675"><ele>345.33333333333337</ele><time>2026-03-28T11:13:40Z</time></trkpt><trkpt lat="46.26609126159588" lon="13.266860351839352"><ele>341.6666666666667</ele><time>2026-03-28T11:13:41Z</time></trkpt><trkpt lat="46.26618713332906" lon="13.266789871439787"><ele>338.0</ele><time>2026-03-28T11:13:43Z</time></trkpt><trkpt lat="46.26627071516335" lon="13.26672504079511"><ele>338.0</ele><time>2026-03-28T11:13:45Z</time></trkpt><trkpt lat="46.26634942172101" lon="13.266783059762428"><ele>338.0</ele><time>2026-03-28T11:13:59Z</time></trkpt><trkpt lat="46.266380360757786" lon="13.266896501533695"><ele>338.0</ele><time>2026-03-28T11:14:01Z</time></trkpt><trkpt lat="46.26640747953758" lon="13.267013041129326"><ele>338.0</ele><time>2026-03-28T11:14:03Z</time></trkpt><trkpt lat="46.26644302818231" lon="13.267147595414615"><ele>338.0</ele><time>2026-03-28T11:14:05Z</time></trkpt><trkpt lat="46.26647344669277" lon="13.267285236798104"><ele>339.2</ele><time>2026-03-28T11:14:07Z</time></trkpt><trkpt lat="46.2665457890217" lon="13.267441285530522"><ele>340.4</ele><time>2026-03-28T11:14:09Z</time></trkpt><trkpt lat="46.26659100401569" lon="13.267543888747449"><ele>341.59999999999997</ele><time>2026-03-28T11:14:10Z</time></trkpt><trkpt lat="46.26663323039841" lon="13.2676487671653"><ele>342.79999999999995</ele><time>2026-03-28T11:14:11Z</time></trkpt><trkpt lat="46.266674639427734" lon="13.267754048383905"><ele>344.0</ele><time>2026-03-28T11:14:12Z</time></trkpt><trkpt lat="46.266715344284556" lon="13.26786201967162"><ele>344.00000000000006</ele><time>2026-03-28T11:14:13Z</time></trkpt><trkpt lat="46.26675049529226" lon="13.267960674765783"><ele>344.0</ele><time>2026-03-28T11:14:14Z</time></trkpt><trkpt lat="46.266790759745824" lon="13.268059861799435"><ele>344.0</ele><time>2026-03-28T11:14:15Z</time></trkpt><trkpt lat="46.26684014236597" lon="13.268143917830306"><ele>344.0</ele><time>2026-03-28T11:14:16Z</time></trkpt><trkpt lat="46.266888398515796" lon="13.26821966198443"><ele>344.0</ele><time>2026-03-28T11:14:17Z</time></trkpt><trkpt lat="46.266933915686586" lon="13.268285525497324"><ele>344.00000000000006</ele><time>2026-03-28T11:14:18Z</time></trkpt><trkpt lat="46.26698994682998" lon="13.268349907521975"><ele>344.0</ele><time>2026-03-28T11:14:19Z</time></trkpt><trkpt lat="46.26705709660301" lon="13.268410525297035"><ele>343.83333333333337</ele><time>2026-03-28T11:14:19.999Z</time></trkpt><trkpt lat="46.26712727602768" lon="13.268447979051595"><ele>343.6666666666667</ele><time>2026-03-28T11:14:20.999Z</time></trkpt><trkpt lat="46.2671879846929" lon="13.268505038837825"><ele>343.5</ele><time>2026-03-28T11:14:21.999Z</time></trkpt><trkpt lat="46.267261552687046" lon="13.268551318717433"><ele>343.3333333333333</ele><time>2026-03-28T11:14:22.999Z</time></trkpt><trkpt lat="46.26733852748372" lon="13.268577381632424"><ele>343.16666666666663</ele><time>2026-03-28T11:14:23.999Z</time></trkpt><trkpt lat="46.267417578473406" lon="13.268619815861818"><ele>343.0</ele><time>2026-03-28T11:14:24.999Z</time></trkpt><trkpt lat="46.26748703665103" lon="13.268672017254572"><ele>343.79999999999995</ele><time>2026-03-28T11:14:25.999Z</time></trkpt><trkpt lat="46.26755074660871" lon="13.268739049271385"><ele>344.6</ele><time>2026-03-28T11:14:26.999Z</time></trkpt><trkpt lat="46.26761386530733" lon="13.26882132690486"><ele>345.4</ele><time>2026-03-28T11:14:27.999Z</time></trkpt><trkpt lat="46.26768403077677" lon="13.268909919053108"><ele>346.20000000000005</ele><time>2026-03-28T11:14:28.999Z</time></trkpt><trkpt lat="46.267759020441055" lon="13.268990188780336"><ele>347.0</ele><time>2026-03-28T11:14:29.999Z</time></trkpt><trkpt lat="46.26784672866998" lon="13.269058088054955"><ele>347.0</ele><time>2026-03-28T11:14:30.999Z</time></trkpt><trkpt lat="46.26794711525736" lon="13.269101288837208"><ele>347.0</ele><time>2026-03-28T11:14:31.999Z</time></trkpt><trkpt lat="46.26801509905862" lon="13.269196482271804"><ele>347.0</ele><time>2026-03-28T11:14:32.999Z</time></trkpt><trkpt lat="46.268088291545766" lon="13.269260079769257"><ele>347.0</ele><time>2026-03-28T11:14:33.999Z</time></trkpt><trkpt lat="46.26818204344349" lon="13.269282398842432"><ele>347.0</ele><time>2026-03-28T11:14:34.999Z</time></trkpt><trkpt lat="46.26827814520646" lon="13.269297056803564"><ele>348.0</ele><time>2026-03-28T11:14:35.999Z</time></trkpt><trkpt lat="46.26837172396744" lon="13.269329581448924"><ele>349.0</ele><time>2026-03-28T11:14:36.999Z</time></trkpt><trkpt lat="46.26846326796778" lon="13.26935546798316"><ele>350.0</ele><time>2026-03-28T11:14:37.999Z</time></trkpt><trkpt lat="46.26856467490701" lon="13.269377078955184"><ele>351.0</ele><time>2026-03-28T11:14:38.999Z</time></trkpt><trkpt lat="46.26862910883992" lon="13.269403917894786"><ele>352.0</ele><time>2026-03-28T11:14:39.999Z</time></trkpt><trkpt lat="46.268701711742416" lon="13.269381442740013"><ele>353.0</ele><time>2026-03-28T11:14:40.999Z</time></trkpt><trkpt lat="46.26877240667533" lon="13.26939904911878"><ele>353.0</ele><time>2026-03-28T11:14:41.999Z</time></trkpt><trkpt lat="46.268845369665584" lon="13.269440673679219"><ele>353.0</ele><time>2026-03-28T11:14:43Z</time></trkpt><trkpt lat="46.268938273117634" lon="13.269553916900106"><ele>353.0</ele><time>2026-03-28T11:14:45Z</time></trkpt><trkpt lat="46.26901964291859" lon="13.269726935112917"><ele>353.0</ele><time>2026-03-28T11:14:47Z</time></trkpt><trkpt lat="46.26908979601546" lon="13.269800197373861"><ele>353.0</ele><time>2026-03-28T11:14:48Z</time></trkpt><trkpt lat="46.26915947368023" lon="13.269866860900999"><ele>356.0</ele><time>2026-03-28T11:14:49Z</time></trkpt><trkpt lat="46.26924308289756" lon="13.269926761995677"><ele>359.0</ele><time>2026-03-28T11:14:50Z</time></trkpt><trkpt lat="46.26931593379492" lon="13.269981958916494"><ele>362.0</ele><time>2026-03-28T11:14:51Z</time></trkpt><trkpt lat="46.2693785929479" lon="13.270024997261476"><ele>365.0</ele><time>2026-03-28T11:14:52Z</time></trkpt><trkpt lat="46.2694598268939" lon="13.270121949033046"><ele>368.0</ele><time>2026-03-28T11:14:54Z</time></trkpt><trkpt lat="46.2695306418192" lon="13.27023062348539"><ele>368.0</ele><time>2026-03-28T11:14:56Z</time></trkpt><trkpt lat="46.26959894515925" lon="13.270310912007421"><ele>368.0</ele><time>2026-03-28T11:14:58Z</time></trkpt><trkpt lat="46.26954244054949" lon="13.27025146497013"><ele>368.0</ele><time>2026-03-28T11:15:41Z</time></trkpt><trkpt lat="46.2694569497352" lon="13.270139250923025"><ele>368.0</ele><time>2026-03-28T11:15:43Z</time></trkpt><trkpt lat="46.269370141285485" lon="13.270047249717695"><ele>368.0</ele><time>2026-03-28T11:15:44Z</time></trkpt><trkpt lat="46.269313255324775" lon="13.269984419661776"><ele>368.0</ele><time>2026-03-28T11:15:45Z</time></trkpt><trkpt lat="46.26924681769212" lon="13.26992875088816"><ele>368.0</ele><time>2026-03-28T11:15:46Z</time></trkpt><trkpt lat="46.26917874048345" lon="13.269881438247"><ele>368.0</ele><time>2026-03-28T11:15:47Z</time></trkpt><trkpt lat="46.26910453973153" lon="13.269828229538788"><ele>368.0</ele><time>2026-03-28T11:15:48Z</time></trkpt><trkpt lat="46.2690340609662" lon="13.26976171236089"><ele>368.0</ele><time>2026-03-28T11:15:49Z</time></trkpt><trkpt lat="46.26897634067358" lon="13.269683736621793"><ele>368.0</ele><time>2026-03-28T11:15:50Z</time></trkpt><trkpt lat="46.26892825870833" lon="13.269599391159643"><ele>365.5</ele><time>2026-03-28T11:15:51Z</time></trkpt><trkpt lat="46.26888026596896" lon="13.269523467899841"><ele>363.0</ele><time>2026-03-28T11:15:52Z</time></trkpt><trkpt lat="46.26882967749973" lon="13.26946696819137"><ele>360.5</ele><time>2026-03-28T11:15:53Z</time></trkpt><trkpt lat="46.26871047914218" lon="13.269417862600191"><ele>358.0</ele><time>2026-03-28T11:15:55Z</time></trkpt><trkpt lat="46.268623853752906" lon="13.26941078824441"><ele>355.5</ele><time>2026-03-28T11:15:56Z</time></trkpt><trkpt lat="46.2685393307079" lon="13.269390630170308"><ele>353.0</ele><time>2026-03-28T11:15:57Z</time></trkpt><trkpt lat="46.26844606869512" lon="13.269369258950098"><ele>353.0</ele><time>2026-03-28T11:15:58Z</time></trkpt><trkpt lat="46.268350664385665" lon="13.269360648695727"><ele>353.0</ele><time>2026-03-28T11:15:59Z</time></trkpt><trkpt lat="46.26825613980524" lon="13.26931358227769"><ele>353.0</ele><time>2026-03-28T11:16:00Z</time></trkpt><trkpt lat="46.268159140433895" lon="13.269277469220665"><ele>353.0</ele><time>2026-03-28T11:16:01Z</time></trkpt><trkpt lat="46.26805371953831" lon="13.269249679923346"><ele>353.0</ele><time>2026-03-28T11:16:02Z</time></trkpt><trkpt lat="46.26797456750752" lon="13.269201139873292"><ele>352.4</ele><time>2026-03-28T11:16:03Z</time></trkpt><trkpt lat="46.267899393767365" lon="13.269146896316743"><ele>351.79999999999995</ele><time>2026-03-28T11:16:04Z</time></trkpt><trkpt lat="46.26781824564398" lon="13.269070942104673"><ele>351.2</ele><time>2026-03-28T11:16:05Z</time></trkpt><trkpt lat="46.26774158275167" lon="13.268975752804478"><ele>350.6</ele><time>2026-03-28T11:16:06Z</time></trkpt><trkpt lat="46.267661667066434" lon="13.26888318442493"><ele>350.0</ele><time>2026-03-28T11:16:07Z</time></trkpt><trkpt lat="46.26757641562471" lon="13.268792076285454"><ele>350.0</ele><time>2026-03-28T11:16:08Z</time></trkpt><trkpt lat="46.26750032401049" lon="13.268705877230431"><ele>350.0</ele><time>2026-03-28T11:16:09Z</time></trkpt><trkpt lat="46.267429586361594" lon="13.26862460476992"><ele>350.0</ele><time>2026-03-28T11:16:10Z</time></trkpt><trkpt lat="46.267348271485325" lon="13.268573454458162"><ele>350.0</ele><time>2026-03-28T11:16:11Z</time></trkpt><trkpt lat="46.267248104573994" lon="13.26852372782922"><ele>350.0</ele><time>2026-03-28T11:16:12Z</time></trkpt><trkpt lat="46.267151174721974" lon="13.268484368669819"><ele>348.8</ele><time>2026-03-28T11:16:13Z</time></trkpt><trkpt lat="46.26706433988391" lon="13.268439579834574"><ele>347.6</ele><time>2026-03-28T11:16:14Z</time></trkpt><trkpt lat="46.26698217409282" lon="13.268374813998372"><ele>346.4</ele><time>2026-03-28T11:16:15Z</time></trkpt><trkpt lat="46.26691967857159" lon="13.268294252913595"><ele>345.2</ele><time>2026-03-28T11:16:16Z</time></trkpt><trkpt lat="46.26687186803822" lon="13.268193087832806"><ele>344.0</ele><time>2026-03-28T11:16:17Z</time></trkpt><trkpt lat="46.26680304298306" lon="13.268076024968698"><ele>344.0</ele><time>2026-03-28T11:16:18Z</time></trkpt><trkpt lat="46.26674222545519" lon="13.267953570563748"><ele>344.0</ele><time>2026-03-28T11:16:19Z</time></trkpt><trkpt lat="46.266680700834705" lon="13.267819193057862"><ele>344.0</ele><time>2026-03-28T11:16:20Z</time></trkpt><trkpt lat="46.2666281344582" lon="13.267685127823565"><ele>344.0</ele><time>2026-03-28T11:16:21Z</time></trkpt><trkpt lat="46.26657824726306" lon="13.267557824170648"><ele>344.0</ele><time>2026-03-28T11:16:22Z</time></trkpt><trkpt lat="46.266531302291696" lon="13.267448964277175"><ele>344.0</ele><time>2026-03-28T11:16:23Z</time></trkpt><trkpt lat="46.26650412443365" lon="13.26736466137792"><ele>344.0</ele><time>2026-03-28T11:16:24Z</time></trkpt><trkpt lat="46.26644965284415" lon="13.267274372127497"><ele>344.0</ele><time>2026-03-28T11:16:26Z</time></trkpt><trkpt lat="46.26642333392729" lon="13.267083833752851"><ele>344.0</ele><time>2026-03-28T11:16:28Z</time></trkpt><trkpt lat="46.26640519004418" lon="13.266985272261982"><ele>344.0</ele><time>2026-03-28T11:16:28.999Z</time></trkpt><trkpt lat="46.26637582293102" lon="13.2668811005976"><ele>344.0</ele><time>2026-03-28T11:16:29.999Z</time></trkpt><trkpt lat="46.26634337731331" lon="13.26676147675729"><ele>343.0</ele><time>2026-03-28T11:16:30.999Z</time></trkpt><trkpt lat="46.26630403843535" lon="13.266641215723125"><ele>342.0</ele><time>2026-03-28T11:16:31.999Z</time></trkpt><trkpt lat="46.26626573744989" lon="13.266523313251001"><ele>341.0</ele><time>2026-03-28T11:16:32.999Z</time></trkpt><trkpt lat="46.26622557658545" lon="13.266408308145762"><ele>340.0</ele><time>2026-03-28T11:16:33.999Z</time></trkpt><trkpt lat="46.266185647853796" lon="13.266293299115015"><ele>339.0</ele><time>2026-03-28T11:16:34.999Z</time></trkpt><trkpt lat="46.266148713177905" lon="13.266173193910276"><ele>339.0</ele><time>2026-03-28T11:16:35.999Z</time></trkpt><trkpt lat="46.266104587534585" lon="13.266061005250698"><ele>339.0</ele><time>2026-03-28T11:16:36.999Z</time></trkpt><trkpt lat="46.26606162679834" lon="13.265947605879687"><ele>339.0</ele><time>2026-03-28T11:16:37.999Z</time></trkpt><trkpt lat="46.2660219064647" lon="13.265832258368386"><ele>339.0</ele><time>2026-03-28T11:16:38.999Z</time></trkpt><trkpt lat="46.26598896308754" lon="13.265716502649076"><ele>339.0</ele><time>2026-03-28T11:16:39.999Z</time></trkpt><trkpt lat="46.265949922185335" lon="13.265603832470049"><ele>339.0</ele><time>2026-03-28T11:16:40.999Z</time></trkpt><trkpt lat="46.265907965634796" lon="13.265490658253603"><ele>339.1666666666667</ele><time>2026-03-28T11:16:41.999Z</time></trkpt><trkpt lat="46.265871600620045" lon="13.265375796266662"><ele>339.3333333333333</ele><time>2026-03-28T11:16:42.999Z</time></trkpt><trkpt lat="46.265835063806506" lon="13.265255285023828"><ele>339.5</ele><time>2026-03-28T11:16:43.999Z</time></trkpt><trkpt lat="46.26579672414456" lon="13.265140733806769"><ele>339.66666666666663</ele><time>2026-03-28T11:16:44.999Z</time></trkpt><trkpt lat="46.26576126329709" lon="13.265026687106793"><ele>339.8333333333333</ele><time>2026-03-28T11:16:45.999Z</time></trkpt><trkpt lat="46.265724765315106" lon="13.264915281588939"><ele>340.0</ele><time>2026-03-28T11:16:46.999Z</time></trkpt><trkpt lat="46.26568937189261" lon="13.264805647097718"><ele>339.5</ele><time>2026-03-28T11:16:47.999Z</time></trkpt><trkpt lat="46.26565491570714" lon="13.264700706631455"><ele>339.0</ele><time>2026-03-28T11:16:49Z</time></trkpt><trkpt lat="46.26563106602129" lon="13.2645973069524"><ele>338.5</ele><time>2026-03-28T11:16:50Z</time></trkpt><trkpt lat="46.265614827902844" lon="13.264496617692364"><ele>338.0</ele><time>2026-03-28T11:16:51Z</time></trkpt><trkpt lat="46.265607726383166" lon="13.264394289553282"><ele>337.5</ele><time>2026-03-28T11:16:52Z</time></trkpt><trkpt lat="46.26561796630523" lon="13.264279935311723"><ele>337.0</ele><time>2026-03-28T11:16:53Z</time></trkpt><trkpt lat="46.26563721429991" lon="13.264166866463766"><ele>337.0</ele><time>2026-03-28T11:16:54Z</time></trkpt><trkpt lat="46.265652297692476" lon="13.264046126489243"><ele>337.0</ele><time>2026-03-28T11:16:55Z</time></trkpt><trkpt lat="46.265667862788405" lon="13.263906987407323"><ele>337.0</ele><time>2026-03-28T11:16:56Z</time></trkpt><trkpt lat="46.265681247555285" lon="13.263763927034615"><ele>337.0</ele><time>2026-03-28T11:16:57Z</time></trkpt><trkpt lat="46.26568931431182" lon="13.263615786386698"><ele>337.0</ele><time>2026-03-28T11:16:58Z</time></trkpt><trkpt lat="46.26570996228657" lon="13.263484654639715"><ele>336.0</ele><time>2026-03-28T11:16:59Z</time></trkpt><trkpt lat="46.26573948896407" lon="13.263332060957016"><ele>335.0</ele><time>2026-03-28T11:17:00Z</time></trkpt><trkpt lat="46.26576745658625" lon="13.263178050737636"><ele>334.0</ele><time>2026-03-28T11:17:01Z</time></trkpt><trkpt lat="46.26578545148369" lon="13.263022011726045"><ele>333.0</ele><time>2026-03-28T11:17:02Z</time></trkpt><trkpt lat="46.2658166808275" lon="13.262860981382593"><ele>332.0</ele><time>2026-03-28T11:17:03Z</time></trkpt><trkpt lat="46.26583258086991" lon="13.262698962914346"><ele>332.0</ele><time>2026-03-28T11:17:04Z</time></trkpt><trkpt lat="46.26583853379144" lon="13.262537742021179"><ele>332.0</ele><time>2026-03-28T11:17:05Z</time></trkpt><trkpt lat="46.2658320730297" lon="13.262374534917202"><ele>332.0</ele><time>2026-03-28T11:17:06Z</time></trkpt><trkpt lat="46.26582470736913" lon="13.26221291772272"><ele>332.0</ele><time>2026-03-28T11:17:07Z</time></trkpt><trkpt lat="46.265819438612425" lon="13.2620400019316"><ele>332.0</ele><time>2026-03-28T11:17:08Z</time></trkpt><trkpt lat="46.265802476427815" lon="13.26187201499621"><ele>332.0</ele><time>2026-03-28T11:17:09Z</time></trkpt><trkpt lat="46.26578167910674" lon="13.26171388660156"><ele>332.0</ele><time>2026-03-28T11:17:10Z</time></trkpt><trkpt lat="46.265739077767314" lon="13.261581911499347"><ele>332.0</ele><time>2026-03-28T11:17:11Z</time></trkpt><trkpt lat="46.26569029969815" lon="13.261452842612726"><ele>332.0</ele><time>2026-03-28T11:17:12Z</time></trkpt><trkpt lat="46.265644413764306" lon="13.261323459149876"><ele>331.33333333333337</ele><time>2026-03-28T11:17:13Z</time></trkpt><trkpt lat="46.265602002336735" lon="13.261205424334916"><ele>330.6666666666667</ele><time>2026-03-28T11:17:14Z</time></trkpt><trkpt lat="46.26556652248805" lon="13.261093680293538"><ele>330.0</ele><time>2026-03-28T11:17:15Z</time></trkpt><trkpt lat="46.265537348246795" lon="13.260978372316655"><ele>329.3333333333333</ele><time>2026-03-28T11:17:16Z</time></trkpt><trkpt lat="46.265518985040856" lon="13.260874605066617"><ele>328.66666666666663</ele><time>2026-03-28T11:17:17Z</time></trkpt><trkpt lat="46.265514874460585" lon="13.260768599411588"><ele>328.0</ele><time>2026-03-28T11:17:18Z</time></trkpt><trkpt lat="46.26551976049961" lon="13.260667174777426"><ele>328.16666666666663</ele><time>2026-03-28T11:17:19Z</time></trkpt><trkpt lat="46.265540896904945" lon="13.260578497479152"><ele>328.3333333333333</ele><time>2026-03-28T11:17:20Z</time></trkpt><trkpt lat="46.265580876494944" lon="13.260480275796816"><ele>328.5</ele><time>2026-03-28T11:17:22Z</time></trkpt><trkpt lat="46.26561375841672" lon="13.260401985949153"><ele>328.6666666666667</ele><time>2026-03-28T11:17:43Z</time></trkpt><trkpt lat="46.265668941057235" lon="13.260467283797697"><ele>328.83333333333337</ele><time>2026-03-28T11:17:45Z</time></trkpt><trkpt lat="46.265673321123046" lon="13.26062914301944"><ele>329.0</ele><time>2026-03-28T11:17:46Z</time></trkpt><trkpt lat="46.265714089989295" lon="13.260819972565578"><ele>329.2</ele><time>2026-03-28T11:17:48Z</time></trkpt><trkpt lat="46.265740408347945" lon="13.260935523020077"><ele>329.4</ele><time>2026-03-28T11:17:49Z</time></trkpt><trkpt lat="46.26576844201846" lon="13.261056244059278"><ele>329.6</ele><time>2026-03-28T11:17:50Z</time></trkpt><trkpt lat="46.265806567164034" lon="13.261178705560036"><ele>329.8</ele><time>2026-03-28T11:17:51Z</time></trkpt><trkpt lat="46.265855896179296" lon="13.26130030856604"><ele>330.0</ele><time>2026-03-28T11:17:52Z</time></trkpt><trkpt lat="46.26590392996528" lon="13.261418765253811"><ele>330.0</ele><time>2026-03-28T11:17:53Z</time></trkpt><trkpt lat="46.26595610561152" lon="13.261508473553164"><ele>330.0</ele><time>2026-03-28T11:17:54Z</time></trkpt><trkpt lat="46.2660158200021" lon="13.261539873986983"><ele>330.0</ele><time>2026-03-28T11:17:55Z</time></trkpt><trkpt lat="46.26609131505131" lon="13.26151586572323"><ele>330.0</ele><time>2026-03-28T11:17:56Z</time></trkpt><trkpt lat="46.26616940183797" lon="13.26143736097749"><ele>330.0</ele><time>2026-03-28T11:17:57Z</time></trkpt><trkpt lat="46.26621672754459" lon="13.261320142572137"><ele>330.0</ele><time>2026-03-28T11:17:58Z</time></trkpt><trkpt lat="46.2662736475471" lon="13.261226105545957"><ele>330.0</ele><time>2026-03-28T11:17:59Z</time></trkpt><trkpt lat="46.26635223104584" lon="13.261185143495736"><ele>330.0</ele><time>2026-03-28T11:18:00Z</time></trkpt><trkpt lat="46.26646003744623" lon="13.261191937701426"><ele>330.0</ele><time>2026-03-28T11:18:01Z</time></trkpt><trkpt lat="46.26657702793097" lon="13.26124942654345"><ele>330.0</ele><time>2026-03-28T11:18:02Z</time></trkpt><trkpt lat="46.26669030580988" lon="13.261322427085195"><ele>330.0</ele><time>2026-03-28T11:18:03Z</time></trkpt><trkpt lat="46.266814171483006" lon="13.261380964238674"><ele>330.75</ele><time>2026-03-28T11:18:04Z</time></trkpt><trkpt lat="46.26694331518406" lon="13.261442268676884"><ele>331.5</ele><time>2026-03-28T11:18:05Z</time></trkpt><trkpt lat="46.267064802847244" lon="13.261515900474896"><ele>332.25</ele><time>2026-03-28T11:18:06Z</time></trkpt><trkpt lat="46.26718594947171" lon="13.261563376165459"><ele>333.0</ele><time>2026-03-28T11:18:07Z</time></trkpt><trkpt lat="46.26730511297845" lon="13.261585470060435"><ele>335.2</ele><time>2026-03-28T11:18:08Z</time></trkpt><trkpt lat="46.26740829040106" lon="13.261571916744472"><ele>337.4</ele><time>2026-03-28T11:18:09Z</time></trkpt><trkpt lat="46.26751306798093" lon="13.26161612156337"><ele>339.59999999999997</ele><time>2026-03-28T11:18:10Z</time></trkpt><trkpt lat="46.26759628383582" lon="13.261489227227301"><ele>341.79999999999995</ele><time>2026-03-28T11:18:11Z</time></trkpt><trkpt lat="46.26766783824544" lon="13.261412763829698"><ele>344.0</ele><time>2026-03-28T11:18:12Z</time></trkpt><trkpt lat="46.26773206383238" lon="13.261493622869851"><ele>345.5</ele><time>2026-03-28T11:18:14Z</time></trkpt><trkpt lat="46.26762240930009" lon="13.26161807674137"><ele>347.0</ele><time>2026-03-28T11:18:16Z</time></trkpt><trkpt lat="46.26751067368113" lon="13.261635646385916"><ele>348.5</ele><time>2026-03-28T11:18:17Z</time></trkpt><trkpt lat="46.267388103377705" lon="13.261641429115924"><ele>350.0</ele><time>2026-03-28T11:18:18Z</time></trkpt><trkpt lat="46.26726449016376" lon="13.26166907278971"><ele>350.0</ele><time>2026-03-28T11:18:19Z</time></trkpt><trkpt lat="46.26719211972175" lon="13.261731711777088"><ele>350.0</ele><time>2026-03-28T11:18:20Z</time></trkpt><trkpt lat="46.26705778282895" lon="13.26176228962696"><ele>350.0</ele><time>2026-03-28T11:18:21Z</time></trkpt><trkpt lat="46.266926443986684" lon="13.261755777713597"><ele>350.0</ele><time>2026-03-28T11:18:22Z</time></trkpt><trkpt lat="46.26682010290454" lon="13.261742013738148"><ele>350.0</ele><time>2026-03-28T11:18:23Z</time></trkpt><trkpt lat="46.2667393067691" lon="13.261739979955975"><ele>350.0</ele><time>2026-03-28T11:18:24Z</time></trkpt><trkpt lat="46.26666579408864" lon="13.261866455778446"><ele>350.0</ele><time>2026-03-28T11:18:26Z</time></trkpt><trkpt lat="46.26670289186537" lon="13.261975123095663"><ele>350.0</ele><time>2026-03-28T11:18:27Z</time></trkpt><trkpt lat="46.266775105183584" lon="13.262006605127599"><ele>350.0</ele><time>2026-03-28T11:18:28Z</time></trkpt><trkpt lat="46.26694312341761" lon="13.261989223712192"><ele>350.0</ele><time>2026-03-28T11:18:30Z</time></trkpt><trkpt lat="46.26705050188008" lon="13.262005464842705"><ele>350.0</ele><time>2026-03-28T11:18:31Z</time></trkpt><trkpt lat="46.26716595835855" lon="13.262030693516602"><ele>350.0</ele><time>2026-03-28T11:18:32Z</time></trkpt><trkpt lat="46.26728647657966" lon="13.262057668367376"><ele>350.0</ele><time>2026-03-28T11:18:33Z</time></trkpt><trkpt lat="46.26740609693706" lon="13.26209239318908"><ele>351.1666666666667</ele><time>2026-03-28T11:18:34Z</time></trkpt><trkpt lat="46.26752508361655" lon="13.262108991895108"><ele>352.33333333333337</ele><time>2026-03-28T11:18:35Z</time></trkpt><trkpt lat="46.26762621594098" lon="13.262119171387255"><ele>353.5</ele><time>2026-03-28T11:18:36Z</time></trkpt><trkpt lat="46.26770115548943" lon="13.262148630903502"><ele>354.6666666666667</ele><time>2026-03-28T11:18:37Z</time></trkpt><trkpt lat="46.267752057934075" lon="13.262226931464797"><ele>355.8333333333333</ele><time>2026-03-28T11:18:38Z</time></trkpt><trkpt lat="46.26776333948293" lon="13.26232360461096"><ele>357.0</ele><time>2026-03-28T11:18:39Z</time></trkpt><trkpt lat="46.26768457670668" lon="13.262382208957478"><ele>358.0</ele><time>2026-03-28T11:18:41Z</time></trkpt><trkpt lat="46.26759201819064" lon="13.262378498496616"><ele>359.0</ele><time>2026-03-28T11:18:41.999Z</time></trkpt><trkpt lat="46.267472541210665" lon="13.26233940459831"><ele>360.0</ele><time>2026-03-28T11:18:42.999Z</time></trkpt><trkpt lat="46.26735761689405" lon="13.262307471943053"><ele>361.0</ele><time>2026-03-28T11:18:43.999Z</time></trkpt><trkpt lat="46.26723104101177" lon="13.262291961531881"><ele>361.0</ele><time>2026-03-28T11:18:44.999Z</time></trkpt><trkpt lat="46.267103315172506" lon="13.262287613674031"><ele>361.0</ele><time>2026-03-28T11:18:45.999Z</time></trkpt><trkpt lat="46.26700427929587" lon="13.26232825734849"><ele>361.0</ele><time>2026-03-28T11:18:46.999Z</time></trkpt><trkpt lat="46.26695123501784" lon="13.262417776034582"><ele>361.0</ele><time>2026-03-28T11:18:47.999Z</time></trkpt><trkpt lat="46.26695312009315" lon="13.262547039027144"><ele>361.0</ele><time>2026-03-28T11:18:48.999Z</time></trkpt><trkpt lat="46.267012725778734" lon="13.262654045571129"><ele>361.0</ele><time>2026-03-28T11:18:49.999Z</time></trkpt><trkpt lat="46.26710751576767" lon="13.262715524882411"><ele>361.0</ele><time>2026-03-28T11:18:50.999Z</time></trkpt><trkpt lat="46.267230476973474" lon="13.262772628043091"><ele>361.0</ele><time>2026-03-28T11:18:51.999Z</time></trkpt><trkpt lat="46.26736901048995" lon="13.262802089316724"><ele>361.0</ele><time>2026-03-28T11:18:52.999Z</time></trkpt><trkpt lat="46.26752904807385" lon="13.262803957889469"><ele>365.66666666666663</ele><time>2026-03-28T11:18:53.999Z</time></trkpt><trkpt lat="46.26769010724544" lon="13.262816736249084"><ele>370.3333333333333</ele><time>2026-03-28T11:18:55Z</time></trkpt><trkpt lat="46.26784013707711" lon="13.262829086567018"><ele>375.0</ele><time>2026-03-28T11:18:56Z</time></trkpt><trkpt lat="46.26797797450929" lon="13.262839025955678"><ele>375.0</ele><time>2026-03-28T11:18:57Z</time></trkpt><trkpt lat="46.268104036750046" lon="13.262845771447612"><ele>375.0</ele><time>2026-03-28T11:18:58Z</time></trkpt><trkpt lat="46.268221509048246" lon="13.262854817460191"><ele>375.0</ele><time>2026-03-28T11:18:59Z</time></trkpt><trkpt lat="46.26833830450833" lon="13.262871421248668"><ele>375.0</ele><time>2026-03-28T11:19:00Z</time></trkpt><trkpt lat="46.26843774322152" lon="13.262882376137137"><ele>376.1666666666667</ele><time>2026-03-28T11:19:01Z</time></trkpt><trkpt lat="46.268517827505605" lon="13.26290240095972"><ele>377.3333333333333</ele><time>2026-03-28T11:19:02Z</time></trkpt><trkpt lat="46.26856337290078" lon="13.263014384028462"><ele>378.5</ele><time>2026-03-28T11:19:03Z</time></trkpt><trkpt lat="46.26856960920658" lon="13.263122729130036"><ele>379.66666666666663</ele><time>2026-03-28T11:19:04Z</time></trkpt><trkpt lat="46.268512446584474" lon="13.263193220615896"><ele>380.8333333333333</ele><time>2026-03-28T11:19:05Z</time></trkpt><trkpt lat="46.26843073063108" lon="13.263213031160385"><ele>382.0</ele><time>2026-03-28T11:19:06Z</time></trkpt><trkpt lat="46.26833326917217" lon="13.26317880163716"><ele>384.25</ele><time>2026-03-28T11:19:07Z</time></trkpt><trkpt lat="46.268232684765266" lon="13.263150770922126"><ele>386.5</ele><time>2026-03-28T11:19:08Z</time></trkpt><trkpt lat="46.26811032865255" lon="13.26320613936477"><ele>388.75</ele><time>2026-03-28T11:19:09Z</time></trkpt><trkpt lat="46.26799853112265" lon="13.26330736925836"><ele>391.0</ele><time>2026-03-28T11:19:10Z</time></trkpt><trkpt lat="46.267890971459224" lon="13.263443550639629"><ele>391.0</ele><time>2026-03-28T11:19:11Z</time></trkpt><trkpt lat="46.26778531808413" lon="13.263569036614227"><ele>391.0</ele><time>2026-03-28T11:19:12Z</time></trkpt><trkpt lat="46.2676795108386" lon="13.263688096581653"><ele>391.0</ele><time>2026-03-28T11:19:13Z</time></trkpt><trkpt lat="46.267580552544686" lon="13.263763324440287"><ele>391.0</ele><time>2026-03-28T11:19:14Z</time></trkpt><trkpt lat="46.26749430270803" lon="13.263811049032668"><ele>391.0</ele><time>2026-03-28T11:19:15Z</time></trkpt><trkpt lat="46.26743661221413" lon="13.263868556626598"><ele>391.0</ele><time>2026-03-28T11:19:16Z</time></trkpt><trkpt lat="46.26747985934503" lon="13.264021077201523"><ele>391.0</ele><time>2026-03-28T11:19:18Z</time></trkpt><trkpt lat="46.26755750001537" lon="13.264035805822925"><ele>391.0</ele><time>2026-03-28T11:19:19Z</time></trkpt><trkpt lat="46.267638931464816" lon="13.263962389619332"><ele>391.0</ele><time>2026-03-28T11:19:20Z</time></trkpt><trkpt lat="46.26773137343399" lon="13.26386474177011"><ele>391.0</ele><time>2026-03-28T11:19:21Z</time></trkpt><trkpt lat="46.26782595502779" lon="13.263782000235693"><ele>391.0</ele><time>2026-03-28T11:19:22Z</time></trkpt><trkpt lat="46.26792936846746" lon="13.263708286278455"><ele>391.0</ele><time>2026-03-28T11:19:23Z</time></trkpt><trkpt lat="46.26802357823124" lon="13.263643007426225"><ele>391.0</ele><time>2026-03-28T11:19:24Z</time></trkpt><trkpt lat="46.2681009019233" lon="13.263633375856687"><ele>391.0</ele><time>2026-03-28T11:19:25Z</time></trkpt><trkpt lat="46.26815020469079" lon="13.263703130126768"><ele>392.6</ele><time>2026-03-28T11:19:26Z</time></trkpt><trkpt lat="46.268155720002305" lon="13.263829317243886"><ele>394.20000000000005</ele><time>2026-03-28T11:19:27Z</time></trkpt><trkpt lat="46.2681280002414" lon="13.263984905586996"><ele>395.79999999999995</ele><time>2026-03-28T11:19:28Z</time></trkpt><trkpt lat="46.26808491181615" lon="13.264146678456893"><ele>397.4</ele><time>2026-03-28T11:19:29Z</time></trkpt><trkpt lat="46.268046949033106" lon="13.264322298082268"><ele>399.0</ele><time>2026-03-28T11:19:30Z</time></trkpt><trkpt lat="46.26801205380742" lon="13.264514248924453"><ele>399.0</ele><time>2026-03-28T11:19:31Z</time></trkpt><trkpt lat="46.26798155581531" lon="13.264707135446749"><ele>399.0</ele><time>2026-03-28T11:19:32Z</time></trkpt><trkpt lat="46.267960011623785" lon="13.264899992700311"><ele>399.0</ele><time>2026-03-28T11:19:33Z</time></trkpt><trkpt lat="46.26797192010062" lon="13.265074039572468"><ele>399.0</ele><time>2026-03-28T11:19:34Z</time></trkpt><trkpt lat="46.268028335933266" lon="13.265202991181871"><ele>403.75</ele><time>2026-03-28T11:19:35Z</time></trkpt><trkpt lat="46.26812500281104" lon="13.265340759800875"><ele>408.5</ele><time>2026-03-28T11:19:36Z</time></trkpt><trkpt lat="46.268244176161616" lon="13.26546473369311"><ele>413.25</ele><time>2026-03-28T11:19:37Z</time></trkpt><trkpt lat="46.26836258637217" lon="13.265590152205904"><ele>418.0</ele><time>2026-03-28T11:19:38Z</time></trkpt><trkpt lat="46.26848472847404" lon="13.26573068670911"><ele>420.0</ele><time>2026-03-28T11:19:39Z</time></trkpt><trkpt lat="46.26860732232048" lon="13.265877344254946"><ele>422.0</ele><time>2026-03-28T11:19:40Z</time></trkpt><trkpt lat="46.26872967714692" lon="13.266027459919435"><ele>424.0</ele><time>2026-03-28T11:19:41Z</time></trkpt><trkpt lat="46.26885613414802" lon="13.266173596801144"><ele>425.0</ele><time>2026-03-28T11:19:42Z</time></trkpt><trkpt lat="46.26899356027354" lon="13.266291142709054"><ele>426.0</ele><time>2026-03-28T11:19:43Z</time></trkpt><trkpt lat="46.26914945593707" lon="13.266360080906948"><ele>427.0</ele><time>2026-03-28T11:19:44Z</time></trkpt><trkpt lat="46.26933559190474" lon="13.2663744276467"><ele>427.0</ele><time>2026-03-28T11:19:45Z</time></trkpt><trkpt lat="46.26952298409973" lon="13.266389617150683"><ele>427.0</ele><time>2026-03-28T11:19:46Z</time></trkpt><trkpt lat="46.26972189002984" lon="13.26644561811095"><ele>427.0</ele><time>2026-03-28T11:19:47Z</time></trkpt><trkpt lat="46.26992491152424" lon="13.266542074276352"><ele>431.0</ele><time>2026-03-28T11:19:48Z</time></trkpt><trkpt lat="46.270133849047475" lon="13.266654152703554"><ele>435.0</ele><time>2026-03-28T11:19:49Z</time></trkpt><trkpt lat="46.27033889257459" lon="13.266752553676197"><ele>439.0</ele><time>2026-03-28T11:19:50Z</time></trkpt><trkpt lat="46.270556968193986" lon="13.266841670710242"><ele>439.0</ele><time>2026-03-28T11:19:51Z</time></trkpt><trkpt lat="46.27077395223694" lon="13.266910672545425"><ele>439.0</ele><time>2026-03-28T11:19:52Z</time></trkpt><trkpt lat="46.270988050134896" lon="13.266960106594189"><ele>439.0</ele><time>2026-03-28T11:19:53Z</time></trkpt><trkpt lat="46.27119535440329" lon="13.26698990516557"><ele>439.0</ele><time>2026-03-28T11:19:54Z</time></trkpt><trkpt lat="46.27139596970372" lon="13.267014814359515"><ele>439.0</ele><time>2026-03-28T11:19:55Z</time></trkpt><trkpt lat="46.27159042925955" lon="13.267042627993483"><ele>439.0</ele><time>2026-03-28T11:19:56Z</time></trkpt><trkpt lat="46.271788631719" lon="13.267074659938974"><ele>438.33333333333337</ele><time>2026-03-28T11:19:57Z</time></trkpt><trkpt lat="46.271977647456936" lon="13.267137441166408"><ele>437.66666666666663</ele><time>2026-03-28T11:19:58Z</time></trkpt><trkpt lat="46.272178706212316" lon="13.267209922943573"><ele>437.0</ele><time>2026-03-28T11:19:59Z</time></trkpt><trkpt lat="46.27236712561803" lon="13.267288274963441"><ele>441.0</ele><time>2026-03-28T11:20:00Z</time></trkpt><trkpt lat="46.27257295478485" lon="13.267359419553689"><ele>445.0</ele><time>2026-03-28T11:20:01Z</time></trkpt><trkpt lat="46.27277879028365" lon="13.267425981831499"><ele>449.0</ele><time>2026-03-28T11:20:02Z</time></trkpt><trkpt lat="46.272972503086855" lon="13.267488145785112"><ele>451.5</ele><time>2026-03-28T11:20:03Z</time></trkpt><trkpt lat="46.273143890144716" lon="13.267544982343852"><ele>454.0</ele><time>2026-03-28T11:20:04Z</time></trkpt><trkpt lat="46.27328616275501" lon="13.267594097285437"><ele>456.5</ele><time>2026-03-28T11:20:05Z</time></trkpt><trkpt lat="46.27340018144076" lon="13.26766015884618"><ele>459.0</ele><time>2026-03-28T11:20:06Z</time></trkpt><trkpt lat="46.273493681120044" lon="13.267771977612933"><ele>459.0</ele><time>2026-03-28T11:20:07Z</time></trkpt><trkpt lat="46.273582950703606" lon="13.267916597376246"><ele>459.0</ele><time>2026-03-28T11:20:08Z</time></trkpt><trkpt lat="46.27367059554123" lon="13.268048805572844"><ele>459.0</ele><time>2026-03-28T11:20:09Z</time></trkpt><trkpt lat="46.27376040298361" lon="13.268171538196325"><ele>459.0</ele><time>2026-03-28T11:20:10Z</time></trkpt><trkpt lat="46.27385618134575" lon="13.268296832189822"><ele>462.25</ele><time>2026-03-28T11:20:10.999Z</time></trkpt><trkpt lat="46.27395095530876" lon="13.268412833017235"><ele>465.5</ele><time>2026-03-28T11:20:11.999Z</time></trkpt><trkpt lat="46.274036788789324" lon="13.268520526879225"><ele>468.75</ele><time>2026-03-28T11:20:12.999Z</time></trkpt><trkpt lat="46.27411204202884" lon="13.268642263714485"><ele>472.0</ele><time>2026-03-28T11:20:13.999Z</time></trkpt><trkpt lat="46.274181737536686" lon="13.268775735932417"><ele>472.0</ele><time>2026-03-28T11:20:14.999Z</time></trkpt><trkpt lat="46.27424615935339" lon="13.268927406085384"><ele>472.0</ele><time>2026-03-28T11:20:15.999Z</time></trkpt><trkpt lat="46.274299331140284" lon="13.26908986756594"><ele>472.0</ele><time>2026-03-28T11:20:16.999Z</time></trkpt><trkpt lat="46.274375002703685" lon="13.269228623727214"><ele>472.0</ele><time>2026-03-28T11:20:17.999Z</time></trkpt><trkpt lat="46.2744260250367" lon="13.269354805732995"><ele>473.6</ele><time>2026-03-28T11:20:18.999Z</time></trkpt><trkpt lat="46.27447910693376" lon="13.269468134151142"><ele>475.20000000000005</ele><time>2026-03-28T11:20:19.999Z</time></trkpt><trkpt lat="46.27452789887241" lon="13.26959270626603"><ele>476.8</ele><time>2026-03-28T11:20:20.999Z</time></trkpt><trkpt lat="46.274575286118825" lon="13.269708056363298"><ele>478.4</ele><time>2026-03-28T11:20:21.999Z</time></trkpt><trkpt lat="46.27462671546113" lon="13.26983367268787"><ele>480.0</ele><time>2026-03-28T11:20:22.999Z</time></trkpt><trkpt lat="46.27469406109125" lon="13.269958442232648"><ele>480.5</ele><time>2026-03-28T11:20:23.999Z</time></trkpt><trkpt lat="46.27477154373345" lon="13.270065389654173"><ele>481.0</ele><time>2026-03-28T11:20:24.999Z</time></trkpt><trkpt lat="46.27486499945182" lon="13.270172018541"><ele>481.5</ele><time>2026-03-28T11:20:25.999Z</time></trkpt><trkpt lat="46.27496840378807" lon="13.270271895322349"><ele>482.0</ele><time>2026-03-28T11:20:26.999Z</time></trkpt><trkpt lat="46.2750885280351" lon="13.270384167964707"><ele>482.0</ele><time>2026-03-28T11:20:27.999Z</time></trkpt><trkpt lat="46.27519119110481" lon="13.27048612382187"><ele>482.0</ele><time>2026-03-28T11:20:28.999Z</time></trkpt><trkpt lat="46.27531435917492" lon="13.270602631480763"><ele>482.0</ele><time>2026-03-28T11:20:29.999Z</time></trkpt><trkpt lat="46.27544316720392" lon="13.27073389383557"><ele>482.0</ele><time>2026-03-28T11:20:30.999Z</time></trkpt><trkpt lat="46.27557475149322" lon="13.270871988556593"><ele>482.66666666666663</ele><time>2026-03-28T11:20:31.999Z</time></trkpt><trkpt lat="46.27570861789416" lon="13.271005169775318"><ele>483.33333333333337</ele><time>2026-03-28T11:20:32.999Z</time></trkpt><trkpt lat="46.275836217696344" lon="13.27113436230307"><ele>484.0</ele><time>2026-03-28T11:20:33.999Z</time></trkpt><trkpt lat="46.27596025790647" lon="13.271260600539714"><ele>484.0</ele><time>2026-03-28T11:20:34.999Z</time></trkpt><trkpt lat="46.276082325529934" lon="13.271364579239336"><ele>484.0</ele><time>2026-03-28T11:20:35.999Z</time></trkpt><trkpt lat="46.27620781352516" lon="13.271447399543518"><ele>484.0</ele><time>2026-03-28T11:20:36.999Z</time></trkpt><trkpt lat="46.2763459881112" lon="13.27151369811831"><ele>484.0</ele><time>2026-03-28T11:20:37.999Z</time></trkpt><trkpt lat="46.276499210569355" lon="13.271561273628011"><ele>482.25</ele><time>2026-03-28T11:20:38.999Z</time></trkpt><trkpt lat="46.27665320050814" lon="13.271609608104253"><ele>480.5</ele><time>2026-03-28T11:20:39.999Z</time></trkpt><trkpt lat="46.27679805393304" lon="13.271651746037977"><ele>478.75</ele><time>2026-03-28T11:20:40.999Z</time></trkpt><trkpt lat="46.27693725784765" lon="13.271693967905268"><ele>477.0</ele><time>2026-03-28T11:20:41.999Z</time></trkpt><trkpt lat="46.277069153456054" lon="13.271739046831474"><ele>477.0</ele><time>2026-03-28T11:20:42.999Z</time></trkpt><trkpt lat="46.277190995352285" lon="13.271801068329449"><ele>477.00000000000006</ele><time>2026-03-28T11:20:43.999Z</time></trkpt><trkpt lat="46.27728792284446" lon="13.271885537412441"><ele>477.00000000000006</ele><time>2026-03-28T11:20:44.999Z</time></trkpt><trkpt lat="46.27736666399616" lon="13.27198723389243"><ele>477.0</ele><time>2026-03-28T11:20:45.999Z</time></trkpt><trkpt lat="46.27742890373477" lon="13.272088870590773"><ele>477.0</ele><time>2026-03-28T11:20:46.999Z</time></trkpt><trkpt lat="46.27748163381916" lon="13.272169135571724"><ele>477.20000000000005</ele><time>2026-03-28T11:20:47.999Z</time></trkpt><trkpt lat="46.27753304464556" lon="13.272275765848484"><ele>477.40000000000003</ele><time>2026-03-28T11:20:48.999Z</time></trkpt><trkpt lat="46.2775906586774" lon="13.272413020102515"><ele>477.59999999999997</ele><time>2026-03-28T11:20:49.999Z</time></trkpt><trkpt lat="46.27765728222074" lon="13.272561996356952"><ele>477.79999999999995</ele><time>2026-03-28T11:20:50.999Z</time></trkpt><trkpt lat="46.27773125022579" lon="13.272705631298086"><ele>478.0</ele><time>2026-03-28T11:20:51.999Z</time></trkpt><trkpt lat="46.27782042162916" lon="13.272842025508128"><ele>478.0</ele><time>2026-03-28T11:20:52.999Z</time></trkpt><trkpt lat="46.277916463285116" lon="13.27297965675292"><ele>478.0</ele><time>2026-03-28T11:20:53.999Z</time></trkpt><trkpt lat="46.278004547752865" lon="13.273135645120819"><ele>478.0</ele><time>2026-03-28T11:20:54.999Z</time></trkpt><trkpt lat="46.278065911508385" lon="13.273313660805345"><ele>478.0</ele><time>2026-03-28T11:20:55.999Z</time></trkpt><trkpt lat="46.27812216971247" lon="13.27350839998916"><ele>479.75</ele><time>2026-03-28T11:20:56.999Z</time></trkpt><trkpt lat="46.278178800348435" lon="13.273705286315943"><ele>481.5</ele><time>2026-03-28T11:20:57.999Z</time></trkpt><trkpt lat="46.2782558400795" lon="13.273886463785784"><ele>483.25</ele><time>2026-03-28T11:20:58.999Z</time></trkpt><trkpt lat="46.278326783307435" lon="13.274073232685074"><ele>485.0</ele><time>2026-03-28T11:20:59.999Z</time></trkpt><trkpt lat="46.27839586196463" lon="13.274242677653334"><ele>485.0</ele><time>2026-03-28T11:21:00.999Z</time></trkpt><trkpt lat="46.27846701110655" lon="13.274400630522656"><ele>485.0</ele><time>2026-03-28T11:21:01.999Z</time></trkpt><trkpt lat="46.27857021360606" lon="13.274535046977585"><ele>485.0</ele><time>2026-03-28T11:21:02.999Z</time></trkpt><trkpt lat="46.2786952093986" lon="13.274639335311837"><ele>485.0</ele><time>2026-03-28T11:21:03.999Z</time></trkpt><trkpt lat="46.278826453206015" lon="13.274757257585893"><ele>488.0</ele><time>2026-03-28T11:21:04.999Z</time></trkpt><trkpt lat="46.27892039534642" lon="13.274914396526485"><ele>491.0</ele><time>2026-03-28T11:21:05.999Z</time></trkpt><trkpt lat="46.278988038230324" lon="13.275088323249918"><ele>494.0</ele><time>2026-03-28T11:21:06.999Z</time></trkpt><trkpt lat="46.27906230767034" lon="13.275235948182724"><ele>497.0</ele><time>2026-03-28T11:21:07.999Z</time></trkpt><trkpt lat="46.27915853083016" lon="13.275342064377615"><ele>497.0</ele><time>2026-03-28T11:21:08.999Z</time></trkpt><trkpt lat="46.2792894601268" lon="13.275389273373795"><ele>497.0</ele><time>2026-03-28T11:21:09.999Z</time></trkpt><trkpt lat="46.27943294108546" lon="13.275407386172207"><ele>497.0</ele><time>2026-03-28T11:21:10.999Z</time></trkpt><trkpt lat="46.27958654211994" lon="13.275408801974784"><ele>497.0</ele><time>2026-03-28T11:21:11.999Z</time></trkpt><trkpt lat="46.27973313938046" lon="13.275417916884876"><ele>496.5</ele><time>2026-03-28T11:21:12.999Z</time></trkpt><trkpt lat="46.27986091634792" lon="13.275446930203566"><ele>496.0</ele><time>2026-03-28T11:21:13.999Z</time></trkpt><trkpt lat="46.279970420296" lon="13.275523452810742"><ele>495.5</ele><time>2026-03-28T11:21:14.999Z</time></trkpt><trkpt lat="46.280064446275674" lon="13.27566424955768"><ele>495.0</ele><time>2026-03-28T11:21:15.999Z</time></trkpt><trkpt lat="46.28015371652731" lon="13.275819337854335"><ele>495.0</ele><time>2026-03-28T11:21:16.999Z</time></trkpt><trkpt lat="46.28021811010429" lon="13.275975485913063"><ele>495.0</ele><time>2026-03-28T11:21:17.999Z</time></trkpt><trkpt lat="46.28024930174884" lon="13.276138351398563"><ele>495.0</ele><time>2026-03-28T11:21:18.999Z</time></trkpt><trkpt lat="46.280237832684904" lon="13.276329707992774"><ele>495.0</ele><time>2026-03-28T11:21:19.999Z</time></trkpt><trkpt lat="46.280197251395485" lon="13.276527385692589"><ele>496.0</ele><time>2026-03-28T11:21:20.999Z</time></trkpt><trkpt lat="46.28016305457076" lon="13.276742593500463"><ele>497.0</ele><time>2026-03-28T11:21:21.999Z</time></trkpt><trkpt lat="46.28015657606497" lon="13.276965801491425"><ele>498.0</ele><time>2026-03-28T11:21:22.999Z</time></trkpt><trkpt lat="46.280158078846405" lon="13.277181173742493"><ele>500.75</ele><time>2026-03-28T11:21:23.999Z</time></trkpt><trkpt lat="46.28015853004015" lon="13.27739601428085"><ele>503.5</ele><time>2026-03-28T11:21:24.999Z</time></trkpt><trkpt lat="46.28015248352521" lon="13.277597697824724"><ele>506.25</ele><time>2026-03-28T11:21:25.999Z</time></trkpt><trkpt lat="46.280163232749025" lon="13.277770645430747"><ele>509.0</ele><time>2026-03-28T11:21:26.999Z</time></trkpt><trkpt lat="46.280205144801" lon="13.277924319943779"><ele>509.0</ele><time>2026-03-28T11:21:27.999Z</time></trkpt><trkpt lat="46.280274246352405" lon="13.278068881989787"><ele>509.0</ele><time>2026-03-28T11:21:28.999Z</time></trkpt><trkpt lat="46.28032537989032" lon="13.278194377308738"><ele>509.0</ele><time>2026-03-28T11:21:29.999Z</time></trkpt><trkpt lat="46.280339119042324" lon="13.278321360700222"><ele>509.0</ele><time>2026-03-28T11:21:30.999Z</time></trkpt><trkpt lat="46.28030794251952" lon="13.27844146870461"><ele>509.0</ele><time>2026-03-28T11:21:31.999Z</time></trkpt><trkpt lat="46.280230789401095" lon="13.27855559444713"><ele>509.6</ele><time>2026-03-28T11:21:32.999Z</time></trkpt><trkpt lat="46.280123604098854" lon="13.278615157192725"><ele>510.2</ele><time>2026-03-28T11:21:33.999Z</time></trkpt><trkpt lat="46.279999607542834" lon="13.278610391355077"><ele>510.80000000000007</ele><time>2026-03-28T11:21:34.999Z</time></trkpt><trkpt lat="46.27987676535369" lon="13.278573480449586"><ele>511.40000000000003</ele><time>2026-03-28T11:21:35.999Z</time></trkpt><trkpt lat="46.27983079138996" lon="13.278495637824072"><ele>512.0</ele><time>2026-03-28T11:21:37.999Z</time></trkpt><trkpt lat="46.27972906146622" lon="13.278533917246623"><ele>512.0</ele><time>2026-03-28T11:21:38.999Z</time></trkpt><trkpt lat="46.27962228437875" lon="13.278611849042692"><ele>512.0</ele><time>2026-03-28T11:21:39.999Z</time></trkpt><trkpt lat="46.27951298025005" lon="13.278669807046082"><ele>512.0</ele><time>2026-03-28T11:21:40.999Z</time></trkpt><trkpt lat="46.27940204412219" lon="13.278709663495805"><ele>512.0</ele><time>2026-03-28T11:21:41.999Z</time></trkpt><trkpt lat="46.27929700138892" lon="13.278707875712298"><ele>512.0</ele><time>2026-03-28T11:21:42.999Z</time></trkpt><trkpt lat="46.27919042648442" lon="13.278666605881185"><ele>512.0</ele><time>2026-03-28T11:21:43.999Z</time></trkpt><trkpt lat="46.27907671710311" lon="13.278634342470557"><ele>512.0</ele><time>2026-03-28T11:21:44.999Z</time></trkpt><trkpt lat="46.27895832572007" lon="13.278618315081374"><ele>512.0</ele><time>2026-03-28T11:21:45.999Z</time></trkpt><trkpt lat="46.27883762998674" lon="13.27860987144394"><ele>513.25</ele><time>2026-03-28T11:21:46.999Z</time></trkpt><trkpt lat="46.27871739678947" lon="13.27861089543001"><ele>514.5</ele><time>2026-03-28T11:21:47.999Z</time></trkpt><trkpt lat="46.278595522112845" lon="13.278634083028718"><ele>515.75</ele><time>2026-03-28T11:21:48.999Z</time></trkpt><trkpt lat="46.27847496151341" lon="13.278647378037244"><ele>517.0</ele><time>2026-03-28T11:21:49.999Z</time></trkpt><trkpt lat="46.27836622054881" lon="13.278633631306432"><ele>517.0</ele><time>2026-03-28T11:21:50.999Z</time></trkpt><trkpt lat="46.278268729782795" lon="13.278588905365629"><ele>517.0</ele><time>2026-03-28T11:21:51.999Z</time></trkpt><trkpt lat="46.27818116031221" lon="13.278523760159821"><ele>517.0</ele><time>2026-03-28T11:21:52.999Z</time></trkpt><trkpt lat="46.27809469721232" lon="13.278494112479752"><ele>517.0</ele><time>2026-03-28T11:21:53.999Z</time></trkpt><trkpt lat="46.27800854165809" lon="13.278530286611984"><ele>517.0</ele><time>2026-03-28T11:21:54.999Z</time></trkpt><trkpt lat="46.277945361338894" lon="13.278633779000293"><ele>516.8000000000001</ele><time>2026-03-28T11:21:55.999Z</time></trkpt><trkpt lat="46.277898691257796" lon="13.278777773788867"><ele>516.6</ele><time>2026-03-28T11:21:56.999Z</time></trkpt><trkpt lat="46.277860151765545" lon="13.278929362204948"><ele>516.4000000000001</ele><time>2026-03-28T11:21:57.999Z</time></trkpt><trkpt lat="46.2778713857612" lon="13.279130309905034"><ele>516.2</ele><time>2026-03-28T11:21:58.999Z</time></trkpt><trkpt lat="46.27789379901246" lon="13.279253369158063"><ele>516.0</ele><time>2026-03-28T11:21:59.999Z</time></trkpt><trkpt lat="46.27796920007959" lon="13.27935679061104"><ele>516.0</ele><time>2026-03-28T11:22:00.999Z</time></trkpt><trkpt lat="46.278065451443645" lon="13.279422675389611"><ele>516.0</ele><time>2026-03-28T11:22:01.999Z</time></trkpt><trkpt lat="46.278170112774276" lon="13.279493796905735"><ele>516.0</ele><time>2026-03-28T11:22:02.999Z</time></trkpt><trkpt lat="46.27826713640068" lon="13.279577185334615"><ele>516.0</ele><time>2026-03-28T11:22:03.999Z</time></trkpt><trkpt lat="46.27834111197361" lon="13.279677058366513"><ele>516.0</ele><time>2026-03-28T11:22:04.999Z</time></trkpt><trkpt lat="46.27836327378479" lon="13.279799062256256"><ele>517.4</ele><time>2026-03-28T11:22:05.999Z</time></trkpt><trkpt lat="46.27832407471179" lon="13.279907372868935"><ele>518.8</ele><time>2026-03-28T11:22:06.999Z</time></trkpt><trkpt lat="46.27824504905742" lon="13.27998035201372"><ele>520.1999999999999</ele><time>2026-03-28T11:22:07.999Z</time></trkpt><trkpt lat="46.278130687696276" lon="13.28002382684339"><ele>521.6</ele><time>2026-03-28T11:22:08.999Z</time></trkpt><trkpt lat="46.27800800808589" lon="13.280051283096249"><ele>523.0</ele><time>2026-03-28T11:22:09.999Z</time></trkpt><trkpt lat="46.27787888434012" lon="13.280091598689868"><ele>523.0</ele><time>2026-03-28T11:22:10.999Z</time></trkpt><trkpt lat="46.27776345225009" lon="13.280138300940102"><ele>523.0</ele><time>2026-03-28T11:22:11.999Z</time></trkpt><trkpt lat="46.27764938777135" lon="13.280192192772782"><ele>523.0</ele><time>2026-03-28T11:22:12.999Z</time></trkpt><trkpt lat="46.27756251044096" lon="13.280262045324989"><ele>523.0</ele><time>2026-03-28T11:22:13.999Z</time></trkpt><trkpt lat="46.27750556915398" lon="13.280377469387199"><ele>523.0</ele><time>2026-03-28T11:22:14.999Z</time></trkpt><trkpt lat="46.277506376307386" lon="13.280542365558377"><ele>527.0</ele><time>2026-03-28T11:22:15.999Z</time></trkpt><trkpt lat="46.277525443632065" lon="13.280727597568887"><ele>531.0</ele><time>2026-03-28T11:22:16.999Z</time></trkpt><trkpt lat="46.277530231323944" lon="13.280905699560627"><ele>535.0</ele><time>2026-03-28T11:22:17.999Z</time></trkpt><trkpt lat="46.27751780056014" lon="13.281084384460858"><ele>539.0</ele><time>2026-03-28T11:22:18.999Z</time></trkpt><trkpt lat="46.27751723854893" lon="13.281258650543348"><ele>539.0</ele><time>2026-03-28T11:22:19.999Z</time></trkpt><trkpt lat="46.27752688479789" lon="13.281431136831923"><ele>539.0</ele><time>2026-03-28T11:22:20.999Z</time></trkpt><trkpt lat="46.277539401534014" lon="13.281593491864292"><ele>539.0</ele><time>2026-03-28T11:22:21.999Z</time></trkpt><trkpt lat="46.27753124499978" lon="13.281727928156947"><ele>539.0</ele><time>2026-03-28T11:22:22.999Z</time></trkpt><trkpt lat="46.27747854422749" lon="13.281813049755225"><ele>539.0</ele><time>2026-03-28T11:22:23.999Z</time></trkpt><trkpt lat="46.277383998694944" lon="13.281824946888333"><ele>537.0</ele><time>2026-03-28T11:22:24.999Z</time></trkpt><trkpt lat="46.27728858497306" lon="13.281767705485086"><ele>535.0</ele><time>2026-03-28T11:22:25.999Z</time></trkpt><trkpt lat="46.277226059499355" lon="13.281675019942236"><ele>533.0</ele><time>2026-03-28T11:22:26.999Z</time></trkpt><trkpt lat="46.277170701684824" lon="13.28162198706101"><ele>531.0</ele><time>2026-03-28T11:22:27.999Z</time></trkpt><trkpt lat="46.27709036620787" lon="13.28165041941131"><ele>529.0</ele><time>2026-03-28T11:22:28.999Z</time></trkpt><trkpt lat="46.27699742371508" lon="13.281723526550692"><ele>527.0</ele><time>2026-03-28T11:22:29.999Z</time></trkpt><trkpt lat="46.27690878708354" lon="13.281802099415843"><ele>527.0</ele><time>2026-03-28T11:22:30.999Z</time></trkpt><trkpt lat="46.276854072315956" lon="13.281914875990603"><ele>527.0</ele><time>2026-03-28T11:22:31.999Z</time></trkpt><trkpt lat="46.27681916986191" lon="13.282055798367235"><ele>527.0</ele><time>2026-03-28T11:22:32.999Z</time></trkpt><trkpt lat="46.27681786906693" lon="13.282223800995261"><ele>527.0</ele><time>2026-03-28T11:22:33.999Z</time></trkpt><trkpt lat="46.27682170767496" lon="13.282400997735005"><ele>527.0</ele><time>2026-03-28T11:22:34.999Z</time></trkpt><trkpt lat="46.27680691376296" lon="13.282585292105031"><ele>531.25</ele><time>2026-03-28T11:22:35.999Z</time></trkpt><trkpt lat="46.276771811868215" lon="13.282775268469774"><ele>535.5</ele><time>2026-03-28T11:22:36.999Z</time></trkpt><trkpt lat="46.27672367452775" lon="13.282952213519126"><ele>539.75</ele><time>2026-03-28T11:22:37.999Z</time></trkpt><trkpt lat="46.27668133292571" lon="13.283149986862032"><ele>544.0</ele><time>2026-03-28T11:22:38.999Z</time></trkpt><trkpt lat="46.276632447056635" lon="13.283344125655553"><ele>547.0</ele><time>2026-03-28T11:22:39.999Z</time></trkpt><trkpt lat="46.27658058232781" lon="13.283539228499148"><ele>550.0</ele><time>2026-03-28T11:22:40.999Z</time></trkpt><trkpt lat="46.27653554283517" lon="13.283704352253"><ele>553.0</ele><time>2026-03-28T11:22:41.999Z</time></trkpt><trkpt lat="46.276490454782326" lon="13.283813086109971"><ele>556.0</ele><time>2026-03-28T11:22:42.999Z</time></trkpt><trkpt lat="46.27642819813219" lon="13.283854678147296"><ele>559.0</ele><time>2026-03-28T11:22:43.999Z</time></trkpt><trkpt lat="46.276350930960824" lon="13.283825881139261"><ele>559.5</ele><time>2026-03-28T11:22:44.999Z</time></trkpt><trkpt lat="46.27625950767266" lon="13.283712560200941"><ele>560.0</ele><time>2026-03-28T11:22:45.999Z</time></trkpt><trkpt lat="46.27617885372141" lon="13.283575501259199"><ele>560.5</ele><time>2026-03-28T11:22:46.999Z</time></trkpt><trkpt lat="46.27608732849017" lon="13.283424674752581"><ele>561.0</ele><time>2026-03-28T11:22:47.999Z</time></trkpt><trkpt lat="46.27600076539701" lon="13.283321989364765"><ele>561.0</ele><time>2026-03-28T11:22:48.999Z</time></trkpt><trkpt lat="46.27592686671372" lon="13.283267066420827"><ele>561.0</ele><time>2026-03-28T11:22:49.999Z</time></trkpt><trkpt lat="46.275852495506754" lon="13.283277721746762"><ele>561.0</ele><time>2026-03-28T11:22:50.999Z</time></trkpt><trkpt lat="46.275788676961625" lon="13.283340554760654"><ele>561.0</ele><time>2026-03-28T11:22:51.999Z</time></trkpt><trkpt lat="46.27571964612466" lon="13.283445159722053"><ele>561.0</ele><time>2026-03-28T11:22:52.999Z</time></trkpt><trkpt lat="46.27563171977474" lon="13.283587689908385"><ele>563.25</ele><time>2026-03-28T11:22:53.999Z</time></trkpt><trkpt lat="46.27553195126952" lon="13.283756016307935"><ele>565.5</ele><time>2026-03-28T11:22:54.999Z</time></trkpt><trkpt lat="46.275426041971876" lon="13.283920744680575"><ele>567.75</ele><time>2026-03-28T11:22:55.999Z</time></trkpt><trkpt lat="46.27534204265426" lon="13.284019362842406"><ele>570.0</ele><time>2026-03-28T11:22:56.999Z</time></trkpt><trkpt lat="46.275253286603224" lon="13.2840462306546"><ele>570.0</ele><time>2026-03-28T11:22:57.999Z</time></trkpt><trkpt lat="46.27516166624214" lon="13.28398325912477"><ele>570.0</ele><time>2026-03-28T11:22:58.999Z</time></trkpt><trkpt lat="46.275081671960834" lon="13.283849310222369"><ele>570.0</ele><time>2026-03-28T11:22:59.999Z</time></trkpt><trkpt lat="46.27501101819677" lon="13.28369582266896"><ele>570.0</ele><time>2026-03-28T11:23:00.999Z</time></trkpt><trkpt lat="46.27494230722464" lon="13.2835489551926"><ele>570.0</ele><time>2026-03-28T11:23:01.999Z</time></trkpt><trkpt lat="46.274861692789074" lon="13.283468841550318"><ele>570.0</ele><time>2026-03-28T11:23:02.999Z</time></trkpt><trkpt lat="46.274757440059766" lon="13.283440464103744"><ele>570.0</ele><time>2026-03-28T11:23:03.999Z</time></trkpt><trkpt lat="46.27462663404869" lon="13.283435450972124"><ele>570.0</ele><time>2026-03-28T11:23:04.999Z</time></trkpt><trkpt lat="46.274479187315414" lon="13.283424680871606"><ele>570.5</ele><time>2026-03-28T11:23:05.999Z</time></trkpt><trkpt lat="46.27433542013169" lon="13.283388855991689"><ele>571.0</ele><time>2026-03-28T11:23:06.998Z</time></trkpt><trkpt lat="46.274197588828216" lon="13.283336081122844"><ele>571.5</ele><time>2026-03-28T11:23:07.998Z</time></trkpt><trkpt lat="46.274081223917634" lon="13.283298089838938"><ele>572.0</ele><time>2026-03-28T11:23:08.998Z</time></trkpt><trkpt lat="46.27398212234511" lon="13.283328878135213"><ele>572.0</ele><time>2026-03-28T11:23:09.998Z</time></trkpt><trkpt lat="46.273913088986006" lon="13.283438802232205"><ele>572.0</ele><time>2026-03-28T11:23:10.998Z</time></trkpt><trkpt lat="46.27388615125888" lon="13.283601366440896"><ele>572.0</ele><time>2026-03-28T11:23:11.998Z</time></trkpt><trkpt lat="46.273929147793766" lon="13.28375765869827"><ele>572.0</ele><time>2026-03-28T11:23:12.998Z</time></trkpt><trkpt lat="46.273988272808715" lon="13.283929948238956"><ele>572.25</ele><time>2026-03-28T11:23:13.998Z</time></trkpt><trkpt lat="46.27405174989029" lon="13.284110874339726"><ele>572.5</ele><time>2026-03-28T11:23:14.998Z</time></trkpt><trkpt lat="46.27408726744097" lon="13.284311355673584"><ele>572.75</ele><time>2026-03-28T11:23:15.998Z</time></trkpt><trkpt lat="46.27410946125344" lon="13.284496740255515"><ele>573.0</ele><time>2026-03-28T11:23:16.998Z</time></trkpt><trkpt lat="46.274162554212495" lon="13.284664068327055"><ele>572.25</ele><time>2026-03-28T11:23:17.998Z</time></trkpt><trkpt lat="46.27421915525083" lon="13.284815208553596"><ele>571.5</ele><time>2026-03-28T11:23:18.998Z</time></trkpt><trkpt lat="46.27429887051821" lon="13.284961386417882"><ele>570.75</ele><time>2026-03-28T11:23:19.998Z</time></trkpt><trkpt lat="46.27434932664213" lon="13.285103506316972"><ele>570.0</ele><time>2026-03-28T11:23:20.999Z</time></trkpt><trkpt lat="46.27439245077353" lon="13.285256888929176"><ele>570.0</ele><time>2026-03-28T11:23:21.999Z</time></trkpt><trkpt lat="46.274476907135984" lon="13.285347817103537"><ele>570.0</ele><time>2026-03-28T11:23:22.999Z</time></trkpt><trkpt lat="46.27460623801243" lon="13.285390378166438"><ele>570.0</ele><time>2026-03-28T11:23:23.999Z</time></trkpt><trkpt lat="46.27473013861323" lon="13.28543443671045"><ele>570.0</ele><time>2026-03-28T11:23:24.999Z</time></trkpt><trkpt lat="46.27483792099828" lon="13.285514617789376"><ele>575.75</ele><time>2026-03-28T11:23:25.999Z</time></trkpt><trkpt lat="46.2749179669169" lon="13.285657359952932"><ele>581.5</ele><time>2026-03-28T11:23:26.999Z</time></trkpt><trkpt lat="46.2749643059984" lon="13.285841432809331"><ele>587.25</ele><time>2026-03-28T11:23:27.999Z</time></trkpt><trkpt lat="46.27500826894879" lon="13.286023813621314"><ele>593.0</ele><time>2026-03-28T11:23:28.999Z</time></trkpt><trkpt lat="46.27507420076493" lon="13.286178873864396"><ele>593.0</ele><time>2026-03-28T11:23:29.999Z</time></trkpt><trkpt lat="46.275168339850524" lon="13.286314911348674"><ele>593.0</ele><time>2026-03-28T11:23:30.999Z</time></trkpt><trkpt lat="46.27526338085147" lon="13.286454072662575"><ele>593.0</ele><time>2026-03-28T11:23:31.999Z</time></trkpt><trkpt lat="46.27534816868412" lon="13.28659876888784"><ele>593.0</ele><time>2026-03-28T11:23:32.999Z</time></trkpt><trkpt lat="46.275447941753754" lon="13.286693329575721"><ele>591.25</ele><time>2026-03-28T11:23:33.999Z</time></trkpt><trkpt lat="46.27554625927596" lon="13.286823740759047"><ele>589.5</ele><time>2026-03-28T11:23:34.999Z</time></trkpt><trkpt lat="46.27562447205918" lon="13.286970426323053"><ele>587.75</ele><time>2026-03-28T11:23:35.999Z</time></trkpt><trkpt lat="46.275672832254756" lon="13.287149661948744"><ele>586.0</ele><time>2026-03-28T11:23:36.999Z</time></trkpt><trkpt lat="46.275685103449504" lon="13.287345542175727"><ele>586.75</ele><time>2026-03-28T11:23:37.999Z</time></trkpt><trkpt lat="46.27568155408009" lon="13.28754195609522"><ele>587.5</ele><time>2026-03-28T11:23:38.999Z</time></trkpt><trkpt lat="46.27564296875766" lon="13.287693726178748"><ele>588.25</ele><time>2026-03-28T11:23:39.999Z</time></trkpt><trkpt lat="46.27556288958329" lon="13.287801032977828"><ele>589.0</ele><time>2026-03-28T11:23:40.999Z</time></trkpt><trkpt lat="46.27545702753774" lon="13.287846028092305"><ele>589.0</ele><time>2026-03-28T11:23:41.999Z</time></trkpt><trkpt lat="46.275337570621375" lon="13.287846535851825"><ele>589.0</ele><time>2026-03-28T11:23:42.999Z</time></trkpt><trkpt lat="46.275234943060156" lon="13.287888467894929"><ele>589.0</ele><time>2026-03-28T11:23:43.999Z</time></trkpt><trkpt lat="46.27517768998012" lon="13.287990242184206"><ele>589.0</ele><time>2026-03-28T11:23:44.999Z</time></trkpt><trkpt lat="46.275167885429696" lon="13.28810635351331"><ele>589.0</ele><time>2026-03-28T11:23:45.999Z</time></trkpt><trkpt lat="46.2752146380309" lon="13.288219238311225"><ele>590.25</ele><time>2026-03-28T11:23:46.999Z</time></trkpt><trkpt lat="46.2753100669102" lon="13.28833320415948"><ele>591.5</ele><time>2026-03-28T11:23:47.999Z</time></trkpt><trkpt lat="46.27543068458816" lon="13.288474116746526"><ele>592.75</ele><time>2026-03-28T11:23:48.999Z</time></trkpt><trkpt lat="46.27548761174184" lon="13.288620103131953"><ele>594.0</ele><time>2026-03-28T11:23:49.999Z</time></trkpt><trkpt lat="46.275487610717526" lon="13.288775432412983"><ele>596.0</ele><time>2026-03-28T11:23:50.999Z</time></trkpt><trkpt lat="46.27542177427556" lon="13.288946138740934"><ele>598.0</ele><time>2026-03-28T11:23:51.999Z</time></trkpt><trkpt lat="46.27535070260107" lon="13.289111785298642"><ele>600.0</ele><time>2026-03-28T11:23:52.999Z</time></trkpt><trkpt lat="46.2752784738941" lon="13.289261566506472"><ele>602.0</ele><time>2026-03-28T11:23:53.999Z</time></trkpt><trkpt lat="46.2752055472331" lon="13.289371777121053"><ele>602.0</ele><time>2026-03-28T11:23:54.999Z</time></trkpt><trkpt lat="46.275104908738506" lon="13.28944375780394"><ele>602.0</ele><time>2026-03-28T11:23:55.999Z</time></trkpt><trkpt lat="46.27499606351627" lon="13.289530443890905"><ele>602.0</ele><time>2026-03-28T11:23:56.999Z</time></trkpt><trkpt lat="46.27486704912446" lon="13.289602809882972"><ele>602.0</ele><time>2026-03-28T11:23:57.999Z</time></trkpt><trkpt lat="46.2747402633423" lon="13.289668649947581"><ele>602.6</ele><time>2026-03-28T11:23:58.999Z</time></trkpt><trkpt lat="46.27463044122578" lon="13.28972688032074"><ele>603.2</ele><time>2026-03-28T11:23:59.999Z</time></trkpt><trkpt lat="46.27453087405999" lon="13.289762752210862"><ele>603.8</ele><time>2026-03-28T11:24:00.999Z</time></trkpt><trkpt lat="46.27443886479815" lon="13.289782260579464"><ele>604.4</ele><time>2026-03-28T11:24:01.999Z</time></trkpt><trkpt lat="46.27436082152792" lon="13.289772299054913"><ele>605.0</ele><time>2026-03-28T11:24:02.999Z</time></trkpt><trkpt lat="46.27428278262371" lon="13.289780515753955"><ele>605.0</ele><time>2026-03-28T11:24:03.999Z</time></trkpt><trkpt lat="46.27424319561915" lon="13.289888500621329"><ele>605.0</ele><time>2026-03-28T11:24:04.999Z</time></trkpt><trkpt lat="46.27426545460344" lon="13.290041600556965"><ele>605.0</ele><time>2026-03-28T11:24:05.999Z</time></trkpt><trkpt lat="46.274304135236015" lon="13.290194466226302"><ele>605.0</ele><time>2026-03-28T11:24:06.999Z</time></trkpt><trkpt lat="46.274355559394635" lon="13.290358659036277"><ele>605.0</ele><time>2026-03-28T11:24:07.999Z</time></trkpt><trkpt lat="46.27442085497876" lon="13.290525601570916"><ele>607.25</ele><time>2026-03-28T11:24:08.999Z</time></trkpt><trkpt lat="46.2744948196687" lon="13.290685761333572"><ele>609.5</ele><time>2026-03-28T11:24:09.999Z</time></trkpt><trkpt lat="46.274553337957705" lon="13.290852346596251"><ele>611.75</ele><time>2026-03-28T11:24:10.999Z</time></trkpt><trkpt lat="46.27462673587837" lon="13.290985796696717"><ele>614.0</ele><time>2026-03-28T11:24:11.999Z</time></trkpt><trkpt lat="46.27466298173793" lon="13.291137953557902"><ele>614.0</ele><time>2026-03-28T11:24:12.999Z</time></trkpt><trkpt lat="46.27466731210053" lon="13.291308666446117"><ele>614.0</ele><time>2026-03-28T11:24:13.999Z</time></trkpt><trkpt lat="46.27463617162792" lon="13.291473026887376"><ele>614.0</ele><time>2026-03-28T11:24:14.999Z</time></trkpt><trkpt lat="46.27457692472664" lon="13.291595359104033"><ele>614.0</ele><time>2026-03-28T11:24:15.999Z</time></trkpt><trkpt lat="46.274514357042534" lon="13.291691964905288"><ele>614.0</ele><time>2026-03-28T11:24:16.999Z</time></trkpt><trkpt lat="46.27442548903123" lon="13.291785442784755"><ele>617.5</ele><time>2026-03-28T11:24:17.999Z</time></trkpt><trkpt lat="46.274322239303224" lon="13.291865006440666"><ele>621.0</ele><time>2026-03-28T11:24:18.999Z</time></trkpt><trkpt lat="46.27419620845879" lon="13.291883081590049"><ele>624.5</ele><time>2026-03-28T11:24:19.999Z</time></trkpt><trkpt lat="46.27407174600551" lon="13.291883962074536"><ele>628.0</ele><time>2026-03-28T11:24:20.999Z</time></trkpt><trkpt lat="46.273943538860905" lon="13.29184980560706"><ele>627.0</ele><time>2026-03-28T11:24:21.999Z</time></trkpt><trkpt lat="46.273822754744344" lon="13.291786853676413"><ele>626.0</ele><time>2026-03-28T11:24:22.999Z</time></trkpt><trkpt lat="46.27368485435952" lon="13.291771650923735"><ele>625.0</ele><time>2026-03-28T11:24:23.999Z</time></trkpt><trkpt lat="46.27355868579017" lon="13.291778557585486"><ele>624.0</ele><time>2026-03-28T11:24:24.999Z</time></trkpt><trkpt lat="46.27342515260103" lon="13.291808640031151"><ele>624.0</ele><time>2026-03-28T11:24:25.999Z</time></trkpt><trkpt lat="46.2732979710503" lon="13.291835996126416"><ele>624.0</ele><time>2026-03-28T11:24:26.999Z</time></trkpt><trkpt lat="46.273195682100805" lon="13.291863026466515"><ele>624.0</ele><time>2026-03-28T11:24:27.999Z</time></trkpt><trkpt lat="46.27311714782293" lon="13.291881160397581"><ele>624.0</ele><time>2026-03-28T11:24:28.999Z</time></trkpt><trkpt lat="46.273019532506915" lon="13.291892846034576"><ele>624.0</ele><time>2026-03-28T11:24:30.999Z</time></trkpt><trkpt lat="46.2729571486883" lon="13.291913519613196"><ele>624.25</ele><time>2026-03-28T11:24:32.999Z</time></trkpt><trkpt lat="46.27293265836617" lon="13.292093834556432"><ele>624.5</ele><time>2026-03-28T11:24:36.999Z</time></trkpt><trkpt lat="46.27302310056446" lon="13.292179682906342"><ele>624.75</ele><time>2026-03-28T11:24:38.999Z</time></trkpt><trkpt lat="46.273141421992634" lon="13.292282247712647"><ele>625.0</ele><time>2026-03-28T11:24:40.999Z</time></trkpt><trkpt lat="46.27321822083637" lon="13.292339111587111"><ele>625.4</ele><time>2026-03-28T11:24:41.999Z</time></trkpt><trkpt lat="46.27327281268541" lon="13.292427005945996"><ele>625.8</ele><time>2026-03-28T11:24:42.999Z</time></trkpt><trkpt lat="46.27333432149493" lon="13.292499641705497"><ele>626.2</ele><time>2026-03-28T11:24:43.999Z</time></trkpt><trkpt lat="46.273348815751525" lon="13.292603630714972"><ele>626.6</ele><time>2026-03-28T11:24:44.999Z</time></trkpt><trkpt lat="46.273366410028544" lon="13.292792083953486"><ele>627.0</ele><time>2026-03-28T11:24:45.999Z</time></trkpt><trkpt lat="46.27338109984226" lon="13.292956474152366"><ele>627.0</ele><time>2026-03-28T11:24:46.999Z</time></trkpt><trkpt lat="46.27340892210116" lon="13.293082105724896"><ele>627.0</ele><time>2026-03-28T11:24:47.999Z</time></trkpt><trkpt lat="46.273448034059925" lon="13.293168384553981"><ele>627.0</ele><time>2026-03-28T11:24:48.999Z</time></trkpt><trkpt lat="46.273526075299756" lon="13.293180815817292"><ele>627.0</ele><time>2026-03-28T11:24:49.999Z</time></trkpt><trkpt lat="46.27362173396019" lon="13.293150516376649"><ele>627.0</ele><time>2026-03-28T11:24:50.999Z</time></trkpt><trkpt lat="46.27372780466521" lon="13.293104595675949"><ele>627.0</ele><time>2026-03-28T11:24:51.999Z</time></trkpt><trkpt lat="46.27385073869575" lon="13.293074570348526"><ele>627.0</ele><time>2026-03-28T11:24:52.999Z</time></trkpt><trkpt lat="46.27397757652802" lon="13.293042027254922"><ele>627.0</ele><time>2026-03-28T11:24:53.999Z</time></trkpt><trkpt lat="46.27410278592832" lon="13.293044680100529"><ele>627.0</ele><time>2026-03-28T11:24:54.999Z</time></trkpt><trkpt lat="46.274224693896585" lon="13.293061473241952"><ele>626.0</ele><time>2026-03-28T11:24:55.999Z</time></trkpt><trkpt lat="46.274341610759244" lon="13.293099419618088"><ele>625.0</ele><time>2026-03-28T11:24:56.999Z</time></trkpt><trkpt lat="46.27444341858417" lon="13.29316118003758"><ele>624.0</ele><time>2026-03-28T11:24:57.999Z</time></trkpt><trkpt lat="46.27453006735816" lon="13.29326674936565"><ele>623.0</ele><time>2026-03-28T11:24:58.999Z</time></trkpt><trkpt lat="46.27458469659274" lon="13.293404223007181"><ele>623.0</ele><time>2026-03-28T11:24:59.999Z</time></trkpt><trkpt lat="46.274653998672825" lon="13.293505090942181"><ele>623.0</ele><time>2026-03-28T11:25:00.999Z</time></trkpt><trkpt lat="46.27473466778899" lon="13.293571531644995"><ele>623.0</ele><time>2026-03-28T11:25:01.999Z</time></trkpt><trkpt lat="46.2748573983257" lon="13.293546832908596"><ele>623.0</ele><time>2026-03-28T11:25:02.999Z</time></trkpt><trkpt lat="46.27496917584484" lon="13.293574094126832"><ele>623.0</ele><time>2026-03-28T11:25:03.999Z</time></trkpt><trkpt lat="46.275078691194935" lon="13.29366233769777"><ele>622.0</ele><time>2026-03-28T11:25:05Z</time></trkpt><trkpt lat="46.275195635732395" lon="13.293703016098052"><ele>621.0</ele><time>2026-03-28T11:25:06Z</time></trkpt><trkpt lat="46.27530636122583" lon="13.293722722627841"><ele>620.0</ele><time>2026-03-28T11:25:07Z</time></trkpt><trkpt lat="46.275388649482956" lon="13.293765898961805"><ele>619.0</ele><time>2026-03-28T11:25:08Z</time></trkpt><trkpt lat="46.27545669816529" lon="13.293839199792437"><ele>618.0</ele><time>2026-03-28T11:25:09Z</time></trkpt><trkpt lat="46.275464888658256" lon="13.294042157357204"><ele>618.0</ele><time>2026-03-28T11:25:10Z</time></trkpt><trkpt lat="46.27552300953123" lon="13.29422650475544"><ele>618.0</ele><time>2026-03-28T11:25:11Z</time></trkpt><trkpt lat="46.275556262667976" lon="13.29440725628532"><ele>618.0</ele><time>2026-03-28T11:25:12Z</time></trkpt><trkpt lat="46.27556462251416" lon="13.294567997329636"><ele>618.0</ele><time>2026-03-28T11:25:12.999Z</time></trkpt><trkpt lat="46.27552846465519" lon="13.294719651747942"><ele>617.25</ele><time>2026-03-28T11:25:13.999Z</time></trkpt><trkpt lat="46.27542843637651" lon="13.29486035734125"><ele>616.5</ele><time>2026-03-28T11:25:14.999Z</time></trkpt><trkpt lat="46.275348505251" lon="13.29502424836247"><ele>615.75</ele><time>2026-03-28T11:25:15.999Z</time></trkpt><trkpt lat="46.27527954900714" lon="13.295160416858304"><ele>615.0</ele><time>2026-03-28T11:25:16.999Z</time></trkpt><trkpt lat="46.275196854982006" lon="13.295320573612798"><ele>615.0</ele><time>2026-03-28T11:25:17.999Z</time></trkpt><trkpt lat="46.275108777330395" lon="13.29549296993421"><ele>615.0</ele><time>2026-03-28T11:25:18.999Z</time></trkpt><trkpt lat="46.27502257707163" lon="13.295660172979447"><ele>615.0</ele><time>2026-03-28T11:25:19.999Z</time></trkpt><trkpt lat="46.27495724584668" lon="13.295814271589462"><ele>615.0</ele><time>2026-03-28T11:25:20.999Z</time></trkpt><trkpt lat="46.27489311789615" lon="13.295943752794251"><ele>614.8</ele><time>2026-03-28T11:25:21.999Z</time></trkpt><trkpt lat="46.274853809258374" lon="13.296075796931852"><ele>614.6</ele><time>2026-03-28T11:25:22.999Z</time></trkpt><trkpt lat="46.27485500087898" lon="13.296210329141287"><ele>614.4</ele><time>2026-03-28T11:25:23.999Z</time></trkpt><trkpt lat="46.274893468559746" lon="13.296317300314193"><ele>614.2</ele><time>2026-03-28T11:25:24.999Z</time></trkpt><trkpt lat="46.274972857476605" lon="13.29639375075349"><ele>614.0</ele><time>2026-03-28T11:25:25.999Z</time></trkpt><trkpt lat="46.27507637152093" lon="13.296468326327624"><ele>614.0</ele><time>2026-03-28T11:25:26.999Z</time></trkpt><trkpt lat="46.27520427577827" lon="13.29655404249103"><ele>614.0</ele><time>2026-03-28T11:25:27.999Z</time></trkpt><trkpt lat="46.27532026812842" lon="13.296640396981944"><ele>614.0</ele><time>2026-03-28T11:25:28.999Z</time></trkpt><trkpt lat="46.275429754365106" lon="13.296733965214937"><ele>614.0</ele><time>2026-03-28T11:25:29.999Z</time></trkpt><trkpt lat="46.27552978760057" lon="13.29680420273553"><ele>618.6</ele><time>2026-03-28T11:25:30.999Z</time></trkpt><trkpt lat="46.27561951270916" lon="13.29684228334397"><ele>623.2</ele><time>2026-03-28T11:25:31.999Z</time></trkpt><trkpt lat="46.27570937096147" lon="13.296843268660753"><ele>627.8000000000001</ele><time>2026-03-28T11:25:32.999Z</time></trkpt><trkpt lat="46.27582051239722" lon="13.29679227092253"><ele>632.4</ele><time>2026-03-28T11:25:33.999Z</time></trkpt><trkpt lat="46.2759360362258" lon="13.296741464391113"><ele>637.0</ele><time>2026-03-28T11:25:34.999Z</time></trkpt><trkpt lat="46.276032957735325" lon="13.296729236468403"><ele>637.0</ele><time>2026-03-28T11:25:35.999Z</time></trkpt><trkpt lat="46.27612212517085" lon="13.296793660100393"><ele>637.0</ele><time>2026-03-28T11:25:36.999Z</time></trkpt><trkpt lat="46.27620799839768" lon="13.296890019676123"><ele>637.0</ele><time>2026-03-28T11:25:37.999Z</time></trkpt><trkpt lat="46.27630954829698" lon="13.296957824435824"><ele>637.0</ele><time>2026-03-28T11:25:38.999Z</time></trkpt><trkpt lat="46.27643457185207" lon="13.296912107913789"><ele>637.0</ele><time>2026-03-28T11:25:39.999Z</time></trkpt><trkpt lat="46.276529719784556" lon="13.296911756970713"><ele>638.4000000000001</ele><time>2026-03-28T11:25:40.999Z</time></trkpt><trkpt lat="46.276609301338524" lon="13.296906599198069"><ele>639.8000000000001</ele><time>2026-03-28T11:25:41.999Z</time></trkpt><trkpt lat="46.2766786563707" lon="13.296961652142267"><ele>641.2</ele><time>2026-03-28T11:25:42.999Z</time></trkpt><trkpt lat="46.276758196276546" lon="13.297053954559592"><ele>642.6</ele><time>2026-03-28T11:25:43.999Z</time></trkpt><trkpt lat="46.27681069318378" lon="13.297196363081923"><ele>644.0</ele><time>2026-03-28T11:25:44.999Z</time></trkpt><trkpt lat="46.276797801305214" lon="13.297349371695047"><ele>640.5</ele><time>2026-03-28T11:25:45.999Z</time></trkpt><trkpt lat="46.27676179113178" lon="13.297502808826257"><ele>637.0</ele><time>2026-03-28T11:25:46.999Z</time></trkpt><trkpt lat="46.27672608540403" lon="13.297668731998156"><ele>633.5</ele><time>2026-03-28T11:25:47.999Z</time></trkpt><trkpt lat="46.276657987390074" lon="13.297816404091778"><ele>630.0</ele><time>2026-03-28T11:25:48.999Z</time></trkpt><trkpt lat="46.276593355531055" lon="13.297984434367343"><ele>632.5</ele><time>2026-03-28T11:25:50Z</time></trkpt><trkpt lat="46.27653000782111" lon="13.298160355867099"><ele>635.0</ele><time>2026-03-28T11:25:51Z</time></trkpt><trkpt lat="46.276468934291394" lon="13.298318304506273"><ele>637.5</ele><time>2026-03-28T11:25:52Z</time></trkpt><trkpt lat="46.27640735233029" lon="13.298440754365972"><ele>640.0</ele><time>2026-03-28T11:25:53Z</time></trkpt><trkpt lat="46.27638089156264" lon="13.29855991893515"><ele>640.0</ele><time>2026-03-28T11:25:54Z</time></trkpt><trkpt lat="46.276392250854535" lon="13.298717440835162"><ele>640.0</ele><time>2026-03-28T11:25:55Z</time></trkpt><trkpt lat="46.276450268838424" lon="13.298874231184293"><ele>640.0</ele><time>2026-03-28T11:25:56Z</time></trkpt><trkpt lat="46.27644830788743" lon="13.29901635865877"><ele>640.0</ele><time>2026-03-28T11:25:57Z</time></trkpt><trkpt lat="46.27643298150518" lon="13.299151150950484"><ele>640.0</ele><time>2026-03-28T11:25:58Z</time></trkpt><trkpt lat="46.27633928846953" lon="13.299219184711678"><ele>634.0</ele><time>2026-03-28T11:25:59Z</time></trkpt><trkpt lat="46.276242944975436" lon="13.299296607257347"><ele>628.0</ele><time>2026-03-28T11:26:00Z</time></trkpt><trkpt lat="46.27613872847253" lon="13.299410400129718"><ele>622.0</ele><time>2026-03-28T11:26:01Z</time></trkpt><trkpt lat="46.27604192617568" lon="13.299553568106045"><ele>616.0</ele><time>2026-03-28T11:26:02Z</time></trkpt><trkpt lat="46.275948045158984" lon="13.2997112395058"><ele>621.5</ele><time>2026-03-28T11:26:03Z</time></trkpt><trkpt lat="46.27584448866748" lon="13.299865334898996"><ele>627.0</ele><time>2026-03-28T11:26:04Z</time></trkpt><trkpt lat="46.27574886418854" lon="13.299989559795483"><ele>632.5</ele><time>2026-03-28T11:26:05Z</time></trkpt><trkpt lat="46.27566978440066" lon="13.300086177564086"><ele>638.0</ele><time>2026-03-28T11:26:06Z</time></trkpt><trkpt lat="46.275630545745415" lon="13.300202409251886"><ele>638.0</ele><time>2026-03-28T11:26:07Z</time></trkpt><trkpt lat="46.27562701500142" lon="13.3003534622587"><ele>638.0</ele><time>2026-03-28T11:26:08Z</time></trkpt><trkpt lat="46.27566611696588" lon="13.3005376307259"><ele>638.0</ele><time>2026-03-28T11:26:09Z</time></trkpt><trkpt lat="46.275712693336644" lon="13.300732073137347"><ele>638.0</ele><time>2026-03-28T11:26:10Z</time></trkpt><trkpt lat="46.27576826921204" lon="13.300917450367889"><ele>639.25</ele><time>2026-03-28T11:26:11Z</time></trkpt><trkpt lat="46.27584807244655" lon="13.301080154509982"><ele>640.5</ele><time>2026-03-28T11:26:12Z</time></trkpt><trkpt lat="46.275944688480244" lon="13.301214387706565"><ele>641.75</ele><time>2026-03-28T11:26:13Z</time></trkpt><trkpt lat="46.27601810236362" lon="13.301341197158383"><ele>643.0</ele><time>2026-03-28T11:26:14Z</time></trkpt><trkpt lat="46.276065658053746" lon="13.301457971511876"><ele>644.2</ele><time>2026-03-28T11:26:15Z</time></trkpt><trkpt lat="46.276082796003244" lon="13.301560666891811"><ele>645.4</ele><time>2026-03-28T11:26:16Z</time></trkpt><trkpt lat="46.27603392420208" lon="13.301698625506786"><ele>646.6</ele><time>2026-03-28T11:26:17Z</time></trkpt><trkpt lat="46.27594733835206" lon="13.301791897010602"><ele>647.8000000000001</ele><time>2026-03-28T11:26:18Z</time></trkpt><trkpt lat="46.275839107985234" lon="13.301784494713338"><ele>649.0</ele><time>2026-03-28T11:26:19Z</time></trkpt><trkpt lat="46.27571171646743" lon="13.30176803750388"><ele>645.6666666666667</ele><time>2026-03-28T11:26:20Z</time></trkpt><trkpt lat="46.27556633211873" lon="13.301779745539081"><ele>642.3333333333334</ele><time>2026-03-28T11:26:21Z</time></trkpt><trkpt lat="46.27540689221746" lon="13.301806020314642"><ele>639.0</ele><time>2026-03-28T11:26:22Z</time></trkpt><trkpt lat="46.27525566140518" lon="13.30185372896742"><ele>639.0</ele><time>2026-03-28T11:26:23Z</time></trkpt><trkpt lat="46.2751005084783" lon="13.30190802667787"><ele>639.0</ele><time>2026-03-28T11:26:24Z</time></trkpt><trkpt lat="46.27497719603069" lon="13.301953298711563"><ele>639.0</ele><time>2026-03-28T11:26:25Z</time></trkpt><trkpt lat="46.27486821742079" lon="13.301966849474397"><ele>639.0</ele><time>2026-03-28T11:26:26Z</time></trkpt><trkpt lat="46.27478194611056" lon="13.301892083321492"><ele>638.25</ele><time>2026-03-28T11:26:27Z</time></trkpt><trkpt lat="46.274688894093245" lon="13.301788520153828"><ele>637.5</ele><time>2026-03-28T11:26:28Z</time></trkpt><trkpt lat="46.27457884643268" lon="13.30167633280623"><ele>636.75</ele><time>2026-03-28T11:26:29Z</time></trkpt><trkpt lat="46.27447745584844" lon="13.30157917050249"><ele>636.0</ele><time>2026-03-28T11:26:30Z</time></trkpt><trkpt lat="46.27437283960312" lon="13.30154056230441"><ele>636.0</ele><time>2026-03-28T11:26:31Z</time></trkpt><trkpt lat="46.27426358884628" lon="13.30152062679089"><ele>636.0</ele><time>2026-03-28T11:26:32Z</time></trkpt><trkpt lat="46.274145576530564" lon="13.301590023530078"><ele>636.0</ele><time>2026-03-28T11:26:33Z</time></trkpt><trkpt lat="46.27402478205091" lon="13.301636076412372"><ele>636.0</ele><time>2026-03-28T11:26:34Z</time></trkpt><trkpt lat="46.2739230722992" lon="13.301748165724554"><ele>634.75</ele><time>2026-03-28T11:26:35Z</time></trkpt><trkpt lat="46.27387639123631" lon="13.30190993137367"><ele>633.5</ele><time>2026-03-28T11:26:36Z</time></trkpt><trkpt lat="46.27383142341285" lon="13.302093533786211"><ele>632.25</ele><time>2026-03-28T11:26:37Z</time></trkpt><trkpt lat="46.27376660495057" lon="13.302265711332067"><ele>631.0</ele><time>2026-03-28T11:26:38Z</time></trkpt><trkpt lat="46.27368033367674" lon="13.30242763300709"><ele>631.0</ele><time>2026-03-28T11:26:39Z</time></trkpt><trkpt lat="46.273569942362094" lon="13.30257206139141"><ele>631.0</ele><time>2026-03-28T11:26:40Z</time></trkpt><trkpt lat="46.27345513377963" lon="13.302711669061399"><ele>631.0</ele><time>2026-03-28T11:26:41Z</time></trkpt><trkpt lat="46.273347404485605" lon="13.302840821007633"><ele>631.0</ele><time>2026-03-28T11:26:42Z</time></trkpt><trkpt lat="46.27326391835794" lon="13.3029824040854"><ele>631.4</ele><time>2026-03-28T11:26:43Z</time></trkpt><trkpt lat="46.27319151337879" lon="13.30311601631099"><ele>631.8</ele><time>2026-03-28T11:26:44Z</time></trkpt><trkpt lat="46.273162462060625" lon="13.303243980795093"><ele>632.1999999999999</ele><time>2026-03-28T11:26:45Z</time></trkpt><trkpt lat="46.273182861316045" lon="13.303365588294554"><ele>632.6</ele><time>2026-03-28T11:26:46Z</time></trkpt><trkpt lat="46.27325139594885" lon="13.30347714813481"><ele>633.0</ele><time>2026-03-28T11:26:47Z</time></trkpt><trkpt lat="46.27334703396769" lon="13.303590538044762"><ele>633.0</ele><time>2026-03-28T11:26:48Z</time></trkpt><trkpt lat="46.27344453546692" lon="13.303715920632545"><ele>633.0</ele><time>2026-03-28T11:26:49Z</time></trkpt><trkpt lat="46.27347559021469" lon="13.30388008471596"><ele>633.0</ele><time>2026-03-28T11:26:50Z</time></trkpt><trkpt lat="46.27350662184444" lon="13.304039208821232"><ele>633.0</ele><time>2026-03-28T11:26:51Z</time></trkpt><trkpt lat="46.2735387713866" lon="13.304196035243436"><ele>631.8</ele><time>2026-03-28T11:26:52Z</time></trkpt><trkpt lat="46.27352405078538" lon="13.304332667232387"><ele>630.5999999999999</ele><time>2026-03-28T11:26:53Z</time></trkpt><trkpt lat="46.27346118666721" lon="13.304440156289457"><ele>629.4000000000001</ele><time>2026-03-28T11:26:54Z</time></trkpt><trkpt lat="46.2733481005015" lon="13.304508800292632"><ele>628.2</ele><time>2026-03-28T11:26:55Z</time></trkpt><trkpt lat="46.27326441501614" lon="13.304575185385763"><ele>627.0</ele><time>2026-03-28T11:26:56Z</time></trkpt><trkpt lat="46.2732086495709" lon="13.304692942590965"><ele>627.75</ele><time>2026-03-28T11:26:57Z</time></trkpt><trkpt lat="46.273177339771735" lon="13.304850674705206"><ele>628.5</ele><time>2026-03-28T11:26:58Z</time></trkpt><trkpt lat="46.27314739838647" lon="13.305029463671033"><ele>629.25</ele><time>2026-03-28T11:26:59Z</time></trkpt><trkpt lat="46.27310034611356" lon="13.305205892939238"><ele>630.0</ele><time>2026-03-28T11:27:00Z</time></trkpt><trkpt lat="46.2730337397939" lon="13.305359184545928"><ele>628.4</ele><time>2026-03-28T11:27:01Z</time></trkpt><trkpt lat="46.27296529255093" lon="13.305497763023565"><ele>626.8</ele><time>2026-03-28T11:27:02Z</time></trkpt><trkpt lat="46.272906829355065" lon="13.305631105877668"><ele>625.2</ele><time>2026-03-28T11:27:03Z</time></trkpt><trkpt lat="46.27285206434256" lon="13.305753506057739"><ele>623.6</ele><time>2026-03-28T11:27:04Z</time></trkpt><trkpt lat="46.272798519478165" lon="13.305871101995006"><ele>622.0</ele><time>2026-03-28T11:27:05Z</time></trkpt><trkpt lat="46.272743051454086" lon="13.30599337547232"><ele>622.0</ele><time>2026-03-28T11:27:06Z</time></trkpt><trkpt lat="46.272672599736644" lon="13.306114780991116"><ele>622.0</ele><time>2026-03-28T11:27:07Z</time></trkpt><trkpt lat="46.27262868747115" lon="13.306269143299218"><ele>622.0</ele><time>2026-03-28T11:27:08Z</time></trkpt><trkpt lat="46.27257460727035" lon="13.306390615071535"><ele>622.0</ele><time>2026-03-28T11:27:09Z</time></trkpt><trkpt lat="46.27254108160829" lon="13.306520104929715"><ele>622.0</ele><time>2026-03-28T11:27:10Z</time></trkpt><trkpt lat="46.272522846553244" lon="13.306667403862011"><ele>622.0</ele><time>2026-03-28T11:27:11Z</time></trkpt><trkpt lat="46.27251820302967" lon="13.306826724423706"><ele>622.0</ele><time>2026-03-28T11:27:12Z</time></trkpt><trkpt lat="46.27252038400593" lon="13.30699255105612"><ele>622.0</ele><time>2026-03-28T11:27:13Z</time></trkpt><trkpt lat="46.27252184050154" lon="13.307165234064435"><ele>622.0</ele><time>2026-03-28T11:27:14Z</time></trkpt><trkpt lat="46.272523081731244" lon="13.307334599654336"><ele>621.2</ele><time>2026-03-28T11:27:15Z</time></trkpt><trkpt lat="46.27252139386023" lon="13.307501354312166"><ele>620.4000000000001</ele><time>2026-03-28T11:27:16Z</time></trkpt><trkpt lat="46.27251962238043" lon="13.30765735588216"><ele>619.5999999999999</ele><time>2026-03-28T11:27:17Z</time></trkpt><trkpt lat="46.27253569783715" lon="13.307796682539156"><ele>618.8</ele><time>2026-03-28T11:27:18Z</time></trkpt><trkpt lat="46.272574863754265" lon="13.307943476196733"><ele>618.0</ele><time>2026-03-28T11:27:18.999Z</time></trkpt><trkpt lat="46.27261492647098" lon="13.308103859832233"><ele>617.25</ele><time>2026-03-28T11:27:19.999Z</time></trkpt><trkpt lat="46.27266718377124" lon="13.308264659944326"><ele>616.5</ele><time>2026-03-28T11:27:20.999Z</time></trkpt><trkpt lat="46.27270938766885" lon="13.308428229790907"><ele>615.75</ele><time>2026-03-28T11:27:21.999Z</time></trkpt><trkpt lat="46.27274601098952" lon="13.308585255689787"><ele>615.0</ele><time>2026-03-28T11:27:22.999Z</time></trkpt><trkpt lat="46.272777531784335" lon="13.308734837879136"><ele>615.0</ele><time>2026-03-28T11:27:23.999Z</time></trkpt><trkpt lat="46.27280688167581" lon="13.308884578989561"><ele>615.0</ele><time>2026-03-28T11:27:24.999Z</time></trkpt><trkpt lat="46.27283251711646" lon="13.309043860349943"><ele>615.0</ele><time>2026-03-28T11:27:25.999Z</time></trkpt><trkpt lat="46.272852049073585" lon="13.309209441109102"><ele>615.0</ele><time>2026-03-28T11:27:26.999Z</time></trkpt><trkpt lat="46.27287583059376" lon="13.30937228878827"><ele>614.0</ele><time>2026-03-28T11:27:27.999Z</time></trkpt><trkpt lat="46.27291100190513" lon="13.30952549981359"><ele>613.0</ele><time>2026-03-28T11:27:28.999Z</time></trkpt><trkpt lat="46.272957317790826" lon="13.309679097406578"><ele>612.0</ele><time>2026-03-28T11:27:29.999Z</time></trkpt><trkpt lat="46.27300271989138" lon="13.309824004012729"><ele>611.0</ele><time>2026-03-28T11:27:30.999Z</time></trkpt><trkpt lat="46.2730922430522" lon="13.30993181495712"><ele>611.0</ele><time>2026-03-28T11:27:31.999Z</time></trkpt><trkpt lat="46.27317412654882" lon="13.310043762014839"><ele>611.0</ele><time>2026-03-28T11:27:32.999Z</time></trkpt><trkpt lat="46.27323197828772" lon="13.310165478837847"><ele>611.0</ele><time>2026-03-28T11:27:34Z</time></trkpt><trkpt lat="46.27325044231286" lon="13.310313934393388"><ele>611.0</ele><time>2026-03-28T11:27:35Z</time></trkpt><trkpt lat="46.27323839258021" lon="13.310472917742565"><ele>611.0</ele><time>2026-03-28T11:27:36Z</time></trkpt><trkpt lat="46.27322436193717" lon="13.310632491687477"><ele>611.0</ele><time>2026-03-28T11:27:37Z</time></trkpt><trkpt lat="46.2732430721201" lon="13.310771377045768"><ele>611.0</ele><time>2026-03-28T11:27:38Z</time></trkpt><trkpt lat="46.27327823407304" lon="13.310904137318447"><ele>611.0</ele><time>2026-03-28T11:27:39Z</time></trkpt><trkpt lat="46.273324390798095" lon="13.31104305119041"><ele>611.0</ele><time>2026-03-28T11:27:40Z</time></trkpt><trkpt lat="46.273370017277024" lon="13.311183760905342"><ele>611.0</ele><time>2026-03-28T11:27:41Z</time></trkpt><trkpt lat="46.27345273114041" lon="13.311304047935382"><ele>609.0</ele><time>2026-03-28T11:27:42Z</time></trkpt><trkpt lat="46.27350129674285" lon="13.311434040122096"><ele>607.0</ele><time>2026-03-28T11:27:43Z</time></trkpt><trkpt lat="46.27350719487209" lon="13.311566759501487"><ele>605.0</ele><time>2026-03-28T11:27:44Z</time></trkpt><trkpt lat="46.273509102861716" lon="13.311677428174292"><ele>603.0</ele><time>2026-03-28T11:27:45Z</time></trkpt><trkpt lat="46.2734519140019" lon="13.311761425108088"><ele>601.0</ele><time>2026-03-28T11:27:46Z</time></trkpt><trkpt lat="46.273355532130665" lon="13.311824491685924"><ele>601.0</ele><time>2026-03-28T11:27:47Z</time></trkpt><trkpt lat="46.27325346151632" lon="13.311890836293204"><ele>601.0</ele><time>2026-03-28T11:27:48Z</time></trkpt><trkpt lat="46.273142331306914" lon="13.311935825359004"><ele>601.0</ele><time>2026-03-28T11:27:49Z</time></trkpt><trkpt lat="46.27308776051326" lon="13.31208104369403"><ele>601.0</ele><time>2026-03-28T11:27:50Z</time></trkpt><trkpt lat="46.27302777938963" lon="13.312196890161593"><ele>601.0</ele><time>2026-03-28T11:27:51Z</time></trkpt><trkpt lat="46.27294468809472" lon="13.312277604015161"><ele>597.8</ele><time>2026-03-28T11:27:52Z</time></trkpt><trkpt lat="46.27285241812642" lon="13.312354632160474"><ele>594.6</ele><time>2026-03-28T11:27:53Z</time></trkpt><trkpt lat="46.272782793805646" lon="13.312441825093707"><ele>591.4</ele><time>2026-03-28T11:27:54Z</time></trkpt><trkpt lat="46.2727379523417" lon="13.312566047155057"><ele>588.2</ele><time>2026-03-28T11:27:55Z</time></trkpt><trkpt lat="46.2726965187654" lon="13.312690941044487"><ele>585.0</ele><time>2026-03-28T11:27:56Z</time></trkpt><trkpt lat="46.2726831851184" lon="13.312842478291735"><ele>585.0</ele><time>2026-03-28T11:27:57Z</time></trkpt><trkpt lat="46.27267653473941" lon="13.313006279040973"><ele>585.0</ele><time>2026-03-28T11:27:58Z</time></trkpt><trkpt lat="46.27267621787734" lon="13.313174828757997"><ele>585.0</ele><time>2026-03-28T11:27:59Z</time></trkpt><trkpt lat="46.27266347738777" lon="13.313366989033984"><ele>585.0</ele><time>2026-03-28T11:28:00Z</time></trkpt><trkpt lat="46.272626310617326" lon="13.313561369099208"><ele>584.75</ele><time>2026-03-28T11:28:01Z</time></trkpt><trkpt lat="46.27261427210968" lon="13.313770958292926"><ele>584.5</ele><time>2026-03-28T11:28:02Z</time></trkpt><trkpt lat="46.27257927375917" lon="13.31398162529105"><ele>584.25</ele><time>2026-03-28T11:28:03Z</time></trkpt><trkpt lat="46.27255495275318" lon="13.314194467720581"><ele>584.0</ele><time>2026-03-28T11:28:04Z</time></trkpt><trkpt lat="46.27253461734949" lon="13.314406335892421"><ele>582.5</ele><time>2026-03-28T11:28:05Z</time></trkpt><trkpt lat="46.272525021261536" lon="13.314604302809826"><ele>581.0</ele><time>2026-03-28T11:28:06Z</time></trkpt><trkpt lat="46.27252308200558" lon="13.314790154202758"><ele>579.5</ele><time>2026-03-28T11:28:07Z</time></trkpt><trkpt lat="46.272521693248514" lon="13.314956521074548"><ele>578.0</ele><time>2026-03-28T11:28:08Z</time></trkpt><trkpt lat="46.272513765455344" lon="13.31509354066618"><ele>577.1999999999999</ele><time>2026-03-28T11:28:09Z</time></trkpt><trkpt lat="46.27247889501594" lon="13.315188420151259"><ele>576.4</ele><time>2026-03-28T11:28:10Z</time></trkpt><trkpt lat="46.272393229331755" lon="13.315280233296265"><ele>575.5999999999999</ele><time>2026-03-28T11:28:12Z</time></trkpt><trkpt lat="46.27236285407319" lon="13.315090366540401"><ele>574.8</ele><time>2026-03-28T11:28:14Z</time></trkpt><trkpt lat="46.27230673736131" lon="13.315023326125269"><ele>574.0</ele><time>2026-03-28T11:28:15Z</time></trkpt><trkpt lat="46.27225748067465" lon="13.314934010452731"><ele>570.8333333333334</ele><time>2026-03-28T11:28:16Z</time></trkpt><trkpt lat="46.27221645778026" lon="13.3148608182399"><ele>567.6666666666667</ele><time>2026-03-28T11:28:17Z</time></trkpt><trkpt lat="46.27214099953348" lon="13.314893579593031"><ele>564.5</ele><time>2026-03-28T11:28:18Z</time></trkpt><trkpt lat="46.272065680250996" lon="13.315035761201814"><ele>561.3333333333334</ele><time>2026-03-28T11:28:20Z</time></trkpt><trkpt lat="46.272023913210056" lon="13.315135184302447"><ele>558.1666666666666</ele><time>2026-03-28T11:28:21Z</time></trkpt><trkpt lat="46.271986440945064" lon="13.315241407033163"><ele>555.0</ele><time>2026-03-28T11:28:22Z</time></trkpt><trkpt lat="46.27196064152878" lon="13.315375853855505"><ele>555.0</ele><time>2026-03-28T11:28:23Z</time></trkpt><trkpt lat="46.27194977584336" lon="13.315543449485956"><ele>555.0</ele><time>2026-03-28T11:28:24Z</time></trkpt><trkpt lat="46.27195040285996" lon="13.31570285698356"><ele>555.0</ele><time>2026-03-28T11:28:25Z</time></trkpt><trkpt lat="46.271956133390304" lon="13.315861935563113"><ele>555.0</ele><time>2026-03-28T11:28:26Z</time></trkpt><trkpt lat="46.271967427651155" lon="13.316039905087383"><ele>554.25</ele><time>2026-03-28T11:28:27Z</time></trkpt><trkpt lat="46.27197339020611" lon="13.316224885393352"><ele>553.5</ele><time>2026-03-28T11:28:28Z</time></trkpt><trkpt lat="46.27198233030156" lon="13.316406015348242"><ele>552.75</ele><time>2026-03-28T11:28:29Z</time></trkpt><trkpt lat="46.27199372530746" lon="13.316570977727865"><ele>552.0</ele><time>2026-03-28T11:28:30Z</time></trkpt><trkpt lat="46.27200309889945" lon="13.31674418267344"><ele>551.25</ele><time>2026-03-28T11:28:31Z</time></trkpt><trkpt lat="46.27201654848217" lon="13.316934868184635"><ele>550.5</ele><time>2026-03-28T11:28:32Z</time></trkpt><trkpt lat="46.272024527943216" lon="13.317113779632576"><ele>549.75</ele><time>2026-03-28T11:28:33Z</time></trkpt><trkpt lat="46.272033120854765" lon="13.317282236515764"><ele>549.0</ele><time>2026-03-28T11:28:34Z</time></trkpt><trkpt lat="46.27203657667012" lon="13.317446959538021"><ele>548.8</ele><time>2026-03-28T11:28:35Z</time></trkpt><trkpt lat="46.27205033992659" lon="13.317603738010497"><ele>548.5999999999999</ele><time>2026-03-28T11:28:36Z</time></trkpt><trkpt lat="46.27207734450824" lon="13.317756253886069"><ele>548.4</ele><time>2026-03-28T11:28:37Z</time></trkpt><trkpt lat="46.272127510735125" lon="13.31789094898132"><ele>548.1999999999999</ele><time>2026-03-28T11:28:38Z</time></trkpt><trkpt lat="46.27220311870599" lon="13.317994301961173"><ele>548.0</ele><time>2026-03-28T11:28:39Z</time></trkpt><trkpt lat="46.27227423660682" lon="13.318105229093193"><ele>549.0</ele><time>2026-03-28T11:28:40Z</time></trkpt><trkpt lat="46.27231735991041" lon="13.318225634531206"><ele>550.0</ele><time>2026-03-28T11:28:41Z</time></trkpt><trkpt lat="46.27231833093715" lon="13.318348441231736"><ele>551.0</ele><time>2026-03-28T11:28:42Z</time></trkpt><trkpt lat="46.27227830917502" lon="13.31844759719308"><ele>552.0</ele><time>2026-03-28T11:28:43Z</time></trkpt><trkpt lat="46.27219557348988" lon="13.318473142018847"><ele>553.0</ele><time>2026-03-28T11:28:44Z</time></trkpt><trkpt lat="46.27212448461222" lon="13.318552052170263"><ele>554.0</ele><time>2026-03-28T11:28:46Z</time></trkpt><trkpt lat="46.27219137428025" lon="13.318720363398436"><ele>553.0</ele><time>2026-03-28T11:28:47Z</time></trkpt><trkpt lat="46.272247494245875" lon="13.318818478575269"><ele>552.0</ele><time>2026-03-28T11:28:48Z</time></trkpt><trkpt lat="46.272304060543384" lon="13.318918856016888"><ele>551.0</ele><time>2026-03-28T11:28:49Z</time></trkpt><trkpt lat="46.272362048598644" lon="13.319026478183812"><ele>550.0</ele><time>2026-03-28T11:28:50Z</time></trkpt><trkpt lat="46.272413212774914" lon="13.319127215708333"><ele>549.0</ele><time>2026-03-28T11:28:51Z</time></trkpt><trkpt lat="46.272464813289986" lon="13.319225460828834"><ele>548.0</ele><time>2026-03-28T11:28:52Z</time></trkpt><trkpt lat="46.272522866365684" lon="13.319313527262292"><ele>548.0</ele><time>2026-03-28T11:28:53Z</time></trkpt><trkpt lat="46.27258939717642" lon="13.319396045046009"><ele>548.0</ele><time>2026-03-28T11:28:54Z</time></trkpt><trkpt lat="46.27265709256908" lon="13.319481056800795"><ele>548.0</ele><time>2026-03-28T11:28:55Z</time></trkpt><trkpt lat="46.272726041197835" lon="13.319584922321793"><ele>548.0</ele><time>2026-03-28T11:28:56Z</time></trkpt><trkpt lat="46.272801943140024" lon="13.319687356081706"><ele>548.0</ele><time>2026-03-28T11:28:57Z</time></trkpt><trkpt lat="46.27285790379413" lon="13.319819997426235"><ele>546.75</ele><time>2026-03-28T11:28:58Z</time></trkpt><trkpt lat="46.27283895253025" lon="13.31998110221133"><ele>545.5</ele><time>2026-03-28T11:28:59Z</time></trkpt><trkpt lat="46.27282228129156" lon="13.320160715002391"><ele>544.25</ele><time>2026-03-28T11:29:00Z</time></trkpt><trkpt lat="46.27281265393217" lon="13.32034762585202"><ele>543.0</ele><time>2026-03-28T11:29:01Z</time></trkpt><trkpt lat="46.27279004099182" lon="13.320533618800942"><ele>542.8</ele><time>2026-03-28T11:29:02Z</time></trkpt><trkpt lat="46.27275304996041" lon="13.320712766857225"><ele>542.5999999999999</ele><time>2026-03-28T11:29:03Z</time></trkpt><trkpt lat="46.272733197737395" lon="13.320875853452604"><ele>542.4000000000001</ele><time>2026-03-28T11:29:04Z</time></trkpt><trkpt lat="46.27273441212809" lon="13.321024286721615"><ele>542.2</ele><time>2026-03-28T11:29:05Z</time></trkpt><trkpt lat="46.2727259463783" lon="13.321153125193204"><ele>542.0</ele><time>2026-03-28T11:29:06Z</time></trkpt><trkpt lat="46.27273977372326" lon="13.321292077688646"><ele>539.75</ele><time>2026-03-28T11:29:07Z</time></trkpt><trkpt lat="46.27279185068339" lon="13.32143060203544"><ele>537.5</ele><time>2026-03-28T11:29:08.001Z</time></trkpt><trkpt lat="46.27287228189037" lon="13.321545045229254"><ele>535.25</ele><time>2026-03-28T11:29:09.001Z</time></trkpt><trkpt lat="46.27296645833107" lon="13.321612608386127"><ele>533.0</ele><time>2026-03-28T11:29:10.001Z</time></trkpt><trkpt lat="46.27308181595047" lon="13.321672702809648"><ele>540.75</ele><time>2026-03-28T11:29:11.001Z</time></trkpt><trkpt lat="46.27319737715013" lon="13.32173438909603"><ele>548.5</ele><time>2026-03-28T11:29:12.001Z</time></trkpt><trkpt lat="46.27327978568894" lon="13.321856542930215"><ele>556.25</ele><time>2026-03-28T11:29:13.001Z</time></trkpt><trkpt lat="46.27333166701073" lon="13.32200379856565"><ele>564.0</ele><time>2026-03-28T11:29:14.001Z</time></trkpt><trkpt lat="46.27337214175489" lon="13.322162534609687"><ele>560.5</ele><time>2026-03-28T11:29:15.001Z</time></trkpt><trkpt lat="46.27340984663113" lon="13.32232482845247"><ele>557.0</ele><time>2026-03-28T11:29:16.001Z</time></trkpt><trkpt lat="46.27345391625035" lon="13.322483189207633"><ele>553.5</ele><time>2026-03-28T11:29:17.001Z</time></trkpt><trkpt lat="46.273491081633715" lon="13.322638373020625"><ele>550.0</ele><time>2026-03-28T11:29:18.001Z</time></trkpt><trkpt lat="46.273507529396234" lon="13.322784366650666"><ele>550.0</ele><time>2026-03-28T11:29:19.001Z</time></trkpt><trkpt lat="46.27348477139648" lon="13.322926802067226"><ele>550.0</ele><time>2026-03-28T11:29:20.001Z</time></trkpt><trkpt lat="46.27341202010642" lon="13.323050081251496"><ele>550.0</ele><time>2026-03-28T11:29:21.001Z</time></trkpt><trkpt lat="46.27330746234087" lon="13.323142528872564"><ele>550.0</ele><time>2026-03-28T11:29:22.001Z</time></trkpt><trkpt lat="46.27325508153578" lon="13.323265535103054"><ele>550.0</ele><time>2026-03-28T11:29:23.001Z</time></trkpt><trkpt lat="46.2732219968884" lon="13.323387643095671"><ele>551.0</ele><time>2026-03-28T11:29:24.001Z</time></trkpt><trkpt lat="46.273202133257534" lon="13.323538357627912"><ele>552.0</ele><time>2026-03-28T11:29:25Z</time></trkpt><trkpt lat="46.273208315030374" lon="13.32369326399827"><ele>553.0</ele><time>2026-03-28T11:29:26Z</time></trkpt><trkpt lat="46.273222212588514" lon="13.323868321983353"><ele>554.0</ele><time>2026-03-28T11:29:27Z</time></trkpt><trkpt lat="46.27323305863594" lon="13.324045177777137"><ele>554.0</ele><time>2026-03-28T11:29:28Z</time></trkpt><trkpt lat="46.27323184011331" lon="13.324220617585384"><ele>554.0</ele><time>2026-03-28T11:29:29Z</time></trkpt><trkpt lat="46.27323457928412" lon="13.324392367187029"><ele>554.0</ele><time>2026-03-28T11:29:30Z</time></trkpt><trkpt lat="46.27319499185761" lon="13.32454714303442"><ele>554.0</ele><time>2026-03-28T11:29:31Z</time></trkpt><trkpt lat="46.27315321415114" lon="13.324702967188324"><ele>555.25</ele><time>2026-03-28T11:29:32Z</time></trkpt><trkpt lat="46.273104907736574" lon="13.324868795703022"><ele>556.5</ele><time>2026-03-28T11:29:33Z</time></trkpt><trkpt lat="46.27305565317302" lon="13.325037018371603"><ele>557.75</ele><time>2026-03-28T11:29:34Z</time></trkpt><trkpt lat="46.27300590847913" lon="13.32521330645638"><ele>559.0</ele><time>2026-03-28T11:29:35Z</time></trkpt><trkpt lat="46.27294184805894" lon="13.325377499834202"><ele>559.0</ele><time>2026-03-28T11:29:36Z</time></trkpt><trkpt lat="46.27285444904812" lon="13.325502900568516"><ele>559.0</ele><time>2026-03-28T11:29:37Z</time></trkpt><trkpt lat="46.272747562215386" lon="13.325629239402312"><ele>559.0</ele><time>2026-03-28T11:29:38Z</time></trkpt><trkpt lat="46.27264753155711" lon="13.325757452501303"><ele>559.0</ele><time>2026-03-28T11:29:39Z</time></trkpt><trkpt lat="46.27255185156316" lon="13.32587580631243"><ele>562.75</ele><time>2026-03-28T11:29:40Z</time></trkpt><trkpt lat="46.27249305892857" lon="13.326030934806493"><ele>566.5</ele><time>2026-03-28T11:29:41Z</time></trkpt><trkpt lat="46.272430021421584" lon="13.326150271278765"><ele>570.25</ele><time>2026-03-28T11:29:42Z</time></trkpt><trkpt lat="46.27235436015586" lon="13.326270508437533"><ele>574.0</ele><time>2026-03-28T11:29:43Z</time></trkpt><trkpt lat="46.272288376486976" lon="13.326403733659477"><ele>571.75</ele><time>2026-03-28T11:29:44Z</time></trkpt><trkpt lat="46.27220287762832" lon="13.326505888557504"><ele>569.5</ele><time>2026-03-28T11:29:45Z</time></trkpt><trkpt lat="46.27215021382259" lon="13.326645747888167"><ele>567.25</ele><time>2026-03-28T11:29:46Z</time></trkpt><trkpt lat="46.27210898474003" lon="13.326804802573585"><ele>565.0</ele><time>2026-03-28T11:29:47Z</time></trkpt><trkpt lat="46.27204654983349" lon="13.326960650708708"><ele>565.0</ele><time>2026-03-28T11:29:48Z</time></trkpt><trkpt lat="46.272006505566935" lon="13.327128508140248"><ele>565.0</ele><time>2026-03-28T11:29:49Z</time></trkpt><trkpt lat="46.271950255432344" lon="13.32730021230403"><ele>565.0</ele><time>2026-03-28T11:29:50Z</time></trkpt><trkpt lat="46.27189174441993" lon="13.327492756109312"><ele>565.0</ele><time>2026-03-28T11:29:51Z</time></trkpt><trkpt lat="46.27183534705389" lon="13.327668669646286"><ele>562.0</ele><time>2026-03-28T11:29:52Z</time></trkpt><trkpt lat="46.271791896006654" lon="13.3278494658256"><ele>559.0</ele><time>2026-03-28T11:29:53Z</time></trkpt><trkpt lat="46.271748702731024" lon="13.328024345523312"><ele>556.0</ele><time>2026-03-28T11:29:54Z</time></trkpt><trkpt lat="46.27171059605343" lon="13.328187646250457"><ele>553.0</ele><time>2026-03-28T11:29:55Z</time></trkpt><trkpt lat="46.27168944576378" lon="13.328363102915953"><ele>552.0</ele><time>2026-03-28T11:29:56Z</time></trkpt><trkpt lat="46.27167949382535" lon="13.328538075256064"><ele>551.0</ele><time>2026-03-28T11:29:57Z</time></trkpt><trkpt lat="46.27171078932292" lon="13.328702488355612"><ele>550.0</ele><time>2026-03-28T11:29:58Z</time></trkpt><trkpt lat="46.27174809154981" lon="13.328881713311313"><ele>549.0</ele><time>2026-03-28T11:29:59Z</time></trkpt><trkpt lat="46.27178166684566" lon="13.329060892140404"><ele>546.25</ele><time>2026-03-28T11:30:00Z</time></trkpt><trkpt lat="46.27181304517522" lon="13.329246229408334"><ele>543.5</ele><time>2026-03-28T11:30:01Z</time></trkpt><trkpt lat="46.27184698098217" lon="13.329415585358769"><ele>540.75</ele><time>2026-03-28T11:30:02Z</time></trkpt><trkpt lat="46.271863561825086" lon="13.329578904318955"><ele>538.0</ele><time>2026-03-28T11:30:03Z</time></trkpt><trkpt lat="46.27188466522052" lon="13.329732975316348"><ele>535.0</ele><time>2026-03-28T11:30:04Z</time></trkpt><trkpt lat="46.27193723822754" lon="13.329884205226751"><ele>532.0</ele><time>2026-03-28T11:30:05Z</time></trkpt><trkpt lat="46.27197264536272" lon="13.330038958233592"><ele>529.0</ele><time>2026-03-28T11:30:06Z</time></trkpt><trkpt lat="46.272037426932066" lon="13.330201471115576"><ele>526.0</ele><time>2026-03-28T11:30:07Z</time></trkpt><trkpt lat="46.27207747191208" lon="13.330358970605683"><ele>526.0</ele><time>2026-03-28T11:30:08Z</time></trkpt><trkpt lat="46.27213602598513" lon="13.330498824888036"><ele>526.0</ele><time>2026-03-28T11:30:09Z</time></trkpt><trkpt lat="46.27218800811776" lon="13.330625474974774"><ele>526.0</ele><time>2026-03-28T11:30:10Z</time></trkpt><trkpt lat="46.272268073965414" lon="13.330720879969029"><ele>526.0</ele><time>2026-03-28T11:30:11Z</time></trkpt><trkpt lat="46.27236275222446" lon="13.330775090124535"><ele>526.0</ele><time>2026-03-28T11:30:12Z</time></trkpt><trkpt lat="46.27247076650944" lon="13.330822730011578"><ele>527.8</ele><time>2026-03-28T11:30:13Z</time></trkpt><trkpt lat="46.27252695595353" lon="13.330946526825647"><ele>529.6</ele><time>2026-03-28T11:30:14Z</time></trkpt><trkpt lat="46.27257281402204" lon="13.331064138980766"><ele>531.4</ele><time>2026-03-28T11:30:15Z</time></trkpt><trkpt lat="46.272604218123675" lon="13.331195903821687"><ele>533.2</ele><time>2026-03-28T11:30:16Z</time></trkpt><trkpt lat="46.27260412894303" lon="13.331342178761432"><ele>535.0</ele><time>2026-03-28T11:30:17Z</time></trkpt><trkpt lat="46.27258164537557" lon="13.33151229245963"><ele>535.0</ele><time>2026-03-28T11:30:18Z</time></trkpt><trkpt lat="46.272527743666394" lon="13.33169848176686"><ele>535.0</ele><time>2026-03-28T11:30:19Z</time></trkpt><trkpt lat="46.2724780532507" lon="13.331889548862929"><ele>535.0</ele><time>2026-03-28T11:30:20Z</time></trkpt><trkpt lat="46.27243581814438" lon="13.33207410752966"><ele>535.0</ele><time>2026-03-28T11:30:21Z</time></trkpt><trkpt lat="46.2724035108428" lon="13.332241885969239"><ele>534.1666666666667</ele><time>2026-03-28T11:30:22Z</time></trkpt><trkpt lat="46.27237229144118" lon="13.33239490778703"><ele>533.3333333333334</ele><time>2026-03-28T11:30:23Z</time></trkpt><trkpt lat="46.272356302446624" lon="13.332502752100087"><ele>532.5</ele><time>2026-03-28T11:30:24Z</time></trkpt><trkpt lat="46.272358881721765" lon="13.332616547789085"><ele>531.6666666666666</ele><time>2026-03-28T11:30:25Z</time></trkpt><trkpt lat="46.272400248427026" lon="13.332712875701139"><ele>530.8333333333333</ele><time>2026-03-28T11:30:26Z</time></trkpt><trkpt lat="46.272481843945805" lon="13.332803626256435"><ele>530.0</ele><time>2026-03-28T11:30:27Z</time></trkpt><trkpt lat="46.272574060915154" lon="13.33286825403469"><ele>530.0</ele><time>2026-03-28T11:30:28Z</time></trkpt><trkpt lat="46.27267283407322" lon="13.332960034142712"><ele>530.0</ele><time>2026-03-28T11:30:29Z</time></trkpt><trkpt lat="46.272796478035744" lon="13.333029170502407"><ele>530.0</ele><time>2026-03-28T11:30:30Z</time></trkpt><trkpt lat="46.27292128538562" lon="13.333056007941341"><ele>530.0</ele><time>2026-03-28T11:30:31Z</time></trkpt><trkpt lat="46.273040228640035" lon="13.333064264252624"><ele>528.8</ele><time>2026-03-28T11:30:32Z</time></trkpt><trkpt lat="46.273154145293546" lon="13.333066299973812"><ele>527.6</ele><time>2026-03-28T11:30:33Z</time></trkpt><trkpt lat="46.27326159715626" lon="13.33307200853141"><ele>526.4</ele><time>2026-03-28T11:30:34Z</time></trkpt><trkpt lat="46.27333160169501" lon="13.33305296489134"><ele>525.2</ele><time>2026-03-28T11:30:35Z</time></trkpt><trkpt lat="46.27342340023459" lon="13.333091496872541"><ele>524.0</ele><time>2026-03-28T11:30:36Z</time></trkpt><trkpt lat="46.27347989997282" lon="13.333179020248838"><ele>524.0</ele><time>2026-03-28T11:30:37Z</time></trkpt><trkpt lat="46.27350756357723" lon="13.333321139141903"><ele>524.0</ele><time>2026-03-28T11:30:38Z</time></trkpt><trkpt lat="46.273481543608106" lon="13.333499349914586"><ele>524.0</ele><time>2026-03-28T11:30:39Z</time></trkpt><trkpt lat="46.27340836295656" lon="13.33368493591191"><ele>524.0</ele><time>2026-03-28T11:30:40Z</time></trkpt><trkpt lat="46.27338565087054" lon="13.333852885521054"><ele>522.25</ele><time>2026-03-28T11:30:41Z</time></trkpt><trkpt lat="46.27340803005386" lon="13.334014297980879"><ele>520.5</ele><time>2026-03-28T11:30:42Z</time></trkpt><trkpt lat="46.27341025424905" lon="13.334175267066557"><ele>518.75</ele><time>2026-03-28T11:30:43.001Z</time></trkpt><trkpt lat="46.2734143215592" lon="13.334347755974171"><ele>517.0</ele><time>2026-03-28T11:30:44.001Z</time></trkpt><trkpt lat="46.27342047560516" lon="13.334526135250258"><ele>517.0</ele><time>2026-03-28T11:30:45.001Z</time></trkpt><trkpt lat="46.27343227084092" lon="13.334690264582097"><ele>517.0</ele><time>2026-03-28T11:30:46.001Z</time></trkpt><trkpt lat="46.2734355151845" lon="13.334838582620554"><ele>517.0</ele><time>2026-03-28T11:30:47.001Z</time></trkpt><trkpt lat="46.27344635138109" lon="13.334958734418636"><ele>517.0</ele><time>2026-03-28T11:30:48.001Z</time></trkpt><trkpt lat="46.27351928921737" lon="13.335047651825345"><ele>517.0</ele><time>2026-03-28T11:30:49.001Z</time></trkpt><trkpt lat="46.27360089292259" lon="13.335135269207575"><ele>514.75</ele><time>2026-03-28T11:30:50.001Z</time></trkpt><trkpt lat="46.273693475603366" lon="13.335208334838681"><ele>512.5</ele><time>2026-03-28T11:30:51.001Z</time></trkpt><trkpt lat="46.27379616399882" lon="13.33529744882836"><ele>510.25</ele><time>2026-03-28T11:30:52.001Z</time></trkpt><trkpt lat="46.273904635826376" lon="13.335388285650549"><ele>508.0</ele><time>2026-03-28T11:30:53.001Z</time></trkpt><trkpt lat="46.27401519004239" lon="13.335473882931948"><ele>509.2</ele><time>2026-03-28T11:30:54.001Z</time></trkpt><trkpt lat="46.27411883189584" lon="13.335549179982376"><ele>510.4</ele><time>2026-03-28T11:30:55.001Z</time></trkpt><trkpt lat="46.27421718255835" lon="13.335602113223056"><ele>511.59999999999997</ele><time>2026-03-28T11:30:56.001Z</time></trkpt><trkpt lat="46.27432788359822" lon="13.335617323516045"><ele>512.8</ele><time>2026-03-28T11:30:57.001Z</time></trkpt><trkpt lat="46.27442552127813" lon="13.335606486471274"><ele>514.0</ele><time>2026-03-28T11:30:58.001Z</time></trkpt><trkpt lat="46.274528028062804" lon="13.335551820371746"><ele>518.4</ele><time>2026-03-28T11:30:59.001Z</time></trkpt><trkpt lat="46.27463853927451" lon="13.335494794235812"><ele>522.8</ele><time>2026-03-28T11:31:00.001Z</time></trkpt><trkpt lat="46.27473943229983" lon="13.335440316574589"><ele>527.2</ele><time>2026-03-28T11:31:01.001Z</time></trkpt><trkpt lat="46.27483377048106" lon="13.33538641200238"><ele>531.6</ele><time>2026-03-28T11:31:02.001Z</time></trkpt><trkpt lat="46.27491523903893" lon="13.335355476098755"><ele>536.0</ele><time>2026-03-28T11:31:03.001Z</time></trkpt><trkpt lat="46.27498007327112" lon="13.33536316596105"><ele>535.8</ele><time>2026-03-28T11:31:04.001Z</time></trkpt><trkpt lat="46.274991125799616" lon="13.33546393542751"><ele>535.6</ele><time>2026-03-28T11:31:05.001Z</time></trkpt><trkpt lat="46.274940879704715" lon="13.335544549027723"><ele>535.4</ele><time>2026-03-28T11:31:06.001Z</time></trkpt><trkpt lat="46.274898665106186" lon="13.335640472213711"><ele>535.2</ele><time>2026-03-28T11:31:07.001Z</time></trkpt><trkpt lat="46.274816509840235" lon="13.335801909703218"><ele>535.0</ele><time>2026-03-28T11:31:08.001Z</time></trkpt><trkpt lat="46.27476947946735" lon="13.335957250934001"><ele>530.8</ele><time>2026-03-28T11:31:09.001Z</time></trkpt><trkpt lat="46.27471151855061" lon="13.336107082095266"><ele>526.6</ele><time>2026-03-28T11:31:10.001Z</time></trkpt><trkpt lat="46.27463794550111" lon="13.336218361539991"><ele>522.4</ele><time>2026-03-28T11:31:11.001Z</time></trkpt><trkpt lat="46.274543160417736" lon="13.336255653745813"><ele>518.2</ele><time>2026-03-28T11:31:12.001Z</time></trkpt><trkpt lat="46.27442653825946" lon="13.33628919566806"><ele>514.0</ele><time>2026-03-28T11:31:13.001Z</time></trkpt><trkpt lat="46.274303075603896" lon="13.336338584907534"><ele>513.5</ele><time>2026-03-28T11:31:14.001Z</time></trkpt><trkpt lat="46.274181439984055" lon="13.336448773695592"><ele>513.0</ele><time>2026-03-28T11:31:15.001Z</time></trkpt><trkpt lat="46.2740832137944" lon="13.336590052229397"><ele>512.5</ele><time>2026-03-28T11:31:16.001Z</time></trkpt><trkpt lat="46.27397245823521" lon="13.33668622874676"><ele>512.0</ele><time>2026-03-28T11:31:17.001Z</time></trkpt><trkpt lat="46.27387215184924" lon="13.336783925818287"><ele>512.0</ele><time>2026-03-28T11:31:18.001Z</time></trkpt><trkpt lat="46.27376466606701" lon="13.336852404393943"><ele>512.0</ele><time>2026-03-28T11:31:19.001Z</time></trkpt><trkpt lat="46.27365002970568" lon="13.336905076542276"><ele>512.0</ele><time>2026-03-28T11:31:20.001Z</time></trkpt><trkpt lat="46.27352336246663" lon="13.336949426765264"><ele>512.0</ele><time>2026-03-28T11:31:21.001Z</time></trkpt><trkpt lat="46.27339376620167" lon="13.336989846072054"><ele>512.0</ele><time>2026-03-28T11:31:22.001Z</time></trkpt><trkpt lat="46.27325719659717" lon="13.337026551923389"><ele>512.0</ele><time>2026-03-28T11:31:23.001Z</time></trkpt><trkpt lat="46.27311804784553" lon="13.337059287489788"><ele>512.0</ele><time>2026-03-28T11:31:24.001Z</time></trkpt><trkpt lat="46.27299007504156" lon="13.337086046829153"><ele>512.0</ele><time>2026-03-28T11:31:25.001Z</time></trkpt><trkpt lat="46.27287519186483" lon="13.337113903010568"><ele>512.3333333333333</ele><time>2026-03-28T11:31:26.001Z</time></trkpt><trkpt lat="46.272781341003814" lon="13.33715516347042"><ele>512.6666666666666</ele><time>2026-03-28T11:31:27.001Z</time></trkpt><trkpt lat="46.27269935139034" lon="13.33719466529784"><ele>513.0</ele><time>2026-03-28T11:31:28.001Z</time></trkpt><trkpt lat="46.27262420350907" lon="13.33722724330574"><ele>513.3333333333334</ele><time>2026-03-28T11:31:29.001Z</time></trkpt><trkpt lat="46.27256305519567" lon="13.337295511189716"><ele>513.6666666666667</ele><time>2026-03-28T11:31:30.001Z</time></trkpt><trkpt lat="46.27253041174996" lon="13.337423090384354"><ele>514.0</ele><time>2026-03-28T11:31:31Z</time></trkpt><trkpt lat="46.272496168841" lon="13.337558226689184"><ele>514.0</ele><time>2026-03-28T11:31:32Z</time></trkpt><trkpt lat="46.27246530793035" lon="13.337691288883958"><ele>514.0</ele><time>2026-03-28T11:31:33Z</time></trkpt><trkpt lat="46.27243076010942" lon="13.337827101250221"><ele>514.0</ele><time>2026-03-28T11:31:34Z</time></trkpt><trkpt lat="46.27238946038289" lon="13.33795515587219"><ele>514.0</ele><time>2026-03-28T11:31:35Z</time></trkpt><trkpt lat="46.2723485937658" lon="13.338071814454718"><ele>514.0</ele><time>2026-03-28T11:31:36Z</time></trkpt><trkpt lat="46.27231739081141" lon="13.33818303078511"><ele>514.6666666666667</ele><time>2026-03-28T11:31:37Z</time></trkpt><trkpt lat="46.27227101870157" lon="13.338279082968954"><ele>515.3333333333334</ele><time>2026-03-28T11:31:38Z</time></trkpt><trkpt lat="46.2722640574912" lon="13.338377713653422"><ele>516.0</ele><time>2026-03-28T11:31:39Z</time></trkpt><trkpt lat="46.272258453563836" lon="13.338492736555285"><ele>516.6666666666666</ele><time>2026-03-28T11:31:40Z</time></trkpt><trkpt lat="46.27237557168806" lon="13.338585664510154"><ele>517.3333333333333</ele><time>2026-03-28T11:31:41Z</time></trkpt><trkpt lat="46.2724426710056" lon="13.33865737585858"><ele>518.0</ele><time>2026-03-28T11:31:42Z</time></trkpt><trkpt lat="46.2725198559888" lon="13.338701249828368"><ele>518.0</ele><time>2026-03-28T11:31:43Z</time></trkpt><trkpt lat="46.272603625372646" lon="13.338723303977664"><ele>518.0</ele><time>2026-03-28T11:31:44Z</time></trkpt><trkpt lat="46.272687330403016" lon="13.338738226289632"><ele>518.0</ele><time>2026-03-28T11:31:45Z</time></trkpt><trkpt lat="46.27275554514832" lon="13.338756560845892"><ele>518.0</ele><time>2026-03-28T11:31:46Z</time></trkpt><trkpt lat="46.27285846715355" lon="13.338811725025504"><ele>518.0</ele><time>2026-03-28T11:31:48Z</time></trkpt><trkpt lat="46.27290155674149" lon="13.338881630843266"><ele>518.0</ele><time>2026-03-28T11:31:50Z</time></trkpt><trkpt lat="46.272827162982836" lon="13.338801659063716"><ele>518.0</ele><time>2026-03-28T11:32:42Z</time></trkpt><trkpt lat="46.272740748260745" lon="13.338797492633867"><ele>518.0</ele><time>2026-03-28T11:32:43Z</time></trkpt><trkpt lat="46.272644068782924" lon="13.338770240956354"><ele>518.0</ele><time>2026-03-28T11:32:45Z</time></trkpt><trkpt lat="46.27255458675764" lon="13.338755597522605"><ele>518.0</ele><time>2026-03-28T11:32:47.001Z</time></trkpt><trkpt lat="46.2724507753282" lon="13.338707411351125"><ele>518.0</ele><time>2026-03-28T11:32:49.001Z</time></trkpt><trkpt lat="46.272356976108235" lon="13.338615353340003"><ele>518.0</ele><time>2026-03-28T11:32:51.001Z</time></trkpt><trkpt lat="46.27231592770745" lon="13.33848386147678"><ele>518.0</ele><time>2026-03-28T11:32:53.001Z</time></trkpt><trkpt lat="46.27232163922861" lon="13.338356018490451"><ele>518.0</ele><time>2026-03-28T11:32:55.001Z</time></trkpt><trkpt lat="46.27227692729862" lon="13.338275383010037"><ele>518.0</ele><time>2026-03-28T11:32:58.001Z</time></trkpt><trkpt lat="46.27225023089631" lon="13.338360029956023"><ele>518.0</ele><time>2026-03-28T11:33:00.001Z</time></trkpt><trkpt lat="46.2722496372973" lon="13.33846737882353"><ele>518.0</ele><time>2026-03-28T11:33:01.001Z</time></trkpt><trkpt lat="46.272267913454925" lon="13.33856107849909"><ele>518.0</ele><time>2026-03-28T11:33:02.001Z</time></trkpt><trkpt lat="46.27229495470784" lon="13.338738645375349"><ele>518.0</ele><time>2026-03-28T11:33:04.001Z</time></trkpt><trkpt lat="46.27234221387754" lon="13.338810900041247"><ele>518.0</ele><time>2026-03-28T11:33:05.001Z</time></trkpt><trkpt lat="46.27241197951072" lon="13.338873837885371"><ele>518.0</ele><time>2026-03-28T11:33:06.001Z</time></trkpt><trkpt lat="46.272486575708136" lon="13.338931358184384"><ele>518.0</ele><time>2026-03-28T11:33:07.001Z</time></trkpt><trkpt lat="46.272537769711434" lon="13.33903299349323"><ele>518.0</ele><time>2026-03-28T11:33:08.001Z</time></trkpt><trkpt lat="46.27255535619965" lon="13.339165282152278"><ele>518.1999999999999</ele><time>2026-03-28T11:33:09.001Z</time></trkpt><trkpt lat="46.27254009643408" lon="13.339299480277665"><ele>518.4</ele><time>2026-03-28T11:33:10.001Z</time></trkpt><trkpt lat="46.272500156919726" lon="13.339401424036117"><ele>518.5999999999999</ele><time>2026-03-28T11:33:11.001Z</time></trkpt><trkpt lat="46.27242659595459" lon="13.339483186780324"><ele>518.8</ele><time>2026-03-28T11:33:12.001Z</time></trkpt><trkpt lat="46.27233592166652" lon="13.339538100991255"><ele>519.0</ele><time>2026-03-28T11:33:13.001Z</time></trkpt><trkpt lat="46.27223327551203" lon="13.339593419531015"><ele>515.2</ele><time>2026-03-28T11:33:14.001Z</time></trkpt><trkpt lat="46.27216744178564" lon="13.339707784109399"><ele>511.4</ele><time>2026-03-28T11:33:15.001Z</time></trkpt><trkpt lat="46.272154110690195" lon="13.339870959808831"><ele>507.6</ele><time>2026-03-28T11:33:16.001Z</time></trkpt><trkpt lat="46.27210969174974" lon="13.340007700998695"><ele>503.8</ele><time>2026-03-28T11:33:17.001Z</time></trkpt><trkpt lat="46.27206678733352" lon="13.34013135119698"><ele>500.0</ele><time>2026-03-28T11:33:18.001Z</time></trkpt><trkpt lat="46.27200481622156" lon="13.340278656939573"><ele>500.0</ele><time>2026-03-28T11:33:19.001Z</time></trkpt><trkpt lat="46.271960442297946" lon="13.340429087343969"><ele>500.0</ele><time>2026-03-28T11:33:20.001Z</time></trkpt><trkpt lat="46.27192965200398" lon="13.340552628697905"><ele>500.0</ele><time>2026-03-28T11:33:21.001Z</time></trkpt><trkpt lat="46.271951307891776" lon="13.340660487950355"><ele>500.0</ele><time>2026-03-28T11:33:22.001Z</time></trkpt><trkpt lat="46.271987807949024" lon="13.340767750261447"><ele>500.0</ele><time>2026-03-28T11:33:23.001Z</time></trkpt><trkpt lat="46.272002796746825" lon="13.34090455352156"><ele>503.2</ele><time>2026-03-28T11:33:24.001Z</time></trkpt><trkpt lat="46.27205797618249" lon="13.341021740186665"><ele>506.4</ele><time>2026-03-28T11:33:25.001Z</time></trkpt><trkpt lat="46.27209687271291" lon="13.341166882607068"><ele>509.6</ele><time>2026-03-28T11:33:26.001Z</time></trkpt><trkpt lat="46.27211397273452" lon="13.341299651714449"><ele>512.8</ele><time>2026-03-28T11:33:27.001Z</time></trkpt><trkpt lat="46.27209761131911" lon="13.341414216645429"><ele>516.0</ele><time>2026-03-28T11:33:28.001Z</time></trkpt><trkpt lat="46.272054699205746" lon="13.341519795899583"><ele>517.8333333333334</ele><time>2026-03-28T11:33:29.001Z</time></trkpt><trkpt lat="46.27200561661203" lon="13.341634373095793"><ele>519.6666666666666</ele><time>2026-03-28T11:33:30.001Z</time></trkpt><trkpt lat="46.271946645538875" lon="13.341741387606405"><ele>521.5</ele><time>2026-03-28T11:33:31.001Z</time></trkpt><trkpt lat="46.27188493113837" lon="13.341818063599266"><ele>523.3333333333333</ele><time>2026-03-28T11:33:32.001Z</time></trkpt><trkpt lat="46.2718147223131" lon="13.341884993529591"><ele>525.1666666666666</ele><time>2026-03-28T11:33:33.001Z</time></trkpt><trkpt lat="46.27173295200226" lon="13.341929003978063"><ele>527.0</ele><time>2026-03-28T11:33:34.001Z</time></trkpt><trkpt lat="46.27163593177773" lon="13.341933241557992"><ele>527.0</ele><time>2026-03-28T11:33:35.001Z</time></trkpt><trkpt lat="46.27154884667162" lon="13.341820628294963"><ele>527.0</ele><time>2026-03-28T11:33:36.001Z</time></trkpt><trkpt lat="46.27148319960042" lon="13.341810891760533"><ele>527.0</ele><time>2026-03-28T11:33:37Z</time></trkpt><trkpt lat="46.27140350155347" lon="13.341811757499451"><ele>527.0</ele><time>2026-03-28T11:33:38Z</time></trkpt><trkpt lat="46.27132835803214" lon="13.341950380177687"><ele>527.0</ele><time>2026-03-28T11:33:39Z</time></trkpt><trkpt lat="46.27128109549762" lon="13.342041204186616"><ele>524.4</ele><time>2026-03-28T11:33:40Z</time></trkpt><trkpt lat="46.27124431694724" lon="13.34215821943619"><ele>521.8000000000001</ele><time>2026-03-28T11:33:41Z</time></trkpt><trkpt lat="46.27125492570107" lon="13.34232338172729"><ele>519.2</ele><time>2026-03-28T11:33:42Z</time></trkpt><trkpt lat="46.271275380901045" lon="13.342455154393724"><ele>516.6</ele><time>2026-03-28T11:33:43Z</time></trkpt><trkpt lat="46.27129041724683" lon="13.34259870247701"><ele>514.0</ele><time>2026-03-28T11:33:44Z</time></trkpt><trkpt lat="46.271310489842996" lon="13.342741496309094"><ele>514.0</ele><time>2026-03-28T11:33:45Z</time></trkpt><trkpt lat="46.27134150081197" lon="13.342874080549771"><ele>514.0</ele><time>2026-03-28T11:33:46Z</time></trkpt><trkpt lat="46.271356913595774" lon="13.342985360232547"><ele>514.0</ele><time>2026-03-28T11:33:47Z</time></trkpt><trkpt lat="46.27139510456745" lon="13.343059210246102"><ele>514.0</ele><time>2026-03-28T11:33:48Z</time></trkpt><trkpt lat="46.271468173783575" lon="13.343112353352295"><ele>514.0</ele><time>2026-03-28T11:33:49Z</time></trkpt><trkpt lat="46.27153503623741" lon="13.343170880084164"><ele>514.0</ele><time>2026-03-28T11:33:50Z</time></trkpt><trkpt lat="46.271625400999824" lon="13.343228002253037"><ele>519.6</ele><time>2026-03-28T11:33:52Z</time></trkpt><trkpt lat="46.271684520623545" lon="13.343491649664715"><ele>525.2</ele><time>2026-03-28T11:33:54Z</time></trkpt><trkpt lat="46.27173959142913" lon="13.343566136005755"><ele>530.8000000000001</ele><time>2026-03-28T11:33:55Z</time></trkpt><trkpt lat="46.27179513343793" lon="13.343641163349353"><ele>536.4</ele><time>2026-03-28T11:33:56Z</time></trkpt><trkpt lat="46.2718412096368" lon="13.343713943598448"><ele>542.0</ele><time>2026-03-28T11:33:57Z</time></trkpt><trkpt lat="46.271939904061384" lon="13.343817411079945"><ele>542.0</ele><time>2026-03-28T11:33:59Z</time></trkpt><trkpt lat="46.27201647485961" lon="13.343874981554409"><ele>542.0</ele><time>2026-03-28T11:34:01Z</time></trkpt><trkpt lat="46.27209111329177" lon="13.343941001522865"><ele>542.0</ele><time>2026-03-28T11:34:03Z</time></trkpt><trkpt lat="46.27218736037815" lon="13.344049206993171"><ele>542.0</ele><time>2026-03-28T11:34:05Z</time></trkpt><trkpt lat="46.27224241942316" lon="13.344113766918905"><ele>542.0</ele><time>2026-03-28T11:34:06Z</time></trkpt><trkpt lat="46.27230266535516" lon="13.344176567126144"><ele>542.0</ele><time>2026-03-28T11:34:07Z</time></trkpt><trkpt lat="46.272366684262934" lon="13.344259429972743"><ele>547.5</ele><time>2026-03-28T11:34:08Z</time></trkpt><trkpt lat="46.27242038597471" lon="13.344336969112643"><ele>553.0</ele><time>2026-03-28T11:34:09Z</time></trkpt><trkpt lat="46.27247047901408" lon="13.344433277039872"><ele>558.5</ele><time>2026-03-28T11:34:10Z</time></trkpt><trkpt lat="46.272524933317236" lon="13.344517715520587"><ele>564.0</ele><time>2026-03-28T11:34:11Z</time></trkpt><trkpt lat="46.27258761157296" lon="13.34459975640353"><ele>569.5</ele><time>2026-03-28T11:34:12Z</time></trkpt><trkpt lat="46.27262849585156" lon="13.344698500984078"><ele>575.0</ele><time>2026-03-28T11:34:13Z</time></trkpt><trkpt lat="46.27266788748496" lon="13.344881289963048"><ele>575.0</ele><time>2026-03-28T11:34:15Z</time></trkpt><trkpt lat="46.27267715899081" lon="13.344983293579224"><ele>575.0</ele><time>2026-03-28T11:34:16Z</time></trkpt><trkpt lat="46.272687071521204" lon="13.345091582394867"><ele>575.0</ele><time>2026-03-28T11:34:17Z</time></trkpt><trkpt lat="46.27271717010482" lon="13.345185105024274"><ele>575.0</ele><time>2026-03-28T11:34:18Z</time></trkpt><trkpt lat="46.272764597126724" lon="13.345264400585117"><ele>575.0</ele><time>2026-03-28T11:34:19Z</time></trkpt><trkpt lat="46.272825974759236" lon="13.345318070851384"><ele>575.0</ele><time>2026-03-28T11:34:20Z</time></trkpt><trkpt lat="46.27288315430305" lon="13.345378841338901"><ele>575.0</ele><time>2026-03-28T11:34:21Z</time></trkpt><trkpt lat="46.27294412652142" lon="13.345435195706385"><ele>575.0</ele><time>2026-03-28T11:34:22Z</time></trkpt><trkpt lat="46.27304205942767" lon="13.345492796456112"><ele>575.0</ele><time>2026-03-28T11:34:24Z</time></trkpt><trkpt lat="46.27311447464247" lon="13.345507677478217"><ele>575.0</ele><time>2026-03-28T11:34:25Z</time></trkpt><trkpt lat="46.2731976478015" lon="13.345491949991464"><ele>575.0</ele><time>2026-03-28T11:34:26Z</time></trkpt><trkpt lat="46.273293763855015" lon="13.345492626689028"><ele>575.0</ele><time>2026-03-28T11:34:27Z</time></trkpt><trkpt lat="46.27337893730664" lon="13.34550333274058"><ele>575.0</ele><time>2026-03-28T11:34:28Z</time></trkpt><trkpt lat="46.273442408809274" lon="13.345547941334607"><ele>577.6666666666666</ele><time>2026-03-28T11:34:29Z</time></trkpt><trkpt lat="46.27348781148084" lon="13.345623323967297"><ele>580.3333333333333</ele><time>2026-03-28T11:34:30Z</time></trkpt><trkpt lat="46.27352708210054" lon="13.345727596621927"><ele>583.0</ele><time>2026-03-28T11:34:31Z</time></trkpt><trkpt lat="46.27357221503363" lon="13.345845897100356"><ele>585.6666666666666</ele><time>2026-03-28T11:34:32Z</time></trkpt><trkpt lat="46.27361952787511" lon="13.345949825816714"><ele>588.3333333333334</ele><time>2026-03-28T11:34:33Z</time></trkpt><trkpt lat="46.27365172632843" lon="13.346034276543502"><ele>591.0</ele><time>2026-03-28T11:34:34Z</time></trkpt><trkpt lat="46.27364586708327" lon="13.34615442187401"><ele>591.0</ele><time>2026-03-28T11:34:36Z</time></trkpt><trkpt lat="46.27358693283607" lon="13.346230095748245"><ele>591.0</ele><time>2026-03-28T11:34:38.001Z</time></trkpt><trkpt lat="46.273486600395685" lon="13.34623653131944"><ele>591.0</ele><time>2026-03-28T11:34:40.001Z</time></trkpt><trkpt lat="46.27341748790455" lon="13.346224834582783"><ele>591.0</ele><time>2026-03-28T11:34:41.001Z</time></trkpt><trkpt lat="46.27334155211651" lon="13.3462206331698"><ele>591.0</ele><time>2026-03-28T11:34:42.001Z</time></trkpt><trkpt lat="46.273255644355075" lon="13.346241116345226"><ele>591.0</ele><time>2026-03-28T11:34:43.001Z</time></trkpt><trkpt lat="46.273165584165824" lon="13.346276252935448"><ele>588.2</ele><time>2026-03-28T11:34:44.001Z</time></trkpt><trkpt lat="46.273085745928846" lon="13.346307157504752"><ele>585.4000000000001</ele><time>2026-03-28T11:34:45.001Z</time></trkpt><trkpt lat="46.27298288699876" lon="13.346342321446599"><ele>582.6</ele><time>2026-03-28T11:34:46.001Z</time></trkpt><trkpt lat="46.27288098150445" lon="13.346371757720789"><ele>579.8000000000001</ele><time>2026-03-28T11:34:47.001Z</time></trkpt><trkpt lat="46.27278673686393" lon="13.346415060517584"><ele>577.0</ele><time>2026-03-28T11:34:48.001Z</time></trkpt><trkpt lat="46.27268795073509" lon="13.34648289032052"><ele>577.2</ele><time>2026-03-28T11:34:49.001Z</time></trkpt><trkpt lat="46.27257291001424" lon="13.346524053439493"><ele>577.4000000000001</ele><time>2026-03-28T11:34:50.001Z</time></trkpt><trkpt lat="46.2724625710422" lon="13.346556217917847"><ele>577.5999999999999</ele><time>2026-03-28T11:34:51.001Z</time></trkpt><trkpt lat="46.27236376703137" lon="13.346592945352993"><ele>577.8</ele><time>2026-03-28T11:34:52.001Z</time></trkpt><trkpt lat="46.27226999017671" lon="13.346631624034753"><ele>578.0</ele><time>2026-03-28T11:34:53.001Z</time></trkpt><trkpt lat="46.272188237888926" lon="13.346673085478393"><ele>578.0</ele><time>2026-03-28T11:34:54.001Z</time></trkpt><trkpt lat="46.27210805919753" lon="13.346763549485438"><ele>578.0</ele><time>2026-03-28T11:34:56.001Z</time></trkpt><trkpt lat="46.27209711103318" lon="13.34686731175937"><ele>578.0</ele><time>2026-03-28T11:34:58.001Z</time></trkpt><trkpt lat="46.272197388538075" lon="13.346971664927242"><ele>578.0</ele><time>2026-03-28T11:35:00.001Z</time></trkpt><trkpt lat="46.272261310299804" lon="13.347059049661818"><ele>578.0</ele><time>2026-03-28T11:35:01.001Z</time></trkpt><trkpt lat="46.27230405576075" lon="13.3472279167411"><ele>579.3333333333333</ele><time>2026-03-28T11:35:03.001Z</time></trkpt><trkpt lat="46.27229761081981" lon="13.34732085091126"><ele>580.6666666666666</ele><time>2026-03-28T11:35:04.001Z</time></trkpt><trkpt lat="46.27230420756182" lon="13.347422312670435"><ele>582.0</ele><time>2026-03-28T11:35:05.001Z</time></trkpt><trkpt lat="46.27232988475145" lon="13.347508931935124"><ele>583.3333333333334</ele><time>2026-03-28T11:35:06.001Z</time></trkpt><trkpt lat="46.27234559788878" lon="13.347599075407395"><ele>584.6666666666667</ele><time>2026-03-28T11:35:07.001Z</time></trkpt><trkpt lat="46.27229682070464" lon="13.347759530182653"><ele>586.0</ele><time>2026-03-28T11:35:09.001Z</time></trkpt><trkpt lat="46.27225639197606" lon="13.347851148402823"><ele>586.0</ele><time>2026-03-28T11:35:10.001Z</time></trkpt><trkpt lat="46.27220641820118" lon="13.347936174896844"><ele>586.0</ele><time>2026-03-28T11:35:11.001Z</time></trkpt><trkpt lat="46.27216155000578" lon="13.348019171489222"><ele>586.0</ele><time>2026-03-28T11:35:12.001Z</time></trkpt><trkpt lat="46.27209698891648" lon="13.348115973330566"><ele>586.0</ele><time>2026-03-28T11:35:13.001Z</time></trkpt><trkpt lat="46.27208515842372" lon="13.348224014419142"><ele>586.0</ele><time>2026-03-28T11:35:14.001Z</time></trkpt><trkpt lat="46.27207016635943" lon="13.348351721991277"><ele>586.0</ele><time>2026-03-28T11:35:15.001Z</time></trkpt><trkpt lat="46.27205616275546" lon="13.348476384354717"><ele>587.0</ele><time>2026-03-28T11:35:16.001Z</time></trkpt><trkpt lat="46.27203588250102" lon="13.34859961006683"><ele>588.0</ele><time>2026-03-28T11:35:17.001Z</time></trkpt><trkpt lat="46.27201340448106" lon="13.348733534534793"><ele>589.0</ele><time>2026-03-28T11:35:18.001Z</time></trkpt><trkpt lat="46.27199582013217" lon="13.348868097668232"><ele>590.0</ele><time>2026-03-28T11:35:19.001Z</time></trkpt><trkpt lat="46.272006429681" lon="13.348963669934175"><ele>591.0</ele><time>2026-03-28T11:35:20.001Z</time></trkpt><trkpt lat="46.27202274380374" lon="13.349077940363452"><ele>592.0</ele><time>2026-03-28T11:35:21.001Z</time></trkpt><trkpt lat="46.27203497876412" lon="13.349196310507653"><ele>592.1666666666667</ele><time>2026-03-28T11:35:22.001Z</time></trkpt><trkpt lat="46.27202225285561" lon="13.34932195424834"><ele>592.3333333333334</ele><time>2026-03-28T11:35:23.001Z</time></trkpt><trkpt lat="46.272009320439615" lon="13.349423880232427"><ele>592.5</ele><time>2026-03-28T11:35:24.001Z</time></trkpt><trkpt lat="46.27201863425055" lon="13.349538200835816"><ele>592.6666666666666</ele><time>2026-03-28T11:35:25.001Z</time></trkpt><trkpt lat="46.27203206295347" lon="13.349648731399078"><ele>592.8333333333333</ele><time>2026-03-28T11:35:26.001Z</time></trkpt><trkpt lat="46.27205123311861" lon="13.349761792186495"><ele>593.0</ele><time>2026-03-28T11:35:27.001Z</time></trkpt><trkpt lat="46.272057609287835" lon="13.349883711952398"><ele>594.8333333333333</ele><time>2026-03-28T11:35:28.001Z</time></trkpt><trkpt lat="46.272037563092354" lon="13.35001436838833"><ele>596.6666666666666</ele><time>2026-03-28T11:35:29.001Z</time></trkpt><trkpt lat="46.27203067440073" lon="13.350142307580375"><ele>598.5</ele><time>2026-03-28T11:35:30.001Z</time></trkpt><trkpt lat="46.272056055883496" lon="13.350280909884107"><ele>600.3333333333334</ele><time>2026-03-28T11:35:31.001Z</time></trkpt><trkpt lat="46.272092867759916" lon="13.350396620284931"><ele>602.1666666666667</ele><time>2026-03-28T11:35:32.001Z</time></trkpt><trkpt lat="46.27211377174953" lon="13.35049796705548"><ele>604.0</ele><time>2026-03-28T11:35:33.001Z</time></trkpt><trkpt lat="46.272143828622724" lon="13.350594579191823"><ele>606.2</ele><time>2026-03-28T11:35:34.001Z</time></trkpt><trkpt lat="46.27220818383154" lon="13.350700825058103"><ele>608.4</ele><time>2026-03-28T11:35:36.001Z</time></trkpt><trkpt lat="46.272216683602096" lon="13.35079851693825"><ele>610.6</ele><time>2026-03-28T11:35:38.001Z</time></trkpt><trkpt lat="46.272161936356234" lon="13.350904867981548"><ele>612.8</ele><time>2026-03-28T11:35:40.001Z</time></trkpt><trkpt lat="46.27207690728177" lon="13.35090500227236"><ele>615.0</ele><time>2026-03-28T11:35:42.001Z</time></trkpt><trkpt lat="46.27195283075321" lon="13.350854800513334"><ele>615.0</ele><time>2026-03-28T11:35:44Z</time></trkpt><trkpt lat="46.27189985568807" lon="13.350948585590329"><ele>615.0</ele><time>2026-03-28T11:35:46Z</time></trkpt><trkpt lat="46.271876893008475" lon="13.351126605869482"><ele>615.0</ele><time>2026-03-28T11:35:48Z</time></trkpt><trkpt lat="46.27190656033265" lon="13.351305677866138"><ele>615.0</ele><time>2026-03-28T11:35:50Z</time></trkpt><trkpt lat="46.27192415867737" lon="13.351406969528268"><ele>615.0</ele><time>2026-03-28T11:35:51Z</time></trkpt><trkpt lat="46.271941475529225" lon="13.351503075752609"><ele>615.8</ele><time>2026-03-28T11:35:52Z</time></trkpt><trkpt lat="46.27196527698378" lon="13.35159659996312"><ele>616.6</ele><time>2026-03-28T11:35:53Z</time></trkpt><trkpt lat="46.27204855849977" lon="13.351679205240691"><ele>617.4</ele><time>2026-03-28T11:35:55Z</time></trkpt><trkpt lat="46.27218190502732" lon="13.351785873993862"><ele>618.2</ele><time>2026-03-28T11:35:57Z</time></trkpt><trkpt lat="46.272238289021494" lon="13.35185640662475"><ele>619.0</ele><time>2026-03-28T11:35:58Z</time></trkpt><trkpt lat="46.27229054944267" lon="13.35194639538807"><ele>622.3333333333334</ele><time>2026-03-28T11:35:59Z</time></trkpt><trkpt lat="46.27233604035372" lon="13.352047373969262"><ele>625.6666666666667</ele><time>2026-03-28T11:36:00Z</time></trkpt><trkpt lat="46.27236115480952" lon="13.35214777850977"><ele>629.0</ele><time>2026-03-28T11:36:01Z</time></trkpt><trkpt lat="46.272395978157654" lon="13.35226194893195"><ele>632.3333333333334</ele><time>2026-03-28T11:36:02Z</time></trkpt><trkpt lat="46.272426720339794" lon="13.352361240568593"><ele>635.6666666666666</ele><time>2026-03-28T11:36:03Z</time></trkpt><trkpt lat="46.27242986923548" lon="13.352469751003404"><ele>639.0</ele><time>2026-03-28T11:36:04Z</time></trkpt><trkpt lat="46.27238227974295" lon="13.352567466771186"><ele>640.6</ele><time>2026-03-28T11:36:06Z</time></trkpt><trkpt lat="46.27227626118983" lon="13.352629935639413"><ele>642.2</ele><time>2026-03-28T11:36:08Z</time></trkpt><trkpt lat="46.27215461456647" lon="13.352591430799636"><ele>643.8000000000001</ele><time>2026-03-28T11:36:10Z</time></trkpt><trkpt lat="46.2720923704786" lon="13.352560704240435"><ele>645.4</ele><time>2026-03-28T11:36:11Z</time></trkpt><trkpt lat="46.27197101423692" lon="13.352613532543089"><ele>647.0</ele><time>2026-03-28T11:36:13Z</time></trkpt><trkpt lat="46.27189890571861" lon="13.352674101233386"><ele>644.1666666666666</ele><time>2026-03-28T11:36:14Z</time></trkpt><trkpt lat="46.27182511366214" lon="13.352729756584166"><ele>641.3333333333333</ele><time>2026-03-28T11:36:15Z</time></trkpt><trkpt lat="46.27174307752414" lon="13.352765164408824"><ele>638.5</ele><time>2026-03-28T11:36:16Z</time></trkpt><trkpt lat="46.27166203201843" lon="13.352754079763624"><ele>635.6666666666666</ele><time>2026-03-28T11:36:17Z</time></trkpt><trkpt lat="46.27158806098874" lon="13.352749842814196"><ele>632.8333333333334</ele><time>2026-03-28T11:36:18Z</time></trkpt><trkpt lat="46.2715210461812" lon="13.352728443860439"><ele>630.0</ele><time>2026-03-28T11:36:19Z</time></trkpt><trkpt lat="46.27144897222234" lon="13.352837316720153"><ele>629.0</ele><time>2026-03-28T11:36:21Z</time></trkpt><trkpt lat="46.27143049047959" lon="13.352943266588412"><ele>628.0</ele><time>2026-03-28T11:36:22Z</time></trkpt><trkpt lat="46.271409618282135" lon="13.35306080645541"><ele>627.0</ele><time>2026-03-28T11:36:23Z</time></trkpt><trkpt lat="46.27139216973842" lon="13.353193274467795"><ele>626.0</ele><time>2026-03-28T11:36:24Z</time></trkpt><trkpt lat="46.271381782013165" lon="13.353326235349547"><ele>625.0</ele><time>2026-03-28T11:36:25Z</time></trkpt><trkpt lat="46.27133936841444" lon="13.353467724576019"><ele>628.2</ele><time>2026-03-28T11:36:26Z</time></trkpt><trkpt lat="46.27131683661379" lon="13.353615490618937"><ele>631.4</ele><time>2026-03-28T11:36:27Z</time></trkpt><trkpt lat="46.27129016991473" lon="13.353791599505508"><ele>634.5999999999999</ele><time>2026-03-28T11:36:28Z</time></trkpt><trkpt lat="46.27126788632917" lon="13.353912799048535"><ele>637.8</ele><time>2026-03-28T11:36:29Z</time></trkpt><trkpt lat="46.27120772026755" lon="13.35400522278946"><ele>641.0</ele><time>2026-03-28T11:36:30Z</time></trkpt><trkpt lat="46.27114281506532" lon="13.354098223836262"><ele>643.0</ele><time>2026-03-28T11:36:31Z</time></trkpt><trkpt lat="46.27108812732423" lon="13.354200296790765"><ele>645.0</ele><time>2026-03-28T11:36:32Z</time></trkpt><trkpt lat="46.271044195089196" lon="13.354315751198197"><ele>647.0</ele><time>2026-03-28T11:36:33Z</time></trkpt><trkpt lat="46.27102569019279" lon="13.354430179060905"><ele>649.0</ele><time>2026-03-28T11:36:34Z</time></trkpt><trkpt lat="46.27099856944729" lon="13.354531213997758"><ele>651.0</ele><time>2026-03-28T11:36:35Z</time></trkpt><trkpt lat="46.27093000432639" lon="13.354572959828113"><ele>653.0</ele><time>2026-03-28T11:36:37Z</time></trkpt><trkpt lat="46.27085240356829" lon="13.35452229897391"><ele>653.0</ele><time>2026-03-28T11:36:40Z</time></trkpt><trkpt lat="46.27074884789284" lon="13.354390500668327"><ele>653.0</ele><time>2026-03-28T11:36:43Z</time></trkpt><trkpt lat="46.270623106764575" lon="13.354353036600463"><ele>653.0</ele><time>2026-03-28T11:36:45Z</time></trkpt><trkpt lat="46.27054560727038" lon="13.354388297523137"><ele>653.0</ele><time>2026-03-28T11:36:46Z</time></trkpt><trkpt lat="46.27047664177095" lon="13.354429419561404"><ele>653.0</ele><time>2026-03-28T11:36:47Z</time></trkpt><trkpt lat="46.27040813352198" lon="13.354458876217214"><ele>657.5</ele><time>2026-03-28T11:36:48.001Z</time></trkpt><trkpt lat="46.270310097948524" lon="13.354412072788776"><ele>662.0</ele><time>2026-03-28T11:36:50.001Z</time></trkpt><trkpt lat="46.27023613046094" lon="13.354330556097244"><ele>666.5</ele><time>2026-03-28T11:36:52.001Z</time></trkpt><trkpt lat="46.270155959246175" lon="13.354258652171191"><ele>671.0</ele><time>2026-03-28T11:38:21Z</time></trkpt><trkpt lat="46.27009007407638" lon="13.35422332877547"><ele>675.5</ele><time>2026-03-28T11:38:27Z</time></trkpt><trkpt lat="46.27003729406959" lon="13.354169574877671"><ele>680.0</ele><time>2026-03-28T11:38:31Z</time></trkpt><trkpt lat="46.269939873974046" lon="13.354100428411916"><ele>680.0</ele><time>2026-03-28T11:38:34Z</time></trkpt><trkpt lat="46.26989368756446" lon="13.3539952850521"><ele>680.0</ele><time>2026-03-28T11:38:36Z</time></trkpt><trkpt lat="46.26987141863179" lon="13.35387688145245"><ele>680.0</ele><time>2026-03-28T11:38:38Z</time></trkpt><trkpt lat="46.26983735101701" lon="13.353723206347436"><ele>680.0</ele><time>2026-03-28T11:38:40Z</time></trkpt><trkpt lat="46.26976207437898" lon="13.353577903617667"><ele>680.0</ele><time>2026-03-28T11:38:42Z</time></trkpt><trkpt lat="46.26969236477247" lon="13.35341053654844"><ele>679.1428571428572</ele><time>2026-03-28T11:38:44Z</time></trkpt><trkpt lat="46.26964305869703" lon="13.353352575886614"><ele>678.2857142857142</ele><time>2026-03-28T11:38:45.001Z</time></trkpt><trkpt lat="46.26959172606103" lon="13.353298451750902"><ele>677.4285714285714</ele><time>2026-03-28T11:38:46.001Z</time></trkpt><trkpt lat="46.26953092089788" lon="13.35322783424064"><ele>676.5714285714287</ele><time>2026-03-28T11:38:47.001Z</time></trkpt><trkpt lat="46.26946969351361" lon="13.353166976162402"><ele>675.7142857142858</ele><time>2026-03-28T11:38:48.001Z</time></trkpt><trkpt lat="46.26939720254068" lon="13.35312114249382"><ele>674.8571428571429</ele><time>2026-03-28T11:38:49.001Z</time></trkpt><trkpt lat="46.2693388021605" lon="13.353075426590445"><ele>674.0</ele><time>2026-03-28T11:38:50.001Z</time></trkpt><trkpt lat="46.26925495758603" lon="13.353014313077574"><ele>674.0</ele><time>2026-03-28T11:38:52.001Z</time></trkpt><trkpt lat="46.26913172805941" lon="13.353028954908691"><ele>674.0</ele><time>2026-03-28T11:38:54.001Z</time></trkpt><trkpt lat="46.26904602195179" lon="13.353055774028299"><ele>674.0</ele><time>2026-03-28T11:38:55.001Z</time></trkpt><trkpt lat="46.268958904768496" lon="13.353092895621367"><ele>674.0</ele><time>2026-03-28T11:38:56.001Z</time></trkpt><trkpt lat="46.268875616119345" lon="13.353097356655988"><ele>674.0</ele><time>2026-03-28T11:38:57.001Z</time></trkpt><trkpt lat="46.2687969561208" lon="13.35306086557717"><ele>680.3333333333333</ele><time>2026-03-28T11:38:58.001Z</time></trkpt><trkpt lat="46.268725995751694" lon="13.353009052907773"><ele>686.6666666666666</ele><time>2026-03-28T11:38:59.001Z</time></trkpt><trkpt lat="46.26865561040579" lon="13.352962238635245"><ele>693.0</ele><time>2026-03-28T11:39:00.001Z</time></trkpt><trkpt lat="46.26860512193919" lon="13.352817591364175"><ele>699.3333333333334</ele><time>2026-03-28T11:39:02.001Z</time></trkpt><trkpt lat="46.268602012051446" lon="13.352720225298977"><ele>705.6666666666667</ele><time>2026-03-28T11:39:03.001Z</time></trkpt><trkpt lat="46.268531948112376" lon="13.352655375817534"><ele>712.0</ele><time>2026-03-28T11:39:06.001Z</time></trkpt><trkpt lat="46.268493711454724" lon="13.35276050037882"><ele>712.0</ele><time>2026-03-28T11:39:08.001Z</time></trkpt><trkpt lat="46.26847876700299" lon="13.352903649099474"><ele>712.0</ele><time>2026-03-28T11:39:09.001Z</time></trkpt><trkpt lat="46.268481302988995" lon="13.353042606130755"><ele>712.0</ele><time>2026-03-28T11:39:10.001Z</time></trkpt><trkpt lat="46.26848145342782" lon="13.353151741187277"><ele>712.0</ele><time>2026-03-28T11:39:11.001Z</time></trkpt><trkpt lat="46.268574118082114" lon="13.353280042604485"><ele>712.0</ele><time>2026-03-28T11:39:13.001Z</time></trkpt><trkpt lat="46.26866019914211" lon="13.353348950414183"><ele>714.4000000000001</ele><time>2026-03-28T11:39:14.001Z</time></trkpt><trkpt lat="46.26871534715106" lon="13.353437274404667"><ele>716.8000000000001</ele><time>2026-03-28T11:39:15.001Z</time></trkpt><trkpt lat="46.26876889012033" lon="13.353504332893724"><ele>719.2</ele><time>2026-03-28T11:39:16.001Z</time></trkpt><trkpt lat="46.26886657192761" lon="13.353507647165399"><ele>721.6</ele><time>2026-03-28T11:39:18.001Z</time></trkpt><trkpt lat="46.26896131354402" lon="13.353484761369566"><ele>724.0</ele><time>2026-03-28T11:39:20.001Z</time></trkpt><trkpt lat="46.26902401235123" lon="13.353613542967084"><ele>722.0</ele><time>2026-03-28T11:39:22.001Z</time></trkpt><trkpt lat="46.26902529352218" lon="13.353716398122456"><ele>720.0</ele><time>2026-03-28T11:39:23.001Z</time></trkpt><trkpt lat="46.26902893972029" lon="13.353838451725952"><ele>718.0</ele><time>2026-03-28T11:39:24.001Z</time></trkpt><trkpt lat="46.269008218418556" lon="13.353954812023344"><ele>716.0</ele><time>2026-03-28T11:39:25.001Z</time></trkpt><trkpt lat="46.268990299617116" lon="13.354059434950114"><ele>714.0</ele><time>2026-03-28T11:39:26.001Z</time></trkpt><trkpt lat="46.2689597486217" lon="13.3541784378158"><ele>712.0</ele><time>2026-03-28T11:39:27.001Z</time></trkpt><trkpt lat="46.26893310793766" lon="13.354323106368822"><ele>713.8333333333334</ele><time>2026-03-28T11:39:28.001Z</time></trkpt><trkpt lat="46.26891765941698" lon="13.354443970280725"><ele>715.6666666666667</ele><time>2026-03-28T11:39:29.001Z</time></trkpt><trkpt lat="46.26893425079484" lon="13.354572099188495"><ele>717.5</ele><time>2026-03-28T11:39:30.001Z</time></trkpt><trkpt lat="46.2689493168947" lon="13.354711957401634"><ele>719.3333333333334</ele><time>2026-03-28T11:39:31.001Z</time></trkpt><trkpt lat="46.268966683461684" lon="13.354841420741597"><ele>721.1666666666666</ele><time>2026-03-28T11:39:32.001Z</time></trkpt><trkpt lat="46.26899687427885" lon="13.354928972754402"><ele>723.0</ele><time>2026-03-28T11:39:33.001Z</time></trkpt><trkpt lat="46.26905345114652" lon="13.355003864484253"><ele>723.0</ele><time>2026-03-28T11:39:34.001Z</time></trkpt><trkpt lat="46.26912457081025" lon="13.3550770936532"><ele>723.0</ele><time>2026-03-28T11:39:35.001Z</time></trkpt><trkpt lat="46.26920988709978" lon="13.355139168225142"><ele>723.0</ele><time>2026-03-28T11:39:36.001Z</time></trkpt><trkpt lat="46.2692601564778" lon="13.35521767877985"><ele>723.0</ele><time>2026-03-28T11:39:37.001Z</time></trkpt><trkpt lat="46.26927115650687" lon="13.355374775476111"><ele>723.0</ele><time>2026-03-28T11:39:39.001Z</time></trkpt><trkpt lat="46.26924059436718" lon="13.355477159550032"><ele>723.0</ele><time>2026-03-28T11:39:40.001Z</time></trkpt><trkpt lat="46.269209227485625" lon="13.355583433784423"><ele>725.8333333333334</ele><time>2026-03-28T11:39:41.001Z</time></trkpt><trkpt lat="46.269182187004176" lon="13.355692800396772"><ele>728.6666666666666</ele><time>2026-03-28T11:39:42.001Z</time></trkpt><trkpt lat="46.26913812621621" lon="13.355805559517478"><ele>731.5</ele><time>2026-03-28T11:39:43.001Z</time></trkpt><trkpt lat="46.26910409994645" lon="13.35591188563507"><ele>734.3333333333333</ele><time>2026-03-28T11:39:44.001Z</time></trkpt><trkpt lat="46.26912304544354" lon="13.356045718440688"><ele>737.1666666666666</ele><time>2026-03-28T11:39:46.001Z</time></trkpt><trkpt lat="46.26916069729357" lon="13.356125616330807"><ele>740.0</ele><time>2026-03-28T11:39:47.001Z</time></trkpt><trkpt lat="46.26926111163485" lon="13.356257129251633"><ele>740.0</ele><time>2026-03-28T11:39:49.001Z</time></trkpt><trkpt lat="46.269333740312604" lon="13.356307604784819"><ele>740.0</ele><time>2026-03-28T11:39:50.001Z</time></trkpt><trkpt lat="46.26941410776993" lon="13.356378973814493"><ele>740.0</ele><time>2026-03-28T11:39:51.001Z</time></trkpt><trkpt lat="46.269483586365105" lon="13.356456186047772"><ele>740.0</ele><time>2026-03-28T11:39:52.001Z</time></trkpt><trkpt lat="46.26954148329726" lon="13.356536683179351"><ele>740.0</ele><time>2026-03-28T11:39:53.001Z</time></trkpt><trkpt lat="46.26963788493622" lon="13.356593536329646"><ele>740.0</ele><time>2026-03-28T11:39:55.001Z</time></trkpt><trkpt lat="46.26970342750464" lon="13.356578906639411"><ele>740.8571428571428</ele><time>2026-03-28T11:39:56.001Z</time></trkpt><trkpt lat="46.26976860739081" lon="13.356564550399531"><ele>741.7142857142857</ele><time>2026-03-28T11:39:57.001Z</time></trkpt><trkpt lat="46.269838494843185" lon="13.356586381341629"><ele>742.5714285714286</ele><time>2026-03-28T11:39:58.001Z</time></trkpt><trkpt lat="46.269914486868245" lon="13.356613646657605"><ele>743.4285714285713</ele><time>2026-03-28T11:39:59.001Z</time></trkpt><trkpt lat="46.26999003030844" lon="13.356656979393472"><ele>744.2857142857143</ele><time>2026-03-28T11:40:00.001Z</time></trkpt><trkpt lat="46.27003875121864" lon="13.356740962186803"><ele>745.1428571428571</ele><time>2026-03-28T11:40:02.001Z</time></trkpt><trkpt lat="46.27008560651469" lon="13.356825099873477"><ele>746.0</ele><time>2026-03-28T11:40:03.001Z</time></trkpt><trkpt lat="46.27005878258133" lon="13.357011228411153"><ele>746.0</ele><time>2026-03-28T11:40:05.001Z</time></trkpt><trkpt lat="46.27001873010304" lon="13.357131712109064"><ele>746.0</ele><time>2026-03-28T11:40:06.001Z</time></trkpt><trkpt lat="46.27001617135766" lon="13.357223327118955"><ele>746.0</ele><time>2026-03-28T11:40:07.001Z</time></trkpt><trkpt lat="46.2700385580285" lon="13.357404254791687"><ele>746.0</ele><time>2026-03-28T11:40:09.001Z</time></trkpt><trkpt lat="46.27008839872157" lon="13.357551389385927"><ele>746.0</ele><time>2026-03-28T11:40:11.001Z</time></trkpt><trkpt lat="46.27012965325065" lon="13.357671936767725"><ele>750.8</ele><time>2026-03-28T11:40:13.001Z</time></trkpt><trkpt lat="46.27013272353513" lon="13.357808432441418"><ele>755.5999999999999</ele><time>2026-03-28T11:40:16.001Z</time></trkpt><trkpt lat="46.27006045962549" lon="13.357858283848987"><ele>760.4</ele><time>2026-03-28T11:40:18Z</time></trkpt><trkpt lat="46.26999755058164" lon="13.357739422985167"><ele>765.2</ele><time>2026-03-28T11:40:20Z</time></trkpt><trkpt lat="46.269937398262456" lon="13.357587929575512"><ele>770.0</ele><time>2026-03-28T11:40:22Z</time></trkpt><trkpt lat="46.26989100944135" lon="13.357526122648558"><ele>770.0000000000001</ele><time>2026-03-28T11:40:23Z</time></trkpt><trkpt lat="46.269855144421534" lon="13.3574508893203"><ele>770.0</ele><time>2026-03-28T11:40:24Z</time></trkpt><trkpt lat="46.26976402196943" lon="13.357331935178022"><ele>770.0</ele><time>2026-03-28T11:40:26Z</time></trkpt><trkpt lat="46.26969756690748" lon="13.357248445377929"><ele>770.0</ele><time>2026-03-28T11:40:28Z</time></trkpt><trkpt lat="46.269640036227756" lon="13.357292897010671"><ele>770.0000000000001</ele><time>2026-03-28T11:40:30Z</time></trkpt><trkpt lat="46.26966048263994" lon="13.357421634323112"><ele>770.0</ele><time>2026-03-28T11:40:32Z</time></trkpt><trkpt lat="46.269721553069594" lon="13.357556698482181"><ele>770.0</ele><time>2026-03-28T11:40:34Z</time></trkpt><trkpt lat="46.26977417842679" lon="13.357702215396541"><ele>770.0</ele><time>2026-03-28T11:40:36Z</time></trkpt><trkpt lat="46.26981491652884" lon="13.35785283813111"><ele>770.0</ele><time>2026-03-28T11:40:38Z</time></trkpt><trkpt lat="46.269855301283556" lon="13.357937782937768"><ele>770.0</ele><time>2026-03-28T11:40:39Z</time></trkpt><trkpt lat="46.269903483500705" lon="13.358032051956993"><ele>770.0</ele><time>2026-03-28T11:40:40Z</time></trkpt><trkpt lat="46.26994468512264" lon="13.358118428959163"><ele>774.5000000000001</ele><time>2026-03-28T11:40:41Z</time></trkpt><trkpt lat="46.26998184328409" lon="13.358199983046166"><ele>779.0</ele><time>2026-03-28T11:40:42Z</time></trkpt><trkpt lat="46.27004751047517" lon="13.358274941652205"><ele>783.5</ele><time>2026-03-28T11:40:43Z</time></trkpt><trkpt lat="46.27007623612492" lon="13.358376907872165"><ele>788.0</ele><time>2026-03-28T11:40:44Z</time></trkpt><trkpt lat="46.27009824013638" lon="13.358485719522974"><ele>792.5000000000001</ele><time>2026-03-28T11:40:45Z</time></trkpt><trkpt lat="46.27009912033402" lon="13.35860480171112"><ele>797.0</ele><time>2026-03-28T11:40:46Z</time></trkpt><trkpt lat="46.27008785037436" lon="13.358724711807167"><ele>797.0000000000001</ele><time>2026-03-28T11:40:47Z</time></trkpt><trkpt lat="46.270082852544" lon="13.358850741439129"><ele>797.0</ele><time>2026-03-28T11:40:48Z</time></trkpt><trkpt lat="46.27005042922039" lon="13.35894701459215"><ele>797.0</ele><time>2026-03-28T11:40:49Z</time></trkpt><trkpt lat="46.27001487157438" lon="13.359085729651898"><ele>797.0</ele><time>2026-03-28T11:40:51Z</time></trkpt><trkpt lat="46.270075165039756" lon="13.359156984778519"><ele>797.0000000000001</ele><time>2026-03-28T11:40:53Z</time></trkpt><trkpt lat="46.27015758574384" lon="13.359172137155845"><ele>797.0</ele><time>2026-03-28T11:40:55Z</time></trkpt><trkpt lat="46.27023919878138" lon="13.359169671474783"><ele>798.6666666666667</ele><time>2026-03-28T11:40:56.001Z</time></trkpt><trkpt lat="46.27031789221439" lon="13.359166629700598"><ele>800.3333333333334</ele><time>2026-03-28T11:40:57.001Z</time></trkpt><trkpt lat="46.270387080933084" lon="13.359147614512379"><ele>802.0</ele><time>2026-03-28T11:40:58.001Z</time></trkpt><trkpt lat="46.270451225410476" lon="13.359107600731315"><ele>803.6666666666667</ele><time>2026-03-28T11:40:59.001Z</time></trkpt><trkpt lat="46.270528839009" lon="13.359058834681441"><ele>805.3333333333334</ele><time>2026-03-28T11:41:00.001Z</time></trkpt><trkpt lat="46.27060642750596" lon="13.359008452021946"><ele>807.0</ele><time>2026-03-28T11:41:01.001Z</time></trkpt><trkpt lat="46.270668342522065" lon="13.35898175455845"><ele>807.0</ele><time>2026-03-28T11:41:02.001Z</time></trkpt><trkpt lat="46.270760166547056" lon="13.359049683062253"><ele>807.0</ele><time>2026-03-28T11:41:04.001Z</time></trkpt><trkpt lat="46.2708158086093" lon="13.359109318633518"><ele>807.0</ele><time>2026-03-28T11:41:05.001Z</time></trkpt><trkpt lat="46.270878835994154" lon="13.359178649636686"><ele>807.0</ele><time>2026-03-28T11:41:06.001Z</time></trkpt><trkpt lat="46.27093889347934" lon="13.359248338647342"><ele>807.0</ele><time>2026-03-28T11:41:07.001Z</time></trkpt><trkpt lat="46.271016917072295" lon="13.359301571332573"><ele>807.0</ele><time>2026-03-28T11:41:08.001Z</time></trkpt><trkpt lat="46.27109087689385" lon="13.359327514672719"><ele>807.0</ele><time>2026-03-28T11:41:09.001Z</time></trkpt><trkpt lat="46.27118687595762" lon="13.359338351078991"><ele>807.0</ele><time>2026-03-28T11:41:10.001Z</time></trkpt><trkpt lat="46.27128257729375" lon="13.359371027944299"><ele>807.0</ele><time>2026-03-28T11:41:11.001Z</time></trkpt><trkpt lat="46.27138943728287" lon="13.359418790295631"><ele>807.0</ele><time>2026-03-28T11:41:12.001Z</time></trkpt><trkpt lat="46.27149323502203" lon="13.359475823286196"><ele>807.0</ele><time>2026-03-28T11:41:13.001Z</time></trkpt><trkpt lat="46.271588982961504" lon="13.359485315753123"><ele>806.6</ele><time>2026-03-28T11:41:14.001Z</time></trkpt><trkpt lat="46.27167905341611" lon="13.359471845453632"><ele>806.2</ele><time>2026-03-28T11:41:15.001Z</time></trkpt><trkpt lat="46.27177907145864" lon="13.359454350345047"><ele>805.8</ele><time>2026-03-28T11:41:16.001Z</time></trkpt><trkpt lat="46.27187535503081" lon="13.359415623781192"><ele>805.4</ele><time>2026-03-28T11:41:17.001Z</time></trkpt><trkpt lat="46.271965518716954" lon="13.359378468429073"><ele>805.0</ele><time>2026-03-28T11:41:18.001Z</time></trkpt><trkpt lat="46.272057151162805" lon="13.359328978604943"><ele>804.9999999999999</ele><time>2026-03-28T11:41:19.001Z</time></trkpt><trkpt lat="46.27212329692876" lon="13.359278049056172"><ele>805.0</ele><time>2026-03-28T11:41:20.001Z</time></trkpt><trkpt lat="46.2722017588322" lon="13.359266791473084"><ele>805.0</ele><time>2026-03-28T11:41:22.001Z</time></trkpt><trkpt lat="46.27222198263046" lon="13.35937697885081"><ele>805.0</ele><time>2026-03-28T11:41:24.001Z</time></trkpt><trkpt lat="46.27223748983084" lon="13.35948235738665"><ele>804.9999999999999</ele><time>2026-03-28T11:41:25.001Z</time></trkpt><trkpt lat="46.272249406202825" lon="13.35958491647146"><ele>805.0</ele><time>2026-03-28T11:41:26.001Z</time></trkpt><trkpt lat="46.27225519850147" lon="13.359699808868926"><ele>806.8333333333333</ele><time>2026-03-28T11:41:27.001Z</time></trkpt><trkpt lat="46.27225470798467" lon="13.359809477685506"><ele>808.6666666666666</ele><time>2026-03-28T11:41:28.001Z</time></trkpt><trkpt lat="46.27226019691893" lon="13.359932063874526"><ele>810.5</ele><time>2026-03-28T11:41:29.001Z</time></trkpt><trkpt lat="46.27229654177695" lon="13.36002821915603"><ele>812.3333333333333</ele><time>2026-03-28T11:41:30.001Z</time></trkpt><trkpt lat="46.272341036788994" lon="13.360142182333854"><ele>814.1666666666666</ele><time>2026-03-28T11:41:31.001Z</time></trkpt><trkpt lat="46.27237219049547" lon="13.360241537251685"><ele>816.0</ele><time>2026-03-28T11:41:32.001Z</time></trkpt><trkpt lat="46.272377636515564" lon="13.360335694606654"><ele>816.0</ele><time>2026-03-28T11:41:33.001Z</time></trkpt><trkpt lat="46.272366648235746" lon="13.360519132844235"><ele>816.0</ele><time>2026-03-28T11:41:35.001Z</time></trkpt><trkpt lat="46.2723425934603" lon="13.360610577373341"><ele>816.0</ele><time>2026-03-28T11:41:36.001Z</time></trkpt><trkpt lat="46.272317944972414" lon="13.360716113015565"><ele>816.0</ele><time>2026-03-28T11:41:37.001Z</time></trkpt><trkpt lat="46.27229931926895" lon="13.360832748316003"><ele>816.0</ele><time>2026-03-28T11:41:38.001Z</time></trkpt><trkpt lat="46.27227609206793" lon="13.360941702274852"><ele>816.0</ele><time>2026-03-28T11:41:39.001Z</time></trkpt><trkpt lat="46.272258282210885" lon="13.36105679462211"><ele>819.8333333333334</ele><time>2026-03-28T11:41:40.001Z</time></trkpt><trkpt lat="46.27225691476732" lon="13.361175472222346"><ele>823.6666666666667</ele><time>2026-03-28T11:41:41.001Z</time></trkpt><trkpt lat="46.27226689126085" lon="13.361291598560019"><ele>827.5</ele><time>2026-03-28T11:41:42.001Z</time></trkpt><trkpt lat="46.27228604832274" lon="13.361409538162333"><ele>831.3333333333334</ele><time>2026-03-28T11:41:43.001Z</time></trkpt><trkpt lat="46.27229828847997" lon="13.361532551488622"><ele>835.1666666666667</ele><time>2026-03-28T11:41:44.001Z</time></trkpt><trkpt lat="46.27231735747987" lon="13.361662639864075"><ele>839.0</ele><time>2026-03-28T11:41:45.001Z</time></trkpt><trkpt lat="46.27234052216324" lon="13.361785290581935"><ele>839.0</ele><time>2026-03-28T11:41:46.001Z</time></trkpt><trkpt lat="46.27238803548812" lon="13.361930595932987"><ele>839.0</ele><time>2026-03-28T11:41:47.001Z</time></trkpt><trkpt lat="46.27244525788355" lon="13.362067066331441"><ele>839.0</ele><time>2026-03-28T11:41:48.001Z</time></trkpt><trkpt lat="46.272501055337436" lon="13.362200566773899"><ele>839.0</ele><time>2026-03-28T11:41:49.001Z</time></trkpt><trkpt lat="46.272555591711864" lon="13.362339826174075"><ele>839.0</ele><time>2026-03-28T11:41:50.001Z</time></trkpt><trkpt lat="46.272601717860155" lon="13.362481392465428"><ele>842.6</ele><time>2026-03-28T11:41:51.001Z</time></trkpt><trkpt lat="46.27264267869015" lon="13.362606285000686"><ele>846.2</ele><time>2026-03-28T11:41:52.001Z</time></trkpt><trkpt lat="46.27268463717822" lon="13.362717035068455"><ele>849.8000000000001</ele><time>2026-03-28T11:41:53.001Z</time></trkpt><trkpt lat="46.27274235980689" lon="13.362847749654643"><ele>853.4000000000001</ele><time>2026-03-28T11:41:55.001Z</time></trkpt><trkpt lat="46.27282887038504" lon="13.362860232784982"><ele>857.0</ele><time>2026-03-28T11:41:57.001Z</time></trkpt><trkpt lat="46.272914039829075" lon="13.362728956823126"><ele>857.0000000000001</ele><time>2026-03-28T11:41:59.001Z</time></trkpt><trkpt lat="46.27293786480176" lon="13.362637026441945"><ele>857.0</ele><time>2026-03-28T11:42:00.001Z</time></trkpt><trkpt lat="46.27297880929653" lon="13.362531743835099"><ele>857.0</ele><time>2026-03-28T11:42:01Z</time></trkpt><trkpt lat="46.27301172744779" lon="13.36241163088453"><ele>857.0</ele><time>2026-03-28T11:42:02Z</time></trkpt><trkpt lat="46.273055837325664" lon="13.362346294298016"><ele>857.0000000000001</ele><time>2026-03-28T11:42:03Z</time></trkpt><trkpt lat="46.273160185532674" lon="13.362313199297601"><ele>857.0</ele><time>2026-03-28T11:42:05Z</time></trkpt><trkpt lat="46.27327167985339" lon="13.362321498646015"><ele>856.8333333333334</ele><time>2026-03-28T11:42:07Z</time></trkpt><trkpt lat="46.27333922196736" lon="13.362295239876085"><ele>856.6666666666667</ele><time>2026-03-28T11:42:10Z</time></trkpt><trkpt lat="46.27335846850144" lon="13.362407812854526"><ele>856.5</ele><time>2026-03-28T11:48:21.001Z</time></trkpt><trkpt lat="46.27333770427885" lon="13.362499318381337"><ele>856.3333333333333</ele><time>2026-03-28T11:48:23.001Z</time></trkpt><trkpt lat="46.27329254147811" lon="13.36259586654818"><ele>856.1666666666666</ele><time>2026-03-28T11:48:25.001Z</time></trkpt><trkpt lat="46.27323706271085" lon="13.362679948582853"><ele>856.0</ele><time>2026-03-28T11:48:27.001Z</time></trkpt><trkpt lat="46.27318433078278" lon="13.362861653259573"><ele>857.9999999999999</ele><time>2026-03-28T11:48:29.001Z</time></trkpt><trkpt lat="46.273195749743294" lon="13.363054445506284"><ele>860.0</ele><time>2026-03-28T11:48:31.001Z</time></trkpt><trkpt lat="46.273208036788745" lon="13.363157153517909"><ele>862.0</ele><time>2026-03-28T11:48:32.001Z</time></trkpt><trkpt lat="46.273213778138505" lon="13.363259015627584"><ele>864.0</ele><time>2026-03-28T11:48:33.001Z</time></trkpt><trkpt lat="46.27322394739691" lon="13.363373772770426"><ele>865.9999999999999</ele><time>2026-03-28T11:48:34.001Z</time></trkpt><trkpt lat="46.27323227878919" lon="13.363485951135814"><ele>868.0</ele><time>2026-03-28T11:48:35.001Z</time></trkpt><trkpt lat="46.27325434494699" lon="13.36359553105276"><ele>868.0</ele><time>2026-03-28T11:48:36.001Z</time></trkpt><trkpt lat="46.27328632691043" lon="13.363704147237385"><ele>868.0</ele><time>2026-03-28T11:48:37.001Z</time></trkpt><trkpt lat="46.27334360074822" lon="13.363800358406031"><ele>868.0</ele><time>2026-03-28T11:48:38Z</time></trkpt><trkpt lat="46.273387137003326" lon="13.363907230047905"><ele>868.0</ele><time>2026-03-28T11:48:39Z</time></trkpt><trkpt lat="46.27343823302473" lon="13.36403784553956"><ele>868.0</ele><time>2026-03-28T11:48:40Z</time></trkpt><trkpt lat="46.2734759885951" lon="13.364157289032159"><ele>870.8</ele><time>2026-03-28T11:48:41Z</time></trkpt><trkpt lat="46.27349687593057" lon="13.364275933908402"><ele>873.5999999999999</ele><time>2026-03-28T11:48:42Z</time></trkpt><trkpt lat="46.27350097441266" lon="13.364388369811389"><ele>876.4000000000001</ele><time>2026-03-28T11:48:43Z</time></trkpt><trkpt lat="46.27348158649275" lon="13.36450966286343"><ele>879.2</ele><time>2026-03-28T11:48:45Z</time></trkpt><trkpt lat="46.27339944203983" lon="13.364568559554355"><ele>882.0</ele><time>2026-03-28T11:48:47Z</time></trkpt><trkpt lat="46.27328078095054" lon="13.3645610705053"><ele>882.0</ele><time>2026-03-28T11:48:49Z</time></trkpt><trkpt lat="46.273206624348596" lon="13.364560946312501"><ele>882.0</ele><time>2026-03-28T11:48:50Z</time></trkpt><trkpt lat="46.27313185760348" lon="13.364568368146365"><ele>882.0</ele><time>2026-03-28T11:48:51Z</time></trkpt><trkpt lat="46.27306888356606" lon="13.364572553095988"><ele>882.0</ele><time>2026-03-28T11:48:52Z</time></trkpt><trkpt lat="46.27299706813147" lon="13.364550399070325"><ele>882.0</ele><time>2026-03-28T11:48:53Z</time></trkpt><trkpt lat="46.272930744961464" lon="13.364509394009339"><ele>882.0</ele><time>2026-03-28T11:48:54Z</time></trkpt><trkpt lat="46.27286497015735" lon="13.364509475338325"><ele>882.0</ele><time>2026-03-28T11:48:55Z</time></trkpt><trkpt lat="46.27280161278326" lon="13.364473048463719"><ele>888.8</ele><time>2026-03-28T11:48:56Z</time></trkpt><trkpt lat="46.27273876519241" lon="13.364396975587159"><ele>895.6</ele><time>2026-03-28T11:48:57Z</time></trkpt><trkpt lat="46.272687216762144" lon="13.36425521835509"><ele>902.3999999999999</ele><time>2026-03-28T11:48:58Z</time></trkpt><trkpt lat="46.272623080242155" lon="13.364118203515812"><ele>909.1999999999999</ele><time>2026-03-28T11:48:59Z</time></trkpt><trkpt lat="46.27255336937528" lon="13.364018723097086"><ele>916.0</ele><time>2026-03-28T11:49:00Z</time></trkpt><trkpt lat="46.272481455605764" lon="13.363903780546194"><ele>918.5999999999999</ele><time>2026-03-28T11:49:01Z</time></trkpt><trkpt lat="46.27240709192343" lon="13.363805558197052"><ele>921.1999999999999</ele><time>2026-03-28T11:49:02Z</time></trkpt><trkpt lat="46.27233521356104" lon="13.363725598903851"><ele>923.8000000000001</ele><time>2026-03-28T11:49:03Z</time></trkpt><trkpt lat="46.272264081836795" lon="13.36365290986708"><ele>926.4000000000001</ele><time>2026-03-28T11:49:04Z</time></trkpt><trkpt lat="46.27218491615626" lon="13.363576535225048"><ele>929.0</ele><time>2026-03-28T11:49:05Z</time></trkpt><trkpt lat="46.27211340294776" lon="13.363511521670286"><ele>929.0</ele><time>2026-03-28T11:49:06Z</time></trkpt><trkpt lat="46.272064192154346" lon="13.363417078376214"><ele>929.0000000000001</ele><time>2026-03-28T11:49:07Z</time></trkpt><trkpt lat="46.272029671044066" lon="13.363314235567383"><ele>929.0</ele><time>2026-03-28T11:49:08Z</time></trkpt><trkpt lat="46.272002661371715" lon="13.363229152240802"><ele>929.0</ele><time>2026-03-28T11:49:09Z</time></trkpt><trkpt lat="46.271970403957454" lon="13.363139100201552"><ele>929.0000000000001</ele><time>2026-03-28T11:49:10Z</time></trkpt><trkpt lat="46.2719192383779" lon="13.363077342846413"><ele>929.0</ele><time>2026-03-28T11:49:12Z</time></trkpt><trkpt lat="46.27191368477277" lon="13.363179832651307"><ele>929.0</ele><time>2026-03-28T11:49:15Z</time></trkpt><trkpt lat="46.27194988701752" lon="13.363265730087528"><ele>929.0</ele><time>2026-03-28T11:49:17Z</time></trkpt><trkpt lat="46.271988174284644" lon="13.363339683952638"><ele>929.0000000000001</ele><time>2026-03-28T11:49:18Z</time></trkpt><trkpt lat="46.27202034767592" lon="13.363422074388504"><ele>929.0</ele><time>2026-03-28T11:49:19Z</time></trkpt><trkpt lat="46.27204657493492" lon="13.363510043331257"><ele>929.0</ele><time>2026-03-28T11:49:20Z</time></trkpt><trkpt lat="46.272080536194736" lon="13.363604542367211"><ele>929.0000000000001</ele><time>2026-03-28T11:49:21Z</time></trkpt><trkpt lat="46.27211863308037" lon="13.363681862299384"><ele>929.0</ele><time>2026-03-28T11:49:22Z</time></trkpt><trkpt lat="46.27217244078473" lon="13.36376692776377"><ele>929.0</ele><time>2026-03-28T11:49:23Z</time></trkpt><trkpt lat="46.272219709476644" lon="13.363850504660665"><ele>926.8333333333334</ele><time>2026-03-28T11:49:24Z</time></trkpt><trkpt lat="46.27225015649214" lon="13.363947287242395"><ele>924.6666666666667</ele><time>2026-03-28T11:49:25Z</time></trkpt><trkpt lat="46.272278777079016" lon="13.364070394382056"><ele>922.5</ele><time>2026-03-28T11:49:26Z</time></trkpt><trkpt lat="46.272329600640816" lon="13.364178374213166"><ele>920.3333333333333</ele><time>2026-03-28T11:49:27Z</time></trkpt><trkpt lat="46.27237498169788" lon="13.36428116116595"><ele>918.1666666666666</ele><time>2026-03-28T11:49:28Z</time></trkpt><trkpt lat="46.272397433145294" lon="13.36439831014579"><ele>916.0</ele><time>2026-03-28T11:49:29Z</time></trkpt><trkpt lat="46.27243212700917" lon="13.364514392799506"><ele>916.0</ele><time>2026-03-28T11:49:30Z</time></trkpt><trkpt lat="46.27246317135432" lon="13.364642570749917"><ele>915.9999999999999</ele><time>2026-03-28T11:49:31Z</time></trkpt><trkpt lat="46.272499127641034" lon="13.364784407825006"><ele>915.9999999999999</ele><time>2026-03-28T11:49:32Z</time></trkpt><trkpt lat="46.27254161370807" lon="13.364930384760576"><ele>916.0</ele><time>2026-03-28T11:49:33Z</time></trkpt><trkpt lat="46.27258078549419" lon="13.365068633111838"><ele>916.0</ele><time>2026-03-28T11:49:34Z</time></trkpt><trkpt lat="46.27262241489439" lon="13.365175057750802"><ele>919.9999999999999</ele><time>2026-03-28T11:49:35Z</time></trkpt><trkpt lat="46.272668101002154" lon="13.365267290303649"><ele>924.0</ele><time>2026-03-28T11:49:36Z</time></trkpt><trkpt lat="46.27271638736136" lon="13.36539112237364"><ele>928.0</ele><time>2026-03-28T11:49:37Z</time></trkpt><trkpt lat="46.27275913593981" lon="13.365508872291569"><ele>932.0</ele><time>2026-03-28T11:49:38Z</time></trkpt><trkpt lat="46.27279273254133" lon="13.36561274252194"><ele>935.9999999999999</ele><time>2026-03-28T11:49:39Z</time></trkpt><trkpt lat="46.27282651533295" lon="13.365710169779538"><ele>940.0</ele><time>2026-03-28T11:49:40Z</time></trkpt><trkpt lat="46.27285227987449" lon="13.365851613277483"><ele>940.6</ele><time>2026-03-28T11:49:41Z</time></trkpt><trkpt lat="46.27287527491488" lon="13.365967767759031"><ele>941.2</ele><time>2026-03-28T11:49:42Z</time></trkpt><trkpt lat="46.27294768900353" lon="13.366084714829732"><ele>941.8</ele><time>2026-03-28T11:49:43Z</time></trkpt><trkpt lat="46.273000359605156" lon="13.366187659574093"><ele>942.4</ele><time>2026-03-28T11:49:44Z</time></trkpt><trkpt lat="46.27304020332035" lon="13.366306494489347"><ele>943.0</ele><time>2026-03-28T11:49:45Z</time></trkpt><trkpt lat="46.27307462740518" lon="13.36643315483063"><ele>942.25</ele><time>2026-03-28T11:49:46Z</time></trkpt><trkpt lat="46.27314415501046" lon="13.36663293732859"><ele>941.5</ele><time>2026-03-28T11:49:47Z</time></trkpt><trkpt lat="46.27320195184915" lon="13.366754522249924"><ele>940.75</ele><time>2026-03-28T11:49:48Z</time></trkpt><trkpt lat="46.27322907893829" lon="13.366904445439152"><ele>940.0</ele><time>2026-03-28T11:49:49Z</time></trkpt><trkpt lat="46.273273234101346" lon="13.367048931795797"><ele>940.6</ele><time>2026-03-28T11:49:50Z</time></trkpt><trkpt lat="46.27329955785316" lon="13.367196080343172"><ele>941.2</ele><time>2026-03-28T11:49:51Z</time></trkpt><trkpt lat="46.27333363178784" lon="13.367333337147917"><ele>941.8</ele><time>2026-03-28T11:49:52Z</time></trkpt><trkpt lat="46.273341975314395" lon="13.367471721467012"><ele>942.4</ele><time>2026-03-28T11:49:53Z</time></trkpt><trkpt lat="46.273329755301965" lon="13.367582889597395"><ele>943.0</ele><time>2026-03-28T11:49:54Z</time></trkpt><trkpt lat="46.27331512322489" lon="13.367687665676574"><ele>943.0</ele><time>2026-03-28T11:49:55Z</time></trkpt><trkpt lat="46.2733054311795" lon="13.36779159546861"><ele>943.0</ele><time>2026-03-28T11:49:56Z</time></trkpt><trkpt lat="46.27333911113029" lon="13.367901366756582"><ele>943.0</ele><time>2026-03-28T11:49:57Z</time></trkpt><trkpt lat="46.273298040455835" lon="13.36800488665792"><ele>943.0</ele><time>2026-03-28T11:49:58Z</time></trkpt><trkpt lat="46.273218162929815" lon="13.368033084346896"><ele>943.0</ele><time>2026-03-28T11:49:59Z</time></trkpt><trkpt lat="46.27310219669945" lon="13.36794604314746"><ele>940.5999999999999</ele><time>2026-03-28T11:50:02Z</time></trkpt><trkpt lat="46.27304983011452" lon="13.367851301151369"><ele>938.1999999999999</ele><time>2026-03-28T11:50:03Z</time></trkpt><trkpt lat="46.272992611422254" lon="13.367748107204642"><ele>935.8</ele><time>2026-03-28T11:50:04Z</time></trkpt><trkpt lat="46.27291248603073" lon="13.367642916117418"><ele>933.4</ele><time>2026-03-28T11:50:05Z</time></trkpt><trkpt lat="46.27284020664162" lon="13.367535620244142"><ele>931.0</ele><time>2026-03-28T11:50:06Z</time></trkpt><trkpt lat="46.272776189392545" lon="13.367398516900884"><ele>931.0</ele><time>2026-03-28T11:50:07Z</time></trkpt><trkpt lat="46.27271086766796" lon="13.367214589169402"><ele>931.0</ele><time>2026-03-28T11:50:08Z</time></trkpt><trkpt lat="46.27262367298619" lon="13.367025503533721"><ele>931.0</ele><time>2026-03-28T11:50:09Z</time></trkpt><trkpt lat="46.272538677062464" lon="13.366858134583987"><ele>931.0</ele><time>2026-03-28T11:50:10Z</time></trkpt><trkpt lat="46.27245518146775" lon="13.366693061341168"><ele>933.75</ele><time>2026-03-28T11:50:11Z</time></trkpt><trkpt lat="46.27237412469122" lon="13.366540755845627"><ele>936.5</ele><time>2026-03-28T11:50:12Z</time></trkpt><trkpt lat="46.27229129555899" lon="13.366378423822436"><ele>939.25</ele><time>2026-03-28T11:50:13Z</time></trkpt><trkpt lat="46.27219094221748" lon="13.366215204372836"><ele>942.0</ele><time>2026-03-28T11:50:14Z</time></trkpt><trkpt lat="46.27207500586624" lon="13.36603284811861"><ele>942.0</ele><time>2026-03-28T11:50:15Z</time></trkpt><trkpt lat="46.27196237388581" lon="13.365847380127141"><ele>942.0</ele><time>2026-03-28T11:50:16Z</time></trkpt><trkpt lat="46.27187288404963" lon="13.365677932428211"><ele>942.0</ele><time>2026-03-28T11:50:17Z</time></trkpt><trkpt lat="46.271782597313695" lon="13.365552888265848"><ele>942.0</ele><time>2026-03-28T11:50:18Z</time></trkpt><trkpt lat="46.27168368873576" lon="13.365456920003405"><ele>942.75</ele><time>2026-03-28T11:50:19Z</time></trkpt><trkpt lat="46.27155611844299" lon="13.365332095700566"><ele>943.5</ele><time>2026-03-28T11:50:20Z</time></trkpt><trkpt lat="46.271448263813745" lon="13.365230257333995"><ele>944.25</ele><time>2026-03-28T11:50:21Z</time></trkpt><trkpt lat="46.27134941860266" lon="13.365109362026669"><ele>945.0</ele><time>2026-03-28T11:50:22Z</time></trkpt><trkpt lat="46.27124308649272" lon="13.364977314002964"><ele>945.0</ele><time>2026-03-28T11:50:23Z</time></trkpt><trkpt lat="46.27114459218057" lon="13.364864581325005"><ele>945.0</ele><time>2026-03-28T11:50:24Z</time></trkpt><trkpt lat="46.271053285526996" lon="13.364785260071207"><ele>945.0</ele><time>2026-03-28T11:50:25.001Z</time></trkpt><trkpt lat="46.27096136104845" lon="13.36473655230148"><ele>945.0</ele><time>2026-03-28T11:50:26.001Z</time></trkpt><trkpt lat="46.270830961959675" lon="13.364716207580772"><ele>945.0</ele><time>2026-03-28T11:50:27.001Z</time></trkpt><trkpt lat="46.270693855966165" lon="13.364710402413856"><ele>945.0</ele><time>2026-03-28T11:50:28.001Z</time></trkpt><trkpt lat="46.27060069286079" lon="13.36470430219654"><ele>945.0</ele><time>2026-03-28T11:50:29.001Z</time></trkpt><trkpt lat="46.270531558610145" lon="13.364579839615585"><ele>945.0</ele><time>2026-03-28T11:50:31.001Z</time></trkpt><trkpt lat="46.27053774186775" lon="13.364464813253342"><ele>945.0</ele><time>2026-03-28T11:50:32.001Z</time></trkpt><trkpt lat="46.27056601670816" lon="13.36430088779583"><ele>943.2</ele><time>2026-03-28T11:50:33.001Z</time></trkpt><trkpt lat="46.270599962177556" lon="13.364130005746514"><ele>941.4</ele><time>2026-03-28T11:50:34.001Z</time></trkpt><trkpt lat="46.27058939372637" lon="13.363998300041281"><ele>939.5999999999999</ele><time>2026-03-28T11:50:35.001Z</time></trkpt><trkpt lat="46.27054396723423" lon="13.363892376650728"><ele>937.8</ele><time>2026-03-28T11:50:36.001Z</time></trkpt><trkpt lat="46.27048225901388" lon="13.36379678370996"><ele>936.0</ele><time>2026-03-28T11:50:37.001Z</time></trkpt><trkpt lat="46.27038844663187" lon="13.363724012924596"><ele>936.0</ele><time>2026-03-28T11:50:38.001Z</time></trkpt><trkpt lat="46.27027302608432" lon="13.363644322747083"><ele>936.0</ele><time>2026-03-28T11:50:39.001Z</time></trkpt><trkpt lat="46.27012997769203" lon="13.363560131968867"><ele>936.0</ele><time>2026-03-28T11:50:40.001Z</time></trkpt><trkpt lat="46.27000436096531" lon="13.363489929100059"><ele>936.0</ele><time>2026-03-28T11:50:41Z</time></trkpt><trkpt lat="46.2699047393729" lon="13.36342967059502"><ele>936.0</ele><time>2026-03-28T11:50:42Z</time></trkpt><trkpt lat="46.269818599606566" lon="13.363388394030455"><ele>935.9999999999999</ele><time>2026-03-28T11:50:43Z</time></trkpt><trkpt lat="46.269744396770264" lon="13.363343401405057"><ele>935.9999999999999</ele><time>2026-03-28T11:50:44Z</time></trkpt><trkpt lat="46.26969849975476" lon="13.363196210131985"><ele>936.0</ele><time>2026-03-28T11:50:46Z</time></trkpt><trkpt lat="46.26974913546278" lon="13.363002932937146"><ele>936.0</ele><time>2026-03-28T11:50:48Z</time></trkpt><trkpt lat="46.26981911068218" lon="13.362858115662664"><ele>935.1999999999999</ele><time>2026-03-28T11:50:49Z</time></trkpt><trkpt lat="46.269875869466524" lon="13.362709766628862"><ele>934.3999999999999</ele><time>2026-03-28T11:50:50Z</time></trkpt><trkpt lat="46.269910745994224" lon="13.362587829172725"><ele>933.6</ele><time>2026-03-28T11:50:51Z</time></trkpt><trkpt lat="46.26991727104649" lon="13.362464542362575"><ele>932.8</ele><time>2026-03-28T11:50:52Z</time></trkpt><trkpt lat="46.26989091503394" lon="13.362340149765275"><ele>932.0</ele><time>2026-03-28T11:50:53Z</time></trkpt><trkpt lat="46.26983111501561" lon="13.362196013541913"><ele>927.6</ele><time>2026-03-28T11:50:54Z</time></trkpt><trkpt lat="46.26972772996345" lon="13.362017314659019"><ele>923.2</ele><time>2026-03-28T11:50:55Z</time></trkpt><trkpt lat="46.269666722419004" lon="13.36188944550936"><ele>918.8</ele><time>2026-03-28T11:50:56Z</time></trkpt><trkpt lat="46.269624448862125" lon="13.36178496709391"><ele>914.4</ele><time>2026-03-28T11:50:58Z</time></trkpt><trkpt lat="46.26953877175267" lon="13.36181847828333"><ele>910.0</ele><time>2026-03-28T11:51:00Z</time></trkpt><trkpt lat="46.26943706351676" lon="13.361912602302867"><ele>909.9999999999999</ele><time>2026-03-28T11:51:02Z</time></trkpt><trkpt lat="46.269357964375644" lon="13.361966735006023"><ele>910.0</ele><time>2026-03-28T11:51:03Z</time></trkpt><trkpt lat="46.26929407509391" lon="13.36197975638346"><ele>910.0</ele><time>2026-03-28T11:51:04Z</time></trkpt><trkpt lat="46.26921550859937" lon="13.361885160384126"><ele>910.0</ele><time>2026-03-28T11:51:06Z</time></trkpt><trkpt lat="46.269182472882655" lon="13.361777663982991"><ele>909.9999999999999</ele><time>2026-03-28T11:51:07Z</time></trkpt><trkpt lat="46.269145307627085" lon="13.361637977701221"><ele>910.0</ele><time>2026-03-28T11:51:08Z</time></trkpt><trkpt lat="46.269077994955595" lon="13.361465539964776"><ele>907.75</ele><time>2026-03-28T11:51:09Z</time></trkpt><trkpt lat="46.26898822490544" lon="13.361308383866124"><ele>905.5</ele><time>2026-03-28T11:51:10Z</time></trkpt><trkpt lat="46.26888383154851" lon="13.361179444937891"><ele>903.25</ele><time>2026-03-28T11:51:11Z</time></trkpt><trkpt lat="46.26878003788673" lon="13.361069099114658"><ele>901.0</ele><time>2026-03-28T11:51:12Z</time></trkpt><trkpt lat="46.26866107052543" lon="13.360974080637543"><ele>901.0</ele><time>2026-03-28T11:51:13Z</time></trkpt><trkpt lat="46.26854350121753" lon="13.36088599634841"><ele>901.0</ele><time>2026-03-28T11:51:14Z</time></trkpt><trkpt lat="46.2684340321922" lon="13.360781363169844"><ele>901.0</ele><time>2026-03-28T11:51:15Z</time></trkpt><trkpt lat="46.26831801632491" lon="13.360662553602799"><ele>901.0</ele><time>2026-03-28T11:51:16Z</time></trkpt><trkpt lat="46.26819965774842" lon="13.36052742581323"><ele>903.0</ele><time>2026-03-28T11:51:17Z</time></trkpt><trkpt lat="46.268087025194255" lon="13.36042433779396"><ele>905.0</ele><time>2026-03-28T11:51:18Z</time></trkpt><trkpt lat="46.267986405912424" lon="13.360365003736495"><ele>907.0</ele><time>2026-03-28T11:51:19Z</time></trkpt><trkpt lat="46.26787423120656" lon="13.360337054738077"><ele>909.0</ele><time>2026-03-28T11:51:20Z</time></trkpt><trkpt lat="46.26775282053841" lon="13.360335637823857"><ele>909.0</ele><time>2026-03-28T11:51:21Z</time></trkpt><trkpt lat="46.26763057603817" lon="13.360335092516824"><ele>909.0000000000001</ele><time>2026-03-28T11:51:22Z</time></trkpt><trkpt lat="46.267534064863696" lon="13.36036148523641"><ele>909.0000000000001</ele><time>2026-03-28T11:51:23Z</time></trkpt><trkpt lat="46.2674515752848" lon="13.360398633212103"><ele>909.0</ele><time>2026-03-28T11:51:24Z</time></trkpt><trkpt lat="46.26738627232644" lon="13.36046386742882"><ele>909.0</ele><time>2026-03-28T11:51:25Z</time></trkpt><trkpt lat="46.26731830680111" lon="13.360557575306679"><ele>907.0</ele><time>2026-03-28T11:51:26Z</time></trkpt><trkpt lat="46.26723650483573" lon="13.36068586395365"><ele>905.0</ele><time>2026-03-28T11:51:27Z</time></trkpt><trkpt lat="46.267137582248594" lon="13.360839682480103"><ele>903.0</ele><time>2026-03-28T11:51:28Z</time></trkpt><trkpt lat="46.267041193547776" lon="13.360970411409003"><ele>901.0</ele><time>2026-03-28T11:51:29Z</time></trkpt><trkpt lat="46.266944632734536" lon="13.361076914553495"><ele>901.0</ele><time>2026-03-28T11:51:30Z</time></trkpt><trkpt lat="46.2668577917079" lon="13.361162121423549"><ele>900.9999999999999</ele><time>2026-03-28T11:51:31Z</time></trkpt><trkpt lat="46.26676635307298" lon="13.3612141929265"><ele>900.9999999999999</ele><time>2026-03-28T11:51:32Z</time></trkpt><trkpt lat="46.266680680110106" lon="13.36125028150799"><ele>901.0</ele><time>2026-03-28T11:51:33Z</time></trkpt><trkpt lat="46.26659371663758" lon="13.361262906121524"><ele>901.0</ele><time>2026-03-28T11:51:34Z</time></trkpt><trkpt lat="46.26652166735066" lon="13.361236046362524"><ele>900.9999999999999</ele><time>2026-03-28T11:51:35Z</time></trkpt><trkpt lat="46.26646051905512" lon="13.361184687996186"><ele>901.0</ele><time>2026-03-28T11:51:36Z</time></trkpt><trkpt lat="46.266408925550145" lon="13.361099446451872"><ele>901.0</ele><time>2026-03-28T11:51:37Z</time></trkpt><trkpt lat="46.26637067564142" lon="13.360948232375632"><ele>901.0</ele><time>2026-03-28T11:51:38Z</time></trkpt><trkpt lat="46.26633113188226" lon="13.36084908333927"><ele>900.9999999999999</ele><time>2026-03-28T11:51:39Z</time></trkpt><trkpt lat="46.26627121038197" lon="13.360773008125502"><ele>901.0</ele><time>2026-03-28T11:51:41Z</time></trkpt><trkpt lat="46.26622923113466" lon="13.360869625988544"><ele>896.4</ele><time>2026-03-28T11:51:43Z</time></trkpt><trkpt lat="46.266188917111286" lon="13.360982423751842"><ele>891.8</ele><time>2026-03-28T11:51:44Z</time></trkpt><trkpt lat="46.26616193974386" lon="13.361133252032579"><ele>887.1999999999999</ele><time>2026-03-28T11:51:45Z</time></trkpt><trkpt lat="46.26615702864441" lon="13.3612822565989"><ele>882.5999999999999</ele><time>2026-03-28T11:51:46Z</time></trkpt><trkpt lat="46.266161668311035" lon="13.361396472694063"><ele>878.0</ele><time>2026-03-28T11:51:47Z</time></trkpt><trkpt lat="46.266207355231344" lon="13.361495628191161"><ele>878.0</ele><time>2026-03-28T11:51:48Z</time></trkpt><trkpt lat="46.26628119862105" lon="13.36156476213215"><ele>878.0</ele><time>2026-03-28T11:51:49Z</time></trkpt><trkpt lat="46.26637887032676" lon="13.361619918467175"><ele>878.0</ele><time>2026-03-28T11:51:50Z</time></trkpt><trkpt lat="46.26646667642517" lon="13.361657851667363"><ele>878.0</ele><time>2026-03-28T11:51:51Z</time></trkpt><trkpt lat="46.26651620022031" lon="13.36175509354589"><ele>878.0</ele><time>2026-03-28T11:51:53Z</time></trkpt><trkpt lat="46.266452106709565" lon="13.36185132908108"><ele>878.0</ele><time>2026-03-28T11:51:55Z</time></trkpt><trkpt lat="46.266380530051336" lon="13.36186829790418"><ele>878.0</ele><time>2026-03-28T11:51:56Z</time></trkpt><trkpt lat="46.266262233780765" lon="13.361860718728144"><ele>878.0</ele><time>2026-03-28T11:51:57Z</time></trkpt><trkpt lat="46.266125150733174" lon="13.361837760401722"><ele>878.0</ele><time>2026-03-28T11:51:58Z</time></trkpt><trkpt lat="46.26598634706139" lon="13.361810719951565"><ele>878.0000000000001</ele><time>2026-03-28T11:51:59Z</time></trkpt><trkpt lat="46.2658853922534" lon="13.361789350365425"><ele>878.0</ele><time>2026-03-28T11:52:00Z</time></trkpt><trkpt lat="46.265810359949704" lon="13.361744668438492"><ele>878.0</ele><time>2026-03-28T11:52:01Z</time></trkpt><trkpt lat="46.26574732277443" lon="13.361663407755712"><ele>878.0</ele><time>2026-03-28T11:52:02Z</time></trkpt><trkpt lat="46.265686903510954" lon="13.361557118723697"><ele>878.0000000000001</ele><time>2026-03-28T11:52:03Z</time></trkpt><trkpt lat="46.26563714712926" lon="13.361482638060092"><ele>878.0</ele><time>2026-03-28T11:52:04Z</time></trkpt><trkpt lat="46.26556365162168" lon="13.36145080217798"><ele>874.5999999999999</ele><time>2026-03-28T11:52:05Z</time></trkpt><trkpt lat="46.26544134896327" lon="13.361437325020995"><ele>871.1999999999999</ele><time>2026-03-28T11:52:06Z</time></trkpt><trkpt lat="46.26532153489078" lon="13.361410532385896"><ele>867.8</ele><time>2026-03-28T11:52:07Z</time></trkpt><trkpt lat="46.265231042519105" lon="13.361327938160777"><ele>864.4</ele><time>2026-03-28T11:52:08Z</time></trkpt><trkpt lat="46.26516365455968" lon="13.36124156547318"><ele>861.0</ele><time>2026-03-28T11:52:09Z</time></trkpt><trkpt lat="46.26510721324318" lon="13.361197326865266"><ele>861.0</ele><time>2026-03-28T11:52:10Z</time></trkpt><trkpt lat="46.26499173720502" lon="13.361259264078287"><ele>860.9999999999999</ele><time>2026-03-28T11:52:12Z</time></trkpt><trkpt lat="46.26491573376095" lon="13.361350953900033"><ele>860.9999999999999</ele><time>2026-03-28T11:52:13Z</time></trkpt><trkpt lat="46.26485323325899" lon="13.361474111040508"><ele>861.0</ele><time>2026-03-28T11:52:14Z</time></trkpt><trkpt lat="46.264796017508345" lon="13.361621909601649"><ele>861.0</ele><time>2026-03-28T11:52:15Z</time></trkpt><trkpt lat="46.26475514469553" lon="13.361774588479092"><ele>859.8</ele><time>2026-03-28T11:52:16Z</time></trkpt><trkpt lat="46.26472886757194" lon="13.361926984643475"><ele>858.5999999999999</ele><time>2026-03-28T11:52:17Z</time></trkpt><trkpt lat="46.26471885369697" lon="13.362045405693138"><ele>857.4</ele><time>2026-03-28T11:52:18Z</time></trkpt><trkpt lat="46.2647052784008" lon="13.362136304859085"><ele>856.2</ele><time>2026-03-28T11:52:19Z</time></trkpt><trkpt lat="46.26473662278128" lon="13.362222249706452"><ele>855.0</ele><time>2026-03-28T11:52:21Z</time></trkpt><trkpt lat="46.26487619543953" lon="13.362202013107446"><ele>855.0</ele><time>2026-03-28T11:52:23Z</time></trkpt><trkpt lat="46.264975645239566" lon="13.362185025457645"><ele>855.0</ele><time>2026-03-28T11:52:24Z</time></trkpt><trkpt lat="46.265040418730834" lon="13.362195350175119"><ele>855.0</ele><time>2026-03-28T11:52:25Z</time></trkpt><trkpt lat="46.265077921230876" lon="13.362333381131052"><ele>855.0</ele><time>2026-03-28T11:52:27Z</time></trkpt><trkpt lat="46.26507190838512" lon="13.362432004720413"><ele>855.0</ele><time>2026-03-28T11:52:28Z</time></trkpt><trkpt lat="46.265062090006225" lon="13.362581006373937"><ele>855.0</ele><time>2026-03-28T11:52:29Z</time></trkpt><trkpt lat="46.26510900970599" lon="13.362778318027562"><ele>855.0</ele><time>2026-03-28T11:52:30Z</time></trkpt><trkpt lat="46.2651581201702" lon="13.3629717972327"><ele>855.0</ele><time>2026-03-28T11:52:31.001Z</time></trkpt><trkpt lat="46.26516928485409" lon="13.36317122538951"><ele>855.0</ele><time>2026-03-28T11:52:32.001Z</time></trkpt><trkpt lat="46.265163911114016" lon="13.363328552579972"><ele>855.0</ele><time>2026-03-28T11:52:33.001Z</time></trkpt><trkpt lat="46.26513530509192" lon="13.363469510241895"><ele>852.2</ele><time>2026-03-28T11:52:34.001Z</time></trkpt><trkpt lat="46.2651209874377" lon="13.363605012329923"><ele>849.4</ele><time>2026-03-28T11:52:35Z</time></trkpt><trkpt lat="46.26511344306207" lon="13.36372533466979"><ele>846.5999999999999</ele><time>2026-03-28T11:52:36Z</time></trkpt><trkpt lat="46.265126355337756" lon="13.363820451606061"><ele>843.8</ele><time>2026-03-28T11:52:37Z</time></trkpt><trkpt lat="46.26521788300486" lon="13.363976290133806"><ele>841.0</ele><time>2026-03-28T11:52:39Z</time></trkpt><trkpt lat="46.26527758991453" lon="13.364055071052974"><ele>838.1999999999999</ele><time>2026-03-28T11:52:40Z</time></trkpt><trkpt lat="46.26528307092" lon="13.3641793409921"><ele>835.4</ele><time>2026-03-28T11:52:42Z</time></trkpt><trkpt lat="46.26516770992939" lon="13.364218004778335"><ele>832.6</ele><time>2026-03-28T11:52:44Z</time></trkpt><trkpt lat="46.2650768176706" lon="13.364226465261044"><ele>829.8</ele><time>2026-03-28T11:52:45Z</time></trkpt><trkpt lat="46.2649930905975" lon="13.36423331981081"><ele>827.0</ele><time>2026-03-28T11:52:46Z</time></trkpt><trkpt lat="46.26493393509897" lon="13.364305737139455"><ele>827.0</ele><time>2026-03-28T11:52:48Z</time></trkpt><trkpt lat="46.264995729721534" lon="13.364459834261597"><ele>827.0</ele><time>2026-03-28T11:52:50Z</time></trkpt><trkpt lat="46.26502646272741" lon="13.364559978990375"><ele>827.0</ele><time>2026-03-28T11:52:51Z</time></trkpt><trkpt lat="46.26493693531339" lon="13.36470791929624"><ele>827.0</ele><time>2026-03-28T11:52:53Z</time></trkpt><trkpt lat="46.264840897635345" lon="13.36479469146588"><ele>827.0</ele><time>2026-03-28T11:52:54Z</time></trkpt><trkpt lat="46.26473903166305" lon="13.364933855912764"><ele>822.0</ele><time>2026-03-28T11:52:55Z</time></trkpt><trkpt lat="46.264649487387295" lon="13.365082395964075"><ele>817.0</ele><time>2026-03-28T11:52:56Z</time></trkpt><trkpt lat="46.26456547026609" lon="13.36519520157748"><ele>812.0</ele><time>2026-03-28T11:52:57Z</time></trkpt><trkpt lat="46.26449046172176" lon="13.365283375276812"><ele>807.0</ele><time>2026-03-28T11:52:58Z</time></trkpt><trkpt lat="46.26444037621866" lon="13.365347142665158"><ele>802.0</ele><time>2026-03-28T11:52:59Z</time></trkpt><trkpt lat="46.26440606872236" lon="13.36546718133576"><ele>801.1666666666666</ele><time>2026-03-28T11:53:00Z</time></trkpt><trkpt lat="46.26437693909362" lon="13.365587185667994"><ele>800.3333333333333</ele><time>2026-03-28T11:53:01Z</time></trkpt><trkpt lat="46.26432180377885" lon="13.365662631167782"><ele>799.5</ele><time>2026-03-28T11:53:02Z</time></trkpt><trkpt lat="46.26423371240538" lon="13.365701503953575"><ele>798.6666666666667</ele><time>2026-03-28T11:53:03Z</time></trkpt><trkpt lat="46.26413216237337" lon="13.36571150848481"><ele>797.8333333333334</ele><time>2026-03-28T11:53:04Z</time></trkpt><trkpt lat="46.26404692891643" lon="13.365696399512025"><ele>797.0</ele><time>2026-03-28T11:53:05Z</time></trkpt><trkpt lat="46.26396006003429" lon="13.365612210101574"><ele>798.0</ele><time>2026-03-28T11:53:07Z</time></trkpt><trkpt lat="46.2639832013512" lon="13.365474151945012"><ele>799.0</ele><time>2026-03-28T11:53:09Z</time></trkpt><trkpt lat="46.26403508184549" lon="13.365352035224452"><ele>800.0</ele><time>2026-03-28T11:53:10Z</time></trkpt><trkpt lat="46.26410635083684" lon="13.365189616172804"><ele>801.0</ele><time>2026-03-28T11:53:11Z</time></trkpt><trkpt lat="46.264152922069755" lon="13.365041354209312"><ele>802.0</ele><time>2026-03-28T11:53:12Z</time></trkpt><trkpt lat="46.26418631084794" lon="13.364914479797584"><ele>801.9999999999999</ele><time>2026-03-28T11:53:13Z</time></trkpt><trkpt lat="46.2642175244619" lon="13.36481190254679"><ele>802.0</ele><time>2026-03-28T11:53:14Z</time></trkpt><trkpt lat="46.26421893957941" lon="13.364708524727043"><ele>802.0</ele><time>2026-03-28T11:53:15Z</time></trkpt><trkpt lat="46.26418982166277" lon="13.364613158757669"><ele>802.0</ele><time>2026-03-28T11:53:16Z</time></trkpt><trkpt lat="46.26412902157845" lon="13.364549979966283"><ele>801.9999999999999</ele><time>2026-03-28T11:53:17Z</time></trkpt><trkpt lat="46.264047599438584" lon="13.364501687472472"><ele>802.0</ele><time>2026-03-28T11:53:18Z</time></trkpt><trkpt lat="46.2639433484543" lon="13.364454770354845"><ele>800.5714285714286</ele><time>2026-03-28T11:53:19Z</time></trkpt><trkpt lat="46.263845597195846" lon="13.36440324572726"><ele>799.1428571428571</ele><time>2026-03-28T11:53:20Z</time></trkpt><trkpt lat="46.263786761177194" lon="13.364345617246817"><ele>797.7142857142858</ele><time>2026-03-28T11:53:21Z</time></trkpt><trkpt lat="46.26375008149048" lon="13.3642687940087"><ele>796.2857142857142</ele><time>2026-03-28T11:53:22Z</time></trkpt><trkpt lat="46.26369070251052" lon="13.364208510028782"><ele>794.8571428571428</ele><time>2026-03-28T11:53:24Z</time></trkpt><trkpt lat="46.26368195634534" lon="13.36430874462365"><ele>793.4285714285714</ele><time>2026-03-28T11:53:27Z</time></trkpt><trkpt lat="46.26370983258523" lon="13.36439639516498"><ele>792.0</ele><time>2026-03-28T11:54:01Z</time></trkpt><trkpt lat="46.26376481883236" lon="13.36449688656449"><ele>792.0</ele><time>2026-03-28T11:54:03Z</time></trkpt><trkpt lat="46.26382073464814" lon="13.364541011304205"><ele>792.0</ele><time>2026-03-28T11:54:04Z</time></trkpt><trkpt lat="46.263881715692655" lon="13.364583091911133"><ele>792.0</ele><time>2026-03-28T11:54:05Z</time></trkpt><trkpt lat="46.26394449572948" lon="13.364645298466211"><ele>792.0</ele><time>2026-03-28T11:54:06Z</time></trkpt><trkpt lat="46.263985199821335" lon="13.364726373024608"><ele>792.0</ele><time>2026-03-28T11:54:07Z</time></trkpt><trkpt lat="46.26399106322838" lon="13.364825822776346"><ele>792.0</ele><time>2026-03-28T11:54:08Z</time></trkpt><trkpt lat="46.2639650093243" lon="13.364941534118554"><ele>792.0</ele><time>2026-03-28T11:54:09Z</time></trkpt><trkpt lat="46.26390397947187" lon="13.365053732359982"><ele>790.8</ele><time>2026-03-28T11:54:10Z</time></trkpt><trkpt lat="46.26383566638272" lon="13.365172299741081"><ele>789.6</ele><time>2026-03-28T11:54:11Z</time></trkpt><trkpt lat="46.26376856096621" lon="13.365297869352654"><ele>788.4</ele><time>2026-03-28T11:54:12Z</time></trkpt><trkpt lat="46.2637028839489" lon="13.365427062679824"><ele>787.1999999999999</ele><time>2026-03-28T11:54:13Z</time></trkpt><trkpt lat="46.2636310125225" lon="13.36555850341207"><ele>786.0</ele><time>2026-03-28T11:54:14Z</time></trkpt><trkpt lat="46.26356564711009" lon="13.365673136440858"><ele>786.0</ele><time>2026-03-28T11:54:15Z</time></trkpt><trkpt lat="46.26349208065598" lon="13.365745041149374"><ele>786.0</ele><time>2026-03-28T11:54:16Z</time></trkpt><trkpt lat="46.26341289347186" lon="13.365818134779733"><ele>786.0</ele><time>2026-03-28T11:54:17Z</time></trkpt><trkpt lat="46.26335263591918" lon="13.365892548628986"><ele>786.0</ele><time>2026-03-28T11:54:18Z</time></trkpt><trkpt lat="46.263316987787725" lon="13.365970405648604"><ele>786.0</ele><time>2026-03-28T11:54:19Z</time></trkpt><trkpt lat="46.26336546397964" lon="13.366100335535208"><ele>786.0</ele><time>2026-03-28T11:54:21Z</time></trkpt><trkpt lat="46.26344060745362" lon="13.366131754233635"><ele>786.0</ele><time>2026-03-28T11:54:22Z</time></trkpt><trkpt lat="46.26353507511947" lon="13.366099346789841"><ele>786.0</ele><time>2026-03-28T11:54:23Z</time></trkpt><trkpt lat="46.26363955811606" lon="13.366073726549983"><ele>786.0</ele><time>2026-03-28T11:54:24Z</time></trkpt><trkpt lat="46.26375370358734" lon="13.366058505035275"><ele>786.0</ele><time>2026-03-28T11:54:25Z</time></trkpt><trkpt lat="46.2638727235316" lon="13.36606651756581"><ele>786.0</ele><time>2026-03-28T11:54:26Z</time></trkpt><trkpt lat="46.26400073905217" lon="13.366101277210433"><ele>788.75</ele><time>2026-03-28T11:54:27Z</time></trkpt><trkpt lat="46.2641395745529" lon="13.366160936922297"><ele>791.5</ele><time>2026-03-28T11:54:28Z</time></trkpt><trkpt lat="46.26428141714105" lon="13.366232088501764"><ele>794.25</ele><time>2026-03-28T11:54:29Z</time></trkpt><trkpt lat="46.264425918843315" lon="13.36626547011174"><ele>797.0</ele><time>2026-03-28T11:54:30Z</time></trkpt><trkpt lat="46.264565506568424" lon="13.366292533499504"><ele>797.0</ele><time>2026-03-28T11:54:31Z</time></trkpt><trkpt lat="46.26469072836613" lon="13.366341847189892"><ele>797.0</ele><time>2026-03-28T11:54:32Z</time></trkpt><trkpt lat="46.264801345580096" lon="13.366371266261847"><ele>797.0</ele><time>2026-03-28T11:54:33Z</time></trkpt><trkpt lat="46.26488979718758" lon="13.366389142042108"><ele>797.0</ele><time>2026-03-28T11:54:34Z</time></trkpt><trkpt lat="46.264970856978486" lon="13.36635110918352"><ele>797.0</ele><time>2026-03-28T11:54:35Z</time></trkpt><trkpt lat="46.2650389444484" lon="13.366273597862648"><ele>797.8</ele><time>2026-03-28T11:54:36Z</time></trkpt><trkpt lat="46.26508844564281" lon="13.366171597723582"><ele>798.6</ele><time>2026-03-28T11:54:37Z</time></trkpt><trkpt lat="46.26514601846754" lon="13.36607534696416"><ele>799.4</ele><time>2026-03-28T11:54:38Z</time></trkpt><trkpt lat="46.26520720568548" lon="13.366023120864602"><ele>800.1999999999999</ele><time>2026-03-28T11:54:39Z</time></trkpt><trkpt lat="46.265319727273" lon="13.366027594325718"><ele>801.0</ele><time>2026-03-28T11:54:41Z</time></trkpt><trkpt lat="46.265415914509774" lon="13.366148961147935"><ele>801.0</ele><time>2026-03-28T11:54:43Z</time></trkpt><trkpt lat="46.26547209561006" lon="13.366229591662284"><ele>801.0</ele><time>2026-03-28T11:54:44Z</time></trkpt><trkpt lat="46.265530465098955" lon="13.366292659809211"><ele>801.0</ele><time>2026-03-28T11:54:45Z</time></trkpt><trkpt lat="46.265593837034395" lon="13.36631975137718"><ele>801.0</ele><time>2026-03-28T11:54:46Z</time></trkpt><trkpt lat="46.26568030605631" lon="13.36631016086843"><ele>801.0</ele><time>2026-03-28T11:54:47Z</time></trkpt><trkpt lat="46.265770760919054" lon="13.366246598832525"><ele>801.0</ele><time>2026-03-28T11:54:48Z</time></trkpt><trkpt lat="46.265837194613404" lon="13.366147635976283"><ele>800.4</ele><time>2026-03-28T11:54:49Z</time></trkpt><trkpt lat="46.26589844811616" lon="13.366035421809025"><ele>799.8</ele><time>2026-03-28T11:54:50Z</time></trkpt><trkpt lat="46.26596785022071" lon="13.365905105792043"><ele>799.1999999999999</ele><time>2026-03-28T11:54:51Z</time></trkpt><trkpt lat="46.266019316076054" lon="13.365820272606594"><ele>798.5999999999999</ele><time>2026-03-28T11:54:52Z</time></trkpt><trkpt lat="46.26610695932538" lon="13.365745927385186"><ele>798.0</ele><time>2026-03-28T11:54:53Z</time></trkpt><trkpt lat="46.266210775908576" lon="13.36569333132209"><ele>798.0</ele><time>2026-03-28T11:54:54Z</time></trkpt><trkpt lat="46.26632969122312" lon="13.36568311167171"><ele>798.0</ele><time>2026-03-28T11:54:55Z</time></trkpt><trkpt lat="46.26644803149749" lon="13.365711209440214"><ele>798.0</ele><time>2026-03-28T11:54:56Z</time></trkpt><trkpt lat="46.266569634288174" lon="13.365751981948204"><ele>798.0</ele><time>2026-03-28T11:54:57Z</time></trkpt><trkpt lat="46.2666913780213" lon="13.365798351424864"><ele>795.2</ele><time>2026-03-28T11:54:58Z</time></trkpt><trkpt lat="46.26680398212814" lon="13.365861616067145"><ele>792.4</ele><time>2026-03-28T11:54:59Z</time></trkpt><trkpt lat="46.26690339255414" lon="13.365945271622314"><ele>789.6</ele><time>2026-03-28T11:55:00Z</time></trkpt><trkpt lat="46.26697090436005" lon="13.36606319946562"><ele>786.8000000000001</ele><time>2026-03-28T11:55:01Z</time></trkpt><trkpt lat="46.2670064045157" lon="13.366195870544411"><ele>784.0</ele><time>2026-03-28T11:55:02Z</time></trkpt><trkpt lat="46.267021648429804" lon="13.36630063484041"><ele>783.0</ele><time>2026-03-28T11:55:03Z</time></trkpt><trkpt lat="46.267032292835154" lon="13.366395452361006"><ele>782.0</ele><time>2026-03-28T11:55:04Z</time></trkpt><trkpt lat="46.267044674201365" lon="13.366501745932727"><ele>781.0</ele><time>2026-03-28T11:55:05Z</time></trkpt><trkpt lat="46.26707448981525" lon="13.366598369360686"><ele>780.0</ele><time>2026-03-28T11:55:06Z</time></trkpt><trkpt lat="46.267104681903525" lon="13.36667943019557"><ele>779.0</ele><time>2026-03-28T11:55:07Z</time></trkpt><trkpt lat="46.26714698942867" lon="13.366798450920871"><ele>778.0</ele><time>2026-03-28T11:55:09Z</time></trkpt><trkpt lat="46.267192318156354" lon="13.366885404032962"><ele>777.0</ele><time>2026-03-28T11:55:11Z</time></trkpt><trkpt lat="46.26723364848825" lon="13.366986470994584"><ele>777.0</ele><time>2026-03-28T11:55:13Z</time></trkpt><trkpt lat="46.26728543878498" lon="13.367067719423778"><ele>777.0</ele><time>2026-03-28T11:55:15Z</time></trkpt><trkpt lat="46.267335482355705" lon="13.367135137110502"><ele>777.0</ele><time>2026-03-28T11:55:18Z</time></trkpt><trkpt lat="46.267262783415404" lon="13.36706528112598"><ele>777.0</ele><time>2026-03-28T11:55:28Z</time></trkpt><trkpt lat="46.267200873985146" lon="13.366910894919805"><ele>777.0</ele><time>2026-03-28T11:55:30Z</time></trkpt><trkpt lat="46.26716065865027" lon="13.36682475650311"><ele>777.0</ele><time>2026-03-28T11:55:31Z</time></trkpt><trkpt lat="46.26711586912946" lon="13.366729041932347"><ele>777.0</ele><time>2026-03-28T11:55:32Z</time></trkpt><trkpt lat="46.26704953447993" lon="13.36652887556055"><ele>777.0</ele><time>2026-03-28T11:55:33Z</time></trkpt><trkpt lat="46.26703398474132" lon="13.366393834111484"><ele>777.0</ele><time>2026-03-28T11:55:34Z</time></trkpt><trkpt lat="46.267029840109146" lon="13.366257592136574"><ele>777.0</ele><time>2026-03-28T11:55:35Z</time></trkpt><trkpt lat="46.267004079424034" lon="13.366124457517564"><ele>777.0</ele><time>2026-03-28T11:55:36Z</time></trkpt><trkpt lat="46.266946977825334" lon="13.365992660408605"><ele>779.3333333333333</ele><time>2026-03-28T11:55:37Z</time></trkpt><trkpt lat="46.26684687153834" lon="13.365893711852916"><ele>781.6666666666666</ele><time>2026-03-28T11:55:38Z</time></trkpt><trkpt lat="46.266701017247705" lon="13.365820576602314"><ele>784.0</ele><time>2026-03-28T11:55:39Z</time></trkpt><trkpt lat="46.26652593013923" lon="13.365764254966468"><ele>787.5</ele><time>2026-03-28T11:55:40Z</time></trkpt><trkpt lat="46.26634551752949" lon="13.365751714440776"><ele>791.0</ele><time>2026-03-28T11:55:41Z</time></trkpt><trkpt lat="46.266374155179776" lon="13.36565395117581"><ele>794.5</ele><time>2026-03-28T11:55:42Z</time></trkpt><trkpt lat="46.26624603428945" lon="13.36563997959535"><ele>798.0</ele><time>2026-03-28T11:55:43Z</time></trkpt><trkpt lat="46.266130229309745" lon="13.365662505865163"><ele>798.0</ele><time>2026-03-28T11:55:44Z</time></trkpt><trkpt lat="46.266023623551625" lon="13.365754058556066"><ele>798.0</ele><time>2026-03-28T11:55:45Z</time></trkpt><trkpt lat="46.26592114435657" lon="13.365900016036688"><ele>798.0</ele><time>2026-03-28T11:55:46Z</time></trkpt><trkpt lat="46.26584312261732" lon="13.366066149155413"><ele>798.0</ele><time>2026-03-28T11:55:47Z</time></trkpt><trkpt lat="46.26577428081039" lon="13.366201121390104"><ele>798.0</ele><time>2026-03-28T11:55:48Z</time></trkpt><trkpt lat="46.2656931149446" lon="13.36629768910591"><ele>798.0</ele><time>2026-03-28T11:55:49Z</time></trkpt><trkpt lat="46.26561569184744" lon="13.366347714859474"><ele>798.0</ele><time>2026-03-28T11:55:50Z</time></trkpt><trkpt lat="46.26555003788174" lon="13.366344143843383"><ele>798.0</ele><time>2026-03-28T11:55:51Z</time></trkpt><trkpt lat="46.265487413876826" lon="13.366297929211134"><ele>798.0</ele><time>2026-03-28T11:55:52Z</time></trkpt><trkpt lat="46.265407662953834" lon="13.366200152185348"><ele>798.0</ele><time>2026-03-28T11:55:53Z</time></trkpt><trkpt lat="46.26533397113447" lon="13.366089040499952"><ele>798.5</ele><time>2026-03-28T11:55:54Z</time></trkpt><trkpt lat="46.26525567701993" lon="13.36600990370436"><ele>799.0</ele><time>2026-03-28T11:55:55Z</time></trkpt><trkpt lat="46.26517258954555" lon="13.366006414135507"><ele>799.5</ele><time>2026-03-28T11:55:56Z</time></trkpt><trkpt lat="46.265100933135926" lon="13.36606379337508"><ele>800.0</ele><time>2026-03-28T11:55:57Z</time></trkpt><trkpt lat="46.26505989409396" lon="13.366148336570191"><ele>800.5</ele><time>2026-03-28T11:55:58Z</time></trkpt><trkpt lat="46.26504538318402" lon="13.366248186987503"><ele>801.0</ele><time>2026-03-28T11:55:59Z</time></trkpt><trkpt lat="46.265059126975146" lon="13.36642451185699"><ele>798.6666666666666</ele><time>2026-03-28T11:56:01Z</time></trkpt><trkpt lat="46.26507307274195" lon="13.366522250510211"><ele>796.3333333333333</ele><time>2026-03-28T11:56:02Z</time></trkpt><trkpt lat="46.26509700864276" lon="13.366630273816575"><ele>794.0</ele><time>2026-03-28T11:56:03Z</time></trkpt><trkpt lat="46.265146629330516" lon="13.366727383856379"><ele>791.6666666666666</ele><time>2026-03-28T11:56:04Z</time></trkpt><trkpt lat="46.265243748247165" lon="13.366802926930259"><ele>789.3333333333333</ele><time>2026-03-28T11:56:05Z</time></trkpt><trkpt lat="46.265297797866126" lon="13.366861357536642"><ele>787.0</ele><time>2026-03-28T11:56:06Z</time></trkpt><trkpt lat="46.265348116556225" lon="13.366928875532809"><ele>787.0</ele><time>2026-03-28T11:56:07Z</time></trkpt><trkpt lat="46.26533756604613" lon="13.3671077028187"><ele>787.0</ele><time>2026-03-28T11:56:09Z</time></trkpt><trkpt lat="46.26528289005689" lon="13.367220872273824"><ele>787.0</ele><time>2026-03-28T11:56:10Z</time></trkpt><trkpt lat="46.26520419356908" lon="13.367326639396486"><ele>787.0</ele><time>2026-03-28T11:56:11Z</time></trkpt><trkpt lat="46.26511256396575" lon="13.367426108380883"><ele>787.0</ele><time>2026-03-28T11:56:12Z</time></trkpt><trkpt lat="46.26500970541381" lon="13.367528101093784"><ele>783.5</ele><time>2026-03-28T11:56:13Z</time></trkpt><trkpt lat="46.26491090865857" lon="13.36764027720133"><ele>780.0</ele><time>2026-03-28T11:56:14Z</time></trkpt><trkpt lat="46.26481170954401" lon="13.367743870824146"><ele>776.5</ele><time>2026-03-28T11:56:15Z</time></trkpt><trkpt lat="46.26472388996604" lon="13.367844069203663"><ele>773.0</ele><time>2026-03-28T11:56:16Z</time></trkpt><trkpt lat="46.26465064752999" lon="13.367921595406202"><ele>771.6666666666667</ele><time>2026-03-28T11:56:17Z</time></trkpt><trkpt lat="46.26459126736145" lon="13.367967809810246"><ele>770.3333333333334</ele><time>2026-03-28T11:56:18Z</time></trkpt><trkpt lat="46.264495746344096" lon="13.367887514387506"><ele>769.0</ele><time>2026-03-28T11:56:20Z</time></trkpt><trkpt lat="46.26448980701908" lon="13.367782670068078"><ele>767.6666666666667</ele><time>2026-03-28T11:56:21Z</time></trkpt><trkpt lat="46.264511432235174" lon="13.367667217578704"><ele>766.3333333333334</ele><time>2026-03-28T11:56:22Z</time></trkpt><trkpt lat="46.26456228764472" lon="13.367562114094795"><ele>765.0</ele><time>2026-03-28T11:56:23Z</time></trkpt><trkpt lat="46.26458085899877" lon="13.367462715049681"><ele>765.0</ele><time>2026-03-28T11:56:24Z</time></trkpt><trkpt lat="46.26453450337779" lon="13.36736476414619"><ele>765.0</ele><time>2026-03-28T11:56:25Z</time></trkpt><trkpt lat="46.2644583329353" lon="13.367315182847063"><ele>765.0</ele><time>2026-03-28T11:56:26Z</time></trkpt><trkpt lat="46.264344515224664" lon="13.367284627669662"><ele>765.0</ele><time>2026-03-28T11:56:27Z</time></trkpt><trkpt lat="46.264273754366705" lon="13.36725898051643"><ele>765.0</ele><time>2026-03-28T11:56:28Z</time></trkpt><trkpt lat="46.264215790643334" lon="13.367188267262206"><ele>765.0</ele><time>2026-03-28T11:56:29Z</time></trkpt><trkpt lat="46.26419822459055" lon="13.36708398597559"><ele>766.8333333333334</ele><time>2026-03-28T11:56:30Z</time></trkpt><trkpt lat="46.26420943900369" lon="13.366955004160397"><ele>768.6666666666667</ele><time>2026-03-28T11:56:31Z</time></trkpt><trkpt lat="46.26421551571801" lon="13.366838096601624"><ele>770.5</ele><time>2026-03-28T11:56:32Z</time></trkpt><trkpt lat="46.26416130250276" lon="13.366764104562334"><ele>772.3333333333334</ele><time>2026-03-28T11:56:33Z</time></trkpt><trkpt lat="46.26409042860507" lon="13.366749935557147"><ele>774.1666666666667</ele><time>2026-03-28T11:56:34Z</time></trkpt><trkpt lat="46.26399318297892" lon="13.366797891459765"><ele>776.0</ele><time>2026-03-28T11:56:35Z</time></trkpt><trkpt lat="46.263883920450446" lon="13.366838120256688"><ele>776.0</ele><time>2026-03-28T11:56:36Z</time></trkpt><trkpt lat="46.2637664090904" lon="13.366869854171384"><ele>776.0</ele><time>2026-03-28T11:56:37Z</time></trkpt><trkpt lat="46.26363236015929" lon="13.36692102458744"><ele>776.0</ele><time>2026-03-28T11:56:38Z</time></trkpt><trkpt lat="46.2634925609675" lon="13.366992546761416"><ele>776.0</ele><time>2026-03-28T11:56:39Z</time></trkpt><trkpt lat="46.26335718712092" lon="13.367067070600402"><ele>776.0</ele><time>2026-03-28T11:56:40Z</time></trkpt><trkpt lat="46.26321685859693" lon="13.367165061634374"><ele>776.0</ele><time>2026-03-28T11:56:41Z</time></trkpt><trkpt lat="46.26307717942598" lon="13.36728010283098"><ele>776.0</ele><time>2026-03-28T11:56:42Z</time></trkpt><trkpt lat="46.2629337255926" lon="13.367383929072753"><ele>769.6666666666667</ele><time>2026-03-28T11:56:42.999Z</time></trkpt><trkpt lat="46.26279295028736" lon="13.36751845123368"><ele>763.3333333333334</ele><time>2026-03-28T11:56:43.999Z</time></trkpt><trkpt lat="46.262646557769095" lon="13.367631887933685"><ele>757.0</ele><time>2026-03-28T11:56:44.999Z</time></trkpt><trkpt lat="46.26249818615831" lon="13.367740365259445"><ele>757.0</ele><time>2026-03-28T11:56:45.999Z</time></trkpt><trkpt lat="46.26236012941567" lon="13.367842707402465"><ele>757.0</ele><time>2026-03-28T11:56:46.999Z</time></trkpt><trkpt lat="46.26222269220565" lon="13.367951939918331"><ele>757.0</ele><time>2026-03-28T11:56:47.999Z</time></trkpt><trkpt lat="46.26208889263485" lon="13.368051060521347"><ele>752.0</ele><time>2026-03-28T11:56:48.999Z</time></trkpt><trkpt lat="46.26194655139505" lon="13.368116356059755"><ele>747.0</ele><time>2026-03-28T11:56:49.999Z</time></trkpt><trkpt lat="46.26180574293206" lon="13.368159448969898"><ele>742.0</ele><time>2026-03-28T11:56:50.999Z</time></trkpt><trkpt lat="46.261698079448806" lon="13.368186890748518"><ele>737.0</ele><time>2026-03-28T11:56:51.999Z</time></trkpt><trkpt lat="46.26162004345656" lon="13.368193500378093"><ele>737.0</ele><time>2026-03-28T11:56:52.999Z</time></trkpt><trkpt lat="46.26152302466584" lon="13.368093479876578"><ele>737.0</ele><time>2026-03-28T11:56:54.999Z</time></trkpt><trkpt lat="46.26146647316097" lon="13.367964841218248"><ele>737.0</ele><time>2026-03-28T11:56:55.999Z</time></trkpt><trkpt lat="46.26140925408829" lon="13.367799547419068"><ele>737.0</ele><time>2026-03-28T11:56:56.999Z</time></trkpt><trkpt lat="46.261380126940395" lon="13.367634628771716"><ele>738.25</ele><time>2026-03-28T11:56:57.999Z</time></trkpt><trkpt lat="46.26137927368069" lon="13.367472049949708"><ele>739.5</ele><time>2026-03-28T11:56:58.999Z</time></trkpt><trkpt lat="46.26141269351253" lon="13.367299998088864"><ele>740.75</ele><time>2026-03-28T11:56:59.999Z</time></trkpt><trkpt lat="46.26146151291245" lon="13.367123440274751"><ele>742.0</ele><time>2026-03-28T11:57:00.999Z</time></trkpt><trkpt lat="46.26152126229908" lon="13.366952034274057"><ele>742.0</ele><time>2026-03-28T11:57:01.999Z</time></trkpt><trkpt lat="46.26156982482513" lon="13.366812111282105"><ele>742.0</ele><time>2026-03-28T11:57:02.999Z</time></trkpt><trkpt lat="46.261598209619095" lon="13.366718316453984"><ele>742.0</ele><time>2026-03-28T11:57:03.999Z</time></trkpt><trkpt lat="46.261531997227486" lon="13.366591130364279"><ele>742.0</ele><time>2026-03-28T11:57:05.999Z</time></trkpt><trkpt lat="46.2614061913918" lon="13.366672561147007"><ele>742.0</ele><time>2026-03-28T11:57:07.999Z</time></trkpt><trkpt lat="46.26134309338849" lon="13.366764504207563"><ele>742.75</ele><time>2026-03-28T11:57:08.999Z</time></trkpt><trkpt lat="46.261253959374784" lon="13.366900628121238"><ele>743.5</ele><time>2026-03-28T11:57:09.999Z</time></trkpt><trkpt lat="46.26115148241093" lon="13.367022864730432"><ele>744.25</ele><time>2026-03-28T11:57:10.999Z</time></trkpt><trkpt lat="46.2610284563213" lon="13.367130366165117"><ele>745.0</ele><time>2026-03-28T11:57:11.999Z</time></trkpt><trkpt lat="46.260929889528725" lon="13.367235139827878"><ele>740.5</ele><time>2026-03-28T11:57:12.999Z</time></trkpt><trkpt lat="46.260845700342486" lon="13.367354933302293"><ele>736.0</ele><time>2026-03-28T11:57:13.999Z</time></trkpt><trkpt lat="46.26072662919905" lon="13.367468940081014"><ele>731.5</ele><time>2026-03-28T11:57:14.999Z</time></trkpt><trkpt lat="46.26058501333419" lon="13.367573010758727"><ele>727.0</ele><time>2026-03-28T11:57:15.999Z</time></trkpt><trkpt lat="46.26042547656274" lon="13.367681422145962"><ele>726.75</ele><time>2026-03-28T11:57:16.999Z</time></trkpt><trkpt lat="46.26028317755395" lon="13.367771217341211"><ele>726.5</ele><time>2026-03-28T11:57:17.999Z</time></trkpt><trkpt lat="46.26015683469729" lon="13.367875879413612"><ele>726.25</ele><time>2026-03-28T11:57:18.999Z</time></trkpt><trkpt lat="46.26005699116628" lon="13.367996960522444"><ele>726.0</ele><time>2026-03-28T11:57:19.999Z</time></trkpt><trkpt lat="46.25996800021348" lon="13.36814206511829"><ele>723.5999999999999</ele><time>2026-03-28T11:57:20.999Z</time></trkpt><trkpt lat="46.259890451896226" lon="13.368302323236795"><ele>721.2</ele><time>2026-03-28T11:57:21.999Z</time></trkpt><trkpt lat="46.25982049646329" lon="13.368432503230233"><ele>718.8</ele><time>2026-03-28T11:57:22.999Z</time></trkpt><trkpt lat="46.2597487134721" lon="13.368506178119222"><ele>716.4000000000001</ele><time>2026-03-28T11:57:23.999Z</time></trkpt><trkpt lat="46.25966733999533" lon="13.36852810641116"><ele>714.0</ele><time>2026-03-28T11:57:24.999Z</time></trkpt><trkpt lat="46.25956436822754" lon="13.36853356749019"><ele>712.25</ele><time>2026-03-28T11:57:25.999Z</time></trkpt><trkpt lat="46.259428223474984" lon="13.368501701793303"><ele>710.5</ele><time>2026-03-28T11:57:26.999Z</time></trkpt><trkpt lat="46.25929218568338" lon="13.36848862040822"><ele>708.75</ele><time>2026-03-28T11:57:27.999Z</time></trkpt><trkpt lat="46.25917169650655" lon="13.368501951347282"><ele>707.0</ele><time>2026-03-28T11:57:28.999Z</time></trkpt><trkpt lat="46.25905662585186" lon="13.368536757659683"><ele>705.25</ele><time>2026-03-28T11:57:29.999Z</time></trkpt><trkpt lat="46.25894356738" lon="13.368560097128391"><ele>703.5</ele><time>2026-03-28T11:57:30.999Z</time></trkpt><trkpt lat="46.25880051143961" lon="13.368591400494704"><ele>701.75</ele><time>2026-03-28T11:57:31.999Z</time></trkpt><trkpt lat="46.258678469532505" lon="13.368625675424104"><ele>700.0</ele><time>2026-03-28T11:57:32.999Z</time></trkpt><trkpt lat="46.25855756952474" lon="13.368641377462145"><ele>700.0</ele><time>2026-03-28T11:57:34Z</time></trkpt><trkpt lat="46.258435336426395" lon="13.368620951433028"><ele>700.0</ele><time>2026-03-28T11:57:35Z</time></trkpt><trkpt lat="46.258305769688874" lon="13.368602240310798"><ele>700.0</ele><time>2026-03-28T11:57:36Z</time></trkpt><trkpt lat="46.25817590453798" lon="13.368559838940513"><ele>700.0</ele><time>2026-03-28T11:57:37Z</time></trkpt><trkpt lat="46.25803789968488" lon="13.368508219772467"><ele>698.3333333333334</ele><time>2026-03-28T11:57:38Z</time></trkpt><trkpt lat="46.25789013357697" lon="13.368451142381037"><ele>696.6666666666666</ele><time>2026-03-28T11:57:39Z</time></trkpt><trkpt lat="46.257735127432916" lon="13.368388102294965"><ele>695.0</ele><time>2026-03-28T11:57:40Z</time></trkpt><trkpt lat="46.25757032943126" lon="13.3683216282587"><ele>695.0</ele><time>2026-03-28T11:57:41Z</time></trkpt><trkpt lat="46.25741453602492" lon="13.36825662082405"><ele>695.0</ele><time>2026-03-28T11:57:42Z</time></trkpt><trkpt lat="46.25727260911335" lon="13.368189120412188"><ele>695.0</ele><time>2026-03-28T11:57:43Z</time></trkpt><trkpt lat="46.25712985832402" lon="13.368103867563605"><ele>694.0</ele><time>2026-03-28T11:57:44Z</time></trkpt><trkpt lat="46.25702090689268" lon="13.368010021650443"><ele>693.0</ele><time>2026-03-28T11:57:45Z</time></trkpt><trkpt lat="46.25691594474203" lon="13.367912846087922"><ele>692.0</ele><time>2026-03-28T11:57:46Z</time></trkpt><trkpt lat="46.256811900384385" lon="13.36783025291461"><ele>691.0</ele><time>2026-03-28T11:57:47Z</time></trkpt><trkpt lat="46.25671040953471" lon="13.367764780098359"><ele>691.0</ele><time>2026-03-28T11:57:48Z</time></trkpt><trkpt lat="46.25660183655909" lon="13.36770312466303"><ele>691.0</ele><time>2026-03-28T11:57:49Z</time></trkpt><trkpt lat="46.256473267646705" lon="13.367659716687294"><ele>691.0</ele><time>2026-03-28T11:57:50Z</time></trkpt><trkpt lat="46.256333137868936" lon="13.367623308949366"><ele>691.0</ele><time>2026-03-28T11:57:51Z</time></trkpt><trkpt lat="46.25616739467614" lon="13.367579119621404"><ele>690.6666666666667</ele><time>2026-03-28T11:57:52Z</time></trkpt><trkpt lat="46.25600778249915" lon="13.367522269426077"><ele>690.3333333333334</ele><time>2026-03-28T11:57:53Z</time></trkpt><trkpt lat="46.25585823516253" lon="13.367470368112455"><ele>690.0</ele><time>2026-03-28T11:57:54Z</time></trkpt><trkpt lat="46.25570437001123" lon="13.367417732648809"><ele>688.3333333333334</ele><time>2026-03-28T11:57:55Z</time></trkpt><trkpt lat="46.25555968110466" lon="13.367348867183859"><ele>686.6666666666667</ele><time>2026-03-28T11:57:56Z</time></trkpt><trkpt lat="46.255427472006104" lon="13.36726416424958"><ele>685.0</ele><time>2026-03-28T11:57:57Z</time></trkpt><trkpt lat="46.25529348254893" lon="13.367137150729672"><ele>685.0</ele><time>2026-03-28T11:57:58Z</time></trkpt><trkpt lat="46.25515248988085" lon="13.366990396520253"><ele>685.0</ele><time>2026-03-28T11:57:59Z</time></trkpt><trkpt lat="46.254990495442414" lon="13.366837158398635"><ele>685.0</ele><time>2026-03-28T11:58:00Z</time></trkpt><trkpt lat="46.254814551658214" lon="13.36666682733026"><ele>686.3333333333334</ele><time>2026-03-28T11:58:01Z</time></trkpt><trkpt lat="46.25463808819505" lon="13.366495731618075"><ele>687.6666666666666</ele><time>2026-03-28T11:58:02Z</time></trkpt><trkpt lat="46.25448703991523" lon="13.36635004984508"><ele>689.0</ele><time>2026-03-28T11:58:03Z</time></trkpt><trkpt lat="46.254352144324045" lon="13.366223194747532"><ele>689.8000000000001</ele><time>2026-03-28T11:58:04Z</time></trkpt><trkpt lat="46.25424083932595" lon="13.366101617653358"><ele>690.6</ele><time>2026-03-28T11:58:05Z</time></trkpt><trkpt lat="46.25414424478812" lon="13.3659993676681"><ele>691.4</ele><time>2026-03-28T11:58:06Z</time></trkpt><trkpt lat="46.25406236244783" lon="13.365916953856937"><ele>692.2</ele><time>2026-03-28T11:58:07Z</time></trkpt><trkpt lat="46.25400001155952" lon="13.365870306504059"><ele>693.0</ele><time>2026-03-28T11:58:08Z</time></trkpt><trkpt lat="46.25388209566491" lon="13.365918593119057"><ele>693.2</ele><time>2026-03-28T11:58:10Z</time></trkpt><trkpt lat="46.253828466209995" lon="13.366013936615515"><ele>693.4</ele><time>2026-03-28T11:58:11Z</time></trkpt><trkpt lat="46.25378044099395" lon="13.366149102677245"><ele>693.6</ele><time>2026-03-28T11:58:12Z</time></trkpt><trkpt lat="46.25372686889758" lon="13.366284736289437"><ele>693.8000000000001</ele><time>2026-03-28T11:58:13Z</time></trkpt><trkpt lat="46.25365912028245" lon="13.366429890841998"><ele>694.0</ele><time>2026-03-28T11:58:14Z</time></trkpt><trkpt lat="46.253614302538935" lon="13.366586939340895"><ele>693.25</ele><time>2026-03-28T11:58:15Z</time></trkpt><trkpt lat="46.253614391226336" lon="13.36676784610558"><ele>692.5</ele><time>2026-03-28T11:58:16Z</time></trkpt><trkpt lat="46.25365568299607" lon="13.36692294609413"><ele>691.75</ele><time>2026-03-28T11:58:17Z</time></trkpt><trkpt lat="46.253736941622826" lon="13.36705554031684"><ele>691.0</ele><time>2026-03-28T11:58:18Z</time></trkpt><trkpt lat="46.253835974878704" lon="13.367197407203857"><ele>691.5</ele><time>2026-03-28T11:58:19Z</time></trkpt><trkpt lat="46.25391653364595" lon="13.367384058108863"><ele>692.0</ele><time>2026-03-28T11:58:20Z</time></trkpt><trkpt lat="46.25395241326352" lon="13.367572325382152"><ele>692.5</ele><time>2026-03-28T11:58:21Z</time></trkpt><trkpt lat="46.253965017764685" lon="13.36773746002243"><ele>693.0</ele><time>2026-03-28T11:58:22Z</time></trkpt><trkpt lat="46.2539525297814" lon="13.367872568114615"><ele>695.5</ele><time>2026-03-28T11:58:23Z</time></trkpt><trkpt lat="46.25389595248206" lon="13.368007629060937"><ele>698.0</ele><time>2026-03-28T11:58:24Z</time></trkpt><trkpt lat="46.2538211136626" lon="13.368157352583163"><ele>700.5</ele><time>2026-03-28T11:58:25Z</time></trkpt><trkpt lat="46.253730128971" lon="13.368306299922418"><ele>703.0</ele><time>2026-03-28T11:58:26Z</time></trkpt><trkpt lat="46.25363665351816" lon="13.368434357889953"><ele>705.6666666666667</ele><time>2026-03-28T11:58:27Z</time></trkpt><trkpt lat="46.25353357629344" lon="13.368582956270584"><ele>708.3333333333334</ele><time>2026-03-28T11:58:28Z</time></trkpt><trkpt lat="46.253423972520764" lon="13.36873964900783"><ele>711.0</ele><time>2026-03-28T11:58:29Z</time></trkpt><trkpt lat="46.253304863204185" lon="13.368899335791964"><ele>711.0</ele><time>2026-03-28T11:58:30Z</time></trkpt><trkpt lat="46.25317903411043" lon="13.36906330881831"><ele>711.0</ele><time>2026-03-28T11:58:31Z</time></trkpt><trkpt lat="46.25306296694373" lon="13.369233200391882"><ele>711.0</ele><time>2026-03-28T11:58:32Z</time></trkpt><trkpt lat="46.25296028889286" lon="13.369420774491529"><ele>718.6666666666666</ele><time>2026-03-28T11:58:33Z</time></trkpt><trkpt lat="46.25286612580416" lon="13.36962819312271"><ele>726.3333333333333</ele><time>2026-03-28T11:58:34Z</time></trkpt><trkpt lat="46.252778261279914" lon="13.369858965495059"><ele>734.0</ele><time>2026-03-28T11:58:35Z</time></trkpt><trkpt lat="46.2526821488175" lon="13.370094551504847"><ele>734.0</ele><time>2026-03-28T11:58:36Z</time></trkpt><trkpt lat="46.25257962831727" lon="13.370327313177468"><ele>734.0</ele><time>2026-03-28T11:58:37Z</time></trkpt><trkpt lat="46.25248327083641" lon="13.370539539588734"><ele>734.0</ele><time>2026-03-28T11:58:38Z</time></trkpt><trkpt lat="46.252389368217564" lon="13.370720595660895"><ele>742.3333333333333</ele><time>2026-03-28T11:58:39Z</time></trkpt><trkpt lat="46.2522742091565" lon="13.370905694036638"><ele>750.6666666666666</ele><time>2026-03-28T11:58:40Z</time></trkpt><trkpt lat="46.25214492083126" lon="13.371095873761652"><ele>759.0</ele><time>2026-03-28T11:58:41Z</time></trkpt><trkpt lat="46.25201631126311" lon="13.37129851964244"><ele>753.6666666666666</ele><time>2026-03-28T11:58:42Z</time></trkpt><trkpt lat="46.251875650630566" lon="13.371499955815622"><ele>748.3333333333333</ele><time>2026-03-28T11:58:43Z</time></trkpt><trkpt lat="46.25173001497859" lon="13.37171211136711"><ele>743.0</ele><time>2026-03-28T11:58:44Z</time></trkpt><trkpt lat="46.25158822308582" lon="13.371937417117772"><ele>750.0</ele><time>2026-03-28T11:58:45Z</time></trkpt><trkpt lat="46.25144638197753" lon="13.372166373480553"><ele>757.0</ele><time>2026-03-28T11:58:46Z</time></trkpt><trkpt lat="46.25129731569072" lon="13.372387585015817"><ele>764.0</ele><time>2026-03-28T11:58:47Z</time></trkpt><trkpt lat="46.25115085140202" lon="13.372615693245345"><ele>764.0</ele><time>2026-03-28T11:58:48Z</time></trkpt><trkpt lat="46.25100166419476" lon="13.372836429894587"><ele>764.0</ele><time>2026-03-28T11:58:48.999Z</time></trkpt><trkpt lat="46.250845037253015" lon="13.373049483395317"><ele>764.0</ele><time>2026-03-28T11:58:49.999Z</time></trkpt><trkpt lat="46.2506866405923" lon="13.37326116026052"><ele>764.0</ele><time>2026-03-28T11:58:50.999Z</time></trkpt><trkpt lat="46.25052903728107" lon="13.373470709319111"><ele>764.0</ele><time>2026-03-28T11:58:51.999Z</time></trkpt><trkpt lat="46.25037974751329" lon="13.373691332398202"><ele>764.0</ele><time>2026-03-28T11:58:52.999Z</time></trkpt><trkpt lat="46.25023741215152" lon="13.37392065955433"><ele>764.0</ele><time>2026-03-28T11:58:53.999Z</time></trkpt><trkpt lat="46.25011960040712" lon="13.374127384426496"><ele>764.0</ele><time>2026-03-28T11:58:54.999Z</time></trkpt><trkpt lat="46.2500092651257" lon="13.37431604018109"><ele>764.0</ele><time>2026-03-28T11:58:55.999Z</time></trkpt><trkpt lat="46.249914761539635" lon="13.374491785415426"><ele>764.0</ele><time>2026-03-28T11:58:56.999Z</time></trkpt><trkpt lat="46.24987306233576" lon="13.374637882587036"><ele>764.0</ele><time>2026-03-28T11:58:57.999Z</time></trkpt><trkpt lat="46.249868164567815" lon="13.374763657758505"><ele>764.0</ele><time>2026-03-28T11:58:58.999Z</time></trkpt><trkpt lat="46.249907351059356" lon="13.374875523836343"><ele>764.0</ele><time>2026-03-28T11:58:59.999Z</time></trkpt><trkpt lat="46.249966767493646" lon="13.375006641145264"><ele>764.0</ele><time>2026-03-28T11:59:00.999Z</time></trkpt><trkpt lat="46.249983421073324" lon="13.37518396410787"><ele>764.75</ele><time>2026-03-28T11:59:01.999Z</time></trkpt><trkpt lat="46.249921437230604" lon="13.375392926588807"><ele>765.5</ele><time>2026-03-28T11:59:02.999Z</time></trkpt><trkpt lat="46.24981129174469" lon="13.37553568903494"><ele>766.25</ele><time>2026-03-28T11:59:03.999Z</time></trkpt><trkpt lat="46.24986809019534" lon="13.375489417965584"><ele>767.0</ele><time>2026-03-28T11:59:04.999Z</time></trkpt><trkpt lat="46.24975272847291" lon="13.375532118788241"><ele>767.0</ele><time>2026-03-28T11:59:05.999Z</time></trkpt><trkpt lat="46.24962993182021" lon="13.375558782774789"><ele>767.0</ele><time>2026-03-28T11:59:06.999Z</time></trkpt><trkpt lat="46.249515135067156" lon="13.375548441091679"><ele>767.0</ele><time>2026-03-28T11:59:07.999Z</time></trkpt><trkpt lat="46.2494054892667" lon="13.375480207933274"><ele>767.0</ele><time>2026-03-28T11:59:08.999Z</time></trkpt><trkpt lat="46.24929537425334" lon="13.375385818619565"><ele>767.0</ele><time>2026-03-28T11:59:09.999Z</time></trkpt><trkpt lat="46.24918071690903" lon="13.37533746829717"><ele>767.0</ele><time>2026-03-28T11:59:10.999Z</time></trkpt><trkpt lat="46.249075470957315" lon="13.375360890784627"><ele>767.0</ele><time>2026-03-28T11:59:11.999Z</time></trkpt><trkpt lat="46.24899630841883" lon="13.375446575183204"><ele>767.0</ele><time>2026-03-28T11:59:12.999Z</time></trkpt><trkpt lat="46.24895542782638" lon="13.37557886087258"><ele>767.0</ele><time>2026-03-28T11:59:13.999Z</time></trkpt><trkpt lat="46.248969482547515" lon="13.375748706328707"><ele>767.0</ele><time>2026-03-28T11:59:14.999Z</time></trkpt><trkpt lat="46.24898230030754" lon="13.375950577124074"><ele>767.0</ele><time>2026-03-28T11:59:15.999Z</time></trkpt><trkpt lat="46.24896257970976" lon="13.37609448987102"><ele>767.0</ele><time>2026-03-28T11:59:16.999Z</time></trkpt><trkpt lat="46.24887899968423" lon="13.376201911945648"><ele>767.0</ele><time>2026-03-28T11:59:17.999Z</time></trkpt><trkpt lat="46.248763331982474" lon="13.376319590768507"><ele>775.6666666666666</ele><time>2026-03-28T11:59:18.999Z</time></trkpt><trkpt lat="46.248653989509144" lon="13.376485964047891"><ele>784.3333333333333</ele><time>2026-03-28T11:59:19.999Z</time></trkpt><trkpt lat="46.24858225646923" lon="13.376681670735385"><ele>793.0</ele><time>2026-03-28T11:59:20.999Z</time></trkpt><trkpt lat="46.2485602833498" lon="13.376878816833683"><ele>793.0</ele><time>2026-03-28T11:59:21.999Z</time></trkpt><trkpt lat="46.24855885577323" lon="13.377076348619173"><ele>793.0</ele><time>2026-03-28T11:59:22.999Z</time></trkpt><trkpt lat="46.24856526572096" lon="13.377241961929967"><ele>793.0</ele><time>2026-03-28T11:59:23.999Z</time></trkpt><trkpt lat="46.248535783856184" lon="13.377374268163146"><ele>793.0</ele><time>2026-03-28T11:59:24.999Z</time></trkpt><trkpt lat="46.24844726398289" lon="13.377514264461382"><ele>789.6666666666666</ele><time>2026-03-28T11:59:25.999Z</time></trkpt><trkpt lat="46.248331936895646" lon="13.377687366822707"><ele>786.3333333333333</ele><time>2026-03-28T11:59:27Z</time></trkpt><trkpt lat="46.248201487148606" lon="13.377871234711463"><ele>783.0</ele><time>2026-03-28T11:59:28Z</time></trkpt><trkpt lat="46.248057548514765" lon="13.378065220956486"><ele>791.0</ele><time>2026-03-28T11:59:29Z</time></trkpt><trkpt lat="46.24788653368445" lon="13.378270035612193"><ele>799.0</ele><time>2026-03-28T11:59:30Z</time></trkpt><trkpt lat="46.24771832032349" lon="13.37848946548532"><ele>807.0</ele><time>2026-03-28T11:59:31Z</time></trkpt><trkpt lat="46.24756007490747" lon="13.378753010069536"><ele>808.6666666666667</ele><time>2026-03-28T11:59:32Z</time></trkpt><trkpt lat="46.24742089508345" lon="13.37902864329439"><ele>810.3333333333334</ele><time>2026-03-28T11:59:33Z</time></trkpt><trkpt lat="46.24730339674036" lon="13.379260840963891"><ele>812.0</ele><time>2026-03-28T11:59:34Z</time></trkpt><trkpt lat="46.24722044069582" lon="13.379474363490147"><ele>804.0</ele><time>2026-03-28T11:59:35Z</time></trkpt><trkpt lat="46.24719889511183" lon="13.379716293304714"><ele>796.0</ele><time>2026-03-28T11:59:36Z</time></trkpt><trkpt lat="46.2472032698308" lon="13.379969149031284"><ele>788.0</ele><time>2026-03-28T11:59:37Z</time></trkpt><trkpt lat="46.24722224521143" lon="13.380196748726746"><ele>788.0</ele><time>2026-03-28T11:59:38Z</time></trkpt><trkpt lat="46.24723090066795" lon="13.380376471984539"><ele>788.0</ele><time>2026-03-28T11:59:39Z</time></trkpt><trkpt lat="46.247212122137746" lon="13.380527497589792"><ele>788.0</ele><time>2026-03-28T11:59:40Z</time></trkpt><trkpt lat="46.24716045015847" lon="13.3806566538347"><ele>788.0</ele><time>2026-03-28T11:59:41Z</time></trkpt><trkpt lat="46.24707555996341" lon="13.380783013005589"><ele>783.6666666666667</ele><time>2026-03-28T11:59:42Z</time></trkpt><trkpt lat="46.24697303913464" lon="13.380946709177952"><ele>779.3333333333333</ele><time>2026-03-28T11:59:43Z</time></trkpt><trkpt lat="46.24686441342375" lon="13.381127033899402"><ele>775.0</ele><time>2026-03-28T11:59:44Z</time></trkpt><trkpt lat="46.2467377193581" lon="13.381314242782086"><ele>778.6666666666666</ele><time>2026-03-28T11:59:45Z</time></trkpt><trkpt lat="46.24661691153194" lon="13.38148751907827"><ele>782.3333333333333</ele><time>2026-03-28T11:59:46Z</time></trkpt><trkpt lat="46.24651724999975" lon="13.381656176547585"><ele>786.0</ele><time>2026-03-28T11:59:47Z</time></trkpt><trkpt lat="46.246429225056154" lon="13.381846606690578"><ele>780.0</ele><time>2026-03-28T11:59:48Z</time></trkpt><trkpt lat="46.24636068917875" lon="13.382034936447411"><ele>774.0</ele><time>2026-03-28T11:59:49Z</time></trkpt><trkpt lat="46.24630064168732" lon="13.382234090543928"><ele>768.0</ele><time>2026-03-28T11:59:50Z</time></trkpt><trkpt lat="46.24624983368893" lon="13.382429561126301"><ele>762.0</ele><time>2026-03-28T11:59:51Z</time></trkpt><trkpt lat="46.24619921749178" lon="13.382610138953567"><ele>762.0</ele><time>2026-03-28T11:59:52Z</time></trkpt><trkpt lat="46.24615406925021" lon="13.382734071211177"><ele>762.0</ele><time>2026-03-28T11:59:53Z</time></trkpt><trkpt lat="46.246105089494" lon="13.382801734089803"><ele>762.0</ele><time>2026-03-28T11:59:54Z</time></trkpt><trkpt lat="46.24600880008591" lon="13.382729733906249"><ele>762.0</ele><time>2026-03-28T11:59:56Z</time></trkpt><trkpt lat="46.24600636251284" lon="13.382636366772982"><ele>762.0</ele><time>2026-03-28T11:59:57Z</time></trkpt><trkpt lat="46.2460461138568" lon="13.382532386053034"><ele>762.0</ele><time>2026-03-28T11:59:58Z</time></trkpt><trkpt lat="46.24610353820826" lon="13.382418698296165"><ele>762.0</ele><time>2026-03-28T11:59:59Z</time></trkpt><trkpt lat="46.24614757680975" lon="13.382291574439478"><ele>762.0</ele><time>2026-03-28T12:00:00Z</time></trkpt><trkpt lat="46.24617645917599" lon="13.382130416063527"><ele>762.0</ele><time>2026-03-28T12:00:01Z</time></trkpt><trkpt lat="46.246201735053084" lon="13.381957493753472"><ele>762.0</ele><time>2026-03-28T12:00:02Z</time></trkpt><trkpt lat="46.24622514266768" lon="13.381766762633404"><ele>758.25</ele><time>2026-03-28T12:00:03Z</time></trkpt><trkpt lat="46.24625128414333" lon="13.38158225744935"><ele>754.5</ele><time>2026-03-28T12:00:04Z</time></trkpt><trkpt lat="46.24628265710615" lon="13.38140485958678"><ele>750.75</ele><time>2026-03-28T12:00:05Z</time></trkpt><trkpt lat="46.24631896649941" lon="13.38123589320064"><ele>747.0</ele><time>2026-03-28T12:00:06Z</time></trkpt><trkpt lat="46.24636399978957" lon="13.381072510784753"><ele>745.6</ele><time>2026-03-28T12:00:07Z</time></trkpt><trkpt lat="46.24640469135473" lon="13.380923500217536"><ele>744.2</ele><time>2026-03-28T12:00:08Z</time></trkpt><trkpt lat="46.2464397270568" lon="13.380800164623357"><ele>742.8</ele><time>2026-03-28T12:00:09Z</time></trkpt><trkpt lat="46.24642574134633" lon="13.380671610789985"><ele>741.4</ele><time>2026-03-28T12:00:10Z</time></trkpt><trkpt lat="46.24635087192702" lon="13.38055957282678"><ele>740.0</ele><time>2026-03-28T12:00:11Z</time></trkpt><trkpt lat="46.24625310812691" lon="13.3804560494561"><ele>751.3333333333333</ele><time>2026-03-28T12:00:12Z</time></trkpt><trkpt lat="46.24611983258503" lon="13.380403858214905"><ele>762.6666666666666</ele><time>2026-03-28T12:00:13Z</time></trkpt><trkpt lat="46.24595362973219" lon="13.380369417225433"><ele>774.0</ele><time>2026-03-28T12:00:14Z</time></trkpt><trkpt lat="46.24578203511695" lon="13.380328020756204"><ele>766.0</ele><time>2026-03-28T12:00:15Z</time></trkpt><trkpt lat="46.245592149516234" lon="13.380275872044706"><ele>758.0</ele><time>2026-03-28T12:00:16Z</time></trkpt><trkpt lat="46.24538464396988" lon="13.380223124888063"><ele>750.0</ele><time>2026-03-28T12:00:17Z</time></trkpt><trkpt lat="46.24517790155074" lon="13.380162712469874"><ele>750.0</ele><time>2026-03-28T12:00:18Z</time></trkpt><trkpt lat="46.244975073087275" lon="13.380111289200476"><ele>750.0</ele><time>2026-03-28T12:00:19Z</time></trkpt><trkpt lat="46.244772595047294" lon="13.380074288647357"><ele>750.0</ele><time>2026-03-28T12:00:20Z</time></trkpt><trkpt lat="46.244577120701784" lon="13.380053541883653"><ele>744.6666666666666</ele><time>2026-03-28T12:00:21Z</time></trkpt><trkpt lat="46.244385560655125" lon="13.380034263358308"><ele>739.3333333333333</ele><time>2026-03-28T12:00:22Z</time></trkpt><trkpt lat="46.24420402187032" lon="13.380006130099623"><ele>734.0</ele><time>2026-03-28T12:00:23Z</time></trkpt><trkpt lat="46.244069696314654" lon="13.379967613232246"><ele>728.25</ele><time>2026-03-28T12:00:24Z</time></trkpt><trkpt lat="46.24395487772856" lon="13.379908902769568"><ele>722.5</ele><time>2026-03-28T12:00:25Z</time></trkpt><trkpt lat="46.24385020156665" lon="13.379821927431212"><ele>716.75</ele><time>2026-03-28T12:00:26Z</time></trkpt><trkpt lat="46.24375952048336" lon="13.379692686300183"><ele>711.0</ele><time>2026-03-28T12:00:27Z</time></trkpt><trkpt lat="46.243686076470695" lon="13.379521229741666"><ele>711.0</ele><time>2026-03-28T12:00:28Z</time></trkpt><trkpt lat="46.24363589293017" lon="13.37936900580894"><ele>711.0</ele><time>2026-03-28T12:00:29Z</time></trkpt><trkpt lat="46.24358983768724" lon="13.379130184798262"><ele>711.0</ele><time>2026-03-28T12:00:30Z</time></trkpt><trkpt lat="46.24357347113846" lon="13.378914097956823"><ele>711.0</ele><time>2026-03-28T12:00:31Z</time></trkpt><trkpt lat="46.243559968779664" lon="13.378685755832715"><ele>712.5</ele><time>2026-03-28T12:00:32Z</time></trkpt><trkpt lat="46.243533604564355" lon="13.37846852784736"><ele>714.0</ele><time>2026-03-28T12:00:33Z</time></trkpt><trkpt lat="46.24349999839083" lon="13.378279873799935"><ele>715.5</ele><time>2026-03-28T12:00:34Z</time></trkpt><trkpt lat="46.243441258727884" lon="13.378110677668142"><ele>717.0</ele><time>2026-03-28T12:00:35Z</time></trkpt><trkpt lat="46.243347883664924" lon="13.377976939872179"><ele>719.0</ele><time>2026-03-28T12:00:36Z</time></trkpt><trkpt lat="46.2432559967316" lon="13.377839254602362"><ele>721.0</ele><time>2026-03-28T12:00:37Z</time></trkpt><trkpt lat="46.24318931252874" lon="13.377687569914382"><ele>723.0</ele><time>2026-03-28T12:00:38Z</time></trkpt><trkpt lat="46.243136274573004" lon="13.377488847568038"><ele>725.0</ele><time>2026-03-28T12:00:39Z</time></trkpt><trkpt lat="46.24308509720406" lon="13.377265736946546"><ele>712.6666666666666</ele><time>2026-03-28T12:00:40Z</time></trkpt><trkpt lat="46.24304797708375" lon="13.377047861939028"><ele>700.3333333333334</ele><time>2026-03-28T12:00:41Z</time></trkpt><trkpt lat="46.24305878954064" lon="13.37683365681143"><ele>688.0</ele><time>2026-03-28T12:00:42Z</time></trkpt><trkpt lat="46.24308110169708" lon="13.376601932501826"><ele>698.3333333333334</ele><time>2026-03-28T12:00:43Z</time></trkpt><trkpt lat="46.24313627414972" lon="13.37637893818404"><ele>708.6666666666666</ele><time>2026-03-28T12:00:44Z</time></trkpt><trkpt lat="46.2432039177709" lon="13.376176326455871"><ele>719.0</ele><time>2026-03-28T12:00:45Z</time></trkpt><trkpt lat="46.24327006624357" lon="13.37601249547664"><ele>719.0</ele><time>2026-03-28T12:00:46Z</time></trkpt><trkpt lat="46.24333073265923" lon="13.375891370159092"><ele>719.0</ele><time>2026-03-28T12:00:47Z</time></trkpt><trkpt lat="46.243359214976856" lon="13.375799294430113"><ele>719.0</ele><time>2026-03-28T12:00:48Z</time></trkpt><trkpt lat="46.243257654657455" lon="13.375734401310051"><ele>719.0</ele><time>2026-03-28T12:00:50Z</time></trkpt><trkpt lat="46.24318900098871" lon="13.375795854261742"><ele>719.0</ele><time>2026-03-28T12:00:51Z</time></trkpt><trkpt lat="46.24315512545455" lon="13.375889355355634"><ele>719.0</ele><time>2026-03-28T12:00:52Z</time></trkpt><trkpt lat="46.24312396759546" lon="13.375978404728597"><ele>713.8333333333333</ele><time>2026-03-28T12:00:53Z</time></trkpt><trkpt lat="46.24305788244691" lon="13.3761192180771"><ele>708.6666666666666</ele><time>2026-03-28T12:00:54.999Z</time></trkpt><trkpt lat="46.243007638511216" lon="13.376232731878602"><ele>703.5</ele><time>2026-03-28T12:00:56.999Z</time></trkpt><trkpt lat="46.24296483204644" lon="13.376335381567957"><ele>698.3333333333334</ele><time>2026-03-28T12:00:58.999Z</time></trkpt><trkpt lat="46.24292299281158" lon="13.376424278435275"><ele>693.1666666666667</ele><time>2026-03-28T12:01:00.999Z</time></trkpt><trkpt lat="46.2428909062879" lon="13.376525279470668"><ele>688.0</ele><time>2026-03-28T12:01:02.999Z</time></trkpt><trkpt lat="46.24285777563722" lon="13.3766385400771"><ele>688.0</ele><time>2026-03-28T12:01:04.999Z</time></trkpt><trkpt lat="46.242827703119076" lon="13.376806111242024"><ele>688.0</ele><time>2026-03-28T12:01:06.999Z</time></trkpt><trkpt lat="46.24280864262357" lon="13.376903943856378"><ele>688.0</ele><time>2026-03-28T12:01:07.999Z</time></trkpt><trkpt lat="46.242793426562606" lon="13.377010076249015"><ele>688.0</ele><time>2026-03-28T12:01:08.999Z</time></trkpt><trkpt lat="46.242774796363044" lon="13.377127236335511"><ele>688.0</ele><time>2026-03-28T12:01:09.999Z</time></trkpt><trkpt lat="46.24275826132784" lon="13.377263862375479"><ele>688.0</ele><time>2026-03-28T12:01:11Z</time></trkpt><trkpt lat="46.24275055470482" lon="13.377420628719017"><ele>687.5</ele><time>2026-03-28T12:01:12Z</time></trkpt><trkpt lat="46.24276194238801" lon="13.37759474617218"><ele>687.0</ele><time>2026-03-28T12:01:13Z</time></trkpt><trkpt lat="46.24277821638745" lon="13.377775604200103"><ele>686.5</ele><time>2026-03-28T12:01:14Z</time></trkpt><trkpt lat="46.24280141435991" lon="13.377974724570207"><ele>686.0</ele><time>2026-03-28T12:01:15Z</time></trkpt><trkpt lat="46.242816216122804" lon="13.378192379847547"><ele>685.25</ele><time>2026-03-28T12:01:16Z</time></trkpt><trkpt lat="46.2428425587015" lon="13.378405090896972"><ele>684.5</ele><time>2026-03-28T12:01:17Z</time></trkpt><trkpt lat="46.24285389581547" lon="13.378609738173427"><ele>683.75</ele><time>2026-03-28T12:01:18Z</time></trkpt><trkpt lat="46.24281973988463" lon="13.378817870024355"><ele>683.0</ele><time>2026-03-28T12:01:19Z</time></trkpt><trkpt lat="46.24278406679378" lon="13.378999878245404"><ele>681.3333333333333</ele><time>2026-03-28T12:01:20Z</time></trkpt><trkpt lat="46.24276306311956" lon="13.379190584378856"><ele>679.6666666666666</ele><time>2026-03-28T12:01:21Z</time></trkpt><trkpt lat="46.24277575703133" lon="13.379417319045555"><ele>678.0</ele><time>2026-03-28T12:01:22Z</time></trkpt><trkpt lat="46.242800940665006" lon="13.379667168622218"><ele>675.3333333333334</ele><time>2026-03-28T12:01:23Z</time></trkpt><trkpt lat="46.24283895964515" lon="13.379930795588429"><ele>672.6666666666667</ele><time>2026-03-28T12:01:24Z</time></trkpt><trkpt lat="46.24288376955227" lon="13.380162186404426"><ele>670.0</ele><time>2026-03-28T12:01:25Z</time></trkpt><trkpt lat="46.24292958031418" lon="13.380374484709142"><ele>668.75</ele><time>2026-03-28T12:01:26Z</time></trkpt><trkpt lat="46.2429751406894" lon="13.38056526729566"><ele>667.5</ele><time>2026-03-28T12:01:27Z</time></trkpt><trkpt lat="46.24301701801621" lon="13.380740912323544"><ele>666.25</ele><time>2026-03-28T12:01:28Z</time></trkpt><trkpt lat="46.24308097578158" lon="13.380891266145534"><ele>665.0</ele><time>2026-03-28T12:01:29Z</time></trkpt><trkpt lat="46.24316677046896" lon="13.381008542508908"><ele>665.0</ele><time>2026-03-28T12:01:30Z</time></trkpt><trkpt lat="46.24325345184307" lon="13.38109493496172"><ele>665.0</ele><time>2026-03-28T12:01:31Z</time></trkpt><trkpt lat="46.24333027143508" lon="13.38114935346831"><ele>665.0</ele><time>2026-03-28T12:01:32Z</time></trkpt><trkpt lat="46.243333797024135" lon="13.381302890585292"><ele>665.0</ele><time>2026-03-28T12:01:34Z</time></trkpt><trkpt lat="46.243274176017906" lon="13.381338909071204"><ele>665.0</ele><time>2026-03-28T12:01:35Z</time></trkpt><trkpt lat="46.24319367721871" lon="13.38131377991516"><ele>665.0</ele><time>2026-03-28T12:01:36Z</time></trkpt><trkpt lat="46.24311137054999" lon="13.381252834535534"><ele>665.0</ele><time>2026-03-28T12:01:37Z</time></trkpt><trkpt lat="46.243026062774796" lon="13.381164361415122"><ele>665.0</ele><time>2026-03-28T12:01:38Z</time></trkpt><trkpt lat="46.24294160091138" lon="13.381072427043295"><ele>665.0</ele><time>2026-03-28T12:01:39Z</time></trkpt><trkpt lat="46.24285144673134" lon="13.381012415068525"><ele>665.0</ele><time>2026-03-28T12:01:40Z</time></trkpt><trkpt lat="46.24275204051678" lon="13.381003784622271"><ele>665.0</ele><time>2026-03-28T12:01:41Z</time></trkpt><trkpt lat="46.242655135345856" lon="13.38100602822716"><ele>665.0</ele><time>2026-03-28T12:01:42Z</time></trkpt><trkpt lat="46.24256282523322" lon="13.381021392550227"><ele>665.0</ele><time>2026-03-28T12:01:43Z</time></trkpt><trkpt lat="46.242476092745356" lon="13.38104217075794"><ele>665.0</ele><time>2026-03-28T12:01:44Z</time></trkpt><trkpt lat="46.24239607873779" lon="13.381089725011092"><ele>665.0</ele><time>2026-03-28T12:01:45Z</time></trkpt><trkpt lat="46.24233264019181" lon="13.381170890435822"><ele>665.0</ele><time>2026-03-28T12:01:46Z</time></trkpt><trkpt lat="46.24231542583907" lon="13.381297614219118"><ele>665.0</ele><time>2026-03-28T12:01:47Z</time></trkpt><trkpt lat="46.24228964447112" lon="13.381393475996905"><ele>662.8333333333333</ele><time>2026-03-28T12:01:48Z</time></trkpt><trkpt lat="46.242247990927396" lon="13.38151010233812"><ele>660.6666666666666</ele><time>2026-03-28T12:01:50Z</time></trkpt><trkpt lat="46.2422366398476" lon="13.381601289930174"><ele>658.5</ele><time>2026-03-28T12:02:33Z</time></trkpt><trkpt lat="46.242184474022494" lon="13.381702092673315"><ele>656.3333333333334</ele><time>2026-03-28T12:02:36Z</time></trkpt><trkpt lat="46.24211287043844" lon="13.381813179335138"><ele>654.1666666666667</ele><time>2026-03-28T12:02:38Z</time></trkpt><trkpt lat="46.242070421093544" lon="13.381936422454574"><ele>652.0</ele><time>2026-03-28T12:02:40Z</time></trkpt><trkpt lat="46.24202512495273" lon="13.382146719695342"><ele>652.2</ele><time>2026-03-28T12:02:42Z</time></trkpt><trkpt lat="46.242005670658656" lon="13.382278551130502"><ele>652.4000000000001</ele><time>2026-03-28T12:02:43Z</time></trkpt><trkpt lat="46.241964038092505" lon="13.382419967680441"><ele>652.5999999999999</ele><time>2026-03-28T12:02:44Z</time></trkpt><trkpt lat="46.2419194427773" lon="13.382574222447687"><ele>652.8</ele><time>2026-03-28T12:02:45Z</time></trkpt><trkpt lat="46.24187208664724" lon="13.382740495991586"><ele>653.0</ele><time>2026-03-28T12:02:46Z</time></trkpt><trkpt lat="46.24182289740878" lon="13.382913205054917"><ele>653.0</ele><time>2026-03-28T12:02:47Z</time></trkpt><trkpt lat="46.241770944815876" lon="13.383091816133854"><ele>653.0</ele><time>2026-03-28T12:02:48Z</time></trkpt><trkpt lat="46.24171963594518" lon="13.383269131148017"><ele>653.0</ele><time>2026-03-28T12:02:49Z</time></trkpt><trkpt lat="46.24167002460436" lon="13.38344007337939"><ele>653.0</ele><time>2026-03-28T12:02:50Z</time></trkpt><trkpt lat="46.24162192867988" lon="13.383605947822073"><ele>653.0</ele><time>2026-03-28T12:02:51Z</time></trkpt><trkpt lat="46.24157588713636" lon="13.383764737158298"><ele>653.0</ele><time>2026-03-28T12:02:52Z</time></trkpt><trkpt lat="46.24152460770142" lon="13.383941590895267"><ele>653.0</ele><time>2026-03-28T12:02:53Z</time></trkpt><trkpt lat="46.241461553882125" lon="13.384150584722512"><ele>653.0</ele><time>2026-03-28T12:02:54Z</time></trkpt><trkpt lat="46.24140601552297" lon="13.38432620990885"><ele>652.2</ele><time>2026-03-28T12:02:55Z</time></trkpt><trkpt lat="46.241361357099606" lon="13.384498502705009"><ele>651.4</ele><time>2026-03-28T12:02:56Z</time></trkpt><trkpt lat="46.24132052370118" lon="13.384652949695429"><ele>650.6</ele><time>2026-03-28T12:02:57Z</time></trkpt><trkpt lat="46.241282415600935" lon="13.384791936791"><ele>649.8000000000001</ele><time>2026-03-28T12:02:58Z</time></trkpt><trkpt lat="46.24124181763224" lon="13.384915086364618"><ele>649.0</ele><time>2026-03-28T12:02:59Z</time></trkpt><trkpt lat="46.24120213789334" lon="13.385038385298868"><ele>648.8000000000001</ele><time>2026-03-28T12:03:00Z</time></trkpt><trkpt lat="46.24116535145272" lon="13.385170717284034"><ele>648.6</ele><time>2026-03-28T12:03:01Z</time></trkpt><trkpt lat="46.24113061965042" lon="13.385318331171057"><ele>648.4</ele><time>2026-03-28T12:03:02Z</time></trkpt><trkpt lat="46.24110473840649" lon="13.385478708285463"><ele>648.2</ele><time>2026-03-28T12:03:03Z</time></trkpt><trkpt lat="46.24108701402401" lon="13.38564452487566"><ele>648.0</ele><time>2026-03-28T12:03:04Z</time></trkpt><trkpt lat="46.24107189910814" lon="13.385792435359384"><ele>648.0</ele><time>2026-03-28T12:03:05Z</time></trkpt><trkpt lat="46.24106439870154" lon="13.385914608002574"><ele>648.0</ele><time>2026-03-28T12:03:06Z</time></trkpt><trkpt lat="46.24099932540089" lon="13.385999084942293"><ele>648.0</ele><time>2026-03-28T12:03:07Z</time></trkpt><trkpt lat="46.24093945863097" lon="13.38608869675146"><ele>648.0</ele><time>2026-03-28T12:03:08Z</time></trkpt><trkpt lat="46.24086011424243" lon="13.386194115060293"><ele>648.0</ele><time>2026-03-28T12:03:09Z</time></trkpt><trkpt lat="46.24076565794139" lon="13.386309534948115"><ele>648.0</ele><time>2026-03-28T12:03:10Z</time></trkpt><trkpt lat="46.2406575619172" lon="13.386422235077642"><ele>648.0</ele><time>2026-03-28T12:03:11Z</time></trkpt><trkpt lat="46.240560662207734" lon="13.386558774569256"><ele>648.0</ele><time>2026-03-28T12:03:12Z</time></trkpt><trkpt lat="46.24046310945733" lon="13.386668177629309"><ele>648.0</ele><time>2026-03-28T12:03:13Z</time></trkpt><trkpt lat="46.24039118586267" lon="13.386746309190087"><ele>648.0</ele><time>2026-03-28T12:03:14Z</time></trkpt><trkpt lat="46.24033409528347" lon="13.386829060667132"><ele>648.0</ele><time>2026-03-28T12:03:15Z</time></trkpt><trkpt lat="46.24033689377792" lon="13.387019219180324"><ele>648.0</ele><time>2026-03-28T12:03:17Z</time></trkpt><trkpt lat="46.2404266356978" lon="13.38711640359155"><ele>648.0</ele><time>2026-03-28T12:03:18Z</time></trkpt><trkpt lat="46.24053113904164" lon="13.387187930340414"><ele>648.0</ele><time>2026-03-28T12:03:19Z</time></trkpt><trkpt lat="46.2406402658876" lon="13.38730533632124"><ele>648.0</ele><time>2026-03-28T12:03:20Z</time></trkpt><trkpt lat="46.24072530999223" lon="13.38743321995119"><ele>648.0</ele><time>2026-03-28T12:03:21Z</time></trkpt><trkpt lat="46.24080429690426" lon="13.38760020658225"><ele>648.0</ele><time>2026-03-28T12:03:22Z</time></trkpt><trkpt lat="46.240878441872994" lon="13.387742591971772"><ele>648.0</ele><time>2026-03-28T12:03:23Z</time></trkpt><trkpt lat="46.24091233695945" lon="13.387893732603848"><ele>647.25</ele><time>2026-03-28T12:03:24Z</time></trkpt><trkpt lat="46.240891051474335" lon="13.388027585975955"><ele>646.5</ele><time>2026-03-28T12:03:25Z</time></trkpt><trkpt lat="46.240803604770086" lon="13.388121094185705"><ele>645.75</ele><time>2026-03-28T12:03:26Z</time></trkpt><trkpt lat="46.24072545088716" lon="13.38824545814953"><ele>645.0</ele><time>2026-03-28T12:03:27Z</time></trkpt><trkpt lat="46.24063007150737" lon="13.388389517195487"><ele>642.6666666666666</ele><time>2026-03-28T12:03:28Z</time></trkpt><trkpt lat="46.240531596278615" lon="13.388553152227676"><ele>640.3333333333333</ele><time>2026-03-28T12:03:29Z</time></trkpt><trkpt lat="46.24039600528278" lon="13.38868275909551"><ele>638.0</ele><time>2026-03-28T12:03:30Z</time></trkpt><trkpt lat="46.24026040311375" lon="13.38881931945197"><ele>640.0</ele><time>2026-03-28T12:03:31Z</time></trkpt><trkpt lat="46.240118943348484" lon="13.388957239322327"><ele>642.0</ele><time>2026-03-28T12:03:32Z</time></trkpt><trkpt lat="46.239989817237024" lon="13.389086956761517"><ele>644.0</ele><time>2026-03-28T12:03:33Z</time></trkpt><trkpt lat="46.23989748372803" lon="13.389211226145248"><ele>644.0</ele><time>2026-03-28T12:03:34Z</time></trkpt><trkpt lat="46.239817328340806" lon="13.389326221419289"><ele>644.0</ele><time>2026-03-28T12:03:35Z</time></trkpt><trkpt lat="46.23976896635232" lon="13.38949494659663"><ele>644.0</ele><time>2026-03-28T12:03:36Z</time></trkpt><trkpt lat="46.23971804970372" lon="13.389703772704918"><ele>644.0</ele><time>2026-03-28T12:03:37Z</time></trkpt><trkpt lat="46.239673531335285" lon="13.389908871317738"><ele>645.0</ele><time>2026-03-28T12:03:38Z</time></trkpt><trkpt lat="46.239623828368686" lon="13.390134341626688"><ele>646.0</ele><time>2026-03-28T12:03:39Z</time></trkpt><trkpt lat="46.23957891939095" lon="13.390362650130653"><ele>647.0</ele><time>2026-03-28T12:03:40Z</time></trkpt><trkpt lat="46.23954079185774" lon="13.390562998822002"><ele>647.0</ele><time>2026-03-28T12:03:41Z</time></trkpt><trkpt lat="46.23950334644664" lon="13.390763529733277"><ele>647.0</ele><time>2026-03-28T12:03:42Z</time></trkpt><trkpt lat="46.23947753230661" lon="13.390955963533925"><ele>647.0</ele><time>2026-03-28T12:03:43Z</time></trkpt><trkpt lat="46.23943815521077" lon="13.391112363184533"><ele>647.0</ele><time>2026-03-28T12:03:44Z</time></trkpt><trkpt lat="46.23936875271843" lon="13.391210806089068"><ele>647.0</ele><time>2026-03-28T12:03:45Z</time></trkpt><trkpt lat="46.2392711370169" lon="13.391216324992493"><ele>647.0</ele><time>2026-03-28T12:03:46Z</time></trkpt><trkpt lat="46.23914548550472" lon="13.391168026267657"><ele>647.0</ele><time>2026-03-28T12:03:47Z</time></trkpt><trkpt lat="46.23899711274607" lon="13.391062700407739"><ele>647.0</ele><time>2026-03-28T12:03:48Z</time></trkpt><trkpt lat="46.23883583242376" lon="13.39103325702772"><ele>647.0</ele><time>2026-03-28T12:03:49Z</time></trkpt><trkpt lat="46.23892546647236" lon="13.39105448295688"><ele>647.0</ele><time>2026-03-28T12:03:50Z</time></trkpt><trkpt lat="46.238774752562925" lon="13.391090881719382"><ele>647.0</ele><time>2026-03-28T12:03:51Z</time></trkpt><trkpt lat="46.23861743850278" lon="13.39115310746192"><ele>647.0</ele><time>2026-03-28T12:03:52Z</time></trkpt><trkpt lat="46.23848324194535" lon="13.391186899671586"><ele>647.0</ele><time>2026-03-28T12:03:53Z</time></trkpt><trkpt lat="46.23839109996771" lon="13.391249511622096"><ele>647.0</ele><time>2026-03-28T12:03:54Z</time></trkpt><trkpt lat="46.23833019635158" lon="13.391307658409058"><ele>647.0</ele><time>2026-03-28T12:03:55Z</time></trkpt><trkpt lat="46.2383161737454" lon="13.391429977124291"><ele>647.0</ele><time>2026-03-28T12:03:56Z</time></trkpt><trkpt lat="46.23836317891717" lon="13.39157230223055"><ele>647.0</ele><time>2026-03-28T12:03:57Z</time></trkpt><trkpt lat="46.2384145922278" lon="13.391751257606131"><ele>647.0</ele><time>2026-03-28T12:03:58Z</time></trkpt><trkpt lat="46.23850677291648" lon="13.391944167665155"><ele>647.0</ele><time>2026-03-28T12:03:59Z</time></trkpt><trkpt lat="46.238575400753625" lon="13.392151841553435"><ele>647.0</ele><time>2026-03-28T12:04:00Z</time></trkpt><trkpt lat="46.23865584858776" lon="13.392313734168885"><ele>647.0</ele><time>2026-03-28T12:04:01Z</time></trkpt><trkpt lat="46.238733566062876" lon="13.392470564561968"><ele>647.0</ele><time>2026-03-28T12:04:02Z</time></trkpt><trkpt lat="46.23884091812645" lon="13.392657603437398"><ele>647.0</ele><time>2026-03-28T12:04:03Z</time></trkpt><trkpt lat="46.23888997001946" lon="13.39290537826818"><ele>646.6666666666666</ele><time>2026-03-28T12:04:04Z</time></trkpt><trkpt lat="46.23895160571413" lon="13.39317435431355"><ele>646.3333333333334</ele><time>2026-03-28T12:04:05Z</time></trkpt><trkpt lat="46.23898581627602" lon="13.393454913397816"><ele>646.0</ele><time>2026-03-28T12:04:06Z</time></trkpt><trkpt lat="46.23899956289192" lon="13.393739224239557"><ele>641.0</ele><time>2026-03-28T12:04:07Z</time></trkpt><trkpt lat="46.23901708585877" lon="13.394001098297364"><ele>636.0</ele><time>2026-03-28T12:04:08Z</time></trkpt><trkpt lat="46.23901935223723" lon="13.394244139018959"><ele>631.0</ele><time>2026-03-28T12:04:09Z</time></trkpt><trkpt lat="46.23899675285307" lon="13.394478440985612"><ele>609.0</ele><time>2026-03-28T12:04:10Z</time></trkpt><trkpt lat="46.23896215461722" lon="13.394722914920026"><ele>587.0</ele><time>2026-03-28T12:04:11Z</time></trkpt><trkpt lat="46.238910414217585" lon="13.394990342137174"><ele>565.0</ele><time>2026-03-28T12:04:12Z</time></trkpt><trkpt lat="46.23884713495498" lon="13.395230488117964"><ele>565.0</ele><time>2026-03-28T12:04:13Z</time></trkpt><trkpt lat="46.23879667017397" lon="13.395476094922303"><ele>565.0</ele><time>2026-03-28T12:04:14Z</time></trkpt><trkpt lat="46.23877903249776" lon="13.395736232376748"><ele>565.0</ele><time>2026-03-28T12:04:15Z</time></trkpt><trkpt lat="46.23876166725337" lon="13.396010245190654"><ele>565.0</ele><time>2026-03-28T12:04:16Z</time></trkpt><trkpt lat="46.23873136985497" lon="13.39627872216439"><ele>565.0</ele><time>2026-03-28T12:04:17Z</time></trkpt><trkpt lat="46.23869310943667" lon="13.396538255512548"><ele>565.0</ele><time>2026-03-28T12:04:18Z</time></trkpt><trkpt lat="46.23865108309283" lon="13.396779368260715"><ele>565.0</ele><time>2026-03-28T12:04:19Z</time></trkpt><trkpt lat="46.23861337492527" lon="13.39701470647493"><ele>565.0</ele><time>2026-03-28T12:04:20Z</time></trkpt><trkpt lat="46.2386164283002" lon="13.397240768111722"><ele>565.0</ele><time>2026-03-28T12:04:21Z</time></trkpt><trkpt lat="46.238624044862505" lon="13.397450135878074"><ele>566.0</ele><time>2026-03-28T12:04:22Z</time></trkpt><trkpt lat="46.23860931239704" lon="13.397631194008676"><ele>567.0</ele><time>2026-03-28T12:04:23Z</time></trkpt><trkpt lat="46.238553473140165" lon="13.39777791827974"><ele>568.0</ele><time>2026-03-28T12:04:24Z</time></trkpt><trkpt lat="46.23849346774051" lon="13.397926274381058"><ele>569.0</ele><time>2026-03-28T12:04:25Z</time></trkpt><trkpt lat="46.23844772448578" lon="13.398074012224201"><ele>569.0</ele><time>2026-03-28T12:04:26Z</time></trkpt><trkpt lat="46.238440038018744" lon="13.398198483086468"><ele>569.0</ele><time>2026-03-28T12:04:27Z</time></trkpt><trkpt lat="46.23849498467778" lon="13.39830432635856"><ele>569.0</ele><time>2026-03-28T12:04:28Z</time></trkpt><trkpt lat="46.238609651466376" lon="13.3984125603352"><ele>569.0</ele><time>2026-03-28T12:04:29Z</time></trkpt><trkpt lat="46.23868839768184" lon="13.39859597529916"><ele>569.0</ele><time>2026-03-28T12:04:30Z</time></trkpt><trkpt lat="46.23875443521784" lon="13.39877938650248"><ele>569.0</ele><time>2026-03-28T12:04:31Z</time></trkpt><trkpt lat="46.238801844087696" lon="13.398996025507032"><ele>569.0</ele><time>2026-03-28T12:04:32Z</time></trkpt><trkpt lat="46.23884109407802" lon="13.399213924476912"><ele>566.75</ele><time>2026-03-28T12:04:33Z</time></trkpt><trkpt lat="46.23885329980984" lon="13.399414972175537"><ele>564.5</ele><time>2026-03-28T12:04:34Z</time></trkpt><trkpt lat="46.23884359204893" lon="13.399632824420319"><ele>562.25</ele><time>2026-03-28T12:04:35Z</time></trkpt><trkpt lat="46.238803523371004" lon="13.399846166572678"><ele>560.0</ele><time>2026-03-28T12:04:36Z</time></trkpt><trkpt lat="46.238742891401934" lon="13.400030490351956"><ele>560.0</ele><time>2026-03-28T12:04:37Z</time></trkpt><trkpt lat="46.23864670737741" lon="13.400181348583008"><ele>560.0</ele><time>2026-03-28T12:04:38Z</time></trkpt><trkpt lat="46.238539348920334" lon="13.40034409836982"><ele>560.0</ele><time>2026-03-28T12:04:39Z</time></trkpt><trkpt lat="46.23839827365206" lon="13.400508021556439"><ele>560.75</ele><time>2026-03-28T12:04:40Z</time></trkpt><trkpt lat="46.23829300249128" lon="13.400671396549146"><ele>561.5</ele><time>2026-03-28T12:04:41Z</time></trkpt><trkpt lat="46.238231657821665" lon="13.400821252621267"><ele>562.25</ele><time>2026-03-28T12:04:42Z</time></trkpt><trkpt lat="46.23818673078533" lon="13.400973798327291"><ele>563.0</ele><time>2026-03-28T12:04:43Z</time></trkpt><trkpt lat="46.23817045819041" lon="13.401171082140126"><ele>561.25</ele><time>2026-03-28T12:04:44Z</time></trkpt><trkpt lat="46.2382009447424" lon="13.401364666028375"><ele>559.5</ele><time>2026-03-28T12:04:45Z</time></trkpt><trkpt lat="46.23824731833089" lon="13.401549634646074"><ele>557.75</ele><time>2026-03-28T12:04:46Z</time></trkpt><trkpt lat="46.23830388206094" lon="13.401786925988237"><ele>556.0</ele><time>2026-03-28T12:04:47Z</time></trkpt><trkpt lat="46.23836734045245" lon="13.402045116661386"><ele>550.6666666666667</ele><time>2026-03-28T12:04:48Z</time></trkpt><trkpt lat="46.238442056760995" lon="13.402320138123201"><ele>545.3333333333334</ele><time>2026-03-28T12:04:49Z</time></trkpt><trkpt lat="46.23853166183982" lon="13.402602971969028"><ele>540.0</ele><time>2026-03-28T12:04:50Z</time></trkpt><trkpt lat="46.23862599422935" lon="13.402859270700326"><ele>536.5</ele><time>2026-03-28T12:04:51Z</time></trkpt><trkpt lat="46.238693553788984" lon="13.403079603670236"><ele>533.0</ele><time>2026-03-28T12:04:52Z</time></trkpt><trkpt lat="46.23873709674138" lon="13.403277573166148"><ele>529.5</ele><time>2026-03-28T12:04:53Z</time></trkpt><trkpt lat="46.2387927483122" lon="13.403420161684108"><ele>526.0</ele><time>2026-03-28T12:04:54Z</time></trkpt><trkpt lat="46.23887752370601" lon="13.40349959734091"><ele>532.0</ele><time>2026-03-28T12:04:55Z</time></trkpt><trkpt lat="46.23898066992029" lon="13.40359243806338"><ele>538.0</ele><time>2026-03-28T12:04:56Z</time></trkpt><trkpt lat="46.239116607318394" lon="13.403698017119067"><ele>544.0</ele><time>2026-03-28T12:04:57Z</time></trkpt><trkpt lat="46.23923210543879" lon="13.40377477909786"><ele>550.0</ele><time>2026-03-28T12:04:58Z</time></trkpt><trkpt lat="46.23933479194633" lon="13.403788419457236"><ele>550.0</ele><time>2026-03-28T12:04:59Z</time></trkpt><trkpt lat="46.23944958600963" lon="13.403751955321495"><ele>550.0</ele><time>2026-03-28T12:05:00Z</time></trkpt><trkpt lat="46.23959321629685" lon="13.40366437577592"><ele>550.0</ele><time>2026-03-28T12:05:01Z</time></trkpt><trkpt lat="46.23976783352997" lon="13.403601071059237"><ele>549.3333333333334</ele><time>2026-03-28T12:05:02Z</time></trkpt><trkpt lat="46.239948635306796" lon="13.403559271696126"><ele>548.6666666666666</ele><time>2026-03-28T12:05:03Z</time></trkpt><trkpt lat="46.24013156890394" lon="13.403492555410647"><ele>548.0</ele><time>2026-03-28T12:05:04Z</time></trkpt><trkpt lat="46.240295916607" lon="13.403450213385742"><ele>548.0</ele><time>2026-03-28T12:05:05Z</time></trkpt><trkpt lat="46.24044473451175" lon="13.403415684731527"><ele>548.0</ele><time>2026-03-28T12:05:06Z</time></trkpt><trkpt lat="46.2405703410242" lon="13.403425836431127"><ele>548.0</ele><time>2026-03-28T12:05:07Z</time></trkpt><trkpt lat="46.24067381459993" lon="13.403380742008082"><ele>548.0</ele><time>2026-03-28T12:05:08Z</time></trkpt><trkpt lat="46.240762498642546" lon="13.403334703146863"><ele>550.4</ele><time>2026-03-28T12:05:09Z</time></trkpt><trkpt lat="46.24082770435437" lon="13.403217873832695"><ele>552.8</ele><time>2026-03-28T12:05:10Z</time></trkpt><trkpt lat="46.24088380598241" lon="13.403068009583963"><ele>555.2</ele><time>2026-03-28T12:05:11Z</time></trkpt><trkpt lat="46.240940369182816" lon="13.402961135408173"><ele>557.6</ele><time>2026-03-28T12:05:12Z</time></trkpt><trkpt lat="46.24101655827229" lon="13.40293563789752"><ele>560.0</ele><time>2026-03-28T12:05:13Z</time></trkpt><trkpt lat="46.24108358632149" lon="13.402983120826901"><ele>553.25</ele><time>2026-03-28T12:05:14Z</time></trkpt><trkpt lat="46.241156134206534" lon="13.403082369133383"><ele>546.5</ele><time>2026-03-28T12:05:15Z</time></trkpt><trkpt lat="46.24125488572262" lon="13.403171093211979"><ele>539.75</ele><time>2026-03-28T12:05:16Z</time></trkpt><trkpt lat="46.24137049286876" lon="13.40325753183767"><ele>533.0</ele><time>2026-03-28T12:05:17Z</time></trkpt><trkpt lat="46.24148171634315" lon="13.403305658164024"><ele>533.0</ele><time>2026-03-28T12:05:18Z</time></trkpt><trkpt lat="46.24159514633676" lon="13.403315857651567"><ele>533.0</ele><time>2026-03-28T12:05:19Z</time></trkpt><trkpt lat="46.241672599449004" lon="13.403389268107201"><ele>533.0</ele><time>2026-03-28T12:05:20Z</time></trkpt><trkpt lat="46.24171352384399" lon="13.403504222056709"><ele>533.0</ele><time>2026-03-28T12:05:21Z</time></trkpt><trkpt lat="46.24174262402601" lon="13.403654758892872"><ele>533.0</ele><time>2026-03-28T12:05:22Z</time></trkpt><trkpt lat="46.241799684892975" lon="13.403802467322134"><ele>522.75</ele><time>2026-03-28T12:05:23Z</time></trkpt><trkpt lat="46.24188665777673" lon="13.403914906623974"><ele>512.5</ele><time>2026-03-28T12:05:24Z</time></trkpt><trkpt lat="46.242003432729746" lon="13.403965126643783"><ele>502.25</ele><time>2026-03-28T12:05:25Z</time></trkpt><trkpt lat="46.242122901120474" lon="13.40402332971939"><ele>492.0</ele><time>2026-03-28T12:05:26Z</time></trkpt><trkpt lat="46.24226251167126" lon="13.404057783154045"><ele>496.25</ele><time>2026-03-28T12:05:27Z</time></trkpt><trkpt lat="46.242393469506474" lon="13.40405924885072"><ele>500.5</ele><time>2026-03-28T12:05:28Z</time></trkpt><trkpt lat="46.24253207099378" lon="13.404027272073224"><ele>504.75</ele><time>2026-03-28T12:05:29Z</time></trkpt><trkpt lat="46.24265895737382" lon="13.403982139564217"><ele>509.0</ele><time>2026-03-28T12:05:30Z</time></trkpt><trkpt lat="46.24275130646234" lon="13.40392909416357"><ele>511.25</ele><time>2026-03-28T12:05:31Z</time></trkpt><trkpt lat="46.24283738484359" lon="13.40381195348658"><ele>513.5</ele><time>2026-03-28T12:05:32Z</time></trkpt><trkpt lat="46.24292074030511" lon="13.403683282159015"><ele>515.75</ele><time>2026-03-28T12:05:33Z</time></trkpt><trkpt lat="46.243035839877244" lon="13.403553313508764"><ele>518.0</ele><time>2026-03-28T12:05:34Z</time></trkpt><trkpt lat="46.2431748043553" lon="13.403436376746015"><ele>518.0</ele><time>2026-03-28T12:05:35Z</time></trkpt><trkpt lat="46.243323615461684" lon="13.403320564091178"><ele>518.0</ele><time>2026-03-28T12:05:36Z</time></trkpt><trkpt lat="46.243452744822804" lon="13.403212770221215"><ele>518.0</ele><time>2026-03-28T12:05:37Z</time></trkpt><trkpt lat="46.24356834585506" lon="13.403151445881601"><ele>518.0</ele><time>2026-03-28T12:05:38Z</time></trkpt><trkpt lat="46.243685829661324" lon="13.403123179249"><ele>518.0</ele><time>2026-03-28T12:05:39Z</time></trkpt><trkpt lat="46.24383259180363" lon="13.403107992126577"><ele>518.0</ele><time>2026-03-28T12:05:40Z</time></trkpt><trkpt lat="46.243993082413134" lon="13.403078707527623"><ele>518.0</ele><time>2026-03-28T12:05:41Z</time></trkpt><trkpt lat="46.244126155021306" lon="13.403020225896407"><ele>518.0</ele><time>2026-03-28T12:05:42Z</time></trkpt><trkpt lat="46.24423825268003" lon="13.402994019713102"><ele>510.75</ele><time>2026-03-28T12:05:43Z</time></trkpt><trkpt lat="46.244367158739436" lon="13.403006933956988"><ele>503.5</ele><time>2026-03-28T12:05:44Z</time></trkpt><trkpt lat="46.244482176864146" lon="13.403041845211956"><ele>496.25</ele><time>2026-03-28T12:05:45Z</time></trkpt><trkpt lat="46.2446113357566" lon="13.403096155543864"><ele>489.0</ele><time>2026-03-28T12:05:46Z</time></trkpt><trkpt lat="46.24475688106637" lon="13.40313138073942"><ele>484.33333333333337</ele><time>2026-03-28T12:05:47Z</time></trkpt><trkpt lat="46.244909986207844" lon="13.403144824670505"><ele>479.6666666666667</ele><time>2026-03-28T12:05:48Z</time></trkpt><trkpt lat="46.24507345563238" lon="13.403138492792733"><ele>475.0</ele><time>2026-03-28T12:05:49Z</time></trkpt><trkpt lat="46.245239692747944" lon="13.403112357829434"><ele>475.0</ele><time>2026-03-28T12:05:50Z</time></trkpt><trkpt lat="46.245393785705915" lon="13.40307782005007"><ele>475.0</ele><time>2026-03-28T12:05:51Z</time></trkpt><trkpt lat="46.245528757646596" lon="13.40304589537929"><ele>475.0</ele><time>2026-03-28T12:05:52Z</time></trkpt><trkpt lat="46.24564499241276" lon="13.403010459862545"><ele>475.0</ele><time>2026-03-28T12:05:53Z</time></trkpt><trkpt lat="46.245738388894544" lon="13.403006285144256"><ele>472.25</ele><time>2026-03-28T12:05:54Z</time></trkpt><trkpt lat="46.24582302221449" lon="13.403077067487164"><ele>469.5</ele><time>2026-03-28T12:05:55Z</time></trkpt><trkpt lat="46.24594167208202" lon="13.403108931041253"><ele>466.75</ele><time>2026-03-28T12:05:56Z</time></trkpt><trkpt lat="46.2460421529453" lon="13.403104819568131"><ele>464.0</ele><time>2026-03-28T12:05:57Z</time></trkpt><trkpt lat="46.246171877455225" lon="13.403065390543004"><ele>464.0</ele><time>2026-03-28T12:05:58Z</time></trkpt><trkpt lat="46.2463130166645" lon="13.403009319911842"><ele>464.0</ele><time>2026-03-28T12:05:59Z</time></trkpt><trkpt lat="46.24643708553364" lon="13.40291279058393"><ele>464.0</ele><time>2026-03-28T12:06:00Z</time></trkpt><trkpt lat="46.24657519299335" lon="13.402822636394557"><ele>464.0</ele><time>2026-03-28T12:06:01Z</time></trkpt><trkpt lat="46.24670032870327" lon="13.402659763511581"><ele>471.25</ele><time>2026-03-28T12:06:02Z</time></trkpt><trkpt lat="46.24682769725463" lon="13.402518430416599"><ele>478.5</ele><time>2026-03-28T12:06:03Z</time></trkpt><trkpt lat="46.246935346159574" lon="13.402422305434936"><ele>485.75</ele><time>2026-03-28T12:06:04Z</time></trkpt><trkpt lat="46.24704892425248" lon="13.402401479174745"><ele>493.0</ele><time>2026-03-28T12:06:05Z</time></trkpt><trkpt lat="46.2471344377373" lon="13.402317860990557"><ele>493.0</ele><time>2026-03-28T12:06:06Z</time></trkpt><trkpt lat="46.24720674525654" lon="13.402174270517023"><ele>492.99999999999994</ele><time>2026-03-28T12:06:07Z</time></trkpt><trkpt lat="46.24729869554136" lon="13.40209054087194"><ele>492.99999999999994</ele><time>2026-03-28T12:06:08Z</time></trkpt><trkpt lat="46.24736711957392" lon="13.402023758290122"><ele>493.0</ele><time>2026-03-28T12:06:09Z</time></trkpt><trkpt lat="46.24743467787636" lon="13.40198143183007"><ele>493.0</ele><time>2026-03-28T12:06:10Z</time></trkpt><trkpt lat="46.247497577786206" lon="13.40201642700146"><ele>493.6666666666667</ele><time>2026-03-28T12:06:11Z</time></trkpt><trkpt lat="46.24755070993352" lon="13.402079362278167"><ele>494.33333333333337</ele><time>2026-03-28T12:06:12Z</time></trkpt><trkpt lat="46.24758743348999" lon="13.402164368215306"><ele>495.0</ele><time>2026-03-28T12:06:13Z</time></trkpt><trkpt lat="46.24762901859609" lon="13.402241116848057"><ele>495.66666666666663</ele><time>2026-03-28T12:06:14Z</time></trkpt><trkpt lat="46.24767564377331" lon="13.402315975747253"><ele>496.3333333333333</ele><time>2026-03-28T12:06:15Z</time></trkpt><trkpt lat="46.24779004347393" lon="13.40242211304855"><ele>497.0</ele><time>2026-03-28T12:06:17Z</time></trkpt><trkpt lat="46.247883813611786" lon="13.402346893025843"><ele>497.0</ele><time>2026-03-28T12:06:18Z</time></trkpt><trkpt lat="46.24800223145839" lon="13.402252854301954"><ele>497.00000000000006</ele><time>2026-03-28T12:06:19Z</time></trkpt><trkpt lat="46.24809291077109" lon="13.402137541330406"><ele>497.00000000000006</ele><time>2026-03-28T12:06:20Z</time></trkpt><trkpt lat="46.24815342330663" lon="13.402067216605401"><ele>497.0</ele><time>2026-03-28T12:06:21Z</time></trkpt><trkpt lat="46.24820115714281" lon="13.402152106795457"><ele>497.0</ele><time>2026-03-28T12:06:24Z</time></trkpt><trkpt lat="46.248162068912066" lon="13.402224575055554"><ele>488.5</ele><time>2026-03-28T12:06:25Z</time></trkpt><trkpt lat="46.248045127793205" lon="13.402277335676454"><ele>480.0</ele><time>2026-03-28T12:06:26Z</time></trkpt><trkpt lat="46.247950009580336" lon="13.402394484866694"><ele>471.5</ele><time>2026-03-28T12:06:27Z</time></trkpt><trkpt lat="46.247849043087115" lon="13.402497477344472"><ele>463.0</ele><time>2026-03-28T12:06:28Z</time></trkpt><trkpt lat="46.24777405320322" lon="13.402563057721174"><ele>463.00000000000006</ele><time>2026-03-28T12:06:29Z</time></trkpt><trkpt lat="46.247677250040226" lon="13.402563828858678"><ele>463.0</ele><time>2026-03-28T12:06:30Z</time></trkpt><trkpt lat="46.24759891212615" lon="13.402521812920673"><ele>463.0</ele><time>2026-03-28T12:06:31Z</time></trkpt><trkpt lat="46.24752243463812" lon="13.402485731547067"><ele>463.0</ele><time>2026-03-28T12:06:32Z</time></trkpt><trkpt lat="46.24745352396064" lon="13.40251980136505"><ele>463.00000000000006</ele><time>2026-03-28T12:06:33Z</time></trkpt><trkpt lat="46.24738861543909" lon="13.402615822841742"><ele>463.0</ele><time>2026-03-28T12:06:34Z</time></trkpt><trkpt lat="46.24730556171011" lon="13.402750357454615"><ele>460.75</ele><time>2026-03-28T12:06:35Z</time></trkpt><trkpt lat="46.24720814441422" lon="13.402922510843533"><ele>458.5</ele><time>2026-03-28T12:06:36Z</time></trkpt><trkpt lat="46.247121663673695" lon="13.403080627193418"><ele>456.25</ele><time>2026-03-28T12:06:37Z</time></trkpt><trkpt lat="46.24702986508539" lon="13.403210825623333"><ele>454.0</ele><time>2026-03-28T12:06:38Z</time></trkpt><trkpt lat="46.24693915441941" lon="13.40334696516025"><ele>454.0</ele><time>2026-03-28T12:06:39Z</time></trkpt><trkpt lat="46.246839366437136" lon="13.403458904420502"><ele>454.0</ele><time>2026-03-28T12:06:40Z</time></trkpt><trkpt lat="46.24673866249164" lon="13.40355309919302"><ele>454.0</ele><time>2026-03-28T12:06:41Z</time></trkpt><trkpt lat="46.24662396900894" lon="13.403657195387696"><ele>454.0</ele><time>2026-03-28T12:06:42Z</time></trkpt><trkpt lat="46.24647947453794" lon="13.403774267234141"><ele>446.0</ele><time>2026-03-28T12:06:43Z</time></trkpt><trkpt lat="46.24630966729103" lon="13.403875179745247"><ele>438.0</ele><time>2026-03-28T12:06:44Z</time></trkpt><trkpt lat="46.246162925099235" lon="13.403973267928839"><ele>430.0</ele><time>2026-03-28T12:06:45Z</time></trkpt><trkpt lat="46.24601598676442" lon="13.404055052035348"><ele>430.0</ele><time>2026-03-28T12:06:46Z</time></trkpt><trkpt lat="46.24586339574425" lon="13.404138713615529"><ele>430.0</ele><time>2026-03-28T12:06:47Z</time></trkpt><trkpt lat="46.24571967113299" lon="13.404240634032055"><ele>430.0</ele><time>2026-03-28T12:06:48Z</time></trkpt><trkpt lat="46.24556463315199" lon="13.40428575623672"><ele>432.6666666666667</ele><time>2026-03-28T12:06:49Z</time></trkpt><trkpt lat="46.245404205149825" lon="13.404323508481676"><ele>435.33333333333337</ele><time>2026-03-28T12:06:50.001Z</time></trkpt><trkpt lat="46.24522617467916" lon="13.404345020559573"><ele>438.0</ele><time>2026-03-28T12:06:51.001Z</time></trkpt><trkpt lat="46.245027308548266" lon="13.404423991081318"><ele>438.0</ele><time>2026-03-28T12:06:52.001Z</time></trkpt><trkpt lat="46.2448272070391" lon="13.4045204369689"><ele>438.0</ele><time>2026-03-28T12:06:53.001Z</time></trkpt><trkpt lat="46.24464696669042" lon="13.404554575390767"><ele>438.0</ele><time>2026-03-28T12:06:54.001Z</time></trkpt><trkpt lat="46.24450174946033" lon="13.404591241895485"><ele>440.75</ele><time>2026-03-28T12:06:55.001Z</time></trkpt><trkpt lat="46.244367207945814" lon="13.40463347702804"><ele>443.5</ele><time>2026-03-28T12:06:56.001Z</time></trkpt><trkpt lat="46.24423425528533" lon="13.404705288984697"><ele>446.25</ele><time>2026-03-28T12:06:57.001Z</time></trkpt><trkpt lat="46.24413184449272" lon="13.40481390117425"><ele>449.0</ele><time>2026-03-28T12:06:58.001Z</time></trkpt><trkpt lat="46.244024027242915" lon="13.404925690643015"><ele>446.3333333333333</ele><time>2026-03-28T12:06:59.001Z</time></trkpt><trkpt lat="46.24388953818113" lon="13.405088952953824"><ele>443.66666666666663</ele><time>2026-03-28T12:07:00.001Z</time></trkpt><trkpt lat="46.243745839982076" lon="13.40527722640796"><ele>441.0</ele><time>2026-03-28T12:07:01.001Z</time></trkpt><trkpt lat="46.243597143812956" lon="13.405428133960989"><ele>430.33333333333337</ele><time>2026-03-28T12:07:02.001Z</time></trkpt><trkpt lat="46.243473046523704" lon="13.405581868706165"><ele>419.6666666666667</ele><time>2026-03-28T12:07:03.001Z</time></trkpt><trkpt lat="46.24336008614101" lon="13.405734472415821"><ele>409.0</ele><time>2026-03-28T12:07:04.001Z</time></trkpt><trkpt lat="46.24326914392431" lon="13.405911026675115"><ele>409.0</ele><time>2026-03-28T12:07:05.001Z</time></trkpt><trkpt lat="46.2431678940106" lon="13.406058099542316"><ele>409.0</ele><time>2026-03-28T12:07:06.001Z</time></trkpt><trkpt lat="46.24305853556504" lon="13.406146740379398"><ele>409.0</ele><time>2026-03-28T12:07:07.001Z</time></trkpt><trkpt lat="46.242935920927586" lon="13.406218680778512"><ele>409.0</ele><time>2026-03-28T12:07:08.001Z</time></trkpt><trkpt lat="46.24278515578587" lon="13.406264037481197"><ele>406.0</ele><time>2026-03-28T12:07:09.001Z</time></trkpt><trkpt lat="46.24262641208594" lon="13.40631706908273"><ele>403.0</ele><time>2026-03-28T12:07:10.001Z</time></trkpt><trkpt lat="46.24247204714943" lon="13.406404549791397"><ele>400.0</ele><time>2026-03-28T12:07:11.001Z</time></trkpt><trkpt lat="46.2423304650038" lon="13.406454516480737"><ele>399.25</ele><time>2026-03-28T12:07:12.001Z</time></trkpt><trkpt lat="46.242196898867924" lon="13.40647929825966"><ele>398.5</ele><time>2026-03-28T12:07:13Z</time></trkpt><trkpt lat="46.24204391652828" lon="13.406487054992438"><ele>397.75</ele><time>2026-03-28T12:07:14Z</time></trkpt><trkpt lat="46.24188345102215" lon="13.406475956708462"><ele>397.0</ele><time>2026-03-28T12:07:15Z</time></trkpt><trkpt lat="46.24171040991108" lon="13.406452215612006"><ele>397.0</ele><time>2026-03-28T12:07:16Z</time></trkpt><trkpt lat="46.241544649633134" lon="13.406434334840675"><ele>397.0</ele><time>2026-03-28T12:07:17Z</time></trkpt><trkpt lat="46.24139921030986" lon="13.406442367508248"><ele>397.0</ele><time>2026-03-28T12:07:18Z</time></trkpt><trkpt lat="46.24124538283331" lon="13.406481836593183"><ele>397.33333333333337</ele><time>2026-03-28T12:07:19Z</time></trkpt><trkpt lat="46.241078494741096" lon="13.406552014713418"><ele>397.66666666666663</ele><time>2026-03-28T12:07:20Z</time></trkpt><trkpt lat="46.24090501244455" lon="13.406658774358888"><ele>398.0</ele><time>2026-03-28T12:07:21Z</time></trkpt><trkpt lat="46.2407459530458" lon="13.406790805205219"><ele>399.3333333333333</ele><time>2026-03-28T12:07:22Z</time></trkpt><trkpt lat="46.2406102701272" lon="13.406894022049089"><ele>400.66666666666663</ele><time>2026-03-28T12:07:23Z</time></trkpt><trkpt lat="46.2404668169315" lon="13.406957422194056"><ele>402.0</ele><time>2026-03-28T12:07:24Z</time></trkpt><trkpt lat="46.24031054355662" lon="13.40698115071543"><ele>402.0</ele><time>2026-03-28T12:07:25Z</time></trkpt><trkpt lat="46.24014195699613" lon="13.40699986929202"><ele>402.0</ele><time>2026-03-28T12:07:26Z</time></trkpt><trkpt lat="46.23999622458647" lon="13.407014979539001"><ele>402.0</ele><time>2026-03-28T12:07:27Z</time></trkpt><trkpt lat="46.23987033452889" lon="13.4070329282036"><ele>402.0</ele><time>2026-03-28T12:07:28Z</time></trkpt><trkpt lat="46.239770235545464" lon="13.407073037270806"><ele>402.75</ele><time>2026-03-28T12:07:29Z</time></trkpt><trkpt lat="46.23968796965157" lon="13.4071475332632"><ele>403.5</ele><time>2026-03-28T12:07:30Z</time></trkpt><trkpt lat="46.23961276125828" lon="13.407263154168033"><ele>404.25</ele><time>2026-03-28T12:07:31Z</time></trkpt><trkpt lat="46.23949294938215" lon="13.40741107117833"><ele>405.0</ele><time>2026-03-28T12:07:32Z</time></trkpt><trkpt lat="46.2393881893102" lon="13.407537635128008"><ele>405.0</ele><time>2026-03-28T12:07:33Z</time></trkpt><trkpt lat="46.23925007062707" lon="13.407659679486812"><ele>405.0</ele><time>2026-03-28T12:07:34Z</time></trkpt><trkpt lat="46.239118136419776" lon="13.40770572763817"><ele>405.0</ele><time>2026-03-28T12:07:35Z</time></trkpt><trkpt lat="46.2389993966162" lon="13.407725433354027"><ele>405.0</ele><time>2026-03-28T12:07:36Z</time></trkpt><trkpt lat="46.23891461529236" lon="13.407750357407458"><ele>408.0</ele><time>2026-03-28T12:07:37Z</time></trkpt><trkpt lat="46.23881952264398" lon="13.407816825878546"><ele>411.0</ele><time>2026-03-28T12:07:38Z</time></trkpt><trkpt lat="46.23874140501406" lon="13.407936758401098"><ele>414.0</ele><time>2026-03-28T12:07:39Z</time></trkpt><trkpt lat="46.238626734264244" lon="13.408075355892565"><ele>417.0</ele><time>2026-03-28T12:07:40Z</time></trkpt><trkpt lat="46.23852250077723" lon="13.408239889460944"><ele>417.0</ele><time>2026-03-28T12:07:41Z</time></trkpt><trkpt lat="46.238426341422674" lon="13.40839186531038"><ele>417.0</ele><time>2026-03-28T12:07:42Z</time></trkpt><trkpt lat="46.238334675628266" lon="13.4085490375687"><ele>417.0</ele><time>2026-03-28T12:07:43Z</time></trkpt><trkpt lat="46.238249940877246" lon="13.408688333964665"><ele>417.0</ele><time>2026-03-28T12:07:44Z</time></trkpt><trkpt lat="46.23816055386958" lon="13.408778417039208"><ele>416.40000000000003</ele><time>2026-03-28T12:07:45Z</time></trkpt><trkpt lat="46.23809117432707" lon="13.408873559753705"><ele>415.8</ele><time>2026-03-28T12:07:46Z</time></trkpt><trkpt lat="46.23804103099869" lon="13.408997860612615"><ele>415.2</ele><time>2026-03-28T12:07:47Z</time></trkpt><trkpt lat="46.23808102589635" lon="13.409133862738829"><ele>414.6</ele><time>2026-03-28T12:07:48Z</time></trkpt><trkpt lat="46.2381370869568" lon="13.4092360203551"><ele>414.0</ele><time>2026-03-28T12:07:49Z</time></trkpt><trkpt lat="46.23815092483379" lon="13.409410922860028"><ele>415.4</ele><time>2026-03-28T12:07:51Z</time></trkpt><trkpt lat="46.23804638847127" lon="13.409462995479254"><ele>416.79999999999995</ele><time>2026-03-28T12:07:53Z</time></trkpt><trkpt lat="46.23799177526175" lon="13.40937761065015"><ele>418.20000000000005</ele><time>2026-03-28T12:07:54Z</time></trkpt><trkpt lat="46.23793476918619" lon="13.409275297992519"><ele>419.6</ele><time>2026-03-28T12:07:55Z</time></trkpt><trkpt lat="46.23785109310156" lon="13.409172323845382"><ele>421.0</ele><time>2026-03-28T12:07:56Z</time></trkpt><trkpt lat="46.23777420311961" lon="13.409054393701012"><ele>421.0</ele><time>2026-03-28T12:07:57Z</time></trkpt><trkpt lat="46.23767902283523" lon="13.408942819467436"><ele>421.0</ele><time>2026-03-28T12:07:58Z</time></trkpt><trkpt lat="46.2375640330547" lon="13.408827489152163"><ele>421.0</ele><time>2026-03-28T12:07:59Z</time></trkpt><trkpt lat="46.23744422520918" lon="13.408722184711126"><ele>421.0</ele><time>2026-03-28T12:08:00Z</time></trkpt><trkpt lat="46.23731866462148" lon="13.408601101679109"><ele>426.0</ele><time>2026-03-28T12:08:01Z</time></trkpt><trkpt lat="46.23720007451944" lon="13.40848652060052"><ele>431.0</ele><time>2026-03-28T12:08:02Z</time></trkpt><trkpt lat="46.237105679524824" lon="13.408379378221683"><ele>436.0</ele><time>2026-03-28T12:08:03Z</time></trkpt><trkpt lat="46.23700095853576" lon="13.408330079519915"><ele>441.0</ele><time>2026-03-28T12:08:04Z</time></trkpt><trkpt lat="46.23686938705419" lon="13.40832981887294"><ele>441.0</ele><time>2026-03-28T12:08:05Z</time></trkpt><trkpt lat="46.236724621512046" lon="13.408334813345734"><ele>441.0</ele><time>2026-03-28T12:08:06Z</time></trkpt><trkpt lat="46.23656303945638" lon="13.408339256236644"><ele>441.0</ele><time>2026-03-28T12:08:07Z</time></trkpt><trkpt lat="46.23642919883533" lon="13.408371921175274"><ele>441.0</ele><time>2026-03-28T12:08:08Z</time></trkpt><trkpt lat="46.23631292883355" lon="13.408495758379958"><ele>441.25</ele><time>2026-03-28T12:08:09Z</time></trkpt><trkpt lat="46.2361906370606" lon="13.4086344711627"><ele>441.5</ele><time>2026-03-28T12:08:10Z</time></trkpt><trkpt lat="46.23610198787806" lon="13.408739325548403"><ele>441.75</ele><time>2026-03-28T12:08:11Z</time></trkpt><trkpt lat="46.23597733371005" lon="13.408873383949853"><ele>442.0</ele><time>2026-03-28T12:08:12Z</time></trkpt><trkpt lat="46.235910674744325" lon="13.40901789156058"><ele>442.0</ele><time>2026-03-28T12:08:13Z</time></trkpt><trkpt lat="46.23582471742483" lon="13.409196635829923"><ele>442.0</ele><time>2026-03-28T12:08:14Z</time></trkpt><trkpt lat="46.23573588174763" lon="13.40933663441771"><ele>442.0</ele><time>2026-03-28T12:08:15Z</time></trkpt><trkpt lat="46.23562572379253" lon="13.409437455105577"><ele>442.0</ele><time>2026-03-28T12:08:16Z</time></trkpt><trkpt lat="46.23548166650304" lon="13.409531716659549"><ele>447.75</ele><time>2026-03-28T12:08:17Z</time></trkpt><trkpt lat="46.2353357034636" lon="13.409640589033048"><ele>453.5</ele><time>2026-03-28T12:08:18Z</time></trkpt><trkpt lat="46.235225818034266" lon="13.409741461349373"><ele>459.25</ele><time>2026-03-28T12:08:19Z</time></trkpt><trkpt lat="46.23513556419064" lon="13.409813860122135"><ele>465.0</ele><time>2026-03-28T12:08:20Z</time></trkpt><trkpt lat="46.23509842818042" lon="13.409966111747279"><ele>465.0</ele><time>2026-03-28T12:08:21Z</time></trkpt><trkpt lat="46.23507952989976" lon="13.41011340397724"><ele>465.0</ele><time>2026-03-28T12:08:22Z</time></trkpt><trkpt lat="46.23508909236529" lon="13.410283602933648"><ele>465.0</ele><time>2026-03-28T12:08:23Z</time></trkpt><trkpt lat="46.235113753785576" lon="13.410476448914487"><ele>465.0</ele><time>2026-03-28T12:08:24Z</time></trkpt><trkpt lat="46.235135187185584" lon="13.410675094198291"><ele>465.75</ele><time>2026-03-28T12:08:25Z</time></trkpt><trkpt lat="46.2351348355506" lon="13.41084428135497"><ele>466.5</ele><time>2026-03-28T12:08:26Z</time></trkpt><trkpt lat="46.23509504392445" lon="13.411013583948229"><ele>467.25</ele><time>2026-03-28T12:08:27Z</time></trkpt><trkpt lat="46.23503304240477" lon="13.411196044985429"><ele>468.0</ele><time>2026-03-28T12:08:28Z</time></trkpt><trkpt lat="46.23497830358497" lon="13.411385158981451"><ele>468.5</ele><time>2026-03-28T12:08:29Z</time></trkpt><trkpt lat="46.2349570172047" lon="13.411563725996489"><ele>469.0</ele><time>2026-03-28T12:08:30Z</time></trkpt><trkpt lat="46.23497187334541" lon="13.41175679633641"><ele>469.5</ele><time>2026-03-28T12:08:31Z</time></trkpt><trkpt lat="46.235008104118315" lon="13.411953773893453"><ele>470.0</ele><time>2026-03-28T12:08:32Z</time></trkpt><trkpt lat="46.23504725030633" lon="13.412144536695644"><ele>469.8</ele><time>2026-03-28T12:08:33Z</time></trkpt><trkpt lat="46.235068800509104" lon="13.412290759922104"><ele>469.6</ele><time>2026-03-28T12:08:34Z</time></trkpt><trkpt lat="46.23505569804526" lon="13.412421393019844"><ele>469.4</ele><time>2026-03-28T12:08:35Z</time></trkpt><trkpt lat="46.23501843629249" lon="13.412551921534964"><ele>469.2</ele><time>2026-03-28T12:08:36Z</time></trkpt><trkpt lat="46.23495096655473" lon="13.412686243677824"><ele>469.0</ele><time>2026-03-28T12:08:37Z</time></trkpt><trkpt lat="46.23484798531675" lon="13.412788994346075"><ele>469.5</ele><time>2026-03-28T12:08:38Z</time></trkpt><trkpt lat="46.23472756943262" lon="13.412874670068684"><ele>470.0</ele><time>2026-03-28T12:08:39Z</time></trkpt><trkpt lat="46.234597416841126" lon="13.412966928026785"><ele>470.5</ele><time>2026-03-28T12:08:40Z</time></trkpt><trkpt lat="46.234457365312174" lon="13.413064279592339"><ele>471.0</ele><time>2026-03-28T12:08:41Z</time></trkpt><trkpt lat="46.23431294884187" lon="13.413140576991864"><ele>471.0</ele><time>2026-03-28T12:08:42Z</time></trkpt><trkpt lat="46.23416255064643" lon="13.413173928863252"><ele>471.0</ele><time>2026-03-28T12:08:43Z</time></trkpt><trkpt lat="46.234013253644044" lon="13.41319655112823"><ele>471.0</ele><time>2026-03-28T12:08:44Z</time></trkpt><trkpt lat="46.23386746190008" lon="13.413248593374002"><ele>475.75</ele><time>2026-03-28T12:08:45Z</time></trkpt><trkpt lat="46.233739351854965" lon="13.413336538755361"><ele>480.5</ele><time>2026-03-28T12:08:46Z</time></trkpt><trkpt lat="46.233628622505336" lon="13.413458459248991"><ele>485.25</ele><time>2026-03-28T12:08:47Z</time></trkpt><trkpt lat="46.23352779816756" lon="13.413605078700686"><ele>490.0</ele><time>2026-03-28T12:08:48Z</time></trkpt><trkpt lat="46.23344603439202" lon="13.413775452027117"><ele>488.75</ele><time>2026-03-28T12:08:49Z</time></trkpt><trkpt lat="46.23338139128566" lon="13.413975171794293"><ele>487.5</ele><time>2026-03-28T12:08:50Z</time></trkpt><trkpt lat="46.233332167198675" lon="13.41417355869249"><ele>486.25</ele><time>2026-03-28T12:08:51Z</time></trkpt><trkpt lat="46.23329473661336" lon="13.414344265360372"><ele>485.0</ele><time>2026-03-28T12:08:52Z</time></trkpt><trkpt lat="46.23326418064186" lon="13.414474470389035"><ele>484.99999999999994</ele><time>2026-03-28T12:08:53Z</time></trkpt><trkpt lat="46.233226837552614" lon="13.414547770506196"><ele>485.0</ele><time>2026-03-28T12:08:54Z</time></trkpt><trkpt lat="46.23315878395513" lon="13.41451644938593"><ele>485.0</ele><time>2026-03-28T12:08:56Z</time></trkpt><trkpt lat="46.233127598619284" lon="13.414434810195795"><ele>485.0</ele><time>2026-03-28T12:08:57Z</time></trkpt><trkpt lat="46.2331462941391" lon="13.414269587263657"><ele>484.99999999999994</ele><time>2026-03-28T12:08:58Z</time></trkpt><trkpt lat="46.23315333053679" lon="13.414110810701638"><ele>485.0</ele><time>2026-03-28T12:08:59Z</time></trkpt><trkpt lat="46.233134006860695" lon="13.413932838369234"><ele>484.5</ele><time>2026-03-28T12:09:00Z</time></trkpt><trkpt lat="46.23312292017493" lon="13.413723266645095"><ele>484.0</ele><time>2026-03-28T12:09:01Z</time></trkpt><trkpt lat="46.23309515288818" lon="13.413525669905274"><ele>483.5</ele><time>2026-03-28T12:09:02Z</time></trkpt><trkpt lat="46.23310383426918" lon="13.41333865845461"><ele>483.0</ele><time>2026-03-28T12:09:03Z</time></trkpt><trkpt lat="46.233130159392196" lon="13.413189041142735"><ele>484.75</ele><time>2026-03-28T12:09:04Z</time></trkpt><trkpt lat="46.23319557404869" lon="13.413064971321019"><ele>486.5</ele><time>2026-03-28T12:09:05Z</time></trkpt><trkpt lat="46.23326795161135" lon="13.412899853516725"><ele>488.25</ele><time>2026-03-28T12:09:06Z</time></trkpt><trkpt lat="46.233331896196184" lon="13.412698324418786"><ele>490.0</ele><time>2026-03-28T12:09:07.001Z</time></trkpt><trkpt lat="46.23338716789266" lon="13.412470197621007"><ele>492.6666666666667</ele><time>2026-03-28T12:09:08.001Z</time></trkpt><trkpt lat="46.23341593003284" lon="13.412212545765946"><ele>495.33333333333337</ele><time>2026-03-28T12:09:09.001Z</time></trkpt><trkpt lat="46.23344903884904" lon="13.41193683750678"><ele>498.0</ele><time>2026-03-28T12:09:10.001Z</time></trkpt><trkpt lat="46.23345641039287" lon="13.411633646490241"><ele>499.66666666666663</ele><time>2026-03-28T12:09:11.001Z</time></trkpt><trkpt lat="46.233453174418564" lon="13.411387881172658"><ele>501.3333333333333</ele><time>2026-03-28T12:09:12.001Z</time></trkpt><trkpt lat="46.23342003521155" lon="13.411146778948302"><ele>503.0</ele><time>2026-03-28T12:09:13.001Z</time></trkpt><trkpt lat="46.233355495089455" lon="13.410884258784689"><ele>505.0</ele><time>2026-03-28T12:09:14.001Z</time></trkpt><trkpt lat="46.23334492074908" lon="13.410606729667565"><ele>507.0</ele><time>2026-03-28T12:09:15.001Z</time></trkpt><trkpt lat="46.23333780743568" lon="13.410329933224645"><ele>509.0</ele><time>2026-03-28T12:09:16.001Z</time></trkpt><trkpt lat="46.23332927808443" lon="13.410081367040931"><ele>509.5</ele><time>2026-03-28T12:09:17.001Z</time></trkpt><trkpt lat="46.23330324144763" lon="13.409869952079948"><ele>510.0</ele><time>2026-03-28T12:09:18.001Z</time></trkpt><trkpt lat="46.23328826924406" lon="13.409682185508785"><ele>510.5</ele><time>2026-03-28T12:09:19Z</time></trkpt><trkpt lat="46.233240640962286" lon="13.409492149368933"><ele>511.0</ele><time>2026-03-28T12:09:20Z</time></trkpt><trkpt lat="46.23317196505667" lon="13.409301352823851"><ele>512.0</ele><time>2026-03-28T12:09:21Z</time></trkpt><trkpt lat="46.23309437910929" lon="13.409155209487626"><ele>513.0</ele><time>2026-03-28T12:09:22Z</time></trkpt><trkpt lat="46.2329840534428" lon="13.409030383393736"><ele>514.0</ele><time>2026-03-28T12:09:23Z</time></trkpt><trkpt lat="46.23285763351272" lon="13.408910240932512"><ele>515.0</ele><time>2026-03-28T12:09:24Z</time></trkpt><trkpt lat="46.23271631151081" lon="13.408804840113389"><ele>515.5</ele><time>2026-03-28T12:09:25Z</time></trkpt><trkpt lat="46.23256177920406" lon="13.40873233183155"><ele>516.0</ele><time>2026-03-28T12:09:26Z</time></trkpt><trkpt lat="46.23240745633581" lon="13.408695683836013"><ele>516.5</ele><time>2026-03-28T12:09:27Z</time></trkpt><trkpt lat="46.23228102497858" lon="13.40866914943498"><ele>517.0</ele><time>2026-03-28T12:09:28Z</time></trkpt><trkpt lat="46.23217730232185" lon="13.40863129771887"><ele>517.0</ele><time>2026-03-28T12:09:29Z</time></trkpt><trkpt lat="46.23209063127707" lon="13.408597545406183"><ele>517.0</ele><time>2026-03-28T12:09:30Z</time></trkpt><trkpt lat="46.23203307229728" lon="13.408536922266883"><ele>517.0</ele><time>2026-03-28T12:09:31Z</time></trkpt><trkpt lat="46.23200513465458" lon="13.408346516682405"><ele>517.0</ele><time>2026-03-28T12:09:33Z</time></trkpt><trkpt lat="46.23195483481885" lon="13.408178008954309"><ele>517.0</ele><time>2026-03-28T12:09:34Z</time></trkpt><trkpt lat="46.231885997235665" lon="13.408038426263744"><ele>519.3333333333334</ele><time>2026-03-28T12:09:35Z</time></trkpt><trkpt lat="46.231757478890515" lon="13.407927404754915"><ele>521.6666666666666</ele><time>2026-03-28T12:09:36Z</time></trkpt><trkpt lat="46.23162512522463" lon="13.407836835232935"><ele>524.0</ele><time>2026-03-28T12:09:37Z</time></trkpt><trkpt lat="46.231477959137536" lon="13.407738930133599"><ele>530.25</ele><time>2026-03-28T12:09:38Z</time></trkpt><trkpt lat="46.231333271710355" lon="13.407662766357094"><ele>536.5</ele><time>2026-03-28T12:09:39Z</time></trkpt><trkpt lat="46.23119047599885" lon="13.4076442692318"><ele>542.75</ele><time>2026-03-28T12:09:40Z</time></trkpt><trkpt lat="46.23105806354479" lon="13.407638664362052"><ele>549.0</ele><time>2026-03-28T12:09:41Z</time></trkpt><trkpt lat="46.23094306568906" lon="13.407752108789769"><ele>549.0</ele><time>2026-03-28T12:09:42Z</time></trkpt><trkpt lat="46.23083449277988" lon="13.4078543584405"><ele>549.0</ele><time>2026-03-28T12:09:43Z</time></trkpt><trkpt lat="46.23071556022833" lon="13.40798054621827"><ele>549.0</ele><time>2026-03-28T12:09:44Z</time></trkpt><trkpt lat="46.23058200916826" lon="13.408015175242722"><ele>549.0</ele><time>2026-03-28T12:09:45Z</time></trkpt><trkpt lat="46.230461246975274" lon="13.408058463415339"><ele>552.25</ele><time>2026-03-28T12:09:46Z</time></trkpt><trkpt lat="46.230361119375694" lon="13.408064519157339"><ele>555.5</ele><time>2026-03-28T12:09:47Z</time></trkpt><trkpt lat="46.23025395916146" lon="13.408008280441216"><ele>558.75</ele><time>2026-03-28T12:09:48Z</time></trkpt><trkpt lat="46.230133903642525" lon="13.407970794570975"><ele>562.0</ele><time>2026-03-28T12:09:49Z</time></trkpt><trkpt lat="46.22999207061195" lon="13.40792087908686"><ele>562.0</ele><time>2026-03-28T12:09:50Z</time></trkpt><trkpt lat="46.22983416378905" lon="13.407890347824976"><ele>562.0</ele><time>2026-03-28T12:09:51Z</time></trkpt><trkpt lat="46.229664236896035" lon="13.40788671796765"><ele>562.0</ele><time>2026-03-28T12:09:52Z</time></trkpt><trkpt lat="46.22948248116474" lon="13.407952187914514"><ele>563.0</ele><time>2026-03-28T12:09:53Z</time></trkpt><trkpt lat="46.22930289900975" lon="13.40793404411714"><ele>564.0</ele><time>2026-03-28T12:09:54Z</time></trkpt><trkpt lat="46.229122585774796" lon="13.407914055325696"><ele>565.0</ele><time>2026-03-28T12:09:55Z</time></trkpt><trkpt lat="46.22892988241241" lon="13.407889499180554"><ele>566.0</ele><time>2026-03-28T12:09:56Z</time></trkpt><trkpt lat="46.22873010599528" lon="13.407864041713959"><ele>567.0</ele><time>2026-03-28T12:09:57Z</time></trkpt><trkpt lat="46.22852433681507" lon="13.407846620603625"><ele>568.0</ele><time>2026-03-28T12:09:58Z</time></trkpt><trkpt lat="46.228330691490186" lon="13.407827495066039"><ele>568.0</ele><time>2026-03-28T12:09:59Z</time></trkpt><trkpt lat="46.22814874045694" lon="13.407820817829233"><ele>568.0</ele><time>2026-03-28T12:10:00Z</time></trkpt><trkpt lat="46.227991555935915" lon="13.407827434520058"><ele>568.0</ele><time>2026-03-28T12:10:01Z</time></trkpt><trkpt lat="46.22784584161514" lon="13.4078352192249"><ele>565.4</ele><time>2026-03-28T12:10:02Z</time></trkpt><trkpt lat="46.227731813740725" lon="13.407826837489464"><ele>562.8</ele><time>2026-03-28T12:10:03Z</time></trkpt><trkpt lat="46.22763576449565" lon="13.4077939705601"><ele>560.2</ele><time>2026-03-28T12:10:04Z</time></trkpt><trkpt lat="46.22755903770123" lon="13.407717664014099"><ele>557.6</ele><time>2026-03-28T12:10:05Z</time></trkpt><trkpt lat="46.227479725946175" lon="13.407623530115275"><ele>555.0</ele><time>2026-03-28T12:10:06Z</time></trkpt><trkpt lat="46.22739135787988" lon="13.407525288141235"><ele>555.0</ele><time>2026-03-28T12:10:07Z</time></trkpt><trkpt lat="46.22731277011559" lon="13.407437221281793"><ele>555.0</ele><time>2026-03-28T12:10:08Z</time></trkpt><trkpt lat="46.227236267455844" lon="13.407380923747915"><ele>531.0</ele><time>2026-03-28T12:10:09Z</time></trkpt><trkpt lat="46.22718760008924" lon="13.407314628177733"><ele>531.0</ele><time>2026-03-28T12:10:10Z</time></trkpt><trkpt lat="46.22713272139038" lon="13.407257720194709"><ele>531.0</ele><time>2026-03-28T12:10:12Z</time></trkpt></trkseg><trkseg><trkpt lat="46.22708920162567" lon="13.407159651511089"><ele>546.0</ele><time>2026-03-28T13:38:38Z</time></trkpt><trkpt lat="46.227010871137864" lon="13.407097966328047"><ele>546.0</ele><time>2026-03-28T13:38:41Z</time></trkpt><trkpt lat="46.22696480980362" lon="13.407030175620932"><ele>546.0</ele><time>2026-03-28T13:38:43Z</time></trkpt><trkpt lat="46.2269074385447" lon="13.406931760629817"><ele>546.0</ele><time>2026-03-28T13:38:45Z</time></trkpt><trkpt lat="46.22689069970598" lon="13.40676455376346"><ele>546.0</ele><time>2026-03-28T13:38:47Z</time></trkpt><trkpt lat="46.226859720023306" lon="13.406586015032547"><ele>546.0</ele><time>2026-03-28T13:38:49Z</time></trkpt><trkpt lat="46.226822271721225" lon="13.40644939169132"><ele>546.0</ele><time>2026-03-28T13:38:51Z</time></trkpt><trkpt lat="46.226775236132404" lon="13.406371665278897"><ele>546.0</ele><time>2026-03-28T13:38:53Z</time></trkpt><trkpt lat="46.22671208790426" lon="13.406305103009158"><ele>546.0</ele><time>2026-03-28T13:38:55Z</time></trkpt><trkpt lat="46.22663528686653" lon="13.40621506084464"><ele>546.0</ele><time>2026-03-28T13:38:57Z</time></trkpt><trkpt lat="46.22656168973308" lon="13.406168788858855"><ele>546.0</ele><time>2026-03-28T13:38:59Z</time></trkpt><trkpt lat="46.226504510229596" lon="13.406106210758482"><ele>546.0</ele><time>2026-03-28T13:39:01Z</time></trkpt><trkpt lat="46.226569486500686" lon="13.40618873660149"><ele>546.0</ele><time>2026-03-28T13:39:35Z</time></trkpt><trkpt lat="46.226639158105044" lon="13.406233979739806"><ele>546.0</ele><time>2026-03-28T13:39:36Z</time></trkpt><trkpt lat="46.22669761895155" lon="13.406304461514548"><ele>546.0</ele><time>2026-03-28T13:39:37Z</time></trkpt><trkpt lat="46.226758677726096" lon="13.406374670025567"><ele>546.0</ele><time>2026-03-28T13:39:38Z</time></trkpt><trkpt lat="46.22680846900999" lon="13.406455367863845"><ele>546.0</ele><time>2026-03-28T13:39:39Z</time></trkpt><trkpt lat="46.226841010504714" lon="13.406542675844147"><ele>546.0</ele><time>2026-03-28T13:39:40Z</time></trkpt><trkpt lat="46.22686720685261" lon="13.4066949014993"><ele>546.0</ele><time>2026-03-28T13:39:42Z</time></trkpt><trkpt lat="46.2268748411471" lon="13.406802242080643"><ele>546.0</ele><time>2026-03-28T13:39:43Z</time></trkpt><trkpt lat="46.226905042539094" lon="13.406963207970005"><ele>546.0</ele><time>2026-03-28T13:39:45Z</time></trkpt><trkpt lat="46.22695416309171" lon="13.407092871941524"><ele>546.0</ele><time>2026-03-28T13:39:47Z</time></trkpt><trkpt lat="46.22697363811597" lon="13.407180260749175"><ele>546.0</ele><time>2026-03-28T13:39:49Z</time></trkpt><trkpt lat="46.226784838188465" lon="13.407164455177211"><ele>546.0</ele><time>2026-03-28T13:39:52Z</time></trkpt><trkpt lat="46.22673707670098" lon="13.406998552272103"><ele>546.0</ele><time>2026-03-28T13:39:54Z</time></trkpt><trkpt lat="46.226702752538586" lon="13.40688927503856"><ele>546.0</ele><time>2026-03-28T13:39:55Z</time></trkpt><trkpt lat="46.22664925784216" lon="13.406767447265086"><ele>546.0</ele><time>2026-03-28T13:39:56Z</time></trkpt><trkpt lat="46.226601404748855" lon="13.406692470756779"><ele>546.0</ele><time>2026-03-28T13:39:57Z</time></trkpt><trkpt lat="46.22654320254929" lon="13.406650758486448"><ele>546.0</ele><time>2026-03-28T13:39:58Z</time></trkpt><trkpt lat="46.22643670731672" lon="13.40665717000054"><ele>546.0</ele><time>2026-03-28T13:40:00Z</time></trkpt><trkpt lat="46.22632252357804" lon="13.406625626943407"><ele>546.0</ele><time>2026-03-28T13:40:02Z</time></trkpt><trkpt lat="46.22626767808209" lon="13.40654673588864"><ele>546.0</ele><time>2026-03-28T13:40:03Z</time></trkpt><trkpt lat="46.22620853357812" lon="13.406456643004137"><ele>545.6</ele><time>2026-03-28T13:40:04Z</time></trkpt><trkpt lat="46.22615471713019" lon="13.406384248073097"><ele>545.2</ele><time>2026-03-28T13:40:05Z</time></trkpt><trkpt lat="46.226113411692104" lon="13.406312850392437"><ele>544.8</ele><time>2026-03-28T13:40:06Z</time></trkpt><trkpt lat="46.22604244790452" lon="13.406150194140878"><ele>544.4</ele><time>2026-03-28T13:40:08Z</time></trkpt><trkpt lat="46.22599430444825" lon="13.406043243060216"><ele>544.0</ele><time>2026-03-28T13:40:09Z</time></trkpt><trkpt lat="46.225929256688374" lon="13.405949335079699"><ele>544.0</ele><time>2026-03-28T13:40:10Z</time></trkpt><trkpt lat="46.22584906390204" lon="13.405870317801936"><ele>544.0</ele><time>2026-03-28T13:40:11Z</time></trkpt><trkpt lat="46.22577153120736" lon="13.405810840532942"><ele>544.0</ele><time>2026-03-28T13:40:12Z</time></trkpt><trkpt lat="46.22568689551093" lon="13.405767676949747"><ele>544.0</ele><time>2026-03-28T13:40:13Z</time></trkpt><trkpt lat="46.22561656382514" lon="13.405755224105674"><ele>544.0</ele><time>2026-03-28T13:40:14Z</time></trkpt><trkpt lat="46.22555171483841" lon="13.40577404663082"><ele>544.0</ele><time>2026-03-28T13:40:15Z</time></trkpt><trkpt lat="46.225435531259286" lon="13.405799616459817"><ele>540.8</ele><time>2026-03-28T13:40:17Z</time></trkpt><trkpt lat="46.225314648894866" lon="13.405754580413015"><ele>537.5999999999999</ele><time>2026-03-28T13:40:19Z</time></trkpt><trkpt lat="46.22519353636779" lon="13.405716667062158"><ele>534.4</ele><time>2026-03-28T13:40:21Z</time></trkpt><trkpt lat="46.22506939781951" lon="13.40573720994269"><ele>531.1999999999999</ele><time>2026-03-28T13:40:23Z</time></trkpt><trkpt lat="46.22500212729618" lon="13.405766116122129"><ele>528.0</ele><time>2026-03-28T13:40:25Z</time></trkpt><trkpt lat="46.224922200021844" lon="13.405806258211223"><ele>528.0</ele><time>2026-03-28T13:40:30Z</time></trkpt><trkpt lat="46.224831137294835" lon="13.405835887947733"><ele>528.0</ele><time>2026-03-28T13:40:33Z</time></trkpt><trkpt lat="46.2247407826782" lon="13.405873028216085"><ele>528.0</ele><time>2026-03-28T13:40:35Z</time></trkpt><trkpt lat="46.22465016964416" lon="13.405969090318779"><ele>528.0</ele><time>2026-03-28T13:40:37Z</time></trkpt><trkpt lat="46.22459903796811" lon="13.406033772474867"><ele>528.0</ele><time>2026-03-28T13:40:39Z</time></trkpt><trkpt lat="46.22451003152051" lon="13.405991268525895"><ele>523.0</ele><time>2026-03-28T13:40:42Z</time></trkpt><trkpt lat="46.22449033703975" lon="13.405865110740626"><ele>518.0</ele><time>2026-03-28T13:40:44Z</time></trkpt><trkpt lat="46.224507631429944" lon="13.40568783930528"><ele>513.0</ele><time>2026-03-28T13:40:46Z</time></trkpt><trkpt lat="46.224513821133506" lon="13.405572751243506"><ele>508.0</ele><time>2026-03-28T13:40:47Z</time></trkpt><trkpt lat="46.22452660080367" lon="13.405443125307174"><ele>503.0</ele><time>2026-03-28T13:40:48Z</time></trkpt><trkpt lat="46.224539223841845" lon="13.405317166918884"><ele>502.99999999999994</ele><time>2026-03-28T13:40:49Z</time></trkpt><trkpt lat="46.224547319460335" lon="13.405202196078019"><ele>503.0</ele><time>2026-03-28T13:40:50Z</time></trkpt><trkpt lat="46.2245528742748" lon="13.405089638061751"><ele>503.0</ele><time>2026-03-28T13:40:51Z</time></trkpt><trkpt lat="46.22456022861648" lon="13.404966245803562"><ele>503.0</ele><time>2026-03-28T13:40:51.999Z</time></trkpt><trkpt lat="46.22456385258802" lon="13.404845998478653"><ele>502.99999999999994</ele><time>2026-03-28T13:40:52.999Z</time></trkpt><trkpt lat="46.22456175070516" lon="13.404722658009279"><ele>503.0</ele><time>2026-03-28T13:40:53.999Z</time></trkpt><trkpt lat="46.224554737918865" lon="13.404598166751658"><ele>502.49999999999994</ele><time>2026-03-28T13:40:54.999Z</time></trkpt><trkpt lat="46.22454868725525" lon="13.404488663222654"><ele>502.0</ele><time>2026-03-28T13:40:55.999Z</time></trkpt><trkpt lat="46.22454783390215" lon="13.4043753890767"><ele>501.5</ele><time>2026-03-28T13:40:56.999Z</time></trkpt><trkpt lat="46.22453969730616" lon="13.404264251993451"><ele>501.0</ele><time>2026-03-28T13:40:57.999Z</time></trkpt><trkpt lat="46.22454149422787" lon="13.404170364801567"><ele>500.49999999999994</ele><time>2026-03-28T13:40:58.999Z</time></trkpt><trkpt lat="46.2245283363207" lon="13.40407139007602"><ele>500.0</ele><time>2026-03-28T13:40:59.999Z</time></trkpt><trkpt lat="46.22449950148474" lon="13.403923554381976"><ele>499.99999999999994</ele><time>2026-03-28T13:41:01.999Z</time></trkpt><trkpt lat="46.224497035532984" lon="13.403795904749469"><ele>500.0</ele><time>2026-03-28T13:41:03.999Z</time></trkpt><trkpt lat="46.224488587334776" lon="13.40369963026346"><ele>500.0</ele><time>2026-03-28T13:41:06.999Z</time></trkpt><trkpt lat="46.224423770712995" lon="13.403750904739963"><ele>500.0</ele><time>2026-03-28T13:41:09.999Z</time></trkpt><trkpt lat="46.224411275013345" lon="13.403887957360114"><ele>499.99999999999994</ele><time>2026-03-28T13:41:11.999Z</time></trkpt><trkpt lat="46.22442571290455" lon="13.403988390395105"><ele>500.0</ele><time>2026-03-28T13:41:12.999Z</time></trkpt><trkpt lat="46.2244256942191" lon="13.404087987217522"><ele>500.0</ele><time>2026-03-28T13:41:13.999Z</time></trkpt><trkpt lat="46.22440689293374" lon="13.404205843690292"><ele>500.0</ele><time>2026-03-28T13:41:14.999Z</time></trkpt><trkpt lat="46.22437400754932" lon="13.404326847559863"><ele>500.0</ele><time>2026-03-28T13:41:15.999Z</time></trkpt><trkpt lat="46.224321534044485" lon="13.404451428112298"><ele>500.0</ele><time>2026-03-28T13:41:16.999Z</time></trkpt><trkpt lat="46.22424982961384" lon="13.404564721496726"><ele>500.0</ele><time>2026-03-28T13:41:17.999Z</time></trkpt><trkpt lat="46.224177682423026" lon="13.404686270703857"><ele>500.6</ele><time>2026-03-28T13:41:19Z</time></trkpt><trkpt lat="46.22412189072855" lon="13.404805195881973"><ele>501.2</ele><time>2026-03-28T13:41:20Z</time></trkpt><trkpt lat="46.224061945016196" lon="13.404925348130023"><ele>501.79999999999995</ele><time>2026-03-28T13:41:21Z</time></trkpt><trkpt lat="46.22401620173479" lon="13.405051902449097"><ele>502.4</ele><time>2026-03-28T13:41:22Z</time></trkpt><trkpt lat="46.2239710729813" lon="13.405170764788087"><ele>503.0</ele><time>2026-03-28T13:41:23Z</time></trkpt><trkpt lat="46.22392533426627" lon="13.405289973692716"><ele>500.3333333333333</ele><time>2026-03-28T13:41:24Z</time></trkpt><trkpt lat="46.223882706771" lon="13.405393322538393"><ele>497.66666666666663</ele><time>2026-03-28T13:41:25Z</time></trkpt><trkpt lat="46.22384241238459" lon="13.405517597112718"><ele>495.0</ele><time>2026-03-28T13:41:26Z</time></trkpt><trkpt lat="46.22381019517343" lon="13.405638241809266"><ele>492.33333333333337</ele><time>2026-03-28T13:41:27Z</time></trkpt><trkpt lat="46.22378650350365" lon="13.405740879792136"><ele>489.6666666666667</ele><time>2026-03-28T13:41:28Z</time></trkpt><trkpt lat="46.22376428152582" lon="13.405827231090358"><ele>487.0</ele><time>2026-03-28T13:41:29Z</time></trkpt><trkpt lat="46.22372012480604" lon="13.405972497953005"><ele>485.20000000000005</ele><time>2026-03-28T13:41:31Z</time></trkpt><trkpt lat="46.22364729821841" lon="13.406023962324051"><ele>483.40000000000003</ele><time>2026-03-28T13:41:33Z</time></trkpt><trkpt lat="46.22355471864787" lon="13.405955416876688"><ele>481.59999999999997</ele><time>2026-03-28T13:41:35Z</time></trkpt><trkpt lat="46.22348505244525" lon="13.405895507082127"><ele>479.79999999999995</ele><time>2026-03-28T13:41:36Z</time></trkpt><trkpt lat="46.223410539788794" lon="13.405806156721319"><ele>478.0</ele><time>2026-03-28T13:41:37Z</time></trkpt><trkpt lat="46.223338296700454" lon="13.405726709736179"><ele>478.0</ele><time>2026-03-28T13:41:38Z</time></trkpt><trkpt lat="46.22327172034223" lon="13.405673932378367"><ele>477.99999999999994</ele><time>2026-03-28T13:41:39Z</time></trkpt><trkpt lat="46.223168903369796" lon="13.405594237477734"><ele>477.99999999999994</ele><time>2026-03-28T13:41:41Z</time></trkpt><trkpt lat="46.223091933137006" lon="13.405534920245113"><ele>478.0</ele><time>2026-03-28T13:41:43Z</time></trkpt><trkpt lat="46.22297170353557" lon="13.405559689740738"><ele>478.0</ele><time>2026-03-28T13:41:45Z</time></trkpt><trkpt lat="46.22290719342921" lon="13.405573403193051"><ele>476.4</ele><time>2026-03-28T13:41:46Z</time></trkpt><trkpt lat="46.22279343955484" lon="13.4054757470285"><ele>474.79999999999995</ele><time>2026-03-28T13:41:48Z</time></trkpt><trkpt lat="46.222753016860615" lon="13.405367479253284"><ele>473.2</ele><time>2026-03-28T13:41:50Z</time></trkpt><trkpt lat="46.22276747237446" lon="13.405269614163982"><ele>471.6</ele><time>2026-03-28T13:42:05Z</time></trkpt><trkpt lat="46.22282737248104" lon="13.405213776453332"><ele>470.0</ele><time>2026-03-28T13:42:07Z</time></trkpt><trkpt lat="46.222905919403615" lon="13.40507240054664"><ele>469.99999999999994</ele><time>2026-03-28T13:42:09Z</time></trkpt><trkpt lat="46.22294006260182" lon="13.404977311818032"><ele>470.0</ele><time>2026-03-28T13:42:10Z</time></trkpt><trkpt lat="46.22298750884481" lon="13.404844156956319"><ele>470.0</ele><time>2026-03-28T13:42:12Z</time></trkpt><trkpt lat="46.2230184671874" lon="13.404718123625699"><ele>470.0</ele><time>2026-03-28T13:42:14Z</time></trkpt><trkpt lat="46.22302631213255" lon="13.40461422996134"><ele>469.99999999999994</ele><time>2026-03-28T13:42:16Z</time></trkpt><trkpt lat="46.22295237683325" lon="13.40455822079699"><ele>470.0</ele><time>2026-03-28T13:42:18Z</time></trkpt><trkpt lat="46.22288819585175" lon="13.4045484982277"><ele>469.16666666666663</ele><time>2026-03-28T13:42:19Z</time></trkpt><trkpt lat="46.22281568170564" lon="13.404542725381294"><ele>468.3333333333333</ele><time>2026-03-28T13:42:20Z</time></trkpt><trkpt lat="46.222721749338035" lon="13.404542500766553"><ele>467.5</ele><time>2026-03-28T13:42:21Z</time></trkpt><trkpt lat="46.22263748475976" lon="13.40452593356651"><ele>466.66666666666663</ele><time>2026-03-28T13:42:22Z</time></trkpt><trkpt lat="46.22256958878888" lon="13.404519922712677"><ele>465.8333333333333</ele><time>2026-03-28T13:42:23Z</time></trkpt><trkpt lat="46.22250888118616" lon="13.404550434712787"><ele>465.0</ele><time>2026-03-28T13:42:24Z</time></trkpt><trkpt lat="46.22243373577138" lon="13.404601659105165"><ele>464.4</ele><time>2026-03-28T13:42:25Z</time></trkpt><trkpt lat="46.22235158691928" lon="13.404690249912788"><ele>463.8</ele><time>2026-03-28T13:42:26Z</time></trkpt><trkpt lat="46.22227597046929" lon="13.404799793887346"><ele>463.20000000000005</ele><time>2026-03-28T13:42:27Z</time></trkpt><trkpt lat="46.222198763671365" lon="13.404867115971545"><ele>462.6</ele><time>2026-03-28T13:42:28Z</time></trkpt><trkpt lat="46.222064897591636" lon="13.4049295468905"><ele>462.0</ele><time>2026-03-28T13:42:30Z</time></trkpt><trkpt lat="46.221971012553546" lon="13.404945909557439"><ele>462.0</ele><time>2026-03-28T13:42:31Z</time></trkpt><trkpt lat="46.22187549341918" lon="13.40496262594905"><ele>462.00000000000006</ele><time>2026-03-28T13:42:32Z</time></trkpt><trkpt lat="46.22177637763394" lon="13.405009753617625"><ele>462.00000000000006</ele><time>2026-03-28T13:42:33Z</time></trkpt><trkpt lat="46.22167586776272" lon="13.405066570983807"><ele>462.0</ele><time>2026-03-28T13:42:34Z</time></trkpt><trkpt lat="46.22158309695136" lon="13.405100313731106"><ele>462.0</ele><time>2026-03-28T13:42:35Z</time></trkpt><trkpt lat="46.22147829603855" lon="13.405104051187786"><ele>458.6666666666667</ele><time>2026-03-28T13:42:36Z</time></trkpt><trkpt lat="46.221381070551146" lon="13.405118162717093"><ele>455.33333333333337</ele><time>2026-03-28T13:42:37Z</time></trkpt><trkpt lat="46.22129225301171" lon="13.405132394959203"><ele>452.0</ele><time>2026-03-28T13:42:38Z</time></trkpt><trkpt lat="46.22122643742403" lon="13.405152789965367"><ele>448.6666666666667</ele><time>2026-03-28T13:42:39Z</time></trkpt><trkpt lat="46.22115771334054" lon="13.405152137332589"><ele>445.33333333333337</ele><time>2026-03-28T13:42:41Z</time></trkpt><trkpt lat="46.22111465908547" lon="13.405039613278083"><ele>442.0</ele><time>2026-03-28T13:42:43Z</time></trkpt><trkpt lat="46.221147450138545" lon="13.404902472786345"><ele>442.00000000000006</ele><time>2026-03-28T13:42:45Z</time></trkpt><trkpt lat="46.22119117136109" lon="13.404780670452864"><ele>442.0</ele><time>2026-03-28T13:42:46Z</time></trkpt><trkpt lat="46.22121210678122" lon="13.404657633319234"><ele>442.0</ele><time>2026-03-28T13:42:47Z</time></trkpt><trkpt lat="46.22121816112157" lon="13.404564854359444"><ele>442.0</ele><time>2026-03-28T13:42:48Z</time></trkpt><trkpt lat="46.22125824717245" lon="13.404448405173703"><ele>442.00000000000006</ele><time>2026-03-28T13:42:50Z</time></trkpt><trkpt lat="46.22133674349671" lon="13.404385463769076"><ele>442.0</ele><time>2026-03-28T13:42:53Z</time></trkpt><trkpt lat="46.22143452232842" lon="13.40433792088376"><ele>444.00000000000006</ele><time>2026-03-28T13:42:55Z</time></trkpt><trkpt lat="46.221496249609764" lon="13.404316569470009"><ele>446.0</ele><time>2026-03-28T13:42:56Z</time></trkpt><trkpt lat="46.22163315427974" lon="13.404257829317164"><ele>448.0</ele><time>2026-03-28T13:42:57.999Z</time></trkpt><trkpt lat="46.22169326715687" lon="13.404212336332"><ele>450.0</ele><time>2026-03-28T13:42:58.999Z</time></trkpt><trkpt lat="46.221746851852636" lon="13.404155531271519"><ele>452.00000000000006</ele><time>2026-03-28T13:42:59.999Z</time></trkpt><trkpt lat="46.2217896477351" lon="13.404087110234213"><ele>454.0</ele><time>2026-03-28T13:43:00.999Z</time></trkpt><trkpt lat="46.22185506815498" lon="13.403996186659946"><ele>454.00000000000006</ele><time>2026-03-28T13:43:02.999Z</time></trkpt><trkpt lat="46.221916723720305" lon="13.403916901834826"><ele>454.0</ele><time>2026-03-28T13:43:04.999Z</time></trkpt><trkpt lat="46.22185510156402" lon="13.403836919758751"><ele>454.0</ele><time>2026-03-28T13:43:07.999Z</time></trkpt><trkpt lat="46.22179567137786" lon="13.403869246440202"><ele>454.0</ele><time>2026-03-28T13:43:09.999Z</time></trkpt><trkpt lat="46.221731339350015" lon="13.403891708387611"><ele>454.00000000000006</ele><time>2026-03-28T13:43:10.999Z</time></trkpt><trkpt lat="46.221644669247794" lon="13.403907337199033"><ele>454.0</ele><time>2026-03-28T13:43:11.999Z</time></trkpt><trkpt lat="46.22157584316708" lon="13.403902515077057"><ele>454.00000000000006</ele><time>2026-03-28T13:43:12.999Z</time></trkpt><trkpt lat="46.22151028913219" lon="13.403903586576508"><ele>454.0</ele><time>2026-03-28T13:43:13.999Z</time></trkpt><trkpt lat="46.22144748875094" lon="13.403928483071466"><ele>454.0</ele><time>2026-03-28T13:43:14.999Z</time></trkpt><trkpt lat="46.22134271983722" lon="13.403910660174928"><ele>454.0</ele><time>2026-03-28T13:43:16.999Z</time></trkpt><trkpt lat="46.221240982942284" lon="13.403887681770152"><ele>454.00000000000006</ele><time>2026-03-28T13:43:18.999Z</time></trkpt><trkpt lat="46.22123864656444" lon="13.403779953368023"><ele>454.0</ele><time>2026-03-28T13:43:21.999Z</time></trkpt><trkpt lat="46.221301045322576" lon="13.40373705588595"><ele>455.75</ele><time>2026-03-28T13:43:23.999Z</time></trkpt><trkpt lat="46.22139823369537" lon="13.403705606093665"><ele>457.5</ele><time>2026-03-28T13:43:25.999Z</time></trkpt><trkpt lat="46.22138329813377" lon="13.403603390233258"><ele>459.25</ele><time>2026-03-28T13:43:29.999Z</time></trkpt><trkpt lat="46.22120788868784" lon="13.403567850597273"><ele>461.0</ele><time>2026-03-28T13:43:31.999Z</time></trkpt><trkpt lat="46.221081188995306" lon="13.403527278025686"><ele>461.0</ele><time>2026-03-28T13:43:32.999Z</time></trkpt><trkpt lat="46.22098781427045" lon="13.40349268162858"><ele>461.0</ele><time>2026-03-28T13:43:33.999Z</time></trkpt><trkpt lat="46.22088256462703" lon="13.40350587132095"><ele>461.0</ele><time>2026-03-28T13:43:34.999Z</time></trkpt><trkpt lat="46.220779324428904" lon="13.403511056578086"><ele>461.0</ele><time>2026-03-28T13:43:35.999Z</time></trkpt><trkpt lat="46.220660034789596" lon="13.40350761161929"><ele>461.0</ele><time>2026-03-28T13:43:36.999Z</time></trkpt><trkpt lat="46.22052242509968" lon="13.403471535536516"><ele>458.0</ele><time>2026-03-28T13:43:38Z</time></trkpt><trkpt lat="46.22039140838874" lon="13.40342623084319"><ele>455.0</ele><time>2026-03-28T13:43:39Z</time></trkpt><trkpt lat="46.220273127395856" lon="13.403403248805498"><ele>452.0</ele><time>2026-03-28T13:43:40Z</time></trkpt><trkpt lat="46.22017168458544" lon="13.403423325050959"><ele>449.0</ele><time>2026-03-28T13:43:41Z</time></trkpt><trkpt lat="46.22010157207272" lon="13.403410922875926"><ele>446.0</ele><time>2026-03-28T13:43:42Z</time></trkpt><trkpt lat="46.21999381920246" lon="13.403449791193518"><ele>446.0</ele><time>2026-03-28T13:43:44Z</time></trkpt><trkpt lat="46.219954190035686" lon="13.403602256082852"><ele>446.0</ele><time>2026-03-28T13:43:46Z</time></trkpt><trkpt lat="46.219911719377635" lon="13.403747579369599"><ele>446.0</ele><time>2026-03-28T13:43:48Z</time></trkpt><trkpt lat="46.21986691025989" lon="13.403863954287319"><ele>446.0</ele><time>2026-03-28T13:44:25Z</time></trkpt><trkpt lat="46.21981051325899" lon="13.404022709914738"><ele>446.0</ele><time>2026-03-28T13:44:27Z</time></trkpt><trkpt lat="46.21978780596231" lon="13.404108669169132"><ele>443.0</ele><time>2026-03-28T13:44:28Z</time></trkpt><trkpt lat="46.219731451131416" lon="13.404261463404811"><ele>440.0</ele><time>2026-03-28T13:44:30Z</time></trkpt><trkpt lat="46.219656662759384" lon="13.404400090627465"><ele>437.0</ele><time>2026-03-28T13:44:32Z</time></trkpt><trkpt lat="46.21959575565905" lon="13.404444995024614"><ele>434.0</ele><time>2026-03-28T13:44:33Z</time></trkpt><trkpt lat="46.21952265423836" lon="13.404469551861768"><ele>431.0</ele><time>2026-03-28T13:44:34Z</time></trkpt><trkpt lat="46.21944141739131" lon="13.404474781163563"><ele>430.99999999999994</ele><time>2026-03-28T13:44:35Z</time></trkpt><trkpt lat="46.219361211013606" lon="13.404487993545906"><ele>431.0</ele><time>2026-03-28T13:44:36Z</time></trkpt><trkpt lat="46.21926906928551" lon="13.404509926913049"><ele>431.0</ele><time>2026-03-28T13:44:37Z</time></trkpt><trkpt lat="46.21919485953564" lon="13.404504925173086"><ele>431.0</ele><time>2026-03-28T13:44:38Z</time></trkpt><trkpt lat="46.2191071284328" lon="13.40448264203424"><ele>430.99999999999994</ele><time>2026-03-28T13:44:39Z</time></trkpt><trkpt lat="46.21900400916988" lon="13.404464267296259"><ele>431.0</ele><time>2026-03-28T13:44:40Z</time></trkpt><trkpt lat="46.21889133331902" lon="13.404435047929992"><ele>432.20000000000005</ele><time>2026-03-28T13:44:41Z</time></trkpt><trkpt lat="46.218780071858625" lon="13.404404632008292"><ele>433.40000000000003</ele><time>2026-03-28T13:44:42Z</time></trkpt><trkpt lat="46.218674424412605" lon="13.404353210695849"><ele>434.6</ele><time>2026-03-28T13:44:43Z</time></trkpt><trkpt lat="46.21858965286544" lon="13.404292748407814"><ele>435.8</ele><time>2026-03-28T13:44:44Z</time></trkpt><trkpt lat="46.21849763310085" lon="13.404251930825392"><ele>437.0</ele><time>2026-03-28T13:44:45Z</time></trkpt><trkpt lat="46.21840503008317" lon="13.404258087305992"><ele>437.0</ele><time>2026-03-28T13:44:46Z</time></trkpt><trkpt lat="46.2183083399676" lon="13.404298351333853"><ele>437.00000000000006</ele><time>2026-03-28T13:44:47Z</time></trkpt><trkpt lat="46.21821658522491" lon="13.404335536833326"><ele>437.00000000000006</ele><time>2026-03-28T13:44:48Z</time></trkpt><trkpt lat="46.21810101712155" lon="13.404382355293883"><ele>437.0</ele><time>2026-03-28T13:44:49Z</time></trkpt><trkpt lat="46.21799804827965" lon="13.404437358231583"><ele>437.0</ele><time>2026-03-28T13:44:50Z</time></trkpt><trkpt lat="46.217891774078645" lon="13.40452811731993"><ele>437.5</ele><time>2026-03-28T13:44:51Z</time></trkpt><trkpt lat="46.217787282634006" lon="13.404610384556072"><ele>438.0</ele><time>2026-03-28T13:44:52Z</time></trkpt><trkpt lat="46.21767786265473" lon="13.404695287257903"><ele>438.5</ele><time>2026-03-28T13:44:53Z</time></trkpt><trkpt lat="46.21756783405346" lon="13.404763464763782"><ele>439.0</ele><time>2026-03-28T13:44:54Z</time></trkpt><trkpt lat="46.21745982663471" lon="13.404806971239763"><ele>443.6</ele><time>2026-03-28T13:44:55Z</time></trkpt><trkpt lat="46.21738165704437" lon="13.404910825721018"><ele>448.2</ele><time>2026-03-28T13:44:56Z</time></trkpt><trkpt lat="46.217280574401386" lon="13.405007798999334"><ele>452.80000000000007</ele><time>2026-03-28T13:44:57Z</time></trkpt><trkpt lat="46.217197472592375" lon="13.405098698371352"><ele>457.40000000000003</ele><time>2026-03-28T13:44:58Z</time></trkpt><trkpt lat="46.21716240017891" lon="13.405208864419102"><ele>462.0</ele><time>2026-03-28T13:44:59Z</time></trkpt><trkpt lat="46.21706786379477" lon="13.40521892974349"><ele>464.6</ele><time>2026-03-28T13:45:01Z</time></trkpt><trkpt lat="46.21699836530029" lon="13.405200191124443"><ele>467.20000000000005</ele><time>2026-03-28T13:45:02Z</time></trkpt><trkpt lat="46.21692741274497" lon="13.405134584766373"><ele>469.8</ele><time>2026-03-28T13:45:03Z</time></trkpt><trkpt lat="46.21684610689529" lon="13.405043059462953"><ele>472.4</ele><time>2026-03-28T13:45:03.999Z</time></trkpt><trkpt lat="46.21675487730788" lon="13.404988595590021"><ele>475.0</ele><time>2026-03-28T13:45:04.999Z</time></trkpt><trkpt lat="46.2166491892164" lon="13.404953599896773"><ele>475.0</ele><time>2026-03-28T13:45:05.999Z</time></trkpt><trkpt lat="46.21653258543011" lon="13.404915724140446"><ele>475.0</ele><time>2026-03-28T13:45:06.999Z</time></trkpt><trkpt lat="46.21643619279458" lon="13.40487654047048"><ele>475.0</ele><time>2026-03-28T13:45:07.999Z</time></trkpt><trkpt lat="46.21634089770259" lon="13.40484472050886"><ele>475.0</ele><time>2026-03-28T13:45:08.999Z</time></trkpt><trkpt lat="46.216267789712056" lon="13.404822554031815"><ele>475.0</ele><time>2026-03-28T13:45:09.999Z</time></trkpt><trkpt lat="46.21619841715649" lon="13.404828319546384"><ele>476.2</ele><time>2026-03-28T13:45:10.999Z</time></trkpt><trkpt lat="46.216091937722055" lon="13.40491646252733"><ele>477.4</ele><time>2026-03-28T13:45:12.999Z</time></trkpt><trkpt lat="46.2160316241369" lon="13.405011803194814"><ele>478.6</ele><time>2026-03-28T13:45:13.999Z</time></trkpt><trkpt lat="46.21596740213946" lon="13.405101619364078"><ele>479.8</ele><time>2026-03-28T13:45:14.999Z</time></trkpt><trkpt lat="46.21591075526943" lon="13.405184616579948"><ele>481.0</ele><time>2026-03-28T13:45:15.999Z</time></trkpt><trkpt lat="46.21582901207413" lon="13.405255646858835"><ele>481.0</ele><time>2026-03-28T13:45:16.999Z</time></trkpt><trkpt lat="46.21574213314212" lon="13.405332654630312"><ele>481.0</ele><time>2026-03-28T13:45:17.999Z</time></trkpt><trkpt lat="46.215656812744584" lon="13.405389833294798"><ele>481.0</ele><time>2026-03-28T13:45:18.999Z</time></trkpt><trkpt lat="46.215557725830955" lon="13.405437939784024"><ele>481.0</ele><time>2026-03-28T13:45:19.999Z</time></trkpt><trkpt lat="46.21546585788502" lon="13.405496546349577"><ele>481.0</ele><time>2026-03-28T13:45:20.999Z</time></trkpt><trkpt lat="46.21537121058401" lon="13.405541190015942"><ele>483.6</ele><time>2026-03-28T13:45:21.999Z</time></trkpt><trkpt lat="46.215282757504596" lon="13.40555861449816"><ele>486.20000000000005</ele><time>2026-03-28T13:45:22.999Z</time></trkpt><trkpt lat="46.21517898203076" lon="13.405571705852264"><ele>488.79999999999995</ele><time>2026-03-28T13:45:24Z</time></trkpt><trkpt lat="46.21510006471163" lon="13.405625489737458"><ele>491.4</ele><time>2026-03-28T13:45:25Z</time></trkpt><trkpt lat="46.21503505062197" lon="13.405724757265396"><ele>494.0</ele><time>2026-03-28T13:45:26Z</time></trkpt><trkpt lat="46.21497644411003" lon="13.40581477083399"><ele>494.0</ele><time>2026-03-28T13:45:27Z</time></trkpt><trkpt lat="46.21492511934269" lon="13.405919788410586"><ele>494.0</ele><time>2026-03-28T13:45:28Z</time></trkpt><trkpt lat="46.21489072987825" lon="13.406056780257595"><ele>494.0</ele><time>2026-03-28T13:45:29Z</time></trkpt><trkpt lat="46.21486268285581" lon="13.406232598694384"><ele>494.0</ele><time>2026-03-28T13:45:30Z</time></trkpt><trkpt lat="46.21480368228548" lon="13.40635443790356"><ele>494.0</ele><time>2026-03-28T13:45:31Z</time></trkpt><trkpt lat="46.21471057827423" lon="13.406439822195118"><ele>495.99999999999994</ele><time>2026-03-28T13:45:32Z</time></trkpt><trkpt lat="46.214623296175425" lon="13.406489786405206"><ele>498.0</ele><time>2026-03-28T13:45:33Z</time></trkpt><trkpt lat="46.21455735818048" lon="13.406486666287933"><ele>500.0</ele><time>2026-03-28T13:45:35Z</time></trkpt><trkpt lat="46.21449090462437" lon="13.406514574006898"><ele>502.0</ele><time>2026-03-28T13:45:36Z</time></trkpt><trkpt lat="46.21441253825216" lon="13.40652655211115"><ele>503.99999999999994</ele><time>2026-03-28T13:45:37Z</time></trkpt><trkpt lat="46.214322092024446" lon="13.406576987579234"><ele>506.0</ele><time>2026-03-28T13:45:38Z</time></trkpt><trkpt lat="46.21423171792615" lon="13.406750292348462"><ele>506.0</ele><time>2026-03-28T13:45:40Z</time></trkpt><trkpt lat="46.21416311381399" lon="13.406809916834664"><ele>506.0</ele><time>2026-03-28T13:45:41Z</time></trkpt><trkpt lat="46.214064266820564" lon="13.406838007434276"><ele>506.0</ele><time>2026-03-28T13:45:42Z</time></trkpt><trkpt lat="46.213951643400435" lon="13.406869568571002"><ele>506.0</ele><time>2026-03-28T13:45:43Z</time></trkpt><trkpt lat="46.213855859116855" lon="13.406924707781679"><ele>506.0</ele><time>2026-03-28T13:45:44Z</time></trkpt><trkpt lat="46.21377065397564" lon="13.407013503205327"><ele>507.99999999999994</ele><time>2026-03-28T13:45:45Z</time></trkpt><trkpt lat="46.21367213892524" lon="13.407104468000755"><ele>510.0</ele><time>2026-03-28T13:45:46Z</time></trkpt><trkpt lat="46.213588994755675" lon="13.407150273909892"><ele>512.0</ele><time>2026-03-28T13:45:47Z</time></trkpt><trkpt lat="46.213504353215576" lon="13.407172292390067"><ele>514.0</ele><time>2026-03-28T13:45:48Z</time></trkpt><trkpt lat="46.21343237518143" lon="13.40716728637293"><ele>516.0</ele><time>2026-03-28T13:45:49Z</time></trkpt><trkpt lat="46.213373670154084" lon="13.407126046958547"><ele>518.0</ele><time>2026-03-28T13:45:50Z</time></trkpt><trkpt lat="46.21334354705764" lon="13.407044647509636"><ele>518.0</ele><time>2026-03-28T13:45:51Z</time></trkpt><trkpt lat="46.213312260618814" lon="13.406890894440744"><ele>518.0</ele><time>2026-03-28T13:45:52Z</time></trkpt><trkpt lat="46.21327763834496" lon="13.406681671416578"><ele>518.0</ele><time>2026-03-28T13:45:53Z</time></trkpt><trkpt lat="46.21325800971914" lon="13.40650779482096"><ele>518.0</ele><time>2026-03-28T13:45:54Z</time></trkpt><trkpt lat="46.21322595784885" lon="13.406412279907274"><ele>518.0</ele><time>2026-03-28T13:45:55Z</time></trkpt><trkpt lat="46.213172647746546" lon="13.406339748434418"><ele>518.0</ele><time>2026-03-28T13:45:56Z</time></trkpt><trkpt lat="46.21311307190906" lon="13.406252879308642"><ele>518.0</ele><time>2026-03-28T13:45:57Z</time></trkpt><trkpt lat="46.21304309038745" lon="13.406181152147315"><ele>518.0</ele><time>2026-03-28T13:45:58Z</time></trkpt><trkpt lat="46.212965389544834" lon="13.406107948353409"><ele>518.0</ele><time>2026-03-28T13:45:59Z</time></trkpt><trkpt lat="46.21286626825403" lon="13.406012494016244"><ele>521.8</ele><time>2026-03-28T13:46:00Z</time></trkpt><trkpt lat="46.21279837883897" lon="13.405887136214075"><ele>525.5999999999999</ele><time>2026-03-28T13:46:01Z</time></trkpt><trkpt lat="46.212755204897405" lon="13.405756493994254"><ele>529.4000000000001</ele><time>2026-03-28T13:46:02Z</time></trkpt><trkpt lat="46.21270711895497" lon="13.405641935312213"><ele>533.2</ele><time>2026-03-28T13:46:03Z</time></trkpt><trkpt lat="46.21265019125641" lon="13.40556428038476"><ele>537.0</ele><time>2026-03-28T13:46:04Z</time></trkpt><trkpt lat="46.21256991241863" lon="13.405529353743852"><ele>535.3333333333334</ele><time>2026-03-28T13:46:06Z</time></trkpt><trkpt lat="46.21249436116971" lon="13.405491474975836"><ele>533.6666666666666</ele><time>2026-03-28T13:46:07Z</time></trkpt><trkpt lat="46.21242063750851" lon="13.405444814194574"><ele>532.0</ele><time>2026-03-28T13:46:08Z</time></trkpt><trkpt lat="46.21237582329199" lon="13.405360609612325"><ele>530.3333333333333</ele><time>2026-03-28T13:46:09Z</time></trkpt><trkpt lat="46.21236492178363" lon="13.405183514584678"><ele>528.6666666666666</ele><time>2026-03-28T13:46:11Z</time></trkpt><trkpt lat="46.21239758068421" lon="13.405095887712392"><ele>527.0</ele><time>2026-03-28T13:46:12Z</time></trkpt><trkpt lat="46.212462166197774" lon="13.404981442802985"><ele>527.0</ele><time>2026-03-28T13:46:13Z</time></trkpt><trkpt lat="46.212527277931855" lon="13.404883545902234"><ele>527.0</ele><time>2026-03-28T13:46:14Z</time></trkpt><trkpt lat="46.21256666741804" lon="13.404725113496946"><ele>527.0</ele><time>2026-03-28T13:46:16Z</time></trkpt><trkpt lat="46.2125413284068" lon="13.404618273477755"><ele>527.0</ele><time>2026-03-28T13:46:17Z</time></trkpt><trkpt lat="46.21248575036119" lon="13.404472255261815"><ele>527.0</ele><time>2026-03-28T13:46:18Z</time></trkpt><trkpt lat="46.212424080394875" lon="13.404307045571528"><ele>525.75</ele><time>2026-03-28T13:46:19Z</time></trkpt><trkpt lat="46.212344804595666" lon="13.404153314729088"><ele>524.5</ele><time>2026-03-28T13:46:20Z</time></trkpt><trkpt lat="46.21229719358712" lon="13.404002287649627"><ele>523.25</ele><time>2026-03-28T13:46:21Z</time></trkpt><trkpt lat="46.212228734816655" lon="13.403836677988851"><ele>522.0</ele><time>2026-03-28T13:46:22Z</time></trkpt><trkpt lat="46.2121744148658" lon="13.403675751746421"><ele>527.0</ele><time>2026-03-28T13:46:23Z</time></trkpt><trkpt lat="46.21213696350593" lon="13.40352064327084"><ele>532.0</ele><time>2026-03-28T13:46:24Z</time></trkpt><trkpt lat="46.21210483729159" lon="13.403377272627912"><ele>537.0</ele><time>2026-03-28T13:46:25Z</time></trkpt><trkpt lat="46.212080578396666" lon="13.403255447352635"><ele>542.0</ele><time>2026-03-28T13:46:26Z</time></trkpt><trkpt lat="46.21199741593757" lon="13.403152967490854"><ele>547.0</ele><time>2026-03-28T13:46:27Z</time></trkpt><trkpt lat="46.21190701763773" lon="13.403025061320553"><ele>543.2</ele><time>2026-03-28T13:46:28Z</time></trkpt><trkpt lat="46.21182763889046" lon="13.402897971853436"><ele>539.4000000000001</ele><time>2026-03-28T13:46:29Z</time></trkpt><trkpt lat="46.21178805690964" lon="13.402765759864195"><ele>535.5999999999999</ele><time>2026-03-28T13:46:30Z</time></trkpt><trkpt lat="46.21174132706374" lon="13.402661618727029"><ele>531.8</ele><time>2026-03-28T13:46:31Z</time></trkpt><trkpt lat="46.21167556816339" lon="13.402587542026014"><ele>528.0</ele><time>2026-03-28T13:46:33Z</time></trkpt><trkpt lat="46.21161644838123" lon="13.402474490081406"><ele>528.0</ele><time>2026-03-28T13:46:36Z</time></trkpt><trkpt lat="46.21155739975173" lon="13.402423954332392"><ele>528.0</ele><time>2026-03-28T13:46:39Z</time></trkpt><trkpt lat="46.21151423610229" lon="13.402341071897784"><ele>528.0</ele><time>2026-03-28T13:48:37Z</time></trkpt><trkpt lat="46.21157859267385" lon="13.40236604309657"><ele>528.0</ele><time>2026-03-28T14:11:11Z</time></trkpt><trkpt lat="46.211504173256124" lon="13.40231076699606"><ele>528.0</ele><time>2026-03-28T14:11:33.999Z</time></trkpt><trkpt lat="46.211502678673526" lon="13.40221613621271"><ele>528.0</ele><time>2026-03-28T14:13:21.999Z</time></trkpt><trkpt lat="46.21143862664165" lon="13.402178254669135"><ele>528.0</ele><time>2026-03-28T14:18:30Z</time></trkpt><trkpt lat="46.211398690449684" lon="13.40210336645946"><ele>532.7142857142857</ele><time>2026-03-28T14:18:37Z</time></trkpt><trkpt lat="46.21135712339121" lon="13.402028542332902"><ele>537.4285714285714</ele><time>2026-03-28T14:18:41Z</time></trkpt><trkpt lat="46.21131140939094" lon="13.401960292179583"><ele>542.1428571428571</ele><time>2026-03-28T14:18:46Z</time></trkpt><trkpt lat="46.21127286079258" lon="13.401885010076546"><ele>546.8571428571429</ele><time>2026-03-28T14:19:26Z</time></trkpt><trkpt lat="46.21123112487799" lon="13.401815034939695"><ele>551.5714285714286</ele><time>2026-03-28T14:19:45Z</time></trkpt><trkpt lat="46.21120151747143" lon="13.40171776914293"><ele>556.2857142857142</ele><time>2026-03-28T14:22:59Z</time></trkpt><trkpt lat="46.211162464724495" lon="13.401621996818944"><ele>561.0</ele><time>2026-03-28T14:23:14Z</time></trkpt><trkpt lat="46.21111097976373" lon="13.401540265980922"><ele>561.0</ele><time>2026-03-28T14:23:16Z</time></trkpt><trkpt lat="46.21105550469017" lon="13.401455241814684"><ele>561.0</ele><time>2026-03-28T14:23:18Z</time></trkpt><trkpt lat="46.2109886898938" lon="13.401299374265685"><ele>561.0</ele><time>2026-03-28T14:23:20Z</time></trkpt><trkpt lat="46.21094258057573" lon="13.40119150729768"><ele>561.0</ele><time>2026-03-28T14:23:21Z</time></trkpt><trkpt lat="46.21084529274405" lon="13.401111263116272"><ele>561.0</ele><time>2026-03-28T14:23:22Z</time></trkpt><trkpt lat="46.21073745779806" lon="13.40103320964041"><ele>562.3333333333334</ele><time>2026-03-28T14:23:23Z</time></trkpt><trkpt lat="46.21072478906944" lon="13.400915156624373"><ele>563.6666666666666</ele><time>2026-03-28T14:23:25Z</time></trkpt><trkpt lat="46.210651794507406" lon="13.400811721244741"><ele>565.0</ele><time>2026-03-28T14:23:27Z</time></trkpt><trkpt lat="46.21060681330831" lon="13.40090561921987"><ele>566.3333333333333</ele><time>2026-03-28T14:23:30Z</time></trkpt><trkpt lat="46.21067047925915" lon="13.400971363418062"><ele>567.6666666666666</ele><time>2026-03-28T14:23:32Z</time></trkpt><trkpt lat="46.21074303949604" lon="13.401032131458667"><ele>569.0</ele><time>2026-03-28T14:23:33Z</time></trkpt><trkpt lat="46.21080428553295" lon="13.401112317109353"><ele>567.6666666666666</ele><time>2026-03-28T14:23:34Z</time></trkpt><trkpt lat="46.210832118030346" lon="13.40119508297587"><ele>566.3333333333333</ele><time>2026-03-28T14:23:35Z</time></trkpt><trkpt lat="46.21085269298858" lon="13.401293412392079"><ele>565.0</ele><time>2026-03-28T14:23:36Z</time></trkpt><trkpt lat="46.210881023443044" lon="13.401406573083523"><ele>563.6666666666666</ele><time>2026-03-28T14:23:37Z</time></trkpt><trkpt lat="46.21091772308924" lon="13.40153458929555"><ele>562.3333333333334</ele><time>2026-03-28T14:23:38Z</time></trkpt><trkpt lat="46.21097122240755" lon="13.401665455013397"><ele>561.0</ele><time>2026-03-28T14:23:39Z</time></trkpt><trkpt lat="46.211009932363204" lon="13.401804874216209"><ele>561.0</ele><time>2026-03-28T14:23:40Z</time></trkpt><trkpt lat="46.21104712937815" lon="13.401955569969406"><ele>561.0</ele><time>2026-03-28T14:23:41Z</time></trkpt><trkpt lat="46.21109393078244" lon="13.402099472040677"><ele>561.0</ele><time>2026-03-28T14:23:42Z</time></trkpt><trkpt lat="46.21114430353287" lon="13.402249158593841"><ele>561.0</ele><time>2026-03-28T14:23:43Z</time></trkpt><trkpt lat="46.21118811817383" lon="13.402406210213885"><ele>563.0</ele><time>2026-03-28T14:23:44Z</time></trkpt><trkpt lat="46.21120903065609" lon="13.402566737856777"><ele>565.0</ele><time>2026-03-28T14:23:45Z</time></trkpt><trkpt lat="46.211223049017015" lon="13.402748880776539"><ele>567.0</ele><time>2026-03-28T14:23:46Z</time></trkpt><trkpt lat="46.21124317569869" lon="13.40293930940883"><ele>569.0</ele><time>2026-03-28T14:23:47Z</time></trkpt><trkpt lat="46.21126606267157" lon="13.403106833795013"><ele>569.75</ele><time>2026-03-28T14:23:48Z</time></trkpt><trkpt lat="46.21131773876102" lon="13.40326420679827"><ele>570.5</ele><time>2026-03-28T14:23:49Z</time></trkpt><trkpt lat="46.21139697160828" lon="13.403422444694115"><ele>571.25</ele><time>2026-03-28T14:23:50Z</time></trkpt><trkpt lat="46.21147439831346" lon="13.403585175926986"><ele>572.0</ele><time>2026-03-28T14:23:51Z</time></trkpt><trkpt lat="46.21153552295933" lon="13.403756577459896"><ele>570.8000000000001</ele><time>2026-03-28T14:23:52Z</time></trkpt><trkpt lat="46.2115859263822" lon="13.403924310994489"><ele>569.6</ele><time>2026-03-28T14:23:53Z</time></trkpt><trkpt lat="46.21163758616037" lon="13.404086844724569"><ele>568.4000000000001</ele><time>2026-03-28T14:23:54Z</time></trkpt><trkpt lat="46.21165930381426" lon="13.404221298069134"><ele>567.2</ele><time>2026-03-28T14:23:55Z</time></trkpt><trkpt lat="46.21166105129675" lon="13.404332703030475"><ele>566.0</ele><time>2026-03-28T14:23:56Z</time></trkpt><trkpt lat="46.21165205977872" lon="13.404451544818835"><ele>566.0</ele><time>2026-03-28T14:23:57Z</time></trkpt><trkpt lat="46.211645696569676" lon="13.404554890723224"><ele>566.0</ele><time>2026-03-28T14:23:58Z</time></trkpt><trkpt lat="46.211607534195835" lon="13.404705545896832"><ele>566.0</ele><time>2026-03-28T14:24:00Z</time></trkpt><trkpt lat="46.211554001455006" lon="13.404827669028913"><ele>566.0</ele><time>2026-03-28T14:24:02Z</time></trkpt><trkpt lat="46.211480961276315" lon="13.404938388116248"><ele>566.0</ele><time>2026-03-28T14:24:04Z</time></trkpt><trkpt lat="46.2113962939108" lon="13.405015200397207"><ele>567.4</ele><time>2026-03-28T14:24:06Z</time></trkpt><trkpt lat="46.21130301171393" lon="13.405061269663879"><ele>568.8</ele><time>2026-03-28T14:24:08Z</time></trkpt><trkpt lat="46.21120933863128" lon="13.405079619894083"><ele>570.1999999999999</ele><time>2026-03-28T14:24:10Z</time></trkpt><trkpt lat="46.211139858389075" lon="13.405045576828462"><ele>571.6</ele><time>2026-03-28T14:24:12Z</time></trkpt><trkpt lat="46.21104064556366" lon="13.404993032268035"><ele>573.0</ele><time>2026-03-28T14:24:14Z</time></trkpt><trkpt lat="46.21092461231122" lon="13.404959854388643"><ele>573.0</ele><time>2026-03-28T14:24:16Z</time></trkpt><trkpt lat="46.21086192699263" lon="13.404942312241364"><ele>573.0</ele><time>2026-03-28T14:24:17Z</time></trkpt><trkpt lat="46.21079955464596" lon="13.404905192358536"><ele>573.0</ele><time>2026-03-28T14:24:18Z</time></trkpt><trkpt lat="46.210725535541" lon="13.404864949267429"><ele>573.0</ele><time>2026-03-28T14:24:19Z</time></trkpt><trkpt lat="46.21066638903679" lon="13.404798541796621"><ele>573.0</ele><time>2026-03-28T14:24:20Z</time></trkpt><trkpt lat="46.210613727527864" lon="13.40471118434568"><ele>573.0</ele><time>2026-03-28T14:24:21Z</time></trkpt><trkpt lat="46.2105505995983" lon="13.404614862544445"><ele>576.0</ele><time>2026-03-28T14:24:22Z</time></trkpt><trkpt lat="46.21048347227292" lon="13.404491321445589"><ele>579.0</ele><time>2026-03-28T14:24:23Z</time></trkpt><trkpt lat="46.21041085905499" lon="13.404354122185275"><ele>582.0</ele><time>2026-03-28T14:24:24Z</time></trkpt><trkpt lat="46.21033320266616" lon="13.40421310737303"><ele>585.0</ele><time>2026-03-28T14:24:25Z</time></trkpt><trkpt lat="46.2102494380311" lon="13.404072482249056"><ele>585.0</ele><time>2026-03-28T14:24:26Z</time></trkpt><trkpt lat="46.210185717684865" lon="13.403978571603346"><ele>585.0</ele><time>2026-03-28T14:24:27Z</time></trkpt><trkpt lat="46.210121646600555" lon="13.403916964633616"><ele>585.0</ele><time>2026-03-28T14:24:28Z</time></trkpt><trkpt lat="46.210002395855525" lon="13.403955535703384"><ele>585.0</ele><time>2026-03-28T14:24:30Z</time></trkpt><trkpt lat="46.20994607420514" lon="13.404039179606864"><ele>585.0</ele><time>2026-03-28T14:24:31Z</time></trkpt><trkpt lat="46.20990732907127" lon="13.404153091697715"><ele>585.0</ele><time>2026-03-28T14:24:32Z</time></trkpt><trkpt lat="46.20986950731781" lon="13.404362645908428"><ele>585.0</ele><time>2026-03-28T14:24:33Z</time></trkpt><trkpt lat="46.20981401446456" lon="13.404557475335714"><ele>585.0</ele><time>2026-03-28T14:24:34Z</time></trkpt><trkpt lat="46.209755958972885" lon="13.40475397508422"><ele>585.0</ele><time>2026-03-28T14:24:35Z</time></trkpt><trkpt lat="46.20971782129427" lon="13.40493753887035"><ele>594.25</ele><time>2026-03-28T14:24:36Z</time></trkpt><trkpt lat="46.20969086038474" lon="13.405110404631904"><ele>603.5</ele><time>2026-03-28T14:24:37Z</time></trkpt><trkpt lat="46.20966974481643" lon="13.4052715154657"><ele>612.75</ele><time>2026-03-28T14:24:38Z</time></trkpt><trkpt lat="46.20967342456483" lon="13.40544832085446"><ele>622.0</ele><time>2026-03-28T14:24:39Z</time></trkpt><trkpt lat="46.20969183980337" lon="13.40562393441277"><ele>622.5</ele><time>2026-03-28T14:24:40Z</time></trkpt><trkpt lat="46.20973492418102" lon="13.405807566048278"><ele>623.0</ele><time>2026-03-28T14:24:41Z</time></trkpt><trkpt lat="46.20977547736444" lon="13.405990321889817"><ele>623.5</ele><time>2026-03-28T14:24:42Z</time></trkpt><trkpt lat="46.20983984051971" lon="13.406167254984405"><ele>624.0</ele><time>2026-03-28T14:24:43Z</time></trkpt><trkpt lat="46.209898008735756" lon="13.406331730816904"><ele>617.5</ele><time>2026-03-28T14:24:44Z</time></trkpt><trkpt lat="46.20995798536948" lon="13.406488213335468"><ele>611.0</ele><time>2026-03-28T14:24:45Z</time></trkpt><trkpt lat="46.210029879885425" lon="13.406643913882812"><ele>604.5</ele><time>2026-03-28T14:24:46Z</time></trkpt><trkpt lat="46.210112810127676" lon="13.406789327862514"><ele>598.0</ele><time>2026-03-28T14:24:47Z</time></trkpt><trkpt lat="46.2101974472743" lon="13.406932884796742"><ele>598.0</ele><time>2026-03-28T14:24:48Z</time></trkpt><trkpt lat="46.21028722639715" lon="13.407068736245456"><ele>598.0</ele><time>2026-03-28T14:24:49Z</time></trkpt><trkpt lat="46.21036023683797" lon="13.407185963604721"><ele>598.0</ele><time>2026-03-28T14:24:50Z</time></trkpt><trkpt lat="46.21045248096967" lon="13.407260229297515"><ele>598.0</ele><time>2026-03-28T14:24:51Z</time></trkpt><trkpt lat="46.21056360971633" lon="13.407296908313347"><ele>600.5</ele><time>2026-03-28T14:24:52Z</time></trkpt><trkpt lat="46.21069594265792" lon="13.407349776413078"><ele>603.0</ele><time>2026-03-28T14:24:53Z</time></trkpt><trkpt lat="46.210819629129944" lon="13.407405683200732"><ele>605.5</ele><time>2026-03-28T14:24:54Z</time></trkpt><trkpt lat="46.21094962273143" lon="13.407417373064932"><ele>608.0</ele><time>2026-03-28T14:24:55Z</time></trkpt><trkpt lat="46.21108635252634" lon="13.407418855881629"><ele>608.0</ele><time>2026-03-28T14:24:56Z</time></trkpt><trkpt lat="46.21121616119081" lon="13.40742145261855"><ele>608.0</ele><time>2026-03-28T14:24:56.999Z</time></trkpt><trkpt lat="46.21133773744319" lon="13.407419216632636"><ele>608.0</ele><time>2026-03-28T14:24:57.999Z</time></trkpt><trkpt lat="46.21143228655961" lon="13.407377604271186"><ele>608.0</ele><time>2026-03-28T14:24:58.999Z</time></trkpt><trkpt lat="46.2115088073446" lon="13.407314613977423"><ele>608.0</ele><time>2026-03-28T14:24:59.999Z</time></trkpt><trkpt lat="46.211568729727496" lon="13.407263199330895"><ele>607.3333333333333</ele><time>2026-03-28T14:25:00.999Z</time></trkpt><trkpt lat="46.2116279187275" lon="13.407305789732131"><ele>606.6666666666666</ele><time>2026-03-28T14:25:02.999Z</time></trkpt><trkpt lat="46.21166036472877" lon="13.40745839351922"><ele>606.0</ele><time>2026-03-28T14:25:04.999Z</time></trkpt><trkpt lat="46.21167320418384" lon="13.407562798536537"><ele>605.3333333333334</ele><time>2026-03-28T14:25:05.999Z</time></trkpt><trkpt lat="46.2116888146365" lon="13.407678378040092"><ele>604.6666666666667</ele><time>2026-03-28T14:25:06.999Z</time></trkpt><trkpt lat="46.21172093721988" lon="13.407789529613305"><ele>604.0</ele><time>2026-03-28T14:25:07.999Z</time></trkpt><trkpt lat="46.211775370240055" lon="13.407896148357937"><ele>608.6</ele><time>2026-03-28T14:25:08.999Z</time></trkpt><trkpt lat="46.21181481608359" lon="13.408001111191904"><ele>613.2</ele><time>2026-03-28T14:25:09.999Z</time></trkpt><trkpt lat="46.21181961915613" lon="13.408126877063218"><ele>617.8000000000001</ele><time>2026-03-28T14:25:10.999Z</time></trkpt><trkpt lat="46.21183562477956" lon="13.408269847512065"><ele>622.4</ele><time>2026-03-28T14:25:11.999Z</time></trkpt><trkpt lat="46.21184514104531" lon="13.408405364343377"><ele>627.0</ele><time>2026-03-28T14:25:12.999Z</time></trkpt><trkpt lat="46.21186154087949" lon="13.408547868428586"><ele>627.0</ele><time>2026-03-28T14:25:13.999Z</time></trkpt><trkpt lat="46.21186837931895" lon="13.408675055549228"><ele>627.0</ele><time>2026-03-28T14:25:14.999Z</time></trkpt><trkpt lat="46.2118754300933" lon="13.408793319527515"><ele>627.0</ele><time>2026-03-28T14:25:15.999Z</time></trkpt><trkpt lat="46.211860406153804" lon="13.408919399993493"><ele>627.0</ele><time>2026-03-28T14:25:16.999Z</time></trkpt><trkpt lat="46.21183344817576" lon="13.409050104889005"><ele>627.0</ele><time>2026-03-28T14:25:17.999Z</time></trkpt><trkpt lat="46.211820904874905" lon="13.409183991860722"><ele>627.0</ele><time>2026-03-28T14:25:18.999Z</time></trkpt><trkpt lat="46.21183784519594" lon="13.409330375061153"><ele>628.1666666666666</ele><time>2026-03-28T14:25:19.999Z</time></trkpt><trkpt lat="46.21183554138137" lon="13.409460665599445"><ele>629.3333333333334</ele><time>2026-03-28T14:25:20.999Z</time></trkpt><trkpt lat="46.211842094909585" lon="13.409578073730163"><ele>630.5</ele><time>2026-03-28T14:25:21.999Z</time></trkpt><trkpt lat="46.211825511968684" lon="13.409697870892979"><ele>631.6666666666667</ele><time>2026-03-28T14:25:22.999Z</time></trkpt><trkpt lat="46.21180770225761" lon="13.409825552283491"><ele>632.8333333333334</ele><time>2026-03-28T14:25:23.999Z</time></trkpt><trkpt lat="46.21176221298285" lon="13.409953519036796"><ele>634.0</ele><time>2026-03-28T14:25:24.999Z</time></trkpt><trkpt lat="46.21173426772422" lon="13.410100635853025"><ele>634.0</ele><time>2026-03-28T14:25:25.999Z</time></trkpt><trkpt lat="46.211709759724016" lon="13.410244455343118"><ele>634.0</ele><time>2026-03-28T14:25:26.999Z</time></trkpt><trkpt lat="46.21168829668531" lon="13.410403458063735"><ele>634.0</ele><time>2026-03-28T14:25:27.999Z</time></trkpt><trkpt lat="46.21166968067636" lon="13.41056172680829"><ele>634.0</ele><time>2026-03-28T14:25:28.999Z</time></trkpt><trkpt lat="46.2116284395678" lon="13.410693295727135"><ele>634.0</ele><time>2026-03-28T14:25:29.999Z</time></trkpt><trkpt lat="46.21158055087963" lon="13.410823880439052"><ele>632.6</ele><time>2026-03-28T14:25:30.999Z</time></trkpt><trkpt lat="46.21153326762019" lon="13.410962686130548"><ele>631.2</ele><time>2026-03-28T14:25:31.999Z</time></trkpt><trkpt lat="46.21145099533087" lon="13.411093951516294"><ele>629.8000000000001</ele><time>2026-03-28T14:25:32.999Z</time></trkpt><trkpt lat="46.211385416015055" lon="13.411209295676956"><ele>628.4</ele><time>2026-03-28T14:25:33.999Z</time></trkpt><trkpt lat="46.2113418502745" lon="13.411340180500762"><ele>627.0</ele><time>2026-03-28T14:25:34.999Z</time></trkpt><trkpt lat="46.211314692624605" lon="13.411475500354435"><ele>632.6</ele><time>2026-03-28T14:25:35.999Z</time></trkpt><trkpt lat="46.21128030863453" lon="13.41160860844571"><ele>638.2</ele><time>2026-03-28T14:25:36.999Z</time></trkpt><trkpt lat="46.21125554492395" lon="13.41174561422083"><ele>643.8</ele><time>2026-03-28T14:25:37.999Z</time></trkpt><trkpt lat="46.21123439428481" lon="13.411898737335331"><ele>649.4</ele><time>2026-03-28T14:25:38.999Z</time></trkpt><trkpt lat="46.21121408525815" lon="13.412047575036118"><ele>655.0</ele><time>2026-03-28T14:25:39.999Z</time></trkpt><trkpt lat="46.21121529772858" lon="13.412164677904974"><ele>655.0</ele><time>2026-03-28T14:25:40.999Z</time></trkpt><trkpt lat="46.211127277403364" lon="13.412306059951574"><ele>655.0</ele><time>2026-03-28T14:25:41.999Z</time></trkpt><trkpt lat="46.21116020832388" lon="13.412438193623116"><ele>655.0</ele><time>2026-03-28T14:25:43.999Z</time></trkpt><trkpt lat="46.211130884701056" lon="13.412341279619188"><ele>655.0</ele><time>2026-03-28T14:32:35Z</time></trkpt><trkpt lat="46.21110854823028" lon="13.412240721135424"><ele>655.0</ele><time>2026-03-28T14:32:36Z</time></trkpt><trkpt lat="46.21110821150508" lon="13.412119704731138"><ele>655.0</ele><time>2026-03-28T14:32:37Z</time></trkpt><trkpt lat="46.211098696200004" lon="13.411999980019171"><ele>655.0</ele><time>2026-03-28T14:32:38Z</time></trkpt><trkpt lat="46.211096574692775" lon="13.411858971861477"><ele>655.0</ele><time>2026-03-28T14:32:39Z</time></trkpt><trkpt lat="46.21107623553274" lon="13.411664257492799"><ele>655.0</ele><time>2026-03-28T14:32:40Z</time></trkpt><trkpt lat="46.2110598965522" lon="13.411513299565911"><ele>655.0</ele><time>2026-03-28T14:32:41Z</time></trkpt><trkpt lat="46.21102600978512" lon="13.411366557359958"><ele>655.75</ele><time>2026-03-28T14:32:42Z</time></trkpt><trkpt lat="46.21106561751511" lon="13.411209918339217"><ele>656.5</ele><time>2026-03-28T14:32:43Z</time></trkpt><trkpt lat="46.21108577984016" lon="13.411056184994429"><ele>657.25</ele><time>2026-03-28T14:32:44Z</time></trkpt><trkpt lat="46.21109736272439" lon="13.410896476259344"><ele>658.0</ele><time>2026-03-28T14:32:45Z</time></trkpt><trkpt lat="46.2110617079357" lon="13.410732972877044"><ele>658.0</ele><time>2026-03-28T14:32:46Z</time></trkpt><trkpt lat="46.21103460208959" lon="13.410607548460803"><ele>658.0</ele><time>2026-03-28T14:32:47Z</time></trkpt><trkpt lat="46.21100662500207" lon="13.41051414619804"><ele>658.0</ele><time>2026-03-28T14:32:48Z</time></trkpt><trkpt lat="46.210988415205755" lon="13.41041804079812"><ele>658.0</ele><time>2026-03-28T14:32:49Z</time></trkpt><trkpt lat="46.21093564227269" lon="13.410336534577558"><ele>658.0</ele><time>2026-03-28T14:32:50Z</time></trkpt><trkpt lat="46.21087694432987" lon="13.410249656062865"><ele>658.0</ele><time>2026-03-28T14:32:51Z</time></trkpt><trkpt lat="46.21079896144637" lon="13.410227747235936"><ele>658.2</ele><time>2026-03-28T14:32:52Z</time></trkpt><trkpt lat="46.21074990492501" lon="13.410160828449103"><ele>658.4</ele><time>2026-03-28T14:32:53Z</time></trkpt><trkpt lat="46.21068178636205" lon="13.41007672050632"><ele>658.6</ele><time>2026-03-28T14:32:54Z</time></trkpt><trkpt lat="46.21061842409805" lon="13.409945821549773"><ele>658.8000000000001</ele><time>2026-03-28T14:32:55Z</time></trkpt><trkpt lat="46.21057200956614" lon="13.4097902368803"><ele>659.0</ele><time>2026-03-28T14:32:56Z</time></trkpt><trkpt lat="46.210519894429446" lon="13.409602097434805"><ele>658.5</ele><time>2026-03-28T14:32:57Z</time></trkpt><trkpt lat="46.21047960733959" lon="13.409396862931567"><ele>658.0</ele><time>2026-03-28T14:32:58Z</time></trkpt><trkpt lat="46.21040295453709" lon="13.409233156165406"><ele>657.5</ele><time>2026-03-28T14:32:59Z</time></trkpt><trkpt lat="46.210327695499956" lon="13.409108403565636"><ele>657.0</ele><time>2026-03-28T14:33:00Z</time></trkpt><trkpt lat="46.21026647605422" lon="13.409024871932695"><ele>657.0</ele><time>2026-03-28T14:33:01Z</time></trkpt><trkpt lat="46.21019279011646" lon="13.408901305395785"><ele>657.0</ele><time>2026-03-28T14:33:02Z</time></trkpt><trkpt lat="46.21012863806125" lon="13.408791198336685"><ele>657.0</ele><time>2026-03-28T14:33:03Z</time></trkpt><trkpt lat="46.210070816309056" lon="13.40868790574617"><ele>657.0</ele><time>2026-03-28T14:33:04Z</time></trkpt><trkpt lat="46.21000144984876" lon="13.408605997233353"><ele>657.0</ele><time>2026-03-28T14:33:05Z</time></trkpt><trkpt lat="46.20992756459273" lon="13.4085158387064"><ele>656.0</ele><time>2026-03-28T14:33:06Z</time></trkpt><trkpt lat="46.20984571660323" lon="13.408455904156497"><ele>655.0</ele><time>2026-03-28T14:33:07Z</time></trkpt><trkpt lat="46.20974394110641" lon="13.408400335880996"><ele>654.0</ele><time>2026-03-28T14:33:08Z</time></trkpt><trkpt lat="46.209629963722676" lon="13.408350729959958"><ele>653.0</ele><time>2026-03-28T14:33:09Z</time></trkpt><trkpt lat="46.20951765739925" lon="13.408270593572833"><ele>652.0</ele><time>2026-03-28T14:33:10Z</time></trkpt><trkpt lat="46.20941774682015" lon="13.408173449819484"><ele>652.0</ele><time>2026-03-28T14:33:11Z</time></trkpt><trkpt lat="46.20930331310482" lon="13.408075794813092"><ele>652.0</ele><time>2026-03-28T14:33:12Z</time></trkpt><trkpt lat="46.20916702854984" lon="13.40799410185297"><ele>652.0</ele><time>2026-03-28T14:33:13Z</time></trkpt><trkpt lat="46.20902821220441" lon="13.407960409951345"><ele>652.0</ele><time>2026-03-28T14:33:14Z</time></trkpt><trkpt lat="46.20892326365559" lon="13.407890874435239"><ele>650.8</ele><time>2026-03-28T14:33:15Z</time></trkpt><trkpt lat="46.20883805325209" lon="13.407828837387815"><ele>649.6</ele><time>2026-03-28T14:33:16Z</time></trkpt><trkpt lat="46.208775391619014" lon="13.407747053461184"><ele>648.4</ele><time>2026-03-28T14:33:17Z</time></trkpt><trkpt lat="46.20871413163251" lon="13.40765013174074"><ele>647.1999999999999</ele><time>2026-03-28T14:33:18Z</time></trkpt><trkpt lat="46.20863439265282" lon="13.407531650237576"><ele>646.0</ele><time>2026-03-28T14:33:19Z</time></trkpt><trkpt lat="46.20854202955773" lon="13.407401505602044"><ele>646.0</ele><time>2026-03-28T14:33:20Z</time></trkpt><trkpt lat="46.208441972163264" lon="13.407261527251805"><ele>646.0</ele><time>2026-03-28T14:33:21.001Z</time></trkpt><trkpt lat="46.20833920701565" lon="13.407120589411955"><ele>646.0</ele><time>2026-03-28T14:33:22.001Z</time></trkpt><trkpt lat="46.20824423468476" lon="13.406959705998409"><ele>646.0</ele><time>2026-03-28T14:33:23.001Z</time></trkpt><trkpt lat="46.20816598528514" lon="13.406779324737968"><ele>645.75</ele><time>2026-03-28T14:33:24.001Z</time></trkpt><trkpt lat="46.20813113544375" lon="13.406612192122315"><ele>645.5</ele><time>2026-03-28T14:33:25.001Z</time></trkpt><trkpt lat="46.20809899082318" lon="13.40643030309504"><ele>645.25</ele><time>2026-03-28T14:33:26.001Z</time></trkpt><trkpt lat="46.208043583002706" lon="13.40624536424081"><ele>645.0</ele><time>2026-03-28T14:33:27.001Z</time></trkpt><trkpt lat="46.20800899450003" lon="13.406072060864476"><ele>644.25</ele><time>2026-03-28T14:33:28.001Z</time></trkpt><trkpt lat="46.207954505816474" lon="13.40593142330515"><ele>643.5</ele><time>2026-03-28T14:33:29.001Z</time></trkpt><trkpt lat="46.207874561029975" lon="13.405792406702538"><ele>642.75</ele><time>2026-03-28T14:33:30.001Z</time></trkpt><trkpt lat="46.20777213415092" lon="13.405699940294989"><ele>642.0</ele><time>2026-03-28T14:33:31.001Z</time></trkpt><trkpt lat="46.207649566177054" lon="13.405597277589962"><ele>642.0</ele><time>2026-03-28T14:33:32.001Z</time></trkpt><trkpt lat="46.20750958108524" lon="13.40551552768292"><ele>642.0</ele><time>2026-03-28T14:33:33.001Z</time></trkpt><trkpt lat="46.20741900679916" lon="13.405460354667483"><ele>642.0</ele><time>2026-03-28T14:33:34.001Z</time></trkpt><trkpt lat="46.20729204773926" lon="13.405375287119421"><ele>642.0</ele><time>2026-03-28T14:33:35.001Z</time></trkpt><trkpt lat="46.20716345915325" lon="13.405291949797347"><ele>641.25</ele><time>2026-03-28T14:33:36.001Z</time></trkpt><trkpt lat="46.20704617648806" lon="13.405224572731"><ele>640.5</ele><time>2026-03-28T14:33:37.001Z</time></trkpt><trkpt lat="46.206928079964236" lon="13.405176043866478"><ele>639.75</ele><time>2026-03-28T14:33:38Z</time></trkpt><trkpt lat="46.20678995962177" lon="13.405149342274433"><ele>639.0</ele><time>2026-03-28T14:33:39Z</time></trkpt><trkpt lat="46.20665431342573" lon="13.405132184192443"><ele>639.0</ele><time>2026-03-28T14:33:40Z</time></trkpt><trkpt lat="46.20651559035751" lon="13.405105090282797"><ele>639.0</ele><time>2026-03-28T14:33:41Z</time></trkpt><trkpt lat="46.20638033960336" lon="13.405061179432638"><ele>639.0</ele><time>2026-03-28T14:33:42Z</time></trkpt><trkpt lat="46.20627898118961" lon="13.404957017839376"><ele>639.0</ele><time>2026-03-28T14:33:43Z</time></trkpt><trkpt lat="46.2061786481396" lon="13.404838439681093"><ele>638.5</ele><time>2026-03-28T14:33:44Z</time></trkpt><trkpt lat="46.20607768955749" lon="13.404717168056987"><ele>638.0</ele><time>2026-03-28T14:33:45Z</time></trkpt><trkpt lat="46.205966696613935" lon="13.404612531136104"><ele>637.5</ele><time>2026-03-28T14:33:46Z</time></trkpt><trkpt lat="46.20583974377158" lon="13.404527915996665"><ele>637.0</ele><time>2026-03-28T14:33:47Z</time></trkpt><trkpt lat="46.20570421992508" lon="13.404450180194093"><ele>637.6666666666667</ele><time>2026-03-28T14:33:48Z</time></trkpt><trkpt lat="46.20555637127459" lon="13.404368768115253"><ele>638.3333333333334</ele><time>2026-03-28T14:33:49Z</time></trkpt><trkpt lat="46.205413526667165" lon="13.404282484387466"><ele>639.0</ele><time>2026-03-28T14:33:50Z</time></trkpt><trkpt lat="46.20527212214637" lon="13.40418798776087"><ele>639.0</ele><time>2026-03-28T14:33:51Z</time></trkpt><trkpt lat="46.20514009807123" lon="13.404066944919196"><ele>639.0</ele><time>2026-03-28T14:33:52Z</time></trkpt><trkpt lat="46.20502084887612" lon="13.40391242788426"><ele>639.0</ele><time>2026-03-28T14:33:53Z</time></trkpt><trkpt lat="46.204902214356146" lon="13.403774203255221"><ele>640.0</ele><time>2026-03-28T14:33:54Z</time></trkpt><trkpt lat="46.204776635444745" lon="13.403651844473483"><ele>641.0</ele><time>2026-03-28T14:33:55Z</time></trkpt><trkpt lat="46.20464521691681" lon="13.403557582113898"><ele>642.0</ele><time>2026-03-28T14:33:56Z</time></trkpt><trkpt lat="46.2045183862361" lon="13.403452924079213"><ele>643.0</ele><time>2026-03-28T14:33:57Z</time></trkpt><trkpt lat="46.204406623144166" lon="13.403326903553248"><ele>643.0</ele><time>2026-03-28T14:33:58Z</time></trkpt><trkpt lat="46.20430479143861" lon="13.403176963422244"><ele>643.0</ele><time>2026-03-28T14:33:59Z</time></trkpt><trkpt lat="46.20419589796782" lon="13.403040364141129"><ele>643.0</ele><time>2026-03-28T14:34:00Z</time></trkpt><trkpt lat="46.20408417592228" lon="13.402902545123567"><ele>643.0</ele><time>2026-03-28T14:34:01Z</time></trkpt><trkpt lat="46.203976364063166" lon="13.402770824966407"><ele>643.5</ele><time>2026-03-28T14:34:02Z</time></trkpt><trkpt lat="46.203854824907054" lon="13.402652348251593"><ele>644.0</ele><time>2026-03-28T14:34:03Z</time></trkpt><trkpt lat="46.20377320819186" lon="13.402515387812954"><ele>644.5</ele><time>2026-03-28T14:34:04Z</time></trkpt><trkpt lat="46.20364671208194" lon="13.402402228523906"><ele>645.0</ele><time>2026-03-28T14:34:05Z</time></trkpt><trkpt lat="46.20354172185628" lon="13.402259572124398"><ele>645.0</ele><time>2026-03-28T14:34:06Z</time></trkpt><trkpt lat="46.2034141636828" lon="13.402167143112845"><ele>645.0</ele><time>2026-03-28T14:34:07Z</time></trkpt><trkpt lat="46.20328653108648" lon="13.40207592890911"><ele>645.0</ele><time>2026-03-28T14:34:08Z</time></trkpt><trkpt lat="46.203153515973156" lon="13.4019865677019"><ele>645.0</ele><time>2026-03-28T14:34:09Z</time></trkpt><trkpt lat="46.203008736692006" lon="13.401926760298805"><ele>644.0</ele><time>2026-03-28T14:34:10Z</time></trkpt><trkpt lat="46.20286085666249" lon="13.401878741361351"><ele>643.0</ele><time>2026-03-28T14:34:11Z</time></trkpt><trkpt lat="46.20272165933177" lon="13.401853376313651"><ele>642.0</ele><time>2026-03-28T14:34:12Z</time></trkpt><trkpt lat="46.20258925401456" lon="13.401842748629045"><ele>641.0</ele><time>2026-03-28T14:34:13Z</time></trkpt><trkpt lat="46.20245359059507" lon="13.40186251666276"><ele>641.0</ele><time>2026-03-28T14:34:14Z</time></trkpt><trkpt lat="46.20233911556748" lon="13.40183831416415"><ele>641.0</ele><time>2026-03-28T14:34:15Z</time></trkpt><trkpt lat="46.20223437461683" lon="13.401837860177977"><ele>641.0</ele><time>2026-03-28T14:34:16Z</time></trkpt><trkpt lat="46.20215424855509" lon="13.40183751287981"><ele>641.0</ele><time>2026-03-28T14:34:17Z</time></trkpt><trkpt lat="46.20208007966206" lon="13.40183719140024"><ele>641.0</ele><time>2026-03-28T14:34:18Z</time></trkpt><trkpt lat="46.20201333578527" lon="13.40185378875332"><ele>641.0</ele><time>2026-03-28T14:34:20Z</time></trkpt><trkpt lat="46.202026785585765" lon="13.402109867796737"><ele>641.6666666666666</ele><time>2026-03-28T14:34:21Z</time></trkpt><trkpt lat="46.20206004021593" lon="13.402220536067455"><ele>642.3333333333333</ele><time>2026-03-28T14:34:22Z</time></trkpt><trkpt lat="46.20206676442576" lon="13.402334414517147"><ele>643.0</ele><time>2026-03-28T14:34:23Z</time></trkpt><trkpt lat="46.20208499604935" lon="13.402440833639082"><ele>643.6666666666666</ele><time>2026-03-28T14:34:24Z</time></trkpt><trkpt lat="46.20211032133061" lon="13.402552138234098"><ele>644.3333333333334</ele><time>2026-03-28T14:34:25Z</time></trkpt><trkpt lat="46.2021383319864" lon="13.402660555323054"><ele>645.0</ele><time>2026-03-28T14:34:26Z</time></trkpt><trkpt lat="46.202152488991125" lon="13.40277413945553"><ele>645.0</ele><time>2026-03-28T14:34:27Z</time></trkpt><trkpt lat="46.202176383631034" lon="13.402883780807546"><ele>645.0</ele><time>2026-03-28T14:34:28Z</time></trkpt><trkpt lat="46.20219151423361" lon="13.403000569354928"><ele>645.0</ele><time>2026-03-28T14:34:29Z</time></trkpt><trkpt lat="46.20222228721985" lon="13.403119920546361"><ele>645.0</ele><time>2026-03-28T14:34:30Z</time></trkpt><trkpt lat="46.20224130592748" lon="13.40323747512254"><ele>645.0</ele><time>2026-03-28T14:34:31Z</time></trkpt><trkpt lat="46.202276150411855" lon="13.403370550935453"><ele>645.0</ele><time>2026-03-28T14:34:32Z</time></trkpt><trkpt lat="46.20230961797984" lon="13.403492162997262"><ele>646.6</ele><time>2026-03-28T14:34:33Z</time></trkpt><trkpt lat="46.20233331583689" lon="13.40361400505753"><ele>648.2</ele><time>2026-03-28T14:34:34Z</time></trkpt><trkpt lat="46.202379091400395" lon="13.403744677019478"><ele>649.8</ele><time>2026-03-28T14:34:35Z</time></trkpt><trkpt lat="46.20240427789232" lon="13.403891834884456"><ele>651.4</ele><time>2026-03-28T14:34:36Z</time></trkpt><trkpt lat="46.20244766875888" lon="13.404000178578121"><ele>653.0</ele><time>2026-03-28T14:34:37Z</time></trkpt><trkpt lat="46.202479453884166" lon="13.404131868544855"><ele>654.4</ele><time>2026-03-28T14:34:38Z</time></trkpt><trkpt lat="46.202505026296215" lon="13.404273916747954"><ele>655.8</ele><time>2026-03-28T14:34:39Z</time></trkpt><trkpt lat="46.20254278006203" lon="13.40441709550902"><ele>657.2</ele><time>2026-03-28T14:34:40Z</time></trkpt><trkpt lat="46.20257907767933" lon="13.404560252654703"><ele>658.6</ele><time>2026-03-28T14:34:41Z</time></trkpt><trkpt lat="46.202604330287414" lon="13.404701897958766"><ele>660.0</ele><time>2026-03-28T14:34:42Z</time></trkpt><trkpt lat="46.20259704970461" lon="13.404827969111185"><ele>661.2</ele><time>2026-03-28T14:34:43Z</time></trkpt><trkpt lat="46.20256684184656" lon="13.404959034421292"><ele>662.4</ele><time>2026-03-28T14:34:44Z</time></trkpt><trkpt lat="46.202512613911196" lon="13.405089444912708"><ele>663.5999999999999</ele><time>2026-03-28T14:34:45Z</time></trkpt><trkpt lat="46.20248348739875" lon="13.405244874486575"><ele>664.8</ele><time>2026-03-28T14:34:46Z</time></trkpt><trkpt lat="46.20247307311556" lon="13.40541366268695"><ele>666.0</ele><time>2026-03-28T14:34:47Z</time></trkpt><trkpt lat="46.202450456276715" lon="13.405591162990856"><ele>667.5</ele><time>2026-03-28T14:34:48Z</time></trkpt><trkpt lat="46.202418185633" lon="13.405779348043176"><ele>669.0</ele><time>2026-03-28T14:34:49Z</time></trkpt><trkpt lat="46.20239258305641" lon="13.405978934801176"><ele>670.5</ele><time>2026-03-28T14:34:50Z</time></trkpt><trkpt lat="46.202335924428255" lon="13.406180200792459"><ele>672.0</ele><time>2026-03-28T14:34:51Z</time></trkpt><trkpt lat="46.20233615118002" lon="13.406396245144563"><ele>674.0</ele><time>2026-03-28T14:34:52Z</time></trkpt><trkpt lat="46.202340550370366" lon="13.406619703522491"><ele>676.0</ele><time>2026-03-28T14:34:53Z</time></trkpt><trkpt lat="46.20232925773903" lon="13.406856725656874"><ele>678.0</ele><time>2026-03-28T14:34:54Z</time></trkpt><trkpt lat="46.202299725560856" lon="13.407077229605628"><ele>681.5</ele><time>2026-03-28T14:34:55Z</time></trkpt><trkpt lat="46.202251171825196" lon="13.407253723676705"><ele>685.0</ele><time>2026-03-28T14:34:56Z</time></trkpt><trkpt lat="46.20223595030025" lon="13.407424015567896"><ele>688.5</ele><time>2026-03-28T14:34:57Z</time></trkpt><trkpt lat="46.20226163310698" lon="13.407615579125427"><ele>692.0</ele><time>2026-03-28T14:34:58Z</time></trkpt><trkpt lat="46.202309403390416" lon="13.407809710181262"><ele>691.8</ele><time>2026-03-28T14:34:59Z</time></trkpt><trkpt lat="46.20234956767411" lon="13.407997698968002"><ele>691.6</ele><time>2026-03-28T14:35:00Z</time></trkpt><trkpt lat="46.202341970747014" lon="13.408145373719133"><ele>691.4</ele><time>2026-03-28T14:35:01Z</time></trkpt><trkpt lat="46.20227697884749" lon="13.408251300405295"><ele>691.1999999999999</ele><time>2026-03-28T14:35:02Z</time></trkpt><trkpt lat="46.20218248979337" lon="13.408320611557825"><ele>691.0</ele><time>2026-03-28T14:35:03Z</time></trkpt><trkpt lat="46.202078156664314" lon="13.408447857089387"><ele>692.3333333333334</ele><time>2026-03-28T14:35:04Z</time></trkpt><trkpt lat="46.201983536648946" lon="13.408604129816332"><ele>693.6666666666666</ele><time>2026-03-28T14:35:05Z</time></trkpt><trkpt lat="46.201883154824664" lon="13.408766665088404"><ele>695.0</ele><time>2026-03-28T14:35:06Z</time></trkpt><trkpt lat="46.20176795522989" lon="13.408938384998619"><ele>697.3333333333333</ele><time>2026-03-28T14:35:07Z</time></trkpt><trkpt lat="46.201658332749524" lon="13.409114971840939"><ele>699.6666666666666</ele><time>2026-03-28T14:35:08Z</time></trkpt><trkpt lat="46.20154743890762" lon="13.409279803588028"><ele>702.0</ele><time>2026-03-28T14:35:09Z</time></trkpt><trkpt lat="46.20142443054311" lon="13.409448182292762"><ele>706.0</ele><time>2026-03-28T14:35:10Z</time></trkpt><trkpt lat="46.20131835471421" lon="13.409636262387593"><ele>710.0</ele><time>2026-03-28T14:35:11Z</time></trkpt><trkpt lat="46.20120383066958" lon="13.40981285685552"><ele>714.0</ele><time>2026-03-28T14:35:12Z</time></trkpt><trkpt lat="46.20110103536636" lon="13.409969270530537"><ele>715.0</ele><time>2026-03-28T14:35:13Z</time></trkpt><trkpt lat="46.20101026717439" lon="13.410098295521388"><ele>716.0</ele><time>2026-03-28T14:35:14Z</time></trkpt><trkpt lat="46.200905219267504" lon="13.410143530606838"><ele>717.0</ele><time>2026-03-28T14:35:15Z</time></trkpt><trkpt lat="46.2008042396623" lon="13.410194324436775"><ele>718.0</ele><time>2026-03-28T14:35:16Z</time></trkpt><trkpt lat="46.200695062729885" lon="13.410225139858088"><ele>721.0</ele><time>2026-03-28T14:35:17Z</time></trkpt><trkpt lat="46.20060135792139" lon="13.41020955289942"><ele>724.0</ele><time>2026-03-28T14:35:18Z</time></trkpt><trkpt lat="46.200528189480245" lon="13.410163288093235"><ele>727.0</ele><time>2026-03-28T14:35:19Z</time></trkpt><trkpt lat="46.200455416308124" lon="13.410086240177048"><ele>730.0</ele><time>2026-03-28T14:35:20Z</time></trkpt><trkpt lat="46.20037755785058" lon="13.410032348629704"><ele>733.0</ele><time>2026-03-28T14:35:21Z</time></trkpt><trkpt lat="46.20029083261477" lon="13.410009545633812"><ele>736.0</ele><time>2026-03-28T14:35:22Z</time></trkpt><trkpt lat="46.20018339291902" lon="13.41008192458287"><ele>736.0</ele><time>2026-03-28T14:35:23Z</time></trkpt><trkpt lat="46.20009711118235" lon="13.410075124300134"><ele>736.0</ele><time>2026-03-28T14:35:24Z</time></trkpt><trkpt lat="46.200026249222574" lon="13.410018829146463"><ele>736.0</ele><time>2026-03-28T14:35:25Z</time></trkpt><trkpt lat="46.199959385314216" lon="13.409975400930328"><ele>736.0</ele><time>2026-03-28T14:35:26Z</time></trkpt><trkpt lat="46.19992185737588" lon="13.409894865313985"><ele>736.0</ele><time>2026-03-28T14:35:26.999Z</time></trkpt><trkpt lat="46.19990327186609" lon="13.409795025775844"><ele>736.0</ele><time>2026-03-28T14:35:27.999Z</time></trkpt><trkpt lat="46.19987387416811" lon="13.409696837807354"><ele>740.5999999999999</ele><time>2026-03-28T14:35:28.999Z</time></trkpt><trkpt lat="46.19980914883" lon="13.409585231258307"><ele>745.2</ele><time>2026-03-28T14:35:30.999Z</time></trkpt><trkpt lat="46.199742020134195" lon="13.409592790896125"><ele>749.8</ele><time>2026-03-28T14:35:31.999Z</time></trkpt><trkpt lat="46.19967706192534" lon="13.409677665132822"><ele>754.4000000000001</ele><time>2026-03-28T14:35:32.999Z</time></trkpt><trkpt lat="46.199648499333016" lon="13.409802640628891"><ele>759.0</ele><time>2026-03-28T14:35:33.999Z</time></trkpt><trkpt lat="46.19962242984586" lon="13.409957345276144"><ele>759.0</ele><time>2026-03-28T14:35:34.999Z</time></trkpt><trkpt lat="46.199602796975455" lon="13.410091038011746"><ele>759.0</ele><time>2026-03-28T14:35:35.999Z</time></trkpt><trkpt lat="46.19955619182295" lon="13.410214736530195"><ele>759.0</ele><time>2026-03-28T14:35:36.999Z</time></trkpt><trkpt lat="46.199521967709984" lon="13.410356895517026"><ele>759.0</ele><time>2026-03-28T14:35:37.999Z</time></trkpt><trkpt lat="46.19946030729218" lon="13.410491816993149"><ele>759.0</ele><time>2026-03-28T14:35:38.999Z</time></trkpt><trkpt lat="46.19941398647235" lon="13.410629702342804"><ele>758.5</ele><time>2026-03-28T14:35:39.999Z</time></trkpt><trkpt lat="46.19933035308828" lon="13.410764570571962"><ele>758.0</ele><time>2026-03-28T14:35:40.999Z</time></trkpt><trkpt lat="46.19927583368199" lon="13.410920361581304"><ele>757.5</ele><time>2026-03-28T14:35:41.999Z</time></trkpt><trkpt lat="46.199224147582065" lon="13.41105505173944"><ele>757.0</ele><time>2026-03-28T14:35:42.999Z</time></trkpt><trkpt lat="46.19913854587097" lon="13.411126077937372"><ele>757.0</ele><time>2026-03-28T14:35:43.999Z</time></trkpt><trkpt lat="46.19906084533862" lon="13.4112101769287"><ele>757.0</ele><time>2026-03-28T14:35:44.999Z</time></trkpt><trkpt lat="46.19899713505287" lon="13.411315038427036"><ele>757.0</ele><time>2026-03-28T14:35:45.999Z</time></trkpt><trkpt lat="46.198940555766505" lon="13.411463174271688"><ele>757.0</ele><time>2026-03-28T14:35:46.999Z</time></trkpt><trkpt lat="46.19892603702305" lon="13.411623558256464"><ele>757.0</ele><time>2026-03-28T14:35:47.999Z</time></trkpt><trkpt lat="46.19891290687833" lon="13.411783079222843"><ele>761.2</ele><time>2026-03-28T14:35:48.999Z</time></trkpt><trkpt lat="46.19888951420327" lon="13.411896063482168"><ele>765.4000000000001</ele><time>2026-03-28T14:35:49.999Z</time></trkpt><trkpt lat="46.19884615207371" lon="13.412039136153734"><ele>769.5999999999999</ele><time>2026-03-28T14:35:50.999Z</time></trkpt><trkpt lat="46.19879826177838" lon="13.412165107855577"><ele>773.8</ele><time>2026-03-28T14:35:51.999Z</time></trkpt><trkpt lat="46.19874047480701" lon="13.412326961153095"><ele>778.0</ele><time>2026-03-28T14:35:52.999Z</time></trkpt><trkpt lat="46.198723563821986" lon="13.412511596519586"><ele>778.0</ele><time>2026-03-28T14:35:53.999Z</time></trkpt><trkpt lat="46.198749261500964" lon="13.412695394430916"><ele>778.0</ele><time>2026-03-28T14:35:54.999Z</time></trkpt><trkpt lat="46.19877931701774" lon="13.41284607190583"><ele>778.0</ele><time>2026-03-28T14:35:55.999Z</time></trkpt><trkpt lat="46.1988206574487" lon="13.412991284860853"><ele>778.0</ele><time>2026-03-28T14:35:56.999Z</time></trkpt><trkpt lat="46.19887024354689" lon="13.413117006979105"><ele>778.0</ele><time>2026-03-28T14:35:57.999Z</time></trkpt><trkpt lat="46.19895548858229" lon="13.413170502753145"><ele>777.0</ele><time>2026-03-28T14:35:58.999Z</time></trkpt><trkpt lat="46.19906514316871" lon="13.413214241276734"><ele>776.0</ele><time>2026-03-28T14:35:59.999Z</time></trkpt><trkpt lat="46.19917320134297" lon="13.413230828501792"><ele>775.0</ele><time>2026-03-28T14:36:00.999Z</time></trkpt><trkpt lat="46.199261985967794" lon="13.413272456182938"><ele>774.0</ele><time>2026-03-28T14:36:01.999Z</time></trkpt><trkpt lat="46.19935051244533" lon="13.41330932183071"><ele>773.0</ele><time>2026-03-28T14:36:02.999Z</time></trkpt><trkpt lat="46.199418297406176" lon="13.41337158946396"><ele>773.0</ele><time>2026-03-28T14:36:03.999Z</time></trkpt><trkpt lat="46.19962606310223" lon="13.413479042760743"><ele>773.0</ele><time>2026-03-28T14:36:05.999Z</time></trkpt><trkpt lat="46.19940777121779" lon="13.413554924758044"><ele>773.0</ele><time>2026-03-28T14:36:06.999Z</time></trkpt><trkpt lat="46.19941724409423" lon="13.413683824948126"><ele>774.8</ele><time>2026-03-28T14:36:07.999Z</time></trkpt><trkpt lat="46.199452200578136" lon="13.413824968157078"><ele>776.5999999999999</ele><time>2026-03-28T14:36:08.999Z</time></trkpt><trkpt lat="46.19949584774461" lon="13.413945712056073"><ele>778.4000000000001</ele><time>2026-03-28T14:36:09.999Z</time></trkpt><trkpt lat="46.199566787006674" lon="13.414021010235139"><ele>780.2</ele><time>2026-03-28T14:36:10.999Z</time></trkpt><trkpt lat="46.19965121485791" lon="13.414004755025385"><ele>782.0</ele><time>2026-03-28T14:36:11.999Z</time></trkpt><trkpt lat="46.199814595823334" lon="13.413931478960766"><ele>782.8</ele><time>2026-03-28T14:36:13.999Z</time></trkpt><trkpt lat="46.19992256083194" lon="13.413863455329947"><ele>783.6</ele><time>2026-03-28T14:36:14.999Z</time></trkpt><trkpt lat="46.20000424817896" lon="13.4138719857858"><ele>784.4</ele><time>2026-03-28T14:36:16Z</time></trkpt><trkpt lat="46.2000820313945" lon="13.413874566521324"><ele>785.1999999999999</ele><time>2026-03-28T14:36:17Z</time></trkpt><trkpt lat="46.20013844211931" lon="13.413963720322108"><ele>786.0</ele><time>2026-03-28T14:36:18Z</time></trkpt><trkpt lat="46.20021769571143" lon="13.414051933357282"><ele>786.0</ele><time>2026-03-28T14:36:19Z</time></trkpt><trkpt lat="46.20030730868668" lon="13.414137589951775"><ele>786.0</ele><time>2026-03-28T14:36:20Z</time></trkpt><trkpt lat="46.20040867892555" lon="13.414229996872129"><ele>786.0</ele><time>2026-03-28T14:36:21Z</time></trkpt><trkpt lat="46.20052222005267" lon="13.414284170259835"><ele>786.0</ele><time>2026-03-28T14:36:22Z</time></trkpt><trkpt lat="46.200627959455154" lon="13.414344168984673"><ele>786.5999999999999</ele><time>2026-03-28T14:36:23Z</time></trkpt><trkpt lat="46.200705027239714" lon="13.414402269997524"><ele>787.2</ele><time>2026-03-28T14:36:24Z</time></trkpt><trkpt lat="46.20076838625715" lon="13.414466698086418"><ele>787.8</ele><time>2026-03-28T14:36:25Z</time></trkpt><trkpt lat="46.20083278831655" lon="13.41451944838428"><ele>788.4000000000001</ele><time>2026-03-28T14:36:26Z</time></trkpt><trkpt lat="46.20084206721803" lon="13.414705583403817"><ele>789.0</ele><time>2026-03-28T14:36:27Z</time></trkpt><trkpt lat="46.20085501435246" lon="13.4148612130278"><ele>790.75</ele><time>2026-03-28T14:36:28Z</time></trkpt><trkpt lat="46.20082383671638" lon="13.415049628476993"><ele>792.5</ele><time>2026-03-28T14:36:29Z</time></trkpt><trkpt lat="46.20080418749142" lon="13.415225135749463"><ele>794.25</ele><time>2026-03-28T14:36:30Z</time></trkpt><trkpt lat="46.20075771272539" lon="13.415397741309324"><ele>796.0</ele><time>2026-03-28T14:36:31Z</time></trkpt><trkpt lat="46.20068840048686" lon="13.415551212844548"><ele>800.0</ele><time>2026-03-28T14:36:32Z</time></trkpt><trkpt lat="46.200621945927026" lon="13.415686789311069"><ele>804.0</ele><time>2026-03-28T14:36:33Z</time></trkpt><trkpt lat="46.20055924254865" lon="13.41586094241564"><ele>808.0</ele><time>2026-03-28T14:36:34Z</time></trkpt><trkpt lat="46.200509243660356" lon="13.416027764989474"><ele>812.0</ele><time>2026-03-28T14:36:35Z</time></trkpt><trkpt lat="46.200471487377044" lon="13.416185604155984"><ele>812.2</ele><time>2026-03-28T14:36:36Z</time></trkpt><trkpt lat="46.20043333659767" lon="13.416335938623847"><ele>812.4000000000001</ele><time>2026-03-28T14:36:37Z</time></trkpt><trkpt lat="46.20041187235746" lon="13.416465113020362"><ele>812.5999999999999</ele><time>2026-03-28T14:36:38Z</time></trkpt><trkpt lat="46.20038407028477" lon="13.41656695469182"><ele>812.8</ele><time>2026-03-28T14:36:39Z</time></trkpt><trkpt lat="46.200330342442584" lon="13.416639858629765"><ele>813.0</ele><time>2026-03-28T14:36:40Z</time></trkpt><trkpt lat="46.20025625577741" lon="13.41676202941818"><ele>813.0</ele><time>2026-03-28T14:36:41Z</time></trkpt><trkpt lat="46.20020623755467" lon="13.41690281289619"><ele>813.0</ele><time>2026-03-28T14:36:42Z</time></trkpt><trkpt lat="46.200198574873234" lon="13.417052664230264"><ele>813.0</ele><time>2026-03-28T14:36:43Z</time></trkpt><trkpt lat="46.20018619359177" lon="13.417209018386075"><ele>813.0</ele><time>2026-03-28T14:36:44Z</time></trkpt><trkpt lat="46.200120381151045" lon="13.417347461739432"><ele>813.0</ele><time>2026-03-28T14:36:45Z</time></trkpt><trkpt lat="46.20003419485557" lon="13.417437174055173"><ele>812.5999999999999</ele><time>2026-03-28T14:36:46Z</time></trkpt><trkpt lat="46.19995741878964" lon="13.417490822369697"><ele>812.1999999999999</ele><time>2026-03-28T14:36:47Z</time></trkpt><trkpt lat="46.19985374578458" lon="13.417540217382772"><ele>811.8</ele><time>2026-03-28T14:36:48Z</time></trkpt><trkpt lat="46.19975160953392" lon="13.41763751300416"><ele>811.4</ele><time>2026-03-28T14:36:49Z</time></trkpt><trkpt lat="46.19965555233405" lon="13.417739422677567"><ele>811.0</ele><time>2026-03-28T14:36:50Z</time></trkpt><trkpt lat="46.199567003729534" lon="13.417885712521214"><ele>812.75</ele><time>2026-03-28T14:36:51Z</time></trkpt><trkpt lat="46.19950213183373" lon="13.418047996372843"><ele>814.5</ele><time>2026-03-28T14:36:52Z</time></trkpt><trkpt lat="46.199467085847175" lon="13.41820123628963"><ele>816.25</ele><time>2026-03-28T14:36:53Z</time></trkpt><trkpt lat="46.19944198621057" lon="13.418360310742878"><ele>818.0</ele><time>2026-03-28T14:36:54Z</time></trkpt><trkpt lat="46.199444117265934" lon="13.418521554297474"><ele>818.0</ele><time>2026-03-28T14:36:55Z</time></trkpt><trkpt lat="46.1994407523097" lon="13.418674513508593"><ele>818.0</ele><time>2026-03-28T14:36:56Z</time></trkpt><trkpt lat="46.19941366506046" lon="13.418768366146624"><ele>818.0</ele><time>2026-03-28T14:36:57Z</time></trkpt><trkpt lat="46.19935600451843" lon="13.41886389724632"><ele>818.0</ele><time>2026-03-28T14:36:58Z</time></trkpt><trkpt lat="46.1992800240453" lon="13.418944712300803"><ele>818.0</ele><time>2026-03-28T14:36:59Z</time></trkpt><trkpt lat="46.199190466380934" lon="13.419006425830553"><ele>817.5999999999999</ele><time>2026-03-28T14:37:00Z</time></trkpt><trkpt lat="46.19909844224236" lon="13.419070961545813"><ele>817.1999999999999</ele><time>2026-03-28T14:37:01Z</time></trkpt><trkpt lat="46.19904258062136" lon="13.419176870248174"><ele>816.8</ele><time>2026-03-28T14:37:02Z</time></trkpt><trkpt lat="46.19898322010071" lon="13.419294836948081"><ele>816.4</ele><time>2026-03-28T14:37:03Z</time></trkpt><trkpt lat="46.19894502175752" lon="13.419445930727075"><ele>816.0</ele><time>2026-03-28T14:37:04Z</time></trkpt><trkpt lat="46.19892005744347" lon="13.419608706901396"><ele>818.0</ele><time>2026-03-28T14:37:05Z</time></trkpt><trkpt lat="46.19889739672519" lon="13.419780298666305"><ele>820.0</ele><time>2026-03-28T14:37:06Z</time></trkpt><trkpt lat="46.19884926952046" lon="13.419944180792523"><ele>822.0</ele><time>2026-03-28T14:37:07Z</time></trkpt><trkpt lat="46.19879100426795" lon="13.420103303076754"><ele>824.0</ele><time>2026-03-28T14:37:08Z</time></trkpt><trkpt lat="46.19871488188305" lon="13.42024625403628"><ele>824.0</ele><time>2026-03-28T14:37:09Z</time></trkpt><trkpt lat="46.19862205356067" lon="13.420371466209726"><ele>824.0</ele><time>2026-03-28T14:37:10Z</time></trkpt><trkpt lat="46.198522386641635" lon="13.420491141465062"><ele>824.0</ele><time>2026-03-28T14:37:11Z</time></trkpt><trkpt lat="46.19842905841015" lon="13.420606703333084"><ele>824.0</ele><time>2026-03-28T14:37:12Z</time></trkpt><trkpt lat="46.198332829984835" lon="13.420707444594012"><ele>823.75</ele><time>2026-03-28T14:37:13Z</time></trkpt><trkpt lat="46.198222737392605" lon="13.42076955533661"><ele>823.5</ele><time>2026-03-28T14:37:14Z</time></trkpt><trkpt lat="46.19810441965495" lon="13.420815033593984"><ele>823.25</ele><time>2026-03-28T14:37:15Z</time></trkpt><trkpt lat="46.197995812615915" lon="13.42084598854017"><ele>823.0</ele><time>2026-03-28T14:37:16Z</time></trkpt><trkpt lat="46.19789958089168" lon="13.420901715132029"><ele>823.0</ele><time>2026-03-28T14:37:17Z</time></trkpt><trkpt lat="46.197811321713324" lon="13.420980966447958"><ele>823.0</ele><time>2026-03-28T14:37:18Z</time></trkpt><trkpt lat="46.19774444761622" lon="13.421114038042552"><ele>823.0</ele><time>2026-03-28T14:37:19Z</time></trkpt><trkpt lat="46.19767559656915" lon="13.42126118227302"><ele>823.0</ele><time>2026-03-28T14:37:20Z</time></trkpt><trkpt lat="46.19759789401876" lon="13.421375206414242"><ele>823.2</ele><time>2026-03-28T14:37:21Z</time></trkpt><trkpt lat="46.19750939621567" lon="13.421425741775499"><ele>823.4</ele><time>2026-03-28T14:37:22Z</time></trkpt><trkpt lat="46.19741205931159" lon="13.421457361139224"><ele>823.6</ele><time>2026-03-28T14:37:23Z</time></trkpt><trkpt lat="46.197300537405894" lon="13.421487027757324"><ele>823.8000000000001</ele><time>2026-03-28T14:37:24Z</time></trkpt><trkpt lat="46.19718238332427" lon="13.421528537419553"><ele>824.0</ele><time>2026-03-28T14:37:25Z</time></trkpt><trkpt lat="46.197057889232035" lon="13.421579542611747"><ele>825.0</ele><time>2026-03-28T14:37:26Z</time></trkpt><trkpt lat="46.1969238428468" lon="13.421631871565802"><ele>826.0</ele><time>2026-03-28T14:37:27Z</time></trkpt><trkpt lat="46.19678758706743" lon="13.42168015574679"><ele>827.0</ele><time>2026-03-28T14:37:28Z</time></trkpt><trkpt lat="46.196647852223684" lon="13.421724029776163"><ele>828.0</ele><time>2026-03-28T14:37:29Z</time></trkpt><trkpt lat="46.19651801207198" lon="13.42177295516422"><ele>829.5999999999999</ele><time>2026-03-28T14:37:30Z</time></trkpt><trkpt lat="46.196381074593475" lon="13.42181336270861"><ele>831.1999999999999</ele><time>2026-03-28T14:37:31Z</time></trkpt><trkpt lat="46.196257964170954" lon="13.421841262366986"><ele>832.8</ele><time>2026-03-28T14:37:32Z</time></trkpt><trkpt lat="46.19616167625818" lon="13.421857614623358"><ele>834.4</ele><time>2026-03-28T14:37:32.999Z</time></trkpt><trkpt lat="46.19609330233417" lon="13.421888727711632"><ele>836.0</ele><time>2026-03-28T14:37:33.999Z</time></trkpt><trkpt lat="46.19604448152285" lon="13.422047756829759"><ele>837.0</ele><time>2026-03-28T14:37:35.999Z</time></trkpt><trkpt lat="46.19605886666518" lon="13.422171221341417"><ele>838.0</ele><time>2026-03-28T14:37:36.999Z</time></trkpt><trkpt lat="46.19608236578926" lon="13.422311115776113"><ele>839.0</ele><time>2026-03-28T14:37:37.999Z</time></trkpt><trkpt lat="46.196092292218886" lon="13.422469195436735"><ele>840.0</ele><time>2026-03-28T14:37:38.999Z</time></trkpt><trkpt lat="46.19609682903227" lon="13.422643518364064"><ele>841.0</ele><time>2026-03-28T14:37:39.999Z</time></trkpt><trkpt lat="46.19608862275413" lon="13.422832480140746"><ele>839.75</ele><time>2026-03-28T14:37:40.999Z</time></trkpt><trkpt lat="46.1960896782518" lon="13.423025715545245"><ele>838.5</ele><time>2026-03-28T14:37:41.999Z</time></trkpt><trkpt lat="46.19610324629127" lon="13.423238265196654"><ele>837.25</ele><time>2026-03-28T14:37:42.999Z</time></trkpt><trkpt lat="46.1961214305073" lon="13.423462651845819"><ele>836.0</ele><time>2026-03-28T14:37:43.999Z</time></trkpt><trkpt lat="46.196140879893754" lon="13.423689603911287"><ele>836.25</ele><time>2026-03-28T14:37:44.999Z</time></trkpt><trkpt lat="46.196171266913915" lon="13.4239161999843"><ele>836.5</ele><time>2026-03-28T14:37:45.999Z</time></trkpt><trkpt lat="46.19619959976155" lon="13.424130196015712"><ele>836.75</ele><time>2026-03-28T14:37:46.999Z</time></trkpt><trkpt lat="46.196214666815834" lon="13.424308160473533"><ele>837.0</ele><time>2026-03-28T14:37:47.999Z</time></trkpt><trkpt lat="46.19621350704272" lon="13.424461365368266"><ele>837.0</ele><time>2026-03-28T14:37:48.999Z</time></trkpt><trkpt lat="46.19622480595048" lon="13.42458106464915"><ele>837.0</ele><time>2026-03-28T14:37:49.999Z</time></trkpt><trkpt lat="46.1962474693445" lon="13.424682317799489"><ele>837.0</ele><time>2026-03-28T14:37:50.999Z</time></trkpt><trkpt lat="46.19628950136419" lon="13.424767425464173"><ele>837.0</ele><time>2026-03-28T14:37:51.999Z</time></trkpt><trkpt lat="46.1963357590159" lon="13.424853627559255"><ele>837.0</ele><time>2026-03-28T14:37:52.999Z</time></trkpt><trkpt lat="46.19636377590885" lon="13.42496736536925"><ele>837.0</ele><time>2026-03-28T14:37:53.999Z</time></trkpt><trkpt lat="46.19636618502252" lon="13.425096182286849"><ele>838.0</ele><time>2026-03-28T14:37:54.999Z</time></trkpt><trkpt lat="46.19636261218498" lon="13.425233258632234"><ele>839.0</ele><time>2026-03-28T14:37:55.999Z</time></trkpt><trkpt lat="46.196357210987074" lon="13.425393126959692"><ele>840.0</ele><time>2026-03-28T14:37:56.999Z</time></trkpt><trkpt lat="46.19638086427964" lon="13.425558320290957"><ele>841.0</ele><time>2026-03-28T14:37:57.999Z</time></trkpt><trkpt lat="46.19639487273727" lon="13.42573671964999"><ele>842.0</ele><time>2026-03-28T14:37:58.999Z</time></trkpt><trkpt lat="46.19640109492515" lon="13.425920458001853"><ele>843.2</ele><time>2026-03-28T14:37:59.999Z</time></trkpt><trkpt lat="46.196407433867876" lon="13.42610330505194"><ele>844.4000000000001</ele><time>2026-03-28T14:38:00.999Z</time></trkpt><trkpt lat="46.196428042811405" lon="13.426267027708379"><ele>845.5999999999999</ele><time>2026-03-28T14:38:01.999Z</time></trkpt><trkpt lat="46.196485657465495" lon="13.426388406607627"><ele>846.8</ele><time>2026-03-28T14:38:02.999Z</time></trkpt><trkpt lat="46.196547502200495" lon="13.426465308543671"><ele>848.0</ele><time>2026-03-28T14:38:03.999Z</time></trkpt><trkpt lat="46.19660900832787" lon="13.426521977529914"><ele>848.0000000000001</ele><time>2026-03-28T14:38:04.999Z</time></trkpt><trkpt lat="46.196672800153614" lon="13.426565950597046"><ele>848.0</ele><time>2026-03-28T14:38:05.999Z</time></trkpt><trkpt lat="46.1967408329871" lon="13.42663777552963"><ele>848.0</ele><time>2026-03-28T14:38:06.999Z</time></trkpt><trkpt lat="46.19680604844691" lon="13.426719872912015"><ele>848.0</ele><time>2026-03-28T14:38:08Z</time></trkpt><trkpt lat="46.1968426170845" lon="13.426826737266422"><ele>848.0000000000001</ele><time>2026-03-28T14:38:09Z</time></trkpt><trkpt lat="46.19684580451332" lon="13.426927528634346"><ele>848.0</ele><time>2026-03-28T14:38:10Z</time></trkpt><trkpt lat="46.196824496078456" lon="13.427027638764173"><ele>848.5999999999999</ele><time>2026-03-28T14:38:11Z</time></trkpt><trkpt lat="46.19678530140049" lon="13.427144737901957"><ele>849.1999999999999</ele><time>2026-03-28T14:38:12Z</time></trkpt><trkpt lat="46.19673447249971" lon="13.427265952521854"><ele>849.8</ele><time>2026-03-28T14:38:13Z</time></trkpt><trkpt lat="46.19669183032161" lon="13.427403048606898"><ele>850.4</ele><time>2026-03-28T14:38:14Z</time></trkpt><trkpt lat="46.196676200237285" lon="13.42757251756553"><ele>851.0</ele><time>2026-03-28T14:38:15Z</time></trkpt><trkpt lat="46.19667521010295" lon="13.427749074355365"><ele>851.0</ele><time>2026-03-28T14:38:16Z</time></trkpt><trkpt lat="46.19666202846097" lon="13.42793640875475"><ele>851.0</ele><time>2026-03-28T14:38:17Z</time></trkpt><trkpt lat="46.19666568412475" lon="13.428132330602452"><ele>851.0</ele><time>2026-03-28T14:38:18Z</time></trkpt><trkpt lat="46.196702151126736" lon="13.428327975165228"><ele>851.0</ele><time>2026-03-28T14:38:19Z</time></trkpt><trkpt lat="46.19674524251976" lon="13.428519686564972"><ele>851.25</ele><time>2026-03-28T14:38:20Z</time></trkpt><trkpt lat="46.19678608621701" lon="13.428700059573064"><ele>851.5</ele><time>2026-03-28T14:38:21Z</time></trkpt><trkpt lat="46.19683615546295" lon="13.428856276819188"><ele>851.75</ele><time>2026-03-28T14:38:22Z</time></trkpt><trkpt lat="46.19691997715996" lon="13.4289665325935"><ele>852.0</ele><time>2026-03-28T14:38:23Z</time></trkpt><trkpt lat="46.19703274914267" lon="13.429049684824431"><ele>851.8</ele><time>2026-03-28T14:38:24Z</time></trkpt><trkpt lat="46.197131943457975" lon="13.429151499840176"><ele>851.6</ele><time>2026-03-28T14:38:25Z</time></trkpt><trkpt lat="46.19722313930783" lon="13.429269019357964"><ele>851.4</ele><time>2026-03-28T14:38:26Z</time></trkpt><trkpt lat="46.19729898053392" lon="13.429384137608928"><ele>851.1999999999999</ele><time>2026-03-28T14:38:27Z</time></trkpt><trkpt lat="46.19735847159787" lon="13.42949170394806"><ele>851.0</ele><time>2026-03-28T14:38:28Z</time></trkpt><trkpt lat="46.19738402438941" lon="13.429603763557006"><ele>850.8</ele><time>2026-03-28T14:38:29Z</time></trkpt><trkpt lat="46.19738380852366" lon="13.42972305061972"><ele>850.5999999999999</ele><time>2026-03-28T14:38:30Z</time></trkpt><trkpt lat="46.197362595703574" lon="13.429854694997491"><ele>850.4</ele><time>2026-03-28T14:38:31Z</time></trkpt><trkpt lat="46.197321700453436" lon="13.430002585208003"><ele>850.2</ele><time>2026-03-28T14:38:32Z</time></trkpt><trkpt lat="46.19726578664342" lon="13.430151504079292"><ele>850.0</ele><time>2026-03-28T14:38:33Z</time></trkpt><trkpt lat="46.19718837597515" lon="13.430283945207815"><ele>853.5</ele><time>2026-03-28T14:38:34Z</time></trkpt><trkpt lat="46.19709510753122" lon="13.430422579736769"><ele>857.0</ele><time>2026-03-28T14:38:35Z</time></trkpt><trkpt lat="46.19702350675306" lon="13.430579766347181"><ele>860.5</ele><time>2026-03-28T14:38:36Z</time></trkpt><trkpt lat="46.19696973099667" lon="13.430753141712687"><ele>864.0</ele><time>2026-03-28T14:38:37Z</time></trkpt><trkpt lat="46.19694560280125" lon="13.430927954900332"><ele>864.0</ele><time>2026-03-28T14:38:38Z</time></trkpt><trkpt lat="46.19695212320101" lon="13.431091751723606"><ele>864.0000000000001</ele><time>2026-03-28T14:38:39Z</time></trkpt><trkpt lat="46.19696874804043" lon="13.431244118650158"><ele>864.0000000000001</ele><time>2026-03-28T14:38:40Z</time></trkpt><trkpt lat="46.19700872378799" lon="13.431369179051826"><ele>864.0</ele><time>2026-03-28T14:38:41Z</time></trkpt><trkpt lat="46.19706305674792" lon="13.431497431872698"><ele>864.0</ele><time>2026-03-28T14:38:42Z</time></trkpt><trkpt lat="46.19712850468891" lon="13.431625945177283"><ele>864.0</ele><time>2026-03-28T14:38:43Z</time></trkpt><trkpt lat="46.19720147689235" lon="13.431744640899366"><ele>864.0000000000001</ele><time>2026-03-28T14:38:44Z</time></trkpt><trkpt lat="46.19727486053988" lon="13.431857384385681"><ele>864.0000000000001</ele><time>2026-03-28T14:38:45Z</time></trkpt><trkpt lat="46.1973312086214" lon="13.43196472398503"><ele>864.0</ele><time>2026-03-28T14:38:46Z</time></trkpt><trkpt lat="46.19737050559208" lon="13.43209985669543"><ele>864.0</ele><time>2026-03-28T14:38:47Z</time></trkpt><trkpt lat="46.19741557959286" lon="13.432260462954599"><ele>861.5</ele><time>2026-03-28T14:38:48Z</time></trkpt><trkpt lat="46.19750271054883" lon="13.432374290219078"><ele>859.0</ele><time>2026-03-28T14:38:49Z</time></trkpt><trkpt lat="46.197606568311" lon="13.432456112308829"><ele>856.5</ele><time>2026-03-28T14:38:50Z</time></trkpt><trkpt lat="46.19772010954403" lon="13.432538283358834"><ele>854.0</ele><time>2026-03-28T14:38:51Z</time></trkpt><trkpt lat="46.197798032889295" lon="13.432637142127763"><ele>854.0</ele><time>2026-03-28T14:38:52Z</time></trkpt><trkpt lat="46.19783262486506" lon="13.43278840066523"><ele>854.0</ele><time>2026-03-28T14:38:53Z</time></trkpt><trkpt lat="46.197865755346655" lon="13.432953543943704"><ele>854.0</ele><time>2026-03-28T14:38:54Z</time></trkpt><trkpt lat="46.197880044376355" lon="13.433112778837991"><ele>854.0</ele><time>2026-03-28T14:38:55Z</time></trkpt><trkpt lat="46.19788263185313" lon="13.433318516029653"><ele>856.0</ele><time>2026-03-28T14:38:56Z</time></trkpt><trkpt lat="46.19790270730233" lon="13.433520477699034"><ele>858.0</ele><time>2026-03-28T14:38:57Z</time></trkpt><trkpt lat="46.19796119289726" lon="13.43369301219879"><ele>860.0</ele><time>2026-03-28T14:38:58Z</time></trkpt><trkpt lat="46.19801983804986" lon="13.433853240853056"><ele>862.0</ele><time>2026-03-28T14:38:59Z</time></trkpt><trkpt lat="46.19810535256497" lon="13.433921251247428"><ele>859.8</ele><time>2026-03-28T14:39:00Z</time></trkpt><trkpt lat="46.1981912644393" lon="13.433928652792932"><ele>857.6</ele><time>2026-03-28T14:39:01Z</time></trkpt><trkpt lat="46.19828048044078" lon="13.433905069451116"><ele>855.4</ele><time>2026-03-28T14:39:02Z</time></trkpt><trkpt lat="46.198383372277185" lon="13.433926461126925"><ele>853.1999999999999</ele><time>2026-03-28T14:39:03Z</time></trkpt><trkpt lat="46.19849446097858" lon="13.4339593107648"><ele>851.0</ele><time>2026-03-28T14:39:04Z</time></trkpt><trkpt lat="46.19860459286703" lon="13.434036373521998"><ele>851.0</ele><time>2026-03-28T14:39:05Z</time></trkpt><trkpt lat="46.19871003545664" lon="13.434116183972465"><ele>851.0</ele><time>2026-03-28T14:39:06Z</time></trkpt><trkpt lat="46.19882236500371" lon="13.434195036317158"><ele>851.0</ele><time>2026-03-28T14:39:07Z</time></trkpt><trkpt lat="46.198918249564414" lon="13.43426687795748"><ele>851.0</ele><time>2026-03-28T14:39:08Z</time></trkpt><trkpt lat="46.19899881496806" lon="13.434366405604733"><ele>851.0</ele><time>2026-03-28T14:39:09Z</time></trkpt><trkpt lat="46.19907081179319" lon="13.434488618960472"><ele>851.0</ele><time>2026-03-28T14:39:10Z</time></trkpt><trkpt lat="46.199111489750116" lon="13.434626023457668"><ele>851.0</ele><time>2026-03-28T14:39:11Z</time></trkpt><trkpt lat="46.199154017036165" lon="13.43476014840755"><ele>851.0</ele><time>2026-03-28T14:39:12Z</time></trkpt><trkpt lat="46.19918839126925" lon="13.434898774956594"><ele>851.0</ele><time>2026-03-28T14:39:13Z</time></trkpt><trkpt lat="46.19922724630243" lon="13.435042065967195"><ele>851.25</ele><time>2026-03-28T14:39:14Z</time></trkpt><trkpt lat="46.199290710777305" lon="13.435181258727463"><ele>851.5</ele><time>2026-03-28T14:39:15Z</time></trkpt><trkpt lat="46.19934714694299" lon="13.43532575858318"><ele>851.75</ele><time>2026-03-28T14:39:16Z</time></trkpt><trkpt lat="46.19940344646427" lon="13.435464209178194"><ele>852.0</ele><time>2026-03-28T14:39:17Z</time></trkpt><trkpt lat="46.19948454128367" lon="13.435657038351303"><ele>846.5</ele><time>2026-03-28T14:39:18Z</time></trkpt><trkpt lat="46.19953363178854" lon="13.435831164661309"><ele>841.0</ele><time>2026-03-28T14:39:19Z</time></trkpt><trkpt lat="46.19956658244944" lon="13.43597611004303"><ele>835.5</ele><time>2026-03-28T14:39:20Z</time></trkpt><trkpt lat="46.19961308342234" lon="13.436160670697118"><ele>830.0</ele><time>2026-03-28T14:39:21Z</time></trkpt><trkpt lat="46.19967522478634" lon="13.436298171058462"><ele>826.2</ele><time>2026-03-28T14:39:22Z</time></trkpt><trkpt lat="46.199720433603716" lon="13.436419940475924"><ele>822.4</ele><time>2026-03-28T14:39:23Z</time></trkpt><trkpt lat="46.19974659479077" lon="13.436520404291969"><ele>818.5999999999999</ele><time>2026-03-28T14:39:24Z</time></trkpt><trkpt lat="46.199737417927984" lon="13.436616280174094"><ele>814.8</ele><time>2026-03-28T14:39:26Z</time></trkpt><trkpt lat="46.199624654736446" lon="13.436554358881917"><ele>811.0</ele><time>2026-03-28T14:39:29Z</time></trkpt><trkpt lat="46.199611192164184" lon="13.436394720184541"><ele>814.8</ele><time>2026-03-28T14:39:30Z</time></trkpt><trkpt lat="46.199572335311544" lon="13.436249157088296"><ele>818.5999999999999</ele><time>2026-03-28T14:39:31Z</time></trkpt><trkpt lat="46.19954702105755" lon="13.436136078386442"><ele>822.4</ele><time>2026-03-28T14:39:32Z</time></trkpt><trkpt lat="46.19953091918472" lon="13.436038716487076"><ele>826.2</ele><time>2026-03-28T14:39:33Z</time></trkpt><trkpt lat="46.19948021721817" lon="13.435915028370625"><ele>830.0</ele><time>2026-03-28T14:39:35Z</time></trkpt><trkpt lat="46.19936761671228" lon="13.435984475779698"><ele>830.0</ele><time>2026-03-28T14:39:37Z</time></trkpt><trkpt lat="46.19936820774193" lon="13.43612993908736"><ele>830.0</ele><time>2026-03-28T14:39:38Z</time></trkpt><trkpt lat="46.19939755213261" lon="13.436274272184571"><ele>830.0</ele><time>2026-03-28T14:39:38.999Z</time></trkpt><trkpt lat="46.1994318326898" lon="13.43640350355063"><ele>830.0</ele><time>2026-03-28T14:39:39.999Z</time></trkpt><trkpt lat="46.19946946654418" lon="13.436545376065734"><ele>830.0</ele><time>2026-03-28T14:39:40.999Z</time></trkpt><trkpt lat="46.19949932124873" lon="13.436672707534354"><ele>826.8333333333334</ele><time>2026-03-28T14:39:41.999Z</time></trkpt><trkpt lat="46.19951389089831" lon="13.436787521589507"><ele>823.6666666666667</ele><time>2026-03-28T14:39:42.999Z</time></trkpt><trkpt lat="46.19952784359376" lon="13.43691679883106"><ele>820.5</ele><time>2026-03-28T14:39:43.999Z</time></trkpt><trkpt lat="46.19954780641507" lon="13.437017084220198"><ele>817.3333333333333</ele><time>2026-03-28T14:39:44.999Z</time></trkpt><trkpt lat="46.19961025756875" lon="13.437084740763407"><ele>814.1666666666666</ele><time>2026-03-28T14:39:46Z</time></trkpt><trkpt lat="46.199732657051214" lon="13.437082398171446"><ele>811.0</ele><time>2026-03-28T14:39:47Z</time></trkpt><trkpt lat="46.19982249065096" lon="13.437122592115747"><ele>812.8</ele><time>2026-03-28T14:39:48Z</time></trkpt><trkpt lat="46.19988907410434" lon="13.437156070019807"><ele>814.5999999999999</ele><time>2026-03-28T14:39:49Z</time></trkpt><trkpt lat="46.19996640567162" lon="13.437266568516188"><ele>816.4</ele><time>2026-03-28T14:39:51Z</time></trkpt><trkpt lat="46.199918459860484" lon="13.437346064439458"><ele>818.2</ele><time>2026-03-28T14:39:52Z</time></trkpt><trkpt lat="46.199862250275196" lon="13.437454944212082"><ele>820.0</ele><time>2026-03-28T14:39:53Z</time></trkpt><trkpt lat="46.19981848998848" lon="13.437612867003812"><ele>816.0</ele><time>2026-03-28T14:39:54Z</time></trkpt><trkpt lat="46.199773210933984" lon="13.437766910891927"><ele>812.0</ele><time>2026-03-28T14:39:55Z</time></trkpt><trkpt lat="46.19973530499303" lon="13.437909860600506"><ele>808.0</ele><time>2026-03-28T14:39:56Z</time></trkpt><trkpt lat="46.19970465745977" lon="13.438038052923964"><ele>804.0</ele><time>2026-03-28T14:39:57Z</time></trkpt><trkpt lat="46.19968966712229" lon="13.438196762935853"><ele>800.0</ele><time>2026-03-28T14:39:59Z</time></trkpt><trkpt lat="46.199732363932135" lon="13.43828166912761"><ele>801.8</ele><time>2026-03-28T14:40:00Z</time></trkpt><trkpt lat="46.19985517280439" lon="13.438320924671219"><ele>803.6</ele><time>2026-03-28T14:40:01Z</time></trkpt><trkpt lat="46.199935001347086" lon="13.4383779135841"><ele>805.4000000000001</ele><time>2026-03-28T14:40:02Z</time></trkpt><trkpt lat="46.20001464947211" lon="13.438470270751568"><ele>807.2</ele><time>2026-03-28T14:40:03Z</time></trkpt><trkpt lat="46.200089310195445" lon="13.438582205403321"><ele>809.0</ele><time>2026-03-28T14:40:04Z</time></trkpt><trkpt lat="46.20011207461453" lon="13.438696153833622"><ele>807.5000000000001</ele><time>2026-03-28T14:40:05Z</time></trkpt><trkpt lat="46.20009798132065" lon="13.438816389464614"><ele>806.0</ele><time>2026-03-28T14:40:06Z</time></trkpt><trkpt lat="46.20006523652155" lon="13.438901735032015"><ele>804.5</ele><time>2026-03-28T14:40:07Z</time></trkpt><trkpt lat="46.200036680974705" lon="13.43900478661964"><ele>803.0</ele><time>2026-03-28T14:40:08Z</time></trkpt><trkpt lat="46.200003517041104" lon="13.439109002201025"><ele>801.5000000000001</ele><time>2026-03-28T14:40:09Z</time></trkpt><trkpt lat="46.19995302152344" lon="13.439244346488268"><ele>800.0</ele><time>2026-03-28T14:40:10Z</time></trkpt><trkpt lat="46.19991774009584" lon="13.439403670841877"><ele>800.0</ele><time>2026-03-28T14:40:11Z</time></trkpt><trkpt lat="46.19990559130894" lon="13.439609838449746"><ele>800.0</ele><time>2026-03-28T14:40:12Z</time></trkpt><trkpt lat="46.199900405931274" lon="13.43978868891948"><ele>800.0</ele><time>2026-03-28T14:40:13Z</time></trkpt><trkpt lat="46.19988103079483" lon="13.439945308238586"><ele>800.0</ele><time>2026-03-28T14:40:14Z</time></trkpt><trkpt lat="46.19984085869867" lon="13.440098961881484"><ele>789.75</ele><time>2026-03-28T14:40:15Z</time></trkpt><trkpt lat="46.199783772104325" lon="13.440256413073776"><ele>779.5</ele><time>2026-03-28T14:40:16Z</time></trkpt><trkpt lat="46.199719377493246" lon="13.440396914336786"><ele>769.25</ele><time>2026-03-28T14:40:17Z</time></trkpt><trkpt lat="46.19963263539986" lon="13.44053318151121"><ele>759.0</ele><time>2026-03-28T14:40:18Z</time></trkpt><trkpt lat="46.19955690625013" lon="13.440683623159291"><ele>758.0</ele><time>2026-03-28T14:40:19Z</time></trkpt><trkpt lat="46.199487342345655" lon="13.440829708652284"><ele>757.0</ele><time>2026-03-28T14:40:20Z</time></trkpt><trkpt lat="46.19943586570044" lon="13.440979683406429"><ele>756.0</ele><time>2026-03-28T14:40:21Z</time></trkpt><trkpt lat="46.199387077832256" lon="13.441141752998162"><ele>755.0</ele><time>2026-03-28T14:40:22Z</time></trkpt><trkpt lat="46.199385083362" lon="13.441338725239248"><ele>754.25</ele><time>2026-03-28T14:40:23Z</time></trkpt><trkpt lat="46.199345967947856" lon="13.441542613462921"><ele>753.5</ele><time>2026-03-28T14:40:24Z</time></trkpt><trkpt lat="46.19931775753984" lon="13.441739734178903"><ele>752.75</ele><time>2026-03-28T14:40:25Z</time></trkpt><trkpt lat="46.19929080012893" lon="13.441930573502406"><ele>752.0</ele><time>2026-03-28T14:40:26Z</time></trkpt><trkpt lat="46.199288006765016" lon="13.442107506779973"><ele>751.75</ele><time>2026-03-28T14:40:27Z</time></trkpt><trkpt lat="46.19927306537282" lon="13.44228624091809"><ele>751.5</ele><time>2026-03-28T14:40:28Z</time></trkpt><trkpt lat="46.19926727428864" lon="13.442474259525309"><ele>751.25</ele><time>2026-03-28T14:40:29Z</time></trkpt><trkpt lat="46.199245568808095" lon="13.442683119663734"><ele>751.0</ele><time>2026-03-28T14:40:30Z</time></trkpt><trkpt lat="46.199231578105646" lon="13.442897506152526"><ele>751.25</ele><time>2026-03-28T14:40:31Z</time></trkpt><trkpt lat="46.19922749640842" lon="13.443097763996814"><ele>751.5</ele><time>2026-03-28T14:40:32Z</time></trkpt><trkpt lat="46.19918136402587" lon="13.443277673430844"><ele>751.75</ele><time>2026-03-28T14:40:33Z</time></trkpt><trkpt lat="46.19913618881546" lon="13.44343736547461"><ele>752.0</ele><time>2026-03-28T14:40:34Z</time></trkpt><trkpt lat="46.19909984869228" lon="13.443584977140189"><ele>752.0</ele><time>2026-03-28T14:40:35Z</time></trkpt><trkpt lat="46.19909237993127" lon="13.443726501101645"><ele>752.0</ele><time>2026-03-28T14:40:36Z</time></trkpt><trkpt lat="46.199085167552845" lon="13.443872147744399"><ele>752.0</ele><time>2026-03-28T14:40:37Z</time></trkpt><trkpt lat="46.19908884927396" lon="13.444040832046488"><ele>752.0</ele><time>2026-03-28T14:40:38Z</time></trkpt><trkpt lat="46.19907312492952" lon="13.444227772551494"><ele>752.0</ele><time>2026-03-28T14:40:39Z</time></trkpt><trkpt lat="46.199066101047876" lon="13.444427211106582"><ele>751.5</ele><time>2026-03-28T14:40:40Z</time></trkpt><trkpt lat="46.199056347304094" lon="13.444610803040678"><ele>751.0</ele><time>2026-03-28T14:40:41Z</time></trkpt><trkpt lat="46.199037258771355" lon="13.444778791306627"><ele>750.5</ele><time>2026-03-28T14:40:42Z</time></trkpt><trkpt lat="46.19902750266652" lon="13.444946086408825"><ele>750.0</ele><time>2026-03-28T14:40:43Z</time></trkpt><trkpt lat="46.19899974802144" lon="13.445132526348262"><ele>745.3333333333334</ele><time>2026-03-28T14:40:44Z</time></trkpt><trkpt lat="46.198981688206054" lon="13.445351568306766"><ele>740.6666666666667</ele><time>2026-03-28T14:40:45Z</time></trkpt><trkpt lat="46.198952411639794" lon="13.445589855466874"><ele>736.0</ele><time>2026-03-28T14:40:46Z</time></trkpt><trkpt lat="46.19892410727242" lon="13.445807022209127"><ele>736.0</ele><time>2026-03-28T14:40:47Z</time></trkpt><trkpt lat="46.19889491840822" lon="13.446002279742991"><ele>736.0</ele><time>2026-03-28T14:40:48Z</time></trkpt><trkpt lat="46.198876859489864" lon="13.446177231373465"><ele>736.0</ele><time>2026-03-28T14:40:49Z</time></trkpt><trkpt lat="46.198842189442914" lon="13.44630657298732"><ele>736.0</ele><time>2026-03-28T14:40:50Z</time></trkpt><trkpt lat="46.1988188601451" lon="13.446404188210517"><ele>736.0</ele><time>2026-03-28T14:40:51Z</time></trkpt><trkpt lat="46.198720323665604" lon="13.44647709698328"><ele>736.0</ele><time>2026-03-28T14:40:53Z</time></trkpt><trkpt lat="46.19867408024318" lon="13.446409663586028"><ele>736.0</ele><time>2026-03-28T14:40:55Z</time></trkpt><trkpt lat="46.19859734552835" lon="13.446395909234665"><ele>736.0</ele><time>2026-03-28T14:41:23.001Z</time></trkpt><trkpt lat="46.19849645423916" lon="13.446322358838316"><ele>736.0</ele><time>2026-03-28T14:41:25.001Z</time></trkpt><trkpt lat="46.19846906191543" lon="13.446229959663018"><ele>736.0</ele><time>2026-03-28T14:41:26.001Z</time></trkpt><trkpt lat="46.198459663655676" lon="13.446110043412565"><ele>736.0</ele><time>2026-03-28T14:41:27.001Z</time></trkpt><trkpt lat="46.198423414510636" lon="13.445957889045829"><ele>736.0</ele><time>2026-03-28T14:41:28.001Z</time></trkpt><trkpt lat="46.19838317093937" lon="13.445809882724827"><ele>736.0</ele><time>2026-03-28T14:41:29.001Z</time></trkpt><trkpt lat="46.198346626276404" lon="13.445677024643496"><ele>736.0</ele><time>2026-03-28T14:41:30.001Z</time></trkpt><trkpt lat="46.19831518378055" lon="13.445547295024996"><ele>736.0</ele><time>2026-03-28T14:41:31.001Z</time></trkpt><trkpt lat="46.19828306379184" lon="13.445424433921172"><ele>736.0</ele><time>2026-03-28T14:41:32.001Z</time></trkpt><trkpt lat="46.198297915602545" lon="13.445287745816609"><ele>734.0</ele><time>2026-03-28T14:41:33.001Z</time></trkpt><trkpt lat="46.19830954623193" lon="13.445188363817993"><ele>732.0</ele><time>2026-03-28T14:41:34.001Z</time></trkpt><trkpt lat="46.19833079745592" lon="13.445038758041381"><ele>730.0</ele><time>2026-03-28T14:41:35.001Z</time></trkpt><trkpt lat="46.19835677642422" lon="13.44488423813259"><ele>728.0</ele><time>2026-03-28T14:41:36.001Z</time></trkpt><trkpt lat="46.198385987052966" lon="13.444743641287003"><ele>726.0</ele><time>2026-03-28T14:41:37.001Z</time></trkpt><trkpt lat="46.198416740309774" lon="13.444598543995433"><ele>726.0</ele><time>2026-03-28T14:41:38.001Z</time></trkpt><trkpt lat="46.19842498890074" lon="13.44443843676805"><ele>726.0</ele><time>2026-03-28T14:41:39.001Z</time></trkpt><trkpt lat="46.198432238312066" lon="13.444291295086519"><ele>726.0</ele><time>2026-03-28T14:41:40.001Z</time></trkpt><trkpt lat="46.19844650923311" lon="13.444146843075726"><ele>726.0</ele><time>2026-03-28T14:41:41.001Z</time></trkpt><trkpt lat="46.19844905320015" lon="13.444004736841263"><ele>726.0</ele><time>2026-03-28T14:41:42.001Z</time></trkpt><trkpt lat="46.19845855076621" lon="13.443883292786975"><ele>726.3333333333334</ele><time>2026-03-28T14:41:43.001Z</time></trkpt><trkpt lat="46.19847530757263" lon="13.44379444654576"><ele>726.6666666666666</ele><time>2026-03-28T14:41:44.001Z</time></trkpt><trkpt lat="46.19852749519228" lon="13.443608908737945"><ele>727.0</ele><time>2026-03-28T14:41:46Z</time></trkpt><trkpt lat="46.198547658050806" lon="13.443499262019802"><ele>727.3333333333333</ele><time>2026-03-28T14:41:47Z</time></trkpt><trkpt lat="46.19856449336948" lon="13.443380230077661"><ele>727.6666666666666</ele><time>2026-03-28T14:41:48Z</time></trkpt><trkpt lat="46.19857634818573" lon="13.443261598426874"><ele>728.0</ele><time>2026-03-28T14:41:49Z</time></trkpt><trkpt lat="46.19856989160297" lon="13.443149684875722"><ele>728.0</ele><time>2026-03-28T14:41:50Z</time></trkpt><trkpt lat="46.19858315355777" lon="13.443027695527238"><ele>728.0</ele><time>2026-03-28T14:41:51Z</time></trkpt><trkpt lat="46.19859436340791" lon="13.44289638919727"><ele>728.0</ele><time>2026-03-28T14:41:52Z</time></trkpt><trkpt lat="46.198612298648754" lon="13.442770873716329"><ele>728.0</ele><time>2026-03-28T14:41:53Z</time></trkpt><trkpt lat="46.19861511072264" lon="13.442659003373219"><ele>728.0</ele><time>2026-03-28T14:41:54Z</time></trkpt><trkpt lat="46.19862650739404" lon="13.442551390896565"><ele>728.0</ele><time>2026-03-28T14:41:55Z</time></trkpt><trkpt lat="46.198570367188154" lon="13.442478526283702"><ele>726.5999999999999</ele><time>2026-03-28T14:41:56Z</time></trkpt><trkpt lat="46.198503279212595" lon="13.442346095265233"><ele>725.1999999999999</ele><time>2026-03-28T14:41:58Z</time></trkpt><trkpt lat="46.19846913780526" lon="13.442256558495433"><ele>723.8</ele><time>2026-03-28T14:41:59Z</time></trkpt><trkpt lat="46.198437016125034" lon="13.442172317758224"><ele>722.4</ele><time>2026-03-28T14:42:00Z</time></trkpt><trkpt lat="46.19836227974495" lon="13.442121374628961"><ele>721.0</ele><time>2026-03-28T14:42:01Z</time></trkpt><trkpt lat="46.19828740875041" lon="13.441983930361694"><ele>720.0</ele><time>2026-03-28T14:42:03Z</time></trkpt><trkpt lat="46.19822154752858" lon="13.441829673199047"><ele>719.0</ele><time>2026-03-28T14:42:05Z</time></trkpt><trkpt lat="46.19818142758799" lon="13.441739022026175"><ele>718.0</ele><time>2026-03-28T14:42:06Z</time></trkpt><trkpt lat="46.198147606592855" lon="13.441661849278535"><ele>717.0</ele><time>2026-03-28T14:42:07Z</time></trkpt><trkpt lat="46.19810735759446" lon="13.441575654587075"><ele>716.0</ele><time>2026-03-28T14:42:08Z</time></trkpt><trkpt lat="46.19806464487374" lon="13.441493265632563"><ele>715.0</ele><time>2026-03-28T14:42:09Z</time></trkpt><trkpt lat="46.19798138516983" lon="13.441350400177507"><ele>713.1666666666667</ele><time>2026-03-28T14:42:11Z</time></trkpt><trkpt lat="46.19790146764751" lon="13.441310869775375"><ele>711.3333333333334</ele><time>2026-03-28T14:42:12Z</time></trkpt><trkpt lat="46.197816076471796" lon="13.441282718975378"><ele>709.5</ele><time>2026-03-28T14:42:13Z</time></trkpt><trkpt lat="46.19773004696955" lon="13.441269073758328"><ele>707.6666666666666</ele><time>2026-03-28T14:42:14Z</time></trkpt><trkpt lat="46.197642749369486" lon="13.4412576686432"><ele>705.8333333333333</ele><time>2026-03-28T14:42:15Z</time></trkpt><trkpt lat="46.19755333469305" lon="13.441244734296145"><ele>704.0</ele><time>2026-03-28T14:42:16Z</time></trkpt><trkpt lat="46.1974538816334" lon="13.441236931841619"><ele>703.75</ele><time>2026-03-28T14:42:17Z</time></trkpt><trkpt lat="46.197359462881984" lon="13.44118990620385"><ele>703.5</ele><time>2026-03-28T14:42:18Z</time></trkpt><trkpt lat="46.19726627864323" lon="13.441103227435622"><ele>703.25</ele><time>2026-03-28T14:42:19Z</time></trkpt><trkpt lat="46.197158670638125" lon="13.44101131762403"><ele>703.0</ele><time>2026-03-28T14:42:20Z</time></trkpt><trkpt lat="46.19705534732692" lon="13.440925412918553"><ele>701.0</ele><time>2026-03-28T14:42:21Z</time></trkpt><trkpt lat="46.19693971546508" lon="13.440869804427948"><ele>699.0</ele><time>2026-03-28T14:42:22Z</time></trkpt><trkpt lat="46.19682779421329" lon="13.440896295985729"><ele>697.0</ele><time>2026-03-28T14:42:23Z</time></trkpt><trkpt lat="46.19673871302758" lon="13.44095266738186"><ele>695.0</ele><time>2026-03-28T14:42:24Z</time></trkpt><trkpt lat="46.19665993707631" lon="13.44093647818687"><ele>693.0</ele><time>2026-03-28T14:42:25Z</time></trkpt><trkpt lat="46.196593763397985" lon="13.440934295232758"><ele>690.5999999999999</ele><time>2026-03-28T14:42:26Z</time></trkpt><trkpt lat="46.19646378829398" lon="13.440905827030388"><ele>688.1999999999999</ele><time>2026-03-28T14:42:28Z</time></trkpt><trkpt lat="46.19639994258217" lon="13.440880245705657"><ele>685.8</ele><time>2026-03-28T14:42:29Z</time></trkpt><trkpt lat="46.19631615474346" lon="13.440802986127398"><ele>683.4</ele><time>2026-03-28T14:42:31Z</time></trkpt><trkpt lat="46.19629619865431" lon="13.440647946551264"><ele>681.0</ele><time>2026-03-28T14:42:33Z</time></trkpt><trkpt lat="46.19608626061569" lon="13.440644927041642"><ele>681.0</ele><time>2026-03-28T14:42:34Z</time></trkpt><trkpt lat="46.196014650935496" lon="13.440560001594118"><ele>681.0</ele><time>2026-03-28T14:42:35Z</time></trkpt><trkpt lat="46.19597444658467" lon="13.44047851566991"><ele>681.0</ele><time>2026-03-28T14:42:36Z</time></trkpt><trkpt lat="46.19593255296807" lon="13.440372817063112"><ele>681.0</ele><time>2026-03-28T14:42:37Z</time></trkpt><trkpt lat="46.19588688198842" lon="13.440261660255919"><ele>681.0</ele><time>2026-03-28T14:42:38Z</time></trkpt><trkpt lat="46.19583503647833" lon="13.440139366876284"><ele>681.0</ele><time>2026-03-28T14:42:39Z</time></trkpt><trkpt lat="46.195770107066764" lon="13.440020063792758"><ele>681.0</ele><time>2026-03-28T14:42:40Z</time></trkpt><trkpt lat="46.195702915224985" lon="13.439918779799388"><ele>681.0</ele><time>2026-03-28T14:42:41Z</time></trkpt><trkpt lat="46.19560767950788" lon="13.439847397732327"><ele>681.0</ele><time>2026-03-28T14:42:42Z</time></trkpt><trkpt lat="46.19552198810158" lon="13.43978191172159"><ele>681.0</ele><time>2026-03-28T14:42:43Z</time></trkpt><trkpt lat="46.19544274178914" lon="13.439725680197006"><ele>681.0</ele><time>2026-03-28T14:42:44Z</time></trkpt><trkpt lat="46.19535807230077" lon="13.43967225315568"><ele>680.1999999999999</ele><time>2026-03-28T14:42:45Z</time></trkpt><trkpt lat="46.195275863672904" lon="13.439627555201971"><ele>679.4</ele><time>2026-03-28T14:42:46Z</time></trkpt><trkpt lat="46.19517659627438" lon="13.439580205234934"><ele>678.6</ele><time>2026-03-28T14:42:47Z</time></trkpt><trkpt lat="46.19507737067044" lon="13.439540969066837"><ele>677.8</ele><time>2026-03-28T14:42:48Z</time></trkpt><trkpt lat="46.19493747799193" lon="13.439492233803598"><ele>677.0</ele><time>2026-03-28T14:42:49Z</time></trkpt><trkpt lat="46.19483010414302" lon="13.439458367020748"><ele>675.25</ele><time>2026-03-28T14:42:50Z</time></trkpt><trkpt lat="46.19469962078007" lon="13.439419751602568"><ele>673.5</ele><time>2026-03-28T14:42:51Z</time></trkpt><trkpt lat="46.19457476278053" lon="13.439385219358908"><ele>671.75</ele><time>2026-03-28T14:42:52Z</time></trkpt><trkpt lat="46.19445609407557" lon="13.43935392066559"><ele>670.0</ele><time>2026-03-28T14:42:53Z</time></trkpt><trkpt lat="46.194360144369234" lon="13.439334837093758"><ele>670.0</ele><time>2026-03-28T14:42:54Z</time></trkpt><trkpt lat="46.19428176023611" lon="13.439324197275102"><ele>670.0</ele><time>2026-03-28T14:42:55Z</time></trkpt><trkpt lat="46.19419422770204" lon="13.439318237129674"><ele>670.0</ele><time>2026-03-28T14:42:57Z</time></trkpt><trkpt lat="46.19420125969659" lon="13.43951614775038"><ele>670.0</ele><time>2026-03-28T14:43:00.001Z</time></trkpt><trkpt lat="46.19420803817359" lon="13.439654167192266"><ele>670.0</ele><time>2026-03-28T14:43:01.001Z</time></trkpt><trkpt lat="46.19421683529523" lon="13.43975250741743"><ele>667.6666666666667</ele><time>2026-03-28T14:43:02.001Z</time></trkpt><trkpt lat="46.19417773226544" lon="13.439893013485563"><ele>665.3333333333334</ele><time>2026-03-28T14:43:04.001Z</time></trkpt><trkpt lat="46.194080980349064" lon="13.439854696549718"><ele>663.0</ele><time>2026-03-28T14:43:06.001Z</time></trkpt><trkpt lat="46.19405684383663" lon="13.43976279478774"><ele>660.6666666666666</ele><time>2026-03-28T14:43:08.001Z</time></trkpt><trkpt lat="46.19399793326511" lon="13.439698993322123"><ele>658.3333333333333</ele><time>2026-03-28T14:43:47.001Z</time></trkpt><trkpt lat="46.193923520353756" lon="13.4396101125811"><ele>656.0</ele><time>2026-03-28T14:44:41.001Z</time></trkpt><trkpt lat="46.19386419497898" lon="13.439553642701792"><ele>654.5</ele><time>2026-03-28T14:45:07.001Z</time></trkpt><trkpt lat="46.19381343381419" lon="13.43949796937027"><ele>653.0</ele><time>2026-03-28T14:45:19.001Z</time></trkpt><trkpt lat="46.19374841312663" lon="13.439408515261244"><ele>651.5</ele><time>2026-03-28T14:45:21.001Z</time></trkpt><trkpt lat="46.193669712407676" lon="13.439307787920475"><ele>650.0</ele><time>2026-03-28T14:45:23.001Z</time></trkpt><trkpt lat="46.19359324151952" lon="13.439243516148874"><ele>648.5</ele><time>2026-03-28T14:45:25.001Z</time></trkpt><trkpt lat="46.19351783782937" lon="13.43920077903797"><ele>647.0</ele><time>2026-03-28T14:45:27.001Z</time></trkpt><trkpt lat="46.19341718275803" lon="13.43915533737044"><ele>647.0</ele><time>2026-03-28T14:45:29.001Z</time></trkpt><trkpt lat="46.19333994150664" lon="13.439027191197114"><ele>647.0</ele><time>2026-03-28T14:45:31.001Z</time></trkpt><trkpt lat="46.19328586667334" lon="13.438904291391482"><ele>647.0</ele><time>2026-03-28T14:45:32.001Z</time></trkpt><trkpt lat="46.19321391239172" lon="13.438822950843567"><ele>647.0</ele><time>2026-03-28T14:45:33.001Z</time></trkpt><trkpt lat="46.193116696508326" lon="13.438790049961245"><ele>647.0</ele><time>2026-03-28T14:45:34.001Z</time></trkpt><trkpt lat="46.19300800210956" lon="13.438801495602501"><ele>646.2</ele><time>2026-03-28T14:45:35.001Z</time></trkpt><trkpt lat="46.192907916736395" lon="13.438735415533817"><ele>645.4000000000001</ele><time>2026-03-28T14:45:36.001Z</time></trkpt><trkpt lat="46.19281050795192" lon="13.438654262361966"><ele>644.5999999999999</ele><time>2026-03-28T14:45:37.001Z</time></trkpt><trkpt lat="46.192720659219866" lon="13.438560589074154"><ele>643.8</ele><time>2026-03-28T14:45:38.001Z</time></trkpt><trkpt lat="46.19263040313518" lon="13.438472004581055"><ele>643.0</ele><time>2026-03-28T14:45:39.001Z</time></trkpt><trkpt lat="46.192542078969254" lon="13.438400634227254"><ele>643.0</ele><time>2026-03-28T14:45:40.001Z</time></trkpt><trkpt lat="46.192465928534425" lon="13.438337707523699"><ele>643.0</ele><time>2026-03-28T14:45:41.001Z</time></trkpt><trkpt lat="46.19240807645308" lon="13.438262312941909"><ele>643.0</ele><time>2026-03-28T14:45:42.001Z</time></trkpt><trkpt lat="46.192361845379764" lon="13.43817933817344"><ele>643.0</ele><time>2026-03-28T14:45:43.001Z</time></trkpt><trkpt lat="46.19233212423177" lon="13.43809690487053"><ele>643.0</ele><time>2026-03-28T14:45:44.001Z</time></trkpt><trkpt lat="46.19240762737005" lon="13.438299192220308"><ele>643.0</ele><time>2026-03-28T14:47:43.001Z</time></trkpt><trkpt lat="46.192343994675156" lon="13.43838733913632"><ele>643.0</ele><time>2026-03-28T14:47:45.001Z</time></trkpt><trkpt lat="46.19227623636635" lon="13.43835530472602"><ele>643.0</ele><time>2026-03-28T14:47:47.001Z</time></trkpt><trkpt lat="46.19219720472311" lon="13.438262795911767"><ele>643.0</ele><time>2026-03-28T14:47:49.001Z</time></trkpt><trkpt lat="46.192106622949886" lon="13.438151619078988"><ele>643.0</ele><time>2026-03-28T14:47:51.001Z</time></trkpt><trkpt lat="46.19209484534898" lon="13.438043575290852"><ele>644.4285714285714</ele><time>2026-03-28T14:47:53.001Z</time></trkpt><trkpt lat="46.192099716114534" lon="13.43795274513659"><ele>645.8571428571429</ele><time>2026-03-28T14:47:56.001Z</time></trkpt><trkpt lat="46.192113538680275" lon="13.437862084420376"><ele>647.2857142857143</ele><time>2026-03-28T14:48:27.001Z</time></trkpt><trkpt lat="46.19213536474647" lon="13.437774186823532"><ele>648.7142857142858</ele><time>2026-03-28T14:48:32.001Z</time></trkpt><trkpt lat="46.19207277567257" lon="13.437738343635504"><ele>650.1428571428571</ele><time>2026-03-28T14:48:38.001Z</time></trkpt><trkpt lat="46.19200993169254" lon="13.437693614898809"><ele>651.5714285714287</ele><time>2026-03-28T14:50:48.001Z</time></trkpt><trkpt lat="46.191963503810015" lon="13.437628678001447"><ele>653.0</ele><time>2026-03-28T14:51:00Z</time></trkpt><trkpt lat="46.191856803997" lon="13.437612447363753"><ele>653.0</ele><time>2026-03-28T14:52:36.001Z</time></trkpt><trkpt lat="46.19177010398558" lon="13.437593088272251"><ele>653.0</ele><time>2026-03-28T14:52:38Z</time></trkpt><trkpt lat="46.191719745376155" lon="13.437648835188302"><ele>653.0</ele><time>2026-03-28T14:52:40Z</time></trkpt><trkpt lat="46.191697798901004" lon="13.43776581242275"><ele>653.0</ele><time>2026-03-28T14:52:44Z</time></trkpt><trkpt lat="46.19172091611293" lon="13.437869521572738"><ele>653.0</ele><time>2026-03-28T14:52:48Z</time></trkpt><trkpt lat="46.19173016456673" lon="13.438045217475873"><ele>653.0</ele><time>2026-03-28T14:53:25Z</time></trkpt><trkpt lat="46.19171902523759" lon="13.438160460551593"><ele>651.3333333333333</ele><time>2026-03-28T14:53:26Z</time></trkpt><trkpt lat="46.19172223186865" lon="13.43827125779713"><ele>649.6666666666666</ele><time>2026-03-28T14:53:27Z</time></trkpt><trkpt lat="46.1917339127556" lon="13.438378419177884"><ele>648.0</ele><time>2026-03-28T14:53:28Z</time></trkpt><trkpt lat="46.19173224255051" lon="13.438500427852551"><ele>646.3333333333334</ele><time>2026-03-28T14:53:29Z</time></trkpt><trkpt lat="46.191731637370594" lon="13.438626723904434"><ele>644.6666666666667</ele><time>2026-03-28T14:53:30Z</time></trkpt><trkpt lat="46.19171968699712" lon="13.43874490929513"><ele>643.0</ele><time>2026-03-28T14:53:31Z</time></trkpt><trkpt lat="46.19169360490804" lon="13.438858580217042"><ele>642.6666666666667</ele><time>2026-03-28T14:53:32Z</time></trkpt><trkpt lat="46.19169210377934" lon="13.438975834724008"><ele>642.3333333333334</ele><time>2026-03-28T14:53:33Z</time></trkpt><trkpt lat="46.19169747847088" lon="13.439072898779747"><ele>642.0</ele><time>2026-03-28T14:53:34Z</time></trkpt><trkpt lat="46.19168414287198" lon="13.43920185050482"><ele>641.6666666666666</ele><time>2026-03-28T14:53:35Z</time></trkpt><trkpt lat="46.19168867996978" lon="13.439325034375218"><ele>641.3333333333333</ele><time>2026-03-28T14:53:36Z</time></trkpt><trkpt lat="46.19170638735259" lon="13.439415556954502"><ele>641.0</ele><time>2026-03-28T14:53:37Z</time></trkpt><trkpt lat="46.19167285505653" lon="13.439502245358511"><ele>641.0</ele><time>2026-03-28T14:53:39Z</time></trkpt><trkpt lat="46.19170062037138" lon="13.439593647257945"><ele>641.0</ele><time>2026-03-28T14:53:41Z</time></trkpt><trkpt lat="46.19175401172407" lon="13.439714905112965"><ele>641.0</ele><time>2026-03-28T14:53:44Z</time></trkpt><trkpt lat="46.19181978067871" lon="13.439781942787757"><ele>641.0</ele><time>2026-03-28T14:53:45Z</time></trkpt><trkpt lat="46.19189632147581" lon="13.439918989707325"><ele>641.0</ele><time>2026-03-28T14:53:47Z</time></trkpt><trkpt lat="46.191940932816195" lon="13.440060679044183"><ele>642.0</ele><time>2026-03-28T14:53:49Z</time></trkpt><trkpt lat="46.19199571573129" lon="13.440210841792096"><ele>643.0</ele><time>2026-03-28T14:53:51Z</time></trkpt><trkpt lat="46.19202217885445" lon="13.44029397676451"><ele>644.0</ele><time>2026-03-28T14:53:52Z</time></trkpt><trkpt lat="46.192056334572825" lon="13.440382838770764"><ele>645.0</ele><time>2026-03-28T14:53:53Z</time></trkpt><trkpt lat="46.1920951981242" lon="13.440480668820966"><ele>646.0</ele><time>2026-03-28T14:53:54Z</time></trkpt><trkpt lat="46.19212766828515" lon="13.440597088587609"><ele>647.0</ele><time>2026-03-28T14:53:55Z</time></trkpt><trkpt lat="46.19214845967121" lon="13.440718510096328"><ele>647.1666666666666</ele><time>2026-03-28T14:53:56Z</time></trkpt><trkpt lat="46.19218635985611" lon="13.440842302498897"><ele>647.3333333333333</ele><time>2026-03-28T14:53:57Z</time></trkpt><trkpt lat="46.19222577863008" lon="13.440960940335483"><ele>647.5</ele><time>2026-03-28T14:53:58Z</time></trkpt><trkpt lat="46.19228213024674" lon="13.441061643589743"><ele>647.6666666666666</ele><time>2026-03-28T14:53:59Z</time></trkpt><trkpt lat="46.19232504264976" lon="13.44115787837471"><ele>647.8333333333334</ele><time>2026-03-28T14:54:00Z</time></trkpt><trkpt lat="46.19237401016548" lon="13.441235407690739"><ele>648.0</ele><time>2026-03-28T14:54:01Z</time></trkpt><trkpt lat="46.192394272688624" lon="13.441332006104972"><ele>648.0</ele><time>2026-03-28T14:54:02Z</time></trkpt><trkpt lat="46.192442812944975" lon="13.441432547358673"><ele>648.0</ele><time>2026-03-28T14:54:03Z</time></trkpt><trkpt lat="46.19248866548052" lon="13.44153328323769"><ele>648.0</ele><time>2026-03-28T14:54:04Z</time></trkpt><trkpt lat="46.192536499687904" lon="13.441630238891998"><ele>648.0</ele><time>2026-03-28T14:54:05Z</time></trkpt><trkpt lat="46.1925821864654" lon="13.441729664174591"><ele>648.0</ele><time>2026-03-28T14:54:06Z</time></trkpt><trkpt lat="46.19262590489609" lon="13.441821932182695"><ele>648.0</ele><time>2026-03-28T14:54:07Z</time></trkpt><trkpt lat="46.19265853911764" lon="13.44190460106791"><ele>648.0</ele><time>2026-03-28T14:54:08Z</time></trkpt><trkpt lat="46.19276830859455" lon="13.44203034388142"><ele>648.0</ele><time>2026-03-28T14:54:10Z</time></trkpt><trkpt lat="46.1928178648185" lon="13.442133985407173"><ele>648.0</ele><time>2026-03-28T14:54:11Z</time></trkpt><trkpt lat="46.1928544063119" lon="13.442227027615713"><ele>648.0</ele><time>2026-03-28T14:54:12Z</time></trkpt><trkpt lat="46.192885262951194" lon="13.442337871992919"><ele>648.0</ele><time>2026-03-28T14:54:13Z</time></trkpt><trkpt lat="46.19290338347101" lon="13.442456170162398"><ele>649.3333333333334</ele><time>2026-03-28T14:54:14Z</time></trkpt><trkpt lat="46.1928891594661" lon="13.442573868499554"><ele>650.6666666666666</ele><time>2026-03-28T14:54:15Z</time></trkpt><trkpt lat="46.192887387190865" lon="13.442703102918083"><ele>652.0</ele><time>2026-03-28T14:54:16Z</time></trkpt><trkpt lat="46.192877990752386" lon="13.442837613923944"><ele>653.3333333333333</ele><time>2026-03-28T14:54:17Z</time></trkpt><trkpt lat="46.19287912166695" lon="13.44295431236032"><ele>654.6666666666666</ele><time>2026-03-28T14:54:18Z</time></trkpt><trkpt lat="46.19288478487465" lon="13.443085157253146"><ele>656.0</ele><time>2026-03-28T14:54:19Z</time></trkpt><trkpt lat="46.192893434844095" lon="13.443210272541796"><ele>658.0</ele><time>2026-03-28T14:54:20Z</time></trkpt><trkpt lat="46.19289459624212" lon="13.44332637583034"><ele>660.0</ele><time>2026-03-28T14:54:21Z</time></trkpt><trkpt lat="46.19290169494103" lon="13.443456516877864"><ele>662.0</ele><time>2026-03-28T14:54:22Z</time></trkpt><trkpt lat="46.19292531208806" lon="13.443562154998471"><ele>664.0</ele><time>2026-03-28T14:54:23Z</time></trkpt><trkpt lat="46.19292368139969" lon="13.443668477429863"><ele>666.0</ele><time>2026-03-28T14:54:24Z</time></trkpt><trkpt lat="46.192885956582515" lon="13.443768824778378"><ele>668.0</ele><time>2026-03-28T14:54:25Z</time></trkpt><trkpt lat="46.19286335069079" lon="13.443872603328606"><ele>668.5</ele><time>2026-03-28T14:54:26Z</time></trkpt><trkpt lat="46.192858518557024" lon="13.443980563103526"><ele>669.0</ele><time>2026-03-28T14:54:27Z</time></trkpt><trkpt lat="46.192878514569166" lon="13.444092710854683"><ele>669.5</ele><time>2026-03-28T14:54:28Z</time></trkpt><trkpt lat="46.19290780291378" lon="13.444198805765248"><ele>670.0</ele><time>2026-03-28T14:54:29Z</time></trkpt><trkpt lat="46.19294183162958" lon="13.444288051683927"><ele>670.5</ele><time>2026-03-28T14:54:30Z</time></trkpt><trkpt lat="46.1929877309843" lon="13.444382426300379"><ele>671.0</ele><time>2026-03-28T14:54:31Z</time></trkpt><trkpt lat="46.19299698338698" lon="13.444497715353798"><ele>671.0</ele><time>2026-03-28T14:54:32Z</time></trkpt><trkpt lat="46.193025929481834" lon="13.444605936003338"><ele>671.0</ele><time>2026-03-28T14:54:33Z</time></trkpt><trkpt lat="46.19304009765327" lon="13.444706701147505"><ele>671.0</ele><time>2026-03-28T14:54:34Z</time></trkpt><trkpt lat="46.1930921731106" lon="13.444870076070261"><ele>671.0</ele><time>2026-03-28T14:54:36Z</time></trkpt><trkpt lat="46.19304962429965" lon="13.4449402921055"><ele>671.0</ele><time>2026-03-28T14:54:38Z</time></trkpt><trkpt lat="46.192992794665244" lon="13.444898879669966"><ele>671.0</ele><time>2026-03-28T14:54:40Z</time></trkpt><trkpt lat="46.19292438746766" lon="13.4447384920623"><ele>671.0</ele><time>2026-03-28T14:54:42Z</time></trkpt><trkpt lat="46.19284814123654" lon="13.444600881000376"><ele>671.0</ele><time>2026-03-28T14:54:44Z</time></trkpt><trkpt lat="46.192791229358804" lon="13.444534196777415"><ele>671.0</ele><time>2026-03-28T14:54:45Z</time></trkpt><trkpt lat="46.19272729071834" lon="13.444478563104651"><ele>671.0</ele><time>2026-03-28T14:54:46Z</time></trkpt><trkpt lat="46.1926713911641" lon="13.444409110960926"><ele>671.0</ele><time>2026-03-28T14:54:47Z</time></trkpt><trkpt lat="46.19260993727605" lon="13.444334648794474"><ele>671.0</ele><time>2026-03-28T14:54:48Z</time></trkpt><trkpt lat="46.19255998463997" lon="13.44426995438485"><ele>671.0</ele><time>2026-03-28T14:54:49Z</time></trkpt><trkpt lat="46.192521544598364" lon="13.444194365872454"><ele>671.0</ele><time>2026-03-28T14:54:50Z</time></trkpt><trkpt lat="46.19247574564503" lon="13.444106477407782"><ele>671.0</ele><time>2026-03-28T14:54:51Z</time></trkpt><trkpt lat="46.19241857190725" lon="13.444026009032816"><ele>671.0</ele><time>2026-03-28T14:54:52Z</time></trkpt><trkpt lat="46.19237187997485" lon="13.44387994644092"><ele>671.0</ele><time>2026-03-28T14:54:54Z</time></trkpt><trkpt lat="46.192312129188686" lon="13.443915375700024"><ele>671.0</ele><time>2026-03-28T14:54:56Z</time></trkpt><trkpt lat="46.19225788431859" lon="13.443997383640848"><ele>671.0</ele><time>2026-03-28T14:54:59Z</time></trkpt><trkpt lat="46.19231053530358" lon="13.444159989778923"><ele>671.0</ele><time>2026-03-28T14:55:01Z</time></trkpt><trkpt lat="46.19234637095088" lon="13.44424734292578"><ele>671.0</ele><time>2026-03-28T14:55:02Z</time></trkpt><trkpt lat="46.19236625127126" lon="13.444385205155717"><ele>671.0</ele><time>2026-03-28T14:55:04Z</time></trkpt><trkpt lat="46.19236317905179" lon="13.444514992388559"><ele>671.0</ele><time>2026-03-28T14:55:05Z</time></trkpt><trkpt lat="46.19236581724603" lon="13.44462627761791"><ele>672.1666666666666</ele><time>2026-03-28T14:55:06Z</time></trkpt><trkpt lat="46.192350252219725" lon="13.444729893454435"><ele>673.3333333333333</ele><time>2026-03-28T14:55:07Z</time></trkpt><trkpt lat="46.19235740603857" lon="13.444834746922398"><ele>674.5</ele><time>2026-03-28T14:55:08Z</time></trkpt><trkpt lat="46.19232148335171" lon="13.44491715120326"><ele>675.6666666666666</ele><time>2026-03-28T14:55:09Z</time></trkpt><trkpt lat="46.19227439823385" lon="13.44501668038283"><ele>676.8333333333334</ele><time>2026-03-28T14:55:10Z</time></trkpt><trkpt lat="46.19222197026113" lon="13.445121601937384"><ele>678.0</ele><time>2026-03-28T14:55:11Z</time></trkpt><trkpt lat="46.192157918347625" lon="13.44522821151956"><ele>681.5999999999999</ele><time>2026-03-28T14:55:12Z</time></trkpt><trkpt lat="46.192089959063765" lon="13.445333551782548"><ele>685.1999999999999</ele><time>2026-03-28T14:55:13Z</time></trkpt><trkpt lat="46.192057138542665" lon="13.445425359888073"><ele>688.8</ele><time>2026-03-28T14:55:14Z</time></trkpt><trkpt lat="46.19202877411583" lon="13.44561027235703"><ele>692.4</ele><time>2026-03-28T14:55:16Z</time></trkpt><trkpt lat="46.192045710725196" lon="13.445702157090759"><ele>696.0</ele><time>2026-03-28T14:55:17Z</time></trkpt><trkpt lat="46.192064769689345" lon="13.445871299255137"><ele>696.0</ele><time>2026-03-28T14:55:19Z</time></trkpt><trkpt lat="46.19204282092353" lon="13.445981898490897"><ele>696.0</ele><time>2026-03-28T14:55:20Z</time></trkpt><trkpt lat="46.19205082878726" lon="13.446073252896628"><ele>696.0</ele><time>2026-03-28T14:55:21Z</time></trkpt><trkpt lat="46.192020717118325" lon="13.446176459608116"><ele>696.0</ele><time>2026-03-28T14:55:22Z</time></trkpt><trkpt lat="46.19201822100239" lon="13.446273162367254"><ele>696.0</ele><time>2026-03-28T14:55:23Z</time></trkpt><trkpt lat="46.19195904548869" lon="13.44639934033732"><ele>696.0</ele><time>2026-03-28T14:55:25Z</time></trkpt><trkpt lat="46.191906422702786" lon="13.446449634432936"><ele>696.0</ele><time>2026-03-28T14:55:26Z</time></trkpt><trkpt lat="46.19184666663732" lon="13.446519358171585"><ele>696.0</ele><time>2026-03-28T14:55:27Z</time></trkpt><trkpt lat="46.19178642377223" lon="13.446592912329221"><ele>696.0</ele><time>2026-03-28T14:55:28Z</time></trkpt><trkpt lat="46.191683072258755" lon="13.446681847546804"><ele>696.0</ele><time>2026-03-28T14:55:30Z</time></trkpt><trkpt lat="46.19163901608594" lon="13.44678083499649"><ele>696.0</ele><time>2026-03-28T14:55:31Z</time></trkpt><trkpt lat="46.19163489859192" lon="13.446894712255617"><ele>696.0</ele><time>2026-03-28T14:55:33Z</time></trkpt><trkpt lat="46.19169047823322" lon="13.446994312939232"><ele>696.0</ele><time>2026-03-28T14:55:35Z</time></trkpt><trkpt lat="46.191777394482855" lon="13.447026833546126"><ele>696.0</ele><time>2026-03-28T14:55:38Z</time></trkpt><trkpt lat="46.19182283119154" lon="13.447091591272"><ele>696.0</ele><time>2026-03-28T14:55:40Z</time></trkpt><trkpt lat="46.19189224663905" lon="13.44719316901549"><ele>696.0</ele><time>2026-03-28T14:55:42Z</time></trkpt><trkpt lat="46.19195754919145" lon="13.44726442298247"><ele>696.0</ele><time>2026-03-28T14:55:45Z</time></trkpt><trkpt lat="46.19198838153947" lon="13.447366762329553"><ele>696.0</ele><time>2026-03-28T14:55:57.999Z</time></trkpt><trkpt lat="46.19202813142672" lon="13.447443139331778"><ele>697.0</ele><time>2026-03-28T14:55:58.999Z</time></trkpt><trkpt lat="46.19202829890877" lon="13.447626604343101"><ele>698.0</ele><time>2026-03-28T14:56:00.999Z</time></trkpt><trkpt lat="46.192019159947726" lon="13.447748825926478"><ele>699.0</ele><time>2026-03-28T14:56:01.999Z</time></trkpt><trkpt lat="46.19199470952548" lon="13.447862628030915"><ele>700.0</ele><time>2026-03-28T14:56:02.999Z</time></trkpt><trkpt lat="46.19195908406856" lon="13.447959251593582"><ele>701.0</ele><time>2026-03-28T14:56:03.999Z</time></trkpt><trkpt lat="46.19191204547822" lon="13.44804696241289"><ele>702.0</ele><time>2026-03-28T14:56:04.999Z</time></trkpt><trkpt lat="46.191850941061354" lon="13.448170009268994"><ele>702.4000000000001</ele><time>2026-03-28T14:56:06.999Z</time></trkpt><trkpt lat="46.19177720915156" lon="13.448255291217691"><ele>702.8000000000001</ele><time>2026-03-28T14:56:09.999Z</time></trkpt><trkpt lat="46.19172381935483" lon="13.448351858287042"><ele>703.2</ele><time>2026-03-28T14:56:13.999Z</time></trkpt><trkpt lat="46.19171454246501" lon="13.448455603563872"><ele>703.6</ele><time>2026-03-28T14:57:08Z</time></trkpt><trkpt lat="46.19167126539573" lon="13.448641235915787"><ele>704.0</ele><time>2026-03-28T14:57:10Z</time></trkpt><trkpt lat="46.19163632647708" lon="13.448739016606723"><ele>703.3333333333333</ele><time>2026-03-28T14:57:11Z</time></trkpt><trkpt lat="46.19162090788868" lon="13.448832812269183"><ele>702.6666666666666</ele><time>2026-03-28T14:57:12Z</time></trkpt><trkpt lat="46.191584777136846" lon="13.448914059359387"><ele>702.0</ele><time>2026-03-28T14:57:13Z</time></trkpt><trkpt lat="46.19155549894944" lon="13.449006972664707"><ele>701.3333333333334</ele><time>2026-03-28T14:57:14Z</time></trkpt><trkpt lat="46.19155759741117" lon="13.449135463229313"><ele>700.6666666666667</ele><time>2026-03-28T14:57:16Z</time></trkpt><trkpt lat="46.19156020897181" lon="13.449273117082022"><ele>700.0</ele><time>2026-03-28T14:57:17Z</time></trkpt><trkpt lat="46.191562969862375" lon="13.44937625114263"><ele>700.0</ele><time>2026-03-28T14:57:18Z</time></trkpt><trkpt lat="46.191609487971945" lon="13.449539420821825"><ele>700.0</ele><time>2026-03-28T14:57:20Z</time></trkpt><trkpt lat="46.191638876624424" lon="13.449678473887968"><ele>700.0</ele><time>2026-03-28T14:57:22Z</time></trkpt><trkpt lat="46.19162821713414" lon="13.449777848065157"><ele>700.0</ele><time>2026-03-28T14:57:23.999Z</time></trkpt><trkpt lat="46.191526826650964" lon="13.449769786545245"><ele>700.0</ele><time>2026-03-28T14:57:26.999Z</time></trkpt><trkpt lat="46.19148219511737" lon="13.449652801680232"><ele>697.2</ele><time>2026-03-28T14:57:28.999Z</time></trkpt><trkpt lat="46.19145315008739" lon="13.449493147077876"><ele>694.4</ele><time>2026-03-28T14:57:30.999Z</time></trkpt><trkpt lat="46.19141784472751" lon="13.449357635029537"><ele>691.5999999999999</ele><time>2026-03-28T14:57:32.999Z</time></trkpt><trkpt lat="46.19134236626557" lon="13.449324572386487"><ele>688.8</ele><time>2026-03-28T14:57:34.999Z</time></trkpt><trkpt lat="46.19128868245725" lon="13.449424858547529"><ele>686.0</ele><time>2026-03-28T14:57:36.999Z</time></trkpt><trkpt lat="46.19127388949417" lon="13.449574707264645"><ele>683.8</ele><time>2026-03-28T14:57:38.999Z</time></trkpt><trkpt lat="46.19126169175363" lon="13.449769928085638"><ele>681.5999999999999</ele><time>2026-03-28T14:57:40.999Z</time></trkpt><trkpt lat="46.19124638709991" lon="13.44986961034941"><ele>679.4</ele><time>2026-03-28T14:57:41.999Z</time></trkpt><trkpt lat="46.19123390534992" lon="13.44999157835787"><ele>677.2</ele><time>2026-03-28T14:57:42.999Z</time></trkpt><trkpt lat="46.191211754893544" lon="13.450083941243568"><ele>675.0</ele><time>2026-03-28T14:57:43.999Z</time></trkpt><trkpt lat="46.191174168394284" lon="13.450214573021876"><ele>675.0</ele><time>2026-03-28T14:57:45.999Z</time></trkpt><trkpt lat="46.1911448439747" lon="13.450361273558459"><ele>675.0</ele><time>2026-03-28T14:57:47.999Z</time></trkpt><trkpt lat="46.191127419496546" lon="13.450476888349286"><ele>675.0</ele><time>2026-03-28T14:57:48.999Z</time></trkpt><trkpt lat="46.19112736871373" lon="13.450572971780964"><ele>675.0</ele><time>2026-03-28T14:57:49.999Z</time></trkpt><trkpt lat="46.191117919175454" lon="13.450674867089806"><ele>675.0</ele><time>2026-03-28T14:57:50.999Z</time></trkpt><trkpt lat="46.19111080126937" lon="13.450772287912715"><ele>675.0</ele><time>2026-03-28T14:57:51.999Z</time></trkpt><trkpt lat="46.191097877132094" lon="13.450885458472014"><ele>674.2857142857142</ele><time>2026-03-28T14:57:52.999Z</time></trkpt><trkpt lat="46.19108400190447" lon="13.450999500897563"><ele>673.5714285714286</ele><time>2026-03-28T14:57:53.999Z</time></trkpt><trkpt lat="46.191075057771315" lon="13.451105823232094"><ele>672.8571428571429</ele><time>2026-03-28T14:57:54.999Z</time></trkpt><trkpt lat="46.19107399887302" lon="13.451202864891503"><ele>672.1428571428571</ele><time>2026-03-28T14:57:55.999Z</time></trkpt><trkpt lat="46.1910582838407" lon="13.451292208395596"><ele>671.4285714285714</ele><time>2026-03-28T14:57:56.999Z</time></trkpt><trkpt lat="46.19103541049667" lon="13.451384447642255"><ele>670.7142857142857</ele><time>2026-03-28T14:57:57.999Z</time></trkpt><trkpt lat="46.191026044833265" lon="13.451484518111547"><ele>670.0</ele><time>2026-03-28T14:57:58.999Z</time></trkpt><trkpt lat="46.191014785811426" lon="13.451661015732096"><ele>669.9999999999999</ele><time>2026-03-28T14:58:00.999Z</time></trkpt><trkpt lat="46.190990048416516" lon="13.451759772355492"><ele>670.0</ele><time>2026-03-28T14:58:01.999Z</time></trkpt><trkpt lat="46.19098625565328" lon="13.451867231433392"><ele>670.0</ele><time>2026-03-28T14:58:02.999Z</time></trkpt><trkpt lat="46.190973695389104" lon="13.451986548978635"><ele>670.0</ele><time>2026-03-28T14:58:03.999Z</time></trkpt><trkpt lat="46.190960788103276" lon="13.452081467800472"><ele>670.0</ele><time>2026-03-28T14:58:04.999Z</time></trkpt><trkpt lat="46.19095071362293" lon="13.45218221417743"><ele>669.9999999999999</ele><time>2026-03-28T14:58:05.999Z</time></trkpt><trkpt lat="46.19094038395653" lon="13.452278482485312"><ele>670.0</ele><time>2026-03-28T14:58:06.999Z</time></trkpt><trkpt lat="46.19092976155739" lon="13.452371543700181"><ele>670.6</ele><time>2026-03-28T14:58:07.999Z</time></trkpt><trkpt lat="46.19092266722063" lon="13.452469013050543"><ele>671.2</ele><time>2026-03-28T14:58:08.999Z</time></trkpt><trkpt lat="46.19090442359024" lon="13.452657771387042"><ele>671.8</ele><time>2026-03-28T14:58:10.999Z</time></trkpt><trkpt lat="46.19087411463769" lon="13.452754054260568"><ele>672.4</ele><time>2026-03-28T14:58:11.999Z</time></trkpt><trkpt lat="46.19091764675386" lon="13.452911064333701"><ele>673.0</ele><time>2026-03-28T14:58:13.999Z</time></trkpt><trkpt lat="46.190959833842236" lon="13.453010684062251"><ele>674.8</ele><time>2026-03-28T14:58:14.999Z</time></trkpt><trkpt lat="46.19100722244143" lon="13.453096608664815"><ele>676.5999999999999</ele><time>2026-03-28T14:58:15.999Z</time></trkpt><trkpt lat="46.191048275497174" lon="13.453195096644812"><ele>678.4000000000001</ele><time>2026-03-28T14:58:16.999Z</time></trkpt><trkpt lat="46.191115146044595" lon="13.453346388813351"><ele>680.2</ele><time>2026-03-28T14:58:18.999Z</time></trkpt><trkpt lat="46.191207294544085" lon="13.453417837434852"><ele>682.0</ele><time>2026-03-28T14:58:19.999Z</time></trkpt><trkpt lat="46.19128047973676" lon="13.453463421058446"><ele>682.0</ele><time>2026-03-28T14:58:20.999Z</time></trkpt><trkpt lat="46.19136183772236" lon="13.45350790491712"><ele>682.0</ele><time>2026-03-28T14:58:21.999Z</time></trkpt><trkpt lat="46.191432239317294" lon="13.453555731044945"><ele>682.0</ele><time>2026-03-28T14:58:22.999Z</time></trkpt><trkpt lat="46.191496835834336" lon="13.453590765589325"><ele>682.0</ele><time>2026-03-28T14:58:23.999Z</time></trkpt><trkpt lat="46.19155392804629" lon="13.453652042450326"><ele>682.0</ele><time>2026-03-28T14:58:24.999Z</time></trkpt><trkpt lat="46.19160581145761" lon="13.453736135713282"><ele>682.0</ele><time>2026-03-28T14:58:25.999Z</time></trkpt><trkpt lat="46.19165846466656" lon="13.45380636289119"><ele>682.6666666666667</ele><time>2026-03-28T14:58:26.999Z</time></trkpt><trkpt lat="46.191698435206085" lon="13.453878143646993"><ele>683.3333333333334</ele><time>2026-03-28T14:58:27.999Z</time></trkpt><trkpt lat="46.1917537806756" lon="13.453956715581738"><ele>684.0</ele><time>2026-03-28T14:58:28.999Z</time></trkpt><trkpt lat="46.191805816649904" lon="13.454026644304642"><ele>684.6666666666666</ele><time>2026-03-28T14:58:29.999Z</time></trkpt><trkpt lat="46.19186766012188" lon="13.454122544736759"><ele>685.3333333333333</ele><time>2026-03-28T14:58:30.999Z</time></trkpt><trkpt lat="46.19192928055138" lon="13.454195229452221"><ele>686.0</ele><time>2026-03-28T14:58:31.999Z</time></trkpt><trkpt lat="46.19197644766944" lon="13.454270664177878"><ele>686.0</ele><time>2026-03-28T14:58:33Z</time></trkpt><trkpt lat="46.192020592412696" lon="13.454338263778904"><ele>686.0</ele><time>2026-03-28T14:58:34Z</time></trkpt><trkpt lat="46.192064677643074" lon="13.454443953515245"><ele>686.0</ele><time>2026-03-28T14:58:35Z</time></trkpt><trkpt lat="46.19211074047184" lon="13.454543001195372"><ele>686.0</ele><time>2026-03-28T14:58:36Z</time></trkpt><trkpt lat="46.19215640402284" lon="13.454613844925598"><ele>686.0</ele><time>2026-03-28T14:58:37Z</time></trkpt><trkpt lat="46.192213026215576" lon="13.454662867538728"><ele>686.0</ele><time>2026-03-28T14:58:38Z</time></trkpt><trkpt lat="46.192277539169744" lon="13.454724402493987"><ele>686.0</ele><time>2026-03-28T14:58:39Z</time></trkpt><trkpt lat="46.19232487958118" lon="13.454796186840271"><ele>687.0</ele><time>2026-03-28T14:58:40Z</time></trkpt><trkpt lat="46.192364722456624" lon="13.454883561488131"><ele>688.0</ele><time>2026-03-28T14:58:41Z</time></trkpt><trkpt lat="46.19240380705115" lon="13.454962986428997"><ele>689.0</ele><time>2026-03-28T14:58:42Z</time></trkpt><trkpt lat="46.19245164357176" lon="13.455048874043472"><ele>690.0</ele><time>2026-03-28T14:58:43Z</time></trkpt><trkpt lat="46.19251372713914" lon="13.455123798346284"><ele>691.0</ele><time>2026-03-28T14:58:44Z</time></trkpt><trkpt lat="46.19256653252344" lon="13.455226166655118"><ele>692.0</ele><time>2026-03-28T14:58:45Z</time></trkpt><trkpt lat="46.192603751103455" lon="13.455324357334264"><ele>692.0</ele><time>2026-03-28T14:58:46Z</time></trkpt><trkpt lat="46.19264436587594" lon="13.455435303384014"><ele>692.0</ele><time>2026-03-28T14:58:47Z</time></trkpt><trkpt lat="46.192674391158896" lon="13.455536168655808"><ele>692.0</ele><time>2026-03-28T14:58:48Z</time></trkpt><trkpt lat="46.19270927530913" lon="13.455614932508206"><ele>692.0</ele><time>2026-03-28T14:58:49Z</time></trkpt><trkpt lat="46.192719860475115" lon="13.455830665490113"><ele>692.0</ele><time>2026-03-28T14:58:51Z</time></trkpt><trkpt lat="46.19274457155465" lon="13.45593866189452"><ele>697.0</ele><time>2026-03-28T14:58:52Z</time></trkpt><trkpt lat="46.19282045006038" lon="13.456017609510624"><ele>702.0</ele><time>2026-03-28T14:58:53Z</time></trkpt><trkpt lat="46.192874453984516" lon="13.456112802685173"><ele>707.0</ele><time>2026-03-28T14:58:54Z</time></trkpt><trkpt lat="46.19293032519681" lon="13.456210288605451"><ele>712.0</ele><time>2026-03-28T14:58:55Z</time></trkpt><trkpt lat="46.192961766971685" lon="13.45631068223296"><ele>717.0</ele><time>2026-03-28T14:58:56Z</time></trkpt><trkpt lat="46.193060644198816" lon="13.45643132686108"><ele>715.4285714285714</ele><time>2026-03-28T14:58:58Z</time></trkpt><trkpt lat="46.19311949738025" lon="13.456505598521371"><ele>713.8571428571429</ele><time>2026-03-28T14:58:59Z</time></trkpt><trkpt lat="46.19317174900862" lon="13.456573620661926"><ele>712.2857142857142</ele><time>2026-03-28T14:59:00Z</time></trkpt><trkpt lat="46.19321682836827" lon="13.456657599789587"><ele>710.7142857142858</ele><time>2026-03-28T14:59:01Z</time></trkpt><trkpt lat="46.193245458372125" lon="13.456748934752033"><ele>709.1428571428572</ele><time>2026-03-28T14:59:02Z</time></trkpt><trkpt lat="46.193262345061" lon="13.456859875952203"><ele>707.5714285714286</ele><time>2026-03-28T14:59:03Z</time></trkpt><trkpt lat="46.19326901972931" lon="13.456972804848215"><ele>706.0</ele><time>2026-03-28T14:59:04Z</time></trkpt><trkpt lat="46.193268119184836" lon="13.457077599730914"><ele>708.4</ele><time>2026-03-28T14:59:05Z</time></trkpt><trkpt lat="46.19327252682995" lon="13.457203105823796"><ele>710.8</ele><time>2026-03-28T14:59:07Z</time></trkpt><trkpt lat="46.19324752089539" lon="13.457315031221256"><ele>713.1999999999999</ele><time>2026-03-28T14:59:41Z</time></trkpt><trkpt lat="46.19321342819673" lon="13.457450770865249"><ele>715.5999999999999</ele><time>2026-03-28T14:59:42.999Z</time></trkpt><trkpt lat="46.19320852019646" lon="13.457588321611253"><ele>718.0</ele><time>2026-03-28T14:59:44.999Z</time></trkpt><trkpt lat="46.193234163762945" lon="13.45773971557845"><ele>718.0</ele><time>2026-03-28T14:59:46.999Z</time></trkpt><trkpt lat="46.19332073706471" lon="13.457826055359368"><ele>718.0</ele><time>2026-03-28T14:59:48.999Z</time></trkpt><trkpt lat="46.193369550462485" lon="13.45788653890728"><ele>718.0</ele><time>2026-03-28T14:59:49.999Z</time></trkpt><trkpt lat="46.19342813993513" lon="13.457921829236795"><ele>718.0</ele><time>2026-03-28T14:59:50.999Z</time></trkpt><trkpt lat="46.19349238172487" lon="13.45793022019836"><ele>718.0</ele><time>2026-03-28T14:59:51.999Z</time></trkpt><trkpt lat="46.19355663721138" lon="13.457951109133022"><ele>718.0</ele><time>2026-03-28T14:59:52.999Z</time></trkpt><trkpt lat="46.19364827154043" lon="13.458025404172274"><ele>719.8333333333334</ele><time>2026-03-28T14:59:54.999Z</time></trkpt><trkpt lat="46.1936822727184" lon="13.458116211976504"><ele>721.6666666666667</ele><time>2026-03-28T14:59:56.999Z</time></trkpt><trkpt lat="46.19367154329035" lon="13.458228881615266"><ele>723.5</ele><time>2026-03-28T14:59:59.999Z</time></trkpt><trkpt lat="46.19369468701937" lon="13.458344328871577"><ele>725.3333333333334</ele><time>2026-03-28T15:07:45Z</time></trkpt><trkpt lat="46.19372558366334" lon="13.458490923924318"><ele>727.1666666666666</ele><time>2026-03-28T15:07:47Z</time></trkpt><trkpt lat="46.19373225524534" lon="13.45863245852234"><ele>729.0</ele><time>2026-03-28T15:07:49Z</time></trkpt><trkpt lat="46.193650972304276" lon="13.45870421945695"><ele>729.0</ele><time>2026-03-28T15:07:50Z</time></trkpt><trkpt lat="46.19360777383485" lon="13.458781866019905"><ele>729.0</ele><time>2026-03-28T15:07:51Z</time></trkpt><trkpt lat="46.193578339479785" lon="13.458921502964813"><ele>729.0</ele><time>2026-03-28T15:07:53Z</time></trkpt><trkpt lat="46.19356507384226" lon="13.459062450548672"><ele>729.0</ele><time>2026-03-28T15:07:55Z</time></trkpt><trkpt lat="46.19356326471003" lon="13.459159899740769"><ele>729.0</ele><time>2026-03-28T15:07:56Z</time></trkpt><trkpt lat="46.19355263229748" lon="13.459259895029547"><ele>729.0</ele><time>2026-03-28T15:07:57Z</time></trkpt><trkpt lat="46.19351107810612" lon="13.459426801412796"><ele>728.4285714285714</ele><time>2026-03-28T15:07:59Z</time></trkpt><trkpt lat="46.193487233706556" lon="13.45952162620897"><ele>727.8571428571428</ele><time>2026-03-28T15:08:00Z</time></trkpt><trkpt lat="46.19346389280533" lon="13.459620345306028"><ele>727.2857142857142</ele><time>2026-03-28T15:08:01Z</time></trkpt><trkpt lat="46.19344293304717" lon="13.459717465721043"><ele>726.7142857142858</ele><time>2026-03-28T15:08:02Z</time></trkpt><trkpt lat="46.19343159935984" lon="13.459812837200781"><ele>726.1428571428571</ele><time>2026-03-28T15:08:03Z</time></trkpt><trkpt lat="46.19344332890977" lon="13.459905378410562"><ele>725.5714285714286</ele><time>2026-03-28T15:08:04Z</time></trkpt><trkpt lat="46.19347575640266" lon="13.460032173237055"><ele>725.0</ele><time>2026-03-28T15:08:06Z</time></trkpt><trkpt lat="46.19344195856122" lon="13.460131083197197"><ele>725.4</ele><time>2026-03-28T15:08:07Z</time></trkpt><trkpt lat="46.19342375633582" lon="13.460223851508792"><ele>725.8</ele><time>2026-03-28T15:08:08Z</time></trkpt><trkpt lat="46.19336105484746" lon="13.460337099604066"><ele>726.2</ele><time>2026-03-28T15:08:10Z</time></trkpt><trkpt lat="46.19326744122848" lon="13.460409848428622"><ele>726.6</ele><time>2026-03-28T15:08:12Z</time></trkpt><trkpt lat="46.19313030756327" lon="13.460411816167333"><ele>727.0</ele><time>2026-03-28T15:08:14Z</time></trkpt><trkpt lat="46.19305269215814" lon="13.460414720466382"><ele>727.0</ele><time>2026-03-28T15:08:15Z</time></trkpt><trkpt lat="46.19298061053332" lon="13.460431486882946"><ele>727.0</ele><time>2026-03-28T15:08:16Z</time></trkpt><trkpt lat="46.19287967160561" lon="13.460500984901895"><ele>727.0</ele><time>2026-03-28T15:08:18Z</time></trkpt><trkpt lat="46.19281077374203" lon="13.460539528864494"><ele>727.0</ele><time>2026-03-28T15:08:19Z</time></trkpt><trkpt lat="46.192747189671785" lon="13.460589254907914"><ele>727.0</ele><time>2026-03-28T15:08:20Z</time></trkpt><trkpt lat="46.1926864111311" lon="13.460645227119494"><ele>727.0</ele><time>2026-03-28T15:08:21Z</time></trkpt><trkpt lat="46.19262433716992" lon="13.460676595665984"><ele>724.0</ele><time>2026-03-28T15:08:22Z</time></trkpt><trkpt lat="46.19255010452639" lon="13.460681845065794"><ele>721.0</ele><time>2026-03-28T15:08:23Z</time></trkpt><trkpt lat="46.19247715281005" lon="13.460699785829245"><ele>718.0</ele><time>2026-03-28T15:08:24Z</time></trkpt><trkpt lat="46.192352958472014" lon="13.46077546488452"><ele>715.0</ele><time>2026-03-28T15:08:26Z</time></trkpt><trkpt lat="46.1923046308082" lon="13.460877130676893"><ele>712.0</ele><time>2026-03-28T15:08:27Z</time></trkpt><trkpt lat="46.192221952748824" lon="13.461000347975816"><ele>712.0</ele><time>2026-03-28T15:08:29Z</time></trkpt><trkpt lat="46.19212783691241" lon="13.461092148514002"><ele>712.0</ele><time>2026-03-28T15:08:31Z</time></trkpt><trkpt lat="46.192035113799335" lon="13.461131497953756"><ele>712.0</ele><time>2026-03-28T15:08:32.999Z</time></trkpt><trkpt lat="46.191924783615335" lon="13.461113497477056"><ele>712.0</ele><time>2026-03-28T15:08:34.999Z</time></trkpt><trkpt lat="46.19180980423728" lon="13.461096110485416"><ele>712.0</ele><time>2026-03-28T15:08:36.999Z</time></trkpt><trkpt lat="46.191749976489376" lon="13.461125980166646"><ele>712.0</ele><time>2026-03-28T15:08:37.999Z</time></trkpt><trkpt lat="46.19169927344617" lon="13.46119672507973"><ele>712.0</ele><time>2026-03-28T15:08:38.999Z</time></trkpt><trkpt lat="46.19163931971896" lon="13.461250086971006"><ele>712.0</ele><time>2026-03-28T15:08:39.999Z</time></trkpt><trkpt lat="46.1915823700512" lon="13.461210041521108"><ele>712.0</ele><time>2026-03-28T15:08:40.999Z</time></trkpt><trkpt lat="46.191515100846495" lon="13.461292481309913"><ele>712.0</ele><time>2026-03-28T15:08:41.999Z</time></trkpt><trkpt lat="46.19144787399581" lon="13.461348318538342"><ele>712.0</ele><time>2026-03-28T15:08:42.999Z</time></trkpt><trkpt lat="46.19133039232116" lon="13.46137905616641"><ele>709.6666666666667</ele><time>2026-03-28T15:08:44.999Z</time></trkpt><trkpt lat="46.19126522877373" lon="13.461380603163995"><ele>707.3333333333334</ele><time>2026-03-28T15:08:45.999Z</time></trkpt><trkpt lat="46.1911997316727" lon="13.461380330001258"><ele>705.0</ele><time>2026-03-28T15:08:46.999Z</time></trkpt><trkpt lat="46.191130347358204" lon="13.461370900953618"><ele>702.6666666666666</ele><time>2026-03-28T15:08:47.999Z</time></trkpt><trkpt lat="46.19105901424092" lon="13.461356729474844"><ele>700.3333333333333</ele><time>2026-03-28T15:08:48.999Z</time></trkpt><trkpt lat="46.19093810827685" lon="13.46126577880975"><ele>698.0</ele><time>2026-03-28T15:08:50.999Z</time></trkpt><trkpt lat="46.190875185433654" lon="13.461197124775422"><ele>698.0</ele><time>2026-03-28T15:08:51.999Z</time></trkpt><trkpt lat="46.190813319639844" lon="13.461139374882217"><ele>698.0</ele><time>2026-03-28T15:08:52.999Z</time></trkpt><trkpt lat="46.19070376240384" lon="13.461066346882273"><ele>698.0</ele><time>2026-03-28T15:08:53.999Z</time></trkpt><trkpt lat="46.19060547822354" lon="13.46101779331849"><ele>698.0</ele><time>2026-03-28T15:08:54.999Z</time></trkpt><trkpt lat="46.19051726997698" lon="13.460996129950649"><ele>698.0</ele><time>2026-03-28T15:08:55.999Z</time></trkpt><trkpt lat="46.19042356142045" lon="13.460958519596764"><ele>695.5</ele><time>2026-03-28T15:08:56.999Z</time></trkpt><trkpt lat="46.19031203076405" lon="13.460924235045846"><ele>693.0</ele><time>2026-03-28T15:08:57.999Z</time></trkpt><trkpt lat="46.190233633099034" lon="13.460886112357725"><ele>690.5</ele><time>2026-03-28T15:08:58.999Z</time></trkpt><trkpt lat="46.19015997896963" lon="13.460834839260977"><ele>688.0</ele><time>2026-03-28T15:08:59.999Z</time></trkpt><trkpt lat="46.19008934244359" lon="13.460782780349444"><ele>685.5</ele><time>2026-03-28T15:09:00.999Z</time></trkpt><trkpt lat="46.19002482944581" lon="13.460698544685682"><ele>683.0</ele><time>2026-03-28T15:09:01.999Z</time></trkpt><trkpt lat="46.18997328303697" lon="13.460604313576592"><ele>683.0</ele><time>2026-03-28T15:09:03Z</time></trkpt><trkpt lat="46.18991625551211" lon="13.46052573181994"><ele>683.0</ele><time>2026-03-28T15:09:04Z</time></trkpt><trkpt lat="46.189843604160416" lon="13.460480888338283"><ele>683.0</ele><time>2026-03-28T15:09:05Z</time></trkpt><trkpt lat="46.18976570464003" lon="13.460434759508924"><ele>683.0</ele><time>2026-03-28T15:09:05.999Z</time></trkpt><trkpt lat="46.1896906564467" lon="13.460371014161128"><ele>683.0</ele><time>2026-03-28T15:09:07Z</time></trkpt><trkpt lat="46.18963002391373" lon="13.460288159054883"><ele>683.0</ele><time>2026-03-28T15:09:08Z</time></trkpt><trkpt lat="46.189575760612925" lon="13.460197631534284"><ele>684.5</ele><time>2026-03-28T15:09:09Z</time></trkpt><trkpt lat="46.18952468016425" lon="13.460117708691556"><ele>686.0</ele><time>2026-03-28T15:09:10Z</time></trkpt><trkpt lat="46.189440120965635" lon="13.460077332750027"><ele>687.5</ele><time>2026-03-28T15:09:12Z</time></trkpt><trkpt lat="46.189378338463456" lon="13.46009662594625"><ele>689.0</ele><time>2026-03-28T15:09:13Z</time></trkpt><trkpt lat="46.18931824234947" lon="13.460142859347597"><ele>690.5</ele><time>2026-03-28T15:09:14Z</time></trkpt><trkpt lat="46.18922119964099" lon="13.46017095283744"><ele>692.0</ele><time>2026-03-28T15:09:16Z</time></trkpt><trkpt lat="46.1891549285042" lon="13.460161995104189"><ele>692.0</ele><time>2026-03-28T15:09:17Z</time></trkpt><trkpt lat="46.18907204029329" lon="13.46009120686749"><ele>692.0</ele><time>2026-03-28T15:09:19Z</time></trkpt><trkpt lat="46.18900872021446" lon="13.460051366296188"><ele>692.0</ele><time>2026-03-28T15:09:20Z</time></trkpt><trkpt lat="46.188939998053826" lon="13.460009071054618"><ele>692.0</ele><time>2026-03-28T15:09:21Z</time></trkpt><trkpt lat="46.18888368171363" lon="13.459939994191492"><ele>692.0</ele><time>2026-03-28T15:09:22Z</time></trkpt><trkpt lat="46.18879460798008" lon="13.459872561263504"><ele>692.0</ele><time>2026-03-28T15:09:23Z</time></trkpt><trkpt lat="46.1887445284894" lon="13.459798529860088"><ele>691.0</ele><time>2026-03-28T15:09:24Z</time></trkpt><trkpt lat="46.18867382269965" lon="13.459712639601912"><ele>690.0</ele><time>2026-03-28T15:09:25Z</time></trkpt><trkpt lat="46.188606245166845" lon="13.459648990672658"><ele>689.0</ele><time>2026-03-28T15:09:26Z</time></trkpt><trkpt lat="46.18853450164961" lon="13.459606197505694"><ele>688.0</ele><time>2026-03-28T15:09:27Z</time></trkpt><trkpt lat="46.188452693805765" lon="13.459565039167444"><ele>687.0</ele><time>2026-03-28T15:09:28Z</time></trkpt><trkpt lat="46.18836168630639" lon="13.459552125884171"><ele>686.0</ele><time>2026-03-28T15:09:29Z</time></trkpt><trkpt lat="46.188272285614815" lon="13.459577623688123"><ele>686.6666666666666</ele><time>2026-03-28T15:09:30Z</time></trkpt><trkpt lat="46.188179209002776" lon="13.459612195655978"><ele>687.3333333333333</ele><time>2026-03-28T15:09:31Z</time></trkpt><trkpt lat="46.18810926597652" lon="13.459649346691089"><ele>688.0</ele><time>2026-03-28T15:09:32Z</time></trkpt><trkpt lat="46.1880217561948" lon="13.459684268037535"><ele>688.6666666666666</ele><time>2026-03-28T15:09:33Z</time></trkpt><trkpt lat="46.18794167087121" lon="13.459719951192469"><ele>689.3333333333334</ele><time>2026-03-28T15:09:34Z</time></trkpt><trkpt lat="46.187878297629474" lon="13.459758758277486"><ele>690.0</ele><time>2026-03-28T15:09:35Z</time></trkpt><trkpt lat="46.187760369331336" lon="13.459774456971244"><ele>690.0</ele><time>2026-03-28T15:09:37Z</time></trkpt><trkpt lat="46.18768769894586" lon="13.459753051448919"><ele>690.0</ele><time>2026-03-28T15:09:38Z</time></trkpt><trkpt lat="46.18760740414138" lon="13.459701014766202"><ele>690.0</ele><time>2026-03-28T15:09:39Z</time></trkpt><trkpt lat="46.18749527346035" lon="13.45960516745901"><ele>690.0</ele><time>2026-03-28T15:09:41Z</time></trkpt><trkpt lat="46.187382042032816" lon="13.45957641237905"><ele>690.0</ele><time>2026-03-28T15:09:43Z</time></trkpt><trkpt lat="46.18726236021242" lon="13.459636746136818"><ele>690.1666666666666</ele><time>2026-03-28T15:09:45Z</time></trkpt><trkpt lat="46.18717864311898" lon="13.459678292775996"><ele>690.3333333333334</ele><time>2026-03-28T15:09:46Z</time></trkpt><trkpt lat="46.1871173748435" lon="13.45970308905078"><ele>690.5</ele><time>2026-03-28T15:09:47Z</time></trkpt><trkpt lat="46.18700750913819" lon="13.459699355445064"><ele>690.6666666666667</ele><time>2026-03-28T15:09:49Z</time></trkpt><trkpt lat="46.186939216438795" lon="13.459635047893686"><ele>690.8333333333334</ele><time>2026-03-28T15:09:51Z</time></trkpt><trkpt lat="46.18687073365339" lon="13.459548075893217"><ele>691.0</ele><time>2026-03-28T15:09:54Z</time></trkpt><trkpt lat="46.18681856238391" lon="13.459451619753091"><ele>691.0</ele><time>2026-03-28T15:09:55.999Z</time></trkpt><trkpt lat="46.18677051831376" lon="13.459358703986373"><ele>691.0</ele><time>2026-03-28T15:09:57.999Z</time></trkpt><trkpt lat="46.18671870938816" lon="13.459287328503002"><ele>691.0</ele><time>2026-03-28T15:09:59.999Z</time></trkpt><trkpt lat="46.18665589805847" lon="13.459197107343831"><ele>691.0</ele><time>2026-03-28T15:10:01.999Z</time></trkpt><trkpt lat="46.1866206965583" lon="13.459095959514363"><ele>691.0</ele><time>2026-03-28T15:10:03.999Z</time></trkpt><trkpt lat="46.186605074892725" lon="13.45897893139557"><ele>691.0</ele><time>2026-03-28T15:10:05.999Z</time></trkpt><trkpt lat="46.18655819952513" lon="13.458868317193746"><ele>690.0</ele><time>2026-03-28T15:10:07.999Z</time></trkpt><trkpt lat="46.18649796354443" lon="13.458781356043996"><ele>689.0</ele><time>2026-03-28T15:10:09.999Z</time></trkpt><trkpt lat="46.18641477125123" lon="13.458683122198773"><ele>688.0</ele><time>2026-03-28T15:10:11.999Z</time></trkpt><trkpt lat="46.186324557616494" lon="13.458558508523694"><ele>687.0</ele><time>2026-03-28T15:10:13.999Z</time></trkpt><trkpt lat="46.18624543424047" lon="13.458532931454279"><ele>686.0</ele><time>2026-03-28T15:10:14.999Z</time></trkpt><trkpt lat="46.186166509035175" lon="13.458512802570038"><ele>686.0</ele><time>2026-03-28T15:10:15.999Z</time></trkpt><trkpt lat="46.18609367766408" lon="13.458494227833897"><ele>686.0</ele><time>2026-03-28T15:10:16.999Z</time></trkpt><trkpt lat="46.18603009304856" lon="13.45846927127994"><ele>686.0</ele><time>2026-03-28T15:10:17.999Z</time></trkpt><trkpt lat="46.18596928252323" lon="13.458434868289567"><ele>686.0</ele><time>2026-03-28T15:10:18.999Z</time></trkpt><trkpt lat="46.185866551043304" lon="13.458363313739115"><ele>686.0</ele><time>2026-03-28T15:10:20.999Z</time></trkpt><trkpt lat="46.1857703974146" lon="13.45829511269061"><ele>686.0</ele><time>2026-03-28T15:10:22.999Z</time></trkpt><trkpt lat="46.1857006555755" lon="13.45825290627931"><ele>682.4</ele><time>2026-03-28T15:10:23.999Z</time></trkpt><trkpt lat="46.18561806117596" lon="13.458207489452269"><ele>678.8</ele><time>2026-03-28T15:10:24.999Z</time></trkpt><trkpt lat="46.18552594215442" lon="13.458159570083529"><ele>675.1999999999999</ele><time>2026-03-28T15:10:25.999Z</time></trkpt><trkpt lat="46.18541927762411" lon="13.458117905075435"><ele>671.5999999999999</ele><time>2026-03-28T15:10:26.999Z</time></trkpt><trkpt lat="46.18530452585977" lon="13.4581032394199"><ele>668.0</ele><time>2026-03-28T15:10:27.999Z</time></trkpt><trkpt lat="46.185183990914766" lon="13.45812085934221"><ele>668.0</ele><time>2026-03-28T15:10:28.999Z</time></trkpt><trkpt lat="46.18507182337689" lon="13.458145895692258"><ele>668.0</ele><time>2026-03-28T15:10:29.999Z</time></trkpt><trkpt lat="46.18496391130252" lon="13.458167844319686"><ele>668.0</ele><time>2026-03-28T15:10:30.999Z</time></trkpt><trkpt lat="46.18485645575404" lon="13.458188218418854"><ele>668.0</ele><time>2026-03-28T15:10:31.999Z</time></trkpt><trkpt lat="46.184751030477535" lon="13.458207169170848"><ele>668.0</ele><time>2026-03-28T15:10:32.999Z</time></trkpt><trkpt lat="46.18464041438832" lon="13.458227019534768"><ele>664.5</ele><time>2026-03-28T15:10:33.999Z</time></trkpt><trkpt lat="46.1845251111518" lon="13.458221891789728"><ele>661.0</ele><time>2026-03-28T15:10:34.999Z</time></trkpt><trkpt lat="46.184415241080856" lon="13.458198595503616"><ele>657.5</ele><time>2026-03-28T15:10:35.999Z</time></trkpt><trkpt lat="46.18430239226937" lon="13.458168114846718"><ele>654.0</ele><time>2026-03-28T15:10:36.999Z</time></trkpt><trkpt lat="46.18419224769496" lon="13.458140823653823"><ele>654.0</ele><time>2026-03-28T15:10:37.999Z</time></trkpt><trkpt lat="46.184087697549465" lon="13.458110314166866"><ele>654.0</ele><time>2026-03-28T15:10:38.999Z</time></trkpt><trkpt lat="46.183983276796134" lon="13.458084001796228"><ele>654.0</ele><time>2026-03-28T15:10:39.999Z</time></trkpt><trkpt lat="46.18388723649822" lon="13.458049487633584"><ele>654.0</ele><time>2026-03-28T15:10:40.999Z</time></trkpt><trkpt lat="46.18379043796422" lon="13.457982257398134"><ele>654.0</ele><time>2026-03-28T15:10:41.999Z</time></trkpt><trkpt lat="46.1836906695971" lon="13.457889874165362"><ele>652.75</ele><time>2026-03-28T15:10:42.999Z</time></trkpt><trkpt lat="46.183598427978204" lon="13.45777618661661"><ele>651.5</ele><time>2026-03-28T15:10:43.999Z</time></trkpt><trkpt lat="46.183520325917854" lon="13.45764314469398"><ele>650.25</ele><time>2026-03-28T15:10:44.999Z</time></trkpt><trkpt lat="46.183429971000024" lon="13.457519634282779"><ele>649.0</ele><time>2026-03-28T15:10:45.999Z</time></trkpt><trkpt lat="46.18334695427691" lon="13.457419798267098"><ele>649.0</ele><time>2026-03-28T15:10:46.999Z</time></trkpt><trkpt lat="46.183262838055484" lon="13.457326364333873"><ele>649.0</ele><time>2026-03-28T15:10:47.999Z</time></trkpt><trkpt lat="46.18315395239171" lon="13.457266482203316"><ele>649.0</ele><time>2026-03-28T15:10:48.999Z</time></trkpt><trkpt lat="46.183074975744404" lon="13.45721211714753"><ele>649.0</ele><time>2026-03-28T15:10:49.999Z</time></trkpt><trkpt lat="46.1830133096641" lon="13.457186003999677"><ele>649.0</ele><time>2026-03-28T15:10:50.999Z</time></trkpt><trkpt lat="46.18292184146921" lon="13.457147987735345"><ele>651.0</ele><time>2026-03-28T15:10:51.999Z</time></trkpt><trkpt lat="46.18284256599552" lon="13.457134802087637"><ele>653.0</ele><time>2026-03-28T15:10:52.999Z</time></trkpt><trkpt lat="46.182766274737816" lon="13.457065914370633"><ele>655.0</ele><time>2026-03-28T15:10:53.999Z</time></trkpt><trkpt lat="46.18267322450169" lon="13.457055702074024"><ele>657.0</ele><time>2026-03-28T15:10:54.999Z</time></trkpt><trkpt lat="46.18260733657751" lon="13.4569914779057"><ele>659.0</ele><time>2026-03-28T15:10:55.999Z</time></trkpt><trkpt lat="46.18253618777448" lon="13.45692347037945"><ele>661.0</ele><time>2026-03-28T15:10:56.999Z</time></trkpt><trkpt lat="46.18246430294444" lon="13.456818555683402"><ele>661.0</ele><time>2026-03-28T15:10:57.999Z</time></trkpt><trkpt lat="46.182393835256995" lon="13.456689378790157"><ele>661.0</ele><time>2026-03-28T15:10:58.999Z</time></trkpt><trkpt lat="46.182310116454836" lon="13.45654371239034"><ele>661.0</ele><time>2026-03-28T15:10:59.999Z</time></trkpt><trkpt lat="46.182222860699035" lon="13.456391080317117"><ele>661.0</ele><time>2026-03-28T15:11:00.999Z</time></trkpt><trkpt lat="46.18213055680274" lon="13.456242764336904"><ele>661.0</ele><time>2026-03-28T15:11:01.999Z</time></trkpt><trkpt lat="46.182057623074286" lon="13.456086672278854"><ele>661.0</ele><time>2026-03-28T15:11:02.999Z</time></trkpt><trkpt lat="46.181986314085044" lon="13.455950391592335"><ele>661.0</ele><time>2026-03-28T15:11:03.999Z</time></trkpt><trkpt lat="46.18190293478721" lon="13.45579721916265"><ele>661.0</ele><time>2026-03-28T15:11:04.999Z</time></trkpt><trkpt lat="46.181831500796164" lon="13.45563734919751"><ele>658.75</ele><time>2026-03-28T15:11:05.999Z</time></trkpt><trkpt lat="46.18177103370914" lon="13.4554805925301"><ele>656.5</ele><time>2026-03-28T15:11:06.999Z</time></trkpt><trkpt lat="46.18170386816611" lon="13.455327133810115"><ele>654.25</ele><time>2026-03-28T15:11:07.999Z</time></trkpt><trkpt lat="46.18164642761201" lon="13.455173063935552"><ele>652.0</ele><time>2026-03-28T15:11:08.999Z</time></trkpt><trkpt lat="46.1815704406899" lon="13.455023384250005"><ele>652.0</ele><time>2026-03-28T15:11:09.999Z</time></trkpt><trkpt lat="46.1814706504109" lon="13.454834876686583"><ele>652.0</ele><time>2026-03-28T15:11:10.999Z</time></trkpt><trkpt lat="46.18135962334986" lon="13.454622261514015"><ele>652.0</ele><time>2026-03-28T15:11:11.999Z</time></trkpt><trkpt lat="46.18128424167117" lon="13.454479483615888"><ele>652.0</ele><time>2026-03-28T15:11:13.999Z</time></trkpt><trkpt lat="46.181197655585905" lon="13.45429139860002"><ele>652.0</ele><time>2026-03-28T15:11:14.999Z</time></trkpt><trkpt lat="46.181108150823675" lon="13.454101912914217"><ele>652.0</ele><time>2026-03-28T15:11:15.999Z</time></trkpt><trkpt lat="46.1810051573925" lon="13.453951513525528"><ele>645.0</ele><time>2026-03-28T15:11:16.999Z</time></trkpt><trkpt lat="46.18087769043301" lon="13.453801920582809"><ele>638.0</ele><time>2026-03-28T15:11:17.999Z</time></trkpt><trkpt lat="46.180741076883436" lon="13.453633752748816"><ele>631.0</ele><time>2026-03-28T15:11:18.999Z</time></trkpt><trkpt lat="46.180627801474266" lon="13.453457800060402"><ele>622.0</ele><time>2026-03-28T15:11:19.999Z</time></trkpt><trkpt lat="46.18053170751983" lon="13.453300690769494"><ele>613.0</ele><time>2026-03-28T15:11:20.999Z</time></trkpt><trkpt lat="46.180447604261744" lon="13.453122118254598"><ele>604.0</ele><time>2026-03-28T15:11:21.999Z</time></trkpt><trkpt lat="46.1803557454042" lon="13.452985137924012"><ele>595.0</ele><time>2026-03-28T15:11:22.999Z</time></trkpt><trkpt lat="46.18026710781173" lon="13.452823023165656"><ele>595.0</ele><time>2026-03-28T15:11:23.999Z</time></trkpt><trkpt lat="46.18018532575074" lon="13.452699149117711"><ele>595.0</ele><time>2026-03-28T15:11:24.999Z</time></trkpt><trkpt lat="46.18016323181177" lon="13.452530611187056"><ele>595.0</ele><time>2026-03-28T15:11:25.999Z</time></trkpt><trkpt lat="46.180126814200214" lon="13.452354573154826"><ele>595.0</ele><time>2026-03-28T15:11:26.999Z</time></trkpt><trkpt lat="46.18009288848776" lon="13.452184927619621"><ele>596.75</ele><time>2026-03-28T15:11:27.999Z</time></trkpt><trkpt lat="46.180047772803896" lon="13.452008967517044"><ele>598.5</ele><time>2026-03-28T15:11:28.999Z</time></trkpt><trkpt lat="46.18004214812238" lon="13.451808958374082"><ele>600.25</ele><time>2026-03-28T15:11:29.999Z</time></trkpt><trkpt lat="46.18004114189219" lon="13.451628725784058"><ele>602.0</ele><time>2026-03-28T15:11:30.999Z</time></trkpt><trkpt lat="46.1800494962072" lon="13.451459907079618"><ele>602.0</ele><time>2026-03-28T15:11:31.999Z</time></trkpt><trkpt lat="46.18005033873262" lon="13.451303178830505"><ele>602.0</ele><time>2026-03-28T15:11:32.999Z</time></trkpt><trkpt lat="46.180033154942976" lon="13.451177697292032"><ele>602.0</ele><time>2026-03-28T15:11:33.999Z</time></trkpt><trkpt lat="46.18000899146881" lon="13.45107123713712"><ele>602.0</ele><time>2026-03-28T15:11:34.999Z</time></trkpt><trkpt lat="46.179949839074354" lon="13.451021790278926"><ele>602.0</ele><time>2026-03-28T15:11:36.999Z</time></trkpt><trkpt lat="46.17988376488339" lon="13.451036141258125"><ele>602.0</ele><time>2026-03-28T15:11:37.999Z</time></trkpt><trkpt lat="46.17983222979582" lon="13.451104033629745"><ele>596.1666666666666</ele><time>2026-03-28T15:11:38.999Z</time></trkpt><trkpt lat="46.17979685101924" lon="13.451266395787604"><ele>590.3333333333333</ele><time>2026-03-28T15:11:39.999Z</time></trkpt><trkpt lat="46.17977630290272" lon="13.451368701751369"><ele>584.5</ele><time>2026-03-28T15:11:40.999Z</time></trkpt><trkpt lat="46.17975823771762" lon="13.451458645502044"><ele>578.6666666666666</ele><time>2026-03-28T15:11:41.999Z</time></trkpt><trkpt lat="46.1797375352832" lon="13.45155631090725"><ele>572.8333333333334</ele><time>2026-03-28T15:11:43.999Z</time></trkpt><trkpt lat="46.179744999150465" lon="13.451391455646208"><ele>567.0</ele><time>2026-03-28T15:11:47.999Z</time></trkpt><trkpt lat="46.17977065590297" lon="13.451295656763685"><ele>567.0</ele><time>2026-03-28T15:11:48.999Z</time></trkpt><trkpt lat="46.179744222469914" lon="13.451133922650287"><ele>567.0</ele><time>2026-03-28T15:11:50.999Z</time></trkpt><trkpt lat="46.17968786282376" lon="13.450955553892921"><ele>567.0</ele><time>2026-03-28T15:11:52.999Z</time></trkpt><trkpt lat="46.179655188797206" lon="13.450839362961409"><ele>567.0</ele><time>2026-03-28T15:11:53.999Z</time></trkpt><trkpt lat="46.17961290143641" lon="13.450746399875754"><ele>567.0</ele><time>2026-03-28T15:11:54.999Z</time></trkpt><trkpt lat="46.179551611525945" lon="13.450659534294685"><ele>567.0</ele><time>2026-03-28T15:11:55.999Z</time></trkpt><trkpt lat="46.179499777749115" lon="13.450559826886954"><ele>567.0</ele><time>2026-03-28T15:11:56.999Z</time></trkpt><trkpt lat="46.179456597590956" lon="13.450466004937844"><ele>567.0</ele><time>2026-03-28T15:11:57.999Z</time></trkpt><trkpt lat="46.17941264406876" lon="13.450362307627536"><ele>567.0</ele><time>2026-03-28T15:11:58.999Z</time></trkpt><trkpt lat="46.179391648407766" lon="13.450252816970684"><ele>567.0</ele><time>2026-03-28T15:11:59.999Z</time></trkpt><trkpt lat="46.17938707179681" lon="13.450121512414446"><ele>567.0</ele><time>2026-03-28T15:12:00.999Z</time></trkpt><trkpt lat="46.17936663613864" lon="13.449978066599403"><ele>569.8000000000001</ele><time>2026-03-28T15:12:01.999Z</time></trkpt><trkpt lat="46.1793559683569" lon="13.449820557690472"><ele>572.6</ele><time>2026-03-28T15:12:02.999Z</time></trkpt><trkpt lat="46.17935426315171" lon="13.449674586087845"><ele>575.4000000000001</ele><time>2026-03-28T15:12:03.999Z</time></trkpt><trkpt lat="46.17933036487867" lon="13.449553820168418"><ele>578.2</ele><time>2026-03-28T15:12:04.999Z</time></trkpt><trkpt lat="46.17930687126527" lon="13.449448166607494"><ele>581.0</ele><time>2026-03-28T15:12:05.999Z</time></trkpt><trkpt lat="46.17927751070442" lon="13.449342030050921"><ele>584.4</ele><time>2026-03-28T15:12:06.999Z</time></trkpt><trkpt lat="46.17925012273102" lon="13.449248689079374"><ele>587.8</ele><time>2026-03-28T15:12:07.999Z</time></trkpt><trkpt lat="46.179188446057914" lon="13.449114549066636"><ele>591.1999999999999</ele><time>2026-03-28T15:12:09.999Z</time></trkpt><trkpt lat="46.179085248609155" lon="13.449122909941385"><ele>594.6</ele><time>2026-03-28T15:12:11.999Z</time></trkpt><trkpt lat="46.179024318232344" lon="13.449215954023463"><ele>598.0</ele><time>2026-03-28T15:12:13.999Z</time></trkpt><trkpt lat="46.17898581448454" lon="13.449318025584828"><ele>598.6</ele><time>2026-03-28T15:12:15.999Z</time></trkpt><trkpt lat="46.178953036413986" lon="13.449435077604498"><ele>599.1999999999999</ele><time>2026-03-28T15:12:16.999Z</time></trkpt><trkpt lat="46.178922780274696" lon="13.449570310518316"><ele>599.8</ele><time>2026-03-28T15:12:17.999Z</time></trkpt><trkpt lat="46.17887052722318" lon="13.449691467398496"><ele>600.4</ele><time>2026-03-28T15:12:18.999Z</time></trkpt><trkpt lat="46.17881909474694" lon="13.449819849494844"><ele>601.0</ele><time>2026-03-28T15:12:19.999Z</time></trkpt><trkpt lat="46.17875707195884" lon="13.449954350005205"><ele>598.1666666666667</ele><time>2026-03-28T15:12:20.999Z</time></trkpt><trkpt lat="46.17869666177666" lon="13.45002998456245"><ele>595.3333333333334</ele><time>2026-03-28T15:12:21.999Z</time></trkpt><trkpt lat="46.1786368821692" lon="13.45009256868652"><ele>592.5</ele><time>2026-03-28T15:12:22.999Z</time></trkpt><trkpt lat="46.17853602448159" lon="13.45012855895997"><ele>589.6666666666666</ele><time>2026-03-28T15:12:24.999Z</time></trkpt><trkpt lat="46.17845941070965" lon="13.45009472189098"><ele>586.8333333333333</ele><time>2026-03-28T15:12:25.999Z</time></trkpt><trkpt lat="46.178366161941035" lon="13.45005140253199"><ele>584.0</ele><time>2026-03-28T15:12:26.999Z</time></trkpt><trkpt lat="46.1782913041363" lon="13.450004430625366"><ele>584.0</ele><time>2026-03-28T15:12:27.999Z</time></trkpt><trkpt lat="46.178230569749076" lon="13.449953674649109"><ele>584.0</ele><time>2026-03-28T15:12:28.999Z</time></trkpt><trkpt lat="46.178178157713354" lon="13.449894283453364"><ele>584.0</ele><time>2026-03-28T15:12:29.999Z</time></trkpt><trkpt lat="46.178123928552715" lon="13.449751633960501"><ele>584.0</ele><time>2026-03-28T15:12:31.999Z</time></trkpt><trkpt lat="46.17810861691176" lon="13.449594125245238"><ele>584.0</ele><time>2026-03-28T15:12:33.999Z</time></trkpt><trkpt lat="46.178109234313865" lon="13.449501768993587"><ele>584.0</ele><time>2026-03-28T15:12:34.999Z</time></trkpt><trkpt lat="46.17814215286779" lon="13.449340149533556"><ele>587.4</ele><time>2026-03-28T15:12:36.999Z</time></trkpt><trkpt lat="46.17820775209034" lon="13.449207646131354"><ele>590.8</ele><time>2026-03-28T15:12:38.999Z</time></trkpt><trkpt lat="46.178234438917954" lon="13.449083356658926"><ele>594.2</ele><time>2026-03-28T15:12:40.999Z</time></trkpt><trkpt lat="46.17823701661289" lon="13.448979422890835"><ele>597.6</ele><time>2026-03-28T15:12:41.999Z</time></trkpt><trkpt lat="46.17820720789209" lon="13.448827492862266"><ele>601.0</ele><time>2026-03-28T15:12:42.999Z</time></trkpt><trkpt lat="46.17817756865494" lon="13.448735894486502"><ele>602.6</ele><time>2026-03-28T15:12:43.999Z</time></trkpt><trkpt lat="46.17813897467735" lon="13.448567484494708"><ele>604.2</ele><time>2026-03-28T15:12:45.999Z</time></trkpt><trkpt lat="46.178059041920825" lon="13.448538447943424"><ele>605.8</ele><time>2026-03-28T15:12:46.999Z</time></trkpt><trkpt lat="46.177968400199404" lon="13.448579450314702"><ele>607.4</ele><time>2026-03-28T15:12:48.999Z</time></trkpt><trkpt lat="46.177914220962315" lon="13.448695650921591"><ele>609.0</ele><time>2026-03-28T15:12:50.999Z</time></trkpt><trkpt lat="46.17793597039378" lon="13.448861699325427"><ele>609.0</ele><time>2026-03-28T15:12:52.999Z</time></trkpt><trkpt lat="46.1779253276233" lon="13.44896503111604"><ele>609.0</ele><time>2026-03-28T15:12:53.999Z</time></trkpt><trkpt lat="46.17789381691249" lon="13.44909101067133"><ele>609.0</ele><time>2026-03-28T15:12:54.999Z</time></trkpt><trkpt lat="46.177844040764036" lon="13.449187636506778"><ele>609.0</ele><time>2026-03-28T15:12:55.999Z</time></trkpt><trkpt lat="46.17780066966919" lon="13.4492737089334"><ele>609.0</ele><time>2026-03-28T15:12:56.999Z</time></trkpt><trkpt lat="46.1777361334739" lon="13.449321729377285"><ele>609.0</ele><time>2026-03-28T15:12:57.999Z</time></trkpt><trkpt lat="46.17765730559523" lon="13.449398788400787"><ele>609.0</ele><time>2026-03-28T15:12:58.999Z</time></trkpt><trkpt lat="46.1775849654064" lon="13.449482222945187"><ele>609.0</ele><time>2026-03-28T15:12:59.999Z</time></trkpt><trkpt lat="46.177523190175606" lon="13.449553494258444"><ele>609.0</ele><time>2026-03-28T15:13:00.999Z</time></trkpt><trkpt lat="46.177451902219104" lon="13.449586334905174"><ele>609.0</ele><time>2026-03-28T15:13:01.999Z</time></trkpt><trkpt lat="46.17738474521935" lon="13.449636859514777"><ele>609.0</ele><time>2026-03-28T15:13:02.999Z</time></trkpt><trkpt lat="46.177320795456346" lon="13.449660462575183"><ele>609.0</ele><time>2026-03-28T15:13:03.999Z</time></trkpt><trkpt lat="46.177249192912804" lon="13.449667902408937"><ele>611.6666666666666</ele><time>2026-03-28T15:13:04.999Z</time></trkpt><trkpt lat="46.1771784085313" lon="13.449680766807658"><ele>614.3333333333334</ele><time>2026-03-28T15:13:05.999Z</time></trkpt><trkpt lat="46.17711539755574" lon="13.44969848323787"><ele>617.0</ele><time>2026-03-28T15:13:06.999Z</time></trkpt><trkpt lat="46.17704099802667" lon="13.449755193418532"><ele>619.6666666666667</ele><time>2026-03-28T15:13:08.999Z</time></trkpt><trkpt lat="46.17703160067418" lon="13.449903511404594"><ele>622.3333333333334</ele><time>2026-03-28T15:13:10.999Z</time></trkpt><trkpt lat="46.17706687258563" lon="13.450045551608286"><ele>625.0</ele><time>2026-03-28T15:13:12.999Z</time></trkpt><trkpt lat="46.17706212479096" lon="13.450225480331158"><ele>625.0</ele><time>2026-03-28T15:13:14.999Z</time></trkpt><trkpt lat="46.17703373471781" lon="13.45033515690522"><ele>625.0</ele><time>2026-03-28T15:13:15.999Z</time></trkpt><trkpt lat="46.17701160311355" lon="13.450444567830509"><ele>625.0</ele><time>2026-03-28T15:13:16.999Z</time></trkpt><trkpt lat="46.17698722498213" lon="13.450533392428248"><ele>625.0</ele><time>2026-03-28T15:13:17.999Z</time></trkpt><trkpt lat="46.17696357633362" lon="13.45063586450224"><ele>625.0</ele><time>2026-03-28T15:13:18.999Z</time></trkpt><trkpt lat="46.176937981985" lon="13.450753825824892"><ele>625.0</ele><time>2026-03-28T15:13:19.999Z</time></trkpt><trkpt lat="46.17689898835148" lon="13.45084086136392"><ele>622.5</ele><time>2026-03-28T15:13:20.999Z</time></trkpt><trkpt lat="46.17685098189098" lon="13.450923467812796"><ele>620.0</ele><time>2026-03-28T15:13:21.999Z</time></trkpt><trkpt lat="46.176800351025975" lon="13.451024381686132"><ele>617.5</ele><time>2026-03-28T15:13:22.999Z</time></trkpt><trkpt lat="46.17675875837" lon="13.451145254074437"><ele>615.0</ele><time>2026-03-28T15:13:23.999Z</time></trkpt><trkpt lat="46.17672588430477" lon="13.451242981888447"><ele>612.5</ele><time>2026-03-28T15:13:24.999Z</time></trkpt><trkpt lat="46.176695358960714" lon="13.451338730981831"><ele>610.0</ele><time>2026-03-28T15:13:25.999Z</time></trkpt><trkpt lat="46.17667012585925" lon="13.451476628098792"><ele>608.5</ele><time>2026-03-28T15:13:27.999Z</time></trkpt><trkpt lat="46.17664456171492" lon="13.451575420693237"><ele>607.0</ele><time>2026-03-28T15:13:28.999Z</time></trkpt><trkpt lat="46.176631015397945" lon="13.451686808144482"><ele>605.5</ele><time>2026-03-28T15:13:29.999Z</time></trkpt><trkpt lat="46.17653976660918" lon="13.451811187252348"><ele>604.0</ele><time>2026-03-28T15:13:31.999Z</time></trkpt><trkpt lat="46.176476033764345" lon="13.451862827821394"><ele>602.5</ele><time>2026-03-28T15:13:32.999Z</time></trkpt><trkpt lat="46.1764092547916" lon="13.451910916652503"><ele>601.0</ele><time>2026-03-28T15:13:33.999Z</time></trkpt><trkpt lat="46.17633215222461" lon="13.451947859490549"><ele>601.0</ele><time>2026-03-28T15:13:34.999Z</time></trkpt><trkpt lat="46.176256059482974" lon="13.451985690038772"><ele>601.0</ele><time>2026-03-28T15:13:35.999Z</time></trkpt><trkpt lat="46.176185833859336" lon="13.452016969460727"><ele>601.0</ele><time>2026-03-28T15:13:36.999Z</time></trkpt><trkpt lat="46.17611671131682" lon="13.45204821247772"><ele>601.0</ele><time>2026-03-28T15:13:37.999Z</time></trkpt><trkpt lat="46.17605261577105" lon="13.45208680475306"><ele>601.0</ele><time>2026-03-28T15:13:38.999Z</time></trkpt><trkpt lat="46.17598332537529" lon="13.452112083746066"><ele>601.0</ele><time>2026-03-28T15:13:39.999Z</time></trkpt><trkpt lat="46.175859508190605" lon="13.452108067632311"><ele>601.0</ele><time>2026-03-28T15:13:41.999Z</time></trkpt><trkpt lat="46.1757683272261" lon="13.452094579533256"><ele>601.0</ele><time>2026-03-28T15:13:42.999Z</time></trkpt><trkpt lat="46.175684111575045" lon="13.452079490019146"><ele>601.0</ele><time>2026-03-28T15:13:43.999Z</time></trkpt><trkpt lat="46.17560983090291" lon="13.452063328169547"><ele>601.0</ele><time>2026-03-28T15:13:44.999Z</time></trkpt><trkpt lat="46.17547561405691" lon="13.452019511310855"><ele>601.0</ele><time>2026-03-28T15:13:46.999Z</time></trkpt><trkpt lat="46.175398876847055" lon="13.452005228663367"><ele>602.0</ele><time>2026-03-28T15:13:47.999Z</time></trkpt><trkpt lat="46.17532825509362" lon="13.451983775775531"><ele>603.0</ele><time>2026-03-28T15:13:48.999Z</time></trkpt><trkpt lat="46.1752184984827" lon="13.451949527287866"><ele>604.0</ele><time>2026-03-28T15:13:50.999Z</time></trkpt><trkpt lat="46.17515236431178" lon="13.451938970204342"><ele>605.0</ele><time>2026-03-28T15:13:51.999Z</time></trkpt><trkpt lat="46.17505341926759" lon="13.451971977558028"><ele>606.0</ele><time>2026-03-28T15:13:53.999Z</time></trkpt><trkpt lat="46.17499709677125" lon="13.452081084572438"><ele>607.0</ele><time>2026-03-28T15:13:55.999Z</time></trkpt><trkpt lat="46.17498334140319" lon="13.452185716372355"><ele>607.4</ele><time>2026-03-28T15:13:57.999Z</time></trkpt><trkpt lat="46.17499534383712" lon="13.452284371768965"><ele>607.8000000000001</ele><time>2026-03-28T15:13:59.999Z</time></trkpt><trkpt lat="46.17502546608079" lon="13.45244097251758"><ele>608.2</ele><time>2026-03-28T15:14:01.999Z</time></trkpt><trkpt lat="46.17510069001855" lon="13.452589323057612"><ele>608.6</ele><time>2026-03-28T15:14:03.999Z</time></trkpt><trkpt lat="46.175127458337954" lon="13.452685011330697"><ele>609.0</ele><time>2026-03-28T15:14:04.999Z</time></trkpt><trkpt lat="46.17517321238739" lon="13.452799987697697"><ele>609.0</ele><time>2026-03-28T15:14:05.999Z</time></trkpt><trkpt lat="46.17520099396892" lon="13.452921548125099"><ele>609.0</ele><time>2026-03-28T15:14:06.999Z</time></trkpt><trkpt lat="46.1752331911599" lon="13.453044099378412"><ele>609.0</ele><time>2026-03-28T15:14:07.999Z</time></trkpt><trkpt lat="46.17526671329607" lon="13.45315107737323"><ele>609.0</ele><time>2026-03-28T15:14:08.999Z</time></trkpt><trkpt lat="46.17530765805349" lon="13.453268867258114"><ele>609.0</ele><time>2026-03-28T15:14:09.999Z</time></trkpt><trkpt lat="46.17537666556355" lon="13.453406016704964"><ele>608.0</ele><time>2026-03-28T15:14:10.999Z</time></trkpt><trkpt lat="46.175430683336494" lon="13.45355025984619"><ele>607.0</ele><time>2026-03-28T15:14:11.999Z</time></trkpt><trkpt lat="46.175467620761836" lon="13.453685367344743"><ele>606.0</ele><time>2026-03-28T15:14:13Z</time></trkpt><trkpt lat="46.1755251480938" lon="13.453818826217109"><ele>605.0</ele><time>2026-03-28T15:14:14Z</time></trkpt><trkpt lat="46.17556752852045" lon="13.453939121623288"><ele>604.0</ele><time>2026-03-28T15:14:15Z</time></trkpt><trkpt lat="46.17558875222802" lon="13.45408683586949"><ele>604.0</ele><time>2026-03-28T15:14:16Z</time></trkpt><trkpt lat="46.17563607309607" lon="13.454230802311633"><ele>604.0</ele><time>2026-03-28T15:14:17Z</time></trkpt><trkpt lat="46.175680310512384" lon="13.454367755637628"><ele>604.0</ele><time>2026-03-28T15:14:18Z</time></trkpt><trkpt lat="46.175720316376086" lon="13.454471813202092"><ele>604.0</ele><time>2026-03-28T15:14:19Z</time></trkpt><trkpt lat="46.17576260292977" lon="13.45455211495244"><ele>604.0</ele><time>2026-03-28T15:14:20Z</time></trkpt><trkpt lat="46.17576200768406" lon="13.45466504223924"><ele>604.0</ele><time>2026-03-28T15:14:22Z</time></trkpt><trkpt lat="46.1757284411427" lon="13.454820339393931"><ele>601.8333333333334</ele><time>2026-03-28T15:14:24Z</time></trkpt><trkpt lat="46.17566959923723" lon="13.454872706528292"><ele>599.6666666666667</ele><time>2026-03-28T15:14:25Z</time></trkpt><trkpt lat="46.17560541552227" lon="13.454946170094765"><ele>597.5</ele><time>2026-03-28T15:14:26Z</time></trkpt><trkpt lat="46.17548504477257" lon="13.455007624566525"><ele>595.3333333333334</ele><time>2026-03-28T15:14:28Z</time></trkpt><trkpt lat="46.175418565744636" lon="13.455001046147954"><ele>593.1666666666666</ele><time>2026-03-28T15:14:31Z</time></trkpt><trkpt lat="46.175331458075576" lon="13.454997061468495"><ele>591.0</ele><time>2026-03-28T15:14:34Z</time></trkpt><trkpt lat="46.17519729012672" lon="13.455057977127012"><ele>591.0</ele><time>2026-03-28T15:14:36Z</time></trkpt><trkpt lat="46.17512528994247" lon="13.455084672157106"><ele>591.0</ele><time>2026-03-28T15:14:37Z</time></trkpt><trkpt lat="46.175057554742025" lon="13.455135448710196"><ele>591.0</ele><time>2026-03-28T15:14:38Z</time></trkpt><trkpt lat="46.17498624792539" lon="13.455183728677953"><ele>591.0</ele><time>2026-03-28T15:14:39Z</time></trkpt><trkpt lat="46.174922664413224" lon="13.455192633658973"><ele>591.0</ele><time>2026-03-28T15:14:40Z</time></trkpt><trkpt lat="46.17481059429531" lon="13.455168482363314"><ele>591.0</ele><time>2026-03-28T15:14:42Z</time></trkpt><trkpt lat="46.17472608950348" lon="13.455103256096166"><ele>596.8</ele><time>2026-03-28T15:14:43.999Z</time></trkpt><trkpt lat="46.174604369749616" lon="13.455036386437081"><ele>602.6</ele><time>2026-03-28T15:14:45.999Z</time></trkpt><trkpt lat="46.174500851034" lon="13.455120239299738"><ele>608.4</ele><time>2026-03-28T15:14:47.999Z</time></trkpt><trkpt lat="46.17442011603534" lon="13.455172337503765"><ele>614.2</ele><time>2026-03-28T15:14:49.999Z</time></trkpt><trkpt lat="46.17436779514217" lon="13.45523291060574"><ele>620.0</ele><time>2026-03-28T15:14:50.999Z</time></trkpt><trkpt lat="46.174308383386595" lon="13.455294631040235"><ele>620.0</ele><time>2026-03-28T15:14:51.999Z</time></trkpt><trkpt lat="46.17424870272327" lon="13.455341378038678"><ele>620.0</ele><time>2026-03-28T15:14:52.999Z</time></trkpt><trkpt lat="46.17419518104709" lon="13.455444999974594"><ele>620.0</ele><time>2026-03-28T15:14:54.999Z</time></trkpt><trkpt lat="46.17421767404722" lon="13.455602147715478"><ele>620.0</ele><time>2026-03-28T15:14:57.999Z</time></trkpt><trkpt lat="46.17419939334131" lon="13.45570430761547"><ele>620.0</ele><time>2026-03-28T15:14:58.999Z</time></trkpt><trkpt lat="46.17418514153523" lon="13.4558628808771"><ele>619.0</ele><time>2026-03-28T15:15:00.999Z</time></trkpt><trkpt lat="46.17422000594945" lon="13.456037873254045"><ele>618.0</ele><time>2026-03-28T15:15:02.999Z</time></trkpt><trkpt lat="46.174273979477576" lon="13.456128077536947"><ele>617.0</ele><time>2026-03-28T15:15:04.999Z</time></trkpt><trkpt lat="46.174344059420335" lon="13.456266867968283"><ele>616.0</ele><time>2026-03-28T15:15:06.999Z</time></trkpt><trkpt lat="46.17439175167045" lon="13.45634701662632"><ele>615.0</ele><time>2026-03-28T15:15:07.999Z</time></trkpt><trkpt lat="46.17442607709606" lon="13.456437073535342"><ele>616.6666666666666</ele><time>2026-03-28T15:15:08.999Z</time></trkpt><trkpt lat="46.17446012683259" lon="13.456547682041133"><ele>618.3333333333334</ele><time>2026-03-28T15:15:09.999Z</time></trkpt><trkpt lat="46.174498045810736" lon="13.45666036201164"><ele>620.0</ele><time>2026-03-28T15:15:10.999Z</time></trkpt><trkpt lat="46.17453735835296" lon="13.4567657100823"><ele>621.6666666666667</ele><time>2026-03-28T15:15:11.999Z</time></trkpt><trkpt lat="46.174576875463906" lon="13.456863978658143"><ele>623.3333333333334</ele><time>2026-03-28T15:15:12.999Z</time></trkpt><trkpt lat="46.17458409133029" lon="13.456994254256944"><ele>625.0</ele><time>2026-03-28T15:15:13.999Z</time></trkpt><trkpt lat="46.174627334069" lon="13.457100278410115"><ele>627.6666666666667</ele><time>2026-03-28T15:15:14.999Z</time></trkpt><trkpt lat="46.17465359346825" lon="13.457206750842769"><ele>630.3333333333334</ele><time>2026-03-28T15:15:15.999Z</time></trkpt><trkpt lat="46.17468633720768" lon="13.457316228318888"><ele>633.0</ele><time>2026-03-28T15:15:16.999Z</time></trkpt><trkpt lat="46.174710328995815" lon="13.457433338819556"><ele>635.6666666666666</ele><time>2026-03-28T15:15:17.999Z</time></trkpt><trkpt lat="46.174729187443894" lon="13.457543856241847"><ele>638.3333333333333</ele><time>2026-03-28T15:15:18.999Z</time></trkpt><trkpt lat="46.174752977315045" lon="13.457679612529843"><ele>641.0</ele><time>2026-03-28T15:15:19.999Z</time></trkpt><trkpt lat="46.17475401306019" lon="13.457797792250703"><ele>641.0</ele><time>2026-03-28T15:15:20.999Z</time></trkpt><trkpt lat="46.17476897604115" lon="13.457927394330303"><ele>641.0</ele><time>2026-03-28T15:15:21.999Z</time></trkpt><trkpt lat="46.17479100632882" lon="13.458051156874408"><ele>641.0</ele><time>2026-03-28T15:15:22.999Z</time></trkpt><trkpt lat="46.174794581719375" lon="13.458196745869182"><ele>641.0</ele><time>2026-03-28T15:15:24.999Z</time></trkpt><trkpt lat="46.17485710623604" lon="13.45825851118568"><ele>641.0</ele><time>2026-03-28T15:15:26.999Z</time></trkpt><trkpt lat="46.174872930219905" lon="13.458358769844805"><ele>641.0</ele><time>2026-03-28T15:15:29.999Z</time></trkpt><trkpt lat="46.17488189158032" lon="13.45852862324634"><ele>638.8333333333333</ele><time>2026-03-28T15:15:31.999Z</time></trkpt><trkpt lat="46.17488146198116" lon="13.458721633238662"><ele>636.6666666666666</ele><time>2026-03-28T15:15:33.999Z</time></trkpt><trkpt lat="46.17488008918458" lon="13.458833640023137"><ele>634.5</ele><time>2026-03-28T15:15:35Z</time></trkpt><trkpt lat="46.17485601595094" lon="13.458942968747307"><ele>632.3333333333334</ele><time>2026-03-28T15:15:36Z</time></trkpt><trkpt lat="46.17485537379449" lon="13.459050257123446"><ele>630.1666666666667</ele><time>2026-03-28T15:15:37Z</time></trkpt><trkpt lat="46.174851379095635" lon="13.459163825130272"><ele>628.0</ele><time>2026-03-28T15:15:38Z</time></trkpt><trkpt lat="46.174849206474775" lon="13.459266707467716"><ele>628.0</ele><time>2026-03-28T15:15:39Z</time></trkpt><trkpt lat="46.17483848958951" lon="13.459442943152222"><ele>628.0</ele><time>2026-03-28T15:15:41Z</time></trkpt><trkpt lat="46.17481873022433" lon="13.459612674107252"><ele>628.0</ele><time>2026-03-28T15:15:43Z</time></trkpt><trkpt lat="46.174822587316356" lon="13.45971683466938"><ele>628.0</ele><time>2026-03-28T15:15:44Z</time></trkpt><trkpt lat="46.174832880110465" lon="13.459812547760817"><ele>628.0</ele><time>2026-03-28T15:15:45Z</time></trkpt><trkpt lat="46.17485137662018" lon="13.45993172873276"><ele>624.8333333333334</ele><time>2026-03-28T15:15:46Z</time></trkpt><trkpt lat="46.174856169652706" lon="13.460025977188318"><ele>621.6666666666667</ele><time>2026-03-28T15:15:47Z</time></trkpt><trkpt lat="46.17486377396537" lon="13.460196615121424"><ele>618.5</ele><time>2026-03-28T15:15:49Z</time></trkpt><trkpt lat="46.174894490174744" lon="13.460304162896938"><ele>615.3333333333334</ele><time>2026-03-28T15:15:50Z</time></trkpt><trkpt lat="46.174909675363146" lon="13.460404534719858"><ele>612.1666666666666</ele><time>2026-03-28T15:15:51Z</time></trkpt><trkpt lat="46.17490518354664" lon="13.460549096308057"><ele>609.0</ele><time>2026-03-28T15:15:53Z</time></trkpt><trkpt lat="46.1748840492061" lon="13.46064265061752"><ele>607.0</ele><time>2026-03-28T15:15:57Z</time></trkpt><trkpt lat="46.17482390349946" lon="13.460674625112784"><ele>605.0</ele><time>2026-03-28T15:16:44Z</time></trkpt><trkpt lat="46.17467156979772" lon="13.460594100777321"><ele>603.0</ele><time>2026-03-28T15:16:46Z</time></trkpt><trkpt lat="46.174600260748285" lon="13.460558774725047"><ele>601.0</ele><time>2026-03-28T15:16:47Z</time></trkpt><trkpt lat="46.17451746306731" lon="13.460546633980082"><ele>599.0</ele><time>2026-03-28T15:16:48Z</time></trkpt><trkpt lat="46.17444529198548" lon="13.46056528720065"><ele>599.0</ele><time>2026-03-28T15:16:49Z</time></trkpt><trkpt lat="46.17437478555912" lon="13.460601584735846"><ele>599.0</ele><time>2026-03-28T15:16:50Z</time></trkpt><trkpt lat="46.174299877904154" lon="13.460656547143993"><ele>599.0</ele><time>2026-03-28T15:16:51Z</time></trkpt><trkpt lat="46.174225274018966" lon="13.460704816380302"><ele>599.0</ele><time>2026-03-28T15:16:52Z</time></trkpt><trkpt lat="46.17414910433748" lon="13.460744738122159"><ele>599.0</ele><time>2026-03-28T15:16:53Z</time></trkpt><trkpt lat="46.17403301626779" lon="13.460796312504497"><ele>599.0</ele><time>2026-03-28T15:16:55Z</time></trkpt><trkpt lat="46.17390912811362" lon="13.460749111668227"><ele>597.8</ele><time>2026-03-28T15:16:57Z</time></trkpt><trkpt lat="46.17384414904888" lon="13.460761777433287"><ele>596.5999999999999</ele><time>2026-03-28T15:16:58Z</time></trkpt><trkpt lat="46.17375025448378" lon="13.460889741692187"><ele>595.4</ele><time>2026-03-28T15:17:00Z</time></trkpt><trkpt lat="46.173679590716525" lon="13.46103970959364"><ele>594.1999999999999</ele><time>2026-03-28T15:17:02Z</time></trkpt><trkpt lat="46.17361024246655" lon="13.461072637743273"><ele>593.0</ele><time>2026-03-28T15:17:03Z</time></trkpt><trkpt lat="46.17350161643256" lon="13.46111768535581"><ele>593.0</ele><time>2026-03-28T15:17:05Z</time></trkpt><trkpt lat="46.173437669516865" lon="13.461100754937938"><ele>593.0</ele><time>2026-03-28T15:17:06Z</time></trkpt><trkpt lat="46.17331624002772" lon="13.461035249038396"><ele>593.0</ele><time>2026-03-28T15:17:08Z</time></trkpt><trkpt lat="46.17325082464309" lon="13.461017638687949"><ele>593.0</ele><time>2026-03-28T15:17:09Z</time></trkpt><trkpt lat="46.173175013415715" lon="13.460987981404699"><ele>593.0</ele><time>2026-03-28T15:17:10Z</time></trkpt><trkpt lat="46.173050631261624" lon="13.460882372343013"><ele>593.5</ele><time>2026-03-28T15:17:12Z</time></trkpt><trkpt lat="46.172994012264105" lon="13.460810836916814"><ele>594.0</ele><time>2026-03-28T15:17:13Z</time></trkpt><trkpt lat="46.17293100632472" lon="13.460740827122292"><ele>594.5</ele><time>2026-03-28T15:17:14Z</time></trkpt><trkpt lat="46.17286788612658" lon="13.460685360916681"><ele>595.0</ele><time>2026-03-28T15:17:15Z</time></trkpt><trkpt lat="46.172777275102796" lon="13.4606399495927"><ele>595.5</ele><time>2026-03-28T15:17:17Z</time></trkpt><trkpt lat="46.17266836030483" lon="13.460717978540156"><ele>596.0</ele><time>2026-03-28T15:17:19Z</time></trkpt><trkpt lat="46.17261761180769" lon="13.460876240819365"><ele>596.0</ele><time>2026-03-28T15:17:21Z</time></trkpt><trkpt lat="46.17256818197114" lon="13.460960430701194"><ele>596.0</ele><time>2026-03-28T15:17:22Z</time></trkpt><trkpt lat="46.172498576277704" lon="13.461096773869334"><ele>596.0</ele><time>2026-03-28T15:17:24Z</time></trkpt><trkpt lat="46.17244141604492" lon="13.46122167698149"><ele>596.0</ele><time>2026-03-28T15:17:25Z</time></trkpt><trkpt lat="46.17237191883765" lon="13.461297119994798"><ele>596.0</ele><time>2026-03-28T15:17:26Z</time></trkpt><trkpt lat="46.172294257053295" lon="13.46140121983265"><ele>597.0</ele><time>2026-03-28T15:17:27Z</time></trkpt><trkpt lat="46.17222296989012" lon="13.46151223224197"><ele>598.0</ele><time>2026-03-28T15:17:28Z</time></trkpt><trkpt lat="46.1721520669956" lon="13.461625659605675"><ele>599.0</ele><time>2026-03-28T15:17:29Z</time></trkpt><trkpt lat="46.172112303392986" lon="13.461837286149887"><ele>600.0</ele><time>2026-03-28T15:17:31Z</time></trkpt><trkpt lat="46.172074559895734" lon="13.461963690722767"><ele>600.0</ele><time>2026-03-28T15:17:32Z</time></trkpt><trkpt lat="46.172006918332904" lon="13.462086897336853"><ele>600.0</ele><time>2026-03-28T15:17:33Z</time></trkpt><trkpt lat="46.171930264786155" lon="13.46216791185053"><ele>600.0</ele><time>2026-03-28T15:17:34Z</time></trkpt><trkpt lat="46.17182672165117" lon="13.462235655341614"><ele>600.0</ele><time>2026-03-28T15:17:35Z</time></trkpt><trkpt lat="46.17176514758989" lon="13.462322420059118"><ele>600.0</ele><time>2026-03-28T15:17:36Z</time></trkpt><trkpt lat="46.17166705776854" lon="13.46242801569995"><ele>602.0</ele><time>2026-03-28T15:17:37Z</time></trkpt><trkpt lat="46.17157657744591" lon="13.462523602114398"><ele>604.0</ele><time>2026-03-28T15:17:38Z</time></trkpt><trkpt lat="46.171488765310286" lon="13.462624082664615"><ele>606.0</ele><time>2026-03-28T15:17:39Z</time></trkpt><trkpt lat="46.17138410029373" lon="13.462738541351639"><ele>608.0</ele><time>2026-03-28T15:17:40Z</time></trkpt><trkpt lat="46.171287087356134" lon="13.462836960552835"><ele>608.0</ele><time>2026-03-28T15:17:41Z</time></trkpt><trkpt lat="46.171175846791456" lon="13.46292802223658"><ele>608.0</ele><time>2026-03-28T15:17:42Z</time></trkpt><trkpt lat="46.1710540402192" lon="13.463002041325534"><ele>608.0</ele><time>2026-03-28T15:17:43Z</time></trkpt><trkpt lat="46.17097783588354" lon="13.46312570169408"><ele>608.0</ele><time>2026-03-28T15:17:44Z</time></trkpt><trkpt lat="46.170879228919596" lon="13.463249928166807"><ele>610.4</ele><time>2026-03-28T15:17:45Z</time></trkpt><trkpt lat="46.170794185864494" lon="13.463340082807997"><ele>612.8</ele><time>2026-03-28T15:17:46Z</time></trkpt><trkpt lat="46.17070470183399" lon="13.46343645417859"><ele>615.2</ele><time>2026-03-28T15:17:47Z</time></trkpt><trkpt lat="46.17062999125872" lon="13.46353834533435"><ele>617.6</ele><time>2026-03-28T15:17:48Z</time></trkpt><trkpt lat="46.17057895987471" lon="13.463636484964963"><ele>620.0</ele><time>2026-03-28T15:17:49Z</time></trkpt><trkpt lat="46.17052303998032" lon="13.463750016094485"><ele>615.25</ele><time>2026-03-28T15:17:50Z</time></trkpt><trkpt lat="46.17048872261652" lon="13.463904528381008"><ele>610.5</ele><time>2026-03-28T15:17:51Z</time></trkpt><trkpt lat="46.17043914455075" lon="13.464047998737827"><ele>605.75</ele><time>2026-03-28T15:17:52Z</time></trkpt><trkpt lat="46.17037615420279" lon="13.464184017041918"><ele>601.0</ele><time>2026-03-28T15:17:53Z</time></trkpt><trkpt lat="46.17031136582135" lon="13.46432679340342"><ele>601.0</ele><time>2026-03-28T15:17:54Z</time></trkpt><trkpt lat="46.170228984920904" lon="13.4644647241938"><ele>601.0</ele><time>2026-03-28T15:17:55Z</time></trkpt><trkpt lat="46.17015721640155" lon="13.464578296916144"><ele>601.0</ele><time>2026-03-28T15:17:56Z</time></trkpt><trkpt lat="46.170096961519555" lon="13.464671744821725"><ele>601.0</ele><time>2026-03-28T15:17:57Z</time></trkpt><trkpt lat="46.170020064691336" lon="13.464757407090536"><ele>601.0</ele><time>2026-03-28T15:17:58Z</time></trkpt><trkpt lat="46.1699309320358" lon="13.464860067846422"><ele>598.2</ele><time>2026-03-28T15:17:59Z</time></trkpt><trkpt lat="46.169842050209134" lon="13.464972242128507"><ele>595.4000000000001</ele><time>2026-03-28T15:18:00Z</time></trkpt><trkpt lat="46.169768507438214" lon="13.465110550857714"><ele>592.6</ele><time>2026-03-28T15:18:01Z</time></trkpt><trkpt lat="46.16972667483808" lon="13.465231016736535"><ele>589.8000000000001</ele><time>2026-03-28T15:18:02Z</time></trkpt><trkpt lat="46.169705698254596" lon="13.465374570741288"><ele>587.0</ele><time>2026-03-28T15:18:03Z</time></trkpt><trkpt lat="46.16969333926818" lon="13.46554005390354"><ele>583.4</ele><time>2026-03-28T15:18:04Z</time></trkpt><trkpt lat="46.16966381773411" lon="13.465662943702625"><ele>579.8000000000001</ele><time>2026-03-28T15:18:05Z</time></trkpt><trkpt lat="46.16962073691472" lon="13.465748243013957"><ele>576.2</ele><time>2026-03-28T15:18:06Z</time></trkpt><trkpt lat="46.169566627747805" lon="13.465810494564225"><ele>572.6</ele><time>2026-03-28T15:18:07Z</time></trkpt><trkpt lat="46.16948548502182" lon="13.46583881813265"><ele>569.0</ele><time>2026-03-28T15:18:08Z</time></trkpt><trkpt lat="46.169344632041025" lon="13.465841431836962"><ele>569.0</ele><time>2026-03-28T15:18:09Z</time></trkpt><trkpt lat="46.16919822223832" lon="13.465838678088573"><ele>569.0</ele><time>2026-03-28T15:18:10Z</time></trkpt><trkpt lat="46.16909201396956" lon="13.46583177826261"><ele>569.0</ele><time>2026-03-28T15:18:11Z</time></trkpt><trkpt lat="46.16900501402657" lon="13.465835692780379"><ele>569.0</ele><time>2026-03-28T15:18:12Z</time></trkpt><trkpt lat="46.1689242693393" lon="13.465841783445386"><ele>569.0</ele><time>2026-03-28T15:18:13Z</time></trkpt><trkpt lat="46.168845726602385" lon="13.465856648600075"><ele>567.3333333333333</ele><time>2026-03-28T15:18:14Z</time></trkpt><trkpt lat="46.168774459420234" lon="13.465853274944488"><ele>565.6666666666666</ele><time>2026-03-28T15:18:15Z</time></trkpt><trkpt lat="46.168708423439895" lon="13.465839156443666"><ele>564.0</ele><time>2026-03-28T15:18:16Z</time></trkpt><trkpt lat="46.1686367328527" lon="13.465842376624803"><ele>562.3333333333334</ele><time>2026-03-28T15:18:17Z</time></trkpt><trkpt lat="46.16854587701781" lon="13.465839488904669"><ele>560.6666666666667</ele><time>2026-03-28T15:18:30Z</time></trkpt><trkpt lat="46.16843777693397" lon="13.465796757418348"><ele>559.0</ele><time>2026-03-28T15:18:32Z</time></trkpt><trkpt lat="46.168380993707366" lon="13.465732249212548"><ele>559.0</ele><time>2026-03-28T15:18:34Z</time></trkpt><trkpt lat="46.16831535091659" lon="13.465619680536197"><ele>559.0</ele><time>2026-03-28T15:18:37Z</time></trkpt><trkpt lat="46.168254458048565" lon="13.465538256491781"><ele>559.0</ele><time>2026-03-28T15:18:39Z</time></trkpt><trkpt lat="46.168195664381415" lon="13.465439402072125"><ele>559.0</ele><time>2026-03-28T15:18:41Z</time></trkpt><trkpt lat="46.16814326556843" lon="13.465322397452235"><ele>559.0</ele><time>2026-03-28T15:18:43Z</time></trkpt><trkpt lat="46.16807228251841" lon="13.46516053640975"><ele>557.3333333333334</ele><time>2026-03-28T15:18:45Z</time></trkpt><trkpt lat="46.168045776090175" lon="13.46506071792795"><ele>555.6666666666667</ele><time>2026-03-28T15:18:46Z</time></trkpt><trkpt lat="46.168011517634525" lon="13.464944579694633"><ele>554.0</ele><time>2026-03-28T15:18:47Z</time></trkpt><trkpt lat="46.167988118991396" lon="13.464819598245395"><ele>552.3333333333334</ele><time>2026-03-28T15:18:48Z</time></trkpt><trkpt lat="46.16797651695315" lon="13.46471337042456"><ele>550.6666666666666</ele><time>2026-03-28T15:18:49Z</time></trkpt><trkpt lat="46.1679619176428" lon="13.464610600952305"><ele>549.0</ele><time>2026-03-28T15:18:50Z</time></trkpt><trkpt lat="46.16793800339532" lon="13.464509571669145"><ele>549.0</ele><time>2026-03-28T15:18:51Z</time></trkpt><trkpt lat="46.16791051644014" lon="13.464405675188733"><ele>549.0</ele><time>2026-03-28T15:18:52Z</time></trkpt><trkpt lat="46.167901043639375" lon="13.464308950901708"><ele>549.0</ele><time>2026-03-28T15:18:53Z</time></trkpt><trkpt lat="46.16792979561494" lon="13.464124967437481"><ele>549.0</ele><time>2026-03-28T15:18:55Z</time></trkpt><trkpt lat="46.16794352965304" lon="13.464006351408608"><ele>549.0</ele><time>2026-03-28T15:18:56Z</time></trkpt><trkpt lat="46.16796945907411" lon="13.463917134903063"><ele>549.0</ele><time>2026-03-28T15:18:57Z</time></trkpt><trkpt lat="46.16797801123547" lon="13.463821789497606"><ele>551.0</ele><time>2026-03-28T15:18:58Z</time></trkpt><trkpt lat="46.16796422854072" lon="13.463725089610083"><ele>553.0</ele><time>2026-03-28T15:18:59Z</time></trkpt><trkpt lat="46.167944453872316" lon="13.463622616827143"><ele>555.0</ele><time>2026-03-28T15:19:00Z</time></trkpt><trkpt lat="46.16791028912983" lon="13.463511864632617"><ele>557.0</ele><time>2026-03-28T15:19:01Z</time></trkpt><trkpt lat="46.167875501110935" lon="13.463397142752385"><ele>559.0</ele><time>2026-03-28T15:19:02Z</time></trkpt><trkpt lat="46.167850754797556" lon="13.463276630240259"><ele>561.0</ele><time>2026-03-28T15:19:03Z</time></trkpt><trkpt lat="46.16784385695229" lon="13.46315640881189"><ele>561.0</ele><time>2026-03-28T15:19:04Z</time></trkpt><trkpt lat="46.16782545148451" lon="13.4630349709275"><ele>561.0</ele><time>2026-03-28T15:19:05Z</time></trkpt><trkpt lat="46.16782071251515" lon="13.46292117458425"><ele>561.0</ele><time>2026-03-28T15:19:06Z</time></trkpt><trkpt lat="46.1678139376927" lon="13.462802336518083"><ele>561.0</ele><time>2026-03-28T15:19:07Z</time></trkpt><trkpt lat="46.1677893699803" lon="13.462717334294004"><ele>561.0</ele><time>2026-03-28T15:19:08Z</time></trkpt><trkpt lat="46.16772395186239" lon="13.462578322924358"><ele>561.0</ele><time>2026-03-28T15:19:10Z</time></trkpt><trkpt lat="46.167631416686326" lon="13.462550530923288"><ele>561.0</ele><time>2026-03-28T15:19:12Z</time></trkpt><trkpt lat="46.16753442961725" lon="13.462621871831876"><ele>561.0</ele><time>2026-03-28T15:19:14Z</time></trkpt><trkpt lat="46.16742952327981" lon="13.462643231849635"><ele>561.0</ele><time>2026-03-28T15:19:16Z</time></trkpt><trkpt lat="46.16732888024111" lon="13.46259629349634"><ele>561.0</ele><time>2026-03-28T15:19:18Z</time></trkpt><trkpt lat="46.16727170342094" lon="13.462557029081882"><ele>561.0</ele><time>2026-03-28T15:19:19Z</time></trkpt><trkpt lat="46.167205877367195" lon="13.46250253673937"><ele>561.0</ele><time>2026-03-28T15:19:20Z</time></trkpt><trkpt lat="46.16714800410457" lon="13.462452818528968"><ele>561.0</ele><time>2026-03-28T15:19:21Z</time></trkpt><trkpt lat="46.16707883027852" lon="13.462346967324056"><ele>561.0</ele><time>2026-03-28T15:19:23Z</time></trkpt><trkpt lat="46.16702088911767" lon="13.462269873353549"><ele>561.0</ele><time>2026-03-28T15:19:26Z</time></trkpt><trkpt lat="46.166957438566115" lon="13.462257839578816"><ele>561.0</ele><time>2026-03-28T15:19:56Z</time></trkpt><trkpt lat="46.16683873334799" lon="13.462226202201206"><ele>561.0</ele><time>2026-03-28T15:19:58Z</time></trkpt><trkpt lat="46.16678017646182" lon="13.462186501785188"><ele>561.0</ele><time>2026-03-28T15:19:59Z</time></trkpt><trkpt lat="46.16672302281541" lon="13.462134377122826"><ele>561.0</ele><time>2026-03-28T15:20:00Z</time></trkpt><trkpt lat="46.16667227165462" lon="13.462074720801755"><ele>561.0</ele><time>2026-03-28T15:20:01Z</time></trkpt><trkpt lat="46.1666150250284" lon="13.462019440983182"><ele>561.0</ele><time>2026-03-28T15:20:02Z</time></trkpt><trkpt lat="46.16654860418901" lon="13.461970882395416"><ele>561.0</ele><time>2026-03-28T15:20:03Z</time></trkpt><trkpt lat="46.16648341640802" lon="13.461914183125673"><ele>561.0</ele><time>2026-03-28T15:20:04Z</time></trkpt><trkpt lat="46.166419698443384" lon="13.461842214936052"><ele>561.0</ele><time>2026-03-28T15:20:05Z</time></trkpt><trkpt lat="46.166355290214625" lon="13.461762021504263"><ele>561.5</ele><time>2026-03-28T15:20:06Z</time></trkpt><trkpt lat="46.16629131036833" lon="13.461672954362077"><ele>562.0</ele><time>2026-03-28T15:20:07Z</time></trkpt><trkpt lat="46.16622476285199" lon="13.461595116146427"><ele>562.5</ele><time>2026-03-28T15:20:08Z</time></trkpt><trkpt lat="46.166159413507884" lon="13.461517326388787"><ele>563.0</ele><time>2026-03-28T15:20:09Z</time></trkpt><trkpt lat="46.16609863352851" lon="13.461439528198596"><ele>563.5</ele><time>2026-03-28T15:20:10Z</time></trkpt><trkpt lat="46.166034145391315" lon="13.461370800146481"><ele>564.0</ele><time>2026-03-28T15:20:11Z</time></trkpt><trkpt lat="46.16595687701725" lon="13.461359460057992"><ele>564.0</ele><time>2026-03-28T15:20:12Z</time></trkpt><trkpt lat="46.16587629666212" lon="13.46140152403418"><ele>564.0</ele><time>2026-03-28T15:20:13Z</time></trkpt><trkpt lat="46.165794390133705" lon="13.461475190287548"><ele>564.0</ele><time>2026-03-28T15:20:14Z</time></trkpt><trkpt lat="46.16571468616604" lon="13.461577768416838"><ele>564.0</ele><time>2026-03-28T15:20:15Z</time></trkpt><trkpt lat="46.16563865187832" lon="13.461685946600216"><ele>564.0</ele><time>2026-03-28T15:20:16Z</time></trkpt><trkpt lat="46.16556644027929" lon="13.461791475947708"><ele>562.8</ele><time>2026-03-28T15:20:17Z</time></trkpt><trkpt lat="46.165500394030865" lon="13.461895975427728"><ele>561.5999999999999</ele><time>2026-03-28T15:20:18Z</time></trkpt><trkpt lat="46.16544974141006" lon="13.462011848220744"><ele>560.4</ele><time>2026-03-28T15:20:19Z</time></trkpt><trkpt lat="46.165390626137196" lon="13.462121155056302"><ele>559.1999999999999</ele><time>2026-03-28T15:20:20Z</time></trkpt><trkpt lat="46.16534914550887" lon="13.462227953337408"><ele>558.0</ele><time>2026-03-28T15:20:21Z</time></trkpt><trkpt lat="46.16530618720601" lon="13.462328573148413"><ele>555.1999999999999</ele><time>2026-03-28T15:20:22Z</time></trkpt><trkpt lat="46.16526537930761" lon="13.462409877198501"><ele>552.4</ele><time>2026-03-28T15:20:23Z</time></trkpt><trkpt lat="46.16520620115428" lon="13.46249156432121"><ele>549.5999999999999</ele><time>2026-03-28T15:20:24Z</time></trkpt><trkpt lat="46.16512114886039" lon="13.462569939131974"><ele>546.8</ele><time>2026-03-28T15:20:25Z</time></trkpt><trkpt lat="46.165045913197275" lon="13.462623314311864"><ele>544.0</ele><time>2026-03-28T15:20:26Z</time></trkpt><trkpt lat="46.16486974331581" lon="13.46258850447019"><ele>541.0</ele><time>2026-03-28T15:20:27Z</time></trkpt><trkpt lat="46.16476074252138" lon="13.462553644146997"><ele>538.0</ele><time>2026-03-28T15:20:28Z</time></trkpt><trkpt lat="46.164629885788464" lon="13.462481797241141"><ele>535.0</ele><time>2026-03-28T15:20:29Z</time></trkpt><trkpt lat="46.16449888517318" lon="13.462394165031865"><ele>532.0</ele><time>2026-03-28T15:20:30Z</time></trkpt><trkpt lat="46.1643804120582" lon="13.462278085208444"><ele>532.0</ele><time>2026-03-28T15:20:31Z</time></trkpt><trkpt lat="46.16431284415649" lon="13.46217448969003"><ele>532.0</ele><time>2026-03-28T15:20:32Z</time></trkpt><trkpt lat="46.16428944666128" lon="13.462000170638781"><ele>532.0</ele><time>2026-03-28T15:20:35Z</time></trkpt><trkpt lat="46.164311421862536" lon="13.461890205346931"><ele>532.0</ele><time>2026-03-28T15:20:36Z</time></trkpt><trkpt lat="46.164341297210036" lon="13.461799611273303"><ele>532.0</ele><time>2026-03-28T15:20:37Z</time></trkpt><trkpt lat="46.16438153722009" lon="13.46172849309846"><ele>532.0</ele><time>2026-03-28T15:20:38Z</time></trkpt><trkpt lat="46.16442267852258" lon="13.461595255591028"><ele>530.4</ele><time>2026-03-28T15:20:40Z</time></trkpt><trkpt lat="46.164380746389575" lon="13.461514476183957"><ele>528.8000000000001</ele><time>2026-03-28T15:20:41Z</time></trkpt><trkpt lat="46.16431373379399" lon="13.461410425748465"><ele>527.2</ele><time>2026-03-28T15:20:42Z</time></trkpt><trkpt lat="46.16421434948678" lon="13.46138772777801"><ele>525.6</ele><time>2026-03-28T15:20:43Z</time></trkpt><trkpt lat="46.164100521817936" lon="13.461405473810137"><ele>524.0</ele><time>2026-03-28T15:20:44Z</time></trkpt><trkpt lat="46.163980790169646" lon="13.461415276402247"><ele>524.0</ele><time>2026-03-28T15:20:45Z</time></trkpt><trkpt lat="46.16387122554116" lon="13.461449995375384"><ele>524.0</ele><time>2026-03-28T15:20:46Z</time></trkpt><trkpt lat="46.16377628676879" lon="13.461481270638814"><ele>524.0</ele><time>2026-03-28T15:20:47Z</time></trkpt><trkpt lat="46.16368465901211" lon="13.461511461638413"><ele>524.0</ele><time>2026-03-28T15:20:48Z</time></trkpt><trkpt lat="46.1635977405529" lon="13.461561961607545"><ele>524.0</ele><time>2026-03-28T15:20:49Z</time></trkpt><trkpt lat="46.16351658737724" lon="13.461595240251832"><ele>524.0</ele><time>2026-03-28T15:20:50Z</time></trkpt><trkpt lat="46.163440831116255" lon="13.461596531406983"><ele>524.0</ele><time>2026-03-28T15:20:51Z</time></trkpt><trkpt lat="46.163353532875846" lon="13.46157370737209"><ele>524.0</ele><time>2026-03-28T15:20:52Z</time></trkpt><trkpt lat="46.163253373592994" lon="13.461503413151558"><ele>524.0</ele><time>2026-03-28T15:20:53Z</time></trkpt><trkpt lat="46.16316879511901" lon="13.461424823751308"><ele>524.0</ele><time>2026-03-28T15:20:54Z</time></trkpt><trkpt lat="46.16310230239731" lon="13.461333855850546"><ele>523.8333333333333</ele><time>2026-03-28T15:20:55Z</time></trkpt><trkpt lat="46.16303739620027" lon="13.461228118872775"><ele>523.6666666666666</ele><time>2026-03-28T15:20:56Z</time></trkpt><trkpt lat="46.16297516013089" lon="13.461110736135119"><ele>523.5</ele><time>2026-03-28T15:20:57Z</time></trkpt><trkpt lat="46.16292306794292" lon="13.461015030946301"><ele>523.3333333333334</ele><time>2026-03-28T15:20:58Z</time></trkpt><trkpt lat="46.16290332470228" lon="13.460909285734635"><ele>523.1666666666667</ele><time>2026-03-28T15:20:59Z</time></trkpt><trkpt lat="46.16292013793559" lon="13.460804397414543"><ele>523.0</ele><time>2026-03-28T15:21:00Z</time></trkpt><trkpt lat="46.16295037239317" lon="13.46071562827624"><ele>523.0</ele><time>2026-03-28T15:21:01Z</time></trkpt><trkpt lat="46.16295937501164" lon="13.460593127076391"><ele>523.0</ele><time>2026-03-28T15:21:03Z</time></trkpt><trkpt lat="46.162820701256436" lon="13.460576246710087"><ele>523.0</ele><time>2026-03-28T15:21:05Z</time></trkpt><trkpt lat="46.16271609390612" lon="13.460644746297309"><ele>523.0</ele><time>2026-03-28T15:21:06Z</time></trkpt><trkpt lat="46.16264910432522" lon="13.46070482376691"><ele>523.0</ele><time>2026-03-28T15:21:07Z</time></trkpt><trkpt lat="46.16256873905858" lon="13.460798089793395"><ele>523.0</ele><time>2026-03-28T15:21:08Z</time></trkpt><trkpt lat="46.16246181520387" lon="13.460900044851424"><ele>523.0</ele><time>2026-03-28T15:21:09Z</time></trkpt><trkpt lat="46.162344501107675" lon="13.460982973322414"><ele>523.0</ele><time>2026-03-28T15:21:10Z</time></trkpt><trkpt lat="46.16219602006853" lon="13.46100442825454"><ele>523.0</ele><time>2026-03-28T15:21:11Z</time></trkpt><trkpt lat="46.162032870297125" lon="13.461035359888971"><ele>523.75</ele><time>2026-03-28T15:21:12Z</time></trkpt><trkpt lat="46.1622394560504" lon="13.461172676417734"><ele>524.5</ele><time>2026-03-28T15:21:13Z</time></trkpt><trkpt lat="46.162153236274676" lon="13.461239060406117"><ele>525.25</ele><time>2026-03-28T15:21:14Z</time></trkpt><trkpt lat="46.16207802351583" lon="13.461277219945613"><ele>526.0</ele><time>2026-03-28T15:21:15Z</time></trkpt><trkpt lat="46.16200821524399" lon="13.461311341936488"><ele>526.0</ele><time>2026-03-28T15:21:16Z</time></trkpt><trkpt lat="46.161920432832154" lon="13.461304543491565"><ele>526.0</ele><time>2026-03-28T15:21:17Z</time></trkpt><trkpt lat="46.161813307759225" lon="13.461275278015542"><ele>526.0</ele><time>2026-03-28T15:21:18Z</time></trkpt><trkpt lat="46.16170612390511" lon="13.461262564192145"><ele>526.0</ele><time>2026-03-28T15:21:19Z</time></trkpt><trkpt lat="46.16160657918193" lon="13.461309483945238"><ele>526.0</ele><time>2026-03-28T15:21:20Z</time></trkpt><trkpt lat="46.16152247253819" lon="13.461405890132768"><ele>521.0</ele><time>2026-03-28T15:21:21Z</time></trkpt><trkpt lat="46.1614294248656" lon="13.4615008534043"><ele>516.0</ele><time>2026-03-28T15:21:22Z</time></trkpt><trkpt lat="46.16132035634816" lon="13.461583750134404"><ele>511.0</ele><time>2026-03-28T15:21:23Z</time></trkpt><trkpt lat="46.16120817904423" lon="13.461656398938446"><ele>506.0</ele><time>2026-03-28T15:21:24Z</time></trkpt><trkpt lat="46.1611034313269" lon="13.46171233272965"><ele>506.0</ele><time>2026-03-28T15:21:25Z</time></trkpt><trkpt lat="46.160997240553556" lon="13.461757371308545"><ele>506.0</ele><time>2026-03-28T15:21:26Z</time></trkpt><trkpt lat="46.16089572663656" lon="13.461746888313062"><ele>506.0</ele><time>2026-03-28T15:21:27Z</time></trkpt><trkpt lat="46.16081413208282" lon="13.46172134439542"><ele>506.0</ele><time>2026-03-28T15:21:28Z</time></trkpt><trkpt lat="46.160745050220925" lon="13.46176303226783"><ele>506.0</ele><time>2026-03-28T15:21:30Z</time></trkpt><trkpt lat="46.160804982348935" lon="13.461876279704875"><ele>506.0</ele><time>2026-03-28T15:21:32Z</time></trkpt><trkpt lat="46.16087746612096" lon="13.461882117678062"><ele>506.0</ele><time>2026-03-28T15:21:33Z</time></trkpt><trkpt lat="46.16098080613913" lon="13.461889779579236"><ele>506.0</ele><time>2026-03-28T15:21:34Z</time></trkpt><trkpt lat="46.16108913996506" lon="13.461906997552397"><ele>506.0</ele><time>2026-03-28T15:21:35Z</time></trkpt><trkpt lat="46.16124927928844" lon="13.461890579390902"><ele>506.0</ele><time>2026-03-28T15:21:36Z</time></trkpt><trkpt lat="46.16134667665158" lon="13.461870741954355"><ele>506.0</ele><time>2026-03-28T15:21:37Z</time></trkpt><trkpt lat="46.16144588098955" lon="13.461854538600738"><ele>506.0</ele><time>2026-03-28T15:21:38Z</time></trkpt><trkpt lat="46.161552102997" lon="13.461842522356065"><ele>506.0</ele><time>2026-03-28T15:21:39.001Z</time></trkpt><trkpt lat="46.16162684852101" lon="13.461815734391916"><ele>506.0</ele><time>2026-03-28T15:21:40.001Z</time></trkpt><trkpt lat="46.161707742156196" lon="13.461802754891355"><ele>506.0</ele><time>2026-03-28T15:21:41.001Z</time></trkpt><trkpt lat="46.161782265088746" lon="13.461878329896905"><ele>506.0</ele><time>2026-03-28T15:21:43.001Z</time></trkpt><trkpt lat="46.16170861012873" lon="13.462011188345917"><ele>506.0</ele><time>2026-03-28T15:21:45.001Z</time></trkpt><trkpt lat="46.161621012083515" lon="13.462030478992997"><ele>506.0</ele><time>2026-03-28T15:21:46.001Z</time></trkpt><trkpt lat="46.16151901257165" lon="13.462043528179096"><ele>506.0</ele><time>2026-03-28T15:21:47.001Z</time></trkpt><trkpt lat="46.1614192856708" lon="13.462099998062346"><ele>506.0</ele><time>2026-03-28T15:21:48.001Z</time></trkpt><trkpt lat="46.16132142165636" lon="13.462189256263589"><ele>500.75</ele><time>2026-03-28T15:21:49.001Z</time></trkpt><trkpt lat="46.1612321833473" lon="13.462303664039284"><ele>495.5</ele><time>2026-03-28T15:21:50.001Z</time></trkpt><trkpt lat="46.161156788707395" lon="13.462432769352612"><ele>490.25</ele><time>2026-03-28T15:21:51.001Z</time></trkpt><trkpt lat="46.161068904543185" lon="13.462539785616174"><ele>485.0</ele><time>2026-03-28T15:21:52.001Z</time></trkpt><trkpt lat="46.16096745544478" lon="13.462585684806989"><ele>485.0</ele><time>2026-03-28T15:21:53.001Z</time></trkpt><trkpt lat="46.160857149232214" lon="13.462595250293026"><ele>485.0</ele><time>2026-03-28T15:21:54.001Z</time></trkpt><trkpt lat="46.16074647412936" lon="13.46260231080934"><ele>485.0</ele><time>2026-03-28T15:21:55.001Z</time></trkpt><trkpt lat="46.16064138028908" lon="13.462638043500608"><ele>485.0</ele><time>2026-03-28T15:21:56.001Z</time></trkpt><trkpt lat="46.16053732069674" lon="13.46265614141377"><ele>485.0</ele><time>2026-03-28T15:21:57.001Z</time></trkpt><trkpt lat="46.16044069812673" lon="13.462646754038477"><ele>482.99999999999994</ele><time>2026-03-28T15:21:58.001Z</time></trkpt><trkpt lat="46.1603587805146" lon="13.462585063545314"><ele>481.0</ele><time>2026-03-28T15:21:59.001Z</time></trkpt><trkpt lat="46.16030104594807" lon="13.462488872162238"><ele>479.0</ele><time>2026-03-28T15:22:00.001Z</time></trkpt><trkpt lat="46.16024833150959" lon="13.462404389062206"><ele>477.0</ele><time>2026-03-28T15:22:01.001Z</time></trkpt><trkpt lat="46.160214078348226" lon="13.46232371602914"><ele>474.99999999999994</ele><time>2026-03-28T15:22:02.001Z</time></trkpt><trkpt lat="46.16017733301775" lon="13.462182614554914"><ele>473.0</ele><time>2026-03-28T15:22:04Z</time></trkpt><trkpt lat="46.160107952811906" lon="13.462114601145156"><ele>478.2</ele><time>2026-03-28T15:23:17Z</time></trkpt><trkpt lat="46.16000259527204" lon="13.46203876230961"><ele>483.4</ele><time>2026-03-28T15:23:19Z</time></trkpt><trkpt lat="46.159926191383796" lon="13.462082582247783"><ele>488.59999999999997</ele><time>2026-03-28T15:23:20Z</time></trkpt><trkpt lat="46.15985878127542" lon="13.462157788170233"><ele>493.79999999999995</ele><time>2026-03-28T15:23:21Z</time></trkpt><trkpt lat="46.1597832250086" lon="13.462253400600616"><ele>499.0</ele><time>2026-03-28T15:23:22Z</time></trkpt><trkpt lat="46.15969154291446" lon="13.462330333360203"><ele>499.0</ele><time>2026-03-28T15:23:23Z</time></trkpt><trkpt lat="46.159621504922754" lon="13.46240704452485"><ele>499.0</ele><time>2026-03-28T15:23:24Z</time></trkpt><trkpt lat="46.15954616612588" lon="13.462529784042319"><ele>499.0</ele><time>2026-03-28T15:23:25Z</time></trkpt><trkpt lat="46.159479955220334" lon="13.462664748266704"><ele>499.0</ele><time>2026-03-28T15:23:26Z</time></trkpt><trkpt lat="46.15943243913832" lon="13.46281527587158"><ele>499.0</ele><time>2026-03-28T15:23:27Z</time></trkpt><trkpt lat="46.15939574498819" lon="13.46297370412498"><ele>491.75</ele><time>2026-03-28T15:23:28Z</time></trkpt><trkpt lat="46.159344917341826" lon="13.463112979959645"><ele>484.5</ele><time>2026-03-28T15:23:29Z</time></trkpt><trkpt lat="46.159282221610255" lon="13.46325241514659"><ele>477.25</ele><time>2026-03-28T15:23:30Z</time></trkpt><trkpt lat="46.15920585464388" lon="13.463386118493338"><ele>470.0</ele><time>2026-03-28T15:23:31Z</time></trkpt><trkpt lat="46.15911957481472" lon="13.463508111346616"><ele>469.99999999999994</ele><time>2026-03-28T15:23:32Z</time></trkpt><trkpt lat="46.15904122300024" lon="13.463615645417066"><ele>470.0</ele><time>2026-03-28T15:23:33Z</time></trkpt><trkpt lat="46.1589776018097" lon="13.463707767349616"><ele>470.0</ele><time>2026-03-28T15:23:34Z</time></trkpt><trkpt lat="46.15891330123381" lon="13.463766618114773"><ele>470.0</ele><time>2026-03-28T15:23:35Z</time></trkpt><trkpt lat="46.15883544158442" lon="13.463787593097177"><ele>469.99999999999994</ele><time>2026-03-28T15:23:36Z</time></trkpt><trkpt lat="46.15875457710711" lon="13.46374885369395"><ele>470.0</ele><time>2026-03-28T15:23:37Z</time></trkpt><trkpt lat="46.15868061294979" lon="13.463699902621524"><ele>474.6</ele><time>2026-03-28T15:23:38Z</time></trkpt><trkpt lat="46.158609722326965" lon="13.463709860069338"><ele>479.2</ele><time>2026-03-28T15:23:39Z</time></trkpt><trkpt lat="46.15855982904079" lon="13.463782845014643"><ele>483.79999999999995</ele><time>2026-03-28T15:23:40Z</time></trkpt><trkpt lat="46.158541927388754" lon="13.46390477399891"><ele>488.4</ele><time>2026-03-28T15:23:41Z</time></trkpt><trkpt lat="46.15856238276984" lon="13.464075237704872"><ele>493.0</ele><time>2026-03-28T15:23:42Z</time></trkpt><trkpt lat="46.15855999491441" lon="13.464227796555033"><ele>493.0</ele><time>2026-03-28T15:23:43Z</time></trkpt><trkpt lat="46.1585550605222" lon="13.464400124312975"><ele>493.0</ele><time>2026-03-28T15:23:44Z</time></trkpt><trkpt lat="46.158534283586974" lon="13.464562459224236"><ele>493.0</ele><time>2026-03-28T15:23:45.001Z</time></trkpt><trkpt lat="46.158504453506865" lon="13.464741557488754"><ele>493.0</ele><time>2026-03-28T15:23:46.001Z</time></trkpt><trkpt lat="46.158452853534655" lon="13.464933723590336"><ele>487.75</ele><time>2026-03-28T15:23:47.001Z</time></trkpt><trkpt lat="46.158397441571346" lon="13.465115959777128"><ele>482.5</ele><time>2026-03-28T15:23:48.001Z</time></trkpt><trkpt lat="46.15833773221404" lon="13.465298021932648"><ele>477.25</ele><time>2026-03-28T15:23:49.001Z</time></trkpt><trkpt lat="46.15827440412674" lon="13.465478321545373"><ele>472.0</ele><time>2026-03-28T15:23:50.001Z</time></trkpt><trkpt lat="46.158209415928994" lon="13.465658137976897"><ele>481.5</ele><time>2026-03-28T15:23:51.001Z</time></trkpt><trkpt lat="46.158146755780805" lon="13.465837042332492"><ele>491.0</ele><time>2026-03-28T15:23:52.001Z</time></trkpt><trkpt lat="46.158109240658426" lon="13.466026275165484"><ele>500.5</ele><time>2026-03-28T15:23:53.001Z</time></trkpt><trkpt lat="46.15809299103959" lon="13.466215578174815"><ele>510.0</ele><time>2026-03-28T15:23:54.001Z</time></trkpt><trkpt lat="46.15809778807571" lon="13.466400139977853"><ele>510.0</ele><time>2026-03-28T15:23:55.001Z</time></trkpt><trkpt lat="46.158125751998234" lon="13.466580818327987"><ele>510.0</ele><time>2026-03-28T15:23:56.001Z</time></trkpt><trkpt lat="46.158145962122866" lon="13.466762897934608"><ele>510.0</ele><time>2026-03-28T15:23:57.001Z</time></trkpt><trkpt lat="46.15816692856208" lon="13.466953888621202"><ele>510.0</ele><time>2026-03-28T15:23:58.001Z</time></trkpt><trkpt lat="46.158193214796235" lon="13.467149478604806"><ele>494.75</ele><time>2026-03-28T15:23:59.001Z</time></trkpt><trkpt lat="46.15821494750498" lon="13.467342022036663"><ele>479.5</ele><time>2026-03-28T15:24:00Z</time></trkpt><trkpt lat="46.15826057612834" lon="13.46752044512339"><ele>464.25</ele><time>2026-03-28T15:24:01Z</time></trkpt><trkpt lat="46.15830258949652" lon="13.467697689833578"><ele>449.0</ele><time>2026-03-28T15:24:02Z</time></trkpt><trkpt lat="46.15834651776091" lon="13.467871908835074"><ele>447.25</ele><time>2026-03-28T15:24:03Z</time></trkpt><trkpt lat="46.15839128550356" lon="13.46804773027604"><ele>445.5</ele><time>2026-03-28T15:24:04Z</time></trkpt><trkpt lat="46.158430783440764" lon="13.468225724763556"><ele>443.75</ele><time>2026-03-28T15:24:05Z</time></trkpt><trkpt lat="46.158454753064525" lon="13.46839264651133"><ele>442.0</ele><time>2026-03-28T15:24:06Z</time></trkpt><trkpt lat="46.15846229398826" lon="13.468541880100883"><ele>442.0</ele><time>2026-03-28T15:24:07Z</time></trkpt><trkpt lat="46.15845950799987" lon="13.468678411680633"><ele>442.0</ele><time>2026-03-28T15:24:08Z</time></trkpt><trkpt lat="46.15840935721888" lon="13.46882415573067"><ele>442.0</ele><time>2026-03-28T15:24:09Z</time></trkpt><trkpt lat="46.158374799573146" lon="13.468971466981127"><ele>442.0</ele><time>2026-03-28T15:24:10Z</time></trkpt><trkpt lat="46.1582880540212" lon="13.46913281808642"><ele>447.0</ele><time>2026-03-28T15:24:11Z</time></trkpt><trkpt lat="46.15819622672979" lon="13.469305058194896"><ele>452.0</ele><time>2026-03-28T15:24:12Z</time></trkpt><trkpt lat="46.158078746812116" lon="13.469459223158369"><ele>457.0</ele><time>2026-03-28T15:24:13Z</time></trkpt><trkpt lat="46.15794108305034" lon="13.469620974865952"><ele>447.0</ele><time>2026-03-28T15:24:14Z</time></trkpt><trkpt lat="46.15781396284431" lon="13.469765877832995"><ele>437.0</ele><time>2026-03-28T15:24:15Z</time></trkpt><trkpt lat="46.15768151952026" lon="13.469895501284668"><ele>427.0</ele><time>2026-03-28T15:24:16Z</time></trkpt><trkpt lat="46.15754041734169" lon="13.470002590082697"><ele>427.0</ele><time>2026-03-28T15:24:17Z</time></trkpt><trkpt lat="46.15742756265877" lon="13.470141583685793"><ele>427.0</ele><time>2026-03-28T15:24:18Z</time></trkpt><trkpt lat="46.157600920172676" lon="13.470232547159071"><ele>427.0</ele><time>2026-03-28T15:24:19Z</time></trkpt><trkpt lat="46.157516218661335" lon="13.470339523939343"><ele>427.0</ele><time>2026-03-28T15:24:20Z</time></trkpt><trkpt lat="46.15745018853209" lon="13.470500144243768"><ele>426.25</ele><time>2026-03-28T15:24:21Z</time></trkpt><trkpt lat="46.157400104915546" lon="13.470674209622404"><ele>425.5</ele><time>2026-03-28T15:24:22Z</time></trkpt><trkpt lat="46.15735333638952" lon="13.470850315715321"><ele>424.75</ele><time>2026-03-28T15:24:23Z</time></trkpt><trkpt lat="46.15728219103503" lon="13.470996521456508"><ele>424.0</ele><time>2026-03-28T15:24:24Z</time></trkpt><trkpt lat="46.1571934751566" lon="13.471119692425278"><ele>424.0</ele><time>2026-03-28T15:24:25Z</time></trkpt><trkpt lat="46.15711049250399" lon="13.47124432136141"><ele>424.0</ele><time>2026-03-28T15:24:26Z</time></trkpt><trkpt lat="46.1570142808553" lon="13.471354851381383"><ele>424.0</ele><time>2026-03-28T15:24:27Z</time></trkpt><trkpt lat="46.156910495347525" lon="13.471452355929802"><ele>424.0</ele><time>2026-03-28T15:24:28Z</time></trkpt><trkpt lat="46.15680569133371" lon="13.471535000946364"><ele>417.75</ele><time>2026-03-28T15:24:29Z</time></trkpt><trkpt lat="46.15669457274589" lon="13.471590846855706"><ele>411.5</ele><time>2026-03-28T15:24:30Z</time></trkpt><trkpt lat="46.15657300655713" lon="13.471614407256318"><ele>405.25</ele><time>2026-03-28T15:24:31Z</time></trkpt><trkpt lat="46.15644013464916" lon="13.4716467398367"><ele>399.0</ele><time>2026-03-28T15:24:32Z</time></trkpt><trkpt lat="46.15631075774393" lon="13.471676410725625"><ele>398.8333333333333</ele><time>2026-03-28T15:24:33Z</time></trkpt><trkpt lat="46.15619762672954" lon="13.471699750602147"><ele>398.66666666666663</ele><time>2026-03-28T15:24:34Z</time></trkpt><trkpt lat="46.15610711645288" lon="13.471698239440999"><ele>398.5</ele><time>2026-03-28T15:24:35Z</time></trkpt><trkpt lat="46.156037561667326" lon="13.471656053347068"><ele>398.3333333333333</ele><time>2026-03-28T15:24:36Z</time></trkpt><trkpt lat="46.155990913759155" lon="13.47156478699522"><ele>398.16666666666663</ele><time>2026-03-28T15:24:37Z</time></trkpt><trkpt lat="46.15595354975532" lon="13.471446527166908"><ele>398.0</ele><time>2026-03-28T15:24:38Z</time></trkpt><trkpt lat="46.15588207469775" lon="13.471361142306803"><ele>398.0</ele><time>2026-03-28T15:24:39Z</time></trkpt><trkpt lat="46.15580196193288" lon="13.471313627183148"><ele>398.0</ele><time>2026-03-28T15:24:40Z</time></trkpt><trkpt lat="46.15568844097756" lon="13.47131978612482"><ele>398.0</ele><time>2026-03-28T15:24:41Z</time></trkpt><trkpt lat="46.15555231677219" lon="13.471351221582461"><ele>398.0</ele><time>2026-03-28T15:24:42Z</time></trkpt><trkpt lat="46.15544447945115" lon="13.47132719453642"><ele>398.0</ele><time>2026-03-28T15:24:43Z</time></trkpt><trkpt lat="46.15534183675656" lon="13.47127572537182"><ele>403.0</ele><time>2026-03-28T15:24:44Z</time></trkpt><trkpt lat="46.15524617339484" lon="13.471224449914338"><ele>408.0</ele><time>2026-03-28T15:24:45Z</time></trkpt><trkpt lat="46.15516237358446" lon="13.471191891598965"><ele>413.0</ele><time>2026-03-28T15:24:46Z</time></trkpt><trkpt lat="46.155086861987655" lon="13.471174859157532"><ele>418.0</ele><time>2026-03-28T15:24:47Z</time></trkpt><trkpt lat="46.154996478342454" lon="13.471329774159464"><ele>423.0</ele><time>2026-03-28T15:24:49Z</time></trkpt><trkpt lat="46.15501256644347" lon="13.471495802446242"><ele>423.0</ele><time>2026-03-28T15:24:50Z</time></trkpt><trkpt lat="46.155064654669474" lon="13.471647593540165"><ele>423.0</ele><time>2026-03-28T15:24:51Z</time></trkpt><trkpt lat="46.15510607331253" lon="13.471803258432335"><ele>423.0</ele><time>2026-03-28T15:24:52Z</time></trkpt><trkpt lat="46.15515817608437" lon="13.47197042234009"><ele>423.0</ele><time>2026-03-28T15:24:53Z</time></trkpt><trkpt lat="46.155202370941346" lon="13.472155746986962"><ele>421.5</ele><time>2026-03-28T15:24:54Z</time></trkpt><trkpt lat="46.15525921474562" lon="13.47233712598677"><ele>420.0</ele><time>2026-03-28T15:24:55Z</time></trkpt><trkpt lat="46.155298792880295" lon="13.472522607240597"><ele>418.5</ele><time>2026-03-28T15:24:56Z</time></trkpt><trkpt lat="46.15534482021669" lon="13.472692216408827"><ele>417.0</ele><time>2026-03-28T15:24:57Z</time></trkpt><trkpt lat="46.15540881891586" lon="13.47284776034219"><ele>416.5</ele><time>2026-03-28T15:24:58Z</time></trkpt><trkpt lat="46.15547590754075" lon="13.473002606226038"><ele>416.0</ele><time>2026-03-28T15:24:59Z</time></trkpt><trkpt lat="46.155538000093976" lon="13.473160302021979"><ele>415.5</ele><time>2026-03-28T15:25:00Z</time></trkpt><trkpt lat="46.15558770147234" lon="13.473304356606196"><ele>415.0</ele><time>2026-03-28T15:25:01Z</time></trkpt><trkpt lat="46.15565579136514" lon="13.47344939203496"><ele>405.0</ele><time>2026-03-28T15:25:02Z</time></trkpt><trkpt lat="46.155717449947225" lon="13.47359648778415"><ele>395.0</ele><time>2026-03-28T15:25:03Z</time></trkpt><trkpt lat="46.15573322594568" lon="13.473769435523852"><ele>385.0</ele><time>2026-03-28T15:25:04Z</time></trkpt><trkpt lat="46.15572274883572" lon="13.47394119250808"><ele>375.0</ele><time>2026-03-28T15:25:05Z</time></trkpt><trkpt lat="46.15570924508279" lon="13.474124494068116"><ele>377.5</ele><time>2026-03-28T15:25:06Z</time></trkpt><trkpt lat="46.15568280499974" lon="13.474320148222496"><ele>380.0</ele><time>2026-03-28T15:25:07Z</time></trkpt><trkpt lat="46.15566625662604" lon="13.47452140736891"><ele>382.5</ele><time>2026-03-28T15:25:08Z</time></trkpt><trkpt lat="46.15562486986837" lon="13.474723048751843"><ele>385.0</ele><time>2026-03-28T15:25:09Z</time></trkpt><trkpt lat="46.155554347404525" lon="13.474896467859566"><ele>385.0</ele><time>2026-03-28T15:25:10Z</time></trkpt><trkpt lat="46.15546886778336" lon="13.475050767248574"><ele>385.0</ele><time>2026-03-28T15:25:11Z</time></trkpt><trkpt lat="46.155352570351624" lon="13.475197230832078"><ele>385.0</ele><time>2026-03-28T15:25:12Z</time></trkpt><trkpt lat="46.155221914582384" lon="13.475348160796278"><ele>377.33333333333337</ele><time>2026-03-28T15:25:13Z</time></trkpt><trkpt lat="46.15509416720462" lon="13.475502872469661"><ele>369.6666666666667</ele><time>2026-03-28T15:25:14Z</time></trkpt><trkpt lat="46.15498525751789" lon="13.475679859074027"><ele>362.0</ele><time>2026-03-28T15:25:15Z</time></trkpt><trkpt lat="46.15488004648517" lon="13.475887526441662"><ele>362.33333333333337</ele><time>2026-03-28T15:25:16Z</time></trkpt><trkpt lat="46.15477105597253" lon="13.47608917777497"><ele>362.6666666666667</ele><time>2026-03-28T15:25:17Z</time></trkpt><trkpt lat="46.154655896959255" lon="13.476285583730165"><ele>363.0</ele><time>2026-03-28T15:25:18Z</time></trkpt><trkpt lat="46.15454080642961" lon="13.476459535695538"><ele>363.0</ele><time>2026-03-28T15:25:19Z</time></trkpt><trkpt lat="46.15442242272182" lon="13.47662097100364"><ele>363.0</ele><time>2026-03-28T15:25:20Z</time></trkpt><trkpt lat="46.15430178286151" lon="13.476783127020806"><ele>363.0</ele><time>2026-03-28T15:25:21Z</time></trkpt><trkpt lat="46.15418432740107" lon="13.476936816932154"><ele>363.0</ele><time>2026-03-28T15:25:22Z</time></trkpt><trkpt lat="46.15407085785706" lon="13.477096729164485"><ele>363.0</ele><time>2026-03-28T15:25:23Z</time></trkpt><trkpt lat="46.153959622990534" lon="13.477252808346428"><ele>363.0</ele><time>2026-03-28T15:25:24Z</time></trkpt><trkpt lat="46.15384955665148" lon="13.477390076220457"><ele>358.75</ele><time>2026-03-28T15:25:25Z</time></trkpt><trkpt lat="46.15374370876643" lon="13.477520280168944"><ele>354.5</ele><time>2026-03-28T15:25:26Z</time></trkpt><trkpt lat="46.15363251596541" lon="13.477620281675414"><ele>350.25</ele><time>2026-03-28T15:25:27Z</time></trkpt><trkpt lat="46.15349994143635" lon="13.477677961208789"><ele>346.0</ele><time>2026-03-28T15:25:28Z</time></trkpt><trkpt lat="46.15336866552934" lon="13.477715035332505"><ele>346.0</ele><time>2026-03-28T15:25:29Z</time></trkpt><trkpt lat="46.15323933877227" lon="13.477742870902027"><ele>346.0</ele><time>2026-03-28T15:25:30Z</time></trkpt><trkpt lat="46.15311016548089" lon="13.477769842567321"><ele>346.0</ele><time>2026-03-28T15:25:31Z</time></trkpt><trkpt lat="46.15298201065067" lon="13.477785062624276"><ele>346.0</ele><time>2026-03-28T15:25:32Z</time></trkpt><trkpt lat="46.15286704460629" lon="13.477773327889219"><ele>345.0</ele><time>2026-03-28T15:25:33Z</time></trkpt><trkpt lat="46.152758693432475" lon="13.477734617535242"><ele>344.0</ele><time>2026-03-28T15:25:34Z</time></trkpt><trkpt lat="46.15265949207458" lon="13.477672269269545"><ele>343.0</ele><time>2026-03-28T15:25:35Z</time></trkpt><trkpt lat="46.15256434927716" lon="13.477649969735504"><ele>342.0</ele><time>2026-03-28T15:25:37Z</time></trkpt><trkpt lat="46.15253586545332" lon="13.477788944766171"><ele>341.0</ele><time>2026-03-28T15:25:39Z</time></trkpt><trkpt lat="46.15260949331631" lon="13.47795332174415"><ele>337.5</ele><time>2026-03-28T15:25:41Z</time></trkpt><trkpt lat="46.152676284509134" lon="13.478021203090604"><ele>334.0</ele><time>2026-03-28T15:25:42Z</time></trkpt><trkpt lat="46.15274877356677" lon="13.47806466909936"><ele>330.5</ele><time>2026-03-28T15:25:43Z</time></trkpt><trkpt lat="46.15282719754601" lon="13.478068481659552"><ele>327.0</ele><time>2026-03-28T15:25:44Z</time></trkpt><trkpt lat="46.152922846955704" lon="13.47805227203044"><ele>323.5</ele><time>2026-03-28T15:25:45Z</time></trkpt><trkpt lat="46.153029455873856" lon="13.478058901794235"><ele>320.0</ele><time>2026-03-28T15:25:46Z</time></trkpt><trkpt lat="46.15313046712073" lon="13.478126447877885"><ele>319.8</ele><time>2026-03-28T15:25:47Z</time></trkpt><trkpt lat="46.153234468386515" lon="13.47815658480973"><ele>319.6</ele><time>2026-03-28T15:25:48Z</time></trkpt><trkpt lat="46.153339521680124" lon="13.478179258922085"><ele>319.4</ele><time>2026-03-28T15:25:49Z</time></trkpt><trkpt lat="46.153433745484236" lon="13.478215723352042"><ele>319.2</ele><time>2026-03-28T15:25:50Z</time></trkpt><trkpt lat="46.153518036580536" lon="13.478259713886027"><ele>319.0</ele><time>2026-03-28T15:25:51Z</time></trkpt><trkpt lat="46.15358454947075" lon="13.478347989134482"><ele>319.0</ele><time>2026-03-28T15:25:52Z</time></trkpt><trkpt lat="46.15366472869933" lon="13.478406961622703"><ele>319.0</ele><time>2026-03-28T15:25:53Z</time></trkpt><trkpt lat="46.15375098981268" lon="13.478407894415366"><ele>319.0</ele><time>2026-03-28T15:25:54Z</time></trkpt><trkpt lat="46.153842919594" lon="13.478374624372314"><ele>319.0</ele><time>2026-03-28T15:25:55Z</time></trkpt><trkpt lat="46.15394210483626" lon="13.478304218121078"><ele>319.0</ele><time>2026-03-28T15:25:56Z</time></trkpt><trkpt lat="46.1540212969605" lon="13.478188512708597"><ele>316.0</ele><time>2026-03-28T15:25:57Z</time></trkpt><trkpt lat="46.15412522429839" lon="13.478085030963195"><ele>313.0</ele><time>2026-03-28T15:25:58Z</time></trkpt><trkpt lat="46.15424462394371" lon="13.477951895441327"><ele>310.0</ele><time>2026-03-28T15:25:59Z</time></trkpt><trkpt lat="46.154352863803695" lon="13.477826285886334"><ele>307.0</ele><time>2026-03-28T15:26:00Z</time></trkpt><trkpt lat="46.15447181714537" lon="13.47771806670234"><ele>308.0</ele><time>2026-03-28T15:26:01Z</time></trkpt><trkpt lat="46.15458715882663" lon="13.477621870575465"><ele>309.0</ele><time>2026-03-28T15:26:02Z</time></trkpt><trkpt lat="46.1547099209984" lon="13.47755998249654"><ele>310.0</ele><time>2026-03-28T15:26:03Z</time></trkpt><trkpt lat="46.15483663529585" lon="13.477534707627592"><ele>311.0</ele><time>2026-03-28T15:26:04Z</time></trkpt><trkpt lat="46.154961937149686" lon="13.477544814359717"><ele>311.0</ele><time>2026-03-28T15:26:05Z</time></trkpt><trkpt lat="46.155084797280246" lon="13.477561302488791"><ele>311.0</ele><time>2026-03-28T15:26:06Z</time></trkpt><trkpt lat="46.155187227750616" lon="13.477606401709327"><ele>311.0</ele><time>2026-03-28T15:26:07Z</time></trkpt><trkpt lat="46.15526299305594" lon="13.477645344852192"><ele>311.0</ele><time>2026-03-28T15:26:08Z</time></trkpt><trkpt lat="46.15533215056569" lon="13.477709479350123"><ele>311.0</ele><time>2026-03-28T15:26:09Z</time></trkpt><trkpt lat="46.15537200640887" lon="13.477829753525139"><ele>306.75</ele><time>2026-03-28T15:26:10Z</time></trkpt><trkpt lat="46.155379607699366" lon="13.477988661752768"><ele>302.5</ele><time>2026-03-28T15:26:11Z</time></trkpt><trkpt lat="46.15536536011093" lon="13.478169776573573"><ele>298.25</ele><time>2026-03-28T15:26:12Z</time></trkpt><trkpt lat="46.155349047329544" lon="13.478367631029993"><ele>294.0</ele><time>2026-03-28T15:26:13Z</time></trkpt><trkpt lat="46.155338199191995" lon="13.478578745195845"><ele>290.75</ele><time>2026-03-28T15:26:14Z</time></trkpt><trkpt lat="46.15533323082098" lon="13.478792785089743"><ele>287.5</ele><time>2026-03-28T15:26:15Z</time></trkpt><trkpt lat="46.155347094393846" lon="13.478995146696837"><ele>284.25</ele><time>2026-03-28T15:26:16Z</time></trkpt><trkpt lat="46.15537216006" lon="13.47920834843274"><ele>281.0</ele><time>2026-03-28T15:26:17Z</time></trkpt><trkpt lat="46.15547935589762" lon="13.479412008662203"><ele>278.6666666666667</ele><time>2026-03-28T15:26:18Z</time></trkpt><trkpt lat="46.15558474280853" lon="13.47964882983316"><ele>276.3333333333333</ele><time>2026-03-28T15:26:19Z</time></trkpt><trkpt lat="46.15571114273641" lon="13.479867142797984"><ele>274.0</ele><time>2026-03-28T15:26:20Z</time></trkpt><trkpt lat="46.15541363360106" lon="13.479937931058732"><ele>274.0</ele><time>2026-03-28T15:26:21Z</time></trkpt><trkpt lat="46.1553901422219" lon="13.480049583809302"><ele>274.0</ele><time>2026-03-28T15:26:22Z</time></trkpt><trkpt lat="46.15532707255574" lon="13.480145969385013"><ele>274.0</ele><time>2026-03-28T15:26:23Z</time></trkpt><trkpt lat="46.15524173265292" lon="13.480185805687462"><ele>274.0</ele><time>2026-03-28T15:26:24Z</time></trkpt><trkpt lat="46.15513967270984" lon="13.48015396339546"><ele>274.0</ele><time>2026-03-28T15:26:25Z</time></trkpt><trkpt lat="46.15503155869677" lon="13.480073904528215"><ele>274.0</ele><time>2026-03-28T15:26:26Z</time></trkpt><trkpt lat="46.15492754162177" lon="13.480004388336972"><ele>274.0</ele><time>2026-03-28T15:26:27Z</time></trkpt><trkpt lat="46.154833627103635" lon="13.479985292719771"><ele>274.0</ele><time>2026-03-28T15:26:28Z</time></trkpt><trkpt lat="46.15475487795971" lon="13.480025126807675"><ele>274.0</ele><time>2026-03-28T15:26:29Z</time></trkpt><trkpt lat="46.15470427650832" lon="13.480124408816385"><ele>274.0</ele><time>2026-03-28T15:26:30Z</time></trkpt><trkpt lat="46.154687487690595" lon="13.480252179047831"><ele>271.2</ele><time>2026-03-28T15:26:31Z</time></trkpt><trkpt lat="46.15471312543663" lon="13.480368410106653"><ele>268.4</ele><time>2026-03-28T15:26:32Z</time></trkpt><trkpt lat="46.15476979807661" lon="13.480486972609379"><ele>265.6</ele><time>2026-03-28T15:26:33Z</time></trkpt><trkpt lat="46.15483176453372" lon="13.48061378606428"><ele>262.8</ele><time>2026-03-28T15:26:34Z</time></trkpt><trkpt lat="46.15489954765057" lon="13.48073182947568"><ele>260.0</ele><time>2026-03-28T15:26:35Z</time></trkpt><trkpt lat="46.15497779981596" lon="13.480819070480978"><ele>260.0</ele><time>2026-03-28T15:26:36Z</time></trkpt><trkpt lat="46.15506612460166" lon="13.480849028104931"><ele>260.0</ele><time>2026-03-28T15:26:37Z</time></trkpt><trkpt lat="46.155157999338364" lon="13.480805401555225"><ele>260.0</ele><time>2026-03-28T15:26:38Z</time></trkpt><trkpt lat="46.155235346244766" lon="13.480726236812894"><ele>260.0</ele><time>2026-03-28T15:26:39Z</time></trkpt><trkpt lat="46.155317711938665" lon="13.480610993554519"><ele>260.0</ele><time>2026-03-28T15:26:40Z</time></trkpt><trkpt lat="46.15541024802947" lon="13.480501853090583"><ele>262.0</ele><time>2026-03-28T15:26:41Z</time></trkpt><trkpt lat="46.155518542218566" lon="13.480379549302155"><ele>264.0</ele><time>2026-03-28T15:26:42Z</time></trkpt><trkpt lat="46.15563527490615" lon="13.480249824970095"><ele>266.0</ele><time>2026-03-28T15:26:43Z</time></trkpt><trkpt lat="46.15575567491711" lon="13.48012493117194"><ele>268.0</ele><time>2026-03-28T15:26:44Z</time></trkpt><trkpt lat="46.15589329226286" lon="13.479997341491957"><ele>268.0</ele><time>2026-03-28T15:26:45Z</time></trkpt><trkpt lat="46.15603360989368" lon="13.479860700247306"><ele>268.0</ele><time>2026-03-28T15:26:46Z</time></trkpt><trkpt lat="46.156172527797544" lon="13.479729427844108"><ele>268.0</ele><time>2026-03-28T15:26:47Z</time></trkpt><trkpt lat="46.15631419492302" lon="13.47960509958745"><ele>263.3333333333333</ele><time>2026-03-28T15:26:48Z</time></trkpt><trkpt lat="46.15645597297855" lon="13.479490120036608"><ele>258.6666666666667</ele><time>2026-03-28T15:26:49Z</time></trkpt><trkpt lat="46.15659448608668" lon="13.479371658629054"><ele>254.0</ele><time>2026-03-28T15:26:50Z</time></trkpt><trkpt lat="46.15673417286573" lon="13.479242691738767"><ele>254.0</ele><time>2026-03-28T15:26:51Z</time></trkpt><trkpt lat="46.15686927512445" lon="13.479109639052464"><ele>254.0</ele><time>2026-03-28T15:26:52Z</time></trkpt><trkpt lat="46.15698816424442" lon="13.478975668373122"><ele>254.0</ele><time>2026-03-28T15:26:53Z</time></trkpt><trkpt lat="46.15709435599266" lon="13.478820072260307"><ele>264.33333333333337</ele><time>2026-03-28T15:26:54Z</time></trkpt><trkpt lat="46.15718669739891" lon="13.47863635617073"><ele>274.6666666666667</ele><time>2026-03-28T15:26:55Z</time></trkpt><trkpt lat="46.15727371424248" lon="13.478439784721186"><ele>285.0</ele><time>2026-03-28T15:26:56Z</time></trkpt><trkpt lat="46.157366014908014" lon="13.478239926115652"><ele>275.3333333333333</ele><time>2026-03-28T15:26:57Z</time></trkpt><trkpt lat="46.157463514015184" lon="13.478046148961143"><ele>265.66666666666663</ele><time>2026-03-28T15:26:58Z</time></trkpt><trkpt lat="46.15756148204002" lon="13.4778572389412"><ele>256.0</ele><time>2026-03-28T15:26:59Z</time></trkpt><trkpt lat="46.157661882732356" lon="13.477675080552384"><ele>256.0</ele><time>2026-03-28T15:27:00Z</time></trkpt><trkpt lat="46.15774993861986" lon="13.477487822086273"><ele>256.0</ele><time>2026-03-28T15:27:01Z</time></trkpt><trkpt lat="46.15785026678257" lon="13.477314027243022"><ele>256.0</ele><time>2026-03-28T15:27:02Z</time></trkpt><trkpt lat="46.157939121967715" lon="13.477153211439461"><ele>252.25</ele><time>2026-03-28T15:27:03Z</time></trkpt><trkpt lat="46.15801104762426" lon="13.477025150048227"><ele>248.5</ele><time>2026-03-28T15:27:04Z</time></trkpt><trkpt lat="46.158109078326525" lon="13.476948558892762"><ele>244.75</ele><time>2026-03-28T15:27:05Z</time></trkpt><trkpt lat="46.158227489104135" lon="13.47693331155031"><ele>241.0</ele><time>2026-03-28T15:27:06Z</time></trkpt><trkpt lat="46.15835463939997" lon="13.476923767665221"><ele>241.0</ele><time>2026-03-28T15:27:07Z</time></trkpt><trkpt lat="46.15847917773837" lon="13.476957448689593"><ele>241.00000000000003</ele><time>2026-03-28T15:27:08Z</time></trkpt><trkpt lat="46.158589480720394" lon="13.476964331037339"><ele>241.00000000000003</ele><time>2026-03-28T15:27:09Z</time></trkpt><trkpt lat="46.15868508948607" lon="13.476991186656758"><ele>241.0</ele><time>2026-03-28T15:27:10Z</time></trkpt><trkpt lat="46.15876150426525" lon="13.47704250783371"><ele>241.0</ele><time>2026-03-28T15:27:11Z</time></trkpt><trkpt lat="46.15881370255885" lon="13.47713417896978"><ele>237.0</ele><time>2026-03-28T15:27:12Z</time></trkpt><trkpt lat="46.158847629737885" lon="13.477283367361283"><ele>233.00000000000003</ele><time>2026-03-28T15:27:13Z</time></trkpt><trkpt lat="46.15889027669456" lon="13.477429248988187"><ele>229.00000000000003</ele><time>2026-03-28T15:27:14Z</time></trkpt><trkpt lat="46.15893689793194" lon="13.477576509659595"><ele>225.0</ele><time>2026-03-28T15:27:15Z</time></trkpt><trkpt lat="46.15897620294388" lon="13.477715030257023"><ele>221.0</ele><time>2026-03-28T15:27:16Z</time></trkpt><trkpt lat="46.15899064701549" lon="13.477848313575242"><ele>219.60000000000002</ele><time>2026-03-28T15:27:17Z</time></trkpt><trkpt lat="46.15897201277993" lon="13.477974149983686"><ele>218.20000000000002</ele><time>2026-03-28T15:27:18Z</time></trkpt><trkpt lat="46.158929026256835" lon="13.478093511444968"><ele>216.79999999999998</ele><time>2026-03-28T15:27:19Z</time></trkpt><trkpt lat="46.15886227014996" lon="13.47820006619041"><ele>215.39999999999998</ele><time>2026-03-28T15:27:20Z</time></trkpt><trkpt lat="46.15879544186168" lon="13.478318056685845"><ele>214.0</ele><time>2026-03-28T15:27:21Z</time></trkpt><trkpt lat="46.15873099611582" lon="13.478454819181026"><ele>214.0</ele><time>2026-03-28T15:27:22Z</time></trkpt><trkpt lat="46.15867053490566" lon="13.478600940603744"><ele>214.0</ele><time>2026-03-28T15:27:23Z</time></trkpt><trkpt lat="46.1586136292286" lon="13.478742782711906"><ele>214.0</ele><time>2026-03-28T15:27:24Z</time></trkpt><trkpt lat="46.158550574151946" lon="13.478879130986542"><ele>214.0</ele><time>2026-03-28T15:27:25Z</time></trkpt><trkpt lat="46.158491188190055" lon="13.479011744751846"><ele>213.0</ele><time>2026-03-28T15:27:26Z</time></trkpt><trkpt lat="46.15842013434586" lon="13.47913447248161"><ele>212.0</ele><time>2026-03-28T15:27:27Z</time></trkpt><trkpt lat="46.15833717029287" lon="13.47923908381833"><ele>211.0</ele><time>2026-03-28T15:27:28Z</time></trkpt><trkpt lat="46.15824132466279" lon="13.479330749289634"><ele>210.0</ele><time>2026-03-28T15:27:29Z</time></trkpt><trkpt lat="46.15812214247263" lon="13.479424705455202"><ele>208.75</ele><time>2026-03-28T15:27:30Z</time></trkpt><trkpt lat="46.15800042065481" lon="13.479515158619021"><ele>207.5</ele><time>2026-03-28T15:27:31Z</time></trkpt><trkpt lat="46.15787527811998" lon="13.47961307572798"><ele>206.25</ele><time>2026-03-28T15:27:32Z</time></trkpt><trkpt lat="46.15775903387773" lon="13.479732711564848"><ele>205.0</ele><time>2026-03-28T15:27:33Z</time></trkpt><trkpt lat="46.15764079782939" lon="13.47987854695452"><ele>205.0</ele><time>2026-03-28T15:27:34Z</time></trkpt><trkpt lat="46.1575218139092" lon="13.480028738811956"><ele>205.0</ele><time>2026-03-28T15:27:35Z</time></trkpt><trkpt lat="46.157411990143885" lon="13.480200602170962"><ele>205.0</ele><time>2026-03-28T15:27:36Z</time></trkpt><trkpt lat="46.15730001045737" lon="13.480388808013553"><ele>204.0</ele><time>2026-03-28T15:27:37Z</time></trkpt><trkpt lat="46.15718149416617" lon="13.480579362681166"><ele>203.0</ele><time>2026-03-28T15:27:38Z</time></trkpt><trkpt lat="46.15706376343543" lon="13.480765568512174"><ele>202.0</ele><time>2026-03-28T15:27:39Z</time></trkpt><trkpt lat="46.156942029850505" lon="13.480959165908557"><ele>202.0</ele><time>2026-03-28T15:27:40Z</time></trkpt><trkpt lat="46.15682321490116" lon="13.4811428241966"><ele>202.0</ele><time>2026-03-28T15:27:41Z</time></trkpt><trkpt lat="46.15670769882019" lon="13.481321291011518"><ele>202.0</ele><time>2026-03-28T15:27:42Z</time></trkpt><trkpt lat="46.15659471092467" lon="13.481499478276344"><ele>205.0</ele><time>2026-03-28T15:27:43Z</time></trkpt><trkpt lat="46.15648648053396" lon="13.481668647396088"><ele>208.0</ele><time>2026-03-28T15:27:44Z</time></trkpt><trkpt lat="46.156378330742164" lon="13.481833838533191"><ele>211.0</ele><time>2026-03-28T15:27:45Z</time></trkpt><trkpt lat="46.156271157019496" lon="13.481997448509068"><ele>204.66666666666666</ele><time>2026-03-28T15:27:46Z</time></trkpt><trkpt lat="46.15616316780003" lon="13.482164077796574"><ele>198.33333333333331</ele><time>2026-03-28T15:27:47Z</time></trkpt><trkpt lat="46.156056890848085" lon="13.482329162062346"><ele>192.0</ele><time>2026-03-28T15:27:48Z</time></trkpt><trkpt lat="46.15595283101769" lon="13.482497315787516"><ele>192.0</ele><time>2026-03-28T15:27:49Z</time></trkpt><trkpt lat="46.155860665906815" lon="13.482675545316013"><ele>192.0</ele><time>2026-03-28T15:27:50Z</time></trkpt><trkpt lat="46.15577225993703" lon="13.482859232080882"><ele>192.0</ele><time>2026-03-28T15:27:51Z</time></trkpt><trkpt lat="46.15570640445618" lon="13.483065542799627"><ele>196.66666666666669</ele><time>2026-03-28T15:27:52Z</time></trkpt><trkpt lat="46.15565582317355" lon="13.483279239427716"><ele>201.33333333333334</ele><time>2026-03-28T15:27:53Z</time></trkpt><trkpt lat="46.155603217927286" lon="13.483491390750036"><ele>206.0</ele><time>2026-03-28T15:27:54Z</time></trkpt><trkpt lat="46.15554941070254" lon="13.483692713399916"><ele>201.5</ele><time>2026-03-28T15:27:55Z</time></trkpt><trkpt lat="46.155470784302096" lon="13.48385882190687"><ele>197.0</ele><time>2026-03-28T15:27:56Z</time></trkpt><trkpt lat="46.15539225973236" lon="13.484003968900886"><ele>192.5</ele><time>2026-03-28T15:27:57Z</time></trkpt><trkpt lat="46.15528935506114" lon="13.484087319476743"><ele>188.0</ele><time>2026-03-28T15:27:58Z</time></trkpt><trkpt lat="46.155182339147096" lon="13.484132284188819"><ele>188.0</ele><time>2026-03-28T15:27:59Z</time></trkpt><trkpt lat="46.155072395499005" lon="13.484171052613211"><ele>188.0</ele><time>2026-03-28T15:28:00Z</time></trkpt><trkpt lat="46.15496544377061" lon="13.484233501072662"><ele>188.0</ele><time>2026-03-28T15:28:01Z</time></trkpt><trkpt lat="46.154847687867594" lon="13.484308741963979"><ele>188.0</ele><time>2026-03-28T15:28:02Z</time></trkpt><trkpt lat="46.154721703670916" lon="13.48438944671468"><ele>184.33333333333331</ele><time>2026-03-28T15:28:03Z</time></trkpt><trkpt lat="46.15458526435525" lon="13.484469554525932"><ele>180.66666666666666</ele><time>2026-03-28T15:28:04Z</time></trkpt><trkpt lat="46.154439038932" lon="13.484546048868701"><ele>177.0</ele><time>2026-03-28T15:28:05Z</time></trkpt><trkpt lat="46.154288284706965" lon="13.484613822439732"><ele>177.0</ele><time>2026-03-28T15:28:06Z</time></trkpt><trkpt lat="46.15412829995806" lon="13.484650255406082"><ele>177.0</ele><time>2026-03-28T15:28:07Z</time></trkpt><trkpt lat="46.15395938299995" lon="13.484644189918663"><ele>177.0</ele><time>2026-03-28T15:28:08Z</time></trkpt><trkpt lat="46.15379031897883" lon="13.484620875519962"><ele>182.33333333333331</ele><time>2026-03-28T15:28:09Z</time></trkpt><trkpt lat="46.153627926325456" lon="13.484562650988426"><ele>187.66666666666666</ele><time>2026-03-28T15:28:10Z</time></trkpt><trkpt lat="46.1534612090643" lon="13.484509507154556"><ele>193.0</ele><time>2026-03-28T15:28:11Z</time></trkpt><trkpt lat="46.15329940955914" lon="13.484464521442884"><ele>189.66666666666666</ele><time>2026-03-28T15:28:12Z</time></trkpt><trkpt lat="46.15313837769596" lon="13.48442244910285"><ele>186.33333333333331</ele><time>2026-03-28T15:28:13Z</time></trkpt><trkpt lat="46.15299411373759" lon="13.48438472831799"><ele>183.0</ele><time>2026-03-28T15:28:14Z</time></trkpt><trkpt lat="46.152853128923326" lon="13.484354328658169"><ele>183.0</ele><time>2026-03-28T15:28:15Z</time></trkpt><trkpt lat="46.15270882927647" lon="13.484317823377637"><ele>183.0</ele><time>2026-03-28T15:28:16Z</time></trkpt><trkpt lat="46.15256442734102" lon="13.484269894426498"><ele>183.0</ele><time>2026-03-28T15:28:17Z</time></trkpt><trkpt lat="46.152419259202865" lon="13.484221843530626"><ele>183.0</ele><time>2026-03-28T15:28:18Z</time></trkpt><trkpt lat="46.15227303240194" lon="13.48414959126367"><ele>182.0</ele><time>2026-03-28T15:28:19Z</time></trkpt><trkpt lat="46.15212769125449" lon="13.484082918236233"><ele>181.0</ele><time>2026-03-28T15:28:20Z</time></trkpt><trkpt lat="46.15197806844878" lon="13.48401960377344"><ele>180.0</ele><time>2026-03-28T15:28:21Z</time></trkpt><trkpt lat="46.15183745850265" lon="13.48394372544445"><ele>180.0</ele><time>2026-03-28T15:28:22Z</time></trkpt><trkpt lat="46.151693479597256" lon="13.483876914528425"><ele>180.0</ele><time>2026-03-28T15:28:23Z</time></trkpt><trkpt lat="46.15155561540264" lon="13.4838049164256"><ele>180.0</ele><time>2026-03-28T15:28:24Z</time></trkpt><trkpt lat="46.151424324507865" lon="13.483728775943897"><ele>180.0</ele><time>2026-03-28T15:28:25Z</time></trkpt><trkpt lat="46.15130703104058" lon="13.48365015052848"><ele>181.0</ele><time>2026-03-28T15:28:26Z</time></trkpt><trkpt lat="46.15120901842144" lon="13.483572203231983"><ele>182.0</ele><time>2026-03-28T15:28:27Z</time></trkpt><trkpt lat="46.151104951437304" lon="13.483522106274659"><ele>183.0</ele><time>2026-03-28T15:28:28Z</time></trkpt><trkpt lat="46.15100356044292" lon="13.483478163273208"><ele>184.0</ele><time>2026-03-28T15:28:29Z</time></trkpt><trkpt lat="46.15091052367911" lon="13.483432320915123"><ele>185.0</ele><time>2026-03-28T15:28:30Z</time></trkpt><trkpt lat="46.15081350140923" lon="13.483391276920043"><ele>185.0</ele><time>2026-03-28T15:28:31Z</time></trkpt><trkpt lat="46.150723428090046" lon="13.483333357558339"><ele>185.0</ele><time>2026-03-28T15:28:32Z</time></trkpt><trkpt lat="46.150640953862755" lon="13.483262747711443"><ele>185.0</ele><time>2026-03-28T15:28:33Z</time></trkpt><trkpt lat="46.15056274145777" lon="13.483176964106194"><ele>185.0</ele><time>2026-03-28T15:28:34Z</time></trkpt><trkpt lat="46.15049066451244" lon="13.483081813579208"><ele>185.0</ele><time>2026-03-28T15:28:35Z</time></trkpt><trkpt lat="46.15042716532249" lon="13.482968092871603"><ele>183.0</ele><time>2026-03-28T15:28:36Z</time></trkpt><trkpt lat="46.15035931482365" lon="13.48284637638784"><ele>181.0</ele><time>2026-03-28T15:28:37Z</time></trkpt><trkpt lat="46.15027530601326" lon="13.482708927854155"><ele>179.0</ele><time>2026-03-28T15:28:38Z</time></trkpt><trkpt lat="46.15018476885074" lon="13.482568954307036"><ele>177.0</ele><time>2026-03-28T15:28:39Z</time></trkpt><trkpt lat="46.15009486493435" lon="13.482424906138407"><ele>177.0</ele><time>2026-03-28T15:28:40Z</time></trkpt><trkpt lat="46.15000334744799" lon="13.482275392403354"><ele>177.0</ele><time>2026-03-28T15:28:41Z</time></trkpt><trkpt lat="46.14991055499393" lon="13.482125745983991"><ele>177.0</ele><time>2026-03-28T15:28:42Z</time></trkpt><trkpt lat="46.14982728010627" lon="13.481981700201642"><ele>177.0</ele><time>2026-03-28T15:28:43Z</time></trkpt><trkpt lat="46.14975112831882" lon="13.481860197425553"><ele>179.0</ele><time>2026-03-28T15:28:44Z</time></trkpt><trkpt lat="46.14966616581127" lon="13.481766825723566"><ele>181.0</ele><time>2026-03-28T15:28:45Z</time></trkpt><trkpt lat="46.14957449551695" lon="13.48172722742906"><ele>183.0</ele><time>2026-03-28T15:28:46Z</time></trkpt><trkpt lat="46.149465986086284" lon="13.48175016012168"><ele>185.0</ele><time>2026-03-28T15:28:47Z</time></trkpt><trkpt lat="46.14936663675137" lon="13.481822256099242"><ele>187.0</ele><time>2026-03-28T15:28:48Z</time></trkpt><trkpt lat="46.14926184323475" lon="13.481925439676502"><ele>187.0</ele><time>2026-03-28T15:28:49Z</time></trkpt><trkpt lat="46.1491459673108" lon="13.482002432694806"><ele>187.0</ele><time>2026-03-28T15:28:50Z</time></trkpt><trkpt lat="46.149022631489395" lon="13.482044597113457"><ele>187.0</ele><time>2026-03-28T15:28:51Z</time></trkpt><trkpt lat="46.14889238903914" lon="13.482056540340018"><ele>187.0</ele><time>2026-03-28T15:28:52Z</time></trkpt><trkpt lat="46.148797090966966" lon="13.48209070867326"><ele>186.33333333333334</ele><time>2026-03-28T15:28:53Z</time></trkpt><trkpt lat="46.14869976324561" lon="13.482127845572345"><ele>185.66666666666669</ele><time>2026-03-28T15:28:54Z</time></trkpt><trkpt lat="46.148601600448785" lon="13.482153920083165"><ele>185.0</ele><time>2026-03-28T15:28:55Z</time></trkpt><trkpt lat="46.148524771939684" lon="13.482169083100105"><ele>184.33333333333334</ele><time>2026-03-28T15:28:56Z</time></trkpt><trkpt lat="46.14844673888172" lon="13.482203841862493"><ele>183.66666666666666</ele><time>2026-03-28T15:28:57Z</time></trkpt><trkpt lat="46.148377766797225" lon="13.482242851641127"><ele>183.0</ele><time>2026-03-28T15:28:58Z</time></trkpt><trkpt lat="46.1483143795814" lon="13.482317211709605"><ele>183.0</ele><time>2026-03-28T15:28:59Z</time></trkpt><trkpt lat="46.1482832470399" lon="13.482412753708921"><ele>183.0</ele><time>2026-03-28T15:29:00Z</time></trkpt><trkpt lat="46.14824960974658" lon="13.482514321252847"><ele>183.0</ele><time>2026-03-28T15:29:01Z</time></trkpt><trkpt lat="46.148239418631896" lon="13.482643538704954"><ele>183.0</ele><time>2026-03-28T15:29:02Z</time></trkpt><trkpt lat="46.148225363022554" lon="13.482774086828911"><ele>183.0</ele><time>2026-03-28T15:29:03Z</time></trkpt><trkpt lat="46.14820162224634" lon="13.482872841263413"><ele>183.0</ele><time>2026-03-28T15:29:04Z</time></trkpt><trkpt lat="46.14815623862766" lon="13.482955912409855"><ele>182.60000000000002</ele><time>2026-03-28T15:29:05Z</time></trkpt><trkpt lat="46.14807124282097" lon="13.482987354364493"><ele>182.20000000000002</ele><time>2026-03-28T15:29:06Z</time></trkpt><trkpt lat="46.147983829489675" lon="13.482972547671888"><ele>181.8</ele><time>2026-03-28T15:29:07Z</time></trkpt><trkpt lat="46.147884382173565" lon="13.482928364390961"><ele>181.4</ele><time>2026-03-28T15:29:08Z</time></trkpt><trkpt lat="46.14777762347736" lon="13.482879274682416"><ele>181.0</ele><time>2026-03-28T15:29:09Z</time></trkpt><trkpt lat="46.14765734319262" lon="13.482832611050783"><ele>181.0</ele><time>2026-03-28T15:29:10Z</time></trkpt><trkpt lat="46.14752663586023" lon="13.482800016804093"><ele>181.0</ele><time>2026-03-28T15:29:11Z</time></trkpt><trkpt lat="46.1474116680471" lon="13.48275585068431"><ele>181.0</ele><time>2026-03-28T15:29:12Z</time></trkpt><trkpt lat="46.147272782599245" lon="13.482705830535771"><ele>181.0</ele><time>2026-03-28T15:29:13Z</time></trkpt><trkpt lat="46.147137258666035" lon="13.482654193326177"><ele>180.25</ele><time>2026-03-28T15:29:14Z</time></trkpt><trkpt lat="46.1470119559721" lon="13.482604560006243"><ele>179.5</ele><time>2026-03-28T15:29:15Z</time></trkpt><trkpt lat="46.1468838769461" lon="13.482555211561586"><ele>178.75</ele><time>2026-03-28T15:29:16Z</time></trkpt><trkpt lat="46.14675959659785" lon="13.48251179323535"><ele>178.0</ele><time>2026-03-28T15:29:17Z</time></trkpt><trkpt lat="46.14663782568226" lon="13.482466005069472"><ele>178.75</ele><time>2026-03-28T15:29:18Z</time></trkpt><trkpt lat="46.146517318602776" lon="13.482428037680398"><ele>179.5</ele><time>2026-03-28T15:29:19Z</time></trkpt><trkpt lat="46.146403449488844" lon="13.482401839587302"><ele>180.25</ele><time>2026-03-28T15:29:20Z</time></trkpt><trkpt lat="46.14628312787589" lon="13.482393028062702"><ele>181.0</ele><time>2026-03-28T15:29:21Z</time></trkpt><trkpt lat="46.14615587198238" lon="13.482409236495537"><ele>181.0</ele><time>2026-03-28T15:29:22Z</time></trkpt><trkpt lat="46.14602048939772" lon="13.482433609821717"><ele>181.0</ele><time>2026-03-28T15:29:23Z</time></trkpt><trkpt lat="46.14588103541819" lon="13.482447809268578"><ele>181.0</ele><time>2026-03-28T15:29:24Z</time></trkpt><trkpt lat="46.145741857413235" lon="13.4824497431447"><ele>181.0</ele><time>2026-03-28T15:29:25Z</time></trkpt><trkpt lat="46.145594791416386" lon="13.482444792791538"><ele>180.33333333333334</ele><time>2026-03-28T15:29:26Z</time></trkpt><trkpt lat="46.14544712858671" lon="13.482421033740833"><ele>179.66666666666666</ele><time>2026-03-28T15:29:27Z</time></trkpt><trkpt lat="46.145294766677466" lon="13.48240112838928"><ele>179.0</ele><time>2026-03-28T15:29:28Z</time></trkpt><trkpt lat="46.145142126082675" lon="13.482385702244342"><ele>179.0</ele><time>2026-03-28T15:29:29Z</time></trkpt><trkpt lat="46.144993562326746" lon="13.482368487095982"><ele>179.0</ele><time>2026-03-28T15:29:30Z</time></trkpt><trkpt lat="46.14484438164508" lon="13.482336367422226"><ele>179.0</ele><time>2026-03-28T15:29:31Z</time></trkpt><trkpt lat="46.14469703254775" lon="13.482276423811433"><ele>175.66666666666666</ele><time>2026-03-28T15:29:32Z</time></trkpt><trkpt lat="46.144553469283906" lon="13.482199939415171"><ele>172.33333333333334</ele><time>2026-03-28T15:29:33Z</time></trkpt><trkpt lat="46.14440505552507" lon="13.482133042649183"><ele>169.0</ele><time>2026-03-28T15:29:34Z</time></trkpt><trkpt lat="46.14426392498882" lon="13.482078789211922"><ele>174.25</ele><time>2026-03-28T15:29:35Z</time></trkpt><trkpt lat="46.14411861435211" lon="13.48205361476865"><ele>179.5</ele><time>2026-03-28T15:29:36Z</time></trkpt><trkpt lat="46.14398726007773" lon="13.482019403172187"><ele>184.75</ele><time>2026-03-28T15:29:37Z</time></trkpt><trkpt lat="46.14386377507205" lon="13.481987604146036"><ele>190.0</ele><time>2026-03-28T15:29:38Z</time></trkpt><trkpt lat="46.14374661740129" lon="13.481982549351626"><ele>190.0</ele><time>2026-03-28T15:29:39Z</time></trkpt><trkpt lat="46.14363018097194" lon="13.482009069841835"><ele>190.0</ele><time>2026-03-28T15:29:40Z</time></trkpt><trkpt lat="46.14352671982423" lon="13.48209262598056"><ele>190.0</ele><time>2026-03-28T15:29:41Z</time></trkpt><trkpt lat="46.14340080123728" lon="13.482177865322573"><ele>190.0</ele><time>2026-03-28T15:29:42Z</time></trkpt><trkpt lat="46.14327826329237" lon="13.48224677832048"><ele>183.75</ele><time>2026-03-28T15:29:43Z</time></trkpt><trkpt lat="46.14315412811548" lon="13.482286517777384"><ele>177.5</ele><time>2026-03-28T15:29:44Z</time></trkpt><trkpt lat="46.14303083641944" lon="13.48229605924239"><ele>171.25</ele><time>2026-03-28T15:29:45Z</time></trkpt><trkpt lat="46.14289480313629" lon="13.48233561164934"><ele>165.0</ele><time>2026-03-28T15:29:46Z</time></trkpt><trkpt lat="46.14276198523007" lon="13.482293225675981"><ele>165.0</ele><time>2026-03-28T15:29:47Z</time></trkpt><trkpt lat="46.14262532884497" lon="13.482275732797762"><ele>165.0</ele><time>2026-03-28T15:29:48Z</time></trkpt><trkpt lat="46.142487276275176" lon="13.482262014695307"><ele>165.0</ele><time>2026-03-28T15:29:49Z</time></trkpt><trkpt lat="46.14234525829819" lon="13.482228349158525"><ele>165.0</ele><time>2026-03-28T15:29:50Z</time></trkpt><trkpt lat="46.142201551157825" lon="13.48216502264845"><ele>165.33333333333334</ele><time>2026-03-28T15:29:51Z</time></trkpt><trkpt lat="46.142053277300406" lon="13.482101711761137"><ele>165.66666666666669</ele><time>2026-03-28T15:29:52Z</time></trkpt><trkpt lat="46.14190798205635" lon="13.482029192300393"><ele>166.0</ele><time>2026-03-28T15:29:53Z</time></trkpt><trkpt lat="46.141758270269044" lon="13.481953430013128"><ele>167.0</ele><time>2026-03-28T15:29:54Z</time></trkpt><trkpt lat="46.141613901949725" lon="13.48186235375365"><ele>168.0</ele><time>2026-03-28T15:29:55Z</time></trkpt><trkpt lat="46.14146811873705" lon="13.48177516182512"><ele>169.0</ele><time>2026-03-28T15:29:56Z</time></trkpt><trkpt lat="46.141316569856244" lon="13.481710755808104"><ele>169.0</ele><time>2026-03-28T15:29:57Z</time></trkpt><trkpt lat="46.14115845734907" lon="13.481670677340329"><ele>169.0</ele><time>2026-03-28T15:29:58Z</time></trkpt><trkpt lat="46.14099734864858" lon="13.481691005264112"><ele>169.0</ele><time>2026-03-28T15:29:59Z</time></trkpt><trkpt lat="46.140837644705016" lon="13.481755903868079"><ele>168.0</ele><time>2026-03-28T15:30:00Z</time></trkpt><trkpt lat="46.14068139616507" lon="13.481830431155647"><ele>167.0</ele><time>2026-03-28T15:30:01Z</time></trkpt><trkpt lat="46.14051629855533" lon="13.481878209086348"><ele>166.0</ele><time>2026-03-28T15:30:02Z</time></trkpt><trkpt lat="46.14034329562383" lon="13.48187817692907"><ele>166.0</ele><time>2026-03-28T15:30:03Z</time></trkpt><trkpt lat="46.140167610766476" lon="13.481843247600127"><ele>166.0</ele><time>2026-03-28T15:30:04Z</time></trkpt><trkpt lat="46.1399947914226" lon="13.48180170512931"><ele>166.0</ele><time>2026-03-28T15:30:05Z</time></trkpt><trkpt lat="46.13981762368392" lon="13.481773647862422"><ele>166.66666666666669</ele><time>2026-03-28T15:30:06Z</time></trkpt><trkpt lat="46.13963631818684" lon="13.481779704897104"><ele>167.33333333333334</ele><time>2026-03-28T15:30:07Z</time></trkpt><trkpt lat="46.13945229564612" lon="13.4818069397577"><ele>168.0</ele><time>2026-03-28T15:30:08Z</time></trkpt><trkpt lat="46.13927208760146" lon="13.481856497264852"><ele>168.0</ele><time>2026-03-28T15:30:09Z</time></trkpt><trkpt lat="46.13909290867378" lon="13.481892282766099"><ele>168.0</ele><time>2026-03-28T15:30:10Z</time></trkpt><trkpt lat="46.13890860239813" lon="13.481906479289998"><ele>168.0</ele><time>2026-03-28T15:30:11Z</time></trkpt><trkpt lat="46.13872879242897" lon="13.481900306135401"><ele>169.33333333333334</ele><time>2026-03-28T15:30:12Z</time></trkpt><trkpt lat="46.138545275861084" lon="13.481904835521144"><ele>170.66666666666669</ele><time>2026-03-28T15:30:13Z</time></trkpt><trkpt lat="46.13836387409409" lon="13.481922433680712"><ele>172.0</ele><time>2026-03-28T15:30:14Z</time></trkpt><trkpt lat="46.13818730616058" lon="13.481962271653744"><ele>172.33333333333334</ele><time>2026-03-28T15:30:15Z</time></trkpt><trkpt lat="46.138008741254815" lon="13.482028260315479"><ele>172.66666666666666</ele><time>2026-03-28T15:30:16Z</time></trkpt><trkpt lat="46.1378385478092" lon="13.482091835481697"><ele>173.0</ele><time>2026-03-28T15:30:17Z</time></trkpt><trkpt lat="46.13767158947078" lon="13.482116953896043"><ele>175.0</ele><time>2026-03-28T15:30:18Z</time></trkpt><trkpt lat="46.13750011221967" lon="13.482099859889196"><ele>177.0</ele><time>2026-03-28T15:30:19Z</time></trkpt><trkpt lat="46.137333825260924" lon="13.482057507507582"><ele>179.0</ele><time>2026-03-28T15:30:20Z</time></trkpt><trkpt lat="46.13714860652925" lon="13.481998318846083"><ele>179.0</ele><time>2026-03-28T15:30:21Z</time></trkpt><trkpt lat="46.1369438998549" lon="13.481933952081706"><ele>179.0</ele><time>2026-03-28T15:30:22Z</time></trkpt><trkpt lat="46.136723125720444" lon="13.481894297339194"><ele>179.0</ele><time>2026-03-28T15:30:23Z</time></trkpt><trkpt lat="46.13648491856824" lon="13.48190444774802"><ele>176.0</ele><time>2026-03-28T15:30:24Z</time></trkpt><trkpt lat="46.13624005908603" lon="13.481938223696066"><ele>173.0</ele><time>2026-03-28T15:30:25Z</time></trkpt><trkpt lat="46.13598022277063" lon="13.481988170105213"><ele>173.0</ele><time>2026-03-28T15:30:26Z</time></trkpt><trkpt lat="46.13574816995838" lon="13.482011047739768"><ele>173.0</ele><time>2026-03-28T15:30:27Z</time></trkpt><trkpt lat="46.13554128496797" lon="13.482010358655451"><ele>173.0</ele><time>2026-03-28T15:30:28Z</time></trkpt><trkpt lat="46.13535485955586" lon="13.481985704477752"><ele>174.0</ele><time>2026-03-28T15:30:29Z</time></trkpt><trkpt lat="46.13518093535599" lon="13.4819700034122"><ele>175.0</ele><time>2026-03-28T15:30:30Z</time></trkpt><trkpt lat="46.13501900269792" lon="13.48195848850013"><ele>176.0</ele><time>2026-03-28T15:30:31Z</time></trkpt><trkpt lat="46.134848412720174" lon="13.481952124146725"><ele>176.0</ele><time>2026-03-28T15:30:32Z</time></trkpt><trkpt lat="46.13466656556303" lon="13.481953422296419"><ele>176.0</ele><time>2026-03-28T15:30:33Z</time></trkpt><trkpt lat="46.134481802338534" lon="13.481968109171104"><ele>176.0</ele><time>2026-03-28T15:30:34Z</time></trkpt><trkpt lat="46.134295281002146" lon="13.482010113669975"><ele>176.0</ele><time>2026-03-28T15:30:35Z</time></trkpt><trkpt lat="46.13410226191766" lon="13.482067532981386"><ele>176.0</ele><time>2026-03-28T15:30:36Z</time></trkpt><trkpt lat="46.133910247996376" lon="13.482130721961944"><ele>176.0</ele><time>2026-03-28T15:30:37Z</time></trkpt><trkpt lat="46.1337103499514" lon="13.482194208829656"><ele>171.66666666666666</ele><time>2026-03-28T15:30:38Z</time></trkpt><trkpt lat="46.13351040638953" lon="13.482257334300629"><ele>167.33333333333334</ele><time>2026-03-28T15:30:39Z</time></trkpt><trkpt lat="46.13330931330938" lon="13.482313798053273"><ele>163.0</ele><time>2026-03-28T15:30:40Z</time></trkpt><trkpt lat="46.133106649062626" lon="13.48235459787979"><ele>163.0</ele><time>2026-03-28T15:30:41Z</time></trkpt><trkpt lat="46.13290008694532" lon="13.482383048330087"><ele>163.0</ele><time>2026-03-28T15:30:42Z</time></trkpt><trkpt lat="46.13270004023752" lon="13.482404209636389"><ele>163.0</ele><time>2026-03-28T15:30:43Z</time></trkpt><trkpt lat="46.13250657959311" lon="13.482416109718358"><ele>161.66666666666669</ele><time>2026-03-28T15:30:44Z</time></trkpt><trkpt lat="46.132327387319236" lon="13.482406383724745"><ele>160.33333333333334</ele><time>2026-03-28T15:30:45Z</time></trkpt><trkpt lat="46.13215587805655" lon="13.48236980862154"><ele>159.0</ele><time>2026-03-28T15:30:46Z</time></trkpt><trkpt lat="46.13199172695934" lon="13.482313142947802"><ele>159.0</ele><time>2026-03-28T15:30:47Z</time></trkpt><trkpt lat="46.13182274285335" lon="13.482271972387796"><ele>159.0</ele><time>2026-03-28T15:30:48Z</time></trkpt><trkpt lat="46.13167083634816" lon="13.482239032394821"><ele>159.0</ele><time>2026-03-28T15:30:49Z</time></trkpt><trkpt lat="46.131528740044004" lon="13.482234723777689"><ele>159.25</ele><time>2026-03-28T15:30:50Z</time></trkpt><trkpt lat="46.131391676423924" lon="13.48221576135307"><ele>159.5</ele><time>2026-03-28T15:30:51Z</time></trkpt><trkpt lat="46.13125908338993" lon="13.48218265336719"><ele>159.75</ele><time>2026-03-28T15:30:52Z</time></trkpt><trkpt lat="46.13111388944005" lon="13.482136811587663"><ele>160.0</ele><time>2026-03-28T15:30:53Z</time></trkpt><trkpt lat="46.13096411056272" lon="13.48209146041685"><ele>161.66666666666669</ele><time>2026-03-28T15:30:54Z</time></trkpt><trkpt lat="46.13080433399484" lon="13.482049956604504"><ele>163.33333333333334</ele><time>2026-03-28T15:30:55Z</time></trkpt><trkpt lat="46.130639756995066" lon="13.482009896732047"><ele>165.0</ele><time>2026-03-28T15:30:56Z</time></trkpt><trkpt lat="46.13046603058931" lon="13.481955254182001"><ele>165.0</ele><time>2026-03-28T15:30:57Z</time></trkpt><trkpt lat="46.130282260456426" lon="13.481907182388149"><ele>165.0</ele><time>2026-03-28T15:30:58Z</time></trkpt><trkpt lat="46.130092665039605" lon="13.481852797316757"><ele>165.0</ele><time>2026-03-28T15:30:59Z</time></trkpt><trkpt lat="46.12989513827051" lon="13.481800101480294"><ele>163.0</ele><time>2026-03-28T15:31:00Z</time></trkpt><trkpt lat="46.12969389804002" lon="13.481743499141482"><ele>161.0</ele><time>2026-03-28T15:31:01Z</time></trkpt><trkpt lat="46.12949346649518" lon="13.481680548988331"><ele>159.0</ele><time>2026-03-28T15:31:02Z</time></trkpt><trkpt lat="46.12929009607447" lon="13.481607376023016"><ele>159.0</ele><time>2026-03-28T15:31:03Z</time></trkpt><trkpt lat="46.12908756190762" lon="13.481512815212154"><ele>159.0</ele><time>2026-03-28T15:31:04Z</time></trkpt><trkpt lat="46.12889662787475" lon="13.48141725052506"><ele>159.0</ele><time>2026-03-28T15:31:05Z</time></trkpt><trkpt lat="46.12869428863076" lon="13.48130972613938"><ele>160.33333333333334</ele><time>2026-03-28T15:31:06Z</time></trkpt><trkpt lat="46.12850262685656" lon="13.481217435430818"><ele>161.66666666666669</ele><time>2026-03-28T15:31:07Z</time></trkpt><trkpt lat="46.12831039814162" lon="13.481122531688937"><ele>163.0</ele><time>2026-03-28T15:31:08Z</time></trkpt><trkpt lat="46.128123932670604" lon="13.481037577253591"><ele>163.0</ele><time>2026-03-28T15:31:09Z</time></trkpt><trkpt lat="46.127951988351874" lon="13.480968795584682"><ele>163.0</ele><time>2026-03-28T15:31:10Z</time></trkpt><trkpt lat="46.127773522225866" lon="13.480935147076275"><ele>163.0</ele><time>2026-03-28T15:31:11Z</time></trkpt><trkpt lat="46.127598042742505" lon="13.480887798684579"><ele>163.0</ele><time>2026-03-28T15:31:12Z</time></trkpt><trkpt lat="46.12741721204964" lon="13.48081865063828"><ele>163.0</ele><time>2026-03-28T15:31:13Z</time></trkpt><trkpt lat="46.12724209094029" lon="13.48073273205923"><ele>163.0</ele><time>2026-03-28T15:31:14Z</time></trkpt><trkpt lat="46.127072328692144" lon="13.48064620437492"><ele>161.0</ele><time>2026-03-28T15:31:15Z</time></trkpt><trkpt lat="46.12690710545696" lon="13.48057497731677"><ele>159.0</ele><time>2026-03-28T15:31:16Z</time></trkpt><trkpt lat="46.12674709362661" lon="13.480541652386064"><ele>157.0</ele><time>2026-03-28T15:31:17Z</time></trkpt><trkpt lat="46.12659257152908" lon="13.48048443092167"><ele>161.33333333333334</ele><time>2026-03-28T15:31:18Z</time></trkpt><trkpt lat="46.12644711436895" lon="13.480412698415147"><ele>165.66666666666666</ele><time>2026-03-28T15:31:19Z</time></trkpt><trkpt lat="46.126310419771755" lon="13.480297931259798"><ele>170.0</ele><time>2026-03-28T15:31:20Z</time></trkpt><trkpt lat="46.12616629765495" lon="13.480178904151026"><ele>170.0</ele><time>2026-03-28T15:31:21Z</time></trkpt><trkpt lat="46.12601641293694" lon="13.480067681882002"><ele>170.0</ele><time>2026-03-28T15:31:22Z</time></trkpt><trkpt lat="46.12586629815292" lon="13.479964040356453"><ele>170.0</ele><time>2026-03-28T15:31:23Z</time></trkpt><trkpt lat="46.125711361919585" lon="13.479849732543569"><ele>169.0</ele><time>2026-03-28T15:31:24Z</time></trkpt><trkpt lat="46.12555682689103" lon="13.479744486822652"><ele>168.0</ele><time>2026-03-28T15:31:25Z</time></trkpt><trkpt lat="46.12541191874795" lon="13.479638404340864"><ele>167.0</ele><time>2026-03-28T15:31:26Z</time></trkpt><trkpt lat="46.125263213831694" lon="13.479525351120913"><ele>167.0</ele><time>2026-03-28T15:31:27Z</time></trkpt><trkpt lat="46.12509747311255" lon="13.479371123910846"><ele>167.0</ele><time>2026-03-28T15:31:28Z</time></trkpt><trkpt lat="46.12498774413376" lon="13.479300058594097"><ele>167.0</ele><time>2026-03-28T15:31:29Z</time></trkpt><trkpt lat="46.12485517740371" lon="13.479167365844363"><ele>165.0</ele><time>2026-03-28T15:31:30Z</time></trkpt><trkpt lat="46.12471601139867" lon="13.479045936579382"><ele>163.0</ele><time>2026-03-28T15:31:31Z</time></trkpt><trkpt lat="46.12458139449136" lon="13.478890651560741"><ele>161.0</ele><time>2026-03-28T15:31:32Z</time></trkpt><trkpt lat="46.12445728307314" lon="13.478696750723714"><ele>161.0</ele><time>2026-03-28T15:31:33Z</time></trkpt><trkpt lat="46.12431872247281" lon="13.478610296928164"><ele>161.0</ele><time>2026-03-28T15:31:34Z</time></trkpt><trkpt lat="46.12419004578088" lon="13.478490537362937"><ele>161.0</ele><time>2026-03-28T15:31:35Z</time></trkpt><trkpt lat="46.124056511757686" lon="13.478342186536329"><ele>159.75</ele><time>2026-03-28T15:31:36Z</time></trkpt><trkpt lat="46.12393303637459" lon="13.478210692657692"><ele>158.5</ele><time>2026-03-28T15:31:37Z</time></trkpt><trkpt lat="46.12380734058866" lon="13.47810355518902"><ele>157.25</ele><time>2026-03-28T15:31:38Z</time></trkpt><trkpt lat="46.123681297504824" lon="13.47802975930712"><ele>156.0</ele><time>2026-03-28T15:31:39Z</time></trkpt><trkpt lat="46.12355299437808" lon="13.477964772572717"><ele>156.25</ele><time>2026-03-28T15:31:40Z</time></trkpt><trkpt lat="46.12342976819116" lon="13.477900455330824"><ele>156.5</ele><time>2026-03-28T15:31:41Z</time></trkpt><trkpt lat="46.12330207449509" lon="13.477836602621654"><ele>156.75</ele><time>2026-03-28T15:31:42Z</time></trkpt><trkpt lat="46.12317328231952" lon="13.477764635714987"><ele>157.0</ele><time>2026-03-28T15:31:43Z</time></trkpt><trkpt lat="46.123053692569265" lon="13.47769939962383"><ele>157.0</ele><time>2026-03-28T15:31:44Z</time></trkpt><trkpt lat="46.1229445017786" lon="13.477645134803993"><ele>157.0</ele><time>2026-03-28T15:31:45Z</time></trkpt><trkpt lat="46.122850217870386" lon="13.47759052366253"><ele>157.0</ele><time>2026-03-28T15:31:46Z</time></trkpt><trkpt lat="46.12275238965617" lon="13.477522943530587"><ele>157.0</ele><time>2026-03-28T15:31:47Z</time></trkpt><trkpt lat="46.122649690964515" lon="13.477497165794297"><ele>157.0</ele><time>2026-03-28T15:31:48Z</time></trkpt><trkpt lat="46.12252837337733" lon="13.477381582729453"><ele>157.0</ele><time>2026-03-28T15:31:49Z</time></trkpt><trkpt lat="46.12240405069588" lon="13.477313458903451"><ele>157.0</ele><time>2026-03-28T15:31:50Z</time></trkpt><trkpt lat="46.122278382516946" lon="13.477213756289796"><ele>157.0</ele><time>2026-03-28T15:31:51Z</time></trkpt><trkpt lat="46.12213701349687" lon="13.47717481534469"><ele>157.0</ele><time>2026-03-28T15:31:52Z</time></trkpt><trkpt lat="46.121996273395446" lon="13.477142834925571"><ele>157.0</ele><time>2026-03-28T15:31:53Z</time></trkpt><trkpt lat="46.12185371894407" lon="13.477122547311529"><ele>157.0</ele><time>2026-03-28T15:31:54Z</time></trkpt><trkpt lat="46.12171542569129" lon="13.477086646701574"><ele>157.0</ele><time>2026-03-28T15:31:55Z</time></trkpt><trkpt lat="46.12157933405288" lon="13.477033369898193"><ele>157.0</ele><time>2026-03-28T15:31:56Z</time></trkpt><trkpt lat="46.12144535413555" lon="13.476964089453567"><ele>157.0</ele><time>2026-03-28T15:31:57Z</time></trkpt><trkpt lat="46.12130594039503" lon="13.47689449693479"><ele>157.0</ele><time>2026-03-28T15:31:58Z</time></trkpt><trkpt lat="46.12116778555315" lon="13.476805370369815"><ele>157.0</ele><time>2026-03-28T15:31:59Z</time></trkpt><trkpt lat="46.12103154354664" lon="13.476733877861626"><ele>157.0</ele><time>2026-03-28T15:32:00Z</time></trkpt><trkpt lat="46.120898602405525" lon="13.476661637888428"><ele>157.0</ele><time>2026-03-28T15:32:01Z</time></trkpt><trkpt lat="46.120777252197236" lon="13.476593652988052"><ele>157.0</ele><time>2026-03-28T15:32:02Z</time></trkpt><trkpt lat="46.1206650718985" lon="13.47653541519375"><ele>157.0</ele><time>2026-03-28T15:32:03Z</time></trkpt><trkpt lat="46.12057742032661" lon="13.47648939094419"><ele>157.0</ele><time>2026-03-28T15:32:04Z</time></trkpt><trkpt lat="46.12050297032865" lon="13.476449451065267"><ele>157.0</ele><time>2026-03-28T15:32:05Z</time></trkpt><trkpt lat="46.12040163937734" lon="13.47636480916675"><ele>157.4</ele><time>2026-03-28T15:32:07Z</time></trkpt><trkpt lat="46.12035274464608" lon="13.476198264624928"><ele>157.79999999999998</ele><time>2026-03-28T15:32:09Z</time></trkpt><trkpt lat="46.12035743784464" lon="13.476079332259342"><ele>158.2</ele><time>2026-03-28T15:32:10Z</time></trkpt><trkpt lat="46.12038810024878" lon="13.475957756349477"><ele>158.6</ele><time>2026-03-28T15:32:11Z</time></trkpt><trkpt lat="46.120429768771224" lon="13.475826180037613"><ele>159.0</ele><time>2026-03-28T15:32:12Z</time></trkpt><trkpt lat="46.120478516449275" lon="13.47568154936403"><ele>159.0</ele><time>2026-03-28T15:32:13Z</time></trkpt><trkpt lat="46.12052587877238" lon="13.475529746354443"><ele>159.0</ele><time>2026-03-28T15:32:14Z</time></trkpt><trkpt lat="46.12058035875508" lon="13.475371272449992"><ele>159.0</ele><time>2026-03-28T15:32:15Z</time></trkpt><trkpt lat="46.12064032701517" lon="13.47523565220342"><ele>159.0</ele><time>2026-03-28T15:32:16Z</time></trkpt><trkpt lat="46.12071015302331" lon="13.47511955075133"><ele>159.8</ele><time>2026-03-28T15:32:17Z</time></trkpt><trkpt lat="46.12078474392846" lon="13.474998657002388"><ele>160.60000000000002</ele><time>2026-03-28T15:32:18Z</time></trkpt><trkpt lat="46.12086139336216" lon="13.474875613847386"><ele>161.4</ele><time>2026-03-28T15:32:19Z</time></trkpt><trkpt lat="46.1209351603319" lon="13.474762633935645"><ele>162.20000000000002</ele><time>2026-03-28T15:32:20Z</time></trkpt><trkpt lat="46.12101135170768" lon="13.474659472307632"><ele>163.0</ele><time>2026-03-28T15:32:21Z</time></trkpt><trkpt lat="46.12109741419927" lon="13.474567050124586"><ele>163.0</ele><time>2026-03-28T15:32:22Z</time></trkpt><trkpt lat="46.121196605979875" lon="13.47449800560668"><ele>163.0</ele><time>2026-03-28T15:32:23Z</time></trkpt><trkpt lat="46.12128718943362" lon="13.474427119247986"><ele>163.0</ele><time>2026-03-28T15:32:24Z</time></trkpt><trkpt lat="46.121372653989084" lon="13.474337522206524"><ele>163.0</ele><time>2026-03-28T15:32:25Z</time></trkpt><trkpt lat="46.121452356466946" lon="13.474229933983153"><ele>163.0</ele><time>2026-03-28T15:32:26Z</time></trkpt><trkpt lat="46.12151880520031" lon="13.474111377299822"><ele>163.66666666666669</ele><time>2026-03-28T15:32:27Z</time></trkpt><trkpt lat="46.12156941900835" lon="13.473993125001645"><ele>164.33333333333334</ele><time>2026-03-28T15:32:28Z</time></trkpt><trkpt lat="46.12160642370007" lon="13.473863254416353"><ele>165.0</ele><time>2026-03-28T15:32:29Z</time></trkpt><trkpt lat="46.12163531706776" lon="13.473740922033677"><ele>165.66666666666666</ele><time>2026-03-28T15:32:30Z</time></trkpt><trkpt lat="46.121637138524825" lon="13.47363296136182"><ele>166.33333333333331</ele><time>2026-03-28T15:32:31Z</time></trkpt><trkpt lat="46.12164266773463" lon="13.473539104744942"><ele>167.0</ele><time>2026-03-28T15:32:32Z</time></trkpt><trkpt lat="46.12157473966714" lon="13.473439811448658"><ele>166.6</ele><time>2026-03-28T15:32:34Z</time></trkpt><trkpt lat="46.121508083206066" lon="13.473403439597675"><ele>166.2</ele><time>2026-03-28T15:32:35Z</time></trkpt><trkpt lat="46.12142079119101" lon="13.473364990445072"><ele>165.8</ele><time>2026-03-28T15:32:36Z</time></trkpt><trkpt lat="46.12132613465031" lon="13.473313740607372"><ele>165.4</ele><time>2026-03-28T15:32:37Z</time></trkpt><trkpt lat="46.12122459866113" lon="13.473255036109224"><ele>165.0</ele><time>2026-03-28T15:32:38Z</time></trkpt><trkpt lat="46.1211197982911" lon="13.473196557900929"><ele>165.0</ele><time>2026-03-28T15:32:39Z</time></trkpt><trkpt lat="46.121016395499204" lon="13.47312424259542"><ele>165.0</ele><time>2026-03-28T15:32:40Z</time></trkpt><trkpt lat="46.12090726486376" lon="13.473041999299598"><ele>165.0</ele><time>2026-03-28T15:32:41Z</time></trkpt><trkpt lat="46.120782688195746" lon="13.472961489287588"><ele>165.0</ele><time>2026-03-28T15:32:42Z</time></trkpt><trkpt lat="46.120666201933396" lon="13.472875302093497"><ele>164.75</ele><time>2026-03-28T15:32:43Z</time></trkpt><trkpt lat="46.12054153722712" lon="13.47278558539385"><ele>164.5</ele><time>2026-03-28T15:32:44Z</time></trkpt><trkpt lat="46.12041328086431" lon="13.472692025709517"><ele>164.25</ele><time>2026-03-28T15:32:45Z</time></trkpt><trkpt lat="46.120289851198905" lon="13.472591943993729"><ele>164.0</ele><time>2026-03-28T15:32:46Z</time></trkpt><trkpt lat="46.12016204941689" lon="13.47249753196833"><ele>164.0</ele><time>2026-03-28T15:32:47Z</time></trkpt><trkpt lat="46.12003077666976" lon="13.472400659659284"><ele>164.0</ele><time>2026-03-28T15:32:48Z</time></trkpt><trkpt lat="46.11989566227812" lon="13.47229899456492"><ele>164.0</ele><time>2026-03-28T15:32:49Z</time></trkpt><trkpt lat="46.11977780681774" lon="13.472196139452876"><ele>164.0</ele><time>2026-03-28T15:32:50Z</time></trkpt><trkpt lat="46.11965805742015" lon="13.472077562767055"><ele>165.0</ele><time>2026-03-28T15:32:51Z</time></trkpt><trkpt lat="46.11952428270135" lon="13.471985584926339"><ele>166.0</ele><time>2026-03-28T15:32:52Z</time></trkpt><trkpt lat="46.11937954669332" lon="13.471908460880371"><ele>167.0</ele><time>2026-03-28T15:32:53Z</time></trkpt><trkpt lat="46.11923457593321" lon="13.471838199286582"><ele>167.0</ele><time>2026-03-28T15:32:54Z</time></trkpt><trkpt lat="46.11909017732692" lon="13.471768867678048"><ele>167.0</ele><time>2026-03-28T15:32:55Z</time></trkpt><trkpt lat="46.11895013743152" lon="13.471695882780182"><ele>167.0</ele><time>2026-03-28T15:32:56Z</time></trkpt><trkpt lat="46.1188198370955" lon="13.471646938123358"><ele>167.0</ele><time>2026-03-28T15:32:57Z</time></trkpt><trkpt lat="46.11869585555641" lon="13.471613566574916"><ele>165.75</ele><time>2026-03-28T15:32:58Z</time></trkpt><trkpt lat="46.11858195780789" lon="13.471600169628529"><ele>164.5</ele><time>2026-03-28T15:32:59Z</time></trkpt><trkpt lat="46.11847014189268" lon="13.47158338814343"><ele>163.25</ele><time>2026-03-28T15:33:00Z</time></trkpt><trkpt lat="46.118354182896994" lon="13.471555445038616"><ele>162.0</ele><time>2026-03-28T15:33:01Z</time></trkpt><trkpt lat="46.11823313148292" lon="13.471488661908795"><ele>162.0</ele><time>2026-03-28T15:33:02Z</time></trkpt><trkpt lat="46.118118386939834" lon="13.471399631927516"><ele>162.0</ele><time>2026-03-28T15:33:03Z</time></trkpt><trkpt lat="46.1179985516263" lon="13.471298738741272"><ele>162.0</ele><time>2026-03-28T15:33:04Z</time></trkpt><trkpt lat="46.11787715385613" lon="13.471204845811183"><ele>162.0</ele><time>2026-03-28T15:33:05Z</time></trkpt><trkpt lat="46.117751543318974" lon="13.471112535954042"><ele>162.0</ele><time>2026-03-28T15:33:06Z</time></trkpt><trkpt lat="46.11763643885447" lon="13.471024387244206"><ele>162.0</ele><time>2026-03-28T15:33:07Z</time></trkpt><trkpt lat="46.117538211761904" lon="13.470952811314527"><ele>162.0</ele><time>2026-03-28T15:33:08Z</time></trkpt><trkpt lat="46.117452067694835" lon="13.470879384523977"><ele>162.0</ele><time>2026-03-28T15:33:09Z</time></trkpt><trkpt lat="46.11740485518042" lon="13.4708096411525"><ele>162.0</ele><time>2026-03-28T15:33:11Z</time></trkpt><trkpt lat="46.117425787497304" lon="13.470694995698366"><ele>161.8</ele><time>2026-03-28T15:33:13Z</time></trkpt><trkpt lat="46.11740073348449" lon="13.470529988863138"><ele>161.6</ele><time>2026-03-28T15:33:15Z</time></trkpt><trkpt lat="46.11736111505175" lon="13.4704194609829"><ele>161.4</ele><time>2026-03-28T15:33:17Z</time></trkpt><trkpt lat="46.11728846897444" lon="13.470259650744744"><ele>161.20000000000002</ele><time>2026-03-28T15:33:19Z</time></trkpt><trkpt lat="46.117242195252544" lon="13.47018554671829"><ele>161.0</ele><time>2026-03-28T15:33:20Z</time></trkpt><trkpt lat="46.11718151485827" lon="13.47010533196844"><ele>161.0</ele><time>2026-03-28T15:33:22Z</time></trkpt><trkpt lat="46.11713622856886" lon="13.470036958512452"><ele>161.0</ele><time>2026-03-28T15:33:24Z</time></trkpt><trkpt lat="46.117052875751845" lon="13.469996109853193"><ele>161.0</ele><time>2026-03-28T15:33:26Z</time></trkpt><trkpt lat="46.116991639340604" lon="13.469940909978304"><ele>161.0</ele><time>2026-03-28T15:33:27Z</time></trkpt><trkpt lat="46.11692513273078" lon="13.469870051778825"><ele>161.0</ele><time>2026-03-28T15:33:28Z</time></trkpt><trkpt lat="46.11685820964351" lon="13.469774051079883"><ele>161.0</ele><time>2026-03-28T15:33:29Z</time></trkpt><trkpt lat="46.11679466653379" lon="13.469672052913289"><ele>160.60000000000002</ele><time>2026-03-28T15:33:30Z</time></trkpt><trkpt lat="46.11673256345612" lon="13.469559473592403"><ele>160.20000000000002</ele><time>2026-03-28T15:33:31Z</time></trkpt><trkpt lat="46.11664777167862" lon="13.469440213258677"><ele>159.8</ele><time>2026-03-28T15:33:32Z</time></trkpt><trkpt lat="46.11657173991819" lon="13.469333839751084"><ele>159.4</ele><time>2026-03-28T15:33:33Z</time></trkpt><trkpt lat="46.11650332563692" lon="13.469225030646086"><ele>159.0</ele><time>2026-03-28T15:33:34Z</time></trkpt><trkpt lat="46.11643271098318" lon="13.469104455495867"><ele>159.0</ele><time>2026-03-28T15:33:35Z</time></trkpt><trkpt lat="46.1163461603183" lon="13.468989619760974"><ele>159.0</ele><time>2026-03-28T15:33:36Z</time></trkpt><trkpt lat="46.11624412686803" lon="13.468879216168672"><ele>159.0</ele><time>2026-03-28T15:33:37Z</time></trkpt><trkpt lat="46.11615964530663" lon="13.46873618928614"><ele>159.0</ele><time>2026-03-28T15:33:38Z</time></trkpt><trkpt lat="46.11609094499355" lon="13.468591799076973"><ele>159.75</ele><time>2026-03-28T15:33:39Z</time></trkpt><trkpt lat="46.115997113201225" lon="13.468472868530847"><ele>160.5</ele><time>2026-03-28T15:33:40Z</time></trkpt><trkpt lat="46.115892991895706" lon="13.468334800980191"><ele>161.25</ele><time>2026-03-28T15:33:41Z</time></trkpt><trkpt lat="46.1157877240113" lon="13.468193025299632"><ele>162.0</ele><time>2026-03-28T15:33:42Z</time></trkpt><trkpt lat="46.11568494206685" lon="13.468053871365049"><ele>163.75</ele><time>2026-03-28T15:33:43Z</time></trkpt><trkpt lat="46.115593933046426" lon="13.467933628178118"><ele>165.5</ele><time>2026-03-28T15:33:44Z</time></trkpt><trkpt lat="46.115505444774946" lon="13.467827159591922"><ele>167.25</ele><time>2026-03-28T15:33:45Z</time></trkpt><trkpt lat="46.11541909904598" lon="13.46772475808856"><ele>169.0</ele><time>2026-03-28T15:33:46Z</time></trkpt><trkpt lat="46.11532204219282" lon="13.467620568070314"><ele>169.0</ele><time>2026-03-28T15:33:47Z</time></trkpt><trkpt lat="46.11521069181681" lon="13.467551681872415"><ele>169.0</ele><time>2026-03-28T15:33:48Z</time></trkpt><trkpt lat="46.115091274785236" lon="13.467490935071517"><ele>169.0</ele><time>2026-03-28T15:33:49Z</time></trkpt><trkpt lat="46.11496898067886" lon="13.467444595210637"><ele>169.0</ele><time>2026-03-28T15:33:50Z</time></trkpt><trkpt lat="46.114846218656496" lon="13.467400172862726"><ele>169.25</ele><time>2026-03-28T15:33:51Z</time></trkpt><trkpt lat="46.11472570867915" lon="13.467333865968898"><ele>169.5</ele><time>2026-03-28T15:33:52Z</time></trkpt><trkpt lat="46.11461825520769" lon="13.467238751547272"><ele>169.75</ele><time>2026-03-28T15:33:53Z</time></trkpt><trkpt lat="46.11451047239673" lon="13.467151561557694"><ele>170.0</ele><time>2026-03-28T15:33:54Z</time></trkpt><trkpt lat="46.11439760141314" lon="13.46705324012721"><ele>170.0</ele><time>2026-03-28T15:33:55Z</time></trkpt><trkpt lat="46.11424767837701" lon="13.466984554893623"><ele>170.0</ele><time>2026-03-28T15:33:56Z</time></trkpt><trkpt lat="46.114114947766325" lon="13.466944960688371"><ele>170.0</ele><time>2026-03-28T15:33:57Z</time></trkpt><trkpt lat="46.113979776362214" lon="13.466872759212889"><ele>170.0</ele><time>2026-03-28T15:33:58Z</time></trkpt><trkpt lat="46.11383344297777" lon="13.466780428718724"><ele>168.0</ele><time>2026-03-28T15:33:59Z</time></trkpt><trkpt lat="46.113675354907656" lon="13.466681794955866"><ele>166.0</ele><time>2026-03-28T15:34:00Z</time></trkpt><trkpt lat="46.113503690074495" lon="13.46657469043512"><ele>164.0</ele><time>2026-03-28T15:34:01Z</time></trkpt><trkpt lat="46.11332081792937" lon="13.466460593486712"><ele>164.0</ele><time>2026-03-28T15:34:02Z</time></trkpt><trkpt lat="46.11313958220013" lon="13.4663460724388"><ele>164.0</ele><time>2026-03-28T15:34:03Z</time></trkpt><trkpt lat="46.11298059267056" lon="13.466243418068258"><ele>164.0</ele><time>2026-03-28T15:34:04Z</time></trkpt><trkpt lat="46.11278412039142" lon="13.466115690435943"><ele>164.0</ele><time>2026-03-28T15:34:05Z</time></trkpt><trkpt lat="46.11260947227106" lon="13.466002672133586"><ele>164.0</ele><time>2026-03-28T15:34:06Z</time></trkpt><trkpt lat="46.11243044028571" lon="13.465889081558052"><ele>164.0</ele><time>2026-03-28T15:34:07Z</time></trkpt><trkpt lat="46.11225818436214" lon="13.465780728038489"><ele>163.0</ele><time>2026-03-28T15:34:08Z</time></trkpt><trkpt lat="46.112087090672375" lon="13.4656721897451"><ele>162.0</ele><time>2026-03-28T15:34:09Z</time></trkpt><trkpt lat="46.11191662841842" lon="13.465564052028597"><ele>161.0</ele><time>2026-03-28T15:34:10Z</time></trkpt><trkpt lat="46.111745068977115" lon="13.465453969108243"><ele>161.66666666666666</ele><time>2026-03-28T15:34:11Z</time></trkpt><trkpt lat="46.111578172825304" lon="13.465345810406703"><ele>162.33333333333334</ele><time>2026-03-28T15:34:12Z</time></trkpt><trkpt lat="46.11141260471599" lon="13.4652430605089"><ele>163.0</ele><time>2026-03-28T15:34:13Z</time></trkpt><trkpt lat="46.111247942041366" lon="13.46514056314345"><ele>163.0</ele><time>2026-03-28T15:34:14Z</time></trkpt><trkpt lat="46.111084452507534" lon="13.46503615444048"><ele>163.0</ele><time>2026-03-28T15:34:15Z</time></trkpt><trkpt lat="46.110923518634614" lon="13.464932074341002"><ele>163.0</ele><time>2026-03-28T15:34:16Z</time></trkpt><trkpt lat="46.1107639111532" lon="13.464827602830399"><ele>163.25</ele><time>2026-03-28T15:34:17Z</time></trkpt><trkpt lat="46.110621884396636" lon="13.464728431463808"><ele>163.5</ele><time>2026-03-28T15:34:18Z</time></trkpt><trkpt lat="46.11048933041511" lon="13.464630840318438"><ele>163.75</ele><time>2026-03-28T15:34:19Z</time></trkpt><trkpt lat="46.11037541128164" lon="13.46454092564697"><ele>164.0</ele><time>2026-03-28T15:34:20Z</time></trkpt><trkpt lat="46.11026715803051" lon="13.464449130626488"><ele>164.0</ele><time>2026-03-28T15:34:21Z</time></trkpt><trkpt lat="46.11017779315256" lon="13.464359989136021"><ele>164.0</ele><time>2026-03-28T15:34:22Z</time></trkpt><trkpt lat="46.11007028609483" lon="13.464290344807718"><ele>164.0</ele><time>2026-03-28T15:34:23Z</time></trkpt><trkpt lat="46.10995897101891" lon="13.464231652664113"><ele>164.0</ele><time>2026-03-28T15:34:24Z</time></trkpt><trkpt lat="46.10985478693986" lon="13.464203308770218"><ele>161.5</ele><time>2026-03-28T15:34:25Z</time></trkpt><trkpt lat="46.109728883086404" lon="13.464235650772478"><ele>159.0</ele><time>2026-03-28T15:34:26Z</time></trkpt><trkpt lat="46.10962514077679" lon="13.464302331252103"><ele>156.5</ele><time>2026-03-28T15:34:27Z</time></trkpt><trkpt lat="46.109534615500046" lon="13.46441004442435"><ele>154.0</ele><time>2026-03-28T15:34:28Z</time></trkpt><trkpt lat="46.10944294411196" lon="13.464537676030652"><ele>153.75</ele><time>2026-03-28T15:34:29Z</time></trkpt><trkpt lat="46.10933492522804" lon="13.464691453110769"><ele>153.5</ele><time>2026-03-28T15:34:30Z</time></trkpt><trkpt lat="46.109236635497375" lon="13.46482611765727"><ele>153.25</ele><time>2026-03-28T15:34:31Z</time></trkpt><trkpt lat="46.1091536149927" lon="13.464902985887244"><ele>153.0</ele><time>2026-03-28T15:34:32Z</time></trkpt><trkpt lat="46.10907978369792" lon="13.464927750268476"><ele>153.0</ele><time>2026-03-28T15:34:33Z</time></trkpt><trkpt lat="46.10901462692658" lon="13.464857389279803"><ele>153.0</ele><time>2026-03-28T15:34:34Z</time></trkpt><trkpt lat="46.1089301038306" lon="13.464791403818941"><ele>153.0</ele><time>2026-03-28T15:34:35Z</time></trkpt><trkpt lat="46.10883024509408" lon="13.464710675293174"><ele>153.0</ele><time>2026-03-28T15:34:36Z</time></trkpt><trkpt lat="46.10871425351893" lon="13.46465069032679"><ele>153.0</ele><time>2026-03-28T15:34:37Z</time></trkpt><trkpt lat="46.10859604003542" lon="13.464579676482337"><ele>153.0</ele><time>2026-03-28T15:34:38Z</time></trkpt><trkpt lat="46.10847754582478" lon="13.464526234230782"><ele>153.0</ele><time>2026-03-28T15:34:39Z</time></trkpt><trkpt lat="46.108367416632426" lon="13.46448745584533"><ele>153.0</ele><time>2026-03-28T15:34:40Z</time></trkpt><trkpt lat="46.108259729324296" lon="13.464452282262561"><ele>153.0</ele><time>2026-03-28T15:34:41Z</time></trkpt><trkpt lat="46.10814654451238" lon="13.464406221430764"><ele>151.6</ele><time>2026-03-28T15:34:42Z</time></trkpt><trkpt lat="46.108032940004904" lon="13.464357294826062"><ele>150.20000000000002</ele><time>2026-03-28T15:34:43Z</time></trkpt><trkpt lat="46.10794374355397" lon="13.464262559217083"><ele>148.8</ele><time>2026-03-28T15:34:44Z</time></trkpt><trkpt lat="46.10785951253541" lon="13.464191692418003"><ele>147.4</ele><time>2026-03-28T15:34:45Z</time></trkpt><trkpt lat="46.10779572089677" lon="13.464155495299579"><ele>146.0</ele><time>2026-03-28T15:34:46Z</time></trkpt><trkpt lat="46.10770601542986" lon="13.464060167097356"><ele>146.0</ele><time>2026-03-28T15:34:48Z</time></trkpt><trkpt lat="46.10771017092769" lon="13.463872499154272"><ele>146.0</ele><time>2026-03-28T15:34:50Z</time></trkpt><trkpt lat="46.10770399464058" lon="13.463696709108438"><ele>146.0</ele><time>2026-03-28T15:34:51Z</time></trkpt><trkpt lat="46.10768145011265" lon="13.463502859955804"><ele>146.0</ele><time>2026-03-28T15:34:52Z</time></trkpt><trkpt lat="46.10766946572026" lon="13.463312698908858"><ele>146.0</ele><time>2026-03-28T15:34:53Z</time></trkpt><trkpt lat="46.10764996949778" lon="13.46311620125765"><ele>146.0</ele><time>2026-03-28T15:34:54Z</time></trkpt><trkpt lat="46.10762820927071" lon="13.462901030728133"><ele>146.0</ele><time>2026-03-28T15:34:55Z</time></trkpt><trkpt lat="46.107618701631964" lon="13.462674659004925"><ele>146.0</ele><time>2026-03-28T15:34:56Z</time></trkpt><trkpt lat="46.107580451047184" lon="13.462463015660951"><ele>146.33333333333331</ele><time>2026-03-28T15:34:57Z</time></trkpt><trkpt lat="46.107550999940464" lon="13.46223633922017"><ele>146.66666666666666</ele><time>2026-03-28T15:34:58Z</time></trkpt><trkpt lat="46.10749449759496" lon="13.462019421516482"><ele>147.0</ele><time>2026-03-28T15:34:59Z</time></trkpt><trkpt lat="46.1074256675192" lon="13.461794410745174"><ele>146.0</ele><time>2026-03-28T15:35:00Z</time></trkpt><trkpt lat="46.10735433654097" lon="13.461571358415844"><ele>145.0</ele><time>2026-03-28T15:35:01Z</time></trkpt><trkpt lat="46.10728033016878" lon="13.46134586755036"><ele>144.0</ele><time>2026-03-28T15:35:02Z</time></trkpt><trkpt lat="46.10720657282983" lon="13.461117016203952"><ele>144.0</ele><time>2026-03-28T15:35:03Z</time></trkpt><trkpt lat="46.10712842251933" lon="13.46088309685165"><ele>144.0</ele><time>2026-03-28T15:35:04Z</time></trkpt><trkpt lat="46.1070516534222" lon="13.460647774881865"><ele>144.0</ele><time>2026-03-28T15:35:05Z</time></trkpt><trkpt lat="46.106971837143895" lon="13.460408892723818"><ele>143.66666666666666</ele><time>2026-03-28T15:35:06Z</time></trkpt><trkpt lat="46.1068938477749" lon="13.460171241629087"><ele>143.33333333333331</ele><time>2026-03-28T15:35:07Z</time></trkpt><trkpt lat="46.10681600885679" lon="13.459942259268699"><ele>143.0</ele><time>2026-03-28T15:35:08Z</time></trkpt><trkpt lat="46.10674169935312" lon="13.459720921385655"><ele>143.33333333333331</ele><time>2026-03-28T15:35:09Z</time></trkpt><trkpt lat="46.106669484386494" lon="13.459501430787572"><ele>143.66666666666666</ele><time>2026-03-28T15:35:10Z</time></trkpt><trkpt lat="46.10660662063701" lon="13.45928403944033"><ele>144.0</ele><time>2026-03-28T15:35:11Z</time></trkpt><trkpt lat="46.10654011949553" lon="13.45906316248578"><ele>143.66666666666666</ele><time>2026-03-28T15:35:12Z</time></trkpt><trkpt lat="46.106475182172304" lon="13.458847152438814"><ele>143.33333333333331</ele><time>2026-03-28T15:35:13Z</time></trkpt><trkpt lat="46.106411591267374" lon="13.45863342479264"><ele>143.0</ele><time>2026-03-28T15:35:14Z</time></trkpt><trkpt lat="46.10635418459779" lon="13.458424729025365"><ele>143.0</ele><time>2026-03-28T15:35:15Z</time></trkpt><trkpt lat="46.10629204602336" lon="13.458217329011509"><ele>143.0</ele><time>2026-03-28T15:35:16Z</time></trkpt><trkpt lat="46.106233788424305" lon="13.458014139319161"><ele>143.0</ele><time>2026-03-28T15:35:17Z</time></trkpt><trkpt lat="46.106173224451915" lon="13.457815657726675"><ele>143.5</ele><time>2026-03-28T15:35:18Z</time></trkpt><trkpt lat="46.106109340404224" lon="13.457625293231823"><ele>144.0</ele><time>2026-03-28T15:35:19Z</time></trkpt><trkpt lat="46.10603461173399" lon="13.45743566811589"><ele>144.5</ele><time>2026-03-28T15:35:20Z</time></trkpt><trkpt lat="46.10595885016131" lon="13.457249697398206"><ele>145.0</ele><time>2026-03-28T15:35:21Z</time></trkpt><trkpt lat="46.10588372048584" lon="13.457065121381468"><ele>145.0</ele><time>2026-03-28T15:35:22Z</time></trkpt><trkpt lat="46.10582512824294" lon="13.456865496531975"><ele>145.0</ele><time>2026-03-28T15:35:23Z</time></trkpt><trkpt lat="46.10574080032821" lon="13.456678929959734"><ele>145.0</ele><time>2026-03-28T15:35:24Z</time></trkpt><trkpt lat="46.10567443531046" lon="13.456482596991917"><ele>145.0</ele><time>2026-03-28T15:35:25Z</time></trkpt><trkpt lat="46.10560752344621" lon="13.456287116548795"><ele>145.0</ele><time>2026-03-28T15:35:26Z</time></trkpt><trkpt lat="46.1055353103267" lon="13.456091892443172"><ele>145.0</ele><time>2026-03-28T15:35:27Z</time></trkpt><trkpt lat="46.10546053945029" lon="13.455895768217323"><ele>145.0</ele><time>2026-03-28T15:35:28Z</time></trkpt><trkpt lat="46.10538461633568" lon="13.455699133946478"><ele>145.0</ele><time>2026-03-28T15:35:29Z</time></trkpt><trkpt lat="46.10531253657594" lon="13.455497530909408"><ele>145.0</ele><time>2026-03-28T15:35:30Z</time></trkpt><trkpt lat="46.10525033874466" lon="13.455290410293774"><ele>144.66666666666669</ele><time>2026-03-28T15:35:31Z</time></trkpt><trkpt lat="46.10520174681511" lon="13.455076379409439"><ele>144.33333333333334</ele><time>2026-03-28T15:35:32Z</time></trkpt><trkpt lat="46.105153626519524" lon="13.45486417363876"><ele>144.0</ele><time>2026-03-28T15:35:33Z</time></trkpt><trkpt lat="46.10512336831465" lon="13.454648361148433"><ele>143.66666666666666</ele><time>2026-03-28T15:35:34Z</time></trkpt><trkpt lat="46.10509292304451" lon="13.454419121581378"><ele>143.33333333333331</ele><time>2026-03-28T15:35:35Z</time></trkpt><trkpt lat="46.10505946883525" lon="13.454190572364704"><ele>143.0</ele><time>2026-03-28T15:35:36Z</time></trkpt><trkpt lat="46.10501748721337" lon="13.453962129584928"><ele>142.66666666666666</ele><time>2026-03-28T15:35:37Z</time></trkpt><trkpt lat="46.10496268203341" lon="13.453739380770216"><ele>142.33333333333334</ele><time>2026-03-28T15:35:38Z</time></trkpt><trkpt lat="46.10489334533834" lon="13.453527741638599"><ele>142.0</ele><time>2026-03-28T15:35:39Z</time></trkpt><trkpt lat="46.1048192629936" lon="13.453319392727606"><ele>141.66666666666669</ele><time>2026-03-28T15:35:40Z</time></trkpt><trkpt lat="46.104740822214026" lon="13.453108026600141"><ele>141.33333333333334</ele><time>2026-03-28T15:35:41Z</time></trkpt><trkpt lat="46.10465879182239" lon="13.45289207936144"><ele>141.0</ele><time>2026-03-28T15:35:42Z</time></trkpt><trkpt lat="46.10457701976999" lon="13.452676481472757"><ele>141.0</ele><time>2026-03-28T15:35:43Z</time></trkpt><trkpt lat="46.10449506720411" lon="13.45245816206595"><ele>141.0</ele><time>2026-03-28T15:35:44Z</time></trkpt><trkpt lat="46.104412216866656" lon="13.452235802538423"><ele>141.0</ele><time>2026-03-28T15:35:45Z</time></trkpt><trkpt lat="46.10433945493044" lon="13.452003341650753"><ele>140.33333333333334</ele><time>2026-03-28T15:35:46Z</time></trkpt><trkpt lat="46.10424496482097" lon="13.451784865965566"><ele>139.66666666666669</ele><time>2026-03-28T15:35:47Z</time></trkpt><trkpt lat="46.10414024236709" lon="13.45158263562393"><ele>139.0</ele><time>2026-03-28T15:35:48Z</time></trkpt><trkpt lat="46.10403360705926" lon="13.45138587474575"><ele>138.66666666666669</ele><time>2026-03-28T15:35:49Z</time></trkpt><trkpt lat="46.10392674995521" lon="13.45118912324773"><ele>138.33333333333334</ele><time>2026-03-28T15:35:50Z</time></trkpt><trkpt lat="46.10380860418953" lon="13.451009087346597"><ele>138.0</ele><time>2026-03-28T15:35:51Z</time></trkpt><trkpt lat="46.10370380382775" lon="13.450812200278401"><ele>138.0</ele><time>2026-03-28T15:35:52Z</time></trkpt><trkpt lat="46.103598588811955" lon="13.450618394254256"><ele>138.0</ele><time>2026-03-28T15:35:53Z</time></trkpt><trkpt lat="46.10349258505977" lon="13.450426673613762"><ele>138.0</ele><time>2026-03-28T15:35:54Z</time></trkpt><trkpt lat="46.10338841821089" lon="13.450233721393488"><ele>138.33333333333334</ele><time>2026-03-28T15:35:55Z</time></trkpt><trkpt lat="46.10328569254653" lon="13.450038609561622"><ele>138.66666666666669</ele><time>2026-03-28T15:35:56Z</time></trkpt><trkpt lat="46.10318757785972" lon="13.449838354435576"><ele>139.0</ele><time>2026-03-28T15:35:57Z</time></trkpt><trkpt lat="46.10308942184157" lon="13.449633231817058"><ele>139.0</ele><time>2026-03-28T15:35:58Z</time></trkpt><trkpt lat="46.1029916051452" lon="13.449428165813593"><ele>139.0</ele><time>2026-03-28T15:35:59Z</time></trkpt><trkpt lat="46.10289242279915" lon="13.449218105212806"><ele>139.0</ele><time>2026-03-28T15:36:00Z</time></trkpt><trkpt lat="46.10280967396142" lon="13.448994315431221"><ele>139.0</ele><time>2026-03-28T15:36:01Z</time></trkpt><trkpt lat="46.102699935964424" lon="13.448794074715574"><ele>139.0</ele><time>2026-03-28T15:36:02Z</time></trkpt><trkpt lat="46.10260569619371" lon="13.44857811777869"><ele>139.0</ele><time>2026-03-28T15:36:03Z</time></trkpt><trkpt lat="46.10251066130892" lon="13.448364871759372"><ele>139.0</ele><time>2026-03-28T15:36:04Z</time></trkpt><trkpt lat="46.10241494823485" lon="13.44815021960108"><ele>139.0</ele><time>2026-03-28T15:36:05Z</time></trkpt><trkpt lat="46.10232018282429" lon="13.44793455586695"><ele>139.0</ele><time>2026-03-28T15:36:06Z</time></trkpt><trkpt lat="46.102225667064964" lon="13.447716225804967"><ele>139.0</ele><time>2026-03-28T15:36:07Z</time></trkpt><trkpt lat="46.10213383087553" lon="13.447494491750698"><ele>139.0</ele><time>2026-03-28T15:36:08Z</time></trkpt><trkpt lat="46.10204147235913" lon="13.44727266190012"><ele>139.0</ele><time>2026-03-28T15:36:09Z</time></trkpt><trkpt lat="46.101949501919854" lon="13.447052616668234"><ele>139.0</ele><time>2026-03-28T15:36:10Z</time></trkpt><trkpt lat="46.10185727164916" lon="13.446832553824771"><ele>139.0</ele><time>2026-03-28T15:36:11Z</time></trkpt><trkpt lat="46.101762981373135" lon="13.44661233479644"><ele>139.0</ele><time>2026-03-28T15:36:12Z</time></trkpt><trkpt lat="46.10166866254368" lon="13.446393263649638"><ele>138.33333333333334</ele><time>2026-03-28T15:36:13Z</time></trkpt><trkpt lat="46.10157056380883" lon="13.446174466839683"><ele>137.66666666666666</ele><time>2026-03-28T15:36:14Z</time></trkpt><trkpt lat="46.101470873199" lon="13.445956630859571"><ele>137.0</ele><time>2026-03-28T15:36:15Z</time></trkpt><trkpt lat="46.10136885901874" lon="13.445743541583887"><ele>137.0</ele><time>2026-03-28T15:36:16Z</time></trkpt><trkpt lat="46.10126296403354" lon="13.445531925931448"><ele>137.0</ele><time>2026-03-28T15:36:17Z</time></trkpt><trkpt lat="46.101154790211005" lon="13.445322460507398"><ele>137.0</ele><time>2026-03-28T15:36:18Z</time></trkpt><trkpt lat="46.10104663442187" lon="13.445114650011671"><ele>137.0</ele><time>2026-03-28T15:36:19Z</time></trkpt><trkpt lat="46.10094095919052" lon="13.44490462389171"><ele>137.0</ele><time>2026-03-28T15:36:20Z</time></trkpt><trkpt lat="46.100837977679674" lon="13.444691186603354"><ele>137.0</ele><time>2026-03-28T15:36:21Z</time></trkpt><trkpt lat="46.10073784157122" lon="13.444482431239482"><ele>137.0</ele><time>2026-03-28T15:36:22Z</time></trkpt><trkpt lat="46.100637889310185" lon="13.444271929448702"><ele>137.0</ele><time>2026-03-28T15:36:23Z</time></trkpt><trkpt lat="46.100533931044744" lon="13.444062181447595"><ele>137.0</ele><time>2026-03-28T15:36:24Z</time></trkpt><trkpt lat="46.10042842454944" lon="13.443853716165624"><ele>136.66666666666666</ele><time>2026-03-28T15:36:25Z</time></trkpt><trkpt lat="46.100323005144496" lon="13.443645911605943"><ele>136.33333333333334</ele><time>2026-03-28T15:36:26Z</time></trkpt><trkpt lat="46.10021849738064" lon="13.443433422084944"><ele>136.0</ele><time>2026-03-28T15:36:27Z</time></trkpt><trkpt lat="46.100113662797696" lon="13.44322175521004"><ele>136.0</ele><time>2026-03-28T15:36:28Z</time></trkpt><trkpt lat="46.10000711419626" lon="13.443007959681797"><ele>136.0</ele><time>2026-03-28T15:36:29Z</time></trkpt><trkpt lat="46.099899417828745" lon="13.442792929300884"><ele>136.0</ele><time>2026-03-28T15:36:30Z</time></trkpt><trkpt lat="46.099791205703056" lon="13.442578446608414"><ele>136.33333333333334</ele><time>2026-03-28T15:36:31Z</time></trkpt><trkpt lat="46.09968766373168" lon="13.44237203807522"><ele>136.66666666666666</ele><time>2026-03-28T15:36:32Z</time></trkpt><trkpt lat="46.09959160510359" lon="13.44217585616503"><ele>137.0</ele><time>2026-03-28T15:36:33Z</time></trkpt><trkpt lat="46.09949370935769" lon="13.441976955548817"><ele>137.33333333333331</ele><time>2026-03-28T15:36:34Z</time></trkpt><trkpt lat="46.099392213560435" lon="13.441769645989734"><ele>137.66666666666666</ele><time>2026-03-28T15:36:35Z</time></trkpt><trkpt lat="46.09928796215085" lon="13.441557960919633"><ele>138.0</ele><time>2026-03-28T15:36:36Z</time></trkpt><trkpt lat="46.099187015231195" lon="13.441345888433272"><ele>138.33333333333334</ele><time>2026-03-28T15:36:37Z</time></trkpt><trkpt lat="46.099091077171884" lon="13.44112607305488"><ele>138.66666666666669</ele><time>2026-03-28T15:36:38Z</time></trkpt><trkpt lat="46.09900172603101" lon="13.440901210971388"><ele>139.0</ele><time>2026-03-28T15:36:39Z</time></trkpt><trkpt lat="46.09891849131851" lon="13.440678631864012"><ele>139.0</ele><time>2026-03-28T15:36:40Z</time></trkpt><trkpt lat="46.09884187003348" lon="13.440468362562907"><ele>139.0</ele><time>2026-03-28T15:36:41Z</time></trkpt><trkpt lat="46.098766144215" lon="13.44026168644483"><ele>139.0</ele><time>2026-03-28T15:36:42Z</time></trkpt><trkpt lat="46.098683970838536" lon="13.440054114677285"><ele>138.33333333333334</ele><time>2026-03-28T15:36:43Z</time></trkpt><trkpt lat="46.09859628325" lon="13.439844074757948"><ele>137.66666666666666</ele><time>2026-03-28T15:36:44Z</time></trkpt><trkpt lat="46.09850659859221" lon="13.43963437750415"><ele>137.0</ele><time>2026-03-28T15:36:45Z</time></trkpt><trkpt lat="46.09841264991634" lon="13.439424907353903"><ele>137.0</ele><time>2026-03-28T15:36:46Z</time></trkpt><trkpt lat="46.098324360035846" lon="13.439224368551201"><ele>137.0</ele><time>2026-03-28T15:36:47Z</time></trkpt><trkpt lat="46.09824202312739" lon="13.439032649815367"><ele>137.0</ele><time>2026-03-28T15:36:48Z</time></trkpt><trkpt lat="46.09816579055911" lon="13.438849663828092"><ele>136.75</ele><time>2026-03-28T15:36:49Z</time></trkpt><trkpt lat="46.09809237868864" lon="13.43867188711019"><ele>136.5</ele><time>2026-03-28T15:36:50Z</time></trkpt><trkpt lat="46.09802958694721" lon="13.438493665208293"><ele>136.25</ele><time>2026-03-28T15:36:51Z</time></trkpt><trkpt lat="46.09795556898543" lon="13.43831291524297"><ele>136.0</ele><time>2026-03-28T15:36:52Z</time></trkpt><trkpt lat="46.09789720853862" lon="13.438102614715035"><ele>134.66666666666669</ele><time>2026-03-28T15:36:53Z</time></trkpt><trkpt lat="46.09781732544019" lon="13.437921595133684"><ele>133.33333333333334</ele><time>2026-03-28T15:36:54Z</time></trkpt><trkpt lat="46.09775589967991" lon="13.437725213588081"><ele>132.0</ele><time>2026-03-28T15:36:55Z</time></trkpt><trkpt lat="46.0976858944438" lon="13.437510940007968"><ele>132.0</ele><time>2026-03-28T15:36:56Z</time></trkpt><trkpt lat="46.097615711677584" lon="13.43729167903757"><ele>132.0</ele><time>2026-03-28T15:36:57Z</time></trkpt><trkpt lat="46.09754390651585" lon="13.43707087882551"><ele>132.0</ele><time>2026-03-28T15:36:58Z</time></trkpt><trkpt lat="46.09748359511834" lon="13.436840983443043"><ele>132.0</ele><time>2026-03-28T15:36:59Z</time></trkpt><trkpt lat="46.097392061850584" lon="13.43662946234326"><ele>132.0</ele><time>2026-03-28T15:37:00Z</time></trkpt><trkpt lat="46.09732167813533" lon="13.436408701120591"><ele>132.0</ele><time>2026-03-28T15:37:01Z</time></trkpt><trkpt lat="46.09725288331148" lon="13.436179861928386"><ele>132.0</ele><time>2026-03-28T15:37:02Z</time></trkpt><trkpt lat="46.09718354538537" lon="13.435945722716282"><ele>132.0</ele><time>2026-03-28T15:37:03Z</time></trkpt><trkpt lat="46.097124329200796" lon="13.435716271939247"><ele>132.0</ele><time>2026-03-28T15:37:04Z</time></trkpt><trkpt lat="46.09707272943261" lon="13.435498761641485"><ele>131.33333333333334</ele><time>2026-03-28T15:37:05Z</time></trkpt><trkpt lat="46.097014188073075" lon="13.435267786838573"><ele>130.66666666666669</ele><time>2026-03-28T15:37:06Z</time></trkpt><trkpt lat="46.09695592795835" lon="13.43502601435636"><ele>130.0</ele><time>2026-03-28T15:37:07Z</time></trkpt><trkpt lat="46.09690694556249" lon="13.434779129584397"><ele>130.33333333333334</ele><time>2026-03-28T15:37:08Z</time></trkpt><trkpt lat="46.0968601413035" lon="13.434524322360188"><ele>130.66666666666666</ele><time>2026-03-28T15:37:09Z</time></trkpt><trkpt lat="46.09681281758074" lon="13.43427450956004"><ele>131.0</ele><time>2026-03-28T15:37:10Z</time></trkpt><trkpt lat="46.09677052007031" lon="13.434022098135246"><ele>130.66666666666666</ele><time>2026-03-28T15:37:11Z</time></trkpt><trkpt lat="46.096726466777085" lon="13.433775962391074"><ele>130.33333333333334</ele><time>2026-03-28T15:37:12Z</time></trkpt><trkpt lat="46.096692973505576" lon="13.433525715451886"><ele>130.0</ele><time>2026-03-28T15:37:13Z</time></trkpt><trkpt lat="46.09665913509138" lon="13.433280436217565"><ele>130.0</ele><time>2026-03-28T15:37:14Z</time></trkpt><trkpt lat="46.096654790627" lon="13.433049850203986"><ele>130.0</ele><time>2026-03-28T15:37:15Z</time></trkpt><trkpt lat="46.09663290043824" lon="13.432829044842526"><ele>130.0</ele><time>2026-03-28T15:37:16Z</time></trkpt><trkpt lat="46.09660610970497" lon="13.432605287318028"><ele>130.0</ele><time>2026-03-28T15:37:17Z</time></trkpt><trkpt lat="46.09658308559937" lon="13.432369656378425"><ele>130.0</ele><time>2026-03-28T15:37:18Z</time></trkpt><trkpt lat="46.09656110338611" lon="13.432132142845903"><ele>130.0</ele><time>2026-03-28T15:37:19Z</time></trkpt><trkpt lat="46.0965393208121" lon="13.431894678421685"><ele>131.66666666666669</ele><time>2026-03-28T15:37:20Z</time></trkpt><trkpt lat="46.09652285810461" lon="13.43165261341604"><ele>133.33333333333334</ele><time>2026-03-28T15:37:21Z</time></trkpt><trkpt lat="46.09650271974444" lon="13.431411620160844"><ele>135.0</ele><time>2026-03-28T15:37:22Z</time></trkpt><trkpt lat="46.09648192584615" lon="13.431167230274356"><ele>136.66666666666666</ele><time>2026-03-28T15:37:23Z</time></trkpt><trkpt lat="46.09646265127791" lon="13.430921273872562"><ele>138.33333333333331</ele><time>2026-03-28T15:37:24Z</time></trkpt><trkpt lat="46.09644375416944" lon="13.430686879144805"><ele>140.0</ele><time>2026-03-28T15:37:25Z</time></trkpt><trkpt lat="46.09641785631045" lon="13.430473194044737"><ele>140.0</ele><time>2026-03-28T15:37:26Z</time></trkpt><trkpt lat="46.09639486099009" lon="13.430263278154786"><ele>140.0</ele><time>2026-03-28T15:37:27Z</time></trkpt><trkpt lat="46.096366965127636" lon="13.430068508165519"><ele>140.0</ele><time>2026-03-28T15:37:28Z</time></trkpt><trkpt lat="46.0963374435436" lon="13.429904654151047"><ele>140.0</ele><time>2026-03-28T15:37:29Z</time></trkpt><trkpt lat="46.0963067668689" lon="13.429738350661527"><ele>140.0</ele><time>2026-03-28T15:37:30Z</time></trkpt><trkpt lat="46.09628789379928" lon="13.429601617227654"><ele>140.0</ele><time>2026-03-28T15:37:31Z</time></trkpt><trkpt lat="46.096260865082904" lon="13.429488446490971"><ele>140.0</ele><time>2026-03-28T15:37:32Z</time></trkpt><trkpt lat="46.09622464424978" lon="13.429265745717258"><ele>140.0</ele><time>2026-03-28T15:37:34Z</time></trkpt><trkpt lat="46.09620648980717" lon="13.429144364160702"><ele>140.0</ele><time>2026-03-28T15:37:35Z</time></trkpt><trkpt lat="46.09617827438162" lon="13.429020354188287"><ele>140.0</ele><time>2026-03-28T15:37:36Z</time></trkpt><trkpt lat="46.096153197610356" lon="13.428895112583126"><ele>140.0</ele><time>2026-03-28T15:37:37Z</time></trkpt><trkpt lat="46.096134467132984" lon="13.428765984079964"><ele>140.0</ele><time>2026-03-28T15:37:38Z</time></trkpt><trkpt lat="46.096103761677874" lon="13.428649280353753"><ele>140.0</ele><time>2026-03-28T15:37:39Z</time></trkpt><trkpt lat="46.096073508922096" lon="13.428517096214009"><ele>140.0</ele><time>2026-03-28T15:37:40Z</time></trkpt><trkpt lat="46.09603964903266" lon="13.42839441707025"><ele>139.66666666666666</ele><time>2026-03-28T15:37:41Z</time></trkpt><trkpt lat="46.09601160874141" lon="13.428260841421379"><ele>139.33333333333331</ele><time>2026-03-28T15:37:42Z</time></trkpt><trkpt lat="46.09597979876744" lon="13.428160588805502"><ele>139.0</ele><time>2026-03-28T15:37:43Z</time></trkpt><trkpt lat="46.09595243919651" lon="13.428063917100483"><ele>138.66666666666666</ele><time>2026-03-28T15:37:44Z</time></trkpt><trkpt lat="46.09591767700731" lon="13.427919804164992"><ele>138.33333333333334</ele><time>2026-03-28T15:37:46Z</time></trkpt><trkpt lat="46.09589666249764" lon="13.427810042477073"><ele>138.0</ele><time>2026-03-28T15:37:48Z</time></trkpt><trkpt lat="46.09588878492479" lon="13.427692724589237"><ele>137.4</ele><time>2026-03-28T15:37:50Z</time></trkpt><trkpt lat="46.0959114151851" lon="13.427511094396989"><ele>136.8</ele><time>2026-03-28T15:37:52Z</time></trkpt><trkpt lat="46.09594230194438" lon="13.42739535110575"><ele>136.2</ele><time>2026-03-28T15:37:53Z</time></trkpt><trkpt lat="46.095997981487" lon="13.427291962320252"><ele>135.6</ele><time>2026-03-28T15:37:54Z</time></trkpt><trkpt lat="46.096026646812966" lon="13.427186110271759"><ele>135.0</ele><time>2026-03-28T15:37:55Z</time></trkpt><trkpt lat="46.0961685551667" lon="13.427126281298237"><ele>135.0</ele><time>2026-03-28T15:37:56Z</time></trkpt><trkpt lat="46.09627965895872" lon="13.427068101218332"><ele>135.0</ele><time>2026-03-28T15:37:57Z</time></trkpt><trkpt lat="46.09639956020133" lon="13.427019181200679"><ele>135.0</ele><time>2026-03-28T15:37:58Z</time></trkpt><trkpt lat="46.096507517946755" lon="13.426954865072089"><ele>135.0</ele><time>2026-03-28T15:37:59Z</time></trkpt><trkpt lat="46.09663846278632" lon="13.42689910137986"><ele>135.0</ele><time>2026-03-28T15:38:00Z</time></trkpt><trkpt lat="46.09677961952105" lon="13.42683684459778"><ele>135.0</ele><time>2026-03-28T15:38:01Z</time></trkpt><trkpt lat="46.096918963422404" lon="13.426780418683048"><ele>135.0</ele><time>2026-03-28T15:38:02Z</time></trkpt><trkpt lat="46.09705811973811" lon="13.426725023529611"><ele>135.0</ele><time>2026-03-28T15:38:03Z</time></trkpt><trkpt lat="46.09718735950553" lon="13.426670864279574"><ele>135.0</ele><time>2026-03-28T15:38:04Z</time></trkpt><trkpt lat="46.09730856121432" lon="13.426628422812756"><ele>135.0</ele><time>2026-03-28T15:38:05Z</time></trkpt><trkpt lat="46.09741962677252" lon="13.426588175748664"><ele>135.0</ele><time>2026-03-28T15:38:06Z</time></trkpt><trkpt lat="46.097518530382196" lon="13.42653697472198"><ele>135.0</ele><time>2026-03-28T15:38:07Z</time></trkpt><trkpt lat="46.09761348938223" lon="13.426471663973825"><ele>135.2</ele><time>2026-03-28T15:38:08Z</time></trkpt><trkpt lat="46.09767612007135" lon="13.426364898988282"><ele>135.4</ele><time>2026-03-28T15:38:09Z</time></trkpt><trkpt lat="46.09770131100327" lon="13.426235867528803"><ele>135.6</ele><time>2026-03-28T15:38:10Z</time></trkpt><trkpt lat="46.09772582617232" lon="13.426111607918486"><ele>135.8</ele><time>2026-03-28T15:38:11Z</time></trkpt><trkpt lat="46.09776367967932" lon="13.42597769876192"><ele>136.0</ele><time>2026-03-28T15:38:12Z</time></trkpt><trkpt lat="46.097802808611334" lon="13.425834511846505"><ele>136.0</ele><time>2026-03-28T15:38:13Z</time></trkpt><trkpt lat="46.097844146319126" lon="13.425680932095073"><ele>136.0</ele><time>2026-03-28T15:38:14Z</time></trkpt><trkpt lat="46.09788720696644" lon="13.42551913895867"><ele>136.0</ele><time>2026-03-28T15:38:15Z</time></trkpt><trkpt lat="46.09793534311026" lon="13.425351750165001"><ele>136.0</ele><time>2026-03-28T15:38:16Z</time></trkpt><trkpt lat="46.09798627316825" lon="13.425179476311012"><ele>136.0</ele><time>2026-03-28T15:38:17Z</time></trkpt><trkpt lat="46.09803648985045" lon="13.425004471377664"><ele>136.0</ele><time>2026-03-28T15:38:18Z</time></trkpt><trkpt lat="46.09808125267381" lon="13.424843560114521"><ele>136.0</ele><time>2026-03-28T15:38:19Z</time></trkpt><trkpt lat="46.0981157741057" lon="13.424694656726404"><ele>136.0</ele><time>2026-03-28T15:38:20Z</time></trkpt><trkpt lat="46.09812827203347" lon="13.424546635368834"><ele>135.66666666666669</ele><time>2026-03-28T15:38:21Z</time></trkpt><trkpt lat="46.09812037239981" lon="13.42442075577776"><ele>135.33333333333334</ele><time>2026-03-28T15:38:22Z</time></trkpt><trkpt lat="46.09810227792605" lon="13.424310742356365"><ele>135.0</ele><time>2026-03-28T15:38:23Z</time></trkpt><trkpt lat="46.098088250263665" lon="13.424199621245503"><ele>134.66666666666666</ele><time>2026-03-28T15:38:24Z</time></trkpt><trkpt lat="46.09807658967617" lon="13.424092383105314"><ele>134.33333333333331</ele><time>2026-03-28T15:38:25Z</time></trkpt><trkpt lat="46.098069676149315" lon="13.423963296472857"><ele>134.0</ele><time>2026-03-28T15:38:26Z</time></trkpt><trkpt lat="46.09807263874383" lon="13.423819167348478"><ele>134.2</ele><time>2026-03-28T15:38:27Z</time></trkpt><trkpt lat="46.09809376565097" lon="13.42367938284599"><ele>134.4</ele><time>2026-03-28T15:38:28Z</time></trkpt><trkpt lat="46.098128934224206" lon="13.423537634013174"><ele>134.6</ele><time>2026-03-28T15:38:29Z</time></trkpt><trkpt lat="46.098178108702875" lon="13.423392039568022"><ele>134.8</ele><time>2026-03-28T15:38:30Z</time></trkpt><trkpt lat="46.09824270236675" lon="13.423252615010055"><ele>135.0</ele><time>2026-03-28T15:38:31Z</time></trkpt><trkpt lat="46.09834027438748" lon="13.423146151002932"><ele>135.0</ele><time>2026-03-28T15:38:32Z</time></trkpt><trkpt lat="46.09841689838142" lon="13.423014442554974"><ele>135.0</ele><time>2026-03-28T15:38:33Z</time></trkpt><trkpt lat="46.098480814805114" lon="13.422871592169948"><ele>135.0</ele><time>2026-03-28T15:38:34Z</time></trkpt><trkpt lat="46.098558798894565" lon="13.422739035733866"><ele>135.0</ele><time>2026-03-28T15:38:35Z</time></trkpt><trkpt lat="46.09864349366098" lon="13.422610089695265"><ele>135.0</ele><time>2026-03-28T15:38:36Z</time></trkpt><trkpt lat="46.098720962938955" lon="13.422472592984105"><ele>135.0</ele><time>2026-03-28T15:38:37Z</time></trkpt><trkpt lat="46.09880168705614" lon="13.422334532008154"><ele>135.0</ele><time>2026-03-28T15:38:38Z</time></trkpt><trkpt lat="46.09888059161873" lon="13.422192347152455"><ele>135.0</ele><time>2026-03-28T15:38:39Z</time></trkpt><trkpt lat="46.09896662109393" lon="13.422054871999165"><ele>135.0</ele><time>2026-03-28T15:38:40Z</time></trkpt><trkpt lat="46.099053510217935" lon="13.421921801288248"><ele>135.0</ele><time>2026-03-28T15:38:41Z</time></trkpt><trkpt lat="46.0991390826061" lon="13.4217877050095"><ele>135.0</ele><time>2026-03-28T15:38:42Z</time></trkpt><trkpt lat="46.0992141259342" lon="13.421657741431584"><ele>135.0</ele><time>2026-03-28T15:38:43Z</time></trkpt><trkpt lat="46.099274740810124" lon="13.421541040792745"><ele>135.0</ele><time>2026-03-28T15:38:44Z</time></trkpt><trkpt lat="46.09932068107535" lon="13.421420169900365"><ele>135.0</ele><time>2026-03-28T15:38:45Z</time></trkpt><trkpt lat="46.09934736875911" lon="13.42130044118683"><ele>135.0</ele><time>2026-03-28T15:38:46Z</time></trkpt><trkpt lat="46.09937544149016" lon="13.421180475181613"><ele>135.0</ele><time>2026-03-28T15:38:47Z</time></trkpt><trkpt lat="46.099414131231484" lon="13.421054049891367"><ele>135.0</ele><time>2026-03-28T15:38:48Z</time></trkpt><trkpt lat="46.099457381288936" lon="13.420918973727977"><ele>135.0</ele><time>2026-03-28T15:38:49Z</time></trkpt><trkpt lat="46.09948214280384" lon="13.420767857706595"><ele>135.0</ele><time>2026-03-28T15:38:50Z</time></trkpt><trkpt lat="46.09951376496177" lon="13.420617908597858"><ele>135.0</ele><time>2026-03-28T15:38:51Z</time></trkpt><trkpt lat="46.09955790912642" lon="13.420471198955298"><ele>135.0</ele><time>2026-03-28T15:38:52Z</time></trkpt><trkpt lat="46.09960181402541" lon="13.420324390337548"><ele>135.0</ele><time>2026-03-28T15:38:53Z</time></trkpt><trkpt lat="46.09965303342491" lon="13.420177920641125"><ele>134.5</ele><time>2026-03-28T15:38:54Z</time></trkpt><trkpt lat="46.09971464444336" lon="13.420035755177004"><ele>134.0</ele><time>2026-03-28T15:38:55Z</time></trkpt><trkpt lat="46.09978773136303" lon="13.419905966988091"><ele>133.5</ele><time>2026-03-28T15:38:56Z</time></trkpt><trkpt lat="46.09986945421061" lon="13.419781037186805"><ele>133.0</ele><time>2026-03-28T15:38:57Z</time></trkpt><trkpt lat="46.09995655772866" lon="13.419654473386624"><ele>133.0</ele><time>2026-03-28T15:38:58Z</time></trkpt><trkpt lat="46.10004511665705" lon="13.41952231880235"><ele>133.0</ele><time>2026-03-28T15:38:59Z</time></trkpt><trkpt lat="46.1001394251021" lon="13.419385738715391"><ele>133.0</ele><time>2026-03-28T15:39:00Z</time></trkpt><trkpt lat="46.10023244149227" lon="13.419255352414062"><ele>133.0</ele><time>2026-03-28T15:39:01Z</time></trkpt><trkpt lat="46.10032212248787" lon="13.419118172452281"><ele>133.0</ele><time>2026-03-28T15:39:02Z</time></trkpt><trkpt lat="46.100417383569464" lon="13.418973228879997"><ele>133.0</ele><time>2026-03-28T15:39:03Z</time></trkpt><trkpt lat="46.10052423628321" lon="13.418838191849575"><ele>133.0</ele><time>2026-03-28T15:39:04Z</time></trkpt><trkpt lat="46.100635231404254" lon="13.418691493367021"><ele>133.0</ele><time>2026-03-28T15:39:05Z</time></trkpt><trkpt lat="46.10074573556598" lon="13.418537368021255"><ele>133.66666666666669</ele><time>2026-03-28T15:39:06Z</time></trkpt><trkpt lat="46.10086752962647" lon="13.418388808466862"><ele>134.33333333333334</ele><time>2026-03-28T15:39:07Z</time></trkpt><trkpt lat="46.10099309204522" lon="13.418236961568779"><ele>135.0</ele><time>2026-03-28T15:39:08Z</time></trkpt><trkpt lat="46.101122082474035" lon="13.418084015042012"><ele>134.25</ele><time>2026-03-28T15:39:09Z</time></trkpt><trkpt lat="46.10124363259777" lon="13.417941850823652"><ele>133.5</ele><time>2026-03-28T15:39:10Z</time></trkpt><trkpt lat="46.10135731669446" lon="13.417811968340386"><ele>132.75</ele><time>2026-03-28T15:39:11Z</time></trkpt><trkpt lat="46.101468568889025" lon="13.417688055186604"><ele>132.0</ele><time>2026-03-28T15:39:12Z</time></trkpt><trkpt lat="46.101579806583494" lon="13.41756282499892"><ele>132.5</ele><time>2026-03-28T15:39:13Z</time></trkpt><trkpt lat="46.101701186238365" lon="13.417458616939925"><ele>133.0</ele><time>2026-03-28T15:39:14Z</time></trkpt><trkpt lat="46.10183708953111" lon="13.417370977234336"><ele>133.5</ele><time>2026-03-28T15:39:15Z</time></trkpt><trkpt lat="46.10198961661611" lon="13.417335123598358"><ele>134.0</ele><time>2026-03-28T15:39:16Z</time></trkpt><trkpt lat="46.10214557763471" lon="13.417309847794089"><ele>134.0</ele><time>2026-03-28T15:39:17Z</time></trkpt><trkpt lat="46.10229400401754" lon="13.417298176202697"><ele>134.0</ele><time>2026-03-28T15:39:18Z</time></trkpt><trkpt lat="46.102440392190715" lon="13.417282534817161"><ele>134.0</ele><time>2026-03-28T15:39:19Z</time></trkpt><trkpt lat="46.10258047344278" lon="13.417256730710745"><ele>134.0</ele><time>2026-03-28T15:39:20Z</time></trkpt><trkpt lat="46.10271829913638" lon="13.417227266231505"><ele>134.0</ele><time>2026-03-28T15:39:21Z</time></trkpt><trkpt lat="46.102841851453526" lon="13.417142554470987"><ele>134.0</ele><time>2026-03-28T15:39:22Z</time></trkpt><trkpt lat="46.10296398558125" lon="13.417049828092361"><ele>134.0</ele><time>2026-03-28T15:39:23Z</time></trkpt><trkpt lat="46.103075042563404" lon="13.416911211661535"><ele>134.0</ele><time>2026-03-28T15:39:24Z</time></trkpt><trkpt lat="46.10319356631427" lon="13.416783768258242"><ele>134.5</ele><time>2026-03-28T15:39:25Z</time></trkpt><trkpt lat="46.10330935318489" lon="13.416654038949495"><ele>135.0</ele><time>2026-03-28T15:39:26Z</time></trkpt><trkpt lat="46.10343918461782" lon="13.416549744082396"><ele>135.5</ele><time>2026-03-28T15:39:27Z</time></trkpt><trkpt lat="46.10357328546666" lon="13.416457662484113"><ele>136.0</ele><time>2026-03-28T15:39:28Z</time></trkpt><trkpt lat="46.103710948347164" lon="13.41637332112786"><ele>135.0</ele><time>2026-03-28T15:39:29Z</time></trkpt><trkpt lat="46.10385164161864" lon="13.416280255471811"><ele>134.0</ele><time>2026-03-28T15:39:30Z</time></trkpt><trkpt lat="46.103999126439696" lon="13.41618607844286"><ele>133.0</ele><time>2026-03-28T15:39:31Z</time></trkpt><trkpt lat="46.104148836450776" lon="13.416094821172857"><ele>135.0</ele><time>2026-03-28T15:39:32Z</time></trkpt><trkpt lat="46.10430356073532" lon="13.415998358948665"><ele>137.0</ele><time>2026-03-28T15:39:33Z</time></trkpt><trkpt lat="46.104460128822254" lon="13.415897372034726"><ele>139.0</ele><time>2026-03-28T15:39:34Z</time></trkpt><trkpt lat="46.10461729224477" lon="13.415795929694747"><ele>139.0</ele><time>2026-03-28T15:39:35Z</time></trkpt><trkpt lat="46.10477378164881" lon="13.41570068255047"><ele>139.0</ele><time>2026-03-28T15:39:36Z</time></trkpt><trkpt lat="46.10493179725147" lon="13.415598998937865"><ele>139.0</ele><time>2026-03-28T15:39:37Z</time></trkpt><trkpt lat="46.10509272373604" lon="13.415491037747339"><ele>139.33333333333334</ele><time>2026-03-28T15:39:38Z</time></trkpt><trkpt lat="46.105255297646316" lon="13.415384536246652"><ele>139.66666666666666</ele><time>2026-03-28T15:39:39Z</time></trkpt><trkpt lat="46.105419629969994" lon="13.415276003143841"><ele>140.0</ele><time>2026-03-28T15:39:40Z</time></trkpt><trkpt lat="46.10558221755347" lon="13.415174387455863"><ele>140.0</ele><time>2026-03-28T15:39:41Z</time></trkpt><trkpt lat="46.105740178375314" lon="13.415075643082995"><ele>140.0</ele><time>2026-03-28T15:39:42Z</time></trkpt><trkpt lat="46.105897253994804" lon="13.414976858170755"><ele>140.0</ele><time>2026-03-28T15:39:43Z</time></trkpt><trkpt lat="46.1060532379769" lon="13.414869922245632"><ele>137.66666666666666</ele><time>2026-03-28T15:39:44Z</time></trkpt><trkpt lat="46.106206970334014" lon="13.414769780724033"><ele>135.33333333333334</ele><time>2026-03-28T15:39:45Z</time></trkpt><trkpt lat="46.106367028835336" lon="13.4146690747803"><ele>133.0</ele><time>2026-03-28T15:39:46Z</time></trkpt><trkpt lat="46.10652587991173" lon="13.41456663207767"><ele>133.33333333333334</ele><time>2026-03-28T15:39:47Z</time></trkpt><trkpt lat="46.10668714256108" lon="13.414462649879763"><ele>133.66666666666666</ele><time>2026-03-28T15:39:48Z</time></trkpt><trkpt lat="46.10684693167439" lon="13.414357308155196"><ele>134.0</ele><time>2026-03-28T15:39:49Z</time></trkpt><trkpt lat="46.10701139505913" lon="13.414249816501359"><ele>134.0</ele><time>2026-03-28T15:39:50Z</time></trkpt><trkpt lat="46.10716656076956" lon="13.414158523737777"><ele>134.0</ele><time>2026-03-28T15:39:51Z</time></trkpt><trkpt lat="46.10730412485941" lon="13.414060116793747"><ele>134.0</ele><time>2026-03-28T15:39:52Z</time></trkpt><trkpt lat="46.107438249677564" lon="13.413972524289655"><ele>134.25</ele><time>2026-03-28T15:39:53Z</time></trkpt><trkpt lat="46.10755856827302" lon="13.413894812351318"><ele>134.5</ele><time>2026-03-28T15:39:54Z</time></trkpt><trkpt lat="46.107675997627" lon="13.41382165426122"><ele>134.75</ele><time>2026-03-28T15:39:55Z</time></trkpt><trkpt lat="46.10778905889216" lon="13.413754788808276"><ele>135.0</ele><time>2026-03-28T15:39:56Z</time></trkpt><trkpt lat="46.10790002292689" lon="13.413695539158464"><ele>135.0</ele><time>2026-03-28T15:39:57Z</time></trkpt><trkpt lat="46.10800364181889" lon="13.413636499729789"><ele>135.0</ele><time>2026-03-28T15:39:58Z</time></trkpt><trkpt lat="46.10811800041111" lon="13.413570895947274"><ele>135.0</ele><time>2026-03-28T15:39:59Z</time></trkpt><trkpt lat="46.10823267746626" lon="13.413518814514767"><ele>135.0</ele><time>2026-03-28T15:40:00Z</time></trkpt><trkpt lat="46.1083342679028" lon="13.413464926761309"><ele>135.75</ele><time>2026-03-28T15:40:01Z</time></trkpt><trkpt lat="46.10843560663248" lon="13.41341700348671"><ele>136.5</ele><time>2026-03-28T15:40:02Z</time></trkpt><trkpt lat="46.108544870209066" lon="13.413363424536593"><ele>137.25</ele><time>2026-03-28T15:40:03Z</time></trkpt><trkpt lat="46.10866076628391" lon="13.413315359892396"><ele>138.0</ele><time>2026-03-28T15:40:04Z</time></trkpt><trkpt lat="46.1087712260878" lon="13.413266268719008"><ele>138.0</ele><time>2026-03-28T15:40:05Z</time></trkpt><trkpt lat="46.108873062259335" lon="13.413220289836945"><ele>138.0</ele><time>2026-03-28T15:40:06Z</time></trkpt><trkpt lat="46.10897579859043" lon="13.413177184593518"><ele>138.0</ele><time>2026-03-28T15:40:07Z</time></trkpt><trkpt lat="46.10908776077828" lon="13.413133373886367"><ele>138.0</ele><time>2026-03-28T15:40:08Z</time></trkpt><trkpt lat="46.10920058137771" lon="13.413084907143643"><ele>138.0</ele><time>2026-03-28T15:40:09Z</time></trkpt><trkpt lat="46.1093152250881" lon="13.413022987977131"><ele>137.33333333333334</ele><time>2026-03-28T15:40:10Z</time></trkpt><trkpt lat="46.10943375463005" lon="13.412958472525538"><ele>136.66666666666669</ele><time>2026-03-28T15:40:11Z</time></trkpt><trkpt lat="46.10966893119035" lon="13.41279599529506"><ele>136.0</ele><time>2026-03-28T15:40:13Z</time></trkpt><trkpt lat="46.10976381483697" lon="13.412680701228243"><ele>136.0</ele><time>2026-03-28T15:40:14Z</time></trkpt><trkpt lat="46.1098496133912" lon="13.412553377826455"><ele>136.0</ele><time>2026-03-28T15:40:15Z</time></trkpt><trkpt lat="46.109929043248876" lon="13.412438469873035"><ele>136.0</ele><time>2026-03-28T15:40:16Z</time></trkpt><trkpt lat="46.11000585171864" lon="13.412300839435423"><ele>136.0</ele><time>2026-03-28T15:40:17Z</time></trkpt><trkpt lat="46.11007842561698" lon="13.41214070215"><ele>136.0</ele><time>2026-03-28T15:40:18Z</time></trkpt><trkpt lat="46.11017198561805" lon="13.411967511142423"><ele>136.0</ele><time>2026-03-28T15:40:19Z</time></trkpt><trkpt lat="46.11022236641183" lon="13.411734692522082"><ele>136.0</ele><time>2026-03-28T15:40:20Z</time></trkpt><trkpt lat="46.11028170389143" lon="13.411523083920928"><ele>135.66666666666669</ele><time>2026-03-28T15:40:21Z</time></trkpt><trkpt lat="46.110333473851306" lon="13.411303223248975"><ele>135.33333333333334</ele><time>2026-03-28T15:40:22Z</time></trkpt><trkpt lat="46.11037718841637" lon="13.41108973396165"><ele>135.0</ele><time>2026-03-28T15:40:23Z</time></trkpt><trkpt lat="46.11040447568192" lon="13.410876745970926"><ele>135.0</ele><time>2026-03-28T15:40:24Z</time></trkpt><trkpt lat="46.110444153305174" lon="13.41068110914148"><ele>135.0</ele><time>2026-03-28T15:40:25Z</time></trkpt><trkpt lat="46.110499346274416" lon="13.410493150346314"><ele>135.0</ele><time>2026-03-28T15:40:26Z</time></trkpt><trkpt lat="46.11053995094358" lon="13.410295866244546"><ele>135.0</ele><time>2026-03-28T15:40:27Z</time></trkpt><trkpt lat="46.110584462576576" lon="13.410099052793246"><ele>134.75</ele><time>2026-03-28T15:40:28Z</time></trkpt><trkpt lat="46.1106438073764" lon="13.409908068841105"><ele>134.5</ele><time>2026-03-28T15:40:29Z</time></trkpt><trkpt lat="46.11072324580187" lon="13.409731318018721"><ele>134.25</ele><time>2026-03-28T15:40:30Z</time></trkpt><trkpt lat="46.11082809078856" lon="13.4095842022436"><ele>134.0</ele><time>2026-03-28T15:40:31Z</time></trkpt><trkpt lat="46.11095158262793" lon="13.409455176972752"><ele>134.5</ele><time>2026-03-28T15:40:32Z</time></trkpt><trkpt lat="46.111072758293794" lon="13.40936062965889"><ele>135.0</ele><time>2026-03-28T15:40:32.999Z</time></trkpt><trkpt lat="46.1111779003379" lon="13.409258937902724"><ele>135.5</ele><time>2026-03-28T15:40:33.999Z</time></trkpt><trkpt lat="46.111289519382446" lon="13.409181412694037"><ele>136.0</ele><time>2026-03-28T15:40:34.999Z</time></trkpt><trkpt lat="46.111408551171095" lon="13.409098708422713"><ele>136.0</ele><time>2026-03-28T15:40:35.999Z</time></trkpt><trkpt lat="46.111529268859016" lon="13.409033331806926"><ele>136.0</ele><time>2026-03-28T15:40:36.999Z</time></trkpt><trkpt lat="46.11162264851663" lon="13.408968095642964"><ele>136.0</ele><time>2026-03-28T15:40:37.999Z</time></trkpt><trkpt lat="46.11164495257379" lon="13.408737176581026"><ele>136.0</ele><time>2026-03-28T15:40:38.999Z</time></trkpt><trkpt lat="46.111687137896496" lon="13.408584678359665"><ele>136.25</ele><time>2026-03-28T15:40:39.999Z</time></trkpt><trkpt lat="46.111713866367985" lon="13.408419125600096"><ele>136.5</ele><time>2026-03-28T15:40:40.999Z</time></trkpt><trkpt lat="46.11171939757355" lon="13.408253258723613"><ele>136.75</ele><time>2026-03-28T15:40:41.999Z</time></trkpt><trkpt lat="46.11172892894821" lon="13.408089628173704"><ele>137.0</ele><time>2026-03-28T15:40:42.999Z</time></trkpt><trkpt lat="46.111674042804296" lon="13.407924983155473"><ele>137.0</ele><time>2026-03-28T15:40:43.999Z</time></trkpt><trkpt lat="46.111633429191414" lon="13.407765640706037"><ele>137.0</ele><time>2026-03-28T15:40:44.999Z</time></trkpt><trkpt lat="46.11159256315681" lon="13.407605825721705"><ele>137.0</ele><time>2026-03-28T15:40:45.999Z</time></trkpt><trkpt lat="46.11155934485204" lon="13.40743758025611"><ele>137.0</ele><time>2026-03-28T15:40:46.999Z</time></trkpt><trkpt lat="46.11150899011767" lon="13.407212204989031"><ele>136.0</ele><time>2026-03-28T15:40:47.999Z</time></trkpt><trkpt lat="46.11145447460281" lon="13.406941202037268"><ele>135.0</ele><time>2026-03-28T15:40:48.999Z</time></trkpt><trkpt lat="46.11143548236073" lon="13.406638203186347"><ele>134.0</ele><time>2026-03-28T15:40:49.999Z</time></trkpt><trkpt lat="46.11136379026467" lon="13.406333920854113"><ele>133.66666666666666</ele><time>2026-03-28T15:40:50.999Z</time></trkpt><trkpt lat="46.11131928612424" lon="13.406029677947433"><ele>133.33333333333334</ele><time>2026-03-28T15:40:51.999Z</time></trkpt><trkpt lat="46.111266526911045" lon="13.405756336001845"><ele>133.0</ele><time>2026-03-28T15:40:52.999Z</time></trkpt><trkpt lat="46.11121775653755" lon="13.405503032936382"><ele>133.33333333333334</ele><time>2026-03-28T15:40:53.999Z</time></trkpt><trkpt lat="46.11114645139458" lon="13.405269213263455"><ele>133.66666666666666</ele><time>2026-03-28T15:40:54.999Z</time></trkpt><trkpt lat="46.11109567381129" lon="13.404998459515992"><ele>134.0</ele><time>2026-03-28T15:40:55.999Z</time></trkpt><trkpt lat="46.11104265342632" lon="13.404717165036418"><ele>134.0</ele><time>2026-03-28T15:40:56.999Z</time></trkpt><trkpt lat="46.11098635409315" lon="13.404428153608961"><ele>134.0</ele><time>2026-03-28T15:40:57.999Z</time></trkpt><trkpt lat="46.1109529224829" lon="13.404140048727557"><ele>134.0</ele><time>2026-03-28T15:40:58.999Z</time></trkpt><trkpt lat="46.11087649870413" lon="13.403874726719513"><ele>133.66666666666666</ele><time>2026-03-28T15:40:59.999Z</time></trkpt><trkpt lat="46.11080761857207" lon="13.403604837181026"><ele>133.33333333333334</ele><time>2026-03-28T15:41:00.999Z</time></trkpt><trkpt lat="46.11072326546136" lon="13.403334859006225"><ele>133.0</ele><time>2026-03-28T15:41:01.999Z</time></trkpt><trkpt lat="46.110627606264686" lon="13.403064524933384"><ele>133.0</ele><time>2026-03-28T15:41:02.999Z</time></trkpt><trkpt lat="46.11053225148153" lon="13.402790244697249"><ele>133.0</ele><time>2026-03-28T15:41:04Z</time></trkpt><trkpt lat="46.11044292911665" lon="13.402533268511016"><ele>133.0</ele><time>2026-03-28T15:41:05Z</time></trkpt><trkpt lat="46.11035954226138" lon="13.402298490153957"><ele>132.33333333333334</ele><time>2026-03-28T15:41:06Z</time></trkpt><trkpt lat="46.11029807176867" lon="13.402063294275639"><ele>131.66666666666666</ele><time>2026-03-28T15:41:07Z</time></trkpt><trkpt lat="46.11023421233167" lon="13.401858594341927"><ele>131.0</ele><time>2026-03-28T15:41:08Z</time></trkpt><trkpt lat="46.110194782241265" lon="13.401655695932542"><ele>131.0</ele><time>2026-03-28T15:41:09Z</time></trkpt><trkpt lat="46.110221736703224" lon="13.401465229487464"><ele>131.0</ele><time>2026-03-28T15:41:10Z</time></trkpt><trkpt lat="46.11024429815046" lon="13.40127608446787"><ele>131.0</ele><time>2026-03-28T15:41:11Z</time></trkpt><trkpt lat="46.110312741040055" lon="13.401108545682714"><ele>131.0</ele><time>2026-03-28T15:41:12Z</time></trkpt><trkpt lat="46.11040936763718" lon="13.40095393226634"><ele>131.0</ele><time>2026-03-28T15:41:13Z</time></trkpt><trkpt lat="46.110526686551644" lon="13.400785799148574"><ele>131.0</ele><time>2026-03-28T15:41:14Z</time></trkpt><trkpt lat="46.11064726032352" lon="13.400631729401363"><ele>131.0</ele><time>2026-03-28T15:41:15Z</time></trkpt><trkpt lat="46.11074438142916" lon="13.400511401957358"><ele>131.25</ele><time>2026-03-28T15:41:16Z</time></trkpt><trkpt lat="46.11082767267259" lon="13.400408208921995"><ele>131.5</ele><time>2026-03-28T15:41:17Z</time></trkpt><trkpt lat="46.11090311055307" lon="13.40028657147085"><ele>131.75</ele><time>2026-03-28T15:41:18Z</time></trkpt><trkpt lat="46.110995191075084" lon="13.400174126259028"><ele>132.0</ele><time>2026-03-28T15:41:19Z</time></trkpt><trkpt lat="46.11108990880537" lon="13.40005240483529"><ele>132.0</ele><time>2026-03-28T15:41:20Z</time></trkpt><trkpt lat="46.111192890479785" lon="13.399934722322497"><ele>132.0</ele><time>2026-03-28T15:41:21Z</time></trkpt><trkpt lat="46.11129173026361" lon="13.399807912362697"><ele>132.0</ele><time>2026-03-28T15:41:22Z</time></trkpt><trkpt lat="46.111380372037004" lon="13.399708587105241"><ele>132.0</ele><time>2026-03-28T15:41:23Z</time></trkpt><trkpt lat="46.11145905133332" lon="13.399601560377906"><ele>131.79999999999998</ele><time>2026-03-28T15:41:24Z</time></trkpt><trkpt lat="46.11153297248447" lon="13.399505085949619"><ele>131.6</ele><time>2026-03-28T15:41:25Z</time></trkpt><trkpt lat="46.111612599225" lon="13.399401099178567"><ele>131.39999999999998</ele><time>2026-03-28T15:41:26Z</time></trkpt><trkpt lat="46.11167663654375" lon="13.399296519920535"><ele>131.2</ele><time>2026-03-28T15:41:27Z</time></trkpt><trkpt lat="46.11173842367458" lon="13.399166373898552"><ele>131.0</ele><time>2026-03-28T15:41:28Z</time></trkpt><trkpt lat="46.11179164631369" lon="13.399038776825229"><ele>131.4</ele><time>2026-03-28T15:41:29Z</time></trkpt><trkpt lat="46.11184284221389" lon="13.398918660971884"><ele>131.8</ele><time>2026-03-28T15:41:30Z</time></trkpt><trkpt lat="46.111878251361794" lon="13.398780775514464"><ele>132.20000000000002</ele><time>2026-03-28T15:41:31Z</time></trkpt><trkpt lat="46.11192127567379" lon="13.398644077651934"><ele>132.6</ele><time>2026-03-28T15:41:32Z</time></trkpt><trkpt lat="46.111965510579935" lon="13.398508940851642"><ele>133.0</ele><time>2026-03-28T15:41:33Z</time></trkpt><trkpt lat="46.11199833745207" lon="13.398375718095965"><ele>133.0</ele><time>2026-03-28T15:41:34Z</time></trkpt><trkpt lat="46.11203152869666" lon="13.398240653970946"><ele>133.0</ele><time>2026-03-28T15:41:35Z</time></trkpt><trkpt lat="46.11207716732791" lon="13.398097351993425"><ele>133.0</ele><time>2026-03-28T15:41:36Z</time></trkpt><trkpt lat="46.11211551314133" lon="13.397961165536785"><ele>133.0</ele><time>2026-03-28T15:41:37Z</time></trkpt><trkpt lat="46.11216005683724" lon="13.397846213272665"><ele>133.0</ele><time>2026-03-28T15:41:38Z</time></trkpt><trkpt lat="46.11221998781508" lon="13.397738917347946"><ele>133.0</ele><time>2026-03-28T15:41:39Z</time></trkpt><trkpt lat="46.11228962450731" lon="13.39765053829841"><ele>133.0</ele><time>2026-03-28T15:41:40Z</time></trkpt><trkpt lat="46.11237817748383" lon="13.397584171095621"><ele>133.0</ele><time>2026-03-28T15:41:41Z</time></trkpt><trkpt lat="46.11249194769838" lon="13.3975885080888"><ele>133.0</ele><time>2026-03-28T15:41:42Z</time></trkpt><trkpt lat="46.11262954734286" lon="13.39758705433003"><ele>133.0</ele><time>2026-03-28T15:41:43Z</time></trkpt><trkpt lat="46.11279976523428" lon="13.397589851797507"><ele>132.66666666666669</ele><time>2026-03-28T15:41:44Z</time></trkpt><trkpt lat="46.112992986281895" lon="13.39759369884441"><ele>132.33333333333334</ele><time>2026-03-28T15:41:45Z</time></trkpt><trkpt lat="46.11318171353492" lon="13.397563955976409"><ele>132.0</ele><time>2026-03-28T15:41:46Z</time></trkpt><trkpt lat="46.1133428829789" lon="13.397569903439114"><ele>132.5</ele><time>2026-03-28T15:41:47Z</time></trkpt><trkpt lat="46.11349319790008" lon="13.397565781799338"><ele>133.0</ele><time>2026-03-28T15:41:48Z</time></trkpt><trkpt lat="46.113621582724626" lon="13.397551739343971"><ele>133.5</ele><time>2026-03-28T15:41:49Z</time></trkpt><trkpt lat="46.113713757009805" lon="13.397477667197897"><ele>134.0</ele><time>2026-03-28T15:41:50Z</time></trkpt><trkpt lat="46.11378679892895" lon="13.397404369863168"><ele>134.0</ele><time>2026-03-28T15:41:51Z</time></trkpt><trkpt lat="46.113825702308866" lon="13.397288644073747"><ele>134.0</ele><time>2026-03-28T15:41:52Z</time></trkpt><trkpt lat="46.11386135862807" lon="13.397143092309655"><ele>134.0</ele><time>2026-03-28T15:41:53Z</time></trkpt><trkpt lat="46.113888344839225" lon="13.396944485667335"><ele>134.0</ele><time>2026-03-28T15:41:54Z</time></trkpt><trkpt lat="46.113954167150176" lon="13.396742745903657"><ele>134.0</ele><time>2026-03-28T15:41:55Z</time></trkpt><trkpt lat="46.11404860473431" lon="13.396551759793088"><ele>134.0</ele><time>2026-03-28T15:41:56Z</time></trkpt><trkpt lat="46.11415574902175" lon="13.396363241678113"><ele>134.0</ele><time>2026-03-28T15:41:57Z</time></trkpt><trkpt lat="46.11425592532306" lon="13.39620959131458"><ele>133.5</ele><time>2026-03-28T15:41:58Z</time></trkpt><trkpt lat="46.11434064337918" lon="13.396062785514443"><ele>133.0</ele><time>2026-03-28T15:41:59Z</time></trkpt><trkpt lat="46.11443723048809" lon="13.395948419986127"><ele>132.5</ele><time>2026-03-28T15:42:00Z</time></trkpt><trkpt lat="46.114533016054395" lon="13.395853844626075"><ele>132.0</ele><time>2026-03-28T15:42:01Z</time></trkpt><trkpt lat="46.114629915704676" lon="13.395774102801466"><ele>132.0</ele><time>2026-03-28T15:42:02Z</time></trkpt><trkpt lat="46.114727358001495" lon="13.395670891140009"><ele>132.0</ele><time>2026-03-28T15:42:03Z</time></trkpt><trkpt lat="46.11483463456789" lon="13.39555878548003"><ele>132.0</ele><time>2026-03-28T15:42:04Z</time></trkpt><trkpt lat="46.114960448672704" lon="13.39549186958943"><ele>132.0</ele><time>2026-03-28T15:42:05Z</time></trkpt><trkpt lat="46.1150936029641" lon="13.395436084447073"><ele>131.66666666666666</ele><time>2026-03-28T15:42:06Z</time></trkpt><trkpt lat="46.11523924717787" lon="13.395417239796489"><ele>131.33333333333331</ele><time>2026-03-28T15:42:07Z</time></trkpt><trkpt lat="46.115404783446195" lon="13.395416616099524"><ele>131.0</ele><time>2026-03-28T15:42:08Z</time></trkpt><trkpt lat="46.115572346172705" lon="13.395399228661836"><ele>131.66666666666666</ele><time>2026-03-28T15:42:09Z</time></trkpt><trkpt lat="46.11573716780927" lon="13.395398581807632"><ele>132.33333333333334</ele><time>2026-03-28T15:42:10Z</time></trkpt><trkpt lat="46.11590411989421" lon="13.395350528860355"><ele>133.0</ele><time>2026-03-28T15:42:11Z</time></trkpt><trkpt lat="46.11607198702737" lon="13.39524830550348"><ele>133.0</ele><time>2026-03-28T15:42:12Z</time></trkpt><trkpt lat="46.11623261817743" lon="13.395103333573765"><ele>133.0</ele><time>2026-03-28T15:42:13Z</time></trkpt><trkpt lat="46.11638129029321" lon="13.394915433970697"><ele>133.0</ele><time>2026-03-28T15:42:14Z</time></trkpt><trkpt lat="46.1165233724054" lon="13.394703178311334"><ele>133.0</ele><time>2026-03-28T15:42:15Z</time></trkpt><trkpt lat="46.11666133744074" lon="13.39448473388121"><ele>133.0</ele><time>2026-03-28T15:42:16Z</time></trkpt><trkpt lat="46.116821869769204" lon="13.394285445458758"><ele>133.0</ele><time>2026-03-28T15:42:17Z</time></trkpt><trkpt lat="46.11696867637294" lon="13.394073878209584"><ele>132.33333333333334</ele><time>2026-03-28T15:42:18Z</time></trkpt><trkpt lat="46.11709927720408" lon="13.39383696369717"><ele>131.66666666666666</ele><time>2026-03-28T15:42:19Z</time></trkpt><trkpt lat="46.117175148294024" lon="13.393540039730079"><ele>131.0</ele><time>2026-03-28T15:42:20Z</time></trkpt><trkpt lat="46.1172480356104" lon="13.39322706187056"><ele>130.5</ele><time>2026-03-28T15:42:21Z</time></trkpt><trkpt lat="46.117329741013" lon="13.392890492560783"><ele>130.0</ele><time>2026-03-28T15:42:22Z</time></trkpt><trkpt lat="46.11746893888091" lon="13.39257559008897"><ele>130.0</ele><time>2026-03-28T15:42:23Z</time></trkpt><trkpt lat="46.11762532463236" lon="13.392275286693323"><ele>130.0</ele><time>2026-03-28T15:42:24Z</time></trkpt><trkpt lat="46.11779780555855" lon="13.391958359957338"><ele>129.5</ele><time>2026-03-28T15:42:25Z</time></trkpt><trkpt lat="46.117959137680145" lon="13.391658081581397"><ele>129.0</ele><time>2026-03-28T15:42:26Z</time></trkpt><trkpt lat="46.11811001500192" lon="13.391338096009235"><ele>127.5</ele><time>2026-03-28T15:42:27Z</time></trkpt><trkpt lat="46.118277289624565" lon="13.391027587655538"><ele>126.0</ele><time>2026-03-28T15:42:28Z</time></trkpt><trkpt lat="46.11845396773302" lon="13.39069819632387"><ele>125.5</ele><time>2026-03-28T15:42:29Z</time></trkpt><trkpt lat="46.11863458703901" lon="13.39036155631093"><ele>125.0</ele><time>2026-03-28T15:42:30Z</time></trkpt><trkpt lat="46.11882845913194" lon="13.39003859445271"><ele>125.0</ele><time>2026-03-28T15:42:31Z</time></trkpt><trkpt lat="46.11900623112455" lon="13.389708405254527"><ele>125.0</ele><time>2026-03-28T15:42:32Z</time></trkpt><trkpt lat="46.119174464768335" lon="13.389368662008147"><ele>125.0</ele><time>2026-03-28T15:42:33Z</time></trkpt><trkpt lat="46.1193597456671" lon="13.389048409800406"><ele>125.0</ele><time>2026-03-28T15:42:34Z</time></trkpt><trkpt lat="46.11955855350462" lon="13.388737079674252"><ele>125.0</ele><time>2026-03-28T15:42:35Z</time></trkpt><trkpt lat="46.11977649326518" lon="13.388460209675934"><ele>125.0</ele><time>2026-03-28T15:42:36Z</time></trkpt><trkpt lat="46.11999919551707" lon="13.388186459276287"><ele>124.5</ele><time>2026-03-28T15:42:37Z</time></trkpt><trkpt lat="46.120229987713834" lon="13.387925985906794"><ele>124.0</ele><time>2026-03-28T15:42:38Z</time></trkpt><trkpt lat="46.120421283435476" lon="13.387674530767793"><ele>124.0</ele><time>2026-03-28T15:42:38.999Z</time></trkpt><trkpt lat="46.120659006454275" lon="13.3873595807923"><ele>124.0</ele><time>2026-03-28T15:42:39.999Z</time></trkpt><trkpt lat="46.120849173796906" lon="13.387079361885501"><ele>124.5</ele><time>2026-03-28T15:42:40.999Z</time></trkpt><trkpt lat="46.12104659815349" lon="13.386853418370244"><ele>125.0</ele><time>2026-03-28T15:42:41.999Z</time></trkpt><trkpt lat="46.12119314910553" lon="13.386606272129786"><ele>125.0</ele><time>2026-03-28T15:42:42.999Z</time></trkpt><trkpt lat="46.121318330656536" lon="13.38635103400358"><ele>125.0</ele><time>2026-03-28T15:42:43.999Z</time></trkpt><trkpt lat="46.12140938832078" lon="13.386026724807815"><ele>124.0</ele><time>2026-03-28T15:42:44.999Z</time></trkpt><trkpt lat="46.1214783497235" lon="13.385671535858295"><ele>123.0</ele><time>2026-03-28T15:42:45.999Z</time></trkpt><trkpt lat="46.12152695475706" lon="13.385274728293577"><ele>124.0</ele><time>2026-03-28T15:42:46.999Z</time></trkpt><trkpt lat="46.12160589448398" lon="13.38487129848859"><ele>125.0</ele><time>2026-03-28T15:42:47.999Z</time></trkpt><trkpt lat="46.12166963624024" lon="13.384474377382773"><ele>125.0</ele><time>2026-03-28T15:42:48.999Z</time></trkpt><trkpt lat="46.12173219615269" lon="13.384098375770268"><ele>125.0</ele><time>2026-03-28T15:42:49.999Z</time></trkpt><trkpt lat="46.12182509888147" lon="13.38375582769048"><ele>124.0</ele><time>2026-03-28T15:42:50.999Z</time></trkpt><trkpt lat="46.12193107483092" lon="13.383427514838477"><ele>123.0</ele><time>2026-03-28T15:42:51.999Z</time></trkpt><trkpt lat="46.12204094610826" lon="13.383093206213431"><ele>123.0</ele><time>2026-03-28T15:42:52.999Z</time></trkpt><trkpt lat="46.1221917782431" lon="13.382768181399705"><ele>123.0</ele><time>2026-03-28T15:42:53.999Z</time></trkpt><trkpt lat="46.12234766023501" lon="13.3824278039975"><ele>123.5</ele><time>2026-03-28T15:42:54.999Z</time></trkpt><trkpt lat="46.12250515338089" lon="13.38208292469244"><ele>124.0</ele><time>2026-03-28T15:42:55.999Z</time></trkpt><trkpt lat="46.12266376103692" lon="13.381732509272878"><ele>124.0</ele><time>2026-03-28T15:42:56.999Z</time></trkpt><trkpt lat="46.12281860049731" lon="13.381380702701502"><ele>124.0</ele><time>2026-03-28T15:42:57.999Z</time></trkpt><trkpt lat="46.12297652359728" lon="13.381026604261944"><ele>124.5</ele><time>2026-03-28T15:42:58.999Z</time></trkpt><trkpt lat="46.1231370856909" lon="13.380671433051775"><ele>125.0</ele><time>2026-03-28T15:42:59.999Z</time></trkpt><trkpt lat="46.12329554283694" lon="13.380312063848326"><ele>125.0</ele><time>2026-03-28T15:43:00.999Z</time></trkpt><trkpt lat="46.12345152788997" lon="13.37994890554072"><ele>125.0</ele><time>2026-03-28T15:43:01.999Z</time></trkpt><trkpt lat="46.12360987861906" lon="13.379581636768377"><ele>125.0</ele><time>2026-03-28T15:43:02.999Z</time></trkpt><trkpt lat="46.12376993196077" lon="13.379218134244192"><ele>125.0</ele><time>2026-03-28T15:43:04Z</time></trkpt><trkpt lat="46.12393171106713" lon="13.378853233025742"><ele>124.0</ele><time>2026-03-28T15:43:05Z</time></trkpt><trkpt lat="46.12409123841454" lon="13.378484712405434"><ele>123.0</ele><time>2026-03-28T15:43:06Z</time></trkpt><trkpt lat="46.124250979568224" lon="13.37812246235895"><ele>122.5</ele><time>2026-03-28T15:43:07Z</time></trkpt><trkpt lat="46.12440356240718" lon="13.377754359947556"><ele>122.0</ele><time>2026-03-28T15:43:08Z</time></trkpt><trkpt lat="46.12455705751181" lon="13.37741733717563"><ele>122.5</ele><time>2026-03-28T15:43:09Z</time></trkpt><trkpt lat="46.12470256395191" lon="13.37708454368106"><ele>123.0</ele><time>2026-03-28T15:43:10Z</time></trkpt><trkpt lat="46.124840952047016" lon="13.376758856913865"><ele>123.0</ele><time>2026-03-28T15:43:11Z</time></trkpt><trkpt lat="46.12497730100658" lon="13.376441761220228"><ele>123.0</ele><time>2026-03-28T15:43:12Z</time></trkpt><trkpt lat="46.125108393127405" lon="13.376155471832945"><ele>122.5</ele><time>2026-03-28T15:43:13Z</time></trkpt><trkpt lat="46.12524219765522" lon="13.375839711471345"><ele>122.0</ele><time>2026-03-28T15:43:14Z</time></trkpt><trkpt lat="46.12537480810627" lon="13.37553111885067"><ele>123.5</ele><time>2026-03-28T15:43:15Z</time></trkpt><trkpt lat="46.125511670486766" lon="13.375219757479828"><ele>125.0</ele><time>2026-03-28T15:43:16Z</time></trkpt><trkpt lat="46.1256420486413" lon="13.374923142697105"><ele>125.66666666666666</ele><time>2026-03-28T15:43:17Z</time></trkpt><trkpt lat="46.125758777557344" lon="13.37464864348027"><ele>126.33333333333334</ele><time>2026-03-28T15:43:18Z</time></trkpt><trkpt lat="46.12585714355732" lon="13.374383922724563"><ele>127.0</ele><time>2026-03-28T15:43:19Z</time></trkpt><trkpt lat="46.12592348137957" lon="13.3741018653639"><ele>125.33333333333334</ele><time>2026-03-28T15:43:20Z</time></trkpt><trkpt lat="46.12595026372541" lon="13.37379809429039"><ele>123.66666666666666</ele><time>2026-03-28T15:43:21Z</time></trkpt><trkpt lat="46.12594467993096" lon="13.3734593982974"><ele>122.0</ele><time>2026-03-28T15:43:22Z</time></trkpt><trkpt lat="46.125939189896634" lon="13.373117813722342"><ele>122.66666666666666</ele><time>2026-03-28T15:43:23Z</time></trkpt><trkpt lat="46.125946278186746" lon="13.372788900569734"><ele>123.33333333333334</ele><time>2026-03-28T15:43:24Z</time></trkpt><trkpt lat="46.1259591889099" lon="13.372478237614992"><ele>124.0</ele><time>2026-03-28T15:43:25Z</time></trkpt><trkpt lat="46.125971031233895" lon="13.372203696328265"><ele>124.66666666666667</ele><time>2026-03-28T15:43:26Z</time></trkpt><trkpt lat="46.12598247475454" lon="13.371955020267155"><ele>125.33333333333334</ele><time>2026-03-28T15:43:27Z</time></trkpt><trkpt lat="46.12599117571652" lon="13.371736119991802"><ele>126.0</ele><time>2026-03-28T15:43:28Z</time></trkpt><trkpt lat="46.12600786654856" lon="13.371519618891076"><ele>125.75</ele><time>2026-03-28T15:43:29Z</time></trkpt><trkpt lat="46.12600677412617" lon="13.37131224759295"><ele>125.5</ele><time>2026-03-28T15:43:30Z</time></trkpt><trkpt lat="46.12600757303954" lon="13.371108203382475"><ele>125.25</ele><time>2026-03-28T15:43:31Z</time></trkpt><trkpt lat="46.12601932311845" lon="13.370890928591615"><ele>125.0</ele><time>2026-03-28T15:43:32Z</time></trkpt><trkpt lat="46.12602249748136" lon="13.37068590366958"><ele>125.0</ele><time>2026-03-28T15:43:33Z</time></trkpt><trkpt lat="46.12602396212686" lon="13.370469496434644"><ele>125.0</ele><time>2026-03-28T15:43:34Z</time></trkpt><trkpt lat="46.12602579260221" lon="13.370248736498798"><ele>125.0</ele><time>2026-03-28T15:43:35Z</time></trkpt><trkpt lat="46.12603320753564" lon="13.370033148047161"><ele>125.0</ele><time>2026-03-28T15:43:36Z</time></trkpt><trkpt lat="46.126038656774945" lon="13.369836511853576"><ele>125.0</ele><time>2026-03-28T15:43:37Z</time></trkpt><trkpt lat="46.12604329008725" lon="13.369652122797474"><ele>125.0</ele><time>2026-03-28T15:43:38Z</time></trkpt><trkpt lat="46.12605147753748" lon="13.369469563427199"><ele>125.0</ele><time>2026-03-28T15:43:39Z</time></trkpt><trkpt lat="46.12607217577512" lon="13.369297174476946"><ele>125.0</ele><time>2026-03-28T15:43:40Z</time></trkpt><trkpt lat="46.12612403044141" lon="13.369140804236228"><ele>125.0</ele><time>2026-03-28T15:43:41Z</time></trkpt><trkpt lat="46.126193677827146" lon="13.368975485933767"><ele>125.0</ele><time>2026-03-28T15:43:42Z</time></trkpt><trkpt lat="46.12626745103986" lon="13.368818400096435"><ele>125.0</ele><time>2026-03-28T15:43:43Z</time></trkpt><trkpt lat="46.12633917667499" lon="13.368665662351937"><ele>125.25</ele><time>2026-03-28T15:43:44Z</time></trkpt><trkpt lat="46.12641116831517" lon="13.368504370579252"><ele>125.5</ele><time>2026-03-28T15:43:45Z</time></trkpt><trkpt lat="46.126479021077536" lon="13.368322813622703"><ele>125.75</ele><time>2026-03-28T15:43:46Z</time></trkpt><trkpt lat="46.126553246570644" lon="13.368131633352506"><ele>126.0</ele><time>2026-03-28T15:43:47Z</time></trkpt><trkpt lat="46.12662877857606" lon="13.3679498572394"><ele>126.75</ele><time>2026-03-28T15:43:48Z</time></trkpt><trkpt lat="46.12670431877208" lon="13.367769886920126"><ele>127.5</ele><time>2026-03-28T15:43:49Z</time></trkpt><trkpt lat="46.12678492296457" lon="13.36758821295944"><ele>128.25</ele><time>2026-03-28T15:43:50Z</time></trkpt><trkpt lat="46.12686048814341" lon="13.367403972829907"><ele>129.0</ele><time>2026-03-28T15:43:51Z</time></trkpt><trkpt lat="46.126934238585235" lon="13.367219428097435"><ele>129.5</ele><time>2026-03-28T15:43:52Z</time></trkpt><trkpt lat="46.12700800999617" lon="13.367025130318956"><ele>130.0</ele><time>2026-03-28T15:43:53Z</time></trkpt><trkpt lat="46.127080463380615" lon="13.36684373210283"><ele>130.5</ele><time>2026-03-28T15:43:54Z</time></trkpt><trkpt lat="46.12714293499885" lon="13.366656308811722"><ele>131.0</ele><time>2026-03-28T15:43:55Z</time></trkpt><trkpt lat="46.12719712792956" lon="13.366519489354586"><ele>131.0</ele><time>2026-03-28T15:43:56Z</time></trkpt><trkpt lat="46.12722318317061" lon="13.366405148147098"><ele>131.0</ele><time>2026-03-28T15:43:57Z</time></trkpt><trkpt lat="46.127244490880415" lon="13.366306474779014"><ele>131.0</ele><time>2026-03-28T15:43:58Z</time></trkpt><trkpt lat="46.12729068300316" lon="13.366235252133245"><ele>131.0</ele><time>2026-03-28T15:43:59Z</time></trkpt></trkseg></trk></gpx>